<?xml version="1.0" encoding="UTF-8" standalone="no" ?>
<gpx xmlns="http://www.topografix.com/GPX/1/1" xmlns:xsi="http://www.w3.org/2001/XMLSchema-instance" xsi:schemaLocation="http://www.topografix.com/GPX/1/1 http://www.topografix.com/GPX/1/1/gpx.xsd" version="1.1" creator="VisuGPX - https://www.visugpx.com">
  <metadata>
    <name>jours 3 - 6</name>
    <desc><![CDATA[eurovélo 6]]></desc>
  </metadata>
  <trk>
    <name><![CDATA[2014-07-09 20:33:36]]></name>
    <trkseg>
      <trkpt lat="46.56849" lon="5.75281">
        <ele>542.8</ele>
        <time>2014-07-03T17:04:35Z</time>
      </trkpt>
      <trkpt lat="46.56849" lon="5.75282">
        <ele>541.84</ele>
        <time>2014-07-03T17:04:41Z</time>
      </trkpt>
      <trkpt lat="46.56849" lon="5.75282">
        <ele>581.25</ele>
        <time>2014-07-04T07:44:54Z</time>
      </trkpt>
      <trkpt lat="46.56854" lon="5.75301">
        <ele>580.77</ele>
        <time>2014-07-04T07:44:55Z</time>
      </trkpt>
      <trkpt lat="46.56853" lon="5.75301">
        <ele>580.77</ele>
        <time>2014-07-04T07:45:17Z</time>
      </trkpt>
      <trkpt lat="46.56846" lon="5.75288">
        <ele>576.45</ele>
        <time>2014-07-04T07:45:26Z</time>
      </trkpt>
      <trkpt lat="46.56846" lon="5.75288">
        <ele>573.56</ele>
        <time>2014-07-04T07:45:29Z</time>
      </trkpt>
      <trkpt lat="46.56847" lon="5.75288">
        <ele>570.2</ele>
        <time>2014-07-04T07:45:32Z</time>
      </trkpt>
      <trkpt lat="46.56847" lon="5.75289">
        <ele>567.32</ele>
        <time>2014-07-04T07:45:35Z</time>
      </trkpt>
      <trkpt lat="46.56846" lon="5.75288">
        <ele>563.95</ele>
        <time>2014-07-04T07:45:39Z</time>
      </trkpt>
      <trkpt lat="46.56846" lon="5.75287">
        <ele>559.62</ele>
        <time>2014-07-04T07:45:43Z</time>
      </trkpt>
      <trkpt lat="46.56846" lon="5.75287">
        <ele>559.62</ele>
        <time>2014-07-04T07:45:44Z</time>
      </trkpt>
      <trkpt lat="46.56845" lon="5.75286">
        <ele>556.74</ele>
        <time>2014-07-04T07:45:49Z</time>
      </trkpt>
      <trkpt lat="46.56845" lon="5.75286">
        <ele>553.86</ele>
        <time>2014-07-04T07:45:55Z</time>
      </trkpt>
      <trkpt lat="46.56846" lon="5.75285">
        <ele>550.49</ele>
        <time>2014-07-04T07:46:03Z</time>
      </trkpt>
      <trkpt lat="46.56846" lon="5.75285">
        <ele>547.13</ele>
        <time>2014-07-04T07:46:16Z</time>
      </trkpt>
      <trkpt lat="46.56847" lon="5.75287">
        <ele>546.17</ele>
        <time>2014-07-04T07:46:42Z</time>
      </trkpt>
      <trkpt lat="46.56847" lon="5.75286">
        <ele>548.09</ele>
        <time>2014-07-04T07:46:55Z</time>
      </trkpt>
      <trkpt lat="46.56847" lon="5.75286">
        <ele>548.09</ele>
        <time>2014-07-04T07:46:56Z</time>
      </trkpt>
      <trkpt lat="46.56849" lon="5.75287">
        <ele>547.61</ele>
        <time>2014-07-04T07:47:28Z</time>
      </trkpt>
      <trkpt lat="46.5685" lon="5.75288">
        <ele>548.09</ele>
        <time>2014-07-04T07:47:56Z</time>
      </trkpt>
      <trkpt lat="46.5685" lon="5.75289">
        <ele>548.09</ele>
        <time>2014-07-04T07:48:22Z</time>
      </trkpt>
      <trkpt lat="46.56852" lon="5.75289">
        <ele>548.09</ele>
        <time>2014-07-04T07:48:54Z</time>
      </trkpt>
      <trkpt lat="46.56856" lon="5.75288">
        <ele>548.57</ele>
        <time>2014-07-04T07:49:26Z</time>
      </trkpt>
      <trkpt lat="46.56858" lon="5.75292">
        <ele>548.57</ele>
        <time>2014-07-04T07:49:55Z</time>
      </trkpt>
      <trkpt lat="46.56856" lon="5.75288">
        <ele>549.05</ele>
        <time>2014-07-04T07:50:29Z</time>
      </trkpt>
      <trkpt lat="46.56852" lon="5.75289">
        <ele>549.53</ele>
        <time>2014-07-04T07:51:00Z</time>
      </trkpt>
      <trkpt lat="46.56854" lon="5.75288">
        <ele>549.53</ele>
        <time>2014-07-04T07:51:39Z</time>
      </trkpt>
      <trkpt lat="46.56855" lon="5.75286">
        <ele>549.53</ele>
        <time>2014-07-04T07:52:03Z</time>
      </trkpt>
      <trkpt lat="46.56852" lon="5.75287">
        <ele>549.53</ele>
        <time>2014-07-04T07:52:32Z</time>
      </trkpt>
      <trkpt lat="46.5685" lon="5.75284">
        <ele>549.53</ele>
        <time>2014-07-04T07:53:00Z</time>
      </trkpt>
      <trkpt lat="46.56854" lon="5.75298">
        <ele>549.53</ele>
        <time>2014-07-04T07:53:14Z</time>
      </trkpt>
      <trkpt lat="46.56855" lon="5.753">
        <ele>549.53</ele>
        <time>2014-07-04T07:53:19Z</time>
      </trkpt>
      <trkpt lat="46.56858" lon="5.7533">
        <ele>550.49</ele>
        <time>2014-07-04T07:53:38Z</time>
      </trkpt>
      <trkpt lat="46.56857" lon="5.7533">
        <ele>550.49</ele>
        <time>2014-07-04T07:53:58Z</time>
      </trkpt>
      <trkpt lat="46.5686" lon="5.75327">
        <ele>550.49</ele>
        <time>2014-07-04T07:54:31Z</time>
      </trkpt>
      <trkpt lat="46.56862" lon="5.75326">
        <ele>550.49</ele>
        <time>2014-07-04T07:55:06Z</time>
      </trkpt>
      <trkpt lat="46.56862" lon="5.75332">
        <ele>550.49</ele>
        <time>2014-07-04T07:55:33Z</time>
      </trkpt>
      <trkpt lat="46.56864" lon="5.75329">
        <ele>550.49</ele>
        <time>2014-07-04T07:56:04Z</time>
      </trkpt>
      <trkpt lat="46.5686" lon="5.75329">
        <ele>550.49</ele>
        <time>2014-07-04T07:56:39Z</time>
      </trkpt>
      <trkpt lat="46.56862" lon="5.75332">
        <ele>550.49</ele>
        <time>2014-07-04T07:57:04Z</time>
      </trkpt>
      <trkpt lat="46.56863" lon="5.75331">
        <ele>550.49</ele>
        <time>2014-07-04T07:57:33Z</time>
      </trkpt>
      <trkpt lat="46.56864" lon="5.75335">
        <ele>550.01</ele>
        <time>2014-07-04T07:57:58Z</time>
      </trkpt>
      <trkpt lat="46.56864" lon="5.75338">
        <ele>550.01</ele>
        <time>2014-07-04T07:58:11Z</time>
      </trkpt>
      <trkpt lat="46.56867" lon="5.75364">
        <ele>550.97</ele>
        <time>2014-07-04T07:58:23Z</time>
      </trkpt>
      <trkpt lat="46.56877" lon="5.7539">
        <ele>551.93</ele>
        <time>2014-07-04T07:58:38Z</time>
      </trkpt>
      <trkpt lat="46.56871" lon="5.75396">
        <ele>551.93</ele>
        <time>2014-07-04T07:58:43Z</time>
      </trkpt>
      <trkpt lat="46.56844" lon="5.75402">
        <ele>552.9</ele>
        <time>2014-07-04T07:59:01Z</time>
      </trkpt>
      <trkpt lat="46.56836" lon="5.75407">
        <ele>552.9</ele>
        <time>2014-07-04T07:59:07Z</time>
      </trkpt>
      <trkpt lat="46.56835" lon="5.75446">
        <ele>554.34</ele>
        <time>2014-07-04T07:59:25Z</time>
      </trkpt>
      <trkpt lat="46.56849" lon="5.75468">
        <ele>555.3</ele>
        <time>2014-07-04T07:59:39Z</time>
      </trkpt>
      <trkpt lat="46.56852" lon="5.75475">
        <ele>556.26</ele>
        <time>2014-07-04T07:59:43Z</time>
      </trkpt>
      <trkpt lat="46.56845" lon="5.75485">
        <ele>557.22</ele>
        <time>2014-07-04T07:59:51Z</time>
      </trkpt>
      <trkpt lat="46.56825" lon="5.75494">
        <ele>559.14</ele>
        <time>2014-07-04T08:00:06Z</time>
      </trkpt>
      <trkpt lat="46.56825" lon="5.75522">
        <ele>561.07</ele>
        <time>2014-07-04T08:00:22Z</time>
      </trkpt>
      <trkpt lat="46.56835" lon="5.7552">
        <ele>561.55</ele>
        <time>2014-07-04T08:00:29Z</time>
      </trkpt>
      <trkpt lat="46.56862" lon="5.75515">
        <ele>562.51</ele>
        <time>2014-07-04T08:00:46Z</time>
      </trkpt>
      <trkpt lat="46.56888" lon="5.7551">
        <ele>563.47</ele>
        <time>2014-07-04T08:01:03Z</time>
      </trkpt>
      <trkpt lat="46.5691" lon="5.75509">
        <ele>564.43</ele>
        <time>2014-07-04T08:01:16Z</time>
      </trkpt>
      <trkpt lat="46.56942" lon="5.75496">
        <ele>564.91</ele>
        <time>2014-07-04T08:01:33Z</time>
      </trkpt>
      <trkpt lat="46.56944" lon="5.75495">
        <ele>564.91</ele>
        <time>2014-07-04T08:01:34Z</time>
      </trkpt>
      <trkpt lat="46.56952" lon="5.75493">
        <ele>565.39</ele>
        <time>2014-07-04T08:01:38Z</time>
      </trkpt>
      <trkpt lat="46.56986" lon="5.75484">
        <ele>566.35</ele>
        <time>2014-07-04T08:01:53Z</time>
      </trkpt>
      <trkpt lat="46.57023" lon="5.75474">
        <ele>566.83</ele>
        <time>2014-07-04T08:02:08Z</time>
      </trkpt>
      <trkpt lat="46.57062" lon="5.7547">
        <ele>568.28</ele>
        <time>2014-07-04T08:02:24Z</time>
      </trkpt>
      <trkpt lat="46.57096" lon="5.75465">
        <ele>568.76</ele>
        <time>2014-07-04T08:02:38Z</time>
      </trkpt>
      <trkpt lat="46.57135" lon="5.75459">
        <ele>569.24</ele>
        <time>2014-07-04T08:02:51Z</time>
      </trkpt>
      <trkpt lat="46.57202" lon="5.75431">
        <ele>568.76</ele>
        <time>2014-07-04T08:03:08Z</time>
      </trkpt>
      <trkpt lat="46.5726" lon="5.75392">
        <ele>567.8</ele>
        <time>2014-07-04T08:03:23Z</time>
      </trkpt>
      <trkpt lat="46.57278" lon="5.7537">
        <ele>567.32</ele>
        <time>2014-07-04T08:03:28Z</time>
      </trkpt>
      <trkpt lat="46.57323" lon="5.75318">
        <ele>566.83</ele>
        <time>2014-07-04T08:03:41Z</time>
      </trkpt>
      <trkpt lat="46.57354" lon="5.75278">
        <ele>565.39</ele>
        <time>2014-07-04T08:03:50Z</time>
      </trkpt>
      <trkpt lat="46.57362" lon="5.75271">
        <ele>565.39</ele>
        <time>2014-07-04T08:03:52Z</time>
      </trkpt>
      <trkpt lat="46.5741" lon="5.75216">
        <ele>563.95</ele>
        <time>2014-07-04T08:04:03Z</time>
      </trkpt>
      <trkpt lat="46.57451" lon="5.75166">
        <ele>562.51</ele>
        <time>2014-07-04T08:04:12Z</time>
      </trkpt>
      <trkpt lat="46.57471" lon="5.75144">
        <ele>562.03</ele>
        <time>2014-07-04T08:04:16Z</time>
      </trkpt>
      <trkpt lat="46.57488" lon="5.75121">
        <ele>562.03</ele>
        <time>2014-07-04T08:04:20Z</time>
      </trkpt>
      <trkpt lat="46.57517" lon="5.75084">
        <ele>561.55</ele>
        <time>2014-07-04T08:04:27Z</time>
      </trkpt>
      <trkpt lat="46.5753" lon="5.75068">
        <ele>561.07</ele>
        <time>2014-07-04T08:04:32Z</time>
      </trkpt>
      <trkpt lat="46.57554" lon="5.75079">
        <ele>559.62</ele>
        <time>2014-07-04T08:04:45Z</time>
      </trkpt>
      <trkpt lat="46.57579" lon="5.75094">
        <ele>559.14</ele>
        <time>2014-07-04T08:04:53Z</time>
      </trkpt>
      <trkpt lat="46.57636" lon="5.75126">
        <ele>557.7</ele>
        <time>2014-07-04T08:05:09Z</time>
      </trkpt>
      <trkpt lat="46.57659" lon="5.75161">
        <ele>556.26</ele>
        <time>2014-07-04T08:05:21Z</time>
      </trkpt>
      <trkpt lat="46.57666" lon="5.75172">
        <ele>556.26</ele>
        <time>2014-07-04T08:05:24Z</time>
      </trkpt>
      <trkpt lat="46.57679" lon="5.75189">
        <ele>555.78</ele>
        <time>2014-07-04T08:05:28Z</time>
      </trkpt>
      <trkpt lat="46.57696" lon="5.75213">
        <ele>554.82</ele>
        <time>2014-07-04T08:05:33Z</time>
      </trkpt>
      <trkpt lat="46.57721" lon="5.75205">
        <ele>554.34</ele>
        <time>2014-07-04T08:05:41Z</time>
      </trkpt>
      <trkpt lat="46.57724" lon="5.75195">
        <ele>554.34</ele>
        <time>2014-07-04T08:05:43Z</time>
      </trkpt>
      <trkpt lat="46.57738" lon="5.75124">
        <ele>555.78</ele>
        <time>2014-07-04T08:05:57Z</time>
      </trkpt>
      <trkpt lat="46.57723" lon="5.75078">
        <ele>556.26</ele>
        <time>2014-07-04T08:06:09Z</time>
      </trkpt>
      <trkpt lat="46.57689" lon="5.75042">
        <ele>556.74</ele>
        <time>2014-07-04T08:06:24Z</time>
      </trkpt>
      <trkpt lat="46.57681" lon="5.75032">
        <ele>556.74</ele>
        <time>2014-07-04T08:06:37Z</time>
      </trkpt>
      <trkpt lat="46.57679" lon="5.75029">
        <ele>556.74</ele>
        <time>2014-07-04T08:06:55Z</time>
      </trkpt>
      <trkpt lat="46.57679" lon="5.75028">
        <ele>556.74</ele>
        <time>2014-07-04T08:07:18Z</time>
      </trkpt>
      <trkpt lat="46.57678" lon="5.75027">
        <ele>556.74</ele>
        <time>2014-07-04T08:07:49Z</time>
      </trkpt>
      <trkpt lat="46.57678" lon="5.75033">
        <ele>556.74</ele>
        <time>2014-07-04T08:08:27Z</time>
      </trkpt>
      <trkpt lat="46.57678" lon="5.75038">
        <ele>556.74</ele>
        <time>2014-07-04T08:08:52Z</time>
      </trkpt>
      <trkpt lat="46.57682" lon="5.75037">
        <ele>556.74</ele>
        <time>2014-07-04T08:09:33Z</time>
      </trkpt>
      <trkpt lat="46.57684" lon="5.75041">
        <ele>557.22</ele>
        <time>2014-07-04T08:10:03Z</time>
      </trkpt>
      <trkpt lat="46.57682" lon="5.75037">
        <ele>557.7</ele>
        <time>2014-07-04T08:10:49Z</time>
      </trkpt>
      <trkpt lat="46.57682" lon="5.75036">
        <ele>558.18</ele>
        <time>2014-07-04T08:11:30Z</time>
      </trkpt>
      <trkpt lat="46.57681" lon="5.75034">
        <ele>558.18</ele>
        <time>2014-07-04T08:12:02Z</time>
      </trkpt>
      <trkpt lat="46.57681" lon="5.75039">
        <ele>558.18</ele>
        <time>2014-07-04T08:12:32Z</time>
      </trkpt>
      <trkpt lat="46.57682" lon="5.75039">
        <ele>558.66</ele>
        <time>2014-07-04T08:13:15Z</time>
      </trkpt>
      <trkpt lat="46.57682" lon="5.75043">
        <ele>559.14</ele>
        <time>2014-07-04T08:13:38Z</time>
      </trkpt>
      <trkpt lat="46.57684" lon="5.7505">
        <ele>559.62</ele>
        <time>2014-07-04T08:14:08Z</time>
      </trkpt>
      <trkpt lat="46.57684" lon="5.75044">
        <ele>560.59</ele>
        <time>2014-07-04T08:14:41Z</time>
      </trkpt>
      <trkpt lat="46.57682" lon="5.7504">
        <ele>560.59</ele>
        <time>2014-07-04T08:15:13Z</time>
      </trkpt>
      <trkpt lat="46.57684" lon="5.7504">
        <ele>561.07</ele>
        <time>2014-07-04T08:15:46Z</time>
      </trkpt>
      <trkpt lat="46.57682" lon="5.75045">
        <ele>561.55</ele>
        <time>2014-07-04T08:16:23Z</time>
      </trkpt>
      <trkpt lat="46.57683" lon="5.75049">
        <ele>562.03</ele>
        <time>2014-07-04T08:16:57Z</time>
      </trkpt>
      <trkpt lat="46.57683" lon="5.75049">
        <ele>562.51</ele>
        <time>2014-07-04T08:17:37Z</time>
      </trkpt>
      <trkpt lat="46.57684" lon="5.75055">
        <ele>563.47</ele>
        <time>2014-07-04T08:18:23Z</time>
      </trkpt>
      <trkpt lat="46.57683" lon="5.75054">
        <ele>563.95</ele>
        <time>2014-07-04T08:18:55Z</time>
      </trkpt>
      <trkpt lat="46.57683" lon="5.75055">
        <ele>564.43</ele>
        <time>2014-07-04T08:19:29Z</time>
      </trkpt>
      <trkpt lat="46.57683" lon="5.75056">
        <ele>565.39</ele>
        <time>2014-07-04T08:20:13Z</time>
      </trkpt>
      <trkpt lat="46.57681" lon="5.75054">
        <ele>565.87</ele>
        <time>2014-07-04T08:20:44Z</time>
      </trkpt>
      <trkpt lat="46.57682" lon="5.75054">
        <ele>566.35</ele>
        <time>2014-07-04T08:20:58Z</time>
      </trkpt>
      <trkpt lat="46.57656" lon="5.75045">
        <ele>567.32</ele>
        <time>2014-07-04T08:21:13Z</time>
      </trkpt>
      <trkpt lat="46.57623" lon="5.75034">
        <ele>567.8</ele>
        <time>2014-07-04T08:21:25Z</time>
      </trkpt>
      <trkpt lat="46.57578" lon="5.75012">
        <ele>569.24</ele>
        <time>2014-07-04T08:21:41Z</time>
      </trkpt>
      <trkpt lat="46.57536" lon="5.74973">
        <ele>568.76</ele>
        <time>2014-07-04T08:21:55Z</time>
      </trkpt>
      <trkpt lat="46.57503" lon="5.74966">
        <ele>565.39</ele>
        <time>2014-07-04T08:22:03Z</time>
      </trkpt>
      <trkpt lat="46.57479" lon="5.74959">
        <ele>563.95</ele>
        <time>2014-07-04T08:22:07Z</time>
      </trkpt>
      <trkpt lat="46.57463" lon="5.74936">
        <ele>562.03</ele>
        <time>2014-07-04T08:22:11Z</time>
      </trkpt>
      <trkpt lat="46.57431" lon="5.74827">
        <ele>558.66</ele>
        <time>2014-07-04T08:22:25Z</time>
      </trkpt>
      <trkpt lat="46.57421" lon="5.74794">
        <ele>558.18</ele>
        <time>2014-07-04T08:22:30Z</time>
      </trkpt>
      <trkpt lat="46.57427" lon="5.74759">
        <ele>558.66</ele>
        <time>2014-07-04T08:22:36Z</time>
      </trkpt>
      <trkpt lat="46.57433" lon="5.74754">
        <ele>559.14</ele>
        <time>2014-07-04T08:22:46Z</time>
      </trkpt>
      <trkpt lat="46.57433" lon="5.74756">
        <ele>558.66</ele>
        <time>2014-07-04T08:23:18Z</time>
      </trkpt>
      <trkpt lat="46.57433" lon="5.74754">
        <ele>558.66</ele>
        <time>2014-07-04T08:23:45Z</time>
      </trkpt>
      <trkpt lat="46.57432" lon="5.74744">
        <ele>559.14</ele>
        <time>2014-07-04T08:23:49Z</time>
      </trkpt>
      <trkpt lat="46.57428" lon="5.74728">
        <ele>558.66</ele>
        <time>2014-07-04T08:23:53Z</time>
      </trkpt>
      <trkpt lat="46.57413" lon="5.74719">
        <ele>558.66</ele>
        <time>2014-07-04T08:23:58Z</time>
      </trkpt>
      <trkpt lat="46.57405" lon="5.74717">
        <ele>558.18</ele>
        <time>2014-07-04T08:24:00Z</time>
      </trkpt>
      <trkpt lat="46.5739" lon="5.74706">
        <ele>558.18</ele>
        <time>2014-07-04T08:24:04Z</time>
      </trkpt>
      <trkpt lat="46.57348" lon="5.74663">
        <ele>557.7</ele>
        <time>2014-07-04T08:24:18Z</time>
      </trkpt>
      <trkpt lat="46.57344" lon="5.74663">
        <ele>557.7</ele>
        <time>2014-07-04T08:24:29Z</time>
      </trkpt>
      <trkpt lat="46.57345" lon="5.74662">
        <ele>557.22</ele>
        <time>2014-07-04T08:24:48Z</time>
      </trkpt>
      <trkpt lat="46.57345" lon="5.74663">
        <ele>557.22</ele>
        <time>2014-07-04T08:24:57Z</time>
      </trkpt>
      <trkpt lat="46.57348" lon="5.74672">
        <ele>556.74</ele>
        <time>2014-07-04T08:25:02Z</time>
      </trkpt>
      <trkpt lat="46.57386" lon="5.74711">
        <ele>556.74</ele>
        <time>2014-07-04T08:25:20Z</time>
      </trkpt>
      <trkpt lat="46.57388" lon="5.74712">
        <ele>556.74</ele>
        <time>2014-07-04T08:25:21Z</time>
      </trkpt>
      <trkpt lat="46.57394" lon="5.74719">
        <ele>556.74</ele>
        <time>2014-07-04T08:25:26Z</time>
      </trkpt>
      <trkpt lat="46.57396" lon="5.74711">
        <ele>556.74</ele>
        <time>2014-07-04T08:25:31Z</time>
      </trkpt>
      <trkpt lat="46.57391" lon="5.74683">
        <ele>557.7</ele>
        <time>2014-07-04T08:25:40Z</time>
      </trkpt>
      <trkpt lat="46.57382" lon="5.74654">
        <ele>559.14</ele>
        <time>2014-07-04T08:25:51Z</time>
      </trkpt>
      <trkpt lat="46.57375" lon="5.74628">
        <ele>560.59</ele>
        <time>2014-07-04T08:26:03Z</time>
      </trkpt>
      <trkpt lat="46.57373" lon="5.74618">
        <ele>561.07</ele>
        <time>2014-07-04T08:26:08Z</time>
      </trkpt>
      <trkpt lat="46.57368" lon="5.74592">
        <ele>563.47</ele>
        <time>2014-07-04T08:26:24Z</time>
      </trkpt>
      <trkpt lat="46.57368" lon="5.74563">
        <ele>565.39</ele>
        <time>2014-07-04T08:26:39Z</time>
      </trkpt>
      <trkpt lat="46.57368" lon="5.74562">
        <ele>565.87</ele>
        <time>2014-07-04T08:26:40Z</time>
      </trkpt>
      <trkpt lat="46.5737" lon="5.7455">
        <ele>566.83</ele>
        <time>2014-07-04T08:26:46Z</time>
      </trkpt>
      <trkpt lat="46.57373" lon="5.74541">
        <ele>567.32</ele>
        <time>2014-07-04T08:26:51Z</time>
      </trkpt>
      <trkpt lat="46.57384" lon="5.74501">
        <ele>569.72</ele>
        <time>2014-07-04T08:27:10Z</time>
      </trkpt>
      <trkpt lat="46.57393" lon="5.74466">
        <ele>572.12</ele>
        <time>2014-07-04T08:27:27Z</time>
      </trkpt>
      <trkpt lat="46.57395" lon="5.74427">
        <ele>573.56</ele>
        <time>2014-07-04T08:27:43Z</time>
      </trkpt>
      <trkpt lat="46.57393" lon="5.74383">
        <ele>574.04</ele>
        <time>2014-07-04T08:27:58Z</time>
      </trkpt>
      <trkpt lat="46.57393" lon="5.74319">
        <ele>575.01</ele>
        <time>2014-07-04T08:28:16Z</time>
      </trkpt>
      <trkpt lat="46.57398" lon="5.7426">
        <ele>577.89</ele>
        <time>2014-07-04T08:28:35Z</time>
      </trkpt>
      <trkpt lat="46.57405" lon="5.74203">
        <ele>579.81</ele>
        <time>2014-07-04T08:28:54Z</time>
      </trkpt>
      <trkpt lat="46.5742" lon="5.74143">
        <ele>581.73</ele>
        <time>2014-07-04T08:29:14Z</time>
      </trkpt>
      <trkpt lat="46.57447" lon="5.74099">
        <ele>583.66</ele>
        <time>2014-07-04T08:29:33Z</time>
      </trkpt>
      <trkpt lat="46.57478" lon="5.74062">
        <ele>585.58</ele>
        <time>2014-07-04T08:29:53Z</time>
      </trkpt>
      <trkpt lat="46.57506" lon="5.74029">
        <ele>586.54</ele>
        <time>2014-07-04T08:30:11Z</time>
      </trkpt>
      <trkpt lat="46.57533" lon="5.73998">
        <ele>587.5</ele>
        <time>2014-07-04T08:30:30Z</time>
      </trkpt>
      <trkpt lat="46.57533" lon="5.73998">
        <ele>587.02</ele>
        <time>2014-07-04T08:30:51Z</time>
      </trkpt>
      <trkpt lat="46.57534" lon="5.73999">
        <ele>587.02</ele>
        <time>2014-07-04T08:31:16Z</time>
      </trkpt>
      <trkpt lat="46.57533" lon="5.73997">
        <ele>586.54</ele>
        <time>2014-07-04T08:31:37Z</time>
      </trkpt>
      <trkpt lat="46.57556" lon="5.73964">
        <ele>585.58</ele>
        <time>2014-07-04T08:31:50Z</time>
      </trkpt>
      <trkpt lat="46.57576" lon="5.73938">
        <ele>584.14</ele>
        <time>2014-07-04T08:31:55Z</time>
      </trkpt>
      <trkpt lat="46.5761" lon="5.73894">
        <ele>580.29</ele>
        <time>2014-07-04T08:32:01Z</time>
      </trkpt>
      <trkpt lat="46.57623" lon="5.73877">
        <ele>579.33</ele>
        <time>2014-07-04T08:32:03Z</time>
      </trkpt>
      <trkpt lat="46.57642" lon="5.7385">
        <ele>578.37</ele>
        <time>2014-07-04T08:32:06Z</time>
      </trkpt>
      <trkpt lat="46.57691" lon="5.73804">
        <ele>574.53</ele>
        <time>2014-07-04T08:32:12Z</time>
      </trkpt>
      <trkpt lat="46.57735" lon="5.73762">
        <ele>571.16</ele>
        <time>2014-07-04T08:32:17Z</time>
      </trkpt>
      <trkpt lat="46.57762" lon="5.73712">
        <ele>568.76</ele>
        <time>2014-07-04T08:32:21Z</time>
      </trkpt>
      <trkpt lat="46.57785" lon="5.73635">
        <ele>563.95</ele>
        <time>2014-07-04T08:32:26Z</time>
      </trkpt>
      <trkpt lat="46.57801" lon="5.73587">
        <ele>560.59</ele>
        <time>2014-07-04T08:32:29Z</time>
      </trkpt>
      <trkpt lat="46.57824" lon="5.73541">
        <ele>557.22</ele>
        <time>2014-07-04T08:32:32Z</time>
      </trkpt>
      <trkpt lat="46.57849" lon="5.73496">
        <ele>553.38</ele>
        <time>2014-07-04T08:32:35Z</time>
      </trkpt>
      <trkpt lat="46.57875" lon="5.7345">
        <ele>549.53</ele>
        <time>2014-07-04T08:32:38Z</time>
      </trkpt>
      <trkpt lat="46.57902" lon="5.73403">
        <ele>546.17</ele>
        <time>2014-07-04T08:32:41Z</time>
      </trkpt>
      <trkpt lat="46.57928" lon="5.73357">
        <ele>542.8</ele>
        <time>2014-07-04T08:32:44Z</time>
      </trkpt>
      <trkpt lat="46.57953" lon="5.73311">
        <ele>541.36</ele>
        <time>2014-07-04T08:32:47Z</time>
      </trkpt>
      <trkpt lat="46.57995" lon="5.73221">
        <ele>537.99</ele>
        <time>2014-07-04T08:32:53Z</time>
      </trkpt>
      <trkpt lat="46.5802" lon="5.73157">
        <ele>533.67</ele>
        <time>2014-07-04T08:32:57Z</time>
      </trkpt>
      <trkpt lat="46.58042" lon="5.73091">
        <ele>530.3</ele>
        <time>2014-07-04T08:33:01Z</time>
      </trkpt>
      <trkpt lat="46.5806" lon="5.73022">
        <ele>526.94</ele>
        <time>2014-07-04T08:33:05Z</time>
      </trkpt>
      <trkpt lat="46.58079" lon="5.72938">
        <ele>524.06</ele>
        <time>2014-07-04T08:33:10Z</time>
      </trkpt>
      <trkpt lat="46.581" lon="5.7284">
        <ele>520.69</ele>
        <time>2014-07-04T08:33:16Z</time>
      </trkpt>
      <trkpt lat="46.58119" lon="5.72762">
        <ele>516.85</ele>
        <time>2014-07-04T08:33:21Z</time>
      </trkpt>
      <trkpt lat="46.58138" lon="5.72687">
        <ele>514.44</ele>
        <time>2014-07-04T08:33:26Z</time>
      </trkpt>
      <trkpt lat="46.58176" lon="5.72527">
        <ele>512.52</ele>
        <time>2014-07-04T08:33:39Z</time>
      </trkpt>
      <trkpt lat="46.58199" lon="5.72435">
        <ele>513</ele>
        <time>2014-07-04T08:33:50Z</time>
      </trkpt>
      <trkpt lat="46.58226" lon="5.72324">
        <ele>513</ele>
        <time>2014-07-04T08:34:07Z</time>
      </trkpt>
      <trkpt lat="46.58242" lon="5.72248">
        <ele>509.16</ele>
        <time>2014-07-04T08:34:15Z</time>
      </trkpt>
      <trkpt lat="46.58258" lon="5.72186">
        <ele>505.79</ele>
        <time>2014-07-04T08:34:20Z</time>
      </trkpt>
      <trkpt lat="46.58274" lon="5.72116">
        <ele>502.43</ele>
        <time>2014-07-04T08:34:25Z</time>
      </trkpt>
      <trkpt lat="46.58313" lon="5.71951">
        <ele>499.54</ele>
        <time>2014-07-04T08:34:38Z</time>
      </trkpt>
      <trkpt lat="46.58352" lon="5.71783">
        <ele>498.58</ele>
        <time>2014-07-04T08:34:55Z</time>
      </trkpt>
      <trkpt lat="46.58378" lon="5.71662">
        <ele>497.14</ele>
        <time>2014-07-04T08:35:10Z</time>
      </trkpt>
      <trkpt lat="46.5841" lon="5.71541">
        <ele>496.66</ele>
        <time>2014-07-04T08:35:25Z</time>
      </trkpt>
      <trkpt lat="46.58433" lon="5.71443">
        <ele>496.66</ele>
        <time>2014-07-04T08:35:40Z</time>
      </trkpt>
      <trkpt lat="46.58462" lon="5.71319">
        <ele>495.7</ele>
        <time>2014-07-04T08:35:59Z</time>
      </trkpt>
      <trkpt lat="46.5849" lon="5.71199">
        <ele>493.29</ele>
        <time>2014-07-04T08:36:14Z</time>
      </trkpt>
      <trkpt lat="46.58497" lon="5.71169">
        <ele>491.85</ele>
        <time>2014-07-04T08:36:17Z</time>
      </trkpt>
      <trkpt lat="46.58528" lon="5.71035">
        <ele>490.89</ele>
        <time>2014-07-04T08:36:30Z</time>
      </trkpt>
      <trkpt lat="46.58545" lon="5.70957">
        <ele>492.81</ele>
        <time>2014-07-04T08:36:42Z</time>
      </trkpt>
      <trkpt lat="46.58572" lon="5.70828">
        <ele>489.45</ele>
        <time>2014-07-04T08:37:01Z</time>
      </trkpt>
      <trkpt lat="46.58601" lon="5.70676">
        <ele>487.05</ele>
        <time>2014-07-04T08:37:20Z</time>
      </trkpt>
      <trkpt lat="46.58619" lon="5.70565">
        <ele>484.64</ele>
        <time>2014-07-04T08:37:34Z</time>
      </trkpt>
      <trkpt lat="46.58621" lon="5.70547">
        <ele>484.16</ele>
        <time>2014-07-04T08:37:36Z</time>
      </trkpt>
      <trkpt lat="46.58611" lon="5.7045">
        <ele>480.8</ele>
        <time>2014-07-04T08:37:48Z</time>
      </trkpt>
      <trkpt lat="46.58605" lon="5.70432">
        <ele>479.84</ele>
        <time>2014-07-04T08:37:52Z</time>
      </trkpt>
      <trkpt lat="46.58575" lon="5.70369">
        <ele>475.99</ele>
        <time>2014-07-04T08:38:02Z</time>
      </trkpt>
      <trkpt lat="46.58566" lon="5.7035">
        <ele>474.55</ele>
        <time>2014-07-04T08:38:05Z</time>
      </trkpt>
      <trkpt lat="46.58551" lon="5.70302">
        <ele>472.14</ele>
        <time>2014-07-04T08:38:12Z</time>
      </trkpt>
      <trkpt lat="46.58549" lon="5.70289">
        <ele>471.66</ele>
        <time>2014-07-04T08:38:14Z</time>
      </trkpt>
      <trkpt lat="46.58538" lon="5.70239">
        <ele>468.3</ele>
        <time>2014-07-04T08:38:23Z</time>
      </trkpt>
      <trkpt lat="46.58534" lon="5.70216">
        <ele>466.86</ele>
        <time>2014-07-04T08:38:27Z</time>
      </trkpt>
      <trkpt lat="46.58527" lon="5.70176">
        <ele>465.42</ele>
        <time>2014-07-04T08:38:38Z</time>
      </trkpt>
      <trkpt lat="46.58527" lon="5.70176">
        <ele>465.42</ele>
        <time>2014-07-04T08:38:40Z</time>
      </trkpt>
      <trkpt lat="46.58516" lon="5.7014">
        <ele>463.97</ele>
        <time>2014-07-04T08:38:49Z</time>
      </trkpt>
      <trkpt lat="46.58505" lon="5.70049">
        <ele>463.97</ele>
        <time>2014-07-04T08:39:06Z</time>
      </trkpt>
      <trkpt lat="46.58507" lon="5.70049">
        <ele>463.97</ele>
        <time>2014-07-04T08:39:20Z</time>
      </trkpt>
      <trkpt lat="46.58507" lon="5.70044">
        <ele>463.97</ele>
        <time>2014-07-04T08:39:45Z</time>
      </trkpt>
      <trkpt lat="46.58507" lon="5.7004">
        <ele>463.49</ele>
        <time>2014-07-04T08:40:00Z</time>
      </trkpt>
      <trkpt lat="46.58505" lon="5.70024">
        <ele>463.49</ele>
        <time>2014-07-04T08:40:18Z</time>
      </trkpt>
      <trkpt lat="46.585" lon="5.69972">
        <ele>461.57</ele>
        <time>2014-07-04T08:40:28Z</time>
      </trkpt>
      <trkpt lat="46.585" lon="5.69947">
        <ele>461.09</ele>
        <time>2014-07-04T08:40:32Z</time>
      </trkpt>
      <trkpt lat="46.58505" lon="5.69923">
        <ele>460.61</ele>
        <time>2014-07-04T08:40:36Z</time>
      </trkpt>
      <trkpt lat="46.58524" lon="5.69874">
        <ele>460.61</ele>
        <time>2014-07-04T08:40:48Z</time>
      </trkpt>
      <trkpt lat="46.58523" lon="5.69875">
        <ele>460.61</ele>
        <time>2014-07-04T08:41:03Z</time>
      </trkpt>
      <trkpt lat="46.58524" lon="5.69874">
        <ele>460.61</ele>
        <time>2014-07-04T08:41:37Z</time>
      </trkpt>
      <trkpt lat="46.58522" lon="5.6987">
        <ele>460.13</ele>
        <time>2014-07-04T08:42:02Z</time>
      </trkpt>
      <trkpt lat="46.58533" lon="5.69835">
        <ele>460.61</ele>
        <time>2014-07-04T08:42:15Z</time>
      </trkpt>
      <trkpt lat="46.58556" lon="5.69756">
        <ele>460.61</ele>
        <time>2014-07-04T08:42:31Z</time>
      </trkpt>
      <trkpt lat="46.58585" lon="5.69655">
        <ele>460.61</ele>
        <time>2014-07-04T08:42:48Z</time>
      </trkpt>
      <trkpt lat="46.58597" lon="5.69613">
        <ele>461.09</ele>
        <time>2014-07-04T08:42:55Z</time>
      </trkpt>
      <trkpt lat="46.58618" lon="5.69547">
        <ele>461.57</ele>
        <time>2014-07-04T08:43:07Z</time>
      </trkpt>
      <trkpt lat="46.58644" lon="5.69458">
        <ele>462.05</ele>
        <time>2014-07-04T08:43:24Z</time>
      </trkpt>
      <trkpt lat="46.5867" lon="5.69372">
        <ele>463.49</ele>
        <time>2014-07-04T08:43:42Z</time>
      </trkpt>
      <trkpt lat="46.58684" lon="5.69325">
        <ele>463.49</ele>
        <time>2014-07-04T08:43:51Z</time>
      </trkpt>
      <trkpt lat="46.58719" lon="5.6921">
        <ele>463.49</ele>
        <time>2014-07-04T08:44:12Z</time>
      </trkpt>
      <trkpt lat="46.58731" lon="5.69171">
        <ele>463.01</ele>
        <time>2014-07-04T08:44:19Z</time>
      </trkpt>
      <trkpt lat="46.58752" lon="5.69102">
        <ele>463.01</ele>
        <time>2014-07-04T08:44:33Z</time>
      </trkpt>
      <trkpt lat="46.58771" lon="5.69041">
        <ele>463.49</ele>
        <time>2014-07-04T08:44:49Z</time>
      </trkpt>
      <trkpt lat="46.58793" lon="5.68971">
        <ele>463.97</ele>
        <time>2014-07-04T08:45:04Z</time>
      </trkpt>
      <trkpt lat="46.58822" lon="5.68878">
        <ele>464.45</ele>
        <time>2014-07-04T08:45:21Z</time>
      </trkpt>
      <trkpt lat="46.58853" lon="5.68774">
        <ele>463.97</ele>
        <time>2014-07-04T08:45:39Z</time>
      </trkpt>
      <trkpt lat="46.58886" lon="5.68669">
        <ele>465.42</ele>
        <time>2014-07-04T08:45:58Z</time>
      </trkpt>
      <trkpt lat="46.58916" lon="5.68574">
        <ele>466.38</ele>
        <time>2014-07-04T08:46:18Z</time>
      </trkpt>
      <trkpt lat="46.58944" lon="5.6849">
        <ele>467.82</ele>
        <time>2014-07-04T08:46:38Z</time>
      </trkpt>
      <trkpt lat="46.58966" lon="5.68427">
        <ele>471.18</ele>
        <time>2014-07-04T08:46:56Z</time>
      </trkpt>
      <trkpt lat="46.58985" lon="5.68378">
        <ele>472.14</ele>
        <time>2014-07-04T08:47:14Z</time>
      </trkpt>
      <trkpt lat="46.59006" lon="5.68323">
        <ele>474.55</ele>
        <time>2014-07-04T08:47:35Z</time>
      </trkpt>
      <trkpt lat="46.59028" lon="5.68264">
        <ele>476.47</ele>
        <time>2014-07-04T08:47:55Z</time>
      </trkpt>
      <trkpt lat="46.59052" lon="5.68203">
        <ele>478.39</ele>
        <time>2014-07-04T08:48:14Z</time>
      </trkpt>
      <trkpt lat="46.59081" lon="5.68126">
        <ele>480.32</ele>
        <time>2014-07-04T08:48:36Z</time>
      </trkpt>
      <trkpt lat="46.59113" lon="5.68042">
        <ele>481.28</ele>
        <time>2014-07-04T08:48:56Z</time>
      </trkpt>
      <trkpt lat="46.59158" lon="5.67962">
        <ele>480.32</ele>
        <time>2014-07-04T08:49:12Z</time>
      </trkpt>
      <trkpt lat="46.59231" lon="5.6784">
        <ele>479.35</ele>
        <time>2014-07-04T08:49:29Z</time>
      </trkpt>
      <trkpt lat="46.59267" lon="5.67703">
        <ele>479.84</ele>
        <time>2014-07-04T08:49:45Z</time>
      </trkpt>
      <trkpt lat="46.59292" lon="5.67598">
        <ele>482.24</ele>
        <time>2014-07-04T08:50:01Z</time>
      </trkpt>
      <trkpt lat="46.59304" lon="5.67528">
        <ele>484.16</ele>
        <time>2014-07-04T08:50:15Z</time>
      </trkpt>
      <trkpt lat="46.59317" lon="5.67434">
        <ele>485.12</ele>
        <time>2014-07-04T08:50:32Z</time>
      </trkpt>
      <trkpt lat="46.59347" lon="5.67334">
        <ele>483.68</ele>
        <time>2014-07-04T08:50:48Z</time>
      </trkpt>
      <trkpt lat="46.59378" lon="5.67201">
        <ele>482.24</ele>
        <time>2014-07-04T08:51:04Z</time>
      </trkpt>
      <trkpt lat="46.59377" lon="5.67076">
        <ele>483.2</ele>
        <time>2014-07-04T08:51:20Z</time>
      </trkpt>
      <trkpt lat="46.59376" lon="5.67044">
        <ele>483.68</ele>
        <time>2014-07-04T08:51:25Z</time>
      </trkpt>
      <trkpt lat="46.59376" lon="5.6702">
        <ele>483.68</ele>
        <time>2014-07-04T08:51:29Z</time>
      </trkpt>
      <trkpt lat="46.59376" lon="5.66936">
        <ele>486.08</ele>
        <time>2014-07-04T08:51:45Z</time>
      </trkpt>
      <trkpt lat="46.59399" lon="5.66866">
        <ele>487.53</ele>
        <time>2014-07-04T08:52:01Z</time>
      </trkpt>
      <trkpt lat="46.59438" lon="5.66805">
        <ele>489.45</ele>
        <time>2014-07-04T08:52:20Z</time>
      </trkpt>
      <trkpt lat="46.5947" lon="5.66761">
        <ele>491.37</ele>
        <time>2014-07-04T08:52:37Z</time>
      </trkpt>
      <trkpt lat="46.59516" lon="5.66731">
        <ele>493.77</ele>
        <time>2014-07-04T08:52:58Z</time>
      </trkpt>
      <trkpt lat="46.5955" lon="5.6671">
        <ele>495.7</ele>
        <time>2014-07-04T08:53:14Z</time>
      </trkpt>
      <trkpt lat="46.59593" lon="5.66685">
        <ele>498.1</ele>
        <time>2014-07-04T08:53:34Z</time>
      </trkpt>
      <trkpt lat="46.59626" lon="5.66666">
        <ele>499.54</ele>
        <time>2014-07-04T08:53:47Z</time>
      </trkpt>
      <trkpt lat="46.5966" lon="5.66648">
        <ele>500.98</ele>
        <time>2014-07-04T08:54:03Z</time>
      </trkpt>
      <trkpt lat="46.59698" lon="5.66626">
        <ele>502.91</ele>
        <time>2014-07-04T08:54:20Z</time>
      </trkpt>
      <trkpt lat="46.59736" lon="5.66606">
        <ele>504.35</ele>
        <time>2014-07-04T08:54:36Z</time>
      </trkpt>
      <trkpt lat="46.59767" lon="5.66581">
        <ele>505.79</ele>
        <time>2014-07-04T08:54:50Z</time>
      </trkpt>
      <trkpt lat="46.59806" lon="5.66538">
        <ele>508.19</ele>
        <time>2014-07-04T08:55:10Z</time>
      </trkpt>
      <trkpt lat="46.59831" lon="5.66501">
        <ele>509.64</ele>
        <time>2014-07-04T08:55:25Z</time>
      </trkpt>
      <trkpt lat="46.59857" lon="5.66449">
        <ele>512.04</ele>
        <time>2014-07-04T08:55:42Z</time>
      </trkpt>
      <trkpt lat="46.59873" lon="5.66385">
        <ele>514.44</ele>
        <time>2014-07-04T08:56:00Z</time>
      </trkpt>
      <trkpt lat="46.59877" lon="5.66317">
        <ele>516.37</ele>
        <time>2014-07-04T08:56:18Z</time>
      </trkpt>
      <trkpt lat="46.5988" lon="5.66266">
        <ele>518.29</ele>
        <time>2014-07-04T08:56:34Z</time>
      </trkpt>
      <trkpt lat="46.59888" lon="5.66221">
        <ele>519.73</ele>
        <time>2014-07-04T08:56:49Z</time>
      </trkpt>
      <trkpt lat="46.59904" lon="5.66167">
        <ele>521.65</ele>
        <time>2014-07-04T08:57:07Z</time>
      </trkpt>
      <trkpt lat="46.5993" lon="5.66107">
        <ele>524.06</ele>
        <time>2014-07-04T08:57:28Z</time>
      </trkpt>
      <trkpt lat="46.5995" lon="5.66057">
        <ele>526.46</ele>
        <time>2014-07-04T08:57:44Z</time>
      </trkpt>
      <trkpt lat="46.59968" lon="5.6599">
        <ele>528.86</ele>
        <time>2014-07-04T08:58:04Z</time>
      </trkpt>
      <trkpt lat="46.59983" lon="5.65925">
        <ele>531.27</ele>
        <time>2014-07-04T08:58:24Z</time>
      </trkpt>
      <trkpt lat="46.59993" lon="5.65868">
        <ele>533.19</ele>
        <time>2014-07-04T08:58:41Z</time>
      </trkpt>
      <trkpt lat="46.59998" lon="5.65802">
        <ele>535.59</ele>
        <time>2014-07-04T08:59:00Z</time>
      </trkpt>
      <trkpt lat="46.60001" lon="5.65746">
        <ele>537.03</ele>
        <time>2014-07-04T08:59:16Z</time>
      </trkpt>
      <trkpt lat="46.60006" lon="5.6569">
        <ele>539.44</ele>
        <time>2014-07-04T08:59:33Z</time>
      </trkpt>
      <trkpt lat="46.60009" lon="5.65621">
        <ele>540.4</ele>
        <time>2014-07-04T08:59:52Z</time>
      </trkpt>
      <trkpt lat="46.60013" lon="5.65522">
        <ele>540.4</ele>
        <time>2014-07-04T09:00:12Z</time>
      </trkpt>
      <trkpt lat="46.60019" lon="5.65427">
        <ele>542.32</ele>
        <time>2014-07-04T09:00:31Z</time>
      </trkpt>
      <trkpt lat="46.60024" lon="5.65361">
        <ele>544.24</ele>
        <time>2014-07-04T09:00:47Z</time>
      </trkpt>
      <trkpt lat="46.60025" lon="5.653">
        <ele>547.61</ele>
        <time>2014-07-04T09:01:03Z</time>
      </trkpt>
      <trkpt lat="46.60015" lon="5.65239">
        <ele>548.57</ele>
        <time>2014-07-04T09:01:21Z</time>
      </trkpt>
      <trkpt lat="46.59991" lon="5.65177">
        <ele>551.45</ele>
        <time>2014-07-04T09:01:40Z</time>
      </trkpt>
      <trkpt lat="46.59969" lon="5.65122">
        <ele>553.38</ele>
        <time>2014-07-04T09:01:58Z</time>
      </trkpt>
      <trkpt lat="46.59944" lon="5.65059">
        <ele>556.26</ele>
        <time>2014-07-04T09:02:18Z</time>
      </trkpt>
      <trkpt lat="46.59923" lon="5.65005">
        <ele>558.66</ele>
        <time>2014-07-04T09:02:35Z</time>
      </trkpt>
      <trkpt lat="46.59903" lon="5.64964">
        <ele>560.59</ele>
        <time>2014-07-04T09:02:49Z</time>
      </trkpt>
      <trkpt lat="46.59882" lon="5.64912">
        <ele>562.51</ele>
        <time>2014-07-04T09:03:07Z</time>
      </trkpt>
      <trkpt lat="46.59865" lon="5.64874">
        <ele>564.43</ele>
        <time>2014-07-04T09:03:21Z</time>
      </trkpt>
      <trkpt lat="46.59842" lon="5.64826">
        <ele>567.32</ele>
        <time>2014-07-04T09:03:38Z</time>
      </trkpt>
      <trkpt lat="46.59809" lon="5.64776">
        <ele>568.76</ele>
        <time>2014-07-04T09:03:57Z</time>
      </trkpt>
      <trkpt lat="46.59773" lon="5.64724">
        <ele>571.16</ele>
        <time>2014-07-04T09:04:17Z</time>
      </trkpt>
      <trkpt lat="46.59744" lon="5.64662">
        <ele>573.56</ele>
        <time>2014-07-04T09:04:37Z</time>
      </trkpt>
      <trkpt lat="46.59732" lon="5.64604">
        <ele>575.49</ele>
        <time>2014-07-04T09:04:53Z</time>
      </trkpt>
      <trkpt lat="46.59725" lon="5.6457">
        <ele>575.97</ele>
        <time>2014-07-04T09:05:04Z</time>
      </trkpt>
      <trkpt lat="46.5972" lon="5.64581">
        <ele>575.97</ele>
        <time>2014-07-04T09:05:09Z</time>
      </trkpt>
      <trkpt lat="46.59723" lon="5.64588">
        <ele>575.97</ele>
        <time>2014-07-04T09:05:22Z</time>
      </trkpt>
      <trkpt lat="46.59722" lon="5.64592">
        <ele>575.97</ele>
        <time>2014-07-04T09:05:38Z</time>
      </trkpt>
      <trkpt lat="46.59724" lon="5.6459">
        <ele>575.49</ele>
        <time>2014-07-04T09:06:12Z</time>
      </trkpt>
      <trkpt lat="46.59721" lon="5.64591">
        <ele>575.97</ele>
        <time>2014-07-04T09:06:47Z</time>
      </trkpt>
      <trkpt lat="46.59722" lon="5.64592">
        <ele>575.97</ele>
        <time>2014-07-04T09:07:26Z</time>
      </trkpt>
      <trkpt lat="46.59722" lon="5.64591">
        <ele>575.97</ele>
        <time>2014-07-04T09:08:02Z</time>
      </trkpt>
      <trkpt lat="46.59723" lon="5.64593">
        <ele>575.97</ele>
        <time>2014-07-04T09:08:37Z</time>
      </trkpt>
      <trkpt lat="46.59726" lon="5.6459">
        <ele>576.93</ele>
        <time>2014-07-04T09:09:06Z</time>
      </trkpt>
      <trkpt lat="46.59722" lon="5.6459">
        <ele>575.97</ele>
        <time>2014-07-04T09:09:36Z</time>
      </trkpt>
      <trkpt lat="46.59721" lon="5.64592">
        <ele>576.45</ele>
        <time>2014-07-04T09:10:13Z</time>
      </trkpt>
      <trkpt lat="46.59723" lon="5.64589">
        <ele>576.45</ele>
        <time>2014-07-04T09:11:06Z</time>
      </trkpt>
      <trkpt lat="46.59724" lon="5.64587">
        <ele>576.45</ele>
        <time>2014-07-04T09:11:36Z</time>
      </trkpt>
      <trkpt lat="46.59722" lon="5.6459">
        <ele>576.45</ele>
        <time>2014-07-04T09:12:13Z</time>
      </trkpt>
      <trkpt lat="46.59724" lon="5.64587">
        <ele>576.45</ele>
        <time>2014-07-04T09:12:56Z</time>
      </trkpt>
      <trkpt lat="46.59722" lon="5.64592">
        <ele>576.93</ele>
        <time>2014-07-04T09:13:34Z</time>
      </trkpt>
      <trkpt lat="46.59722" lon="5.64591">
        <ele>576.93</ele>
        <time>2014-07-04T09:14:08Z</time>
      </trkpt>
      <trkpt lat="46.59724" lon="5.64589">
        <ele>576.93</ele>
        <time>2014-07-04T09:14:39Z</time>
      </trkpt>
      <trkpt lat="46.59724" lon="5.64587">
        <ele>577.41</ele>
        <time>2014-07-04T09:15:14Z</time>
      </trkpt>
      <trkpt lat="46.59723" lon="5.64588">
        <ele>577.41</ele>
        <time>2014-07-04T09:16:01Z</time>
      </trkpt>
      <trkpt lat="46.59725" lon="5.64589">
        <ele>577.41</ele>
        <time>2014-07-04T09:16:41Z</time>
      </trkpt>
      <trkpt lat="46.59724" lon="5.64588">
        <ele>577.41</ele>
        <time>2014-07-04T09:17:11Z</time>
      </trkpt>
      <trkpt lat="46.59726" lon="5.64586">
        <ele>577.41</ele>
        <time>2014-07-04T09:17:40Z</time>
      </trkpt>
      <trkpt lat="46.59727" lon="5.64584">
        <ele>577.41</ele>
        <time>2014-07-04T09:18:04Z</time>
      </trkpt>
      <trkpt lat="46.59728" lon="5.64583">
        <ele>577.89</ele>
        <time>2014-07-04T09:18:14Z</time>
      </trkpt>
      <trkpt lat="46.59739" lon="5.64557">
        <ele>577.41</ele>
        <time>2014-07-04T09:18:25Z</time>
      </trkpt>
      <trkpt lat="46.59755" lon="5.64497">
        <ele>576.45</ele>
        <time>2014-07-04T09:18:40Z</time>
      </trkpt>
      <trkpt lat="46.59798" lon="5.6441">
        <ele>573.56</ele>
        <time>2014-07-04T09:18:53Z</time>
      </trkpt>
      <trkpt lat="46.5984" lon="5.64324">
        <ele>570.2</ele>
        <time>2014-07-04T09:19:03Z</time>
      </trkpt>
      <trkpt lat="46.59861" lon="5.64284">
        <ele>568.76</ele>
        <time>2014-07-04T09:19:08Z</time>
      </trkpt>
      <trkpt lat="46.59905" lon="5.642">
        <ele>567.32</ele>
        <time>2014-07-04T09:19:22Z</time>
      </trkpt>
      <trkpt lat="46.59914" lon="5.64184">
        <ele>567.8</ele>
        <time>2014-07-04T09:19:25Z</time>
      </trkpt>
      <trkpt lat="46.59959" lon="5.64097">
        <ele>568.28</ele>
        <time>2014-07-04T09:19:43Z</time>
      </trkpt>
      <trkpt lat="46.59996" lon="5.64024">
        <ele>569.24</ele>
        <time>2014-07-04T09:19:59Z</time>
      </trkpt>
      <trkpt lat="46.60002" lon="5.64014">
        <ele>569.24</ele>
        <time>2014-07-04T09:20:01Z</time>
      </trkpt>
      <trkpt lat="46.60052" lon="5.63917">
        <ele>567.8</ele>
        <time>2014-07-04T09:20:18Z</time>
      </trkpt>
      <trkpt lat="46.60112" lon="5.63802">
        <ele>565.39</ele>
        <time>2014-07-04T09:20:34Z</time>
      </trkpt>
      <trkpt lat="46.60176" lon="5.63678">
        <ele>565.39</ele>
        <time>2014-07-04T09:20:52Z</time>
      </trkpt>
      <trkpt lat="46.60228" lon="5.63577">
        <ele>565.87</ele>
        <time>2014-07-04T09:21:09Z</time>
      </trkpt>
      <trkpt lat="46.60271" lon="5.63495">
        <ele>567.32</ele>
        <time>2014-07-04T09:21:26Z</time>
      </trkpt>
      <trkpt lat="46.60317" lon="5.63407">
        <ele>567.32</ele>
        <time>2014-07-04T09:21:45Z</time>
      </trkpt>
      <trkpt lat="46.60375" lon="5.63297">
        <ele>565.87</ele>
        <time>2014-07-04T09:22:04Z</time>
      </trkpt>
      <trkpt lat="46.60445" lon="5.63165">
        <ele>563.95</ele>
        <time>2014-07-04T09:22:23Z</time>
      </trkpt>
      <trkpt lat="46.60509" lon="5.63047">
        <ele>561.55</ele>
        <time>2014-07-04T09:22:39Z</time>
      </trkpt>
      <trkpt lat="46.60583" lon="5.62909">
        <ele>559.14</ele>
        <time>2014-07-04T09:22:58Z</time>
      </trkpt>
      <trkpt lat="46.60628" lon="5.62826">
        <ele>556.26</ele>
        <time>2014-07-04T09:23:08Z</time>
      </trkpt>
      <trkpt lat="46.60681" lon="5.62729">
        <ele>552.9</ele>
        <time>2014-07-04T09:23:18Z</time>
      </trkpt>
      <trkpt lat="46.60768" lon="5.62569">
        <ele>550.97</ele>
        <time>2014-07-04T09:23:35Z</time>
      </trkpt>
      <trkpt lat="46.60827" lon="5.6246">
        <ele>551.45</ele>
        <time>2014-07-04T09:23:51Z</time>
      </trkpt>
      <trkpt lat="46.6087" lon="5.6238">
        <ele>553.38</ele>
        <time>2014-07-04T09:24:08Z</time>
      </trkpt>
      <trkpt lat="46.60907" lon="5.62312">
        <ele>554.82</ele>
        <time>2014-07-04T09:24:26Z</time>
      </trkpt>
      <trkpt lat="46.60947" lon="5.62236">
        <ele>556.26</ele>
        <time>2014-07-04T09:24:47Z</time>
      </trkpt>
      <trkpt lat="46.60975" lon="5.62184">
        <ele>556.74</ele>
        <time>2014-07-04T09:25:01Z</time>
      </trkpt>
      <trkpt lat="46.61033" lon="5.62077">
        <ele>555.3</ele>
        <time>2014-07-04T09:25:23Z</time>
      </trkpt>
      <trkpt lat="46.61076" lon="5.61998">
        <ele>554.34</ele>
        <time>2014-07-04T09:25:40Z</time>
      </trkpt>
      <trkpt lat="46.61079" lon="5.61994">
        <ele>554.34</ele>
        <time>2014-07-04T09:25:51Z</time>
      </trkpt>
      <trkpt lat="46.61093" lon="5.61964">
        <ele>553.86</ele>
        <time>2014-07-04T09:26:00Z</time>
      </trkpt>
      <trkpt lat="46.61108" lon="5.61933">
        <ele>553.38</ele>
        <time>2014-07-04T09:26:06Z</time>
      </trkpt>
      <trkpt lat="46.6117" lon="5.61817">
        <ele>551.93</ele>
        <time>2014-07-04T09:26:26Z</time>
      </trkpt>
      <trkpt lat="46.61248" lon="5.61669">
        <ele>549.53</ele>
        <time>2014-07-04T09:26:48Z</time>
      </trkpt>
      <trkpt lat="46.61319" lon="5.61536">
        <ele>549.05</ele>
        <time>2014-07-04T09:27:09Z</time>
      </trkpt>
      <trkpt lat="46.6139" lon="5.61403">
        <ele>548.09</ele>
        <time>2014-07-04T09:27:31Z</time>
      </trkpt>
      <trkpt lat="46.61463" lon="5.61267">
        <ele>546.65</ele>
        <time>2014-07-04T09:27:53Z</time>
      </trkpt>
      <trkpt lat="46.61533" lon="5.6114">
        <ele>545.2</ele>
        <time>2014-07-04T09:28:13Z</time>
      </trkpt>
      <trkpt lat="46.61581" lon="5.61046">
        <ele>546.17</ele>
        <time>2014-07-04T09:28:30Z</time>
      </trkpt>
      <trkpt lat="46.61616" lon="5.60982">
        <ele>547.13</ele>
        <time>2014-07-04T09:28:46Z</time>
      </trkpt>
      <trkpt lat="46.61656" lon="5.60905">
        <ele>550.01</ele>
        <time>2014-07-04T09:29:08Z</time>
      </trkpt>
      <trkpt lat="46.61682" lon="5.60855">
        <ele>551.93</ele>
        <time>2014-07-04T09:29:26Z</time>
      </trkpt>
      <trkpt lat="46.61712" lon="5.60798">
        <ele>553.86</ele>
        <time>2014-07-04T09:29:47Z</time>
      </trkpt>
      <trkpt lat="46.61737" lon="5.60751">
        <ele>555.3</ele>
        <time>2014-07-04T09:30:04Z</time>
      </trkpt>
      <trkpt lat="46.61762" lon="5.60704">
        <ele>556.26</ele>
        <time>2014-07-04T09:30:21Z</time>
      </trkpt>
      <trkpt lat="46.61797" lon="5.6064">
        <ele>557.22</ele>
        <time>2014-07-04T09:30:41Z</time>
      </trkpt>
      <trkpt lat="46.61836" lon="5.60565">
        <ele>557.22</ele>
        <time>2014-07-04T09:31:00Z</time>
      </trkpt>
      <trkpt lat="46.6188" lon="5.60493">
        <ele>556.74</ele>
        <time>2014-07-04T09:31:17Z</time>
      </trkpt>
      <trkpt lat="46.61905" lon="5.60462">
        <ele>556.26</ele>
        <time>2014-07-04T09:31:24Z</time>
      </trkpt>
      <trkpt lat="46.61973" lon="5.60397">
        <ele>557.22</ele>
        <time>2014-07-04T09:31:44Z</time>
      </trkpt>
      <trkpt lat="46.62021" lon="5.60358">
        <ele>559.62</ele>
        <time>2014-07-04T09:32:02Z</time>
      </trkpt>
      <trkpt lat="46.62072" lon="5.60314">
        <ele>560.11</ele>
        <time>2014-07-04T09:32:21Z</time>
      </trkpt>
      <trkpt lat="46.62111" lon="5.6028">
        <ele>560.59</ele>
        <time>2014-07-04T09:32:36Z</time>
      </trkpt>
      <trkpt lat="46.62155" lon="5.60239">
        <ele>562.03</ele>
        <time>2014-07-04T09:32:54Z</time>
      </trkpt>
      <trkpt lat="46.62198" lon="5.6018">
        <ele>562.99</ele>
        <time>2014-07-04T09:33:13Z</time>
      </trkpt>
      <trkpt lat="46.62238" lon="5.60126">
        <ele>562.51</ele>
        <time>2014-07-04T09:33:27Z</time>
      </trkpt>
      <trkpt lat="46.62315" lon="5.60054">
        <ele>562.99</ele>
        <time>2014-07-04T09:33:48Z</time>
      </trkpt>
      <trkpt lat="46.62349" lon="5.60028">
        <ele>563.47</ele>
        <time>2014-07-04T09:33:57Z</time>
      </trkpt>
      <trkpt lat="46.62361" lon="5.60019">
        <ele>562.99</ele>
        <time>2014-07-04T09:34:00Z</time>
      </trkpt>
      <trkpt lat="46.62388" lon="5.59995">
        <ele>562.51</ele>
        <time>2014-07-04T09:34:07Z</time>
      </trkpt>
      <trkpt lat="46.62401" lon="5.59982">
        <ele>562.51</ele>
        <time>2014-07-04T09:34:11Z</time>
      </trkpt>
      <trkpt lat="46.62466" lon="5.59921">
        <ele>561.55</ele>
        <time>2014-07-04T09:34:31Z</time>
      </trkpt>
      <trkpt lat="46.62524" lon="5.59854">
        <ele>559.14</ele>
        <time>2014-07-04T09:34:48Z</time>
      </trkpt>
      <trkpt lat="46.6258" lon="5.59777">
        <ele>556.26</ele>
        <time>2014-07-04T09:35:01Z</time>
      </trkpt>
      <trkpt lat="46.62626" lon="5.59714">
        <ele>552.9</ele>
        <time>2014-07-04T09:35:10Z</time>
      </trkpt>
      <trkpt lat="46.62637" lon="5.59699">
        <ele>551.93</ele>
        <time>2014-07-04T09:35:12Z</time>
      </trkpt>
      <trkpt lat="46.62704" lon="5.59613">
        <ele>549.05</ele>
        <time>2014-07-04T09:35:24Z</time>
      </trkpt>
      <trkpt lat="46.62775" lon="5.59516">
        <ele>547.13</ele>
        <time>2014-07-04T09:35:39Z</time>
      </trkpt>
      <trkpt lat="46.62868" lon="5.59391">
        <ele>546.65</ele>
        <time>2014-07-04T09:36:00Z</time>
      </trkpt>
      <trkpt lat="46.6291" lon="5.59335">
        <ele>547.13</ele>
        <time>2014-07-04T09:36:12Z</time>
      </trkpt>
      <trkpt lat="46.6297" lon="5.59265">
        <ele>549.05</ele>
        <time>2014-07-04T09:36:31Z</time>
      </trkpt>
      <trkpt lat="46.6304" lon="5.59194">
        <ele>549.05</ele>
        <time>2014-07-04T09:36:52Z</time>
      </trkpt>
      <trkpt lat="46.63137" lon="5.59111">
        <ele>549.53</ele>
        <time>2014-07-04T09:37:19Z</time>
      </trkpt>
      <trkpt lat="46.6316" lon="5.59092">
        <ele>549.53</ele>
        <time>2014-07-04T09:37:25Z</time>
      </trkpt>
      <trkpt lat="46.63241" lon="5.5902">
        <ele>549.05</ele>
        <time>2014-07-04T09:37:47Z</time>
      </trkpt>
      <trkpt lat="46.63305" lon="5.58964">
        <ele>548.57</ele>
        <time>2014-07-04T09:38:05Z</time>
      </trkpt>
      <trkpt lat="46.63366" lon="5.58911">
        <ele>548.09</ele>
        <time>2014-07-04T09:38:23Z</time>
      </trkpt>
      <trkpt lat="46.63431" lon="5.58853">
        <ele>547.61</ele>
        <time>2014-07-04T09:38:43Z</time>
      </trkpt>
      <trkpt lat="46.63499" lon="5.58794">
        <ele>547.13</ele>
        <time>2014-07-04T09:39:03Z</time>
      </trkpt>
      <trkpt lat="46.63591" lon="5.58713">
        <ele>546.17</ele>
        <time>2014-07-04T09:39:28Z</time>
      </trkpt>
      <trkpt lat="46.63662" lon="5.58651">
        <ele>545.69</ele>
        <time>2014-07-04T09:39:47Z</time>
      </trkpt>
      <trkpt lat="46.63737" lon="5.58594">
        <ele>544.24</ele>
        <time>2014-07-04T09:40:06Z</time>
      </trkpt>
      <trkpt lat="46.6378" lon="5.58571">
        <ele>542.8</ele>
        <time>2014-07-04T09:40:19Z</time>
      </trkpt>
      <trkpt lat="46.63819" lon="5.58558">
        <ele>541.36</ele>
        <time>2014-07-04T09:40:34Z</time>
      </trkpt>
      <trkpt lat="46.63859" lon="5.58545">
        <ele>539.44</ele>
        <time>2014-07-04T09:40:47Z</time>
      </trkpt>
      <trkpt lat="46.63912" lon="5.58528">
        <ele>536.07</ele>
        <time>2014-07-04T09:40:58Z</time>
      </trkpt>
      <trkpt lat="46.63969" lon="5.58512">
        <ele>532.71</ele>
        <time>2014-07-04T09:41:07Z</time>
      </trkpt>
      <trkpt lat="46.63975" lon="5.5851">
        <ele>532.23</ele>
        <time>2014-07-04T09:41:08Z</time>
      </trkpt>
      <trkpt lat="46.64021" lon="5.58498">
        <ele>529.34</ele>
        <time>2014-07-04T09:41:16Z</time>
      </trkpt>
      <trkpt lat="46.6405" lon="5.58492">
        <ele>526.94</ele>
        <time>2014-07-04T09:41:26Z</time>
      </trkpt>
      <trkpt lat="46.64052" lon="5.58489">
        <ele>527.42</ele>
        <time>2014-07-04T09:41:49Z</time>
      </trkpt>
      <trkpt lat="46.64055" lon="5.58489">
        <ele>527.42</ele>
        <time>2014-07-04T09:42:24Z</time>
      </trkpt>
      <trkpt lat="46.6406" lon="5.58488">
        <ele>527.42</ele>
        <time>2014-07-04T09:42:53Z</time>
      </trkpt>
      <trkpt lat="46.64057" lon="5.58485">
        <ele>527.42</ele>
        <time>2014-07-04T09:43:33Z</time>
      </trkpt>
      <trkpt lat="46.64055" lon="5.58482">
        <ele>527.42</ele>
        <time>2014-07-04T09:43:58Z</time>
      </trkpt>
      <trkpt lat="46.64056" lon="5.58481">
        <ele>527.42</ele>
        <time>2014-07-04T09:44:04Z</time>
      </trkpt>
      <trkpt lat="46.64085" lon="5.58476">
        <ele>525.5</ele>
        <time>2014-07-04T09:44:15Z</time>
      </trkpt>
      <trkpt lat="46.6413" lon="5.58467">
        <ele>522.13</ele>
        <time>2014-07-04T09:44:22Z</time>
      </trkpt>
      <trkpt lat="46.64137" lon="5.58465">
        <ele>522.13</ele>
        <time>2014-07-04T09:44:23Z</time>
      </trkpt>
      <trkpt lat="46.64169" lon="5.58456">
        <ele>519.73</ele>
        <time>2014-07-04T09:44:27Z</time>
      </trkpt>
      <trkpt lat="46.6421" lon="5.58441">
        <ele>517.81</ele>
        <time>2014-07-04T09:44:31Z</time>
      </trkpt>
      <trkpt lat="46.64229" lon="5.58436">
        <ele>516.85</ele>
        <time>2014-07-04T09:44:33Z</time>
      </trkpt>
      <trkpt lat="46.6427" lon="5.58423">
        <ele>514.92</ele>
        <time>2014-07-04T09:44:37Z</time>
      </trkpt>
      <trkpt lat="46.64342" lon="5.58402">
        <ele>511.56</ele>
        <time>2014-07-04T09:44:44Z</time>
      </trkpt>
      <trkpt lat="46.64433" lon="5.58373">
        <ele>508.19</ele>
        <time>2014-07-04T09:44:54Z</time>
      </trkpt>
      <trkpt lat="46.64514" lon="5.58319">
        <ele>505.31</ele>
        <time>2014-07-04T09:45:05Z</time>
      </trkpt>
      <trkpt lat="46.6458" lon="5.58259">
        <ele>501.95</ele>
        <time>2014-07-04T09:45:15Z</time>
      </trkpt>
      <trkpt lat="46.6465" lon="5.58185">
        <ele>498.58</ele>
        <time>2014-07-04T09:45:26Z</time>
      </trkpt>
      <trkpt lat="46.64718" lon="5.58096">
        <ele>495.22</ele>
        <time>2014-07-04T09:45:37Z</time>
      </trkpt>
      <trkpt lat="46.64798" lon="5.57968">
        <ele>491.85</ele>
        <time>2014-07-04T09:45:52Z</time>
      </trkpt>
      <trkpt lat="46.64889" lon="5.57813">
        <ele>490.41</ele>
        <time>2014-07-04T09:46:13Z</time>
      </trkpt>
      <trkpt lat="46.64919" lon="5.57764">
        <ele>489.93</ele>
        <time>2014-07-04T09:46:21Z</time>
      </trkpt>
      <trkpt lat="46.6493" lon="5.57747">
        <ele>489.93</ele>
        <time>2014-07-04T09:46:29Z</time>
      </trkpt>
      <trkpt lat="46.6493" lon="5.57745">
        <ele>489.45</ele>
        <time>2014-07-04T09:46:46Z</time>
      </trkpt>
      <trkpt lat="46.64942" lon="5.57723">
        <ele>489.45</ele>
        <time>2014-07-04T09:46:54Z</time>
      </trkpt>
      <trkpt lat="46.65003" lon="5.57624">
        <ele>488.49</ele>
        <time>2014-07-04T09:47:13Z</time>
      </trkpt>
      <trkpt lat="46.65078" lon="5.57531">
        <ele>485.6</ele>
        <time>2014-07-04T09:47:30Z</time>
      </trkpt>
      <trkpt lat="46.65146" lon="5.57483">
        <ele>482.24</ele>
        <time>2014-07-04T09:47:41Z</time>
      </trkpt>
      <trkpt lat="46.65161" lon="5.57476">
        <ele>481.76</ele>
        <time>2014-07-04T09:47:43Z</time>
      </trkpt>
      <trkpt lat="46.6522" lon="5.57455">
        <ele>478.39</ele>
        <time>2014-07-04T09:47:50Z</time>
      </trkpt>
      <trkpt lat="46.65268" lon="5.57445">
        <ele>475.03</ele>
        <time>2014-07-04T09:47:55Z</time>
      </trkpt>
      <trkpt lat="46.65321" lon="5.57437">
        <ele>471.66</ele>
        <time>2014-07-04T09:48:00Z</time>
      </trkpt>
      <trkpt lat="46.65379" lon="5.5743">
        <ele>467.34</ele>
        <time>2014-07-04T09:48:05Z</time>
      </trkpt>
      <trkpt lat="46.65416" lon="5.57424">
        <ele>465.42</ele>
        <time>2014-07-04T09:48:08Z</time>
      </trkpt>
      <trkpt lat="46.65453" lon="5.5741">
        <ele>462.53</ele>
        <time>2014-07-04T09:48:11Z</time>
      </trkpt>
      <trkpt lat="46.65498" lon="5.57386">
        <ele>458.69</ele>
        <time>2014-07-04T09:48:15Z</time>
      </trkpt>
      <trkpt lat="46.65532" lon="5.57358">
        <ele>454.84</ele>
        <time>2014-07-04T09:48:19Z</time>
      </trkpt>
      <trkpt lat="46.6554" lon="5.57349">
        <ele>454.84</ele>
        <time>2014-07-04T09:48:20Z</time>
      </trkpt>
      <trkpt lat="46.6557" lon="5.57315">
        <ele>451.48</ele>
        <time>2014-07-04T09:48:24Z</time>
      </trkpt>
      <trkpt lat="46.65599" lon="5.57281">
        <ele>448.11</ele>
        <time>2014-07-04T09:48:28Z</time>
      </trkpt>
      <trkpt lat="46.65607" lon="5.57273">
        <ele>447.15</ele>
        <time>2014-07-04T09:48:29Z</time>
      </trkpt>
      <trkpt lat="46.65649" lon="5.57241">
        <ele>442.34</ele>
        <time>2014-07-04T09:48:34Z</time>
      </trkpt>
      <trkpt lat="46.65689" lon="5.57229">
        <ele>438.02</ele>
        <time>2014-07-04T09:48:38Z</time>
      </trkpt>
      <trkpt lat="46.65718" lon="5.57226">
        <ele>435.13</ele>
        <time>2014-07-04T09:48:41Z</time>
      </trkpt>
      <trkpt lat="46.65745" lon="5.57221">
        <ele>430.81</ele>
        <time>2014-07-04T09:48:44Z</time>
      </trkpt>
      <trkpt lat="46.65778" lon="5.57212">
        <ele>427.44</ele>
        <time>2014-07-04T09:48:48Z</time>
      </trkpt>
      <trkpt lat="46.65802" lon="5.57202">
        <ele>424.08</ele>
        <time>2014-07-04T09:48:51Z</time>
      </trkpt>
      <trkpt lat="46.65828" lon="5.5719">
        <ele>420.23</ele>
        <time>2014-07-04T09:48:54Z</time>
      </trkpt>
      <trkpt lat="46.65853" lon="5.57177">
        <ele>415.91</ele>
        <time>2014-07-04T09:48:57Z</time>
      </trkpt>
      <trkpt lat="46.65879" lon="5.57167">
        <ele>412.54</ele>
        <time>2014-07-04T09:49:00Z</time>
      </trkpt>
      <trkpt lat="46.65906" lon="5.5716">
        <ele>408.7</ele>
        <time>2014-07-04T09:49:03Z</time>
      </trkpt>
      <trkpt lat="46.65932" lon="5.57157">
        <ele>404.37</ele>
        <time>2014-07-04T09:49:06Z</time>
      </trkpt>
      <trkpt lat="46.6594" lon="5.57158">
        <ele>403.41</ele>
        <time>2014-07-04T09:49:07Z</time>
      </trkpt>
      <trkpt lat="46.65945" lon="5.57161">
        <ele>401.97</ele>
        <time>2014-07-04T09:49:08Z</time>
      </trkpt>
      <trkpt lat="46.65955" lon="5.57167">
        <ele>399.57</ele>
        <time>2014-07-04T09:49:10Z</time>
      </trkpt>
      <trkpt lat="46.6596" lon="5.57172">
        <ele>398.12</ele>
        <time>2014-07-04T09:49:11Z</time>
      </trkpt>
      <trkpt lat="46.65965" lon="5.57177">
        <ele>397.16</ele>
        <time>2014-07-04T09:49:12Z</time>
      </trkpt>
      <trkpt lat="46.65968" lon="5.5718">
        <ele>396.2</ele>
        <time>2014-07-04T09:49:13Z</time>
      </trkpt>
      <trkpt lat="46.65972" lon="5.57185">
        <ele>394.76</ele>
        <time>2014-07-04T09:49:14Z</time>
      </trkpt>
      <trkpt lat="46.65983" lon="5.57201">
        <ele>391.39</ele>
        <time>2014-07-04T09:49:17Z</time>
      </trkpt>
      <trkpt lat="46.65996" lon="5.57215">
        <ele>388.03</ele>
        <time>2014-07-04T09:49:19Z</time>
      </trkpt>
      <trkpt lat="46.66015" lon="5.57234">
        <ele>384.66</ele>
        <time>2014-07-04T09:49:23Z</time>
      </trkpt>
      <trkpt lat="46.66019" lon="5.57238">
        <ele>383.22</ele>
        <time>2014-07-04T09:49:24Z</time>
      </trkpt>
      <trkpt lat="46.66023" lon="5.57244">
        <ele>381.78</ele>
        <time>2014-07-04T09:49:25Z</time>
      </trkpt>
      <trkpt lat="46.66029" lon="5.57258">
        <ele>379.38</ele>
        <time>2014-07-04T09:49:27Z</time>
      </trkpt>
      <trkpt lat="46.66035" lon="5.57289">
        <ele>375.05</ele>
        <time>2014-07-04T09:49:31Z</time>
      </trkpt>
      <trkpt lat="46.66037" lon="5.57306">
        <ele>373.13</ele>
        <time>2014-07-04T09:49:33Z</time>
      </trkpt>
      <trkpt lat="46.66175" lon="5.57169">
        <ele>371.69</ele>
        <time>2014-07-04T09:49:34Z</time>
      </trkpt>
      <trkpt lat="46.662" lon="5.5717">
        <ele>367.84</ele>
        <time>2014-07-04T09:49:37Z</time>
      </trkpt>
      <trkpt lat="46.66227" lon="5.5717">
        <ele>363.52</ele>
        <time>2014-07-04T09:49:40Z</time>
      </trkpt>
      <trkpt lat="46.66235" lon="5.5717">
        <ele>364</ele>
        <time>2014-07-04T09:49:41Z</time>
      </trkpt>
      <trkpt lat="46.66252" lon="5.57169">
        <ele>360.15</ele>
        <time>2014-07-04T09:49:43Z</time>
      </trkpt>
      <trkpt lat="46.66278" lon="5.57167">
        <ele>357.27</ele>
        <time>2014-07-04T09:49:46Z</time>
      </trkpt>
      <trkpt lat="46.66303" lon="5.57163">
        <ele>353.42</ele>
        <time>2014-07-04T09:49:49Z</time>
      </trkpt>
      <trkpt lat="46.6633" lon="5.57159">
        <ele>350.06</ele>
        <time>2014-07-04T09:49:52Z</time>
      </trkpt>
      <trkpt lat="46.66358" lon="5.57153">
        <ele>346.21</ele>
        <time>2014-07-04T09:49:55Z</time>
      </trkpt>
      <trkpt lat="46.66385" lon="5.57146">
        <ele>342.37</ele>
        <time>2014-07-04T09:49:58Z</time>
      </trkpt>
      <trkpt lat="46.66413" lon="5.57138">
        <ele>339</ele>
        <time>2014-07-04T09:50:01Z</time>
      </trkpt>
      <trkpt lat="46.66439" lon="5.57131">
        <ele>335.64</ele>
        <time>2014-07-04T09:50:04Z</time>
      </trkpt>
      <trkpt lat="46.66465" lon="5.57126">
        <ele>331.79</ele>
        <time>2014-07-04T09:50:07Z</time>
      </trkpt>
      <trkpt lat="46.66491" lon="5.57122">
        <ele>328.43</ele>
        <time>2014-07-04T09:50:10Z</time>
      </trkpt>
      <trkpt lat="46.66516" lon="5.57122">
        <ele>325.06</ele>
        <time>2014-07-04T09:50:13Z</time>
      </trkpt>
      <trkpt lat="46.66549" lon="5.57126">
        <ele>321.7</ele>
        <time>2014-07-04T09:50:17Z</time>
      </trkpt>
      <trkpt lat="46.66585" lon="5.57136">
        <ele>317.37</ele>
        <time>2014-07-04T09:50:21Z</time>
      </trkpt>
      <trkpt lat="46.66618" lon="5.57149">
        <ele>313.53</ele>
        <time>2014-07-04T09:50:24Z</time>
      </trkpt>
      <trkpt lat="46.66653" lon="5.57165">
        <ele>309.2</ele>
        <time>2014-07-04T09:50:27Z</time>
      </trkpt>
      <trkpt lat="46.66687" lon="5.57177">
        <ele>305.84</ele>
        <time>2014-07-04T09:50:30Z</time>
      </trkpt>
      <trkpt lat="46.66723" lon="5.57183">
        <ele>302.47</ele>
        <time>2014-07-04T09:50:33Z</time>
      </trkpt>
      <trkpt lat="46.66759" lon="5.5719">
        <ele>299.11</ele>
        <time>2014-07-04T09:50:36Z</time>
      </trkpt>
      <trkpt lat="46.66791" lon="5.57195">
        <ele>296.22</ele>
        <time>2014-07-04T09:50:39Z</time>
      </trkpt>
      <trkpt lat="46.66852" lon="5.57225">
        <ele>295.26</ele>
        <time>2014-07-04T09:50:46Z</time>
      </trkpt>
      <trkpt lat="46.66905" lon="5.573">
        <ele>296.22</ele>
        <time>2014-07-04T09:50:57Z</time>
      </trkpt>
      <trkpt lat="46.66915" lon="5.57318">
        <ele>296.22</ele>
        <time>2014-07-04T09:51:00Z</time>
      </trkpt>
      <trkpt lat="46.66923" lon="5.57359">
        <ele>297.18</ele>
        <time>2014-07-04T09:51:12Z</time>
      </trkpt>
      <trkpt lat="46.66941" lon="5.57397">
        <ele>298.15</ele>
        <time>2014-07-04T09:51:23Z</time>
      </trkpt>
      <trkpt lat="46.66962" lon="5.57382">
        <ele>298.15</ele>
        <time>2014-07-04T09:51:29Z</time>
      </trkpt>
      <trkpt lat="46.66966" lon="5.57357">
        <ele>297.67</ele>
        <time>2014-07-04T09:51:33Z</time>
      </trkpt>
      <trkpt lat="46.66964" lon="5.57337">
        <ele>297.18</ele>
        <time>2014-07-04T09:51:36Z</time>
      </trkpt>
      <trkpt lat="46.66969" lon="5.57301">
        <ele>296.22</ele>
        <time>2014-07-04T09:51:41Z</time>
      </trkpt>
      <trkpt lat="46.6698" lon="5.57275">
        <ele>295.26</ele>
        <time>2014-07-04T09:51:45Z</time>
      </trkpt>
      <trkpt lat="46.66986" lon="5.57263">
        <ele>294.78</ele>
        <time>2014-07-04T09:51:47Z</time>
      </trkpt>
      <trkpt lat="46.66994" lon="5.57254">
        <ele>293.82</ele>
        <time>2014-07-04T09:51:50Z</time>
      </trkpt>
      <trkpt lat="46.66998" lon="5.5725">
        <ele>294.3</ele>
        <time>2014-07-04T09:52:03Z</time>
      </trkpt>
      <trkpt lat="46.67" lon="5.5725">
        <ele>294.3</ele>
        <time>2014-07-04T09:52:30Z</time>
      </trkpt>
      <trkpt lat="46.66999" lon="5.57252">
        <ele>293.82</ele>
        <time>2014-07-04T09:52:57Z</time>
      </trkpt>
      <trkpt lat="46.66998" lon="5.57253">
        <ele>293.82</ele>
        <time>2014-07-04T09:53:28Z</time>
      </trkpt>
      <trkpt lat="46.67" lon="5.57251">
        <ele>293.34</ele>
        <time>2014-07-04T09:53:58Z</time>
      </trkpt>
      <trkpt lat="46.67002" lon="5.57251">
        <ele>293.34</ele>
        <time>2014-07-04T09:54:24Z</time>
      </trkpt>
      <trkpt lat="46.66999" lon="5.57253">
        <ele>293.34</ele>
        <time>2014-07-04T09:54:49Z</time>
      </trkpt>
      <trkpt lat="46.66999" lon="5.57252">
        <ele>293.34</ele>
        <time>2014-07-04T09:55:28Z</time>
      </trkpt>
      <trkpt lat="46.66999" lon="5.57251">
        <ele>292.86</ele>
        <time>2014-07-04T09:56:04Z</time>
      </trkpt>
      <trkpt lat="46.66999" lon="5.57251">
        <ele>292.86</ele>
        <time>2014-07-04T09:56:39Z</time>
      </trkpt>
      <trkpt lat="46.67002" lon="5.57247">
        <ele>292.86</ele>
        <time>2014-07-04T09:57:13Z</time>
      </trkpt>
      <trkpt lat="46.66998" lon="5.57252">
        <ele>292.38</ele>
        <time>2014-07-04T09:57:45Z</time>
      </trkpt>
      <trkpt lat="46.66998" lon="5.5725">
        <ele>292.38</ele>
        <time>2014-07-04T09:58:02Z</time>
      </trkpt>
      <trkpt lat="46.67012" lon="5.5723">
        <ele>291.9</ele>
        <time>2014-07-04T09:58:14Z</time>
      </trkpt>
      <trkpt lat="46.67042" lon="5.57216">
        <ele>292.38</ele>
        <time>2014-07-04T09:58:26Z</time>
      </trkpt>
      <trkpt lat="46.67057" lon="5.57178">
        <ele>291.9</ele>
        <time>2014-07-04T09:58:35Z</time>
      </trkpt>
      <trkpt lat="46.67053" lon="5.57158">
        <ele>290.94</ele>
        <time>2014-07-04T09:58:45Z</time>
      </trkpt>
      <trkpt lat="46.67052" lon="5.57156">
        <ele>290.94</ele>
        <time>2014-07-04T09:58:57Z</time>
      </trkpt>
      <trkpt lat="46.67036" lon="5.57152">
        <ele>290.94</ele>
        <time>2014-07-04T09:59:03Z</time>
      </trkpt>
      <trkpt lat="46.67003" lon="5.57125">
        <ele>290.94</ele>
        <time>2014-07-04T09:59:14Z</time>
      </trkpt>
      <trkpt lat="46.66963" lon="5.57028">
        <ele>291.9</ele>
        <time>2014-07-04T09:59:33Z</time>
      </trkpt>
      <trkpt lat="46.66924" lon="5.56923">
        <ele>292.38</ele>
        <time>2014-07-04T09:59:51Z</time>
      </trkpt>
      <trkpt lat="46.66887" lon="5.56803">
        <ele>291.9</ele>
        <time>2014-07-04T10:00:09Z</time>
      </trkpt>
      <trkpt lat="46.66855" lon="5.56657">
        <ele>290.46</ele>
        <time>2014-07-04T10:00:28Z</time>
      </trkpt>
      <trkpt lat="46.66845" lon="5.56518">
        <ele>289.49</ele>
        <time>2014-07-04T10:00:45Z</time>
      </trkpt>
      <trkpt lat="46.66858" lon="5.56361">
        <ele>288.05</ele>
        <time>2014-07-04T10:01:04Z</time>
      </trkpt>
      <trkpt lat="46.66893" lon="5.56195">
        <ele>286.61</ele>
        <time>2014-07-04T10:01:24Z</time>
      </trkpt>
      <trkpt lat="46.66929" lon="5.56033">
        <ele>286.61</ele>
        <time>2014-07-04T10:01:44Z</time>
      </trkpt>
      <trkpt lat="46.66962" lon="5.55861">
        <ele>285.65</ele>
        <time>2014-07-04T10:02:06Z</time>
      </trkpt>
      <trkpt lat="46.66975" lon="5.55733">
        <ele>285.17</ele>
        <time>2014-07-04T10:02:23Z</time>
      </trkpt>
      <trkpt lat="46.66964" lon="5.55596">
        <ele>284.69</ele>
        <time>2014-07-04T10:02:41Z</time>
      </trkpt>
      <trkpt lat="46.66933" lon="5.55451">
        <ele>284.21</ele>
        <time>2014-07-04T10:03:01Z</time>
      </trkpt>
      <trkpt lat="46.66927" lon="5.55409">
        <ele>282.77</ele>
        <time>2014-07-04T10:03:07Z</time>
      </trkpt>
      <trkpt lat="46.66926" lon="5.55372">
        <ele>282.77</ele>
        <time>2014-07-04T10:03:13Z</time>
      </trkpt>
      <trkpt lat="46.66919" lon="5.5531">
        <ele>282.77</ele>
        <time>2014-07-04T10:03:22Z</time>
      </trkpt>
      <trkpt lat="46.6691" lon="5.55222">
        <ele>283.25</ele>
        <time>2014-07-04T10:03:33Z</time>
      </trkpt>
      <trkpt lat="46.66902" lon="5.55163">
        <ele>282.28</ele>
        <time>2014-07-04T10:03:46Z</time>
      </trkpt>
      <trkpt lat="46.66901" lon="5.55155">
        <ele>282.28</ele>
        <time>2014-07-04T10:03:58Z</time>
      </trkpt>
      <trkpt lat="46.66904" lon="5.55153">
        <ele>282.28</ele>
        <time>2014-07-04T10:04:15Z</time>
      </trkpt>
      <trkpt lat="46.66905" lon="5.55137">
        <ele>282.28</ele>
        <time>2014-07-04T10:04:38Z</time>
      </trkpt>
      <trkpt lat="46.66903" lon="5.55128">
        <ele>282.77</ele>
        <time>2014-07-04T10:04:44Z</time>
      </trkpt>
      <trkpt lat="46.66898" lon="5.55069">
        <ele>282.28</ele>
        <time>2014-07-04T10:04:57Z</time>
      </trkpt>
      <trkpt lat="46.66905" lon="5.5496">
        <ele>282.28</ele>
        <time>2014-07-04T10:05:14Z</time>
      </trkpt>
      <trkpt lat="46.6692" lon="5.5483">
        <ele>281.8</ele>
        <time>2014-07-04T10:05:35Z</time>
      </trkpt>
      <trkpt lat="46.66923" lon="5.54809">
        <ele>281.32</ele>
        <time>2014-07-04T10:05:45Z</time>
      </trkpt>
      <trkpt lat="46.66931" lon="5.5475">
        <ele>280.36</ele>
        <time>2014-07-04T10:05:55Z</time>
      </trkpt>
      <trkpt lat="46.66933" lon="5.54742">
        <ele>279.88</ele>
        <time>2014-07-04T10:05:56Z</time>
      </trkpt>
      <trkpt lat="46.66942" lon="5.54719">
        <ele>279.88</ele>
        <time>2014-07-04T10:05:59Z</time>
      </trkpt>
      <trkpt lat="46.67009" lon="5.5462">
        <ele>276.04</ele>
        <time>2014-07-04T10:06:14Z</time>
      </trkpt>
      <trkpt lat="46.67077" lon="5.54525">
        <ele>273.15</ele>
        <time>2014-07-04T10:06:29Z</time>
      </trkpt>
      <trkpt lat="46.67149" lon="5.54426">
        <ele>269.79</ele>
        <time>2014-07-04T10:06:44Z</time>
      </trkpt>
      <trkpt lat="46.67203" lon="5.54353">
        <ele>268.83</ele>
        <time>2014-07-04T10:06:57Z</time>
      </trkpt>
      <trkpt lat="46.67223" lon="5.54325">
        <ele>268.35</ele>
        <time>2014-07-04T10:07:08Z</time>
      </trkpt>
      <trkpt lat="46.67231" lon="5.54312">
        <ele>268.35</ele>
        <time>2014-07-04T10:07:20Z</time>
      </trkpt>
      <trkpt lat="46.67247" lon="5.54298">
        <ele>267.86</ele>
        <time>2014-07-04T10:07:25Z</time>
      </trkpt>
      <trkpt lat="46.67264" lon="5.54279">
        <ele>267.86</ele>
        <time>2014-07-04T10:07:30Z</time>
      </trkpt>
      <trkpt lat="46.67274" lon="5.54255">
        <ele>268.35</ele>
        <time>2014-07-04T10:07:34Z</time>
      </trkpt>
      <trkpt lat="46.67278" lon="5.54235">
        <ele>268.83</ele>
        <time>2014-07-04T10:07:37Z</time>
      </trkpt>
      <trkpt lat="46.67289" lon="5.54143">
        <ele>268.83</ele>
        <time>2014-07-04T10:07:50Z</time>
      </trkpt>
      <trkpt lat="46.67311" lon="5.53994">
        <ele>267.38</ele>
        <time>2014-07-04T10:08:09Z</time>
      </trkpt>
      <trkpt lat="46.6733" lon="5.53838">
        <ele>265.46</ele>
        <time>2014-07-04T10:08:27Z</time>
      </trkpt>
      <trkpt lat="46.6733" lon="5.53671">
        <ele>263.06</ele>
        <time>2014-07-04T10:08:45Z</time>
      </trkpt>
      <trkpt lat="46.67333" lon="5.53642">
        <ele>262.58</ele>
        <time>2014-07-04T10:08:48Z</time>
      </trkpt>
      <trkpt lat="46.67384" lon="5.53497">
        <ele>260.17</ele>
        <time>2014-07-04T10:09:04Z</time>
      </trkpt>
      <trkpt lat="46.67426" lon="5.53377">
        <ele>258.73</ele>
        <time>2014-07-04T10:09:19Z</time>
      </trkpt>
      <trkpt lat="46.67431" lon="5.53369">
        <ele>258.25</ele>
        <time>2014-07-04T10:09:26Z</time>
      </trkpt>
      <trkpt lat="46.67439" lon="5.53341">
        <ele>258.25</ele>
        <time>2014-07-04T10:09:35Z</time>
      </trkpt>
      <trkpt lat="46.67476" lon="5.53242">
        <ele>257.29</ele>
        <time>2014-07-04T10:09:49Z</time>
      </trkpt>
      <trkpt lat="46.67499" lon="5.53177">
        <ele>256.81</ele>
        <time>2014-07-04T10:10:01Z</time>
      </trkpt>
      <trkpt lat="46.67504" lon="5.53161">
        <ele>256.81</ele>
        <time>2014-07-04T10:10:12Z</time>
      </trkpt>
      <trkpt lat="46.67514" lon="5.53133">
        <ele>256.33</ele>
        <time>2014-07-04T10:10:23Z</time>
      </trkpt>
      <trkpt lat="46.67529" lon="5.53091">
        <ele>255.85</ele>
        <time>2014-07-04T10:10:33Z</time>
      </trkpt>
      <trkpt lat="46.67532" lon="5.53084">
        <ele>255.85</ele>
        <time>2014-07-04T10:10:41Z</time>
      </trkpt>
      <trkpt lat="46.67533" lon="5.53085">
        <ele>255.85</ele>
        <time>2014-07-04T10:11:08Z</time>
      </trkpt>
      <trkpt lat="46.67534" lon="5.53084">
        <ele>255.85</ele>
        <time>2014-07-04T10:11:16Z</time>
      </trkpt>
      <trkpt lat="46.67551" lon="5.53036">
        <ele>255.37</ele>
        <time>2014-07-04T10:11:27Z</time>
      </trkpt>
      <trkpt lat="46.67553" lon="5.53028">
        <ele>255.37</ele>
        <time>2014-07-04T10:11:28Z</time>
      </trkpt>
      <trkpt lat="46.67577" lon="5.5296">
        <ele>254.89</ele>
        <time>2014-07-04T10:11:39Z</time>
      </trkpt>
      <trkpt lat="46.676" lon="5.52863">
        <ele>254.41</ele>
        <time>2014-07-04T10:11:52Z</time>
      </trkpt>
      <trkpt lat="46.67619" lon="5.52701">
        <ele>254.41</ele>
        <time>2014-07-04T10:12:10Z</time>
      </trkpt>
      <trkpt lat="46.67623" lon="5.52655">
        <ele>253.93</ele>
        <time>2014-07-04T10:12:15Z</time>
      </trkpt>
      <trkpt lat="46.67642" lon="5.52496">
        <ele>252.96</ele>
        <time>2014-07-04T10:12:33Z</time>
      </trkpt>
      <trkpt lat="46.67656" lon="5.52375">
        <ele>252.96</ele>
        <time>2014-07-04T10:12:48Z</time>
      </trkpt>
      <trkpt lat="46.67676" lon="5.52199">
        <ele>251.52</ele>
        <time>2014-07-04T10:13:11Z</time>
      </trkpt>
      <trkpt lat="46.67694" lon="5.52034">
        <ele>250.56</ele>
        <time>2014-07-04T10:13:33Z</time>
      </trkpt>
      <trkpt lat="46.67715" lon="5.51851">
        <ele>250.08</ele>
        <time>2014-07-04T10:13:56Z</time>
      </trkpt>
      <trkpt lat="46.67728" lon="5.51737">
        <ele>249.12</ele>
        <time>2014-07-04T10:14:10Z</time>
      </trkpt>
      <trkpt lat="46.67743" lon="5.51607">
        <ele>248.64</ele>
        <time>2014-07-04T10:14:27Z</time>
      </trkpt>
      <trkpt lat="46.67762" lon="5.51441">
        <ele>247.68</ele>
        <time>2014-07-04T10:14:48Z</time>
      </trkpt>
      <trkpt lat="46.67765" lon="5.51288">
        <ele>247.2</ele>
        <time>2014-07-04T10:15:08Z</time>
      </trkpt>
      <trkpt lat="46.67768" lon="5.51184">
        <ele>248.64</ele>
        <time>2014-07-04T10:15:24Z</time>
      </trkpt>
      <trkpt lat="46.67768" lon="5.51177">
        <ele>248.64</ele>
        <time>2014-07-04T10:15:37Z</time>
      </trkpt>
      <trkpt lat="46.67769" lon="5.51178">
        <ele>248.16</ele>
        <time>2014-07-04T10:15:56Z</time>
      </trkpt>
      <trkpt lat="46.67769" lon="5.51182">
        <ele>248.64</ele>
        <time>2014-07-04T10:16:25Z</time>
      </trkpt>
      <trkpt lat="46.6777" lon="5.51181">
        <ele>248.16</ele>
        <time>2014-07-04T10:16:54Z</time>
      </trkpt>
      <trkpt lat="46.6777" lon="5.5118">
        <ele>248.16</ele>
        <time>2014-07-04T10:17:24Z</time>
      </trkpt>
      <trkpt lat="46.67769" lon="5.51179">
        <ele>248.16</ele>
        <time>2014-07-04T10:17:51Z</time>
      </trkpt>
      <trkpt lat="46.67769" lon="5.51169">
        <ele>248.16</ele>
        <time>2014-07-04T10:18:12Z</time>
      </trkpt>
      <trkpt lat="46.67774" lon="5.51096">
        <ele>249.12</ele>
        <time>2014-07-04T10:18:26Z</time>
      </trkpt>
      <trkpt lat="46.67789" lon="5.51049">
        <ele>250.08</ele>
        <time>2014-07-04T10:18:36Z</time>
      </trkpt>
      <trkpt lat="46.67788" lon="5.50996">
        <ele>249.12</ele>
        <time>2014-07-04T10:18:46Z</time>
      </trkpt>
      <trkpt lat="46.67785" lon="5.50992">
        <ele>249.12</ele>
        <time>2014-07-04T10:18:47Z</time>
      </trkpt>
      <trkpt lat="46.67775" lon="5.50982">
        <ele>248.64</ele>
        <time>2014-07-04T10:18:50Z</time>
      </trkpt>
      <trkpt lat="46.67752" lon="5.50909">
        <ele>247.2</ele>
        <time>2014-07-04T10:19:01Z</time>
      </trkpt>
      <trkpt lat="46.67729" lon="5.50774">
        <ele>245.75</ele>
        <time>2014-07-04T10:19:17Z</time>
      </trkpt>
      <trkpt lat="46.67715" lon="5.50626">
        <ele>245.27</ele>
        <time>2014-07-04T10:19:34Z</time>
      </trkpt>
      <trkpt lat="46.67707" lon="5.50515">
        <ele>246.72</ele>
        <time>2014-07-04T10:19:50Z</time>
      </trkpt>
      <trkpt lat="46.67701" lon="5.50415">
        <ele>249.6</ele>
        <time>2014-07-04T10:20:09Z</time>
      </trkpt>
      <trkpt lat="46.67695" lon="5.5034">
        <ele>251.04</ele>
        <time>2014-07-04T10:20:27Z</time>
      </trkpt>
      <trkpt lat="46.6769" lon="5.50269">
        <ele>252.96</ele>
        <time>2014-07-04T10:20:45Z</time>
      </trkpt>
      <trkpt lat="46.67684" lon="5.5017">
        <ele>253.93</ele>
        <time>2014-07-04T10:21:07Z</time>
      </trkpt>
      <trkpt lat="46.67678" lon="5.50089">
        <ele>254.41</ele>
        <time>2014-07-04T10:21:23Z</time>
      </trkpt>
      <trkpt lat="46.67673" lon="5.5002">
        <ele>254.41</ele>
        <time>2014-07-04T10:21:36Z</time>
      </trkpt>
      <trkpt lat="46.67665" lon="5.49904">
        <ele>254.41</ele>
        <time>2014-07-04T10:21:55Z</time>
      </trkpt>
      <trkpt lat="46.67643" lon="5.49797">
        <ele>253.93</ele>
        <time>2014-07-04T10:22:12Z</time>
      </trkpt>
      <trkpt lat="46.67612" lon="5.49676">
        <ele>253.93</ele>
        <time>2014-07-04T10:22:31Z</time>
      </trkpt>
      <trkpt lat="46.67577" lon="5.49553">
        <ele>253.93</ele>
        <time>2014-07-04T10:22:51Z</time>
      </trkpt>
      <trkpt lat="46.67574" lon="5.4954">
        <ele>253.93</ele>
        <time>2014-07-04T10:22:53Z</time>
      </trkpt>
      <trkpt lat="46.67571" lon="5.49528">
        <ele>253.93</ele>
        <time>2014-07-04T10:22:55Z</time>
      </trkpt>
      <trkpt lat="46.67557" lon="5.49471">
        <ele>253.93</ele>
        <time>2014-07-04T10:23:05Z</time>
      </trkpt>
      <trkpt lat="46.67541" lon="5.49347">
        <ele>252.48</ele>
        <time>2014-07-04T10:23:26Z</time>
      </trkpt>
      <trkpt lat="46.67532" lon="5.49272">
        <ele>250.08</ele>
        <time>2014-07-04T10:23:34Z</time>
      </trkpt>
      <trkpt lat="46.67526" lon="5.49229">
        <ele>248.64</ele>
        <time>2014-07-04T10:23:38Z</time>
      </trkpt>
      <trkpt lat="46.67513" lon="5.49101">
        <ele>249.12</ele>
        <time>2014-07-04T10:23:52Z</time>
      </trkpt>
      <trkpt lat="46.67493" lon="5.48926">
        <ele>248.64</ele>
        <time>2014-07-04T10:24:13Z</time>
      </trkpt>
      <trkpt lat="46.67475" lon="5.48761">
        <ele>248.64</ele>
        <time>2014-07-04T10:24:33Z</time>
      </trkpt>
      <trkpt lat="46.67461" lon="5.48642">
        <ele>249.12</ele>
        <time>2014-07-04T10:24:50Z</time>
      </trkpt>
      <trkpt lat="46.67447" lon="5.48521">
        <ele>248.16</ele>
        <time>2014-07-04T10:25:07Z</time>
      </trkpt>
      <trkpt lat="46.6743" lon="5.48371">
        <ele>247.2</ele>
        <time>2014-07-04T10:25:26Z</time>
      </trkpt>
      <trkpt lat="46.67414" lon="5.48228">
        <ele>246.72</ele>
        <time>2014-07-04T10:25:45Z</time>
      </trkpt>
      <trkpt lat="46.67399" lon="5.48084">
        <ele>245.75</ele>
        <time>2014-07-04T10:26:04Z</time>
      </trkpt>
      <trkpt lat="46.67379" lon="5.47921">
        <ele>244.79</ele>
        <time>2014-07-04T10:26:25Z</time>
      </trkpt>
      <trkpt lat="46.67361" lon="5.47752">
        <ele>244.31</ele>
        <time>2014-07-04T10:26:47Z</time>
      </trkpt>
      <trkpt lat="46.67351" lon="5.47581">
        <ele>242.87</ele>
        <time>2014-07-04T10:27:08Z</time>
      </trkpt>
      <trkpt lat="46.67342" lon="5.47483">
        <ele>242.39</ele>
        <time>2014-07-04T10:27:22Z</time>
      </trkpt>
      <trkpt lat="46.6733" lon="5.47388">
        <ele>242.39</ele>
        <time>2014-07-04T10:27:38Z</time>
      </trkpt>
      <trkpt lat="46.67324" lon="5.47338">
        <ele>242.39</ele>
        <time>2014-07-04T10:27:46Z</time>
      </trkpt>
      <trkpt lat="46.6732" lon="5.47303">
        <ele>242.39</ele>
        <time>2014-07-04T10:27:51Z</time>
      </trkpt>
      <trkpt lat="46.67308" lon="5.47233">
        <ele>242.39</ele>
        <time>2014-07-04T10:28:01Z</time>
      </trkpt>
      <trkpt lat="46.67292" lon="5.47119">
        <ele>241.91</ele>
        <time>2014-07-04T10:28:18Z</time>
      </trkpt>
      <trkpt lat="46.67287" lon="5.47084">
        <ele>242.39</ele>
        <time>2014-07-04T10:28:23Z</time>
      </trkpt>
      <trkpt lat="46.67266" lon="5.46899">
        <ele>240.95</ele>
        <time>2014-07-04T10:28:48Z</time>
      </trkpt>
      <trkpt lat="46.67249" lon="5.46743">
        <ele>241.43</ele>
        <time>2014-07-04T10:29:08Z</time>
      </trkpt>
      <trkpt lat="46.67234" lon="5.46603">
        <ele>239.99</ele>
        <time>2014-07-04T10:29:27Z</time>
      </trkpt>
      <trkpt lat="46.67214" lon="5.4643">
        <ele>239.99</ele>
        <time>2014-07-04T10:29:50Z</time>
      </trkpt>
      <trkpt lat="46.67201" lon="5.46285">
        <ele>239.99</ele>
        <time>2014-07-04T10:30:09Z</time>
      </trkpt>
      <trkpt lat="46.67188" lon="5.46144">
        <ele>239.51</ele>
        <time>2014-07-04T10:30:27Z</time>
      </trkpt>
      <trkpt lat="46.67177" lon="5.46043">
        <ele>238.54</ele>
        <time>2014-07-04T10:30:40Z</time>
      </trkpt>
      <trkpt lat="46.67158" lon="5.45877">
        <ele>238.54</ele>
        <time>2014-07-04T10:31:02Z</time>
      </trkpt>
      <trkpt lat="46.67141" lon="5.45742">
        <ele>238.54</ele>
        <time>2014-07-04T10:31:20Z</time>
      </trkpt>
      <trkpt lat="46.67122" lon="5.45595">
        <ele>237.58</ele>
        <time>2014-07-04T10:31:39Z</time>
      </trkpt>
      <trkpt lat="46.67105" lon="5.45454">
        <ele>236.14</ele>
        <time>2014-07-04T10:31:57Z</time>
      </trkpt>
      <trkpt lat="46.67082" lon="5.45262">
        <ele>233.74</ele>
        <time>2014-07-04T10:32:18Z</time>
      </trkpt>
      <trkpt lat="46.67069" lon="5.4514">
        <ele>235.18</ele>
        <time>2014-07-04T10:32:35Z</time>
      </trkpt>
      <trkpt lat="46.67051" lon="5.44986">
        <ele>235.18</ele>
        <time>2014-07-04T10:32:58Z</time>
      </trkpt>
      <trkpt lat="46.67037" lon="5.44858">
        <ele>235.18</ele>
        <time>2014-07-04T10:33:17Z</time>
      </trkpt>
      <trkpt lat="46.67024" lon="5.44743">
        <ele>235.18</ele>
        <time>2014-07-04T10:33:34Z</time>
      </trkpt>
      <trkpt lat="46.67006" lon="5.44584">
        <ele>234.7</ele>
        <time>2014-07-04T10:33:57Z</time>
      </trkpt>
      <trkpt lat="46.66993" lon="5.44468">
        <ele>234.7</ele>
        <time>2014-07-04T10:34:14Z</time>
      </trkpt>
      <trkpt lat="46.66981" lon="5.44363">
        <ele>233.74</ele>
        <time>2014-07-04T10:34:30Z</time>
      </trkpt>
      <trkpt lat="46.66972" lon="5.44291">
        <ele>233.26</ele>
        <time>2014-07-04T10:34:41Z</time>
      </trkpt>
      <trkpt lat="46.66957" lon="5.44152">
        <ele>230.37</ele>
        <time>2014-07-04T10:34:57Z</time>
      </trkpt>
      <trkpt lat="46.66934" lon="5.43952">
        <ele>227.49</ele>
        <time>2014-07-04T10:35:18Z</time>
      </trkpt>
      <trkpt lat="46.66921" lon="5.4384">
        <ele>224.12</ele>
        <time>2014-07-04T10:35:28Z</time>
      </trkpt>
      <trkpt lat="46.66901" lon="5.43665">
        <ele>224.12</ele>
        <time>2014-07-04T10:35:46Z</time>
      </trkpt>
      <trkpt lat="46.66891" lon="5.43572">
        <ele>226.05</ele>
        <time>2014-07-04T10:36:01Z</time>
      </trkpt>
      <trkpt lat="46.66882" lon="5.43496">
        <ele>228.93</ele>
        <time>2014-07-04T10:36:18Z</time>
      </trkpt>
      <trkpt lat="46.66874" lon="5.4343">
        <ele>231.33</ele>
        <time>2014-07-04T10:36:37Z</time>
      </trkpt>
      <trkpt lat="46.66868" lon="5.43375">
        <ele>231.81</ele>
        <time>2014-07-04T10:36:52Z</time>
      </trkpt>
      <trkpt lat="46.66861" lon="5.43304">
        <ele>233.26</ele>
        <time>2014-07-04T10:37:11Z</time>
      </trkpt>
      <trkpt lat="46.66858" lon="5.43261">
        <ele>233.74</ele>
        <time>2014-07-04T10:37:22Z</time>
      </trkpt>
      <trkpt lat="46.66867" lon="5.43259">
        <ele>233.26</ele>
        <time>2014-07-04T10:37:26Z</time>
      </trkpt>
      <trkpt lat="46.66899" lon="5.43283">
        <ele>233.26</ele>
        <time>2014-07-04T10:37:37Z</time>
      </trkpt>
      <trkpt lat="46.66902" lon="5.43285">
        <ele>233.26</ele>
        <time>2014-07-04T10:37:51Z</time>
      </trkpt>
      <trkpt lat="46.66902" lon="5.43285">
        <ele>233.26</ele>
        <time>2014-07-04T10:38:24Z</time>
      </trkpt>
      <trkpt lat="46.66902" lon="5.43284">
        <ele>232.78</ele>
        <time>2014-07-04T10:39:08Z</time>
      </trkpt>
      <trkpt lat="46.66904" lon="5.43282">
        <ele>232.78</ele>
        <time>2014-07-04T10:39:52Z</time>
      </trkpt>
      <trkpt lat="46.66902" lon="5.43288">
        <ele>232.78</ele>
        <time>2014-07-04T10:40:36Z</time>
      </trkpt>
      <trkpt lat="46.66898" lon="5.43285">
        <ele>233.26</ele>
        <time>2014-07-04T10:40:47Z</time>
      </trkpt>
      <trkpt lat="46.66892" lon="5.4328">
        <ele>232.78</ele>
        <time>2014-07-04T10:40:52Z</time>
      </trkpt>
      <trkpt lat="46.66869" lon="5.43261">
        <ele>233.26</ele>
        <time>2014-07-04T10:41:06Z</time>
      </trkpt>
      <trkpt lat="46.66855" lon="5.43252">
        <ele>233.26</ele>
        <time>2014-07-04T10:41:12Z</time>
      </trkpt>
      <trkpt lat="46.66843" lon="5.43182">
        <ele>232.78</ele>
        <time>2014-07-04T10:41:27Z</time>
      </trkpt>
      <trkpt lat="46.66839" lon="5.43158">
        <ele>232.78</ele>
        <time>2014-07-04T10:41:31Z</time>
      </trkpt>
      <trkpt lat="46.66819" lon="5.43025">
        <ele>230.85</ele>
        <time>2014-07-04T10:41:50Z</time>
      </trkpt>
      <trkpt lat="46.66794" lon="5.42868">
        <ele>230.85</ele>
        <time>2014-07-04T10:42:11Z</time>
      </trkpt>
      <trkpt lat="46.6678" lon="5.42718">
        <ele>230.85</ele>
        <time>2014-07-04T10:42:33Z</time>
      </trkpt>
      <trkpt lat="46.66774" lon="5.42554">
        <ele>229.89</ele>
        <time>2014-07-04T10:42:55Z</time>
      </trkpt>
      <trkpt lat="46.66767" lon="5.42397">
        <ele>229.89</ele>
        <time>2014-07-04T10:43:16Z</time>
      </trkpt>
      <trkpt lat="46.66762" lon="5.42282">
        <ele>230.37</ele>
        <time>2014-07-04T10:43:33Z</time>
      </trkpt>
      <trkpt lat="46.66758" lon="5.42125">
        <ele>229.89</ele>
        <time>2014-07-04T10:43:56Z</time>
      </trkpt>
      <trkpt lat="46.66767" lon="5.42024">
        <ele>228.93</ele>
        <time>2014-07-04T10:44:11Z</time>
      </trkpt>
      <trkpt lat="46.66789" lon="5.41888">
        <ele>225.57</ele>
        <time>2014-07-04T10:44:28Z</time>
      </trkpt>
      <trkpt lat="46.668" lon="5.41821">
        <ele>225.09</ele>
        <time>2014-07-04T10:44:36Z</time>
      </trkpt>
      <trkpt lat="46.66825" lon="5.41769">
        <ele>226.05</ele>
        <time>2014-07-04T10:44:47Z</time>
      </trkpt>
      <trkpt lat="46.66839" lon="5.41718">
        <ele>226.53</ele>
        <time>2014-07-04T10:44:57Z</time>
      </trkpt>
      <trkpt lat="46.66838" lon="5.41713">
        <ele>226.53</ele>
        <time>2014-07-04T10:44:58Z</time>
      </trkpt>
      <trkpt lat="46.66827" lon="5.41654">
        <ele>226.05</ele>
        <time>2014-07-04T10:45:11Z</time>
      </trkpt>
      <trkpt lat="46.66836" lon="5.41583">
        <ele>226.05</ele>
        <time>2014-07-04T10:45:24Z</time>
      </trkpt>
      <trkpt lat="46.66857" lon="5.41459">
        <ele>225.57</ele>
        <time>2014-07-04T10:45:45Z</time>
      </trkpt>
      <trkpt lat="46.66862" lon="5.41436">
        <ele>227.01</ele>
        <time>2014-07-04T10:45:49Z</time>
      </trkpt>
      <trkpt lat="46.6688" lon="5.41322">
        <ele>224.61</ele>
        <time>2014-07-04T10:46:05Z</time>
      </trkpt>
      <trkpt lat="46.66901" lon="5.41203">
        <ele>221.72</ele>
        <time>2014-07-04T10:46:18Z</time>
      </trkpt>
      <trkpt lat="46.66932" lon="5.41023">
        <ele>219.32</ele>
        <time>2014-07-04T10:46:36Z</time>
      </trkpt>
      <trkpt lat="46.66953" lon="5.40893">
        <ele>219.32</ele>
        <time>2014-07-04T10:46:52Z</time>
      </trkpt>
      <trkpt lat="46.66968" lon="5.40786">
        <ele>220.76</ele>
        <time>2014-07-04T10:47:09Z</time>
      </trkpt>
      <trkpt lat="46.66988" lon="5.40674">
        <ele>219.8</ele>
        <time>2014-07-04T10:47:26Z</time>
      </trkpt>
      <trkpt lat="46.67016" lon="5.4052">
        <ele>217.4</ele>
        <time>2014-07-04T10:47:44Z</time>
      </trkpt>
      <trkpt lat="46.67037" lon="5.40414">
        <ele>219.32</ele>
        <time>2014-07-04T10:48:00Z</time>
      </trkpt>
      <trkpt lat="46.67047" lon="5.4036">
        <ele>221.72</ele>
        <time>2014-07-04T10:48:15Z</time>
      </trkpt>
      <trkpt lat="46.67057" lon="5.40272">
        <ele>224.12</ele>
        <time>2014-07-04T10:48:38Z</time>
      </trkpt>
      <trkpt lat="46.67064" lon="5.40197">
        <ele>225.57</ele>
        <time>2014-07-04T10:48:57Z</time>
      </trkpt>
      <trkpt lat="46.67071" lon="5.40119">
        <ele>226.53</ele>
        <time>2014-07-04T10:49:16Z</time>
      </trkpt>
      <trkpt lat="46.67077" lon="5.40047">
        <ele>227.97</ele>
        <time>2014-07-04T10:49:33Z</time>
      </trkpt>
      <trkpt lat="46.67083" lon="5.39964">
        <ele>229.89</ele>
        <time>2014-07-04T10:49:51Z</time>
      </trkpt>
      <trkpt lat="46.67091" lon="5.3988">
        <ele>228.45</ele>
        <time>2014-07-04T10:50:08Z</time>
      </trkpt>
      <trkpt lat="46.67095" lon="5.39846">
        <ele>227.97</ele>
        <time>2014-07-04T10:50:14Z</time>
      </trkpt>
      <trkpt lat="46.67105" lon="5.39738">
        <ele>224.61</ele>
        <time>2014-07-04T10:50:28Z</time>
      </trkpt>
      <trkpt lat="46.67116" lon="5.39628">
        <ele>221.24</ele>
        <time>2014-07-04T10:50:38Z</time>
      </trkpt>
      <trkpt lat="46.67135" lon="5.39434">
        <ele>219.8</ele>
        <time>2014-07-04T10:50:56Z</time>
      </trkpt>
      <trkpt lat="46.67146" lon="5.39333">
        <ele>222.2</ele>
        <time>2014-07-04T10:51:10Z</time>
      </trkpt>
      <trkpt lat="46.67154" lon="5.39267">
        <ele>224.61</ele>
        <time>2014-07-04T10:51:24Z</time>
      </trkpt>
      <trkpt lat="46.67172" lon="5.3923">
        <ele>226.05</ele>
        <time>2014-07-04T10:51:37Z</time>
      </trkpt>
      <trkpt lat="46.672" lon="5.39222">
        <ele>227.01</ele>
        <time>2014-07-04T10:51:50Z</time>
      </trkpt>
      <trkpt lat="46.67201" lon="5.3922">
        <ele>227.01</ele>
        <time>2014-07-04T10:52:05Z</time>
      </trkpt>
      <trkpt lat="46.67201" lon="5.39219">
        <ele>227.01</ele>
        <time>2014-07-04T10:52:29Z</time>
      </trkpt>
      <trkpt lat="46.67202" lon="5.39218">
        <ele>227.01</ele>
        <time>2014-07-04T10:52:52Z</time>
      </trkpt>
      <trkpt lat="46.67203" lon="5.39218">
        <ele>227.01</ele>
        <time>2014-07-04T10:53:12Z</time>
      </trkpt>
      <trkpt lat="46.67205" lon="5.39211">
        <ele>227.01</ele>
        <time>2014-07-04T10:53:16Z</time>
      </trkpt>
      <trkpt lat="46.67237" lon="5.39178">
        <ele>227.01</ele>
        <time>2014-07-04T10:53:31Z</time>
      </trkpt>
      <trkpt lat="46.67279" lon="5.39132">
        <ele>225.57</ele>
        <time>2014-07-04T10:53:47Z</time>
      </trkpt>
      <trkpt lat="46.67282" lon="5.39128">
        <ele>225.57</ele>
        <time>2014-07-04T10:53:48Z</time>
      </trkpt>
      <trkpt lat="46.67332" lon="5.39075">
        <ele>223.64</ele>
        <time>2014-07-04T10:54:01Z</time>
      </trkpt>
      <trkpt lat="46.67374" lon="5.3903">
        <ele>221.72</ele>
        <time>2014-07-04T10:54:10Z</time>
      </trkpt>
      <trkpt lat="46.67452" lon="5.38949">
        <ele>222.68</ele>
        <time>2014-07-04T10:54:27Z</time>
      </trkpt>
      <trkpt lat="46.6746" lon="5.38941">
        <ele>222.2</ele>
        <time>2014-07-04T10:54:29Z</time>
      </trkpt>
      <trkpt lat="46.67528" lon="5.38871">
        <ele>220.28</ele>
        <time>2014-07-04T10:54:44Z</time>
      </trkpt>
      <trkpt lat="46.67608" lon="5.38791">
        <ele>220.76</ele>
        <time>2014-07-04T10:55:01Z</time>
      </trkpt>
      <trkpt lat="46.67658" lon="5.3874">
        <ele>223.16</ele>
        <time>2014-07-04T10:55:16Z</time>
      </trkpt>
      <trkpt lat="46.67689" lon="5.3871">
        <ele>224.61</ele>
        <time>2014-07-04T10:55:28Z</time>
      </trkpt>
      <trkpt lat="46.67724" lon="5.38674">
        <ele>225.57</ele>
        <time>2014-07-04T10:55:44Z</time>
      </trkpt>
      <trkpt lat="46.6776" lon="5.38639">
        <ele>226.05</ele>
        <time>2014-07-04T10:55:58Z</time>
      </trkpt>
      <trkpt lat="46.67794" lon="5.38603">
        <ele>226.05</ele>
        <time>2014-07-04T10:56:11Z</time>
      </trkpt>
      <trkpt lat="46.67832" lon="5.38564">
        <ele>226.05</ele>
        <time>2014-07-04T10:56:24Z</time>
      </trkpt>
      <trkpt lat="46.67879" lon="5.38514">
        <ele>226.53</ele>
        <time>2014-07-04T10:56:37Z</time>
      </trkpt>
      <trkpt lat="46.67885" lon="5.38507">
        <ele>226.53</ele>
        <time>2014-07-04T10:56:39Z</time>
      </trkpt>
      <trkpt lat="46.67931" lon="5.3846">
        <ele>226.53</ele>
        <time>2014-07-04T10:56:53Z</time>
      </trkpt>
      <trkpt lat="46.67969" lon="5.38422">
        <ele>227.01</ele>
        <time>2014-07-04T10:57:05Z</time>
      </trkpt>
      <trkpt lat="46.68003" lon="5.38384">
        <ele>227.01</ele>
        <time>2014-07-04T10:57:17Z</time>
      </trkpt>
      <trkpt lat="46.68047" lon="5.38338">
        <ele>226.53</ele>
        <time>2014-07-04T10:57:31Z</time>
      </trkpt>
      <trkpt lat="46.68107" lon="5.38277">
        <ele>224.12</ele>
        <time>2014-07-04T10:57:48Z</time>
      </trkpt>
      <trkpt lat="46.68109" lon="5.38276">
        <ele>223.64</ele>
        <time>2014-07-04T10:57:49Z</time>
      </trkpt>
      <trkpt lat="46.68108" lon="5.38291">
        <ele>225.09</ele>
        <time>2014-07-04T10:57:55Z</time>
      </trkpt>
      <trkpt lat="46.681" lon="5.38345">
        <ele>225.09</ele>
        <time>2014-07-04T10:58:08Z</time>
      </trkpt>
      <trkpt lat="46.68103" lon="5.38365">
        <ele>225.57</ele>
        <time>2014-07-04T10:58:13Z</time>
      </trkpt>
      <trkpt lat="46.681" lon="5.38407">
        <ele>226.05</ele>
        <time>2014-07-04T10:58:27Z</time>
      </trkpt>
      <trkpt lat="46.68099" lon="5.38414">
        <ele>226.05</ele>
        <time>2014-07-04T10:58:39Z</time>
      </trkpt>
      <trkpt lat="46.68101" lon="5.38416">
        <ele>226.05</ele>
        <time>2014-07-04T10:58:56Z</time>
      </trkpt>
      <trkpt lat="46.68101" lon="5.38415">
        <ele>226.05</ele>
        <time>2014-07-04T10:59:25Z</time>
      </trkpt>
      <trkpt lat="46.68106" lon="5.38418">
        <ele>226.05</ele>
        <time>2014-07-04T11:00:02Z</time>
      </trkpt>
      <trkpt lat="46.68107" lon="5.38418">
        <ele>226.05</ele>
        <time>2014-07-04T11:00:34Z</time>
      </trkpt>
      <trkpt lat="46.68108" lon="5.38416">
        <ele>226.05</ele>
        <time>2014-07-04T11:01:03Z</time>
      </trkpt>
      <trkpt lat="46.68108" lon="5.38416">
        <ele>226.05</ele>
        <time>2014-07-04T11:01:25Z</time>
      </trkpt>
      <trkpt lat="46.68109" lon="5.38415">
        <ele>226.05</ele>
        <time>2014-07-04T11:01:49Z</time>
      </trkpt>
      <trkpt lat="46.68106" lon="5.38417">
        <ele>226.05</ele>
        <time>2014-07-04T11:02:13Z</time>
      </trkpt>
      <trkpt lat="46.68106" lon="5.38417">
        <ele>226.05</ele>
        <time>2014-07-04T11:02:34Z</time>
      </trkpt>
      <trkpt lat="46.68107" lon="5.38417">
        <ele>226.05</ele>
        <time>2014-07-04T11:03:04Z</time>
      </trkpt>
      <trkpt lat="46.68101" lon="5.38417">
        <ele>226.05</ele>
        <time>2014-07-04T11:03:38Z</time>
      </trkpt>
      <trkpt lat="46.68101" lon="5.38416">
        <ele>226.05</ele>
        <time>2014-07-04T11:04:07Z</time>
      </trkpt>
      <trkpt lat="46.68104" lon="5.38417">
        <ele>226.53</ele>
        <time>2014-07-04T11:04:50Z</time>
      </trkpt>
      <trkpt lat="46.68104" lon="5.38411">
        <ele>226.53</ele>
        <time>2014-07-04T11:05:34Z</time>
      </trkpt>
      <trkpt lat="46.68101" lon="5.38413">
        <ele>227.01</ele>
        <time>2014-07-04T11:06:15Z</time>
      </trkpt>
      <trkpt lat="46.68108" lon="5.38417">
        <ele>227.01</ele>
        <time>2014-07-04T11:06:38Z</time>
      </trkpt>
      <trkpt lat="46.6811" lon="5.38418">
        <ele>227.49</ele>
        <time>2014-07-04T11:07:01Z</time>
      </trkpt>
      <trkpt lat="46.68108" lon="5.38419">
        <ele>227.49</ele>
        <time>2014-07-04T11:07:34Z</time>
      </trkpt>
      <trkpt lat="46.68103" lon="5.38418">
        <ele>227.97</ele>
        <time>2014-07-04T11:08:04Z</time>
      </trkpt>
      <trkpt lat="46.68101" lon="5.38416">
        <ele>227.97</ele>
        <time>2014-07-04T11:08:43Z</time>
      </trkpt>
      <trkpt lat="46.68104" lon="5.38415">
        <ele>227.97</ele>
        <time>2014-07-04T11:09:16Z</time>
      </trkpt>
      <trkpt lat="46.68104" lon="5.38416">
        <ele>227.97</ele>
        <time>2014-07-04T11:09:48Z</time>
      </trkpt>
      <trkpt lat="46.68109" lon="5.38416">
        <ele>227.97</ele>
        <time>2014-07-04T11:10:17Z</time>
      </trkpt>
      <trkpt lat="46.68112" lon="5.38415">
        <ele>227.97</ele>
        <time>2014-07-04T11:10:54Z</time>
      </trkpt>
      <trkpt lat="46.68111" lon="5.38418">
        <ele>227.49</ele>
        <time>2014-07-04T11:11:27Z</time>
      </trkpt>
      <trkpt lat="46.68107" lon="5.38421">
        <ele>227.49</ele>
        <time>2014-07-04T11:11:57Z</time>
      </trkpt>
      <trkpt lat="46.68106" lon="5.38419">
        <ele>227.49</ele>
        <time>2014-07-04T11:12:21Z</time>
      </trkpt>
      <trkpt lat="46.68103" lon="5.38417">
        <ele>227.49</ele>
        <time>2014-07-04T11:12:47Z</time>
      </trkpt>
      <trkpt lat="46.68105" lon="5.38416">
        <ele>227.49</ele>
        <time>2014-07-04T11:13:16Z</time>
      </trkpt>
      <trkpt lat="46.68103" lon="5.38416">
        <ele>227.49</ele>
        <time>2014-07-04T11:13:42Z</time>
      </trkpt>
      <trkpt lat="46.681" lon="5.38416">
        <ele>227.49</ele>
        <time>2014-07-04T11:14:11Z</time>
      </trkpt>
      <trkpt lat="46.68103" lon="5.38418">
        <ele>227.49</ele>
        <time>2014-07-04T11:14:43Z</time>
      </trkpt>
      <trkpt lat="46.68107" lon="5.38417">
        <ele>227.49</ele>
        <time>2014-07-04T11:15:09Z</time>
      </trkpt>
      <trkpt lat="46.68106" lon="5.38416">
        <ele>227.97</ele>
        <time>2014-07-04T11:15:37Z</time>
      </trkpt>
      <trkpt lat="46.68107" lon="5.38416">
        <ele>227.97</ele>
        <time>2014-07-04T11:16:08Z</time>
      </trkpt>
      <trkpt lat="46.68106" lon="5.38416">
        <ele>227.97</ele>
        <time>2014-07-04T11:16:32Z</time>
      </trkpt>
      <trkpt lat="46.68104" lon="5.38418">
        <ele>227.97</ele>
        <time>2014-07-04T11:17:03Z</time>
      </trkpt>
      <trkpt lat="46.68102" lon="5.38414">
        <ele>227.97</ele>
        <time>2014-07-04T11:17:28Z</time>
      </trkpt>
      <trkpt lat="46.68104" lon="5.38416">
        <ele>227.97</ele>
        <time>2014-07-04T11:17:59Z</time>
      </trkpt>
      <trkpt lat="46.68104" lon="5.38418">
        <ele>227.97</ele>
        <time>2014-07-04T11:18:26Z</time>
      </trkpt>
      <trkpt lat="46.68106" lon="5.38416">
        <ele>227.97</ele>
        <time>2014-07-04T11:18:53Z</time>
      </trkpt>
      <trkpt lat="46.68108" lon="5.38416">
        <ele>227.97</ele>
        <time>2014-07-04T11:19:29Z</time>
      </trkpt>
      <trkpt lat="46.68107" lon="5.38417">
        <ele>227.97</ele>
        <time>2014-07-04T11:20:01Z</time>
      </trkpt>
      <trkpt lat="46.68105" lon="5.38415">
        <ele>227.97</ele>
        <time>2014-07-04T11:20:27Z</time>
      </trkpt>
      <trkpt lat="46.68105" lon="5.38415">
        <ele>227.97</ele>
        <time>2014-07-04T11:21:03Z</time>
      </trkpt>
      <trkpt lat="46.68105" lon="5.38417">
        <ele>227.97</ele>
        <time>2014-07-04T11:21:36Z</time>
      </trkpt>
      <trkpt lat="46.68104" lon="5.38417">
        <ele>227.49</ele>
        <time>2014-07-04T11:21:59Z</time>
      </trkpt>
      <trkpt lat="46.68106" lon="5.38417">
        <ele>227.49</ele>
        <time>2014-07-04T11:22:29Z</time>
      </trkpt>
      <trkpt lat="46.68109" lon="5.38417">
        <ele>227.01</ele>
        <time>2014-07-04T11:22:53Z</time>
      </trkpt>
      <trkpt lat="46.68109" lon="5.38414">
        <ele>227.01</ele>
        <time>2014-07-04T11:23:18Z</time>
      </trkpt>
      <trkpt lat="46.68106" lon="5.38417">
        <ele>227.49</ele>
        <time>2014-07-04T11:23:46Z</time>
      </trkpt>
      <trkpt lat="46.68105" lon="5.38415">
        <ele>227.49</ele>
        <time>2014-07-04T11:24:11Z</time>
      </trkpt>
      <trkpt lat="46.68104" lon="5.38417">
        <ele>227.49</ele>
        <time>2014-07-04T11:24:33Z</time>
      </trkpt>
      <trkpt lat="46.68102" lon="5.38416">
        <ele>227.49</ele>
        <time>2014-07-04T11:24:59Z</time>
      </trkpt>
      <trkpt lat="46.68104" lon="5.38417">
        <ele>227.49</ele>
        <time>2014-07-04T11:25:15Z</time>
      </trkpt>
      <trkpt lat="46.68105" lon="5.38417">
        <ele>227.49</ele>
        <time>2014-07-04T11:25:35Z</time>
      </trkpt>
      <trkpt lat="46.68107" lon="5.38417">
        <ele>227.49</ele>
        <time>2014-07-04T11:26:06Z</time>
      </trkpt>
      <trkpt lat="46.68106" lon="5.38419">
        <ele>227.49</ele>
        <time>2014-07-04T11:26:34Z</time>
      </trkpt>
      <trkpt lat="46.68104" lon="5.3842">
        <ele>227.49</ele>
        <time>2014-07-04T11:27:00Z</time>
      </trkpt>
      <trkpt lat="46.68102" lon="5.3842">
        <ele>227.49</ele>
        <time>2014-07-04T11:27:23Z</time>
      </trkpt>
      <trkpt lat="46.68102" lon="5.3842">
        <ele>227.49</ele>
        <time>2014-07-04T11:27:46Z</time>
      </trkpt>
      <trkpt lat="46.68101" lon="5.38419">
        <ele>227.49</ele>
        <time>2014-07-04T11:28:13Z</time>
      </trkpt>
      <trkpt lat="46.68101" lon="5.38421">
        <ele>227.97</ele>
        <time>2014-07-04T11:28:46Z</time>
      </trkpt>
      <trkpt lat="46.68105" lon="5.38417">
        <ele>227.97</ele>
        <time>2014-07-04T11:29:30Z</time>
      </trkpt>
      <trkpt lat="46.68104" lon="5.38418">
        <ele>227.97</ele>
        <time>2014-07-04T11:30:04Z</time>
      </trkpt>
      <trkpt lat="46.68104" lon="5.38419">
        <ele>227.97</ele>
        <time>2014-07-04T11:30:36Z</time>
      </trkpt>
      <trkpt lat="46.68104" lon="5.38417">
        <ele>227.97</ele>
        <time>2014-07-04T11:31:14Z</time>
      </trkpt>
      <trkpt lat="46.68102" lon="5.38419">
        <ele>227.97</ele>
        <time>2014-07-04T11:31:49Z</time>
      </trkpt>
      <trkpt lat="46.68105" lon="5.38419">
        <ele>227.97</ele>
        <time>2014-07-04T11:32:18Z</time>
      </trkpt>
      <trkpt lat="46.68106" lon="5.38418">
        <ele>227.97</ele>
        <time>2014-07-04T11:32:55Z</time>
      </trkpt>
      <trkpt lat="46.68106" lon="5.38419">
        <ele>227.97</ele>
        <time>2014-07-04T11:33:33Z</time>
      </trkpt>
      <trkpt lat="46.68107" lon="5.38418">
        <ele>227.97</ele>
        <time>2014-07-04T11:34:11Z</time>
      </trkpt>
      <trkpt lat="46.68108" lon="5.38418">
        <ele>227.97</ele>
        <time>2014-07-04T11:34:46Z</time>
      </trkpt>
      <trkpt lat="46.68108" lon="5.38419">
        <ele>227.97</ele>
        <time>2014-07-04T11:35:20Z</time>
      </trkpt>
      <trkpt lat="46.6811" lon="5.38418">
        <ele>227.97</ele>
        <time>2014-07-04T11:35:47Z</time>
      </trkpt>
      <trkpt lat="46.6811" lon="5.38417">
        <ele>228.45</ele>
        <time>2014-07-04T11:36:15Z</time>
      </trkpt>
      <trkpt lat="46.68105" lon="5.38418">
        <ele>228.45</ele>
        <time>2014-07-04T11:36:53Z</time>
      </trkpt>
      <trkpt lat="46.68108" lon="5.38418">
        <ele>228.45</ele>
        <time>2014-07-04T11:37:33Z</time>
      </trkpt>
      <trkpt lat="46.68108" lon="5.38418">
        <ele>227.97</ele>
        <time>2014-07-04T11:38:11Z</time>
      </trkpt>
      <trkpt lat="46.68106" lon="5.38421">
        <ele>228.45</ele>
        <time>2014-07-04T11:38:43Z</time>
      </trkpt>
      <trkpt lat="46.68106" lon="5.3842">
        <ele>228.45</ele>
        <time>2014-07-04T11:39:19Z</time>
      </trkpt>
      <trkpt lat="46.68106" lon="5.38417">
        <ele>227.97</ele>
        <time>2014-07-04T11:39:52Z</time>
      </trkpt>
      <trkpt lat="46.68107" lon="5.38416">
        <ele>227.97</ele>
        <time>2014-07-04T11:40:11Z</time>
      </trkpt>
      <trkpt lat="46.68109" lon="5.38415">
        <ele>227.49</ele>
        <time>2014-07-04T11:40:31Z</time>
      </trkpt>
      <trkpt lat="46.6811" lon="5.38416">
        <ele>227.49</ele>
        <time>2014-07-04T11:41:00Z</time>
      </trkpt>
      <trkpt lat="46.68107" lon="5.38416">
        <ele>227.49</ele>
        <time>2014-07-04T11:41:33Z</time>
      </trkpt>
      <trkpt lat="46.6811" lon="5.38415">
        <ele>227.01</ele>
        <time>2014-07-04T11:42:05Z</time>
      </trkpt>
      <trkpt lat="46.68107" lon="5.38418">
        <ele>227.01</ele>
        <time>2014-07-04T11:42:45Z</time>
      </trkpt>
      <trkpt lat="46.68105" lon="5.38417">
        <ele>227.01</ele>
        <time>2014-07-04T11:43:27Z</time>
      </trkpt>
      <trkpt lat="46.68107" lon="5.38415">
        <ele>227.49</ele>
        <time>2014-07-04T11:43:58Z</time>
      </trkpt>
      <trkpt lat="46.68107" lon="5.38418">
        <ele>227.49</ele>
        <time>2014-07-04T11:44:48Z</time>
      </trkpt>
      <trkpt lat="46.68108" lon="5.38416">
        <ele>227.97</ele>
        <time>2014-07-04T11:45:27Z</time>
      </trkpt>
      <trkpt lat="46.68109" lon="5.38416">
        <ele>227.49</ele>
        <time>2014-07-04T11:46:09Z</time>
      </trkpt>
      <trkpt lat="46.68109" lon="5.38412">
        <ele>227.49</ele>
        <time>2014-07-04T11:46:40Z</time>
      </trkpt>
      <trkpt lat="46.68109" lon="5.3841">
        <ele>227.49</ele>
        <time>2014-07-04T11:47:23Z</time>
      </trkpt>
      <trkpt lat="46.68105" lon="5.38415">
        <ele>227.01</ele>
        <time>2014-07-04T11:47:58Z</time>
      </trkpt>
      <trkpt lat="46.68107" lon="5.38416">
        <ele>227.01</ele>
        <time>2014-07-04T11:48:41Z</time>
      </trkpt>
      <trkpt lat="46.68107" lon="5.38418">
        <ele>227.01</ele>
        <time>2014-07-04T11:49:23Z</time>
      </trkpt>
      <trkpt lat="46.68109" lon="5.38418">
        <ele>227.01</ele>
        <time>2014-07-04T11:50:03Z</time>
      </trkpt>
      <trkpt lat="46.6811" lon="5.38417">
        <ele>227.01</ele>
        <time>2014-07-04T11:50:43Z</time>
      </trkpt>
      <trkpt lat="46.68109" lon="5.38419">
        <ele>227.01</ele>
        <time>2014-07-04T11:51:23Z</time>
      </trkpt>
      <trkpt lat="46.68108" lon="5.38419">
        <ele>227.01</ele>
        <time>2014-07-04T11:52:03Z</time>
      </trkpt>
      <trkpt lat="46.68109" lon="5.38415">
        <ele>226.53</ele>
        <time>2014-07-04T11:52:39Z</time>
      </trkpt>
      <trkpt lat="46.68109" lon="5.38416">
        <ele>226.53</ele>
        <time>2014-07-04T11:53:09Z</time>
      </trkpt>
      <trkpt lat="46.68108" lon="5.38415">
        <ele>226.53</ele>
        <time>2014-07-04T11:53:47Z</time>
      </trkpt>
      <trkpt lat="46.68107" lon="5.38414">
        <ele>226.53</ele>
        <time>2014-07-04T11:54:28Z</time>
      </trkpt>
      <trkpt lat="46.68108" lon="5.38409">
        <ele>226.05</ele>
        <time>2014-07-04T11:55:05Z</time>
      </trkpt>
      <trkpt lat="46.68106" lon="5.38417">
        <ele>226.53</ele>
        <time>2014-07-04T11:55:39Z</time>
      </trkpt>
      <trkpt lat="46.68104" lon="5.38416">
        <ele>226.53</ele>
        <time>2014-07-04T11:56:18Z</time>
      </trkpt>
      <trkpt lat="46.68106" lon="5.38416">
        <ele>226.53</ele>
        <time>2014-07-04T11:56:55Z</time>
      </trkpt>
      <trkpt lat="46.68106" lon="5.38416">
        <ele>226.53</ele>
        <time>2014-07-04T11:57:41Z</time>
      </trkpt>
      <trkpt lat="46.68107" lon="5.38415">
        <ele>226.53</ele>
        <time>2014-07-04T11:58:17Z</time>
      </trkpt>
      <trkpt lat="46.68104" lon="5.38415">
        <ele>227.01</ele>
        <time>2014-07-04T11:58:48Z</time>
      </trkpt>
      <trkpt lat="46.68102" lon="5.38413">
        <ele>227.01</ele>
        <time>2014-07-04T11:59:32Z</time>
      </trkpt>
      <trkpt lat="46.68106" lon="5.38419">
        <ele>227.01</ele>
        <time>2014-07-04T12:00:20Z</time>
      </trkpt>
      <trkpt lat="46.68108" lon="5.38419">
        <ele>227.01</ele>
        <time>2014-07-04T12:00:50Z</time>
      </trkpt>
      <trkpt lat="46.68108" lon="5.38415">
        <ele>227.01</ele>
        <time>2014-07-04T12:01:26Z</time>
      </trkpt>
      <trkpt lat="46.68111" lon="5.38416">
        <ele>227.01</ele>
        <time>2014-07-04T12:01:57Z</time>
      </trkpt>
      <trkpt lat="46.68108" lon="5.38417">
        <ele>227.01</ele>
        <time>2014-07-04T12:02:33Z</time>
      </trkpt>
      <trkpt lat="46.68108" lon="5.38419">
        <ele>227.01</ele>
        <time>2014-07-04T12:03:10Z</time>
      </trkpt>
      <trkpt lat="46.68107" lon="5.38416">
        <ele>227.01</ele>
        <time>2014-07-04T12:03:54Z</time>
      </trkpt>
      <trkpt lat="46.68109" lon="5.38418">
        <ele>227.01</ele>
        <time>2014-07-04T12:04:33Z</time>
      </trkpt>
      <trkpt lat="46.68108" lon="5.38418">
        <ele>227.49</ele>
        <time>2014-07-04T12:05:06Z</time>
      </trkpt>
      <trkpt lat="46.68105" lon="5.38412">
        <ele>227.49</ele>
        <time>2014-07-04T12:05:41Z</time>
      </trkpt>
      <trkpt lat="46.68107" lon="5.38413">
        <ele>227.49</ele>
        <time>2014-07-04T12:06:17Z</time>
      </trkpt>
      <trkpt lat="46.68107" lon="5.38411">
        <ele>227.49</ele>
        <time>2014-07-04T12:06:45Z</time>
      </trkpt>
      <trkpt lat="46.68106" lon="5.38408">
        <ele>227.49</ele>
        <time>2014-07-04T12:06:57Z</time>
      </trkpt>
      <trkpt lat="46.68106" lon="5.38406">
        <ele>218.84</ele>
        <time>2014-07-04T12:08:03Z</time>
      </trkpt>
      <trkpt lat="46.68103" lon="5.38409">
        <ele>252.96</ele>
        <time>2014-07-04T12:08:04Z</time>
      </trkpt>
      <trkpt lat="46.68103" lon="5.38408">
        <ele>251.52</ele>
        <time>2014-07-04T12:08:06Z</time>
      </trkpt>
      <trkpt lat="46.68104" lon="5.384">
        <ele>251.04</ele>
        <time>2014-07-04T12:08:24Z</time>
      </trkpt>
      <trkpt lat="46.68104" lon="5.38398">
        <ele>251.04</ele>
        <time>2014-07-04T12:08:28Z</time>
      </trkpt>
      <trkpt lat="46.68104" lon="5.38388">
        <ele>251.04</ele>
        <time>2014-07-04T12:08:33Z</time>
      </trkpt>
      <trkpt lat="46.68107" lon="5.38351">
        <ele>250.08</ele>
        <time>2014-07-04T12:08:44Z</time>
      </trkpt>
      <trkpt lat="46.68109" lon="5.383">
        <ele>248.64</ele>
        <time>2014-07-04T12:08:56Z</time>
      </trkpt>
      <trkpt lat="46.68113" lon="5.38271">
        <ele>247.68</ele>
        <time>2014-07-04T12:09:06Z</time>
      </trkpt>
      <trkpt lat="46.68114" lon="5.38266">
        <ele>247.68</ele>
        <time>2014-07-04T12:09:10Z</time>
      </trkpt>
      <trkpt lat="46.68125" lon="5.38254">
        <ele>247.2</ele>
        <time>2014-07-04T12:09:16Z</time>
      </trkpt>
      <trkpt lat="46.68137" lon="5.38241">
        <ele>246.72</ele>
        <time>2014-07-04T12:09:20Z</time>
      </trkpt>
      <trkpt lat="46.682" lon="5.38177">
        <ele>243.35</ele>
        <time>2014-07-04T12:09:35Z</time>
      </trkpt>
      <trkpt lat="46.68274" lon="5.38099">
        <ele>242.87</ele>
        <time>2014-07-04T12:09:50Z</time>
      </trkpt>
      <trkpt lat="46.68335" lon="5.38035">
        <ele>244.31</ele>
        <time>2014-07-04T12:10:06Z</time>
      </trkpt>
      <trkpt lat="46.68383" lon="5.37988">
        <ele>245.75</ele>
        <time>2014-07-04T12:10:22Z</time>
      </trkpt>
      <trkpt lat="46.68437" lon="5.37932">
        <ele>245.27</ele>
        <time>2014-07-04T12:10:42Z</time>
      </trkpt>
      <trkpt lat="46.6844" lon="5.37928">
        <ele>245.27</ele>
        <time>2014-07-04T12:10:43Z</time>
      </trkpt>
      <trkpt lat="46.68451" lon="5.37915">
        <ele>246.72</ele>
        <time>2014-07-04T12:10:48Z</time>
      </trkpt>
      <trkpt lat="46.68488" lon="5.37875">
        <ele>247.2</ele>
        <time>2014-07-04T12:11:02Z</time>
      </trkpt>
      <trkpt lat="46.68534" lon="5.3783">
        <ele>247.68</ele>
        <time>2014-07-04T12:11:18Z</time>
      </trkpt>
      <trkpt lat="46.68585" lon="5.37776">
        <ele>247.2</ele>
        <time>2014-07-04T12:11:35Z</time>
      </trkpt>
      <trkpt lat="46.68637" lon="5.37724">
        <ele>246.23</ele>
        <time>2014-07-04T12:11:50Z</time>
      </trkpt>
      <trkpt lat="46.68718" lon="5.37641">
        <ele>244.79</ele>
        <time>2014-07-04T12:12:09Z</time>
      </trkpt>
      <trkpt lat="46.68764" lon="5.37593">
        <ele>245.27</ele>
        <time>2014-07-04T12:12:23Z</time>
      </trkpt>
      <trkpt lat="46.68798" lon="5.37557">
        <ele>245.75</ele>
        <time>2014-07-04T12:12:35Z</time>
      </trkpt>
      <trkpt lat="46.68852" lon="5.37504">
        <ele>245.27</ele>
        <time>2014-07-04T12:12:52Z</time>
      </trkpt>
      <trkpt lat="46.68916" lon="5.37442">
        <ele>243.35</ele>
        <time>2014-07-04T12:13:09Z</time>
      </trkpt>
      <trkpt lat="46.6892" lon="5.37437">
        <ele>243.35</ele>
        <time>2014-07-04T12:13:10Z</time>
      </trkpt>
      <trkpt lat="46.68967" lon="5.37384">
        <ele>239.99</ele>
        <time>2014-07-04T12:13:19Z</time>
      </trkpt>
      <trkpt lat="46.68974" lon="5.37378">
        <ele>239.51</ele>
        <time>2014-07-04T12:13:20Z</time>
      </trkpt>
      <trkpt lat="46.68986" lon="5.37365">
        <ele>239.02</ele>
        <time>2014-07-04T12:13:22Z</time>
      </trkpt>
      <trkpt lat="46.69029" lon="5.37307">
        <ele>237.1</ele>
        <time>2014-07-04T12:13:30Z</time>
      </trkpt>
      <trkpt lat="46.69057" lon="5.37222">
        <ele>236.14</ele>
        <time>2014-07-04T12:13:41Z</time>
      </trkpt>
      <trkpt lat="46.6906" lon="5.37169">
        <ele>235.66</ele>
        <time>2014-07-04T12:13:53Z</time>
      </trkpt>
      <trkpt lat="46.69062" lon="5.37114">
        <ele>234.7</ele>
        <time>2014-07-04T12:14:05Z</time>
      </trkpt>
      <trkpt lat="46.69067" lon="5.37034">
        <ele>232.78</ele>
        <time>2014-07-04T12:14:19Z</time>
      </trkpt>
      <trkpt lat="46.69067" lon="5.37021">
        <ele>232.78</ele>
        <time>2014-07-04T12:14:21Z</time>
      </trkpt>
      <trkpt lat="46.69063" lon="5.36968">
        <ele>232.3</ele>
        <time>2014-07-04T12:14:29Z</time>
      </trkpt>
      <trkpt lat="46.69059" lon="5.36949">
        <ele>231.81</ele>
        <time>2014-07-04T12:14:32Z</time>
      </trkpt>
      <trkpt lat="46.69055" lon="5.36922">
        <ele>230.85</ele>
        <time>2014-07-04T12:14:36Z</time>
      </trkpt>
      <trkpt lat="46.69047" lon="5.36795">
        <ele>229.89</ele>
        <time>2014-07-04T12:14:54Z</time>
      </trkpt>
      <trkpt lat="46.69046" lon="5.36753">
        <ele>229.41</ele>
        <time>2014-07-04T12:15:02Z</time>
      </trkpt>
      <trkpt lat="46.69049" lon="5.36728">
        <ele>228.93</ele>
        <time>2014-07-04T12:15:06Z</time>
      </trkpt>
      <trkpt lat="46.69056" lon="5.36699">
        <ele>228.45</ele>
        <time>2014-07-04T12:15:11Z</time>
      </trkpt>
      <trkpt lat="46.69063" lon="5.36678">
        <ele>228.45</ele>
        <time>2014-07-04T12:15:15Z</time>
      </trkpt>
      <trkpt lat="46.6907" lon="5.36663">
        <ele>228.45</ele>
        <time>2014-07-04T12:15:18Z</time>
      </trkpt>
      <trkpt lat="46.69103" lon="5.36561">
        <ele>228.45</ele>
        <time>2014-07-04T12:15:37Z</time>
      </trkpt>
      <trkpt lat="46.69128" lon="5.36487">
        <ele>229.89</ele>
        <time>2014-07-04T12:15:53Z</time>
      </trkpt>
      <trkpt lat="46.69148" lon="5.36427">
        <ele>231.33</ele>
        <time>2014-07-04T12:16:10Z</time>
      </trkpt>
      <trkpt lat="46.6917" lon="5.36361">
        <ele>232.78</ele>
        <time>2014-07-04T12:16:30Z</time>
      </trkpt>
      <trkpt lat="46.69191" lon="5.363">
        <ele>234.7</ele>
        <time>2014-07-04T12:16:49Z</time>
      </trkpt>
      <trkpt lat="46.69206" lon="5.36252">
        <ele>235.66</ele>
        <time>2014-07-04T12:17:04Z</time>
      </trkpt>
      <trkpt lat="46.69224" lon="5.362">
        <ele>237.1</ele>
        <time>2014-07-04T12:17:20Z</time>
      </trkpt>
      <trkpt lat="46.69237" lon="5.36156">
        <ele>237.58</ele>
        <time>2014-07-04T12:17:35Z</time>
      </trkpt>
      <trkpt lat="46.69238" lon="5.36152">
        <ele>237.58</ele>
        <time>2014-07-04T12:17:37Z</time>
      </trkpt>
      <trkpt lat="46.69244" lon="5.36136">
        <ele>237.58</ele>
        <time>2014-07-04T12:17:44Z</time>
      </trkpt>
      <trkpt lat="46.69269" lon="5.36062">
        <ele>237.1</ele>
        <time>2014-07-04T12:18:02Z</time>
      </trkpt>
      <trkpt lat="46.69307" lon="5.35946">
        <ele>236.62</ele>
        <time>2014-07-04T12:18:22Z</time>
      </trkpt>
      <trkpt lat="46.69329" lon="5.35883">
        <ele>237.58</ele>
        <time>2014-07-04T12:18:35Z</time>
      </trkpt>
      <trkpt lat="46.69361" lon="5.35827">
        <ele>238.06</ele>
        <time>2014-07-04T12:18:49Z</time>
      </trkpt>
      <trkpt lat="46.69388" lon="5.35809">
        <ele>238.06</ele>
        <time>2014-07-04T12:18:57Z</time>
      </trkpt>
      <trkpt lat="46.69414" lon="5.358">
        <ele>237.58</ele>
        <time>2014-07-04T12:19:03Z</time>
      </trkpt>
      <trkpt lat="46.69474" lon="5.35781">
        <ele>236.14</ele>
        <time>2014-07-04T12:19:14Z</time>
      </trkpt>
      <trkpt lat="46.69528" lon="5.35764">
        <ele>236.14</ele>
        <time>2014-07-04T12:19:24Z</time>
      </trkpt>
      <trkpt lat="46.69576" lon="5.35749">
        <ele>237.1</ele>
        <time>2014-07-04T12:19:36Z</time>
      </trkpt>
      <trkpt lat="46.6964" lon="5.35726">
        <ele>237.1</ele>
        <time>2014-07-04T12:19:52Z</time>
      </trkpt>
      <trkpt lat="46.6971" lon="5.35704">
        <ele>237.1</ele>
        <time>2014-07-04T12:20:09Z</time>
      </trkpt>
      <trkpt lat="46.69722" lon="5.35701">
        <ele>237.1</ele>
        <time>2014-07-04T12:20:12Z</time>
      </trkpt>
      <trkpt lat="46.69789" lon="5.3568">
        <ele>238.06</ele>
        <time>2014-07-04T12:20:29Z</time>
      </trkpt>
      <trkpt lat="46.69837" lon="5.35664">
        <ele>239.02</ele>
        <time>2014-07-04T12:20:45Z</time>
      </trkpt>
      <trkpt lat="46.69914" lon="5.35639">
        <ele>239.51</ele>
        <time>2014-07-04T12:21:06Z</time>
      </trkpt>
      <trkpt lat="46.69947" lon="5.35585">
        <ele>239.02</ele>
        <time>2014-07-04T12:21:19Z</time>
      </trkpt>
      <trkpt lat="46.69985" lon="5.35477">
        <ele>238.54</ele>
        <time>2014-07-04T12:21:39Z</time>
      </trkpt>
      <trkpt lat="46.69998" lon="5.35443">
        <ele>238.54</ele>
        <time>2014-07-04T12:21:45Z</time>
      </trkpt>
      <trkpt lat="46.70031" lon="5.35353">
        <ele>239.02</ele>
        <time>2014-07-04T12:22:01Z</time>
      </trkpt>
      <trkpt lat="46.70038" lon="5.35334">
        <ele>238.06</ele>
        <time>2014-07-04T12:22:04Z</time>
      </trkpt>
      <trkpt lat="46.70075" lon="5.35234">
        <ele>236.62</ele>
        <time>2014-07-04T12:22:19Z</time>
      </trkpt>
      <trkpt lat="46.7011" lon="5.35132">
        <ele>236.14</ele>
        <time>2014-07-04T12:22:34Z</time>
      </trkpt>
      <trkpt lat="46.7015" lon="5.35021">
        <ele>235.66</ele>
        <time>2014-07-04T12:22:51Z</time>
      </trkpt>
      <trkpt lat="46.70192" lon="5.34906">
        <ele>234.7</ele>
        <time>2014-07-04T12:23:07Z</time>
      </trkpt>
      <trkpt lat="46.70235" lon="5.34785">
        <ele>235.18</ele>
        <time>2014-07-04T12:23:24Z</time>
      </trkpt>
      <trkpt lat="46.70263" lon="5.34672">
        <ele>235.66</ele>
        <time>2014-07-04T12:23:41Z</time>
      </trkpt>
      <trkpt lat="46.70266" lon="5.34661">
        <ele>235.66</ele>
        <time>2014-07-04T12:23:43Z</time>
      </trkpt>
      <trkpt lat="46.70291" lon="5.34535">
        <ele>235.18</ele>
        <time>2014-07-04T12:24:03Z</time>
      </trkpt>
      <trkpt lat="46.70295" lon="5.34516">
        <ele>235.18</ele>
        <time>2014-07-04T12:24:06Z</time>
      </trkpt>
      <trkpt lat="46.70301" lon="5.34491">
        <ele>235.18</ele>
        <time>2014-07-04T12:24:10Z</time>
      </trkpt>
      <trkpt lat="46.7031" lon="5.34467">
        <ele>234.7</ele>
        <time>2014-07-04T12:24:14Z</time>
      </trkpt>
      <trkpt lat="46.7032" lon="5.34451">
        <ele>234.22</ele>
        <time>2014-07-04T12:24:17Z</time>
      </trkpt>
      <trkpt lat="46.70395" lon="5.34403">
        <ele>232.78</ele>
        <time>2014-07-04T12:24:32Z</time>
      </trkpt>
      <trkpt lat="46.70481" lon="5.3435">
        <ele>229.89</ele>
        <time>2014-07-04T12:24:48Z</time>
      </trkpt>
      <trkpt lat="46.70493" lon="5.34341">
        <ele>229.89</ele>
        <time>2014-07-04T12:24:50Z</time>
      </trkpt>
      <trkpt lat="46.70511" lon="5.34315">
        <ele>229.41</ele>
        <time>2014-07-04T12:24:54Z</time>
      </trkpt>
      <trkpt lat="46.70538" lon="5.34236">
        <ele>226.05</ele>
        <time>2014-07-04T12:25:02Z</time>
      </trkpt>
      <trkpt lat="46.70541" lon="5.34225">
        <ele>225.57</ele>
        <time>2014-07-04T12:25:03Z</time>
      </trkpt>
      <trkpt lat="46.70563" lon="5.34154">
        <ele>223.16</ele>
        <time>2014-07-04T12:25:09Z</time>
      </trkpt>
      <trkpt lat="46.70595" lon="5.34048">
        <ele>219.8</ele>
        <time>2014-07-04T12:25:18Z</time>
      </trkpt>
      <trkpt lat="46.70602" lon="5.34026">
        <ele>219.32</ele>
        <time>2014-07-04T12:25:20Z</time>
      </trkpt>
      <trkpt lat="46.70646" lon="5.3389">
        <ele>217.4</ele>
        <time>2014-07-04T12:25:34Z</time>
      </trkpt>
      <trkpt lat="46.70684" lon="5.33768">
        <ele>217.4</ele>
        <time>2014-07-04T12:25:50Z</time>
      </trkpt>
      <trkpt lat="46.7072" lon="5.3365">
        <ele>217.4</ele>
        <time>2014-07-04T12:26:08Z</time>
      </trkpt>
      <trkpt lat="46.70751" lon="5.3354">
        <ele>217.88</ele>
        <time>2014-07-04T12:26:26Z</time>
      </trkpt>
      <trkpt lat="46.70779" lon="5.33427">
        <ele>217.4</ele>
        <time>2014-07-04T12:26:45Z</time>
      </trkpt>
      <trkpt lat="46.70803" lon="5.33328">
        <ele>216.43</ele>
        <time>2014-07-04T12:27:01Z</time>
      </trkpt>
      <trkpt lat="46.70831" lon="5.33215">
        <ele>216.43</ele>
        <time>2014-07-04T12:27:21Z</time>
      </trkpt>
      <trkpt lat="46.70862" lon="5.33115">
        <ele>216.91</ele>
        <time>2014-07-04T12:27:40Z</time>
      </trkpt>
      <trkpt lat="46.70893" lon="5.3302">
        <ele>217.88</ele>
        <time>2014-07-04T12:27:59Z</time>
      </trkpt>
      <trkpt lat="46.70916" lon="5.32948">
        <ele>217.88</ele>
        <time>2014-07-04T12:28:14Z</time>
      </trkpt>
      <trkpt lat="46.70943" lon="5.32864">
        <ele>217.88</ele>
        <time>2014-07-04T12:28:31Z</time>
      </trkpt>
      <trkpt lat="46.70975" lon="5.32775">
        <ele>218.36</ele>
        <time>2014-07-04T12:28:50Z</time>
      </trkpt>
      <trkpt lat="46.71014" lon="5.32676">
        <ele>218.36</ele>
        <time>2014-07-04T12:29:11Z</time>
      </trkpt>
      <trkpt lat="46.71054" lon="5.32574">
        <ele>216.43</ele>
        <time>2014-07-04T12:29:30Z</time>
      </trkpt>
      <trkpt lat="46.71101" lon="5.32455">
        <ele>214.99</ele>
        <time>2014-07-04T12:29:50Z</time>
      </trkpt>
      <trkpt lat="46.71157" lon="5.32313">
        <ele>213.55</ele>
        <time>2014-07-04T12:30:11Z</time>
      </trkpt>
      <trkpt lat="46.7121" lon="5.32181">
        <ele>213.07</ele>
        <time>2014-07-04T12:30:32Z</time>
      </trkpt>
      <trkpt lat="46.71259" lon="5.32056">
        <ele>213.07</ele>
        <time>2014-07-04T12:30:53Z</time>
      </trkpt>
      <trkpt lat="46.71299" lon="5.31955">
        <ele>213.55</ele>
        <time>2014-07-04T12:31:12Z</time>
      </trkpt>
      <trkpt lat="46.71337" lon="5.31859">
        <ele>213.07</ele>
        <time>2014-07-04T12:31:30Z</time>
      </trkpt>
      <trkpt lat="46.71381" lon="5.31748">
        <ele>212.59</ele>
        <time>2014-07-04T12:31:50Z</time>
      </trkpt>
      <trkpt lat="46.71424" lon="5.31641">
        <ele>212.59</ele>
        <time>2014-07-04T12:32:08Z</time>
      </trkpt>
      <trkpt lat="46.71475" lon="5.31514">
        <ele>211.63</ele>
        <time>2014-07-04T12:32:31Z</time>
      </trkpt>
      <trkpt lat="46.71517" lon="5.31411">
        <ele>212.11</ele>
        <time>2014-07-04T12:32:52Z</time>
      </trkpt>
      <trkpt lat="46.71545" lon="5.3136">
        <ele>213.07</ele>
        <time>2014-07-04T12:33:07Z</time>
      </trkpt>
      <trkpt lat="46.71572" lon="5.31321">
        <ele>214.03</ele>
        <time>2014-07-04T12:33:24Z</time>
      </trkpt>
      <trkpt lat="46.71572" lon="5.31321">
        <ele>214.03</ele>
        <time>2014-07-04T12:33:41Z</time>
      </trkpt>
      <trkpt lat="46.71579" lon="5.3131">
        <ele>214.03</ele>
        <time>2014-07-04T12:33:47Z</time>
      </trkpt>
      <trkpt lat="46.71592" lon="5.31262">
        <ele>214.99</ele>
        <time>2014-07-04T12:34:01Z</time>
      </trkpt>
      <trkpt lat="46.71602" lon="5.31214">
        <ele>217.4</ele>
        <time>2014-07-04T12:34:17Z</time>
      </trkpt>
      <trkpt lat="46.71619" lon="5.31173">
        <ele>219.32</ele>
        <time>2014-07-04T12:34:33Z</time>
      </trkpt>
      <trkpt lat="46.7164" lon="5.31128">
        <ele>220.76</ele>
        <time>2014-07-04T12:34:50Z</time>
      </trkpt>
      <trkpt lat="46.71666" lon="5.31071">
        <ele>222.2</ele>
        <time>2014-07-04T12:35:10Z</time>
      </trkpt>
      <trkpt lat="46.71693" lon="5.31014">
        <ele>221.72</ele>
        <time>2014-07-04T12:35:26Z</time>
      </trkpt>
      <trkpt lat="46.71736" lon="5.30941">
        <ele>221.24</ele>
        <time>2014-07-04T12:35:46Z</time>
      </trkpt>
      <trkpt lat="46.71776" lon="5.3088">
        <ele>221.24</ele>
        <time>2014-07-04T12:36:03Z</time>
      </trkpt>
      <trkpt lat="46.71802" lon="5.30838">
        <ele>220.76</ele>
        <time>2014-07-04T12:36:18Z</time>
      </trkpt>
      <trkpt lat="46.71838" lon="5.30785">
        <ele>219.32</ele>
        <time>2014-07-04T12:36:35Z</time>
      </trkpt>
      <trkpt lat="46.71846" lon="5.30773">
        <ele>219.32</ele>
        <time>2014-07-04T12:36:38Z</time>
      </trkpt>
      <trkpt lat="46.71892" lon="5.30702">
        <ele>215.95</ele>
        <time>2014-07-04T12:36:50Z</time>
      </trkpt>
      <trkpt lat="46.71952" lon="5.30611">
        <ele>214.51</ele>
        <time>2014-07-04T12:37:02Z</time>
      </trkpt>
      <trkpt lat="46.72002" lon="5.30533">
        <ele>216.43</ele>
        <time>2014-07-04T12:37:15Z</time>
      </trkpt>
      <trkpt lat="46.72044" lon="5.30466">
        <ele>218.84</ele>
        <time>2014-07-04T12:37:33Z</time>
      </trkpt>
      <trkpt lat="46.72082" lon="5.30411">
        <ele>219.32</ele>
        <time>2014-07-04T12:37:50Z</time>
      </trkpt>
      <trkpt lat="46.72119" lon="5.30353">
        <ele>218.36</ele>
        <time>2014-07-04T12:38:05Z</time>
      </trkpt>
      <trkpt lat="46.72164" lon="5.30272">
        <ele>217.4</ele>
        <time>2014-07-04T12:38:20Z</time>
      </trkpt>
      <trkpt lat="46.72188" lon="5.30224">
        <ele>217.88</ele>
        <time>2014-07-04T12:38:28Z</time>
      </trkpt>
      <trkpt lat="46.72218" lon="5.30166">
        <ele>218.36</ele>
        <time>2014-07-04T12:38:42Z</time>
      </trkpt>
      <trkpt lat="46.72247" lon="5.30105">
        <ele>218.36</ele>
        <time>2014-07-04T12:38:54Z</time>
      </trkpt>
      <trkpt lat="46.72252" lon="5.30095">
        <ele>217.88</ele>
        <time>2014-07-04T12:38:56Z</time>
      </trkpt>
      <trkpt lat="46.72297" lon="5.30004">
        <ele>216.43</ele>
        <time>2014-07-04T12:39:14Z</time>
      </trkpt>
      <trkpt lat="46.72344" lon="5.29911">
        <ele>214.03</ele>
        <time>2014-07-04T12:39:29Z</time>
      </trkpt>
      <trkpt lat="46.72382" lon="5.29835">
        <ele>210.67</ele>
        <time>2014-07-04T12:39:38Z</time>
      </trkpt>
      <trkpt lat="46.72419" lon="5.29756">
        <ele>207.78</ele>
        <time>2014-07-04T12:39:46Z</time>
      </trkpt>
      <trkpt lat="46.72445" lon="5.29694">
        <ele>205.86</ele>
        <time>2014-07-04T12:39:52Z</time>
      </trkpt>
      <trkpt lat="46.72484" lon="5.29603">
        <ele>204.9</ele>
        <time>2014-07-04T12:40:02Z</time>
      </trkpt>
      <trkpt lat="46.72514" lon="5.2948">
        <ele>204.42</ele>
        <time>2014-07-04T12:40:17Z</time>
      </trkpt>
      <trkpt lat="46.72539" lon="5.29358">
        <ele>204.42</ele>
        <time>2014-07-04T12:40:35Z</time>
      </trkpt>
      <trkpt lat="46.72544" lon="5.29335">
        <ele>204.9</ele>
        <time>2014-07-04T12:40:39Z</time>
      </trkpt>
      <trkpt lat="46.72568" lon="5.2922">
        <ele>206.34</ele>
        <time>2014-07-04T12:40:59Z</time>
      </trkpt>
      <trkpt lat="46.72588" lon="5.29135">
        <ele>207.78</ele>
        <time>2014-07-04T12:41:17Z</time>
      </trkpt>
      <trkpt lat="46.72602" lon="5.29064">
        <ele>209.22</ele>
        <time>2014-07-04T12:41:33Z</time>
      </trkpt>
      <trkpt lat="46.7262" lon="5.29008">
        <ele>206.82</ele>
        <time>2014-07-04T12:41:46Z</time>
      </trkpt>
      <trkpt lat="46.72672" lon="5.2891">
        <ele>204.42</ele>
        <time>2014-07-04T12:42:00Z</time>
      </trkpt>
      <trkpt lat="46.72739" lon="5.28797">
        <ele>203.94</ele>
        <time>2014-07-04T12:42:17Z</time>
      </trkpt>
      <trkpt lat="46.72793" lon="5.28722">
        <ele>203.46</ele>
        <time>2014-07-04T12:42:32Z</time>
      </trkpt>
      <trkpt lat="46.72854" lon="5.28632">
        <ele>203.94</ele>
        <time>2014-07-04T12:42:50Z</time>
      </trkpt>
      <trkpt lat="46.72913" lon="5.28549">
        <ele>202.98</ele>
        <time>2014-07-04T12:43:05Z</time>
      </trkpt>
      <trkpt lat="46.72975" lon="5.28459">
        <ele>202.98</ele>
        <time>2014-07-04T12:43:22Z</time>
      </trkpt>
      <trkpt lat="46.73039" lon="5.28367">
        <ele>202.98</ele>
        <time>2014-07-04T12:43:40Z</time>
      </trkpt>
      <trkpt lat="46.73102" lon="5.28276">
        <ele>202.98</ele>
        <time>2014-07-04T12:43:58Z</time>
      </trkpt>
      <trkpt lat="46.73165" lon="5.28185">
        <ele>202.98</ele>
        <time>2014-07-04T12:44:16Z</time>
      </trkpt>
      <trkpt lat="46.7318" lon="5.28161">
        <ele>203.46</ele>
        <time>2014-07-04T12:44:21Z</time>
      </trkpt>
      <trkpt lat="46.73188" lon="5.28136">
        <ele>203.46</ele>
        <time>2014-07-04T12:44:25Z</time>
      </trkpt>
      <trkpt lat="46.73195" lon="5.28067">
        <ele>204.9</ele>
        <time>2014-07-04T12:44:39Z</time>
      </trkpt>
      <trkpt lat="46.73196" lon="5.28014">
        <ele>207.78</ele>
        <time>2014-07-04T12:44:56Z</time>
      </trkpt>
      <trkpt lat="46.73195" lon="5.27955">
        <ele>210.67</ele>
        <time>2014-07-04T12:45:16Z</time>
      </trkpt>
      <trkpt lat="46.73195" lon="5.27899">
        <ele>213.55</ele>
        <time>2014-07-04T12:45:34Z</time>
      </trkpt>
      <trkpt lat="46.73195" lon="5.2783">
        <ele>215.95</ele>
        <time>2014-07-04T12:45:55Z</time>
      </trkpt>
      <trkpt lat="46.73195" lon="5.27756">
        <ele>217.88</ele>
        <time>2014-07-04T12:46:16Z</time>
      </trkpt>
      <trkpt lat="46.73201" lon="5.27702">
        <ele>218.36</ele>
        <time>2014-07-04T12:46:32Z</time>
      </trkpt>
      <trkpt lat="46.73214" lon="5.27654">
        <ele>218.36</ele>
        <time>2014-07-04T12:46:49Z</time>
      </trkpt>
      <trkpt lat="46.73216" lon="5.27649">
        <ele>218.84</ele>
        <time>2014-07-04T12:46:51Z</time>
      </trkpt>
      <trkpt lat="46.73221" lon="5.2764">
        <ele>218.36</ele>
        <time>2014-07-04T12:46:55Z</time>
      </trkpt>
      <trkpt lat="46.73242" lon="5.27587">
        <ele>219.32</ele>
        <time>2014-07-04T12:47:13Z</time>
      </trkpt>
      <trkpt lat="46.73258" lon="5.27549">
        <ele>219.8</ele>
        <time>2014-07-04T12:47:27Z</time>
      </trkpt>
      <trkpt lat="46.73264" lon="5.27537">
        <ele>220.28</ele>
        <time>2014-07-04T12:47:38Z</time>
      </trkpt>
      <trkpt lat="46.73264" lon="5.27535">
        <ele>219.8</ele>
        <time>2014-07-04T12:47:59Z</time>
      </trkpt>
      <trkpt lat="46.73272" lon="5.27516">
        <ele>220.28</ele>
        <time>2014-07-04T12:48:07Z</time>
      </trkpt>
      <trkpt lat="46.733" lon="5.27449">
        <ele>221.24</ele>
        <time>2014-07-04T12:48:27Z</time>
      </trkpt>
      <trkpt lat="46.73336" lon="5.27388">
        <ele>221.72</ele>
        <time>2014-07-04T12:48:45Z</time>
      </trkpt>
      <trkpt lat="46.73373" lon="5.27327">
        <ele>222.2</ele>
        <time>2014-07-04T12:49:01Z</time>
      </trkpt>
      <trkpt lat="46.73387" lon="5.27273">
        <ele>222.2</ele>
        <time>2014-07-04T12:49:12Z</time>
      </trkpt>
      <trkpt lat="46.73395" lon="5.27233">
        <ele>221.72</ele>
        <time>2014-07-04T12:49:21Z</time>
      </trkpt>
      <trkpt lat="46.73382" lon="5.27232">
        <ele>221.24</ele>
        <time>2014-07-04T12:49:30Z</time>
      </trkpt>
      <trkpt lat="46.73381" lon="5.2723">
        <ele>221.24</ele>
        <time>2014-07-04T12:49:49Z</time>
      </trkpt>
      <trkpt lat="46.73377" lon="5.27235">
        <ele>221.24</ele>
        <time>2014-07-04T12:50:11Z</time>
      </trkpt>
      <trkpt lat="46.73376" lon="5.27232">
        <ele>219.8</ele>
        <time>2014-07-04T12:50:31Z</time>
      </trkpt>
      <trkpt lat="46.73377" lon="5.27232">
        <ele>221.24</ele>
        <time>2014-07-04T12:50:36Z</time>
      </trkpt>
      <trkpt lat="46.7338" lon="5.27231">
        <ele>221.24</ele>
        <time>2014-07-04T12:51:17Z</time>
      </trkpt>
      <trkpt lat="46.7338" lon="5.27233">
        <ele>221.24</ele>
        <time>2014-07-04T12:51:45Z</time>
      </trkpt>
      <trkpt lat="46.73384" lon="5.27231">
        <ele>220.76</ele>
        <time>2014-07-04T12:51:59Z</time>
      </trkpt>
      <trkpt lat="46.73385" lon="5.27228">
        <ele>220.76</ele>
        <time>2014-07-04T12:52:33Z</time>
      </trkpt>
      <trkpt lat="46.73383" lon="5.27228">
        <ele>220.28</ele>
        <time>2014-07-04T12:52:58Z</time>
      </trkpt>
      <trkpt lat="46.73382" lon="5.27229">
        <ele>220.28</ele>
        <time>2014-07-04T12:53:25Z</time>
      </trkpt>
      <trkpt lat="46.73383" lon="5.2723">
        <ele>219.8</ele>
        <time>2014-07-04T12:54:01Z</time>
      </trkpt>
      <trkpt lat="46.73383" lon="5.27231">
        <ele>219.8</ele>
        <time>2014-07-04T12:54:33Z</time>
      </trkpt>
      <trkpt lat="46.73383" lon="5.27227">
        <ele>219.8</ele>
        <time>2014-07-04T12:55:06Z</time>
      </trkpt>
      <trkpt lat="46.73382" lon="5.27222">
        <ele>219.8</ele>
        <time>2014-07-04T12:55:34Z</time>
      </trkpt>
      <trkpt lat="46.73383" lon="5.27225">
        <ele>219.8</ele>
        <time>2014-07-04T12:56:11Z</time>
      </trkpt>
      <trkpt lat="46.73383" lon="5.27225">
        <ele>219.8</ele>
        <time>2014-07-04T12:56:29Z</time>
      </trkpt>
      <trkpt lat="46.73383" lon="5.27228">
        <ele>219.8</ele>
        <time>2014-07-04T12:56:57Z</time>
      </trkpt>
      <trkpt lat="46.73383" lon="5.27228">
        <ele>219.32</ele>
        <time>2014-07-04T12:57:35Z</time>
      </trkpt>
      <trkpt lat="46.73379" lon="5.27232">
        <ele>219.8</ele>
        <time>2014-07-04T12:57:59Z</time>
      </trkpt>
      <trkpt lat="46.73377" lon="5.27232">
        <ele>219.8</ele>
        <time>2014-07-04T12:58:28Z</time>
      </trkpt>
      <trkpt lat="46.73378" lon="5.27232">
        <ele>219.32</ele>
        <time>2014-07-04T12:58:57Z</time>
      </trkpt>
      <trkpt lat="46.73379" lon="5.27231">
        <ele>219.32</ele>
        <time>2014-07-04T12:59:11Z</time>
      </trkpt>
      <trkpt lat="46.73379" lon="5.27231">
        <ele>219.8</ele>
        <time>2014-07-04T12:59:35Z</time>
      </trkpt>
      <trkpt lat="46.73378" lon="5.27229">
        <ele>219.8</ele>
        <time>2014-07-04T13:00:22Z</time>
      </trkpt>
      <trkpt lat="46.73379" lon="5.27231">
        <ele>218.84</ele>
        <time>2014-07-04T13:00:33Z</time>
      </trkpt>
      <trkpt lat="46.7338" lon="5.27229">
        <ele>218.84</ele>
        <time>2014-07-04T13:00:49Z</time>
      </trkpt>
      <trkpt lat="46.7338" lon="5.27231">
        <ele>218.84</ele>
        <time>2014-07-04T13:01:16Z</time>
      </trkpt>
      <trkpt lat="46.7338" lon="5.27229">
        <ele>219.8</ele>
        <time>2014-07-04T13:01:57Z</time>
      </trkpt>
      <trkpt lat="46.73381" lon="5.27228">
        <ele>218.84</ele>
        <time>2014-07-04T13:02:28Z</time>
      </trkpt>
      <trkpt lat="46.73379" lon="5.27226">
        <ele>218.84</ele>
        <time>2014-07-04T13:02:57Z</time>
      </trkpt>
      <trkpt lat="46.73381" lon="5.27228">
        <ele>218.36</ele>
        <time>2014-07-04T13:03:20Z</time>
      </trkpt>
      <trkpt lat="46.73383" lon="5.27228">
        <ele>218.84</ele>
        <time>2014-07-04T13:03:39Z</time>
      </trkpt>
      <trkpt lat="46.73382" lon="5.27228">
        <ele>218.36</ele>
        <time>2014-07-04T13:03:53Z</time>
      </trkpt>
      <trkpt lat="46.73383" lon="5.27227">
        <ele>218.36</ele>
        <time>2014-07-04T13:04:24Z</time>
      </trkpt>
      <trkpt lat="46.73382" lon="5.2723">
        <ele>218.36</ele>
        <time>2014-07-04T13:05:01Z</time>
      </trkpt>
      <trkpt lat="46.7338" lon="5.2723">
        <ele>217.88</ele>
        <time>2014-07-04T13:05:29Z</time>
      </trkpt>
      <trkpt lat="46.73384" lon="5.2723">
        <ele>217.88</ele>
        <time>2014-07-04T13:05:54Z</time>
      </trkpt>
      <trkpt lat="46.73385" lon="5.2723">
        <ele>217.88</ele>
        <time>2014-07-04T13:05:55Z</time>
      </trkpt>
      <trkpt lat="46.73387" lon="5.2723">
        <ele>218.36</ele>
        <time>2014-07-04T13:05:57Z</time>
      </trkpt>
      <trkpt lat="46.73392" lon="5.27231">
        <ele>218.36</ele>
        <time>2014-07-04T13:06:04Z</time>
      </trkpt>
      <trkpt lat="46.73394" lon="5.27231">
        <ele>218.36</ele>
        <time>2014-07-04T13:06:06Z</time>
      </trkpt>
      <trkpt lat="46.73399" lon="5.27216">
        <ele>218.36</ele>
        <time>2014-07-04T13:06:12Z</time>
      </trkpt>
      <trkpt lat="46.73409" lon="5.27161">
        <ele>218.36</ele>
        <time>2014-07-04T13:06:26Z</time>
      </trkpt>
      <trkpt lat="46.73418" lon="5.27072">
        <ele>218.36</ele>
        <time>2014-07-04T13:06:44Z</time>
      </trkpt>
      <trkpt lat="46.73409" lon="5.2698">
        <ele>218.84</ele>
        <time>2014-07-04T13:07:00Z</time>
      </trkpt>
      <trkpt lat="46.73395" lon="5.26859">
        <ele>218.84</ele>
        <time>2014-07-04T13:07:20Z</time>
      </trkpt>
      <trkpt lat="46.73391" lon="5.26753">
        <ele>218.36</ele>
        <time>2014-07-04T13:07:37Z</time>
      </trkpt>
      <trkpt lat="46.73417" lon="5.26629">
        <ele>218.84</ele>
        <time>2014-07-04T13:07:58Z</time>
      </trkpt>
      <trkpt lat="46.73445" lon="5.26518">
        <ele>218.84</ele>
        <time>2014-07-04T13:08:17Z</time>
      </trkpt>
      <trkpt lat="46.7348" lon="5.26389">
        <ele>218.84</ele>
        <time>2014-07-04T13:08:37Z</time>
      </trkpt>
      <trkpt lat="46.73514" lon="5.26259">
        <ele>218.84</ele>
        <time>2014-07-04T13:08:57Z</time>
      </trkpt>
      <trkpt lat="46.73545" lon="5.26139">
        <ele>220.28</ele>
        <time>2014-07-04T13:09:16Z</time>
      </trkpt>
      <trkpt lat="46.73564" lon="5.26045">
        <ele>221.72</ele>
        <time>2014-07-04T13:09:33Z</time>
      </trkpt>
      <trkpt lat="46.73587" lon="5.25929">
        <ele>221.72</ele>
        <time>2014-07-04T13:09:53Z</time>
      </trkpt>
      <trkpt lat="46.73613" lon="5.25799">
        <ele>220.76</ele>
        <time>2014-07-04T13:10:11Z</time>
      </trkpt>
      <trkpt lat="46.73636" lon="5.25682">
        <ele>221.72</ele>
        <time>2014-07-04T13:10:28Z</time>
      </trkpt>
      <trkpt lat="46.73668" lon="5.25568">
        <ele>222.2</ele>
        <time>2014-07-04T13:10:48Z</time>
      </trkpt>
      <trkpt lat="46.73674" lon="5.25553">
        <ele>222.2</ele>
        <time>2014-07-04T13:10:51Z</time>
      </trkpt>
      <trkpt lat="46.73715" lon="5.25442">
        <ele>222.2</ele>
        <time>2014-07-04T13:11:11Z</time>
      </trkpt>
      <trkpt lat="46.7374" lon="5.25374">
        <ele>222.68</ele>
        <time>2014-07-04T13:11:23Z</time>
      </trkpt>
      <trkpt lat="46.73747" lon="5.25332">
        <ele>222.2</ele>
        <time>2014-07-04T13:11:30Z</time>
      </trkpt>
      <trkpt lat="46.73759" lon="5.25292">
        <ele>223.16</ele>
        <time>2014-07-04T13:11:39Z</time>
      </trkpt>
      <trkpt lat="46.73834" lon="5.25263">
        <ele>222.68</ele>
        <time>2014-07-04T13:11:57Z</time>
      </trkpt>
      <trkpt lat="46.73905" lon="5.25224">
        <ele>222.68</ele>
        <time>2014-07-04T13:12:14Z</time>
      </trkpt>
      <trkpt lat="46.73976" lon="5.25182">
        <ele>223.16</ele>
        <time>2014-07-04T13:12:32Z</time>
      </trkpt>
      <trkpt lat="46.74017" lon="5.25161">
        <ele>223.64</ele>
        <time>2014-07-04T13:12:44Z</time>
      </trkpt>
      <trkpt lat="46.74031" lon="5.25151">
        <ele>223.64</ele>
        <time>2014-07-04T13:12:48Z</time>
      </trkpt>
      <trkpt lat="46.74087" lon="5.25073">
        <ele>223.64</ele>
        <time>2014-07-04T13:13:07Z</time>
      </trkpt>
      <trkpt lat="46.74089" lon="5.25069">
        <ele>223.64</ele>
        <time>2014-07-04T13:13:08Z</time>
      </trkpt>
      <trkpt lat="46.74141" lon="5.24981">
        <ele>223.16</ele>
        <time>2014-07-04T13:13:26Z</time>
      </trkpt>
      <trkpt lat="46.7419" lon="5.24896">
        <ele>223.16</ele>
        <time>2014-07-04T13:13:43Z</time>
      </trkpt>
      <trkpt lat="46.74198" lon="5.24882">
        <ele>223.16</ele>
        <time>2014-07-04T13:13:46Z</time>
      </trkpt>
      <trkpt lat="46.74254" lon="5.24811">
        <ele>222.68</ele>
        <time>2014-07-04T13:14:03Z</time>
      </trkpt>
      <trkpt lat="46.74307" lon="5.24758">
        <ele>222.68</ele>
        <time>2014-07-04T13:14:18Z</time>
      </trkpt>
      <trkpt lat="46.74318" lon="5.24748">
        <ele>222.68</ele>
        <time>2014-07-04T13:14:21Z</time>
      </trkpt>
      <trkpt lat="46.74336" lon="5.24732">
        <ele>222.68</ele>
        <time>2014-07-04T13:14:26Z</time>
      </trkpt>
      <trkpt lat="46.74406" lon="5.24678">
        <ele>222.68</ele>
        <time>2014-07-04T13:14:45Z</time>
      </trkpt>
      <trkpt lat="46.74467" lon="5.24631">
        <ele>222.68</ele>
        <time>2014-07-04T13:15:02Z</time>
      </trkpt>
      <trkpt lat="46.74525" lon="5.24608">
        <ele>221.72</ele>
        <time>2014-07-04T13:15:15Z</time>
      </trkpt>
      <trkpt lat="46.74545" lon="5.24608">
        <ele>221.72</ele>
        <time>2014-07-04T13:15:19Z</time>
      </trkpt>
      <trkpt lat="46.74569" lon="5.24615">
        <ele>221.24</ele>
        <time>2014-07-04T13:15:24Z</time>
      </trkpt>
      <trkpt lat="46.74633" lon="5.24624">
        <ele>220.28</ele>
        <time>2014-07-04T13:15:39Z</time>
      </trkpt>
      <trkpt lat="46.74663" lon="5.2462">
        <ele>219.8</ele>
        <time>2014-07-04T13:15:51Z</time>
      </trkpt>
      <trkpt lat="46.74666" lon="5.24622">
        <ele>219.32</ele>
        <time>2014-07-04T13:16:06Z</time>
      </trkpt>
      <trkpt lat="46.74665" lon="5.24623">
        <ele>219.32</ele>
        <time>2014-07-04T13:16:38Z</time>
      </trkpt>
      <trkpt lat="46.74665" lon="5.24623">
        <ele>219.32</ele>
        <time>2014-07-04T13:16:56Z</time>
      </trkpt>
      <trkpt lat="46.74691" lon="5.24615">
        <ele>217.88</ele>
        <time>2014-07-04T13:17:07Z</time>
      </trkpt>
      <trkpt lat="46.747" lon="5.24609">
        <ele>217.88</ele>
        <time>2014-07-04T13:17:12Z</time>
      </trkpt>
      <trkpt lat="46.74701" lon="5.24606">
        <ele>217.88</ele>
        <time>2014-07-04T13:17:26Z</time>
      </trkpt>
      <trkpt lat="46.74704" lon="5.24608">
        <ele>217.88</ele>
        <time>2014-07-04T13:17:51Z</time>
      </trkpt>
      <trkpt lat="46.74709" lon="5.24637">
        <ele>217.88</ele>
        <time>2014-07-04T13:18:10Z</time>
      </trkpt>
      <trkpt lat="46.74706" lon="5.24641">
        <ele>217.88</ele>
        <time>2014-07-04T13:18:15Z</time>
      </trkpt>
      <trkpt lat="46.74698" lon="5.24669">
        <ele>216.91</ele>
        <time>2014-07-04T13:18:33Z</time>
      </trkpt>
      <trkpt lat="46.74695" lon="5.24677">
        <ele>216.91</ele>
        <time>2014-07-04T13:18:50Z</time>
      </trkpt>
      <trkpt lat="46.74693" lon="5.24684">
        <ele>216.91</ele>
        <time>2014-07-04T13:18:54Z</time>
      </trkpt>
      <trkpt lat="46.7469" lon="5.24708">
        <ele>216.43</ele>
        <time>2014-07-04T13:19:10Z</time>
      </trkpt>
      <trkpt lat="46.74692" lon="5.24717">
        <ele>215.95</ele>
        <time>2014-07-04T13:19:25Z</time>
      </trkpt>
      <trkpt lat="46.7469" lon="5.24724">
        <ele>216.43</ele>
        <time>2014-07-04T13:19:41Z</time>
      </trkpt>
      <trkpt lat="46.74691" lon="5.24722">
        <ele>215.47</ele>
        <time>2014-07-04T13:19:58Z</time>
      </trkpt>
      <trkpt lat="46.7469" lon="5.24725">
        <ele>211.15</ele>
        <time>2014-07-04T20:18:40Z</time>
      </trkpt>
      <trkpt lat="46.74685" lon="5.24743">
        <ele>210.67</ele>
        <time>2014-07-04T20:18:47Z</time>
      </trkpt>
      <trkpt lat="46.74685" lon="5.24744">
        <ele>221.24</ele>
        <time>2014-07-04T20:18:48Z</time>
      </trkpt>
      <trkpt lat="46.74685" lon="5.24743">
        <ele>219.8</ele>
        <time>2014-07-04T20:18:49Z</time>
      </trkpt>
      <trkpt lat="46.74691" lon="5.24727">
        <ele>216.91</ele>
        <time>2014-07-04T20:19:14Z</time>
      </trkpt>
      <trkpt lat="46.74688" lon="5.2473">
        <ele>213.55</ele>
        <time>2014-07-04T20:19:26Z</time>
      </trkpt>
      <trkpt lat="46.74686" lon="5.24732">
        <ele>212.11</ele>
        <time>2014-07-04T20:19:59Z</time>
      </trkpt>
      <trkpt lat="46.74685" lon="5.24732">
        <ele>210.67</ele>
        <time>2014-07-04T20:20:02Z</time>
      </trkpt>
      <trkpt lat="46.74685" lon="5.24731">
        <ele>212.59</ele>
        <time>2014-07-04T20:20:13Z</time>
      </trkpt>
      <trkpt lat="46.74685" lon="5.24736">
        <ele>212.11</ele>
        <time>2014-07-04T20:20:44Z</time>
      </trkpt>
      <trkpt lat="46.74685" lon="5.24733">
        <ele>212.11</ele>
        <time>2014-07-04T20:21:01Z</time>
      </trkpt>
      <trkpt lat="46.74685" lon="5.24732">
        <ele>212.11</ele>
        <time>2014-07-04T20:21:02Z</time>
      </trkpt>
      <trkpt lat="46.74685" lon="5.24737">
        <ele>211.15</ele>
        <time>2014-07-05T05:00:06Z</time>
      </trkpt>
      <trkpt lat="46.74672" lon="5.24724">
        <ele>210.67</ele>
        <time>2014-07-05T05:00:13Z</time>
      </trkpt>
      <trkpt lat="46.74673" lon="5.24726">
        <ele>203.94</ele>
        <time>2014-07-05T05:00:14Z</time>
      </trkpt>
      <trkpt lat="46.74675" lon="5.24727">
        <ele>202.01</ele>
        <time>2014-07-05T05:00:16Z</time>
      </trkpt>
      <trkpt lat="46.74695" lon="5.24731">
        <ele>203.94</ele>
        <time>2014-07-05T05:00:50Z</time>
      </trkpt>
      <trkpt lat="46.74695" lon="5.2473">
        <ele>203.94</ele>
        <time>2014-07-05T05:00:52Z</time>
      </trkpt>
      <trkpt lat="46.74694" lon="5.24735">
        <ele>202.01</ele>
        <time>2014-07-05T05:10:19Z</time>
      </trkpt>
      <trkpt lat="46.74694" lon="5.24725">
        <ele>202.01</ele>
        <time>2014-07-05T05:10:20Z</time>
      </trkpt>
      <trkpt lat="46.74692" lon="5.24724">
        <ele>202.98</ele>
        <time>2014-07-05T05:10:42Z</time>
      </trkpt>
      <trkpt lat="46.74694" lon="5.24735">
        <ele>213.55</ele>
        <time>2014-07-05T07:21:07Z</time>
      </trkpt>
      <trkpt lat="46.74687" lon="5.24614">
        <ele>202.01</ele>
        <time>2014-07-05T07:21:13Z</time>
      </trkpt>
      <trkpt lat="46.74686" lon="5.24613">
        <ele>200.57</ele>
        <time>2014-07-05T07:21:15Z</time>
      </trkpt>
      <trkpt lat="46.74686" lon="5.24611">
        <ele>203.94</ele>
        <time>2014-07-05T07:21:25Z</time>
      </trkpt>
      <trkpt lat="46.74687" lon="5.2461">
        <ele>203.94</ele>
        <time>2014-07-05T07:21:26Z</time>
      </trkpt>
      <trkpt lat="46.74693" lon="5.24599">
        <ele>207.3</ele>
        <time>2014-07-05T07:21:45Z</time>
      </trkpt>
      <trkpt lat="46.74691" lon="5.24602">
        <ele>206.82</ele>
        <time>2014-07-05T07:22:18Z</time>
      </trkpt>
      <trkpt lat="46.7469" lon="5.24604">
        <ele>206.82</ele>
        <time>2014-07-05T07:22:48Z</time>
      </trkpt>
      <trkpt lat="46.74689" lon="5.24604">
        <ele>207.3</ele>
        <time>2014-07-05T07:23:27Z</time>
      </trkpt>
      <trkpt lat="46.7469" lon="5.24602">
        <ele>207.3</ele>
        <time>2014-07-05T07:23:59Z</time>
      </trkpt>
      <trkpt lat="46.74691" lon="5.24602">
        <ele>207.3</ele>
        <time>2014-07-05T07:24:31Z</time>
      </trkpt>
      <trkpt lat="46.74689" lon="5.24604">
        <ele>207.3</ele>
        <time>2014-07-05T07:25:21Z</time>
      </trkpt>
      <trkpt lat="46.74689" lon="5.24605">
        <ele>207.3</ele>
        <time>2014-07-05T07:26:04Z</time>
      </trkpt>
      <trkpt lat="46.74688" lon="5.24604">
        <ele>207.3</ele>
        <time>2014-07-05T07:26:47Z</time>
      </trkpt>
      <trkpt lat="46.74687" lon="5.24605">
        <ele>207.3</ele>
        <time>2014-07-05T07:27:28Z</time>
      </trkpt>
      <trkpt lat="46.74687" lon="5.24601">
        <ele>214.99</ele>
        <time>2014-07-05T07:27:50Z</time>
      </trkpt>
      <trkpt lat="46.74687" lon="5.24601">
        <ele>214.99</ele>
        <time>2014-07-05T07:27:51Z</time>
      </trkpt>
      <trkpt lat="46.74689" lon="5.24608">
        <ele>214.03</ele>
        <time>2014-07-05T07:28:00Z</time>
      </trkpt>
      <trkpt lat="46.74684" lon="5.24613">
        <ele>214.03</ele>
        <time>2014-07-05T07:28:05Z</time>
      </trkpt>
      <trkpt lat="46.74674" lon="5.24615">
        <ele>214.51</ele>
        <time>2014-07-05T07:28:19Z</time>
      </trkpt>
      <trkpt lat="46.74672" lon="5.24613">
        <ele>214.51</ele>
        <time>2014-07-05T07:28:22Z</time>
      </trkpt>
      <trkpt lat="46.74671" lon="5.24606">
        <ele>214.51</ele>
        <time>2014-07-05T07:28:26Z</time>
      </trkpt>
      <trkpt lat="46.74667" lon="5.24604">
        <ele>214.99</ele>
        <time>2014-07-05T07:28:35Z</time>
      </trkpt>
      <trkpt lat="46.7467" lon="5.24604">
        <ele>214.99</ele>
        <time>2014-07-05T07:28:45Z</time>
      </trkpt>
      <trkpt lat="46.74671" lon="5.24601">
        <ele>214.99</ele>
        <time>2014-07-05T07:28:53Z</time>
      </trkpt>
      <trkpt lat="46.74681" lon="5.24596">
        <ele>214.51</ele>
        <time>2014-07-05T07:29:00Z</time>
      </trkpt>
      <trkpt lat="46.74712" lon="5.24572">
        <ele>213.55</ele>
        <time>2014-07-05T07:29:14Z</time>
      </trkpt>
      <trkpt lat="46.74757" lon="5.2454">
        <ele>211.63</ele>
        <time>2014-07-05T07:29:27Z</time>
      </trkpt>
      <trkpt lat="46.74832" lon="5.24495">
        <ele>211.15</ele>
        <time>2014-07-05T07:29:43Z</time>
      </trkpt>
      <trkpt lat="46.7488" lon="5.24476">
        <ele>213.07</ele>
        <time>2014-07-05T07:29:57Z</time>
      </trkpt>
      <trkpt lat="46.74939" lon="5.24461">
        <ele>214.99</ele>
        <time>2014-07-05T07:30:15Z</time>
      </trkpt>
      <trkpt lat="46.74991" lon="5.24446">
        <ele>216.91</ele>
        <time>2014-07-05T07:30:33Z</time>
      </trkpt>
      <trkpt lat="46.75042" lon="5.24421">
        <ele>218.36</ele>
        <time>2014-07-05T07:30:51Z</time>
      </trkpt>
      <trkpt lat="46.75095" lon="5.24374">
        <ele>219.32</ele>
        <time>2014-07-05T07:31:11Z</time>
      </trkpt>
      <trkpt lat="46.75144" lon="5.2435">
        <ele>220.28</ele>
        <time>2014-07-05T07:31:28Z</time>
      </trkpt>
      <trkpt lat="46.75195" lon="5.24333">
        <ele>219.8</ele>
        <time>2014-07-05T07:31:44Z</time>
      </trkpt>
      <trkpt lat="46.75235" lon="5.24325">
        <ele>219.8</ele>
        <time>2014-07-05T07:31:57Z</time>
      </trkpt>
      <trkpt lat="46.75252" lon="5.24325">
        <ele>219.8</ele>
        <time>2014-07-05T07:32:05Z</time>
      </trkpt>
      <trkpt lat="46.75261" lon="5.24325">
        <ele>219.8</ele>
        <time>2014-07-05T07:32:18Z</time>
      </trkpt>
      <trkpt lat="46.7527" lon="5.24306">
        <ele>219.32</ele>
        <time>2014-07-05T07:32:25Z</time>
      </trkpt>
      <trkpt lat="46.75292" lon="5.24213">
        <ele>218.36</ele>
        <time>2014-07-05T07:32:43Z</time>
      </trkpt>
      <trkpt lat="46.75316" lon="5.24109">
        <ele>217.4</ele>
        <time>2014-07-05T07:33:02Z</time>
      </trkpt>
      <trkpt lat="46.75322" lon="5.24087">
        <ele>216.91</ele>
        <time>2014-07-05T07:33:06Z</time>
      </trkpt>
      <trkpt lat="46.75358" lon="5.24008">
        <ele>215.47</ele>
        <time>2014-07-05T07:33:23Z</time>
      </trkpt>
      <trkpt lat="46.75406" lon="5.23953">
        <ele>214.03</ele>
        <time>2014-07-05T07:33:40Z</time>
      </trkpt>
      <trkpt lat="46.7542" lon="5.23944">
        <ele>214.03</ele>
        <time>2014-07-05T07:33:52Z</time>
      </trkpt>
      <trkpt lat="46.75421" lon="5.23946">
        <ele>214.03</ele>
        <time>2014-07-05T07:34:08Z</time>
      </trkpt>
      <trkpt lat="46.75424" lon="5.23948">
        <ele>214.03</ele>
        <time>2014-07-05T07:34:29Z</time>
      </trkpt>
      <trkpt lat="46.75422" lon="5.23945">
        <ele>214.03</ele>
        <time>2014-07-05T07:34:56Z</time>
      </trkpt>
      <trkpt lat="46.75422" lon="5.23943">
        <ele>214.03</ele>
        <time>2014-07-05T07:35:24Z</time>
      </trkpt>
      <trkpt lat="46.75421" lon="5.23941">
        <ele>214.03</ele>
        <time>2014-07-05T07:35:51Z</time>
      </trkpt>
      <trkpt lat="46.75421" lon="5.23943">
        <ele>214.03</ele>
        <time>2014-07-05T07:36:22Z</time>
      </trkpt>
      <trkpt lat="46.75422" lon="5.23943">
        <ele>214.03</ele>
        <time>2014-07-05T07:36:45Z</time>
      </trkpt>
      <trkpt lat="46.75424" lon="5.23946">
        <ele>214.03</ele>
        <time>2014-07-05T07:37:11Z</time>
      </trkpt>
      <trkpt lat="46.75425" lon="5.23946">
        <ele>214.51</ele>
        <time>2014-07-05T07:37:28Z</time>
      </trkpt>
      <trkpt lat="46.75444" lon="5.23916">
        <ele>214.03</ele>
        <time>2014-07-05T07:37:41Z</time>
      </trkpt>
      <trkpt lat="46.75478" lon="5.2388">
        <ele>214.03</ele>
        <time>2014-07-05T07:37:54Z</time>
      </trkpt>
      <trkpt lat="46.75541" lon="5.2381">
        <ele>214.51</ele>
        <time>2014-07-05T07:38:14Z</time>
      </trkpt>
      <trkpt lat="46.75612" lon="5.23731">
        <ele>214.03</ele>
        <time>2014-07-05T07:38:35Z</time>
      </trkpt>
      <trkpt lat="46.75694" lon="5.23645">
        <ele>213.55</ele>
        <time>2014-07-05T07:38:56Z</time>
      </trkpt>
      <trkpt lat="46.75781" lon="5.23551">
        <ele>212.11</ele>
        <time>2014-07-05T07:39:17Z</time>
      </trkpt>
      <trkpt lat="46.75871" lon="5.23453">
        <ele>212.11</ele>
        <time>2014-07-05T07:39:39Z</time>
      </trkpt>
      <trkpt lat="46.75936" lon="5.2338">
        <ele>212.11</ele>
        <time>2014-07-05T07:39:56Z</time>
      </trkpt>
      <trkpt lat="46.76011" lon="5.23299">
        <ele>211.15</ele>
        <time>2014-07-05T07:40:15Z</time>
      </trkpt>
      <trkpt lat="46.76103" lon="5.23197">
        <ele>208.74</ele>
        <time>2014-07-05T07:40:34Z</time>
      </trkpt>
      <trkpt lat="46.76214" lon="5.23076">
        <ele>205.86</ele>
        <time>2014-07-05T07:40:56Z</time>
      </trkpt>
      <trkpt lat="46.76294" lon="5.22989">
        <ele>205.86</ele>
        <time>2014-07-05T07:41:13Z</time>
      </trkpt>
      <trkpt lat="46.76364" lon="5.22912">
        <ele>207.3</ele>
        <time>2014-07-05T07:41:33Z</time>
      </trkpt>
      <trkpt lat="46.76432" lon="5.22838">
        <ele>208.74</ele>
        <time>2014-07-05T07:41:56Z</time>
      </trkpt>
      <trkpt lat="46.76491" lon="5.22775">
        <ele>208.74</ele>
        <time>2014-07-05T07:42:12Z</time>
      </trkpt>
      <trkpt lat="46.76556" lon="5.22702">
        <ele>209.22</ele>
        <time>2014-07-05T07:42:29Z</time>
      </trkpt>
      <trkpt lat="46.76627" lon="5.22621">
        <ele>210.19</ele>
        <time>2014-07-05T07:42:50Z</time>
      </trkpt>
      <trkpt lat="46.76711" lon="5.2252">
        <ele>210.67</ele>
        <time>2014-07-05T07:43:16Z</time>
      </trkpt>
      <trkpt lat="46.76788" lon="5.22427">
        <ele>209.7</ele>
        <time>2014-07-05T07:43:37Z</time>
      </trkpt>
      <trkpt lat="46.76869" lon="5.22329">
        <ele>208.26</ele>
        <time>2014-07-05T07:43:57Z</time>
      </trkpt>
      <trkpt lat="46.76941" lon="5.22243">
        <ele>204.9</ele>
        <time>2014-07-05T07:44:11Z</time>
      </trkpt>
      <trkpt lat="46.77034" lon="5.22132">
        <ele>202.98</ele>
        <time>2014-07-05T07:44:28Z</time>
      </trkpt>
      <trkpt lat="46.77118" lon="5.22032">
        <ele>203.46</ele>
        <time>2014-07-05T07:44:48Z</time>
      </trkpt>
      <trkpt lat="46.772" lon="5.21933">
        <ele>205.86</ele>
        <time>2014-07-05T07:45:11Z</time>
      </trkpt>
      <trkpt lat="46.7724" lon="5.21887">
        <ele>208.26</ele>
        <time>2014-07-05T07:45:26Z</time>
      </trkpt>
      <trkpt lat="46.7729" lon="5.21828">
        <ele>209.7</ele>
        <time>2014-07-05T07:45:45Z</time>
      </trkpt>
      <trkpt lat="46.77361" lon="5.21748">
        <ele>209.22</ele>
        <time>2014-07-05T07:46:07Z</time>
      </trkpt>
      <trkpt lat="46.77446" lon="5.21652">
        <ele>206.34</ele>
        <time>2014-07-05T07:46:25Z</time>
      </trkpt>
      <trkpt lat="46.77471" lon="5.21624">
        <ele>205.38</ele>
        <time>2014-07-05T07:46:29Z</time>
      </trkpt>
      <trkpt lat="46.77581" lon="5.21502">
        <ele>202.01</ele>
        <time>2014-07-05T07:46:47Z</time>
      </trkpt>
      <trkpt lat="46.77656" lon="5.2142">
        <ele>203.46</ele>
        <time>2014-07-05T07:47:03Z</time>
      </trkpt>
      <trkpt lat="46.77717" lon="5.21353">
        <ele>205.38</ele>
        <time>2014-07-05T07:47:21Z</time>
      </trkpt>
      <trkpt lat="46.77763" lon="5.213">
        <ele>207.3</ele>
        <time>2014-07-05T07:47:38Z</time>
      </trkpt>
      <trkpt lat="46.77813" lon="5.21243">
        <ele>208.26</ele>
        <time>2014-07-05T07:47:56Z</time>
      </trkpt>
      <trkpt lat="46.77878" lon="5.21172">
        <ele>207.78</ele>
        <time>2014-07-05T07:48:14Z</time>
      </trkpt>
      <trkpt lat="46.77958" lon="5.21082">
        <ele>204.9</ele>
        <time>2014-07-05T07:48:30Z</time>
      </trkpt>
      <trkpt lat="46.78053" lon="5.20976">
        <ele>204.42</ele>
        <time>2014-07-05T07:48:49Z</time>
      </trkpt>
      <trkpt lat="46.78132" lon="5.20889">
        <ele>204.9</ele>
        <time>2014-07-05T07:49:07Z</time>
      </trkpt>
      <trkpt lat="46.78222" lon="5.20788">
        <ele>205.38</ele>
        <time>2014-07-05T07:49:29Z</time>
      </trkpt>
      <trkpt lat="46.78281" lon="5.20722">
        <ele>206.34</ele>
        <time>2014-07-05T07:49:45Z</time>
      </trkpt>
      <trkpt lat="46.78346" lon="5.20657">
        <ele>206.82</ele>
        <time>2014-07-05T07:50:02Z</time>
      </trkpt>
      <trkpt lat="46.78448" lon="5.2057">
        <ele>204.42</ele>
        <time>2014-07-05T07:50:23Z</time>
      </trkpt>
      <trkpt lat="46.78549" lon="5.20479">
        <ele>203.46</ele>
        <time>2014-07-05T07:50:42Z</time>
      </trkpt>
      <trkpt lat="46.78625" lon="5.2041">
        <ele>204.9</ele>
        <time>2014-07-05T07:51:00Z</time>
      </trkpt>
      <trkpt lat="46.78714" lon="5.20324">
        <ele>203.94</ele>
        <time>2014-07-05T07:51:20Z</time>
      </trkpt>
      <trkpt lat="46.78803" lon="5.2024">
        <ele>202.49</ele>
        <time>2014-07-05T07:51:37Z</time>
      </trkpt>
      <trkpt lat="46.78902" lon="5.20146">
        <ele>202.49</ele>
        <time>2014-07-05T07:51:59Z</time>
      </trkpt>
      <trkpt lat="46.78995" lon="5.20055">
        <ele>203.46</ele>
        <time>2014-07-05T07:52:22Z</time>
      </trkpt>
      <trkpt lat="46.79074" lon="5.19978">
        <ele>203.94</ele>
        <time>2014-07-05T07:52:42Z</time>
      </trkpt>
      <trkpt lat="46.7916" lon="5.19895">
        <ele>202.98</ele>
        <time>2014-07-05T07:53:02Z</time>
      </trkpt>
      <trkpt lat="46.79274" lon="5.19787">
        <ele>201.53</ele>
        <time>2014-07-05T07:53:25Z</time>
      </trkpt>
      <trkpt lat="46.7936" lon="5.19705">
        <ele>202.49</ele>
        <time>2014-07-05T07:53:44Z</time>
      </trkpt>
      <trkpt lat="46.7944" lon="5.19628">
        <ele>203.94</ele>
        <time>2014-07-05T07:54:04Z</time>
      </trkpt>
      <trkpt lat="46.79529" lon="5.19542">
        <ele>203.46</ele>
        <time>2014-07-05T07:54:26Z</time>
      </trkpt>
      <trkpt lat="46.79619" lon="5.19455">
        <ele>202.98</ele>
        <time>2014-07-05T07:54:46Z</time>
      </trkpt>
      <trkpt lat="46.79667" lon="5.19408">
        <ele>201.05</ele>
        <time>2014-07-05T07:54:56Z</time>
      </trkpt>
      <trkpt lat="46.7969" lon="5.19387">
        <ele>200.57</ele>
        <time>2014-07-05T07:55:01Z</time>
      </trkpt>
      <trkpt lat="46.79766" lon="5.19314">
        <ele>199.61</ele>
        <time>2014-07-05T07:55:17Z</time>
      </trkpt>
      <trkpt lat="46.7983" lon="5.19252">
        <ele>198.17</ele>
        <time>2014-07-05T07:55:30Z</time>
      </trkpt>
      <trkpt lat="46.79901" lon="5.19199">
        <ele>197.21</ele>
        <time>2014-07-05T07:55:45Z</time>
      </trkpt>
      <trkpt lat="46.79956" lon="5.19155">
        <ele>196.73</ele>
        <time>2014-07-05T07:55:58Z</time>
      </trkpt>
      <trkpt lat="46.79969" lon="5.19134">
        <ele>197.21</ele>
        <time>2014-07-05T07:56:02Z</time>
      </trkpt>
      <trkpt lat="46.79979" lon="5.19113">
        <ele>197.21</ele>
        <time>2014-07-05T07:56:06Z</time>
      </trkpt>
      <trkpt lat="46.79984" lon="5.19089">
        <ele>197.69</ele>
        <time>2014-07-05T07:56:10Z</time>
      </trkpt>
      <trkpt lat="46.79992" lon="5.18998">
        <ele>197.69</ele>
        <time>2014-07-05T07:56:25Z</time>
      </trkpt>
      <trkpt lat="46.79993" lon="5.18933">
        <ele>198.17</ele>
        <time>2014-07-05T07:56:38Z</time>
      </trkpt>
      <trkpt lat="46.79993" lon="5.18826">
        <ele>197.21</ele>
        <time>2014-07-05T07:56:55Z</time>
      </trkpt>
      <trkpt lat="46.79993" lon="5.18766">
        <ele>197.21</ele>
        <time>2014-07-05T07:57:05Z</time>
      </trkpt>
      <trkpt lat="46.79995" lon="5.18707">
        <ele>197.21</ele>
        <time>2014-07-05T07:57:14Z</time>
      </trkpt>
      <trkpt lat="46.79996" lon="5.1867">
        <ele>196.73</ele>
        <time>2014-07-05T07:57:25Z</time>
      </trkpt>
      <trkpt lat="46.79995" lon="5.18669">
        <ele>196.73</ele>
        <time>2014-07-05T07:57:32Z</time>
      </trkpt>
      <trkpt lat="46.79995" lon="5.18667">
        <ele>197.21</ele>
        <time>2014-07-05T07:57:34Z</time>
      </trkpt>
      <trkpt lat="46.7999" lon="5.18665">
        <ele>196.73</ele>
        <time>2014-07-05T07:57:38Z</time>
      </trkpt>
      <trkpt lat="46.79948" lon="5.1867">
        <ele>197.69</ele>
        <time>2014-07-05T07:57:50Z</time>
      </trkpt>
      <trkpt lat="46.79914" lon="5.18655">
        <ele>197.69</ele>
        <time>2014-07-05T07:58:03Z</time>
      </trkpt>
      <trkpt lat="46.79893" lon="5.18649">
        <ele>198.17</ele>
        <time>2014-07-05T07:58:14Z</time>
      </trkpt>
      <trkpt lat="46.79855" lon="5.18622">
        <ele>198.65</ele>
        <time>2014-07-05T07:58:28Z</time>
      </trkpt>
      <trkpt lat="46.79811" lon="5.18575">
        <ele>200.09</ele>
        <time>2014-07-05T07:58:43Z</time>
      </trkpt>
      <trkpt lat="46.79777" lon="5.18536">
        <ele>200.57</ele>
        <time>2014-07-05T07:58:57Z</time>
      </trkpt>
      <trkpt lat="46.79772" lon="5.1853">
        <ele>200.57</ele>
        <time>2014-07-05T07:59:03Z</time>
      </trkpt>
      <trkpt lat="46.79767" lon="5.18534">
        <ele>201.05</ele>
        <time>2014-07-05T07:59:07Z</time>
      </trkpt>
      <trkpt lat="46.79765" lon="5.18539">
        <ele>200.57</ele>
        <time>2014-07-05T07:59:09Z</time>
      </trkpt>
      <trkpt lat="46.79763" lon="5.18544">
        <ele>200.57</ele>
        <time>2014-07-05T07:59:13Z</time>
      </trkpt>
      <trkpt lat="46.7976" lon="5.18551">
        <ele>201.05</ele>
        <time>2014-07-05T07:59:32Z</time>
      </trkpt>
      <trkpt lat="46.79759" lon="5.18553">
        <ele>201.05</ele>
        <time>2014-07-05T07:59:41Z</time>
      </trkpt>
      <trkpt lat="46.79758" lon="5.18558">
        <ele>201.05</ele>
        <time>2014-07-05T07:59:44Z</time>
      </trkpt>
      <trkpt lat="46.79774" lon="5.18547">
        <ele>200.57</ele>
        <time>2014-07-05T07:59:53Z</time>
      </trkpt>
      <trkpt lat="46.79787" lon="5.18555">
        <ele>200.09</ele>
        <time>2014-07-05T07:59:58Z</time>
      </trkpt>
      <trkpt lat="46.79823" lon="5.18598">
        <ele>199.61</ele>
        <time>2014-07-05T08:00:11Z</time>
      </trkpt>
      <trkpt lat="46.79852" lon="5.18628">
        <ele>199.13</ele>
        <time>2014-07-05T08:00:20Z</time>
      </trkpt>
      <trkpt lat="46.79925" lon="5.18669">
        <ele>197.69</ele>
        <time>2014-07-05T08:00:37Z</time>
      </trkpt>
      <trkpt lat="46.79985" lon="5.18676">
        <ele>197.21</ele>
        <time>2014-07-05T08:00:51Z</time>
      </trkpt>
      <trkpt lat="46.80001" lon="5.18657">
        <ele>196.73</ele>
        <time>2014-07-05T08:01:00Z</time>
      </trkpt>
      <trkpt lat="46.80003" lon="5.18645">
        <ele>197.21</ele>
        <time>2014-07-05T08:01:08Z</time>
      </trkpt>
      <trkpt lat="46.79999" lon="5.18622">
        <ele>197.21</ele>
        <time>2014-07-05T08:01:16Z</time>
      </trkpt>
      <trkpt lat="46.80002" lon="5.18534">
        <ele>196.73</ele>
        <time>2014-07-05T08:01:33Z</time>
      </trkpt>
      <trkpt lat="46.80003" lon="5.18437">
        <ele>196.73</ele>
        <time>2014-07-05T08:01:50Z</time>
      </trkpt>
      <trkpt lat="46.80006" lon="5.18339">
        <ele>197.21</ele>
        <time>2014-07-05T08:02:06Z</time>
      </trkpt>
      <trkpt lat="46.80013" lon="5.18247">
        <ele>198.65</ele>
        <time>2014-07-05T08:02:22Z</time>
      </trkpt>
      <trkpt lat="46.80017" lon="5.18155">
        <ele>200.57</ele>
        <time>2014-07-05T08:02:40Z</time>
      </trkpt>
      <trkpt lat="46.8002" lon="5.18054">
        <ele>201.53</ele>
        <time>2014-07-05T08:03:00Z</time>
      </trkpt>
      <trkpt lat="46.80024" lon="5.17949">
        <ele>202.01</ele>
        <time>2014-07-05T08:03:18Z</time>
      </trkpt>
      <trkpt lat="46.80027" lon="5.17858">
        <ele>202.01</ele>
        <time>2014-07-05T08:03:33Z</time>
      </trkpt>
      <trkpt lat="46.80031" lon="5.17772">
        <ele>203.94</ele>
        <time>2014-07-05T08:03:52Z</time>
      </trkpt>
      <trkpt lat="46.80036" lon="5.17696">
        <ele>204.42</ele>
        <time>2014-07-05T08:04:07Z</time>
      </trkpt>
      <trkpt lat="46.80039" lon="5.17584">
        <ele>205.38</ele>
        <time>2014-07-05T08:04:27Z</time>
      </trkpt>
      <trkpt lat="46.80046" lon="5.17452">
        <ele>205.38</ele>
        <time>2014-07-05T08:04:50Z</time>
      </trkpt>
      <trkpt lat="46.80051" lon="5.17361">
        <ele>205.86</ele>
        <time>2014-07-05T08:05:06Z</time>
      </trkpt>
      <trkpt lat="46.8007" lon="5.17258">
        <ele>207.3</ele>
        <time>2014-07-05T08:05:26Z</time>
      </trkpt>
      <trkpt lat="46.80095" lon="5.17177">
        <ele>208.26</ele>
        <time>2014-07-05T08:05:43Z</time>
      </trkpt>
      <trkpt lat="46.80129" lon="5.17068">
        <ele>208.74</ele>
        <time>2014-07-05T08:06:04Z</time>
      </trkpt>
      <trkpt lat="46.80167" lon="5.16949">
        <ele>209.22</ele>
        <time>2014-07-05T08:06:26Z</time>
      </trkpt>
      <trkpt lat="46.80206" lon="5.16828">
        <ele>209.22</ele>
        <time>2014-07-05T08:06:47Z</time>
      </trkpt>
      <trkpt lat="46.80249" lon="5.16691">
        <ele>208.26</ele>
        <time>2014-07-05T08:07:09Z</time>
      </trkpt>
      <trkpt lat="46.80285" lon="5.16575">
        <ele>207.78</ele>
        <time>2014-07-05T08:07:27Z</time>
      </trkpt>
      <trkpt lat="46.80322" lon="5.16424">
        <ele>205.86</ele>
        <time>2014-07-05T08:07:48Z</time>
      </trkpt>
      <trkpt lat="46.80344" lon="5.16314">
        <ele>202.49</ele>
        <time>2014-07-05T08:07:59Z</time>
      </trkpt>
      <trkpt lat="46.80372" lon="5.16173">
        <ele>199.13</ele>
        <time>2014-07-05T08:08:12Z</time>
      </trkpt>
      <trkpt lat="46.80398" lon="5.16035">
        <ele>199.13</ele>
        <time>2014-07-05T08:08:27Z</time>
      </trkpt>
      <trkpt lat="46.80402" lon="5.16014">
        <ele>199.13</ele>
        <time>2014-07-05T08:08:30Z</time>
      </trkpt>
      <trkpt lat="46.80421" lon="5.15914">
        <ele>201.53</ele>
        <time>2014-07-05T08:08:48Z</time>
      </trkpt>
      <trkpt lat="46.80437" lon="5.15834">
        <ele>204.42</ele>
        <time>2014-07-05T08:09:07Z</time>
      </trkpt>
      <trkpt lat="46.80456" lon="5.1574">
        <ele>204.9</ele>
        <time>2014-07-05T08:09:27Z</time>
      </trkpt>
      <trkpt lat="46.80484" lon="5.15596">
        <ele>203.94</ele>
        <time>2014-07-05T08:09:51Z</time>
      </trkpt>
      <trkpt lat="46.80503" lon="5.15503">
        <ele>205.38</ele>
        <time>2014-07-05T08:10:08Z</time>
      </trkpt>
      <trkpt lat="46.80524" lon="5.15394">
        <ele>206.82</ele>
        <time>2014-07-05T08:10:29Z</time>
      </trkpt>
      <trkpt lat="46.80537" lon="5.15334">
        <ele>206.34</ele>
        <time>2014-07-05T08:10:39Z</time>
      </trkpt>
      <trkpt lat="46.80565" lon="5.1519">
        <ele>204.9</ele>
        <time>2014-07-05T08:10:58Z</time>
      </trkpt>
      <trkpt lat="46.80595" lon="5.15042">
        <ele>204.9</ele>
        <time>2014-07-05T08:11:18Z</time>
      </trkpt>
      <trkpt lat="46.80617" lon="5.14925">
        <ele>206.34</ele>
        <time>2014-07-05T08:11:36Z</time>
      </trkpt>
      <trkpt lat="46.80642" lon="5.14794">
        <ele>206.34</ele>
        <time>2014-07-05T08:11:58Z</time>
      </trkpt>
      <trkpt lat="46.80669" lon="5.14655">
        <ele>204.9</ele>
        <time>2014-07-05T08:12:17Z</time>
      </trkpt>
      <trkpt lat="46.80699" lon="5.14509">
        <ele>204.9</ele>
        <time>2014-07-05T08:12:37Z</time>
      </trkpt>
      <trkpt lat="46.807" lon="5.14503">
        <ele>204.9</ele>
        <time>2014-07-05T08:12:38Z</time>
      </trkpt>
      <trkpt lat="46.80719" lon="5.14405">
        <ele>206.82</ele>
        <time>2014-07-05T08:12:56Z</time>
      </trkpt>
      <trkpt lat="46.80754" lon="5.14332">
        <ele>207.3</ele>
        <time>2014-07-05T08:13:14Z</time>
      </trkpt>
      <trkpt lat="46.80812" lon="5.14242">
        <ele>206.82</ele>
        <time>2014-07-05T08:13:34Z</time>
      </trkpt>
      <trkpt lat="46.80897" lon="5.14114">
        <ele>205.86</ele>
        <time>2014-07-05T08:13:57Z</time>
      </trkpt>
      <trkpt lat="46.80957" lon="5.14016">
        <ele>207.3</ele>
        <time>2014-07-05T08:14:16Z</time>
      </trkpt>
      <trkpt lat="46.80974" lon="5.1396">
        <ele>207.3</ele>
        <time>2014-07-05T08:14:30Z</time>
      </trkpt>
      <trkpt lat="46.80984" lon="5.13885">
        <ele>207.78</ele>
        <time>2014-07-05T08:14:44Z</time>
      </trkpt>
      <trkpt lat="46.80986" lon="5.13848">
        <ele>207.3</ele>
        <time>2014-07-05T08:14:50Z</time>
      </trkpt>
      <trkpt lat="46.80992" lon="5.13741">
        <ele>207.3</ele>
        <time>2014-07-05T08:15:07Z</time>
      </trkpt>
      <trkpt lat="46.81003" lon="5.13606">
        <ele>207.3</ele>
        <time>2014-07-05T08:15:27Z</time>
      </trkpt>
      <trkpt lat="46.81013" lon="5.13534">
        <ele>208.74</ele>
        <time>2014-07-05T08:15:39Z</time>
      </trkpt>
      <trkpt lat="46.81015" lon="5.13423">
        <ele>207.3</ele>
        <time>2014-07-05T08:15:56Z</time>
      </trkpt>
      <trkpt lat="46.81016" lon="5.1341">
        <ele>207.3</ele>
        <time>2014-07-05T08:15:58Z</time>
      </trkpt>
      <trkpt lat="46.81035" lon="5.13322">
        <ele>207.3</ele>
        <time>2014-07-05T08:16:13Z</time>
      </trkpt>
      <trkpt lat="46.81041" lon="5.13192">
        <ele>207.78</ele>
        <time>2014-07-05T08:16:31Z</time>
      </trkpt>
      <trkpt lat="46.81036" lon="5.13039">
        <ele>206.34</ele>
        <time>2014-07-05T08:16:49Z</time>
      </trkpt>
      <trkpt lat="46.81042" lon="5.12914">
        <ele>205.38</ele>
        <time>2014-07-05T08:17:03Z</time>
      </trkpt>
      <trkpt lat="46.81051" lon="5.12768">
        <ele>205.86</ele>
        <time>2014-07-05T08:17:22Z</time>
      </trkpt>
      <trkpt lat="46.81058" lon="5.12634">
        <ele>207.3</ele>
        <time>2014-07-05T08:17:41Z</time>
      </trkpt>
      <trkpt lat="46.81065" lon="5.12496">
        <ele>206.82</ele>
        <time>2014-07-05T08:18:02Z</time>
      </trkpt>
      <trkpt lat="46.81072" lon="5.12371">
        <ele>207.3</ele>
        <time>2014-07-05T08:18:22Z</time>
      </trkpt>
      <trkpt lat="46.81082" lon="5.12233">
        <ele>206.82</ele>
        <time>2014-07-05T08:18:42Z</time>
      </trkpt>
      <trkpt lat="46.81089" lon="5.12094">
        <ele>206.82</ele>
        <time>2014-07-05T08:19:01Z</time>
      </trkpt>
      <trkpt lat="46.81097" lon="5.11944">
        <ele>206.82</ele>
        <time>2014-07-05T08:19:22Z</time>
      </trkpt>
      <trkpt lat="46.81105" lon="5.11805">
        <ele>207.78</ele>
        <time>2014-07-05T08:19:41Z</time>
      </trkpt>
      <trkpt lat="46.81114" lon="5.11653">
        <ele>205.86</ele>
        <time>2014-07-05T08:20:02Z</time>
      </trkpt>
      <trkpt lat="46.81125" lon="5.1147">
        <ele>203.46</ele>
        <time>2014-07-05T08:20:24Z</time>
      </trkpt>
      <trkpt lat="46.81134" lon="5.1131">
        <ele>202.98</ele>
        <time>2014-07-05T08:20:44Z</time>
      </trkpt>
      <trkpt lat="46.81139" lon="5.11215">
        <ele>204.42</ele>
        <time>2014-07-05T08:21:01Z</time>
      </trkpt>
      <trkpt lat="46.81146" lon="5.11097">
        <ele>205.86</ele>
        <time>2014-07-05T08:21:24Z</time>
      </trkpt>
      <trkpt lat="46.81152" lon="5.10981">
        <ele>205.86</ele>
        <time>2014-07-05T08:21:43Z</time>
      </trkpt>
      <trkpt lat="46.81156" lon="5.10937">
        <ele>204.42</ele>
        <time>2014-07-05T08:21:51Z</time>
      </trkpt>
      <trkpt lat="46.81156" lon="5.10933">
        <ele>204.42</ele>
        <time>2014-07-05T08:22:02Z</time>
      </trkpt>
      <trkpt lat="46.81156" lon="5.10932">
        <ele>204.42</ele>
        <time>2014-07-05T08:22:20Z</time>
      </trkpt>
      <trkpt lat="46.81156" lon="5.10932">
        <ele>203.94</ele>
        <time>2014-07-05T08:22:57Z</time>
      </trkpt>
      <trkpt lat="46.81155" lon="5.10933">
        <ele>203.94</ele>
        <time>2014-07-05T08:23:33Z</time>
      </trkpt>
      <trkpt lat="46.81155" lon="5.10933">
        <ele>203.94</ele>
        <time>2014-07-05T08:24:13Z</time>
      </trkpt>
      <trkpt lat="46.81156" lon="5.1093">
        <ele>202.98</ele>
        <time>2014-07-05T08:24:29Z</time>
      </trkpt>
      <trkpt lat="46.81155" lon="5.10934">
        <ele>203.94</ele>
        <time>2014-07-05T08:24:41Z</time>
      </trkpt>
      <trkpt lat="46.81156" lon="5.10936">
        <ele>203.46</ele>
        <time>2014-07-05T08:25:06Z</time>
      </trkpt>
      <trkpt lat="46.81155" lon="5.10931">
        <ele>203.94</ele>
        <time>2014-07-05T08:25:31Z</time>
      </trkpt>
      <trkpt lat="46.81155" lon="5.10933">
        <ele>203.94</ele>
        <time>2014-07-05T08:26:02Z</time>
      </trkpt>
      <trkpt lat="46.81156" lon="5.10933">
        <ele>203.94</ele>
        <time>2014-07-05T08:26:30Z</time>
      </trkpt>
      <trkpt lat="46.81154" lon="5.10934">
        <ele>203.94</ele>
        <time>2014-07-05T08:26:59Z</time>
      </trkpt>
      <trkpt lat="46.81154" lon="5.10931">
        <ele>203.94</ele>
        <time>2014-07-05T08:27:33Z</time>
      </trkpt>
      <trkpt lat="46.81156" lon="5.10932">
        <ele>203.94</ele>
        <time>2014-07-05T08:28:02Z</time>
      </trkpt>
      <trkpt lat="46.81157" lon="5.10931">
        <ele>203.94</ele>
        <time>2014-07-05T08:28:27Z</time>
      </trkpt>
      <trkpt lat="46.81156" lon="5.10932">
        <ele>203.94</ele>
        <time>2014-07-05T08:28:52Z</time>
      </trkpt>
      <trkpt lat="46.81156" lon="5.10931">
        <ele>203.94</ele>
        <time>2014-07-05T08:29:23Z</time>
      </trkpt>
      <trkpt lat="46.81155" lon="5.10933">
        <ele>203.94</ele>
        <time>2014-07-05T08:30:00Z</time>
      </trkpt>
      <trkpt lat="46.81155" lon="5.10932">
        <ele>204.42</ele>
        <time>2014-07-05T08:30:30Z</time>
      </trkpt>
      <trkpt lat="46.81156" lon="5.10931">
        <ele>203.94</ele>
        <time>2014-07-05T08:31:02Z</time>
      </trkpt>
      <trkpt lat="46.81155" lon="5.10931">
        <ele>203.94</ele>
        <time>2014-07-05T08:31:35Z</time>
      </trkpt>
      <trkpt lat="46.81155" lon="5.10932">
        <ele>204.42</ele>
        <time>2014-07-05T08:32:11Z</time>
      </trkpt>
      <trkpt lat="46.81155" lon="5.10932">
        <ele>203.94</ele>
        <time>2014-07-05T08:32:49Z</time>
      </trkpt>
      <trkpt lat="46.81155" lon="5.10932">
        <ele>204.42</ele>
        <time>2014-07-05T08:33:26Z</time>
      </trkpt>
      <trkpt lat="46.81156" lon="5.10933">
        <ele>204.42</ele>
        <time>2014-07-05T08:33:45Z</time>
      </trkpt>
      <trkpt lat="46.81155" lon="5.1093">
        <ele>204.42</ele>
        <time>2014-07-05T08:33:53Z</time>
      </trkpt>
      <trkpt lat="46.81157" lon="5.10883">
        <ele>204.9</ele>
        <time>2014-07-05T08:34:08Z</time>
      </trkpt>
      <trkpt lat="46.81163" lon="5.10786">
        <ele>205.86</ele>
        <time>2014-07-05T08:34:28Z</time>
      </trkpt>
      <trkpt lat="46.81167" lon="5.10708">
        <ele>206.34</ele>
        <time>2014-07-05T08:34:44Z</time>
      </trkpt>
      <trkpt lat="46.81174" lon="5.10581">
        <ele>206.34</ele>
        <time>2014-07-05T08:35:06Z</time>
      </trkpt>
      <trkpt lat="46.81182" lon="5.10422">
        <ele>206.82</ele>
        <time>2014-07-05T08:35:32Z</time>
      </trkpt>
      <trkpt lat="46.81195" lon="5.10306">
        <ele>208.26</ele>
        <time>2014-07-05T08:35:51Z</time>
      </trkpt>
      <trkpt lat="46.81199" lon="5.10286">
        <ele>205.86</ele>
        <time>2014-07-05T08:35:54Z</time>
      </trkpt>
      <trkpt lat="46.81247" lon="5.10149">
        <ele>205.38</ele>
        <time>2014-07-05T08:36:16Z</time>
      </trkpt>
      <trkpt lat="46.81318" lon="5.10057">
        <ele>205.38</ele>
        <time>2014-07-05T08:36:35Z</time>
      </trkpt>
      <trkpt lat="46.81403" lon="5.1">
        <ele>204.9</ele>
        <time>2014-07-05T08:36:53Z</time>
      </trkpt>
      <trkpt lat="46.81516" lon="5.09935">
        <ele>204.42</ele>
        <time>2014-07-05T08:37:14Z</time>
      </trkpt>
      <trkpt lat="46.81622" lon="5.09875">
        <ele>203.94</ele>
        <time>2014-07-05T08:37:34Z</time>
      </trkpt>
      <trkpt lat="46.81723" lon="5.09817">
        <ele>203.94</ele>
        <time>2014-07-05T08:37:53Z</time>
      </trkpt>
      <trkpt lat="46.81813" lon="5.09765">
        <ele>203.46</ele>
        <time>2014-07-05T08:38:10Z</time>
      </trkpt>
      <trkpt lat="46.81922" lon="5.09703">
        <ele>203.46</ele>
        <time>2014-07-05T08:38:31Z</time>
      </trkpt>
      <trkpt lat="46.82025" lon="5.09646">
        <ele>202.98</ele>
        <time>2014-07-05T08:38:51Z</time>
      </trkpt>
      <trkpt lat="46.82117" lon="5.09591">
        <ele>202.98</ele>
        <time>2014-07-05T08:39:09Z</time>
      </trkpt>
      <trkpt lat="46.82172" lon="5.09559">
        <ele>202.98</ele>
        <time>2014-07-05T08:39:20Z</time>
      </trkpt>
      <trkpt lat="46.82254" lon="5.09512">
        <ele>202.98</ele>
        <time>2014-07-05T08:39:36Z</time>
      </trkpt>
      <trkpt lat="46.82349" lon="5.09457">
        <ele>203.94</ele>
        <time>2014-07-05T08:39:54Z</time>
      </trkpt>
      <trkpt lat="46.82459" lon="5.09394">
        <ele>201.53</ele>
        <time>2014-07-05T08:40:14Z</time>
      </trkpt>
      <trkpt lat="46.82582" lon="5.09322">
        <ele>200.57</ele>
        <time>2014-07-05T08:40:35Z</time>
      </trkpt>
      <trkpt lat="46.82696" lon="5.09257">
        <ele>200.09</ele>
        <time>2014-07-05T08:40:56Z</time>
      </trkpt>
      <trkpt lat="46.82778" lon="5.09209">
        <ele>201.05</ele>
        <time>2014-07-05T08:41:12Z</time>
      </trkpt>
      <trkpt lat="46.8287" lon="5.09157">
        <ele>201.53</ele>
        <time>2014-07-05T08:41:31Z</time>
      </trkpt>
      <trkpt lat="46.8297" lon="5.09098">
        <ele>201.05</ele>
        <time>2014-07-05T08:41:50Z</time>
      </trkpt>
      <trkpt lat="46.83081" lon="5.09034">
        <ele>200.09</ele>
        <time>2014-07-05T08:42:10Z</time>
      </trkpt>
      <trkpt lat="46.83174" lon="5.0898">
        <ele>201.05</ele>
        <time>2014-07-05T08:42:27Z</time>
      </trkpt>
      <trkpt lat="46.83272" lon="5.08923">
        <ele>199.13</ele>
        <time>2014-07-05T08:42:44Z</time>
      </trkpt>
      <trkpt lat="46.83385" lon="5.08859">
        <ele>198.65</ele>
        <time>2014-07-05T08:43:03Z</time>
      </trkpt>
      <trkpt lat="46.83486" lon="5.08801">
        <ele>199.61</ele>
        <time>2014-07-05T08:43:23Z</time>
      </trkpt>
      <trkpt lat="46.83528" lon="5.08776">
        <ele>200.09</ele>
        <time>2014-07-05T08:43:32Z</time>
      </trkpt>
      <trkpt lat="46.83591" lon="5.08741">
        <ele>200.57</ele>
        <time>2014-07-05T08:43:48Z</time>
      </trkpt>
      <trkpt lat="46.83667" lon="5.08697">
        <ele>200.57</ele>
        <time>2014-07-05T08:44:04Z</time>
      </trkpt>
      <trkpt lat="46.83759" lon="5.08643">
        <ele>200.09</ele>
        <time>2014-07-05T08:44:22Z</time>
      </trkpt>
      <trkpt lat="46.83864" lon="5.08583">
        <ele>199.13</ele>
        <time>2014-07-05T08:44:40Z</time>
      </trkpt>
      <trkpt lat="46.83947" lon="5.08538">
        <ele>200.09</ele>
        <time>2014-07-05T08:44:56Z</time>
      </trkpt>
      <trkpt lat="46.84028" lon="5.08491">
        <ele>201.05</ele>
        <time>2014-07-05T08:45:14Z</time>
      </trkpt>
      <trkpt lat="46.84116" lon="5.0844">
        <ele>201.05</ele>
        <time>2014-07-05T08:45:33Z</time>
      </trkpt>
      <trkpt lat="46.84204" lon="5.08388">
        <ele>201.53</ele>
        <time>2014-07-05T08:45:52Z</time>
      </trkpt>
      <trkpt lat="46.84295" lon="5.08337">
        <ele>201.05</ele>
        <time>2014-07-05T08:46:10Z</time>
      </trkpt>
      <trkpt lat="46.84385" lon="5.08287">
        <ele>200.57</ele>
        <time>2014-07-05T08:46:27Z</time>
      </trkpt>
      <trkpt lat="46.84486" lon="5.08226">
        <ele>198.65</ele>
        <time>2014-07-05T08:46:45Z</time>
      </trkpt>
      <trkpt lat="46.84587" lon="5.08168">
        <ele>195.77</ele>
        <time>2014-07-05T08:47:00Z</time>
      </trkpt>
      <trkpt lat="46.84682" lon="5.08115">
        <ele>191.92</ele>
        <time>2014-07-05T08:47:13Z</time>
      </trkpt>
      <trkpt lat="46.84689" lon="5.08111">
        <ele>191.92</ele>
        <time>2014-07-05T08:47:14Z</time>
      </trkpt>
      <trkpt lat="46.84804" lon="5.08046">
        <ele>191.44</ele>
        <time>2014-07-05T08:47:30Z</time>
      </trkpt>
      <trkpt lat="46.84909" lon="5.07986">
        <ele>190.96</ele>
        <time>2014-07-05T08:47:47Z</time>
      </trkpt>
      <trkpt lat="46.84973" lon="5.07946">
        <ele>191.92</ele>
        <time>2014-07-05T08:48:00Z</time>
      </trkpt>
      <trkpt lat="46.84977" lon="5.07942">
        <ele>192.4</ele>
        <time>2014-07-05T08:48:01Z</time>
      </trkpt>
      <trkpt lat="46.85009" lon="5.0788">
        <ele>193.36</ele>
        <time>2014-07-05T08:48:15Z</time>
      </trkpt>
      <trkpt lat="46.85036" lon="5.07801">
        <ele>196.25</ele>
        <time>2014-07-05T08:48:34Z</time>
      </trkpt>
      <trkpt lat="46.85061" lon="5.07749">
        <ele>198.17</ele>
        <time>2014-07-05T08:48:49Z</time>
      </trkpt>
      <trkpt lat="46.8511" lon="5.07723">
        <ele>199.13</ele>
        <time>2014-07-05T08:49:05Z</time>
      </trkpt>
      <trkpt lat="46.85141" lon="5.07694">
        <ele>199.13</ele>
        <time>2014-07-05T08:49:15Z</time>
      </trkpt>
      <trkpt lat="46.85179" lon="5.07595">
        <ele>199.13</ele>
        <time>2014-07-05T08:49:32Z</time>
      </trkpt>
      <trkpt lat="46.85224" lon="5.07471">
        <ele>199.61</ele>
        <time>2014-07-05T08:49:52Z</time>
      </trkpt>
      <trkpt lat="46.85267" lon="5.07357">
        <ele>199.61</ele>
        <time>2014-07-05T08:50:10Z</time>
      </trkpt>
      <trkpt lat="46.85313" lon="5.07233">
        <ele>199.13</ele>
        <time>2014-07-05T08:50:29Z</time>
      </trkpt>
      <trkpt lat="46.85366" lon="5.0709">
        <ele>197.69</ele>
        <time>2014-07-05T08:50:50Z</time>
      </trkpt>
      <trkpt lat="46.85426" lon="5.0693">
        <ele>194.8</ele>
        <time>2014-07-05T08:51:09Z</time>
      </trkpt>
      <trkpt lat="46.85489" lon="5.06757">
        <ele>193.84</ele>
        <time>2014-07-05T08:51:29Z</time>
      </trkpt>
      <trkpt lat="46.85525" lon="5.06662">
        <ele>194.8</ele>
        <time>2014-07-05T08:51:44Z</time>
      </trkpt>
      <trkpt lat="46.85555" lon="5.0658">
        <ele>198.17</ele>
        <time>2014-07-05T08:52:01Z</time>
      </trkpt>
      <trkpt lat="46.85582" lon="5.06508">
        <ele>197.69</ele>
        <time>2014-07-05T08:52:18Z</time>
      </trkpt>
      <trkpt lat="46.85611" lon="5.06426">
        <ele>198.65</ele>
        <time>2014-07-05T08:52:35Z</time>
      </trkpt>
      <trkpt lat="46.85635" lon="5.06322">
        <ele>198.65</ele>
        <time>2014-07-05T08:52:54Z</time>
      </trkpt>
      <trkpt lat="46.85662" lon="5.06201">
        <ele>198.65</ele>
        <time>2014-07-05T08:53:14Z</time>
      </trkpt>
      <trkpt lat="46.85682" lon="5.0611">
        <ele>198.65</ele>
        <time>2014-07-05T08:53:30Z</time>
      </trkpt>
      <trkpt lat="46.857" lon="5.0603">
        <ele>198.65</ele>
        <time>2014-07-05T08:53:45Z</time>
      </trkpt>
      <trkpt lat="46.85701" lon="5.06025">
        <ele>198.65</ele>
        <time>2014-07-05T08:53:46Z</time>
      </trkpt>
      <trkpt lat="46.8571" lon="5.05996">
        <ele>198.17</ele>
        <time>2014-07-05T08:53:51Z</time>
      </trkpt>
      <trkpt lat="46.85753" lon="5.05912">
        <ele>198.17</ele>
        <time>2014-07-05T08:54:08Z</time>
      </trkpt>
      <trkpt lat="46.85757" lon="5.05886">
        <ele>198.17</ele>
        <time>2014-07-05T08:54:16Z</time>
      </trkpt>
      <trkpt lat="46.85765" lon="5.05877">
        <ele>198.17</ele>
        <time>2014-07-05T08:54:25Z</time>
      </trkpt>
      <trkpt lat="46.85764" lon="5.05874">
        <ele>196.73</ele>
        <time>2014-07-05T08:54:39Z</time>
      </trkpt>
      <trkpt lat="46.85764" lon="5.05873">
        <ele>198.17</ele>
        <time>2014-07-05T08:54:44Z</time>
      </trkpt>
      <trkpt lat="46.85764" lon="5.05873">
        <ele>198.17</ele>
        <time>2014-07-05T08:55:15Z</time>
      </trkpt>
      <trkpt lat="46.85762" lon="5.05871">
        <ele>198.17</ele>
        <time>2014-07-05T08:55:52Z</time>
      </trkpt>
      <trkpt lat="46.85762" lon="5.0587">
        <ele>198.17</ele>
        <time>2014-07-05T08:56:19Z</time>
      </trkpt>
      <trkpt lat="46.85763" lon="5.05873">
        <ele>198.17</ele>
        <time>2014-07-05T08:56:52Z</time>
      </trkpt>
      <trkpt lat="46.85765" lon="5.05874">
        <ele>198.17</ele>
        <time>2014-07-05T08:57:20Z</time>
      </trkpt>
      <trkpt lat="46.85764" lon="5.05873">
        <ele>198.17</ele>
        <time>2014-07-05T08:57:56Z</time>
      </trkpt>
      <trkpt lat="46.85765" lon="5.05883">
        <ele>198.17</ele>
        <time>2014-07-05T08:58:11Z</time>
      </trkpt>
      <trkpt lat="46.85765" lon="5.05884">
        <ele>198.17</ele>
        <time>2014-07-05T08:58:42Z</time>
      </trkpt>
      <trkpt lat="46.85764" lon="5.05883">
        <ele>198.17</ele>
        <time>2014-07-05T08:59:00Z</time>
      </trkpt>
      <trkpt lat="46.85766" lon="5.05885">
        <ele>197.69</ele>
        <time>2014-07-05T08:59:42Z</time>
      </trkpt>
      <trkpt lat="46.85765" lon="5.05884">
        <ele>195.77</ele>
        <time>2014-07-05T09:00:03Z</time>
      </trkpt>
      <trkpt lat="46.85765" lon="5.05884">
        <ele>198.17</ele>
        <time>2014-07-05T09:00:10Z</time>
      </trkpt>
      <trkpt lat="46.85766" lon="5.05884">
        <ele>197.69</ele>
        <time>2014-07-05T09:00:54Z</time>
      </trkpt>
      <trkpt lat="46.85765" lon="5.05883">
        <ele>197.21</ele>
        <time>2014-07-05T09:01:27Z</time>
      </trkpt>
      <trkpt lat="46.85765" lon="5.05883">
        <ele>197.69</ele>
        <time>2014-07-05T09:02:00Z</time>
      </trkpt>
      <trkpt lat="46.85765" lon="5.05883">
        <ele>198.17</ele>
        <time>2014-07-05T09:02:04Z</time>
      </trkpt>
      <trkpt lat="46.85764" lon="5.05882">
        <ele>196.73</ele>
        <time>2014-07-05T09:02:06Z</time>
      </trkpt>
      <trkpt lat="46.85764" lon="5.05874">
        <ele>197.69</ele>
        <time>2014-07-05T09:02:23Z</time>
      </trkpt>
      <trkpt lat="46.85767" lon="5.05875">
        <ele>197.69</ele>
        <time>2014-07-05T09:03:02Z</time>
      </trkpt>
      <trkpt lat="46.85764" lon="5.05875">
        <ele>197.69</ele>
        <time>2014-07-05T09:03:32Z</time>
      </trkpt>
      <trkpt lat="46.85769" lon="5.05885">
        <ele>197.69</ele>
        <time>2014-07-05T09:03:44Z</time>
      </trkpt>
      <trkpt lat="46.8577" lon="5.05887">
        <ele>197.69</ele>
        <time>2014-07-05T09:04:01Z</time>
      </trkpt>
      <trkpt lat="46.85779" lon="5.05881">
        <ele>197.69</ele>
        <time>2014-07-05T09:04:07Z</time>
      </trkpt>
      <trkpt lat="46.85803" lon="5.05848">
        <ele>197.21</ele>
        <time>2014-07-05T09:04:22Z</time>
      </trkpt>
      <trkpt lat="46.85843" lon="5.05794">
        <ele>197.21</ele>
        <time>2014-07-05T09:04:37Z</time>
      </trkpt>
      <trkpt lat="46.85902" lon="5.05711">
        <ele>196.73</ele>
        <time>2014-07-05T09:04:55Z</time>
      </trkpt>
      <trkpt lat="46.8598" lon="5.056">
        <ele>195.77</ele>
        <time>2014-07-05T09:05:15Z</time>
      </trkpt>
      <trkpt lat="46.86043" lon="5.05509">
        <ele>196.73</ele>
        <time>2014-07-05T09:05:33Z</time>
      </trkpt>
      <trkpt lat="46.86111" lon="5.05412">
        <ele>197.21</ele>
        <time>2014-07-05T09:05:54Z</time>
      </trkpt>
      <trkpt lat="46.86184" lon="5.05307">
        <ele>197.21</ele>
        <time>2014-07-05T09:06:15Z</time>
      </trkpt>
      <trkpt lat="46.86249" lon="5.05215">
        <ele>197.21</ele>
        <time>2014-07-05T09:06:33Z</time>
      </trkpt>
      <trkpt lat="46.86313" lon="5.05123">
        <ele>197.69</ele>
        <time>2014-07-05T09:06:51Z</time>
      </trkpt>
      <trkpt lat="46.86382" lon="5.05025">
        <ele>197.69</ele>
        <time>2014-07-05T09:07:10Z</time>
      </trkpt>
      <trkpt lat="46.86451" lon="5.04926">
        <ele>197.21</ele>
        <time>2014-07-05T09:07:29Z</time>
      </trkpt>
      <trkpt lat="46.86523" lon="5.04822">
        <ele>195.77</ele>
        <time>2014-07-05T09:07:46Z</time>
      </trkpt>
      <trkpt lat="46.86597" lon="5.04716">
        <ele>193.36</ele>
        <time>2014-07-05T09:08:02Z</time>
      </trkpt>
      <trkpt lat="46.86664" lon="5.04618">
        <ele>190</ele>
        <time>2014-07-05T09:08:15Z</time>
      </trkpt>
      <trkpt lat="46.86693" lon="5.04585">
        <ele>189.04</ele>
        <time>2014-07-05T09:08:20Z</time>
      </trkpt>
      <trkpt lat="46.86731" lon="5.04558">
        <ele>189.04</ele>
        <time>2014-07-05T09:08:29Z</time>
      </trkpt>
      <trkpt lat="46.86747" lon="5.04538">
        <ele>188.56</ele>
        <time>2014-07-05T09:08:34Z</time>
      </trkpt>
      <trkpt lat="46.86822" lon="5.04487">
        <ele>189.04</ele>
        <time>2014-07-05T09:08:50Z</time>
      </trkpt>
      <trkpt lat="46.86869" lon="5.04469">
        <ele>190.48</ele>
        <time>2014-07-05T09:09:03Z</time>
      </trkpt>
      <trkpt lat="46.86904" lon="5.04462">
        <ele>191.92</ele>
        <time>2014-07-05T09:09:15Z</time>
      </trkpt>
      <trkpt lat="46.86942" lon="5.04455">
        <ele>193.84</ele>
        <time>2014-07-05T09:09:29Z</time>
      </trkpt>
      <trkpt lat="46.86982" lon="5.04449">
        <ele>195.77</ele>
        <time>2014-07-05T09:09:45Z</time>
      </trkpt>
      <trkpt lat="46.87033" lon="5.04442">
        <ele>197.21</ele>
        <time>2014-07-05T09:10:04Z</time>
      </trkpt>
      <trkpt lat="46.87089" lon="5.04441">
        <ele>198.17</ele>
        <time>2014-07-05T09:10:20Z</time>
      </trkpt>
      <trkpt lat="46.87163" lon="5.04464">
        <ele>198.65</ele>
        <time>2014-07-05T09:10:38Z</time>
      </trkpt>
      <trkpt lat="46.8725" lon="5.04497">
        <ele>199.13</ele>
        <time>2014-07-05T09:10:57Z</time>
      </trkpt>
      <trkpt lat="46.87345" lon="5.04532">
        <ele>199.13</ele>
        <time>2014-07-05T09:11:16Z</time>
      </trkpt>
      <trkpt lat="46.87354" lon="5.04536">
        <ele>199.13</ele>
        <time>2014-07-05T09:11:18Z</time>
      </trkpt>
      <trkpt lat="46.87409" lon="5.04554">
        <ele>199.13</ele>
        <time>2014-07-05T09:11:32Z</time>
      </trkpt>
      <trkpt lat="46.87445" lon="5.0457">
        <ele>198.65</ele>
        <time>2014-07-05T09:11:41Z</time>
      </trkpt>
      <trkpt lat="46.8754" lon="5.04605">
        <ele>197.69</ele>
        <time>2014-07-05T09:12:00Z</time>
      </trkpt>
      <trkpt lat="46.87582" lon="5.04611">
        <ele>197.69</ele>
        <time>2014-07-05T09:12:08Z</time>
      </trkpt>
      <trkpt lat="46.87671" lon="5.04561">
        <ele>195.77</ele>
        <time>2014-07-05T09:12:23Z</time>
      </trkpt>
      <trkpt lat="46.87781" lon="5.04493">
        <ele>192.88</ele>
        <time>2014-07-05T09:12:39Z</time>
      </trkpt>
      <trkpt lat="46.87884" lon="5.04416">
        <ele>190.48</ele>
        <time>2014-07-05T09:12:55Z</time>
      </trkpt>
      <trkpt lat="46.87961" lon="5.04361">
        <ele>190</ele>
        <time>2014-07-05T09:13:10Z</time>
      </trkpt>
      <trkpt lat="46.88049" lon="5.04305">
        <ele>189.52</ele>
        <time>2014-07-05T09:13:27Z</time>
      </trkpt>
      <trkpt lat="46.88094" lon="5.04273">
        <ele>189.04</ele>
        <time>2014-07-05T09:13:38Z</time>
      </trkpt>
      <trkpt lat="46.88102" lon="5.04267">
        <ele>188.56</ele>
        <time>2014-07-05T09:13:40Z</time>
      </trkpt>
      <trkpt lat="46.88172" lon="5.0422">
        <ele>188.08</ele>
        <time>2014-07-05T09:13:57Z</time>
      </trkpt>
      <trkpt lat="46.88246" lon="5.04202">
        <ele>187.59</ele>
        <time>2014-07-05T09:14:13Z</time>
      </trkpt>
      <trkpt lat="46.88328" lon="5.042">
        <ele>187.11</ele>
        <time>2014-07-05T09:14:29Z</time>
      </trkpt>
      <trkpt lat="46.88394" lon="5.04203">
        <ele>187.11</ele>
        <time>2014-07-05T09:14:42Z</time>
      </trkpt>
      <trkpt lat="46.88425" lon="5.04171">
        <ele>187.11</ele>
        <time>2014-07-05T09:14:50Z</time>
      </trkpt>
      <trkpt lat="46.88447" lon="5.04116">
        <ele>186.63</ele>
        <time>2014-07-05T09:14:58Z</time>
      </trkpt>
      <trkpt lat="46.88541" lon="5.0397">
        <ele>186.15</ele>
        <time>2014-07-05T09:15:21Z</time>
      </trkpt>
      <trkpt lat="46.88623" lon="5.03843">
        <ele>185.67</ele>
        <time>2014-07-05T09:15:40Z</time>
      </trkpt>
      <trkpt lat="46.88698" lon="5.03721">
        <ele>185.67</ele>
        <time>2014-07-05T09:15:58Z</time>
      </trkpt>
      <trkpt lat="46.88757" lon="5.03615">
        <ele>187.59</ele>
        <time>2014-07-05T09:16:15Z</time>
      </trkpt>
      <trkpt lat="46.88761" lon="5.03609">
        <ele>187.11</ele>
        <time>2014-07-05T09:16:16Z</time>
      </trkpt>
      <trkpt lat="46.88827" lon="5.03498">
        <ele>186.63</ele>
        <time>2014-07-05T09:16:35Z</time>
      </trkpt>
      <trkpt lat="46.8887" lon="5.03407">
        <ele>188.08</ele>
        <time>2014-07-05T09:16:51Z</time>
      </trkpt>
      <trkpt lat="46.88931" lon="5.03356">
        <ele>187.59</ele>
        <time>2014-07-05T09:17:07Z</time>
      </trkpt>
      <trkpt lat="46.88979" lon="5.03302">
        <ele>187.59</ele>
        <time>2014-07-05T09:17:19Z</time>
      </trkpt>
      <trkpt lat="46.88992" lon="5.0327">
        <ele>187.59</ele>
        <time>2014-07-05T09:17:25Z</time>
      </trkpt>
      <trkpt lat="46.89009" lon="5.03151">
        <ele>186.15</ele>
        <time>2014-07-05T09:17:42Z</time>
      </trkpt>
      <trkpt lat="46.89017" lon="5.03089">
        <ele>185.67</ele>
        <time>2014-07-05T09:17:50Z</time>
      </trkpt>
      <trkpt lat="46.89035" lon="5.02962">
        <ele>185.19</ele>
        <time>2014-07-05T09:18:07Z</time>
      </trkpt>
      <trkpt lat="46.89051" lon="5.0285">
        <ele>184.71</ele>
        <time>2014-07-05T09:18:23Z</time>
      </trkpt>
      <trkpt lat="46.89052" lon="5.02843">
        <ele>184.71</ele>
        <time>2014-07-05T09:18:24Z</time>
      </trkpt>
      <trkpt lat="46.89066" lon="5.02737">
        <ele>185.19</ele>
        <time>2014-07-05T09:18:40Z</time>
      </trkpt>
      <trkpt lat="46.89084" lon="5.02625">
        <ele>185.19</ele>
        <time>2014-07-05T09:18:56Z</time>
      </trkpt>
      <trkpt lat="46.89116" lon="5.02494">
        <ele>184.71</ele>
        <time>2014-07-05T09:19:14Z</time>
      </trkpt>
      <trkpt lat="46.89127" lon="5.02462">
        <ele>184.71</ele>
        <time>2014-07-05T09:19:19Z</time>
      </trkpt>
      <trkpt lat="46.89157" lon="5.02425">
        <ele>184.23</ele>
        <time>2014-07-05T09:19:27Z</time>
      </trkpt>
      <trkpt lat="46.89238" lon="5.0234">
        <ele>184.23</ele>
        <time>2014-07-05T09:19:47Z</time>
      </trkpt>
      <trkpt lat="46.89246" lon="5.02333">
        <ele>184.23</ele>
        <time>2014-07-05T09:19:49Z</time>
      </trkpt>
      <trkpt lat="46.89264" lon="5.02329">
        <ele>184.71</ele>
        <time>2014-07-05T09:19:53Z</time>
      </trkpt>
      <trkpt lat="46.89299" lon="5.0234">
        <ele>184.23</ele>
        <time>2014-07-05T09:20:00Z</time>
      </trkpt>
      <trkpt lat="46.89314" lon="5.02346">
        <ele>184.71</ele>
        <time>2014-07-05T09:20:03Z</time>
      </trkpt>
      <trkpt lat="46.89379" lon="5.02367">
        <ele>185.19</ele>
        <time>2014-07-05T09:20:17Z</time>
      </trkpt>
      <trkpt lat="46.89395" lon="5.02374">
        <ele>183.75</ele>
        <time>2014-07-05T09:20:21Z</time>
      </trkpt>
      <trkpt lat="46.89416" lon="5.02381">
        <ele>183.75</ele>
        <time>2014-07-05T09:20:26Z</time>
      </trkpt>
      <trkpt lat="46.89461" lon="5.02398">
        <ele>185.67</ele>
        <time>2014-07-05T09:20:40Z</time>
      </trkpt>
      <trkpt lat="46.89497" lon="5.02412">
        <ele>185.67</ele>
        <time>2014-07-05T09:20:58Z</time>
      </trkpt>
      <trkpt lat="46.89501" lon="5.02414">
        <ele>185.67</ele>
        <time>2014-07-05T09:21:00Z</time>
      </trkpt>
      <trkpt lat="46.89505" lon="5.02411">
        <ele>185.67</ele>
        <time>2014-07-05T09:21:10Z</time>
      </trkpt>
      <trkpt lat="46.89499" lon="5.02412">
        <ele>185.67</ele>
        <time>2014-07-05T09:21:14Z</time>
      </trkpt>
      <trkpt lat="46.89495" lon="5.02424">
        <ele>185.67</ele>
        <time>2014-07-05T09:21:26Z</time>
      </trkpt>
      <trkpt lat="46.89498" lon="5.02417">
        <ele>185.67</ele>
        <time>2014-07-05T09:21:31Z</time>
      </trkpt>
      <trkpt lat="46.89502" lon="5.02401">
        <ele>185.67</ele>
        <time>2014-07-05T09:21:39Z</time>
      </trkpt>
      <trkpt lat="46.89508" lon="5.02391">
        <ele>185.67</ele>
        <time>2014-07-05T09:21:51Z</time>
      </trkpt>
      <trkpt lat="46.89509" lon="5.02392">
        <ele>186.15</ele>
        <time>2014-07-05T09:22:06Z</time>
      </trkpt>
      <trkpt lat="46.89512" lon="5.02396">
        <ele>184.71</ele>
        <time>2014-07-05T09:22:22Z</time>
      </trkpt>
      <trkpt lat="46.89517" lon="5.02391">
        <ele>185.19</ele>
        <time>2014-07-05T09:22:39Z</time>
      </trkpt>
      <trkpt lat="46.89517" lon="5.02391">
        <ele>184.71</ele>
        <time>2014-07-05T09:22:58Z</time>
      </trkpt>
      <trkpt lat="46.89521" lon="5.0239">
        <ele>186.15</ele>
        <time>2014-07-05T09:23:14Z</time>
      </trkpt>
      <trkpt lat="46.89523" lon="5.0239">
        <ele>184.71</ele>
        <time>2014-07-05T09:23:20Z</time>
      </trkpt>
      <trkpt lat="46.89521" lon="5.02394">
        <ele>185.19</ele>
        <time>2014-07-05T09:23:22Z</time>
      </trkpt>
      <trkpt lat="46.89496" lon="5.02398">
        <ele>184.71</ele>
        <time>2014-07-05T09:23:37Z</time>
      </trkpt>
      <trkpt lat="46.89499" lon="5.0238">
        <ele>184.23</ele>
        <time>2014-07-05T09:24:12Z</time>
      </trkpt>
      <trkpt lat="46.89516" lon="5.02429">
        <ele>190.48</ele>
        <time>2014-07-05T09:38:42Z</time>
      </trkpt>
      <trkpt lat="46.89519" lon="5.02413">
        <ele>193.36</ele>
        <time>2014-07-05T09:38:54Z</time>
      </trkpt>
      <trkpt lat="46.89519" lon="5.0241">
        <ele>195.28</ele>
        <time>2014-07-05T09:38:57Z</time>
      </trkpt>
      <trkpt lat="46.8952" lon="5.02404">
        <ele>198.17</ele>
        <time>2014-07-05T09:39:07Z</time>
      </trkpt>
      <trkpt lat="46.89523" lon="5.02402">
        <ele>201.53</ele>
        <time>2014-07-05T09:39:26Z</time>
      </trkpt>
      <trkpt lat="46.89523" lon="5.02402">
        <ele>203.94</ele>
        <time>2014-07-05T09:39:49Z</time>
      </trkpt>
      <trkpt lat="46.89518" lon="5.02406">
        <ele>203.94</ele>
        <time>2014-07-05T09:40:05Z</time>
      </trkpt>
      <trkpt lat="46.89524" lon="5.02412">
        <ele>204.9</ele>
        <time>2014-07-05T09:40:21Z</time>
      </trkpt>
      <trkpt lat="46.89528" lon="5.0243">
        <ele>204.9</ele>
        <time>2014-07-05T09:40:36Z</time>
      </trkpt>
      <trkpt lat="46.8955" lon="5.02425">
        <ele>205.38</ele>
        <time>2014-07-05T09:40:52Z</time>
      </trkpt>
      <trkpt lat="46.89556" lon="5.02433">
        <ele>205.86</ele>
        <time>2014-07-05T09:41:05Z</time>
      </trkpt>
      <trkpt lat="46.89564" lon="5.02444">
        <ele>205.86</ele>
        <time>2014-07-05T09:41:19Z</time>
      </trkpt>
      <trkpt lat="46.89593" lon="5.02434">
        <ele>205.38</ele>
        <time>2014-07-05T09:43:49Z</time>
      </trkpt>
      <trkpt lat="46.89587" lon="5.02445">
        <ele>205.38</ele>
        <time>2014-07-05T09:44:10Z</time>
      </trkpt>
      <trkpt lat="46.8958" lon="5.02439">
        <ele>205.86</ele>
        <time>2014-07-05T09:44:24Z</time>
      </trkpt>
      <trkpt lat="46.89596" lon="5.02442">
        <ele>205.86</ele>
        <time>2014-07-05T09:44:49Z</time>
      </trkpt>
      <trkpt lat="46.8958" lon="5.02415">
        <ele>205.38</ele>
        <time>2014-07-05T09:51:55Z</time>
      </trkpt>
      <trkpt lat="46.89551" lon="5.02412">
        <ele>204.9</ele>
        <time>2014-07-05T09:52:14Z</time>
      </trkpt>
      <trkpt lat="46.89529" lon="5.02419">
        <ele>204.9</ele>
        <time>2014-07-05T09:52:26Z</time>
      </trkpt>
      <trkpt lat="46.8952" lon="5.02418">
        <ele>204.42</ele>
        <time>2014-07-05T09:52:42Z</time>
      </trkpt>
      <trkpt lat="46.89514" lon="5.02421">
        <ele>204.42</ele>
        <time>2014-07-05T09:52:49Z</time>
      </trkpt>
      <trkpt lat="46.89506" lon="5.02401">
        <ele>203.46</ele>
        <time>2014-07-05T09:53:05Z</time>
      </trkpt>
      <trkpt lat="46.89512" lon="5.02397">
        <ele>203.46</ele>
        <time>2014-07-05T09:53:21Z</time>
      </trkpt>
      <trkpt lat="46.89512" lon="5.02393">
        <ele>203.46</ele>
        <time>2014-07-05T09:53:37Z</time>
      </trkpt>
      <trkpt lat="46.8951" lon="5.02392">
        <ele>202.98</ele>
        <time>2014-07-05T09:53:58Z</time>
      </trkpt>
      <trkpt lat="46.89515" lon="5.02395">
        <ele>202.49</ele>
        <time>2014-07-05T09:54:26Z</time>
      </trkpt>
      <trkpt lat="46.89513" lon="5.02396">
        <ele>202.49</ele>
        <time>2014-07-05T09:54:59Z</time>
      </trkpt>
      <trkpt lat="46.89515" lon="5.02395">
        <ele>202.49</ele>
        <time>2014-07-05T09:55:38Z</time>
      </trkpt>
      <trkpt lat="46.89515" lon="5.02398">
        <ele>202.01</ele>
        <time>2014-07-05T09:56:12Z</time>
      </trkpt>
      <trkpt lat="46.89514" lon="5.02398">
        <ele>202.01</ele>
        <time>2014-07-05T09:56:41Z</time>
      </trkpt>
      <trkpt lat="46.89515" lon="5.02404">
        <ele>201.53</ele>
        <time>2014-07-05T09:56:59Z</time>
      </trkpt>
      <trkpt lat="46.89516" lon="5.02404">
        <ele>202.01</ele>
        <time>2014-07-05T09:57:21Z</time>
      </trkpt>
      <trkpt lat="46.89514" lon="5.02406">
        <ele>201.53</ele>
        <time>2014-07-05T09:57:52Z</time>
      </trkpt>
      <trkpt lat="46.89506" lon="5.02415">
        <ele>201.53</ele>
        <time>2014-07-05T09:57:57Z</time>
      </trkpt>
      <trkpt lat="46.89507" lon="5.0242">
        <ele>201.53</ele>
        <time>2014-07-05T09:58:01Z</time>
      </trkpt>
      <trkpt lat="46.89516" lon="5.02423">
        <ele>202.01</ele>
        <time>2014-07-05T09:58:07Z</time>
      </trkpt>
      <trkpt lat="46.89526" lon="5.02432">
        <ele>202.98</ele>
        <time>2014-07-05T09:58:20Z</time>
      </trkpt>
      <trkpt lat="46.89531" lon="5.02435">
        <ele>202.98</ele>
        <time>2014-07-05T09:58:25Z</time>
      </trkpt>
      <trkpt lat="46.89539" lon="5.02436">
        <ele>203.46</ele>
        <time>2014-07-05T09:58:30Z</time>
      </trkpt>
      <trkpt lat="46.89575" lon="5.02451">
        <ele>203.94</ele>
        <time>2014-07-05T09:58:46Z</time>
      </trkpt>
      <trkpt lat="46.89611" lon="5.02472">
        <ele>203.46</ele>
        <time>2014-07-05T09:58:59Z</time>
      </trkpt>
      <trkpt lat="46.89651" lon="5.02455">
        <ele>202.49</ele>
        <time>2014-07-05T09:59:10Z</time>
      </trkpt>
      <trkpt lat="46.89678" lon="5.02457">
        <ele>202.98</ele>
        <time>2014-07-05T09:59:20Z</time>
      </trkpt>
      <trkpt lat="46.89713" lon="5.02485">
        <ele>202.98</ele>
        <time>2014-07-05T09:59:34Z</time>
      </trkpt>
      <trkpt lat="46.89729" lon="5.02498">
        <ele>202.98</ele>
        <time>2014-07-05T09:59:41Z</time>
      </trkpt>
      <trkpt lat="46.89764" lon="5.02518">
        <ele>202.49</ele>
        <time>2014-07-05T09:59:53Z</time>
      </trkpt>
      <trkpt lat="46.89808" lon="5.02491">
        <ele>202.49</ele>
        <time>2014-07-05T10:00:07Z</time>
      </trkpt>
      <trkpt lat="46.89865" lon="5.02446">
        <ele>202.01</ele>
        <time>2014-07-05T10:00:25Z</time>
      </trkpt>
      <trkpt lat="46.89914" lon="5.02375">
        <ele>201.53</ele>
        <time>2014-07-05T10:00:43Z</time>
      </trkpt>
      <trkpt lat="46.89962" lon="5.02313">
        <ele>201.05</ele>
        <time>2014-07-05T10:01:00Z</time>
      </trkpt>
      <trkpt lat="46.90008" lon="5.02252">
        <ele>201.05</ele>
        <time>2014-07-05T10:01:16Z</time>
      </trkpt>
      <trkpt lat="46.90069" lon="5.02181">
        <ele>201.53</ele>
        <time>2014-07-05T10:01:36Z</time>
      </trkpt>
      <trkpt lat="46.90115" lon="5.02171">
        <ele>202.98</ele>
        <time>2014-07-05T10:01:50Z</time>
      </trkpt>
      <trkpt lat="46.90157" lon="5.02193">
        <ele>205.38</ele>
        <time>2014-07-05T10:02:07Z</time>
      </trkpt>
      <trkpt lat="46.90194" lon="5.02222">
        <ele>206.82</ele>
        <time>2014-07-05T10:02:27Z</time>
      </trkpt>
      <trkpt lat="46.9023" lon="5.02248">
        <ele>207.78</ele>
        <time>2014-07-05T10:02:45Z</time>
      </trkpt>
      <trkpt lat="46.90269" lon="5.02278">
        <ele>206.34</ele>
        <time>2014-07-05T10:03:00Z</time>
      </trkpt>
      <trkpt lat="46.90302" lon="5.02303">
        <ele>205.38</ele>
        <time>2014-07-05T10:03:10Z</time>
      </trkpt>
      <trkpt lat="46.90325" lon="5.02335">
        <ele>203.46</ele>
        <time>2014-07-05T10:03:16Z</time>
      </trkpt>
      <trkpt lat="46.90354" lon="5.02448">
        <ele>200.57</ele>
        <time>2014-07-05T10:03:29Z</time>
      </trkpt>
      <trkpt lat="46.90374" lon="5.02458">
        <ele>199.61</ele>
        <time>2014-07-05T10:03:36Z</time>
      </trkpt>
      <trkpt lat="46.90371" lon="5.02439">
        <ele>199.61</ele>
        <time>2014-07-05T10:03:40Z</time>
      </trkpt>
      <trkpt lat="46.90361" lon="5.02416">
        <ele>199.13</ele>
        <time>2014-07-05T10:03:45Z</time>
      </trkpt>
      <trkpt lat="46.90353" lon="5.02394">
        <ele>198.65</ele>
        <time>2014-07-05T10:03:49Z</time>
      </trkpt>
      <trkpt lat="46.90331" lon="5.02311">
        <ele>197.69</ele>
        <time>2014-07-05T10:04:05Z</time>
      </trkpt>
      <trkpt lat="46.90325" lon="5.02255">
        <ele>197.21</ele>
        <time>2014-07-05T10:04:17Z</time>
      </trkpt>
      <trkpt lat="46.90339" lon="5.02224">
        <ele>197.21</ele>
        <time>2014-07-05T10:04:28Z</time>
      </trkpt>
      <trkpt lat="46.90342" lon="5.02224">
        <ele>196.73</ele>
        <time>2014-07-05T10:04:43Z</time>
      </trkpt>
      <trkpt lat="46.90343" lon="5.02227">
        <ele>196.73</ele>
        <time>2014-07-05T10:05:13Z</time>
      </trkpt>
      <trkpt lat="46.90345" lon="5.02227">
        <ele>196.73</ele>
        <time>2014-07-05T10:05:49Z</time>
      </trkpt>
      <trkpt lat="46.90344" lon="5.02226">
        <ele>196.73</ele>
        <time>2014-07-05T10:06:24Z</time>
      </trkpt>
      <trkpt lat="46.90344" lon="5.02227">
        <ele>196.25</ele>
        <time>2014-07-05T10:07:02Z</time>
      </trkpt>
      <trkpt lat="46.90343" lon="5.02226">
        <ele>196.25</ele>
        <time>2014-07-05T10:07:35Z</time>
      </trkpt>
      <trkpt lat="46.90343" lon="5.02228">
        <ele>195.77</ele>
        <time>2014-07-05T10:08:13Z</time>
      </trkpt>
      <trkpt lat="46.90344" lon="5.02227">
        <ele>195.77</ele>
        <time>2014-07-05T10:08:37Z</time>
      </trkpt>
      <trkpt lat="46.90348" lon="5.02206">
        <ele>195.77</ele>
        <time>2014-07-05T10:08:51Z</time>
      </trkpt>
      <trkpt lat="46.90367" lon="5.02151">
        <ele>196.25</ele>
        <time>2014-07-05T10:09:06Z</time>
      </trkpt>
      <trkpt lat="46.90394" lon="5.02079">
        <ele>196.25</ele>
        <time>2014-07-05T10:09:22Z</time>
      </trkpt>
      <trkpt lat="46.90427" lon="5.01989">
        <ele>195.77</ele>
        <time>2014-07-05T10:09:39Z</time>
      </trkpt>
      <trkpt lat="46.90467" lon="5.01882">
        <ele>195.28</ele>
        <time>2014-07-05T10:09:57Z</time>
      </trkpt>
      <trkpt lat="46.90514" lon="5.01769">
        <ele>195.28</ele>
        <time>2014-07-05T10:10:17Z</time>
      </trkpt>
      <trkpt lat="46.90561" lon="5.01665">
        <ele>195.28</ele>
        <time>2014-07-05T10:10:35Z</time>
      </trkpt>
      <trkpt lat="46.90609" lon="5.01568">
        <ele>194.8</ele>
        <time>2014-07-05T10:10:52Z</time>
      </trkpt>
      <trkpt lat="46.90663" lon="5.01464">
        <ele>195.28</ele>
        <time>2014-07-05T10:11:10Z</time>
      </trkpt>
      <trkpt lat="46.90723" lon="5.0135">
        <ele>195.28</ele>
        <time>2014-07-05T10:11:30Z</time>
      </trkpt>
      <trkpt lat="46.90758" lon="5.01236">
        <ele>195.28</ele>
        <time>2014-07-05T10:11:47Z</time>
      </trkpt>
      <trkpt lat="46.90782" lon="5.0111">
        <ele>194.32</ele>
        <time>2014-07-05T10:12:04Z</time>
      </trkpt>
      <trkpt lat="46.90791" lon="5.01028">
        <ele>193.84</ele>
        <time>2014-07-05T10:12:15Z</time>
      </trkpt>
      <trkpt lat="46.90787" lon="5.00892">
        <ele>193.84</ele>
        <time>2014-07-05T10:12:35Z</time>
      </trkpt>
      <trkpt lat="46.90783" lon="5.00838">
        <ele>193.84</ele>
        <time>2014-07-05T10:12:43Z</time>
      </trkpt>
      <trkpt lat="46.90783" lon="5.00813">
        <ele>194.32</ele>
        <time>2014-07-05T10:12:47Z</time>
      </trkpt>
      <trkpt lat="46.90778" lon="5.00736">
        <ele>196.73</ele>
        <time>2014-07-05T10:13:04Z</time>
      </trkpt>
      <trkpt lat="46.90765" lon="5.00669">
        <ele>195.77</ele>
        <time>2014-07-05T10:13:19Z</time>
      </trkpt>
      <trkpt lat="46.90724" lon="5.00558">
        <ele>193.36</ele>
        <time>2014-07-05T10:13:36Z</time>
      </trkpt>
      <trkpt lat="46.90711" lon="5.00529">
        <ele>193.36</ele>
        <time>2014-07-05T10:13:43Z</time>
      </trkpt>
      <trkpt lat="46.90702" lon="5.00505">
        <ele>193.36</ele>
        <time>2014-07-05T10:13:48Z</time>
      </trkpt>
      <trkpt lat="46.90697" lon="5.00495">
        <ele>193.36</ele>
        <time>2014-07-05T10:13:50Z</time>
      </trkpt>
      <trkpt lat="46.90661" lon="5.00429">
        <ele>193.36</ele>
        <time>2014-07-05T10:14:05Z</time>
      </trkpt>
      <trkpt lat="46.9063" lon="5.00372">
        <ele>192.88</ele>
        <time>2014-07-05T10:14:19Z</time>
      </trkpt>
      <trkpt lat="46.90624" lon="5.00367">
        <ele>192.88</ele>
        <time>2014-07-05T10:14:23Z</time>
      </trkpt>
      <trkpt lat="46.90606" lon="5.00331">
        <ele>192.88</ele>
        <time>2014-07-05T10:14:37Z</time>
      </trkpt>
      <trkpt lat="46.9057" lon="5.00268">
        <ele>192.88</ele>
        <time>2014-07-05T10:14:54Z</time>
      </trkpt>
      <trkpt lat="46.90531" lon="5.00202">
        <ele>192.88</ele>
        <time>2014-07-05T10:15:11Z</time>
      </trkpt>
      <trkpt lat="46.90514" lon="5.00172">
        <ele>192.88</ele>
        <time>2014-07-05T10:15:19Z</time>
      </trkpt>
      <trkpt lat="46.90505" lon="5.00157">
        <ele>192.88</ele>
        <time>2014-07-05T10:15:26Z</time>
      </trkpt>
      <trkpt lat="46.90471" lon="5.00096">
        <ele>192.88</ele>
        <time>2014-07-05T10:15:44Z</time>
      </trkpt>
      <trkpt lat="46.90439" lon="5.00041">
        <ele>192.88</ele>
        <time>2014-07-05T10:15:59Z</time>
      </trkpt>
      <trkpt lat="46.904" lon="4.99973">
        <ele>192.88</ele>
        <time>2014-07-05T10:16:16Z</time>
      </trkpt>
      <trkpt lat="46.90367" lon="4.99915">
        <ele>192.4</ele>
        <time>2014-07-05T10:16:32Z</time>
      </trkpt>
      <trkpt lat="46.90352" lon="4.99856">
        <ele>192.88</ele>
        <time>2014-07-05T10:16:47Z</time>
      </trkpt>
      <trkpt lat="46.9036" lon="4.9984">
        <ele>194.32</ele>
        <time>2014-07-05T10:16:53Z</time>
      </trkpt>
      <trkpt lat="46.9035" lon="4.99823">
        <ele>193.84</ele>
        <time>2014-07-05T10:16:59Z</time>
      </trkpt>
      <trkpt lat="46.90334" lon="4.99789">
        <ele>193.36</ele>
        <time>2014-07-05T10:17:09Z</time>
      </trkpt>
      <trkpt lat="46.9037" lon="4.99742">
        <ele>192.88</ele>
        <time>2014-07-05T10:17:22Z</time>
      </trkpt>
      <trkpt lat="46.9041" lon="4.99686">
        <ele>192.88</ele>
        <time>2014-07-05T10:17:38Z</time>
      </trkpt>
      <trkpt lat="46.90454" lon="4.996">
        <ele>192.88</ele>
        <time>2014-07-05T10:17:56Z</time>
      </trkpt>
      <trkpt lat="46.90482" lon="4.99521">
        <ele>191.92</ele>
        <time>2014-07-05T10:18:11Z</time>
      </trkpt>
      <trkpt lat="46.90485" lon="4.99498">
        <ele>192.4</ele>
        <time>2014-07-05T10:18:15Z</time>
      </trkpt>
      <trkpt lat="46.90488" lon="4.99408">
        <ele>191.92</ele>
        <time>2014-07-05T10:18:30Z</time>
      </trkpt>
      <trkpt lat="46.90488" lon="4.99402">
        <ele>191.92</ele>
        <time>2014-07-05T10:18:31Z</time>
      </trkpt>
      <trkpt lat="46.90495" lon="4.99322">
        <ele>192.4</ele>
        <time>2014-07-05T10:18:46Z</time>
      </trkpt>
      <trkpt lat="46.90495" lon="4.99252">
        <ele>192.88</ele>
        <time>2014-07-05T10:18:58Z</time>
      </trkpt>
      <trkpt lat="46.90477" lon="4.99136">
        <ele>192.88</ele>
        <time>2014-07-05T10:19:19Z</time>
      </trkpt>
      <trkpt lat="46.90464" lon="4.99065">
        <ele>193.36</ele>
        <time>2014-07-05T10:19:35Z</time>
      </trkpt>
      <trkpt lat="46.9046" lon="4.99051">
        <ele>193.84</ele>
        <time>2014-07-05T10:19:40Z</time>
      </trkpt>
      <trkpt lat="46.90457" lon="4.9904">
        <ele>193.84</ele>
        <time>2014-07-05T10:19:44Z</time>
      </trkpt>
      <trkpt lat="46.9045" lon="4.99">
        <ele>192.88</ele>
        <time>2014-07-05T10:19:54Z</time>
      </trkpt>
      <trkpt lat="46.90451" lon="4.98996">
        <ele>192.88</ele>
        <time>2014-07-05T10:20:02Z</time>
      </trkpt>
      <trkpt lat="46.90444" lon="4.98965">
        <ele>192.88</ele>
        <time>2014-07-05T10:20:14Z</time>
      </trkpt>
      <trkpt lat="46.90431" lon="4.98897">
        <ele>192.4</ele>
        <time>2014-07-05T10:20:28Z</time>
      </trkpt>
      <trkpt lat="46.90409" lon="4.9881">
        <ele>191.92</ele>
        <time>2014-07-05T10:20:43Z</time>
      </trkpt>
      <trkpt lat="46.90381" lon="4.9873">
        <ele>193.36</ele>
        <time>2014-07-05T10:20:56Z</time>
      </trkpt>
      <trkpt lat="46.90366" lon="4.98601">
        <ele>191.92</ele>
        <time>2014-07-05T10:21:17Z</time>
      </trkpt>
      <trkpt lat="46.9035" lon="4.98488">
        <ele>191.44</ele>
        <time>2014-07-05T10:21:35Z</time>
      </trkpt>
      <trkpt lat="46.90323" lon="4.98373">
        <ele>190.96</ele>
        <time>2014-07-05T10:21:53Z</time>
      </trkpt>
      <trkpt lat="46.90316" lon="4.98335">
        <ele>190.96</ele>
        <time>2014-07-05T10:21:59Z</time>
      </trkpt>
      <trkpt lat="46.90302" lon="4.98247">
        <ele>191.92</ele>
        <time>2014-07-05T10:22:14Z</time>
      </trkpt>
      <trkpt lat="46.90302" lon="4.98235">
        <ele>191.92</ele>
        <time>2014-07-05T10:22:16Z</time>
      </trkpt>
      <trkpt lat="46.90304" lon="4.98122">
        <ele>190.96</ele>
        <time>2014-07-05T10:22:34Z</time>
      </trkpt>
      <trkpt lat="46.90298" lon="4.98004">
        <ele>190.96</ele>
        <time>2014-07-05T10:22:52Z</time>
      </trkpt>
      <trkpt lat="46.9028" lon="4.97863">
        <ele>190.48</ele>
        <time>2014-07-05T10:23:12Z</time>
      </trkpt>
      <trkpt lat="46.90257" lon="4.97765">
        <ele>190.96</ele>
        <time>2014-07-05T10:23:28Z</time>
      </trkpt>
      <trkpt lat="46.90246" lon="4.97689">
        <ele>192.4</ele>
        <time>2014-07-05T10:23:43Z</time>
      </trkpt>
      <trkpt lat="46.9023" lon="4.9765">
        <ele>191.44</ele>
        <time>2014-07-05T10:23:51Z</time>
      </trkpt>
      <trkpt lat="46.90198" lon="4.97516">
        <ele>189.52</ele>
        <time>2014-07-05T10:24:09Z</time>
      </trkpt>
      <trkpt lat="46.90186" lon="4.97465">
        <ele>189.52</ele>
        <time>2014-07-05T10:24:16Z</time>
      </trkpt>
      <trkpt lat="46.9016" lon="4.97345">
        <ele>189.52</ele>
        <time>2014-07-05T10:24:34Z</time>
      </trkpt>
      <trkpt lat="46.90141" lon="4.97266">
        <ele>190.48</ele>
        <time>2014-07-05T10:24:47Z</time>
      </trkpt>
      <trkpt lat="46.90133" lon="4.97244">
        <ele>190.48</ele>
        <time>2014-07-05T10:24:51Z</time>
      </trkpt>
      <trkpt lat="46.90107" lon="4.97161">
        <ele>191.44</ele>
        <time>2014-07-05T10:25:08Z</time>
      </trkpt>
      <trkpt lat="46.90087" lon="4.97088">
        <ele>191.92</ele>
        <time>2014-07-05T10:25:23Z</time>
      </trkpt>
      <trkpt lat="46.90073" lon="4.97081">
        <ele>191.92</ele>
        <time>2014-07-05T10:25:28Z</time>
      </trkpt>
      <trkpt lat="46.90058" lon="4.97086">
        <ele>191.44</ele>
        <time>2014-07-05T10:25:32Z</time>
      </trkpt>
      <trkpt lat="46.90041" lon="4.97091">
        <ele>190.48</ele>
        <time>2014-07-05T10:25:36Z</time>
      </trkpt>
      <trkpt lat="46.89951" lon="4.97111">
        <ele>188.56</ele>
        <time>2014-07-05T10:25:54Z</time>
      </trkpt>
      <trkpt lat="46.89882" lon="4.97126">
        <ele>189.04</ele>
        <time>2014-07-05T10:26:08Z</time>
      </trkpt>
      <trkpt lat="46.89818" lon="4.9714">
        <ele>189.04</ele>
        <time>2014-07-05T10:26:23Z</time>
      </trkpt>
      <trkpt lat="46.89782" lon="4.97147">
        <ele>190</ele>
        <time>2014-07-05T10:26:32Z</time>
      </trkpt>
      <trkpt lat="46.89757" lon="4.97139">
        <ele>190</ele>
        <time>2014-07-05T10:26:39Z</time>
      </trkpt>
      <trkpt lat="46.89705" lon="4.97055">
        <ele>189.52</ele>
        <time>2014-07-05T10:26:57Z</time>
      </trkpt>
      <trkpt lat="46.89641" lon="4.96966">
        <ele>189.52</ele>
        <time>2014-07-05T10:27:17Z</time>
      </trkpt>
      <trkpt lat="46.89614" lon="4.96925">
        <ele>189.52</ele>
        <time>2014-07-05T10:27:26Z</time>
      </trkpt>
      <trkpt lat="46.89581" lon="4.96867">
        <ele>190</ele>
        <time>2014-07-05T10:27:39Z</time>
      </trkpt>
      <trkpt lat="46.89574" lon="4.96858">
        <ele>189.52</ele>
        <time>2014-07-05T10:27:41Z</time>
      </trkpt>
      <trkpt lat="46.89567" lon="4.96848">
        <ele>189.52</ele>
        <time>2014-07-05T10:27:43Z</time>
      </trkpt>
      <trkpt lat="46.8956" lon="4.96832">
        <ele>190</ele>
        <time>2014-07-05T10:27:46Z</time>
      </trkpt>
      <trkpt lat="46.89547" lon="4.968">
        <ele>189.52</ele>
        <time>2014-07-05T10:27:52Z</time>
      </trkpt>
      <trkpt lat="46.89534" lon="4.96767">
        <ele>190</ele>
        <time>2014-07-05T10:27:58Z</time>
      </trkpt>
      <trkpt lat="46.89489" lon="4.96683">
        <ele>190</ele>
        <time>2014-07-05T10:28:15Z</time>
      </trkpt>
      <trkpt lat="46.89452" lon="4.96593">
        <ele>190</ele>
        <time>2014-07-05T10:28:31Z</time>
      </trkpt>
      <trkpt lat="46.89413" lon="4.96507">
        <ele>189.52</ele>
        <time>2014-07-05T10:28:47Z</time>
      </trkpt>
      <trkpt lat="46.89408" lon="4.96495">
        <ele>189.52</ele>
        <time>2014-07-05T10:28:49Z</time>
      </trkpt>
      <trkpt lat="46.89403" lon="4.9644">
        <ele>189.52</ele>
        <time>2014-07-05T10:28:59Z</time>
      </trkpt>
      <trkpt lat="46.89401" lon="4.96435">
        <ele>189.52</ele>
        <time>2014-07-05T10:29:00Z</time>
      </trkpt>
      <trkpt lat="46.89394" lon="4.96413">
        <ele>189.52</ele>
        <time>2014-07-05T10:29:04Z</time>
      </trkpt>
      <trkpt lat="46.89379" lon="4.96303">
        <ele>188.08</ele>
        <time>2014-07-05T10:29:20Z</time>
      </trkpt>
      <trkpt lat="46.89369" lon="4.96172">
        <ele>187.59</ele>
        <time>2014-07-05T10:29:39Z</time>
      </trkpt>
      <trkpt lat="46.89363" lon="4.9603">
        <ele>187.59</ele>
        <time>2014-07-05T10:29:59Z</time>
      </trkpt>
      <trkpt lat="46.89354" lon="4.95922">
        <ele>187.59</ele>
        <time>2014-07-05T10:30:14Z</time>
      </trkpt>
      <trkpt lat="46.89341" lon="4.95803">
        <ele>187.59</ele>
        <time>2014-07-05T10:30:32Z</time>
      </trkpt>
      <trkpt lat="46.89318" lon="4.95687">
        <ele>187.59</ele>
        <time>2014-07-05T10:30:51Z</time>
      </trkpt>
      <trkpt lat="46.89304" lon="4.95603">
        <ele>188.08</ele>
        <time>2014-07-05T10:31:06Z</time>
      </trkpt>
      <trkpt lat="46.89284" lon="4.95529">
        <ele>188.56</ele>
        <time>2014-07-05T10:31:21Z</time>
      </trkpt>
      <trkpt lat="46.89266" lon="4.95497">
        <ele>188.08</ele>
        <time>2014-07-05T10:31:28Z</time>
      </trkpt>
      <trkpt lat="46.8924" lon="4.95441">
        <ele>188.08</ele>
        <time>2014-07-05T10:31:40Z</time>
      </trkpt>
      <trkpt lat="46.8922" lon="4.95405">
        <ele>189.04</ele>
        <time>2014-07-05T10:31:51Z</time>
      </trkpt>
      <trkpt lat="46.89201" lon="4.95365">
        <ele>190.48</ele>
        <time>2014-07-05T10:32:03Z</time>
      </trkpt>
      <trkpt lat="46.89185" lon="4.95337">
        <ele>191.92</ele>
        <time>2014-07-05T10:32:15Z</time>
      </trkpt>
      <trkpt lat="46.89155" lon="4.9532">
        <ele>192.4</ele>
        <time>2014-07-05T10:32:27Z</time>
      </trkpt>
      <trkpt lat="46.89117" lon="4.95291">
        <ele>191.92</ele>
        <time>2014-07-05T10:32:39Z</time>
      </trkpt>
      <trkpt lat="46.89092" lon="4.95257">
        <ele>190.48</ele>
        <time>2014-07-05T10:32:48Z</time>
      </trkpt>
      <trkpt lat="46.89079" lon="4.95244">
        <ele>189.04</ele>
        <time>2014-07-05T10:32:51Z</time>
      </trkpt>
      <trkpt lat="46.89064" lon="4.95242">
        <ele>190.96</ele>
        <time>2014-07-05T10:32:55Z</time>
      </trkpt>
      <trkpt lat="46.89021" lon="4.95233">
        <ele>192.4</ele>
        <time>2014-07-05T10:33:10Z</time>
      </trkpt>
      <trkpt lat="46.8899" lon="4.95213">
        <ele>194.8</ele>
        <time>2014-07-05T10:33:24Z</time>
      </trkpt>
      <trkpt lat="46.88949" lon="4.95188">
        <ele>194.32</ele>
        <time>2014-07-05T10:33:40Z</time>
      </trkpt>
      <trkpt lat="46.88941" lon="4.9518">
        <ele>194.32</ele>
        <time>2014-07-05T10:33:44Z</time>
      </trkpt>
      <trkpt lat="46.8894" lon="4.95158">
        <ele>195.77</ele>
        <time>2014-07-05T10:33:52Z</time>
      </trkpt>
      <trkpt lat="46.88928" lon="4.95121">
        <ele>198.65</ele>
        <time>2014-07-05T10:34:09Z</time>
      </trkpt>
      <trkpt lat="46.88921" lon="4.95105">
        <ele>199.61</ele>
        <time>2014-07-05T10:34:17Z</time>
      </trkpt>
      <trkpt lat="46.88901" lon="4.9507">
        <ele>201.05</ele>
        <time>2014-07-05T10:34:33Z</time>
      </trkpt>
      <trkpt lat="46.88869" lon="4.9505">
        <ele>200.09</ele>
        <time>2014-07-05T10:34:46Z</time>
      </trkpt>
      <trkpt lat="46.88847" lon="4.95016">
        <ele>200.57</ele>
        <time>2014-07-05T10:34:59Z</time>
      </trkpt>
      <trkpt lat="46.88846" lon="4.95014">
        <ele>200.57</ele>
        <time>2014-07-05T10:35:00Z</time>
      </trkpt>
      <trkpt lat="46.88844" lon="4.95002">
        <ele>202.01</ele>
        <time>2014-07-05T10:35:05Z</time>
      </trkpt>
      <trkpt lat="46.88825" lon="4.94957">
        <ele>199.13</ele>
        <time>2014-07-05T10:35:19Z</time>
      </trkpt>
      <trkpt lat="46.88821" lon="4.94954">
        <ele>198.65</ele>
        <time>2014-07-05T10:35:20Z</time>
      </trkpt>
      <trkpt lat="46.88805" lon="4.94947">
        <ele>198.65</ele>
        <time>2014-07-05T10:35:24Z</time>
      </trkpt>
      <trkpt lat="46.88749" lon="4.94908">
        <ele>200.09</ele>
        <time>2014-07-05T10:35:41Z</time>
      </trkpt>
      <trkpt lat="46.88701" lon="4.94893">
        <ele>200.57</ele>
        <time>2014-07-05T10:35:55Z</time>
      </trkpt>
      <trkpt lat="46.88631" lon="4.94864">
        <ele>200.57</ele>
        <time>2014-07-05T10:36:15Z</time>
      </trkpt>
      <trkpt lat="46.88577" lon="4.94835">
        <ele>200.57</ele>
        <time>2014-07-05T10:36:31Z</time>
      </trkpt>
      <trkpt lat="46.88519" lon="4.94803">
        <ele>200.57</ele>
        <time>2014-07-05T10:36:47Z</time>
      </trkpt>
      <trkpt lat="46.88476" lon="4.94773">
        <ele>200.09</ele>
        <time>2014-07-05T10:37:01Z</time>
      </trkpt>
      <trkpt lat="46.88464" lon="4.9479">
        <ele>200.09</ele>
        <time>2014-07-05T10:37:06Z</time>
      </trkpt>
      <trkpt lat="46.8845" lon="4.94835">
        <ele>196.73</ele>
        <time>2014-07-05T10:37:14Z</time>
      </trkpt>
      <trkpt lat="46.88443" lon="4.94858">
        <ele>195.77</ele>
        <time>2014-07-05T10:37:18Z</time>
      </trkpt>
      <trkpt lat="46.88439" lon="4.94881">
        <ele>193.84</ele>
        <time>2014-07-05T10:37:22Z</time>
      </trkpt>
      <trkpt lat="46.88432" lon="4.94912">
        <ele>192.4</ele>
        <time>2014-07-05T10:37:27Z</time>
      </trkpt>
      <trkpt lat="46.88434" lon="4.94934">
        <ele>191.44</ele>
        <time>2014-07-05T10:37:30Z</time>
      </trkpt>
      <trkpt lat="46.88431" lon="4.95003">
        <ele>188.08</ele>
        <time>2014-07-05T10:37:44Z</time>
      </trkpt>
      <trkpt lat="46.88407" lon="4.95011">
        <ele>186.63</ele>
        <time>2014-07-05T10:37:50Z</time>
      </trkpt>
      <trkpt lat="46.88355" lon="4.95021">
        <ele>186.63</ele>
        <time>2014-07-05T10:38:05Z</time>
      </trkpt>
      <trkpt lat="46.883" lon="4.9504">
        <ele>186.15</ele>
        <time>2014-07-05T10:38:21Z</time>
      </trkpt>
      <trkpt lat="46.88227" lon="4.9507">
        <ele>186.15</ele>
        <time>2014-07-05T10:38:40Z</time>
      </trkpt>
      <trkpt lat="46.88151" lon="4.95111">
        <ele>186.15</ele>
        <time>2014-07-05T10:39:00Z</time>
      </trkpt>
      <trkpt lat="46.88093" lon="4.95151">
        <ele>185.67</ele>
        <time>2014-07-05T10:39:18Z</time>
      </trkpt>
      <trkpt lat="46.8804" lon="4.95185">
        <ele>185.67</ele>
        <time>2014-07-05T10:39:35Z</time>
      </trkpt>
      <trkpt lat="46.87982" lon="4.95239">
        <ele>185.67</ele>
        <time>2014-07-05T10:39:54Z</time>
      </trkpt>
      <trkpt lat="46.87957" lon="4.95274">
        <ele>185.67</ele>
        <time>2014-07-05T10:40:05Z</time>
      </trkpt>
      <trkpt lat="46.87922" lon="4.95332">
        <ele>185.19</ele>
        <time>2014-07-05T10:40:20Z</time>
      </trkpt>
      <trkpt lat="46.87885" lon="4.95386">
        <ele>185.67</ele>
        <time>2014-07-05T10:40:33Z</time>
      </trkpt>
      <trkpt lat="46.87824" lon="4.9546">
        <ele>185.19</ele>
        <time>2014-07-05T10:40:52Z</time>
      </trkpt>
      <trkpt lat="46.87789" lon="4.95499">
        <ele>185.19</ele>
        <time>2014-07-05T10:41:04Z</time>
      </trkpt>
      <trkpt lat="46.8775" lon="4.9556">
        <ele>185.67</ele>
        <time>2014-07-05T10:41:19Z</time>
      </trkpt>
      <trkpt lat="46.87739" lon="4.95577">
        <ele>185.19</ele>
        <time>2014-07-05T10:41:23Z</time>
      </trkpt>
      <trkpt lat="46.87692" lon="4.9567">
        <ele>185.19</ele>
        <time>2014-07-05T10:41:42Z</time>
      </trkpt>
      <trkpt lat="46.87651" lon="4.95745">
        <ele>185.67</ele>
        <time>2014-07-05T10:41:59Z</time>
      </trkpt>
      <trkpt lat="46.87604" lon="4.95841">
        <ele>185.19</ele>
        <time>2014-07-05T10:42:19Z</time>
      </trkpt>
      <trkpt lat="46.87596" lon="4.95856">
        <ele>185.19</ele>
        <time>2014-07-05T10:42:22Z</time>
      </trkpt>
      <trkpt lat="46.87546" lon="4.95954">
        <ele>185.67</ele>
        <time>2014-07-05T10:42:42Z</time>
      </trkpt>
      <trkpt lat="46.87492" lon="4.96042">
        <ele>186.15</ele>
        <time>2014-07-05T10:43:03Z</time>
      </trkpt>
      <trkpt lat="46.87445" lon="4.96123">
        <ele>186.15</ele>
        <time>2014-07-05T10:43:22Z</time>
      </trkpt>
      <trkpt lat="46.87411" lon="4.96191">
        <ele>186.15</ele>
        <time>2014-07-05T10:43:37Z</time>
      </trkpt>
      <trkpt lat="46.87372" lon="4.96256">
        <ele>185.67</ele>
        <time>2014-07-05T10:43:52Z</time>
      </trkpt>
      <trkpt lat="46.8731" lon="4.96311">
        <ele>185.19</ele>
        <time>2014-07-05T10:44:09Z</time>
      </trkpt>
      <trkpt lat="46.87247" lon="4.96358">
        <ele>185.67</ele>
        <time>2014-07-05T10:44:27Z</time>
      </trkpt>
      <trkpt lat="46.8719" lon="4.96371">
        <ele>185.67</ele>
        <time>2014-07-05T10:44:42Z</time>
      </trkpt>
      <trkpt lat="46.87152" lon="4.96369">
        <ele>185.67</ele>
        <time>2014-07-05T10:44:51Z</time>
      </trkpt>
      <trkpt lat="46.87082" lon="4.96332">
        <ele>185.19</ele>
        <time>2014-07-05T10:45:09Z</time>
      </trkpt>
      <trkpt lat="46.87021" lon="4.96272">
        <ele>185.19</ele>
        <time>2014-07-05T10:45:25Z</time>
      </trkpt>
      <trkpt lat="46.86996" lon="4.96248">
        <ele>184.71</ele>
        <time>2014-07-05T10:45:31Z</time>
      </trkpt>
      <trkpt lat="46.86992" lon="4.96225">
        <ele>185.19</ele>
        <time>2014-07-05T10:45:35Z</time>
      </trkpt>
      <trkpt lat="46.86996" lon="4.96215">
        <ele>185.19</ele>
        <time>2014-07-05T10:45:37Z</time>
      </trkpt>
      <trkpt lat="46.87001" lon="4.96205">
        <ele>185.19</ele>
        <time>2014-07-05T10:45:39Z</time>
      </trkpt>
      <trkpt lat="46.87006" lon="4.96196">
        <ele>185.19</ele>
        <time>2014-07-05T10:45:41Z</time>
      </trkpt>
      <trkpt lat="46.87031" lon="4.96149">
        <ele>184.71</ele>
        <time>2014-07-05T10:45:50Z</time>
      </trkpt>
      <trkpt lat="46.87056" lon="4.961">
        <ele>184.71</ele>
        <time>2014-07-05T10:46:00Z</time>
      </trkpt>
      <trkpt lat="46.87048" lon="4.96063">
        <ele>183.75</ele>
        <time>2014-07-05T10:46:07Z</time>
      </trkpt>
      <trkpt lat="46.87014" lon="4.96034">
        <ele>184.71</ele>
        <time>2014-07-05T10:46:17Z</time>
      </trkpt>
      <trkpt lat="46.86996" lon="4.96018">
        <ele>184.71</ele>
        <time>2014-07-05T10:46:22Z</time>
      </trkpt>
      <trkpt lat="46.86988" lon="4.96011">
        <ele>184.71</ele>
        <time>2014-07-05T10:46:24Z</time>
      </trkpt>
      <trkpt lat="46.86971" lon="4.96">
        <ele>184.71</ele>
        <time>2014-07-05T10:46:28Z</time>
      </trkpt>
      <trkpt lat="46.86931" lon="4.95985">
        <ele>184.23</ele>
        <time>2014-07-05T10:46:37Z</time>
      </trkpt>
      <trkpt lat="46.86914" lon="4.95963">
        <ele>184.23</ele>
        <time>2014-07-05T10:46:42Z</time>
      </trkpt>
      <trkpt lat="46.86864" lon="4.95852">
        <ele>183.75</ele>
        <time>2014-07-05T10:47:01Z</time>
      </trkpt>
      <trkpt lat="46.86823" lon="4.95753">
        <ele>183.75</ele>
        <time>2014-07-05T10:47:20Z</time>
      </trkpt>
      <trkpt lat="46.86797" lon="4.957">
        <ele>183.27</ele>
        <time>2014-07-05T10:47:33Z</time>
      </trkpt>
      <trkpt lat="46.86773" lon="4.95657">
        <ele>183.75</ele>
        <time>2014-07-05T10:47:48Z</time>
      </trkpt>
      <trkpt lat="46.86738" lon="4.95596">
        <ele>183.75</ele>
        <time>2014-07-05T10:48:04Z</time>
      </trkpt>
      <trkpt lat="46.86703" lon="4.95538">
        <ele>183.75</ele>
        <time>2014-07-05T10:48:20Z</time>
      </trkpt>
      <trkpt lat="46.86655" lon="4.95473">
        <ele>184.23</ele>
        <time>2014-07-05T10:48:39Z</time>
      </trkpt>
      <trkpt lat="46.86607" lon="4.95438">
        <ele>183.75</ele>
        <time>2014-07-05T10:48:56Z</time>
      </trkpt>
      <trkpt lat="46.8656" lon="4.95413">
        <ele>184.23</ele>
        <time>2014-07-05T10:49:11Z</time>
      </trkpt>
      <trkpt lat="46.86495" lon="4.95391">
        <ele>184.23</ele>
        <time>2014-07-05T10:49:30Z</time>
      </trkpt>
      <trkpt lat="46.86418" lon="4.9539">
        <ele>184.23</ele>
        <time>2014-07-05T10:49:50Z</time>
      </trkpt>
      <trkpt lat="46.86395" lon="4.95396">
        <ele>184.71</ele>
        <time>2014-07-05T10:49:59Z</time>
      </trkpt>
      <trkpt lat="46.86379" lon="4.95398">
        <ele>184.23</ele>
        <time>2014-07-05T10:50:10Z</time>
      </trkpt>
      <trkpt lat="46.86338" lon="4.95407">
        <ele>184.23</ele>
        <time>2014-07-05T10:50:25Z</time>
      </trkpt>
      <trkpt lat="46.86294" lon="4.95408">
        <ele>184.71</ele>
        <time>2014-07-05T10:50:42Z</time>
      </trkpt>
      <trkpt lat="46.86259" lon="4.95423">
        <ele>184.71</ele>
        <time>2014-07-05T10:50:56Z</time>
      </trkpt>
      <trkpt lat="46.86204" lon="4.95459">
        <ele>184.71</ele>
        <time>2014-07-05T10:51:14Z</time>
      </trkpt>
      <trkpt lat="46.86138" lon="4.95501">
        <ele>183.75</ele>
        <time>2014-07-05T10:51:32Z</time>
      </trkpt>
      <trkpt lat="46.86075" lon="4.95554">
        <ele>184.23</ele>
        <time>2014-07-05T10:51:51Z</time>
      </trkpt>
      <trkpt lat="46.85997" lon="4.9561">
        <ele>184.71</ele>
        <time>2014-07-05T10:52:12Z</time>
      </trkpt>
      <trkpt lat="46.85935" lon="4.95656">
        <ele>184.71</ele>
        <time>2014-07-05T10:52:29Z</time>
      </trkpt>
      <trkpt lat="46.85892" lon="4.95704">
        <ele>183.75</ele>
        <time>2014-07-05T10:52:42Z</time>
      </trkpt>
      <trkpt lat="46.85841" lon="4.95777">
        <ele>184.23</ele>
        <time>2014-07-05T10:53:00Z</time>
      </trkpt>
      <trkpt lat="46.85838" lon="4.95781">
        <ele>184.23</ele>
        <time>2014-07-05T10:53:01Z</time>
      </trkpt>
      <trkpt lat="46.85788" lon="4.95879">
        <ele>183.27</ele>
        <time>2014-07-05T10:53:22Z</time>
      </trkpt>
      <trkpt lat="46.85756" lon="4.95968">
        <ele>184.23</ele>
        <time>2014-07-05T10:53:39Z</time>
      </trkpt>
      <trkpt lat="46.85754" lon="4.95973">
        <ele>184.23</ele>
        <time>2014-07-05T10:53:40Z</time>
      </trkpt>
      <trkpt lat="46.85723" lon="4.96064">
        <ele>184.23</ele>
        <time>2014-07-05T10:53:57Z</time>
      </trkpt>
      <trkpt lat="46.85675" lon="4.96129">
        <ele>184.23</ele>
        <time>2014-07-05T10:54:13Z</time>
      </trkpt>
      <trkpt lat="46.85622" lon="4.9619">
        <ele>184.23</ele>
        <time>2014-07-05T10:54:30Z</time>
      </trkpt>
      <trkpt lat="46.85576" lon="4.96233">
        <ele>183.75</ele>
        <time>2014-07-05T10:54:44Z</time>
      </trkpt>
      <trkpt lat="46.85511" lon="4.96284">
        <ele>183.75</ele>
        <time>2014-07-05T10:55:03Z</time>
      </trkpt>
      <trkpt lat="46.85485" lon="4.96297">
        <ele>183.27</ele>
        <time>2014-07-05T10:55:09Z</time>
      </trkpt>
      <trkpt lat="46.85428" lon="4.96312">
        <ele>183.75</ele>
        <time>2014-07-05T10:55:24Z</time>
      </trkpt>
      <trkpt lat="46.85392" lon="4.96313">
        <ele>183.75</ele>
        <time>2014-07-05T10:55:36Z</time>
      </trkpt>
      <trkpt lat="46.8534" lon="4.96299">
        <ele>183.27</ele>
        <time>2014-07-05T10:55:52Z</time>
      </trkpt>
      <trkpt lat="46.85296" lon="4.96276">
        <ele>183.75</ele>
        <time>2014-07-05T10:56:07Z</time>
      </trkpt>
      <trkpt lat="46.85231" lon="4.9624">
        <ele>182.79</ele>
        <time>2014-07-05T10:56:26Z</time>
      </trkpt>
      <trkpt lat="46.85164" lon="4.96204">
        <ele>183.27</ele>
        <time>2014-07-05T10:56:45Z</time>
      </trkpt>
      <trkpt lat="46.8511" lon="4.96176">
        <ele>183.27</ele>
        <time>2014-07-05T10:57:02Z</time>
      </trkpt>
      <trkpt lat="46.85073" lon="4.96162">
        <ele>183.27</ele>
        <time>2014-07-05T10:57:18Z</time>
      </trkpt>
      <trkpt lat="46.85038" lon="4.96153">
        <ele>183.27</ele>
        <time>2014-07-05T10:57:30Z</time>
      </trkpt>
      <trkpt lat="46.84964" lon="4.96144">
        <ele>183.27</ele>
        <time>2014-07-05T10:57:51Z</time>
      </trkpt>
      <trkpt lat="46.84908" lon="4.96145">
        <ele>184.23</ele>
        <time>2014-07-05T10:58:07Z</time>
      </trkpt>
      <trkpt lat="46.84849" lon="4.96158">
        <ele>184.23</ele>
        <time>2014-07-05T10:58:24Z</time>
      </trkpt>
      <trkpt lat="46.84801" lon="4.96184">
        <ele>183.75</ele>
        <time>2014-07-05T10:58:41Z</time>
      </trkpt>
      <trkpt lat="46.84748" lon="4.96209">
        <ele>183.27</ele>
        <time>2014-07-05T10:58:58Z</time>
      </trkpt>
      <trkpt lat="46.84689" lon="4.96234">
        <ele>184.23</ele>
        <time>2014-07-05T10:59:15Z</time>
      </trkpt>
      <trkpt lat="46.84632" lon="4.96253">
        <ele>184.23</ele>
        <time>2014-07-05T10:59:31Z</time>
      </trkpt>
      <trkpt lat="46.84575" lon="4.96271">
        <ele>184.23</ele>
        <time>2014-07-05T10:59:47Z</time>
      </trkpt>
      <trkpt lat="46.84516" lon="4.96286">
        <ele>183.75</ele>
        <time>2014-07-05T11:00:03Z</time>
      </trkpt>
      <trkpt lat="46.84457" lon="4.9628">
        <ele>183.75</ele>
        <time>2014-07-05T11:00:18Z</time>
      </trkpt>
      <trkpt lat="46.84399" lon="4.96264">
        <ele>183.27</ele>
        <time>2014-07-05T11:00:34Z</time>
      </trkpt>
      <trkpt lat="46.84336" lon="4.96245">
        <ele>183.27</ele>
        <time>2014-07-05T11:00:52Z</time>
      </trkpt>
      <trkpt lat="46.84335" lon="4.96245">
        <ele>183.27</ele>
        <time>2014-07-05T11:01:07Z</time>
      </trkpt>
      <trkpt lat="46.84331" lon="4.9624">
        <ele>183.27</ele>
        <time>2014-07-05T11:01:20Z</time>
      </trkpt>
      <trkpt lat="46.8433" lon="4.96239">
        <ele>183.27</ele>
        <time>2014-07-05T11:01:56Z</time>
      </trkpt>
      <trkpt lat="46.8433" lon="4.96239">
        <ele>183.27</ele>
        <time>2014-07-05T11:01:57Z</time>
      </trkpt>
      <trkpt lat="46.84333" lon="4.96249">
        <ele>177.98</ele>
        <time>2014-07-05T12:27:02Z</time>
      </trkpt>
      <trkpt lat="46.84334" lon="4.96253">
        <ele>179.9</ele>
        <time>2014-07-05T12:27:03Z</time>
      </trkpt>
      <trkpt lat="46.84334" lon="4.96254">
        <ele>207.3</ele>
        <time>2014-07-05T12:27:04Z</time>
      </trkpt>
      <trkpt lat="46.84336" lon="4.96255">
        <ele>205.86</ele>
        <time>2014-07-05T12:27:05Z</time>
      </trkpt>
      <trkpt lat="46.84341" lon="4.96252">
        <ele>203.94</ele>
        <time>2014-07-05T12:27:08Z</time>
      </trkpt>
      <trkpt lat="46.84339" lon="4.96251">
        <ele>199.13</ele>
        <time>2014-07-05T12:27:15Z</time>
      </trkpt>
      <trkpt lat="46.84339" lon="4.96249">
        <ele>195.77</ele>
        <time>2014-07-05T12:27:20Z</time>
      </trkpt>
      <trkpt lat="46.84336" lon="4.96246">
        <ele>193.84</ele>
        <time>2014-07-05T12:27:24Z</time>
      </trkpt>
      <trkpt lat="46.84335" lon="4.96246">
        <ele>191.92</ele>
        <time>2014-07-05T12:27:28Z</time>
      </trkpt>
      <trkpt lat="46.84334" lon="4.96245">
        <ele>190</ele>
        <time>2014-07-05T12:27:32Z</time>
      </trkpt>
      <trkpt lat="46.84335" lon="4.96244">
        <ele>187.11</ele>
        <time>2014-07-05T12:27:43Z</time>
      </trkpt>
      <trkpt lat="46.84333" lon="4.96246">
        <ele>184.71</ele>
        <time>2014-07-05T12:28:08Z</time>
      </trkpt>
      <trkpt lat="46.84333" lon="4.96247">
        <ele>184.23</ele>
        <time>2014-07-05T12:28:15Z</time>
      </trkpt>
      <trkpt lat="46.84328" lon="4.96247">
        <ele>184.71</ele>
        <time>2014-07-05T12:28:19Z</time>
      </trkpt>
      <trkpt lat="46.84302" lon="4.96238">
        <ele>184.23</ele>
        <time>2014-07-05T12:28:35Z</time>
      </trkpt>
      <trkpt lat="46.84273" lon="4.96217">
        <ele>183.75</ele>
        <time>2014-07-05T12:28:48Z</time>
      </trkpt>
      <trkpt lat="46.84263" lon="4.96208">
        <ele>183.75</ele>
        <time>2014-07-05T12:29:09Z</time>
      </trkpt>
      <trkpt lat="46.84261" lon="4.96206">
        <ele>183.75</ele>
        <time>2014-07-05T12:29:10Z</time>
      </trkpt>
      <trkpt lat="46.84232" lon="4.96178">
        <ele>184.23</ele>
        <time>2014-07-05T12:29:23Z</time>
      </trkpt>
      <trkpt lat="46.84192" lon="4.96139">
        <ele>184.71</ele>
        <time>2014-07-05T12:29:39Z</time>
      </trkpt>
      <trkpt lat="46.84144" lon="4.96095">
        <ele>184.23</ele>
        <time>2014-07-05T12:29:57Z</time>
      </trkpt>
      <trkpt lat="46.84087" lon="4.96041">
        <ele>184.23</ele>
        <time>2014-07-05T12:30:17Z</time>
      </trkpt>
      <trkpt lat="46.84027" lon="4.9599">
        <ele>184.23</ele>
        <time>2014-07-05T12:30:37Z</time>
      </trkpt>
      <trkpt lat="46.83966" lon="4.95937">
        <ele>184.23</ele>
        <time>2014-07-05T12:30:56Z</time>
      </trkpt>
      <trkpt lat="46.83936" lon="4.95899">
        <ele>184.71</ele>
        <time>2014-07-05T12:31:10Z</time>
      </trkpt>
      <trkpt lat="46.83934" lon="4.95895">
        <ele>184.71</ele>
        <time>2014-07-05T12:31:23Z</time>
      </trkpt>
      <trkpt lat="46.83933" lon="4.95896">
        <ele>184.71</ele>
        <time>2014-07-05T12:31:44Z</time>
      </trkpt>
      <trkpt lat="46.83919" lon="4.9588">
        <ele>184.71</ele>
        <time>2014-07-05T12:31:57Z</time>
      </trkpt>
      <trkpt lat="46.83887" lon="4.95843">
        <ele>184.71</ele>
        <time>2014-07-05T12:32:13Z</time>
      </trkpt>
      <trkpt lat="46.83845" lon="4.95798">
        <ele>184.23</ele>
        <time>2014-07-05T12:32:29Z</time>
      </trkpt>
      <trkpt lat="46.83796" lon="4.95742">
        <ele>184.23</ele>
        <time>2014-07-05T12:32:46Z</time>
      </trkpt>
      <trkpt lat="46.83761" lon="4.95684">
        <ele>184.23</ele>
        <time>2014-07-05T12:33:01Z</time>
      </trkpt>
      <trkpt lat="46.83712" lon="4.95613">
        <ele>184.23</ele>
        <time>2014-07-05T12:33:21Z</time>
      </trkpt>
      <trkpt lat="46.8365" lon="4.95539">
        <ele>183.75</ele>
        <time>2014-07-05T12:33:43Z</time>
      </trkpt>
      <trkpt lat="46.83596" lon="4.95478">
        <ele>184.23</ele>
        <time>2014-07-05T12:34:03Z</time>
      </trkpt>
      <trkpt lat="46.83549" lon="4.95432">
        <ele>184.71</ele>
        <time>2014-07-05T12:34:20Z</time>
      </trkpt>
      <trkpt lat="46.83492" lon="4.95375">
        <ele>184.23</ele>
        <time>2014-07-05T12:34:40Z</time>
      </trkpt>
      <trkpt lat="46.83431" lon="4.9531">
        <ele>184.71</ele>
        <time>2014-07-05T12:35:02Z</time>
      </trkpt>
      <trkpt lat="46.83388" lon="4.95256">
        <ele>184.23</ele>
        <time>2014-07-05T12:35:18Z</time>
      </trkpt>
      <trkpt lat="46.83338" lon="4.95194">
        <ele>184.23</ele>
        <time>2014-07-05T12:35:36Z</time>
      </trkpt>
      <trkpt lat="46.83282" lon="4.95126">
        <ele>183.75</ele>
        <time>2014-07-05T12:35:55Z</time>
      </trkpt>
      <trkpt lat="46.8323" lon="4.95068">
        <ele>184.71</ele>
        <time>2014-07-05T12:36:12Z</time>
      </trkpt>
      <trkpt lat="46.8318" lon="4.95012">
        <ele>183.75</ele>
        <time>2014-07-05T12:36:29Z</time>
      </trkpt>
      <trkpt lat="46.83121" lon="4.94928">
        <ele>184.23</ele>
        <time>2014-07-05T12:36:47Z</time>
      </trkpt>
      <trkpt lat="46.8306" lon="4.94844">
        <ele>183.75</ele>
        <time>2014-07-05T12:37:04Z</time>
      </trkpt>
      <trkpt lat="46.83045" lon="4.94821">
        <ele>184.23</ele>
        <time>2014-07-05T12:37:09Z</time>
      </trkpt>
      <trkpt lat="46.82992" lon="4.94742">
        <ele>184.23</ele>
        <time>2014-07-05T12:37:26Z</time>
      </trkpt>
      <trkpt lat="46.82935" lon="4.94648">
        <ele>184.23</ele>
        <time>2014-07-05T12:37:44Z</time>
      </trkpt>
      <trkpt lat="46.8293" lon="4.94639">
        <ele>184.23</ele>
        <time>2014-07-05T12:37:46Z</time>
      </trkpt>
      <trkpt lat="46.82881" lon="4.94541">
        <ele>184.23</ele>
        <time>2014-07-05T12:38:04Z</time>
      </trkpt>
      <trkpt lat="46.82823" lon="4.94441">
        <ele>183.75</ele>
        <time>2014-07-05T12:38:23Z</time>
      </trkpt>
      <trkpt lat="46.82778" lon="4.94363">
        <ele>184.23</ele>
        <time>2014-07-05T12:38:39Z</time>
      </trkpt>
      <trkpt lat="46.82739" lon="4.94304">
        <ele>184.23</ele>
        <time>2014-07-05T12:38:52Z</time>
      </trkpt>
      <trkpt lat="46.82669" lon="4.94208">
        <ele>183.75</ele>
        <time>2014-07-05T12:39:13Z</time>
      </trkpt>
      <trkpt lat="46.82603" lon="4.94121">
        <ele>184.71</ele>
        <time>2014-07-05T12:39:33Z</time>
      </trkpt>
      <trkpt lat="46.82533" lon="4.9404">
        <ele>184.23</ele>
        <time>2014-07-05T12:39:54Z</time>
      </trkpt>
      <trkpt lat="46.8252" lon="4.94023">
        <ele>184.23</ele>
        <time>2014-07-05T12:39:58Z</time>
      </trkpt>
      <trkpt lat="46.82519" lon="4.93994">
        <ele>185.19</ele>
        <time>2014-07-05T12:40:06Z</time>
      </trkpt>
      <trkpt lat="46.82521" lon="4.9399">
        <ele>185.19</ele>
        <time>2014-07-05T12:40:07Z</time>
      </trkpt>
      <trkpt lat="46.82579" lon="4.93898">
        <ele>184.71</ele>
        <time>2014-07-05T12:40:28Z</time>
      </trkpt>
      <trkpt lat="46.82625" lon="4.93831">
        <ele>184.71</ele>
        <time>2014-07-05T12:40:45Z</time>
      </trkpt>
      <trkpt lat="46.8262" lon="4.93816">
        <ele>184.23</ele>
        <time>2014-07-05T12:40:49Z</time>
      </trkpt>
      <trkpt lat="46.82559" lon="4.93777">
        <ele>184.23</ele>
        <time>2014-07-05T12:41:08Z</time>
      </trkpt>
      <trkpt lat="46.82513" lon="4.93736">
        <ele>184.23</ele>
        <time>2014-07-05T12:41:23Z</time>
      </trkpt>
      <trkpt lat="46.82478" lon="4.93648">
        <ele>184.23</ele>
        <time>2014-07-05T12:41:42Z</time>
      </trkpt>
      <trkpt lat="46.82446" lon="4.93573">
        <ele>184.71</ele>
        <time>2014-07-05T12:41:58Z</time>
      </trkpt>
      <trkpt lat="46.82399" lon="4.93468">
        <ele>183.75</ele>
        <time>2014-07-05T12:42:19Z</time>
      </trkpt>
      <trkpt lat="46.82369" lon="4.93396">
        <ele>183.75</ele>
        <time>2014-07-05T12:42:33Z</time>
      </trkpt>
      <trkpt lat="46.82326" lon="4.93343">
        <ele>183.27</ele>
        <time>2014-07-05T12:42:47Z</time>
      </trkpt>
      <trkpt lat="46.82316" lon="4.93319">
        <ele>183.75</ele>
        <time>2014-07-05T12:42:52Z</time>
      </trkpt>
      <trkpt lat="46.82338" lon="4.93261">
        <ele>183.75</ele>
        <time>2014-07-05T12:43:04Z</time>
      </trkpt>
      <trkpt lat="46.82379" lon="4.93193">
        <ele>183.27</ele>
        <time>2014-07-05T12:43:20Z</time>
      </trkpt>
      <trkpt lat="46.8244" lon="4.93116">
        <ele>183.75</ele>
        <time>2014-07-05T12:43:39Z</time>
      </trkpt>
      <trkpt lat="46.8249" lon="4.93054">
        <ele>183.75</ele>
        <time>2014-07-05T12:43:55Z</time>
      </trkpt>
      <trkpt lat="46.82537" lon="4.92996">
        <ele>183.27</ele>
        <time>2014-07-05T12:44:11Z</time>
      </trkpt>
      <trkpt lat="46.82592" lon="4.92925">
        <ele>183.75</ele>
        <time>2014-07-05T12:44:28Z</time>
      </trkpt>
      <trkpt lat="46.82625" lon="4.92884">
        <ele>183.75</ele>
        <time>2014-07-05T12:44:38Z</time>
      </trkpt>
      <trkpt lat="46.82623" lon="4.92842">
        <ele>184.23</ele>
        <time>2014-07-05T12:44:46Z</time>
      </trkpt>
      <trkpt lat="46.82609" lon="4.92821">
        <ele>184.23</ele>
        <time>2014-07-05T12:44:51Z</time>
      </trkpt>
      <trkpt lat="46.82584" lon="4.92786">
        <ele>183.75</ele>
        <time>2014-07-05T12:44:59Z</time>
      </trkpt>
      <trkpt lat="46.82525" lon="4.927">
        <ele>183.75</ele>
        <time>2014-07-05T12:45:18Z</time>
      </trkpt>
      <trkpt lat="46.82465" lon="4.9261">
        <ele>183.27</ele>
        <time>2014-07-05T12:45:37Z</time>
      </trkpt>
      <trkpt lat="46.82403" lon="4.92511">
        <ele>182.79</ele>
        <time>2014-07-05T12:45:57Z</time>
      </trkpt>
      <trkpt lat="46.8237" lon="4.92458">
        <ele>181.83</ele>
        <time>2014-07-05T12:46:09Z</time>
      </trkpt>
      <trkpt lat="46.82364" lon="4.9245">
        <ele>183.27</ele>
        <time>2014-07-05T12:46:11Z</time>
      </trkpt>
      <trkpt lat="46.82336" lon="4.92406">
        <ele>182.79</ele>
        <time>2014-07-05T12:46:21Z</time>
      </trkpt>
      <trkpt lat="46.8229" lon="4.9233">
        <ele>183.27</ele>
        <time>2014-07-05T12:46:38Z</time>
      </trkpt>
      <trkpt lat="46.82263" lon="4.92245">
        <ele>183.75</ele>
        <time>2014-07-05T12:46:53Z</time>
      </trkpt>
      <trkpt lat="46.8224" lon="4.92143">
        <ele>183.75</ele>
        <time>2014-07-05T12:47:10Z</time>
      </trkpt>
      <trkpt lat="46.82225" lon="4.92035">
        <ele>183.75</ele>
        <time>2014-07-05T12:47:28Z</time>
      </trkpt>
      <trkpt lat="46.82213" lon="4.91952">
        <ele>183.75</ele>
        <time>2014-07-05T12:47:43Z</time>
      </trkpt>
      <trkpt lat="46.82212" lon="4.9194">
        <ele>183.75</ele>
        <time>2014-07-05T12:47:45Z</time>
      </trkpt>
      <trkpt lat="46.82202" lon="4.91822">
        <ele>183.75</ele>
        <time>2014-07-05T12:48:05Z</time>
      </trkpt>
      <trkpt lat="46.82193" lon="4.91763">
        <ele>183.75</ele>
        <time>2014-07-05T12:48:14Z</time>
      </trkpt>
      <trkpt lat="46.82184" lon="4.91741">
        <ele>183.75</ele>
        <time>2014-07-05T12:48:18Z</time>
      </trkpt>
      <trkpt lat="46.82171" lon="4.9171">
        <ele>184.23</ele>
        <time>2014-07-05T12:48:24Z</time>
      </trkpt>
      <trkpt lat="46.82152" lon="4.91664">
        <ele>183.75</ele>
        <time>2014-07-05T12:48:32Z</time>
      </trkpt>
      <trkpt lat="46.82135" lon="4.91604">
        <ele>183.27</ele>
        <time>2014-07-05T12:48:42Z</time>
      </trkpt>
      <trkpt lat="46.8211" lon="4.91519">
        <ele>183.27</ele>
        <time>2014-07-05T12:48:56Z</time>
      </trkpt>
      <trkpt lat="46.82071" lon="4.91432">
        <ele>182.79</ele>
        <time>2014-07-05T12:49:12Z</time>
      </trkpt>
      <trkpt lat="46.82069" lon="4.91427">
        <ele>182.79</ele>
        <time>2014-07-05T12:49:13Z</time>
      </trkpt>
      <trkpt lat="46.82042" lon="4.91341">
        <ele>183.27</ele>
        <time>2014-07-05T12:49:30Z</time>
      </trkpt>
      <trkpt lat="46.82014" lon="4.91259">
        <ele>183.27</ele>
        <time>2014-07-05T12:49:46Z</time>
      </trkpt>
      <trkpt lat="46.81975" lon="4.91157">
        <ele>183.27</ele>
        <time>2014-07-05T12:50:04Z</time>
      </trkpt>
      <trkpt lat="46.81968" lon="4.9114">
        <ele>183.27</ele>
        <time>2014-07-05T12:50:07Z</time>
      </trkpt>
      <trkpt lat="46.81952" lon="4.91096">
        <ele>182.79</ele>
        <time>2014-07-05T12:50:15Z</time>
      </trkpt>
      <trkpt lat="46.81962" lon="4.91083">
        <ele>183.27</ele>
        <time>2014-07-05T12:50:22Z</time>
      </trkpt>
      <trkpt lat="46.81962" lon="4.91063">
        <ele>183.27</ele>
        <time>2014-07-05T12:50:30Z</time>
      </trkpt>
      <trkpt lat="46.81931" lon="4.90989">
        <ele>182.79</ele>
        <time>2014-07-05T12:50:45Z</time>
      </trkpt>
      <trkpt lat="46.819" lon="4.90912">
        <ele>182.31</ele>
        <time>2014-07-05T12:51:01Z</time>
      </trkpt>
      <trkpt lat="46.81863" lon="4.90813">
        <ele>181.83</ele>
        <time>2014-07-05T12:51:19Z</time>
      </trkpt>
      <trkpt lat="46.8186" lon="4.90783">
        <ele>182.31</ele>
        <time>2014-07-05T12:51:27Z</time>
      </trkpt>
      <trkpt lat="46.81858" lon="4.90776">
        <ele>182.31</ele>
        <time>2014-07-05T12:51:29Z</time>
      </trkpt>
      <trkpt lat="46.81836" lon="4.90738">
        <ele>181.83</ele>
        <time>2014-07-05T12:51:43Z</time>
      </trkpt>
      <trkpt lat="46.81815" lon="4.90701">
        <ele>182.31</ele>
        <time>2014-07-05T12:51:56Z</time>
      </trkpt>
      <trkpt lat="46.81778" lon="4.90635">
        <ele>181.83</ele>
        <time>2014-07-05T12:52:12Z</time>
      </trkpt>
      <trkpt lat="46.81734" lon="4.90535">
        <ele>181.83</ele>
        <time>2014-07-05T12:52:32Z</time>
      </trkpt>
      <trkpt lat="46.81696" lon="4.90432">
        <ele>182.31</ele>
        <time>2014-07-05T12:52:52Z</time>
      </trkpt>
      <trkpt lat="46.81694" lon="4.90426">
        <ele>182.31</ele>
        <time>2014-07-05T12:52:53Z</time>
      </trkpt>
      <trkpt lat="46.81678" lon="4.90377">
        <ele>182.31</ele>
        <time>2014-07-05T12:53:02Z</time>
      </trkpt>
      <trkpt lat="46.81656" lon="4.90324">
        <ele>181.83</ele>
        <time>2014-07-05T12:53:17Z</time>
      </trkpt>
      <trkpt lat="46.81639" lon="4.90281">
        <ele>181.83</ele>
        <time>2014-07-05T12:53:29Z</time>
      </trkpt>
      <trkpt lat="46.81602" lon="4.90193">
        <ele>182.31</ele>
        <time>2014-07-05T12:53:48Z</time>
      </trkpt>
      <trkpt lat="46.81576" lon="4.90136">
        <ele>182.31</ele>
        <time>2014-07-05T12:53:59Z</time>
      </trkpt>
      <trkpt lat="46.81557" lon="4.9006">
        <ele>183.75</ele>
        <time>2014-07-05T12:54:15Z</time>
      </trkpt>
      <trkpt lat="46.81549" lon="4.89982">
        <ele>184.23</ele>
        <time>2014-07-05T12:54:31Z</time>
      </trkpt>
      <trkpt lat="46.81543" lon="4.8989">
        <ele>184.23</ele>
        <time>2014-07-05T12:54:47Z</time>
      </trkpt>
      <trkpt lat="46.81542" lon="4.89879">
        <ele>183.75</ele>
        <time>2014-07-05T12:54:49Z</time>
      </trkpt>
      <trkpt lat="46.81528" lon="4.89875">
        <ele>183.75</ele>
        <time>2014-07-05T12:54:54Z</time>
      </trkpt>
      <trkpt lat="46.8145" lon="4.89894">
        <ele>183.75</ele>
        <time>2014-07-05T12:55:15Z</time>
      </trkpt>
      <trkpt lat="46.81442" lon="4.89868">
        <ele>183.27</ele>
        <time>2014-07-05T12:55:21Z</time>
      </trkpt>
      <trkpt lat="46.81449" lon="4.89809">
        <ele>183.27</ele>
        <time>2014-07-05T12:55:33Z</time>
      </trkpt>
      <trkpt lat="46.81459" lon="4.89742">
        <ele>182.79</ele>
        <time>2014-07-05T12:55:46Z</time>
      </trkpt>
      <trkpt lat="46.81471" lon="4.8966">
        <ele>181.83</ele>
        <time>2014-07-05T12:56:02Z</time>
      </trkpt>
      <trkpt lat="46.81486" lon="4.8956">
        <ele>182.31</ele>
        <time>2014-07-05T12:56:18Z</time>
      </trkpt>
      <trkpt lat="46.81496" lon="4.89431">
        <ele>182.79</ele>
        <time>2014-07-05T12:56:39Z</time>
      </trkpt>
      <trkpt lat="46.81498" lon="4.89336">
        <ele>182.79</ele>
        <time>2014-07-05T12:56:55Z</time>
      </trkpt>
      <trkpt lat="46.81518" lon="4.89223">
        <ele>183.27</ele>
        <time>2014-07-05T12:57:15Z</time>
      </trkpt>
      <trkpt lat="46.81532" lon="4.89136">
        <ele>183.27</ele>
        <time>2014-07-05T12:57:31Z</time>
      </trkpt>
      <trkpt lat="46.81507" lon="4.89058">
        <ele>183.75</ele>
        <time>2014-07-05T12:57:47Z</time>
      </trkpt>
      <trkpt lat="46.81489" lon="4.89002">
        <ele>183.27</ele>
        <time>2014-07-05T12:58:01Z</time>
      </trkpt>
      <trkpt lat="46.81462" lon="4.88919">
        <ele>183.27</ele>
        <time>2014-07-05T12:58:19Z</time>
      </trkpt>
      <trkpt lat="46.81461" lon="4.88852">
        <ele>183.75</ele>
        <time>2014-07-05T12:58:33Z</time>
      </trkpt>
      <trkpt lat="46.81426" lon="4.88799">
        <ele>183.27</ele>
        <time>2014-07-05T12:58:46Z</time>
      </trkpt>
      <trkpt lat="46.81362" lon="4.88715">
        <ele>182.79</ele>
        <time>2014-07-05T12:59:05Z</time>
      </trkpt>
      <trkpt lat="46.8132" lon="4.88622">
        <ele>181.83</ele>
        <time>2014-07-05T12:59:21Z</time>
      </trkpt>
      <trkpt lat="46.8129" lon="4.88513">
        <ele>182.31</ele>
        <time>2014-07-05T12:59:38Z</time>
      </trkpt>
      <trkpt lat="46.81289" lon="4.88507">
        <ele>182.31</ele>
        <time>2014-07-05T12:59:39Z</time>
      </trkpt>
      <trkpt lat="46.81296" lon="4.8848">
        <ele>182.79</ele>
        <time>2014-07-05T12:59:44Z</time>
      </trkpt>
      <trkpt lat="46.81318" lon="4.88456">
        <ele>182.31</ele>
        <time>2014-07-05T12:59:51Z</time>
      </trkpt>
      <trkpt lat="46.8134" lon="4.88429">
        <ele>182.79</ele>
        <time>2014-07-05T12:59:58Z</time>
      </trkpt>
      <trkpt lat="46.81349" lon="4.88418">
        <ele>182.79</ele>
        <time>2014-07-05T13:00:01Z</time>
      </trkpt>
      <trkpt lat="46.81394" lon="4.88373">
        <ele>183.27</ele>
        <time>2014-07-05T13:00:16Z</time>
      </trkpt>
      <trkpt lat="46.81435" lon="4.88364">
        <ele>184.23</ele>
        <time>2014-07-05T13:00:28Z</time>
      </trkpt>
      <trkpt lat="46.8147" lon="4.88358">
        <ele>184.71</ele>
        <time>2014-07-05T13:00:40Z</time>
      </trkpt>
      <trkpt lat="46.81464" lon="4.8835">
        <ele>184.71</ele>
        <time>2014-07-05T13:00:49Z</time>
      </trkpt>
      <trkpt lat="46.81469" lon="4.88358">
        <ele>184.71</ele>
        <time>2014-07-05T13:00:54Z</time>
      </trkpt>
      <trkpt lat="46.81472" lon="4.88357">
        <ele>184.71</ele>
        <time>2014-07-05T13:00:56Z</time>
      </trkpt>
      <trkpt lat="46.81471" lon="4.88346">
        <ele>184.71</ele>
        <time>2014-07-05T13:01:02Z</time>
      </trkpt>
      <trkpt lat="46.81458" lon="4.8829">
        <ele>184.23</ele>
        <time>2014-07-05T13:01:14Z</time>
      </trkpt>
      <trkpt lat="46.8145" lon="4.88255">
        <ele>183.75</ele>
        <time>2014-07-05T13:01:25Z</time>
      </trkpt>
      <trkpt lat="46.81449" lon="4.88253">
        <ele>183.27</ele>
        <time>2014-07-05T13:01:27Z</time>
      </trkpt>
      <trkpt lat="46.81437" lon="4.88198">
        <ele>183.27</ele>
        <time>2014-07-05T13:01:40Z</time>
      </trkpt>
      <trkpt lat="46.81415" lon="4.88141">
        <ele>183.27</ele>
        <time>2014-07-05T13:01:53Z</time>
      </trkpt>
      <trkpt lat="46.81382" lon="4.88055">
        <ele>183.75</ele>
        <time>2014-07-05T13:02:10Z</time>
      </trkpt>
      <trkpt lat="46.81364" lon="4.88002">
        <ele>184.23</ele>
        <time>2014-07-05T13:02:23Z</time>
      </trkpt>
      <trkpt lat="46.81344" lon="4.87938">
        <ele>184.71</ele>
        <time>2014-07-05T13:02:38Z</time>
      </trkpt>
      <trkpt lat="46.81333" lon="4.87904">
        <ele>184.71</ele>
        <time>2014-07-05T13:02:48Z</time>
      </trkpt>
      <trkpt lat="46.81318" lon="4.87853">
        <ele>185.19</ele>
        <time>2014-07-05T13:03:02Z</time>
      </trkpt>
      <trkpt lat="46.81289" lon="4.87767">
        <ele>185.67</ele>
        <time>2014-07-05T13:03:22Z</time>
      </trkpt>
      <trkpt lat="46.81266" lon="4.87691">
        <ele>185.67</ele>
        <time>2014-07-05T13:03:38Z</time>
      </trkpt>
      <trkpt lat="46.81248" lon="4.87615">
        <ele>185.67</ele>
        <time>2014-07-05T13:03:53Z</time>
      </trkpt>
      <trkpt lat="46.81241" lon="4.87494">
        <ele>184.71</ele>
        <time>2014-07-05T13:04:12Z</time>
      </trkpt>
      <trkpt lat="46.81236" lon="4.87376">
        <ele>184.71</ele>
        <time>2014-07-05T13:04:29Z</time>
      </trkpt>
      <trkpt lat="46.81224" lon="4.87264">
        <ele>185.19</ele>
        <time>2014-07-05T13:04:46Z</time>
      </trkpt>
      <trkpt lat="46.81202" lon="4.87177">
        <ele>186.63</ele>
        <time>2014-07-05T13:05:03Z</time>
      </trkpt>
      <trkpt lat="46.81165" lon="4.8707">
        <ele>186.15</ele>
        <time>2014-07-05T13:05:21Z</time>
      </trkpt>
      <trkpt lat="46.8116" lon="4.87049">
        <ele>186.63</ele>
        <time>2014-07-05T13:05:24Z</time>
      </trkpt>
      <trkpt lat="46.81172" lon="4.87005">
        <ele>188.08</ele>
        <time>2014-07-05T13:05:35Z</time>
      </trkpt>
      <trkpt lat="46.81174" lon="4.87004">
        <ele>188.08</ele>
        <time>2014-07-05T13:05:36Z</time>
      </trkpt>
      <trkpt lat="46.81197" lon="4.86977">
        <ele>191.44</ele>
        <time>2014-07-05T13:05:52Z</time>
      </trkpt>
      <trkpt lat="46.812" lon="4.86956">
        <ele>193.36</ele>
        <time>2014-07-05T13:06:07Z</time>
      </trkpt>
      <trkpt lat="46.81195" lon="4.86933">
        <ele>193.36</ele>
        <time>2014-07-05T13:06:24Z</time>
      </trkpt>
      <trkpt lat="46.81173" lon="4.86878">
        <ele>192.88</ele>
        <time>2014-07-05T13:06:39Z</time>
      </trkpt>
      <trkpt lat="46.81166" lon="4.86863">
        <ele>192.88</ele>
        <time>2014-07-05T13:06:49Z</time>
      </trkpt>
      <trkpt lat="46.81167" lon="4.86863">
        <ele>193.84</ele>
        <time>2014-07-05T13:07:17Z</time>
      </trkpt>
      <trkpt lat="46.81169" lon="4.8686">
        <ele>193.36</ele>
        <time>2014-07-05T13:07:30Z</time>
      </trkpt>
      <trkpt lat="46.81174" lon="4.86861">
        <ele>193.36</ele>
        <time>2014-07-05T13:07:36Z</time>
      </trkpt>
      <trkpt lat="46.81184" lon="4.86859">
        <ele>193.36</ele>
        <time>2014-07-05T13:07:43Z</time>
      </trkpt>
      <trkpt lat="46.81221" lon="4.86786">
        <ele>194.32</ele>
        <time>2014-07-05T13:08:04Z</time>
      </trkpt>
      <trkpt lat="46.8125" lon="4.86718">
        <ele>194.8</ele>
        <time>2014-07-05T13:08:20Z</time>
      </trkpt>
      <trkpt lat="46.8129" lon="4.86632">
        <ele>195.28</ele>
        <time>2014-07-05T13:08:39Z</time>
      </trkpt>
      <trkpt lat="46.81324" lon="4.86551">
        <ele>195.28</ele>
        <time>2014-07-05T13:08:56Z</time>
      </trkpt>
      <trkpt lat="46.81363" lon="4.86464">
        <ele>195.77</ele>
        <time>2014-07-05T13:09:14Z</time>
      </trkpt>
      <trkpt lat="46.81376" lon="4.86434">
        <ele>195.77</ele>
        <time>2014-07-05T13:09:20Z</time>
      </trkpt>
      <trkpt lat="46.81418" lon="4.8637">
        <ele>196.25</ele>
        <time>2014-07-05T13:09:36Z</time>
      </trkpt>
      <trkpt lat="46.81465" lon="4.86302">
        <ele>195.77</ele>
        <time>2014-07-05T13:09:52Z</time>
      </trkpt>
      <trkpt lat="46.81525" lon="4.86217">
        <ele>195.77</ele>
        <time>2014-07-05T13:10:11Z</time>
      </trkpt>
      <trkpt lat="46.81544" lon="4.86188">
        <ele>196.25</ele>
        <time>2014-07-05T13:10:17Z</time>
      </trkpt>
      <trkpt lat="46.81601" lon="4.86081">
        <ele>196.25</ele>
        <time>2014-07-05T13:10:37Z</time>
      </trkpt>
      <trkpt lat="46.81619" lon="4.86022">
        <ele>196.73</ele>
        <time>2014-07-05T13:10:48Z</time>
      </trkpt>
      <trkpt lat="46.81639" lon="4.85937">
        <ele>196.73</ele>
        <time>2014-07-05T13:11:04Z</time>
      </trkpt>
      <trkpt lat="46.81652" lon="4.85898">
        <ele>196.25</ele>
        <time>2014-07-05T13:11:13Z</time>
      </trkpt>
      <trkpt lat="46.81658" lon="4.85873">
        <ele>195.77</ele>
        <time>2014-07-05T13:11:22Z</time>
      </trkpt>
      <trkpt lat="46.81658" lon="4.85872">
        <ele>196.25</ele>
        <time>2014-07-05T13:11:46Z</time>
      </trkpt>
      <trkpt lat="46.81657" lon="4.85872">
        <ele>195.77</ele>
        <time>2014-07-05T13:12:11Z</time>
      </trkpt>
      <trkpt lat="46.81657" lon="4.85873">
        <ele>195.28</ele>
        <time>2014-07-05T13:12:39Z</time>
      </trkpt>
      <trkpt lat="46.81657" lon="4.85871">
        <ele>195.77</ele>
        <time>2014-07-05T13:13:16Z</time>
      </trkpt>
      <trkpt lat="46.81657" lon="4.85872">
        <ele>199.61</ele>
        <time>2014-07-05T13:16:17Z</time>
      </trkpt>
      <trkpt lat="46.8165" lon="4.8588">
        <ele>198.65</ele>
        <time>2014-07-05T13:16:25Z</time>
      </trkpt>
      <trkpt lat="46.81648" lon="4.85882">
        <ele>196.25</ele>
        <time>2014-07-05T13:16:36Z</time>
      </trkpt>
      <trkpt lat="46.81647" lon="4.85881">
        <ele>193.36</ele>
        <time>2014-07-05T13:17:03Z</time>
      </trkpt>
      <trkpt lat="46.81647" lon="4.8588">
        <ele>192.88</ele>
        <time>2014-07-05T13:17:08Z</time>
      </trkpt>
      <trkpt lat="46.81627" lon="4.85891">
        <ele>192.88</ele>
        <time>2014-07-05T13:17:18Z</time>
      </trkpt>
      <trkpt lat="46.81603" lon="4.8587">
        <ele>192.88</ele>
        <time>2014-07-05T13:17:30Z</time>
      </trkpt>
      <trkpt lat="46.81579" lon="4.85842">
        <ele>192.88</ele>
        <time>2014-07-05T13:17:44Z</time>
      </trkpt>
      <trkpt lat="46.81553" lon="4.85817">
        <ele>192.88</ele>
        <time>2014-07-05T13:17:57Z</time>
      </trkpt>
      <trkpt lat="46.81505" lon="4.85772">
        <ele>192.88</ele>
        <time>2014-07-05T13:18:13Z</time>
      </trkpt>
      <trkpt lat="46.81242" lon="4.85541">
        <ele>194.8</ele>
        <time>2014-07-05T13:22:00Z</time>
      </trkpt>
      <trkpt lat="46.81301" lon="4.85603">
        <ele>191.92</ele>
        <time>2014-07-05T13:22:18Z</time>
      </trkpt>
      <trkpt lat="46.81306" lon="4.85643">
        <ele>191.92</ele>
        <time>2014-07-05T13:22:27Z</time>
      </trkpt>
      <trkpt lat="46.81304" lon="4.8565">
        <ele>191.92</ele>
        <time>2014-07-05T13:22:29Z</time>
      </trkpt>
      <trkpt lat="46.81322" lon="4.8564">
        <ele>191.44</ele>
        <time>2014-07-05T13:22:36Z</time>
      </trkpt>
      <trkpt lat="46.81337" lon="4.85635">
        <ele>191.44</ele>
        <time>2014-07-05T13:22:40Z</time>
      </trkpt>
      <trkpt lat="46.81349" lon="4.85643">
        <ele>191.44</ele>
        <time>2014-07-05T13:22:43Z</time>
      </trkpt>
      <trkpt lat="46.81416" lon="4.85708">
        <ele>191.92</ele>
        <time>2014-07-05T13:23:01Z</time>
      </trkpt>
      <trkpt lat="46.81427" lon="4.8572">
        <ele>191.92</ele>
        <time>2014-07-05T13:23:04Z</time>
      </trkpt>
      <trkpt lat="46.81446" lon="4.85738">
        <ele>191.92</ele>
        <time>2014-07-05T13:23:09Z</time>
      </trkpt>
      <trkpt lat="46.81474" lon="4.85764">
        <ele>191.92</ele>
        <time>2014-07-05T13:23:16Z</time>
      </trkpt>
      <trkpt lat="46.81485" lon="4.85775">
        <ele>192.4</ele>
        <time>2014-07-05T13:23:19Z</time>
      </trkpt>
      <trkpt lat="46.81503" lon="4.85792">
        <ele>191.92</ele>
        <time>2014-07-05T13:23:24Z</time>
      </trkpt>
      <trkpt lat="46.81517" lon="4.85805">
        <ele>191.92</ele>
        <time>2014-07-05T13:23:28Z</time>
      </trkpt>
      <trkpt lat="46.81544" lon="4.85829">
        <ele>191.92</ele>
        <time>2014-07-05T13:23:35Z</time>
      </trkpt>
      <trkpt lat="46.81558" lon="4.85843">
        <ele>191.92</ele>
        <time>2014-07-05T13:23:39Z</time>
      </trkpt>
      <trkpt lat="46.81595" lon="4.8588">
        <ele>191.92</ele>
        <time>2014-07-05T13:23:49Z</time>
      </trkpt>
      <trkpt lat="46.81621" lon="4.85934">
        <ele>192.4</ele>
        <time>2014-07-05T13:24:01Z</time>
      </trkpt>
      <trkpt lat="46.81623" lon="4.8596">
        <ele>192.88</ele>
        <time>2014-07-05T13:24:06Z</time>
      </trkpt>
      <trkpt lat="46.81601" lon="4.8606">
        <ele>192.4</ele>
        <time>2014-07-05T13:24:22Z</time>
      </trkpt>
      <trkpt lat="46.81567" lon="4.86138">
        <ele>192.4</ele>
        <time>2014-07-05T13:24:36Z</time>
      </trkpt>
      <trkpt lat="46.8155" lon="4.86168">
        <ele>191.92</ele>
        <time>2014-07-05T13:24:42Z</time>
      </trkpt>
      <trkpt lat="46.81538" lon="4.86186">
        <ele>192.4</ele>
        <time>2014-07-05T13:24:46Z</time>
      </trkpt>
      <trkpt lat="46.8149" lon="4.8626">
        <ele>192.4</ele>
        <time>2014-07-05T13:25:01Z</time>
      </trkpt>
      <trkpt lat="46.81431" lon="4.86346">
        <ele>192.4</ele>
        <time>2014-07-05T13:25:18Z</time>
      </trkpt>
      <trkpt lat="46.81379" lon="4.86422">
        <ele>192.88</ele>
        <time>2014-07-05T13:25:34Z</time>
      </trkpt>
      <trkpt lat="46.81344" lon="4.86497">
        <ele>192.4</ele>
        <time>2014-07-05T13:25:47Z</time>
      </trkpt>
      <trkpt lat="46.81301" lon="4.86595">
        <ele>192.4</ele>
        <time>2014-07-05T13:26:03Z</time>
      </trkpt>
      <trkpt lat="46.81255" lon="4.867">
        <ele>191.92</ele>
        <time>2014-07-05T13:26:20Z</time>
      </trkpt>
      <trkpt lat="46.81213" lon="4.86794">
        <ele>191.44</ele>
        <time>2014-07-05T13:26:35Z</time>
      </trkpt>
      <trkpt lat="46.81171" lon="4.86857">
        <ele>190.48</ele>
        <time>2014-07-05T13:26:47Z</time>
      </trkpt>
      <trkpt lat="46.81158" lon="4.86879">
        <ele>190.48</ele>
        <time>2014-07-05T13:26:54Z</time>
      </trkpt>
      <trkpt lat="46.81165" lon="4.86896">
        <ele>190.48</ele>
        <time>2014-07-05T13:26:58Z</time>
      </trkpt>
      <trkpt lat="46.81204" lon="4.86964">
        <ele>191.44</ele>
        <time>2014-07-05T13:27:12Z</time>
      </trkpt>
      <trkpt lat="46.81245" lon="4.87049">
        <ele>191.92</ele>
        <time>2014-07-05T13:27:27Z</time>
      </trkpt>
      <trkpt lat="46.81297" lon="4.87155">
        <ele>192.4</ele>
        <time>2014-07-05T13:27:46Z</time>
      </trkpt>
      <trkpt lat="46.81348" lon="4.8726">
        <ele>193.36</ele>
        <time>2014-07-05T13:28:05Z</time>
      </trkpt>
      <trkpt lat="46.81389" lon="4.87346">
        <ele>193.84</ele>
        <time>2014-07-05T13:28:21Z</time>
      </trkpt>
      <trkpt lat="46.81432" lon="4.87434">
        <ele>194.32</ele>
        <time>2014-07-05T13:28:37Z</time>
      </trkpt>
      <trkpt lat="46.81479" lon="4.87532">
        <ele>194.8</ele>
        <time>2014-07-05T13:28:55Z</time>
      </trkpt>
      <trkpt lat="46.81495" lon="4.87563">
        <ele>195.28</ele>
        <time>2014-07-05T13:29:01Z</time>
      </trkpt>
      <trkpt lat="46.81538" lon="4.8768">
        <ele>194.8</ele>
        <time>2014-07-05T13:29:21Z</time>
      </trkpt>
      <trkpt lat="46.81564" lon="4.87769">
        <ele>192.88</ele>
        <time>2014-07-05T13:29:35Z</time>
      </trkpt>
      <trkpt lat="46.81594" lon="4.87858">
        <ele>190.48</ele>
        <time>2014-07-05T13:29:48Z</time>
      </trkpt>
      <trkpt lat="46.81613" lon="4.87922">
        <ele>188.08</ele>
        <time>2014-07-05T13:29:57Z</time>
      </trkpt>
      <trkpt lat="46.81642" lon="4.88017">
        <ele>184.71</ele>
        <time>2014-07-05T13:30:11Z</time>
      </trkpt>
      <trkpt lat="46.81666" lon="4.88096">
        <ele>184.71</ele>
        <time>2014-07-05T13:30:22Z</time>
      </trkpt>
      <trkpt lat="46.81666" lon="4.88101">
        <ele>184.71</ele>
        <time>2014-07-05T13:30:24Z</time>
      </trkpt>
      <trkpt lat="46.81663" lon="4.88105">
        <ele>185.19</ele>
        <time>2014-07-05T13:30:38Z</time>
      </trkpt>
      <trkpt lat="46.81664" lon="4.88102">
        <ele>185.19</ele>
        <time>2014-07-05T13:30:43Z</time>
      </trkpt>
      <trkpt lat="46.81668" lon="4.88097">
        <ele>185.19</ele>
        <time>2014-07-05T13:30:55Z</time>
      </trkpt>
      <trkpt lat="46.81669" lon="4.88097">
        <ele>185.19</ele>
        <time>2014-07-05T13:31:00Z</time>
      </trkpt>
      <trkpt lat="46.81668" lon="4.88104">
        <ele>185.19</ele>
        <time>2014-07-05T13:31:13Z</time>
      </trkpt>
      <trkpt lat="46.81668" lon="4.88102">
        <ele>185.19</ele>
        <time>2014-07-05T13:31:33Z</time>
      </trkpt>
      <trkpt lat="46.81667" lon="4.88103">
        <ele>185.19</ele>
        <time>2014-07-05T13:31:59Z</time>
      </trkpt>
      <trkpt lat="46.81667" lon="4.88101">
        <ele>185.19</ele>
        <time>2014-07-05T13:32:19Z</time>
      </trkpt>
      <trkpt lat="46.8167" lon="4.88101">
        <ele>185.67</ele>
        <time>2014-07-05T13:32:42Z</time>
      </trkpt>
      <trkpt lat="46.81666" lon="4.88097">
        <ele>185.19</ele>
        <time>2014-07-05T13:32:55Z</time>
      </trkpt>
      <trkpt lat="46.81668" lon="4.88102">
        <ele>185.67</ele>
        <time>2014-07-05T13:33:09Z</time>
      </trkpt>
      <trkpt lat="46.81667" lon="4.88099">
        <ele>185.67</ele>
        <time>2014-07-05T13:33:25Z</time>
      </trkpt>
      <trkpt lat="46.81668" lon="4.88106">
        <ele>185.67</ele>
        <time>2014-07-05T13:33:33Z</time>
      </trkpt>
      <trkpt lat="46.81673" lon="4.88103">
        <ele>185.67</ele>
        <time>2014-07-05T13:33:48Z</time>
      </trkpt>
      <trkpt lat="46.81673" lon="4.88098">
        <ele>185.67</ele>
        <time>2014-07-05T13:34:04Z</time>
      </trkpt>
      <trkpt lat="46.81673" lon="4.88097">
        <ele>185.67</ele>
        <time>2014-07-05T13:34:05Z</time>
      </trkpt>
      <trkpt lat="46.81657" lon="4.88049">
        <ele>184.71</ele>
        <time>2014-07-05T13:34:20Z</time>
      </trkpt>
      <trkpt lat="46.81637" lon="4.87981">
        <ele>186.15</ele>
        <time>2014-07-05T13:34:36Z</time>
      </trkpt>
      <trkpt lat="46.81618" lon="4.87917">
        <ele>188.56</ele>
        <time>2014-07-05T13:34:53Z</time>
      </trkpt>
      <trkpt lat="46.81602" lon="4.87865">
        <ele>190</ele>
        <time>2014-07-05T13:35:08Z</time>
      </trkpt>
      <trkpt lat="46.81581" lon="4.87794">
        <ele>192.88</ele>
        <time>2014-07-05T13:35:28Z</time>
      </trkpt>
      <trkpt lat="46.81559" lon="4.87727">
        <ele>194.8</ele>
        <time>2014-07-05T13:35:47Z</time>
      </trkpt>
      <trkpt lat="46.81536" lon="4.87658">
        <ele>196.25</ele>
        <time>2014-07-05T13:36:06Z</time>
      </trkpt>
      <trkpt lat="46.81509" lon="4.87584">
        <ele>196.25</ele>
        <time>2014-07-05T13:36:25Z</time>
      </trkpt>
      <trkpt lat="46.81476" lon="4.87512">
        <ele>195.77</ele>
        <time>2014-07-05T13:36:43Z</time>
      </trkpt>
      <trkpt lat="46.8144" lon="4.87438">
        <ele>195.28</ele>
        <time>2014-07-05T13:37:01Z</time>
      </trkpt>
      <trkpt lat="46.81403" lon="4.87363">
        <ele>195.28</ele>
        <time>2014-07-05T13:37:17Z</time>
      </trkpt>
      <trkpt lat="46.81373" lon="4.87299">
        <ele>195.28</ele>
        <time>2014-07-05T13:37:31Z</time>
      </trkpt>
      <trkpt lat="46.81339" lon="4.87229">
        <ele>194.32</ele>
        <time>2014-07-05T13:37:47Z</time>
      </trkpt>
      <trkpt lat="46.81286" lon="4.87122">
        <ele>194.32</ele>
        <time>2014-07-05T13:38:08Z</time>
      </trkpt>
      <trkpt lat="46.81239" lon="4.87024">
        <ele>193.84</ele>
        <time>2014-07-05T13:38:26Z</time>
      </trkpt>
      <trkpt lat="46.81187" lon="4.86916">
        <ele>192.4</ele>
        <time>2014-07-05T13:38:46Z</time>
      </trkpt>
      <trkpt lat="46.81135" lon="4.86806">
        <ele>191.44</ele>
        <time>2014-07-05T13:39:06Z</time>
      </trkpt>
      <trkpt lat="46.81079" lon="4.86696">
        <ele>191.44</ele>
        <time>2014-07-05T13:39:26Z</time>
      </trkpt>
      <trkpt lat="46.81033" lon="4.86615">
        <ele>190.96</ele>
        <time>2014-07-05T13:39:42Z</time>
      </trkpt>
      <trkpt lat="46.8103" lon="4.8661">
        <ele>190.96</ele>
        <time>2014-07-05T13:39:43Z</time>
      </trkpt>
      <trkpt lat="46.80963" lon="4.86524">
        <ele>190.48</ele>
        <time>2014-07-05T13:40:01Z</time>
      </trkpt>
      <trkpt lat="46.80911" lon="4.86455">
        <ele>192.88</ele>
        <time>2014-07-05T13:40:20Z</time>
      </trkpt>
      <trkpt lat="46.80866" lon="4.86396">
        <ele>194.8</ele>
        <time>2014-07-05T13:40:40Z</time>
      </trkpt>
      <trkpt lat="46.80813" lon="4.86325">
        <ele>196.25</ele>
        <time>2014-07-05T13:41:01Z</time>
      </trkpt>
      <trkpt lat="46.80749" lon="4.86261">
        <ele>195.28</ele>
        <time>2014-07-05T13:41:20Z</time>
      </trkpt>
      <trkpt lat="46.80674" lon="4.86212">
        <ele>192.88</ele>
        <time>2014-07-05T13:41:37Z</time>
      </trkpt>
      <trkpt lat="46.80649" lon="4.86174">
        <ele>192.88</ele>
        <time>2014-07-05T13:41:47Z</time>
      </trkpt>
      <trkpt lat="46.80656" lon="4.86123">
        <ele>192.88</ele>
        <time>2014-07-05T13:41:59Z</time>
      </trkpt>
      <trkpt lat="46.80674" lon="4.86069">
        <ele>194.32</ele>
        <time>2014-07-05T13:42:11Z</time>
      </trkpt>
      <trkpt lat="46.80694" lon="4.86002">
        <ele>193.84</ele>
        <time>2014-07-05T13:42:25Z</time>
      </trkpt>
      <trkpt lat="46.80704" lon="4.85959">
        <ele>194.32</ele>
        <time>2014-07-05T13:42:39Z</time>
      </trkpt>
      <trkpt lat="46.80726" lon="4.85889">
        <ele>194.32</ele>
        <time>2014-07-05T13:42:55Z</time>
      </trkpt>
      <trkpt lat="46.80756" lon="4.85794">
        <ele>194.32</ele>
        <time>2014-07-05T13:43:15Z</time>
      </trkpt>
      <trkpt lat="46.80764" lon="4.85769">
        <ele>195.28</ele>
        <time>2014-07-05T13:43:20Z</time>
      </trkpt>
      <trkpt lat="46.80794" lon="4.85675">
        <ele>194.8</ele>
        <time>2014-07-05T13:43:38Z</time>
      </trkpt>
      <trkpt lat="46.80829" lon="4.85596">
        <ele>194.8</ele>
        <time>2014-07-05T13:43:53Z</time>
      </trkpt>
      <trkpt lat="46.80881" lon="4.85519">
        <ele>194.8</ele>
        <time>2014-07-05T13:44:09Z</time>
      </trkpt>
      <trkpt lat="46.8093" lon="4.85467">
        <ele>193.84</ele>
        <time>2014-07-05T13:44:26Z</time>
      </trkpt>
      <trkpt lat="46.80943" lon="4.85453">
        <ele>194.32</ele>
        <time>2014-07-05T13:44:36Z</time>
      </trkpt>
      <trkpt lat="46.80947" lon="4.85448">
        <ele>194.32</ele>
        <time>2014-07-05T13:45:04Z</time>
      </trkpt>
      <trkpt lat="46.80986" lon="4.85402">
        <ele>193.84</ele>
        <time>2014-07-05T13:45:19Z</time>
      </trkpt>
      <trkpt lat="46.81025" lon="4.85379">
        <ele>194.32</ele>
        <time>2014-07-05T13:45:31Z</time>
      </trkpt>
      <trkpt lat="46.81041" lon="4.85377">
        <ele>193.84</ele>
        <time>2014-07-05T13:45:35Z</time>
      </trkpt>
      <trkpt lat="46.81058" lon="4.85324">
        <ele>193.36</ele>
        <time>2014-07-05T13:45:46Z</time>
      </trkpt>
      <trkpt lat="46.81049" lon="4.85308">
        <ele>194.32</ele>
        <time>2014-07-05T13:45:50Z</time>
      </trkpt>
      <trkpt lat="46.8101" lon="4.85305">
        <ele>194.32</ele>
        <time>2014-07-05T13:46:01Z</time>
      </trkpt>
      <trkpt lat="46.8098" lon="4.85283">
        <ele>194.8</ele>
        <time>2014-07-05T13:46:11Z</time>
      </trkpt>
      <trkpt lat="46.80925" lon="4.85229">
        <ele>194.32</ele>
        <time>2014-07-05T13:46:28Z</time>
      </trkpt>
      <trkpt lat="46.80915" lon="4.8522">
        <ele>194.32</ele>
        <time>2014-07-05T13:46:31Z</time>
      </trkpt>
      <trkpt lat="46.80865" lon="4.8517">
        <ele>193.36</ele>
        <time>2014-07-05T13:46:46Z</time>
      </trkpt>
      <trkpt lat="46.80812" lon="4.85097">
        <ele>194.32</ele>
        <time>2014-07-05T13:47:03Z</time>
      </trkpt>
      <trkpt lat="46.80773" lon="4.85018">
        <ele>193.84</ele>
        <time>2014-07-05T13:47:20Z</time>
      </trkpt>
      <trkpt lat="46.80749" lon="4.84941">
        <ele>194.32</ele>
        <time>2014-07-05T13:47:35Z</time>
      </trkpt>
      <trkpt lat="46.80731" lon="4.84837">
        <ele>194.32</ele>
        <time>2014-07-05T13:47:53Z</time>
      </trkpt>
      <trkpt lat="46.8073" lon="4.84819">
        <ele>193.84</ele>
        <time>2014-07-05T13:47:56Z</time>
      </trkpt>
      <trkpt lat="46.80723" lon="4.84736">
        <ele>194.32</ele>
        <time>2014-07-05T13:48:10Z</time>
      </trkpt>
      <trkpt lat="46.80714" lon="4.84628">
        <ele>194.32</ele>
        <time>2014-07-05T13:48:27Z</time>
      </trkpt>
      <trkpt lat="46.80712" lon="4.84616">
        <ele>194.32</ele>
        <time>2014-07-05T13:48:29Z</time>
      </trkpt>
      <trkpt lat="46.80709" lon="4.84586">
        <ele>194.32</ele>
        <time>2014-07-05T13:48:34Z</time>
      </trkpt>
      <trkpt lat="46.80696" lon="4.84516">
        <ele>194.32</ele>
        <time>2014-07-05T13:48:47Z</time>
      </trkpt>
      <trkpt lat="46.80678" lon="4.84447">
        <ele>194.8</ele>
        <time>2014-07-05T13:49:02Z</time>
      </trkpt>
      <trkpt lat="46.80692" lon="4.84427">
        <ele>195.28</ele>
        <time>2014-07-05T13:49:13Z</time>
      </trkpt>
      <trkpt lat="46.80739" lon="4.84411">
        <ele>195.28</ele>
        <time>2014-07-05T13:49:26Z</time>
      </trkpt>
      <trkpt lat="46.80811" lon="4.84386">
        <ele>194.8</ele>
        <time>2014-07-05T13:49:43Z</time>
      </trkpt>
      <trkpt lat="46.80888" lon="4.8436">
        <ele>195.77</ele>
        <time>2014-07-05T13:50:00Z</time>
      </trkpt>
      <trkpt lat="46.80954" lon="4.84337">
        <ele>196.25</ele>
        <time>2014-07-05T13:50:16Z</time>
      </trkpt>
      <trkpt lat="46.80957" lon="4.84336">
        <ele>196.25</ele>
        <time>2014-07-05T13:50:27Z</time>
      </trkpt>
      <trkpt lat="46.80979" lon="4.84327">
        <ele>196.25</ele>
        <time>2014-07-05T13:50:37Z</time>
      </trkpt>
      <trkpt lat="46.81043" lon="4.84302">
        <ele>196.73</ele>
        <time>2014-07-05T13:50:52Z</time>
      </trkpt>
      <trkpt lat="46.81074" lon="4.84289">
        <ele>196.73</ele>
        <time>2014-07-05T13:50:59Z</time>
      </trkpt>
      <trkpt lat="46.81091" lon="4.84281">
        <ele>196.73</ele>
        <time>2014-07-05T13:51:03Z</time>
      </trkpt>
      <trkpt lat="46.81147" lon="4.84256">
        <ele>196.73</ele>
        <time>2014-07-05T13:51:16Z</time>
      </trkpt>
      <trkpt lat="46.81228" lon="4.84226">
        <ele>196.25</ele>
        <time>2014-07-05T13:51:33Z</time>
      </trkpt>
      <trkpt lat="46.81233" lon="4.84224">
        <ele>196.25</ele>
        <time>2014-07-05T13:51:34Z</time>
      </trkpt>
      <trkpt lat="46.81243" lon="4.84222">
        <ele>196.25</ele>
        <time>2014-07-05T13:51:36Z</time>
      </trkpt>
      <trkpt lat="46.81262" lon="4.8422">
        <ele>196.25</ele>
        <time>2014-07-05T13:51:40Z</time>
      </trkpt>
      <trkpt lat="46.81344" lon="4.8419">
        <ele>196.25</ele>
        <time>2014-07-05T13:51:57Z</time>
      </trkpt>
      <trkpt lat="46.81361" lon="4.84183">
        <ele>196.25</ele>
        <time>2014-07-05T13:52:01Z</time>
      </trkpt>
      <trkpt lat="46.81403" lon="4.84169">
        <ele>196.25</ele>
        <time>2014-07-05T13:52:13Z</time>
      </trkpt>
      <trkpt lat="46.81423" lon="4.84166">
        <ele>196.25</ele>
        <time>2014-07-05T13:52:20Z</time>
      </trkpt>
      <trkpt lat="46.81462" lon="4.84144">
        <ele>195.77</ele>
        <time>2014-07-05T13:52:34Z</time>
      </trkpt>
      <trkpt lat="46.81524" lon="4.84104">
        <ele>195.28</ele>
        <time>2014-07-05T13:52:51Z</time>
      </trkpt>
      <trkpt lat="46.81538" lon="4.84091">
        <ele>195.28</ele>
        <time>2014-07-05T13:52:55Z</time>
      </trkpt>
      <trkpt lat="46.81554" lon="4.84081">
        <ele>194.32</ele>
        <time>2014-07-05T13:52:59Z</time>
      </trkpt>
      <trkpt lat="46.81598" lon="4.84048">
        <ele>193.84</ele>
        <time>2014-07-05T13:53:10Z</time>
      </trkpt>
      <trkpt lat="46.81619" lon="4.84031">
        <ele>194.32</ele>
        <time>2014-07-05T13:53:22Z</time>
      </trkpt>
      <trkpt lat="46.81619" lon="4.84031">
        <ele>194.32</ele>
        <time>2014-07-05T13:53:23Z</time>
      </trkpt>
      <trkpt lat="46.81623" lon="4.84027">
        <ele>194.32</ele>
        <time>2014-07-05T13:53:27Z</time>
      </trkpt>
      <trkpt lat="46.81651" lon="4.83998">
        <ele>194.32</ele>
        <time>2014-07-05T13:53:42Z</time>
      </trkpt>
      <trkpt lat="46.81678" lon="4.83981">
        <ele>193.84</ele>
        <time>2014-07-05T13:53:55Z</time>
      </trkpt>
      <trkpt lat="46.81687" lon="4.83991">
        <ele>193.84</ele>
        <time>2014-07-05T13:54:05Z</time>
      </trkpt>
      <trkpt lat="46.81689" lon="4.83993">
        <ele>193.84</ele>
        <time>2014-07-05T13:54:16Z</time>
      </trkpt>
      <trkpt lat="46.81734" lon="4.84024">
        <ele>192.4</ele>
        <time>2014-07-05T13:54:31Z</time>
      </trkpt>
      <trkpt lat="46.81781" lon="4.84099">
        <ele>191.44</ele>
        <time>2014-07-05T13:54:46Z</time>
      </trkpt>
      <trkpt lat="46.81811" lon="4.84162">
        <ele>190.96</ele>
        <time>2014-07-05T13:54:57Z</time>
      </trkpt>
      <trkpt lat="46.81855" lon="4.84231">
        <ele>190.96</ele>
        <time>2014-07-05T13:55:12Z</time>
      </trkpt>
      <trkpt lat="46.8192" lon="4.84273">
        <ele>190.96</ele>
        <time>2014-07-05T13:55:26Z</time>
      </trkpt>
      <trkpt lat="46.81958" lon="4.84288">
        <ele>190.96</ele>
        <time>2014-07-05T13:55:34Z</time>
      </trkpt>
      <trkpt lat="46.82028" lon="4.84309">
        <ele>190.96</ele>
        <time>2014-07-05T13:55:48Z</time>
      </trkpt>
      <trkpt lat="46.82071" lon="4.84322">
        <ele>190.96</ele>
        <time>2014-07-05T13:55:57Z</time>
      </trkpt>
      <trkpt lat="46.82094" lon="4.84337">
        <ele>190.96</ele>
        <time>2014-07-05T13:56:02Z</time>
      </trkpt>
      <trkpt lat="46.82102" lon="4.84345">
        <ele>190.96</ele>
        <time>2014-07-05T13:56:04Z</time>
      </trkpt>
      <trkpt lat="46.82115" lon="4.84365">
        <ele>190.96</ele>
        <time>2014-07-05T13:56:08Z</time>
      </trkpt>
      <trkpt lat="46.8213" lon="4.84414">
        <ele>190.96</ele>
        <time>2014-07-05T13:56:16Z</time>
      </trkpt>
      <trkpt lat="46.82138" lon="4.84501">
        <ele>190.96</ele>
        <time>2014-07-05T13:56:30Z</time>
      </trkpt>
      <trkpt lat="46.82128" lon="4.84557">
        <ele>190.96</ele>
        <time>2014-07-05T13:56:39Z</time>
      </trkpt>
      <trkpt lat="46.82138" lon="4.84619">
        <ele>190.96</ele>
        <time>2014-07-05T13:56:48Z</time>
      </trkpt>
      <trkpt lat="46.82147" lon="4.8463">
        <ele>190.96</ele>
        <time>2014-07-05T13:56:51Z</time>
      </trkpt>
      <trkpt lat="46.82213" lon="4.84649">
        <ele>191.44</ele>
        <time>2014-07-05T13:57:05Z</time>
      </trkpt>
      <trkpt lat="46.82295" lon="4.84656">
        <ele>191.44</ele>
        <time>2014-07-05T13:57:21Z</time>
      </trkpt>
      <trkpt lat="46.82305" lon="4.84655">
        <ele>191.44</ele>
        <time>2014-07-05T13:57:23Z</time>
      </trkpt>
      <trkpt lat="46.82393" lon="4.84648">
        <ele>191.44</ele>
        <time>2014-07-05T13:57:40Z</time>
      </trkpt>
      <trkpt lat="46.82427" lon="4.84646">
        <ele>191.44</ele>
        <time>2014-07-05T13:57:47Z</time>
      </trkpt>
      <trkpt lat="46.82463" lon="4.84668">
        <ele>191.44</ele>
        <time>2014-07-05T13:57:55Z</time>
      </trkpt>
      <trkpt lat="46.82471" lon="4.84685">
        <ele>191.44</ele>
        <time>2014-07-05T13:57:58Z</time>
      </trkpt>
      <trkpt lat="46.82482" lon="4.84735">
        <ele>191.44</ele>
        <time>2014-07-05T13:58:06Z</time>
      </trkpt>
      <trkpt lat="46.82504" lon="4.84853">
        <ele>190.96</ele>
        <time>2014-07-05T13:58:23Z</time>
      </trkpt>
      <trkpt lat="46.8251" lon="4.84919">
        <ele>191.44</ele>
        <time>2014-07-05T13:58:32Z</time>
      </trkpt>
      <trkpt lat="46.82511" lon="4.84933">
        <ele>191.44</ele>
        <time>2014-07-05T13:58:34Z</time>
      </trkpt>
      <trkpt lat="46.82544" lon="4.8499">
        <ele>191.44</ele>
        <time>2014-07-05T13:58:44Z</time>
      </trkpt>
      <trkpt lat="46.82616" lon="4.85036">
        <ele>191.44</ele>
        <time>2014-07-05T13:58:59Z</time>
      </trkpt>
      <trkpt lat="46.82667" lon="4.85059">
        <ele>191.44</ele>
        <time>2014-07-05T13:59:10Z</time>
      </trkpt>
      <trkpt lat="46.8272" lon="4.85048">
        <ele>191.44</ele>
        <time>2014-07-05T13:59:22Z</time>
      </trkpt>
      <trkpt lat="46.82799" lon="4.85026">
        <ele>190.96</ele>
        <time>2014-07-05T13:59:38Z</time>
      </trkpt>
      <trkpt lat="46.82881" lon="4.85008">
        <ele>191.92</ele>
        <time>2014-07-05T13:59:54Z</time>
      </trkpt>
      <trkpt lat="46.82915" lon="4.84993">
        <ele>191.92</ele>
        <time>2014-07-05T14:00:01Z</time>
      </trkpt>
      <trkpt lat="46.82972" lon="4.84949">
        <ele>191.92</ele>
        <time>2014-07-05T14:00:14Z</time>
      </trkpt>
      <trkpt lat="46.83031" lon="4.84907">
        <ele>191.92</ele>
        <time>2014-07-05T14:00:28Z</time>
      </trkpt>
      <trkpt lat="46.831" lon="4.84851">
        <ele>191.92</ele>
        <time>2014-07-05T14:00:44Z</time>
      </trkpt>
      <trkpt lat="46.83161" lon="4.84807">
        <ele>192.4</ele>
        <time>2014-07-05T14:00:58Z</time>
      </trkpt>
      <trkpt lat="46.83217" lon="4.84765">
        <ele>191.92</ele>
        <time>2014-07-05T14:01:14Z</time>
      </trkpt>
      <trkpt lat="46.83248" lon="4.84729">
        <ele>191.92</ele>
        <time>2014-07-05T14:01:24Z</time>
      </trkpt>
      <trkpt lat="46.83288" lon="4.84637">
        <ele>191.44</ele>
        <time>2014-07-05T14:01:41Z</time>
      </trkpt>
      <trkpt lat="46.83293" lon="4.84614">
        <ele>191.44</ele>
        <time>2014-07-05T14:01:45Z</time>
      </trkpt>
      <trkpt lat="46.83299" lon="4.84536">
        <ele>190.96</ele>
        <time>2014-07-05T14:01:58Z</time>
      </trkpt>
      <trkpt lat="46.83311" lon="4.84434">
        <ele>191.44</ele>
        <time>2014-07-05T14:02:15Z</time>
      </trkpt>
      <trkpt lat="46.83324" lon="4.84349">
        <ele>191.44</ele>
        <time>2014-07-05T14:02:32Z</time>
      </trkpt>
      <trkpt lat="46.8334" lon="4.8428">
        <ele>191.44</ele>
        <time>2014-07-05T14:02:48Z</time>
      </trkpt>
      <trkpt lat="46.8335" lon="4.84216">
        <ele>191.92</ele>
        <time>2014-07-05T14:03:04Z</time>
      </trkpt>
      <trkpt lat="46.83347" lon="4.84136">
        <ele>191.44</ele>
        <time>2014-07-05T14:03:18Z</time>
      </trkpt>
      <trkpt lat="46.83345" lon="4.84102">
        <ele>191.44</ele>
        <time>2014-07-05T14:03:23Z</time>
      </trkpt>
      <trkpt lat="46.83343" lon="4.84089">
        <ele>191.92</ele>
        <time>2014-07-05T14:03:25Z</time>
      </trkpt>
      <trkpt lat="46.83346" lon="4.83969">
        <ele>191.92</ele>
        <time>2014-07-05T14:03:42Z</time>
      </trkpt>
      <trkpt lat="46.8336" lon="4.83877">
        <ele>192.88</ele>
        <time>2014-07-05T14:03:59Z</time>
      </trkpt>
      <trkpt lat="46.83365" lon="4.83844">
        <ele>194.8</ele>
        <time>2014-07-05T14:04:09Z</time>
      </trkpt>
      <trkpt lat="46.83367" lon="4.83829">
        <ele>194.32</ele>
        <time>2014-07-05T14:04:20Z</time>
      </trkpt>
      <trkpt lat="46.83371" lon="4.83841">
        <ele>194.8</ele>
        <time>2014-07-05T14:04:37Z</time>
      </trkpt>
      <trkpt lat="46.83372" lon="4.83837">
        <ele>195.28</ele>
        <time>2014-07-05T14:04:53Z</time>
      </trkpt>
      <trkpt lat="46.83371" lon="4.83834">
        <ele>195.28</ele>
        <time>2014-07-05T14:05:06Z</time>
      </trkpt>
      <trkpt lat="46.83366" lon="4.83844">
        <ele>195.28</ele>
        <time>2014-07-05T14:05:12Z</time>
      </trkpt>
      <trkpt lat="46.83363" lon="4.83872">
        <ele>193.36</ele>
        <time>2014-07-05T14:05:17Z</time>
      </trkpt>
      <trkpt lat="46.83357" lon="4.83896">
        <ele>192.4</ele>
        <time>2014-07-05T14:05:21Z</time>
      </trkpt>
      <trkpt lat="46.83357" lon="4.83906">
        <ele>192.88</ele>
        <time>2014-07-05T14:05:28Z</time>
      </trkpt>
      <trkpt lat="46.83357" lon="4.83899">
        <ele>192.4</ele>
        <time>2014-07-05T14:05:31Z</time>
      </trkpt>
      <trkpt lat="46.83363" lon="4.83857">
        <ele>193.84</ele>
        <time>2014-07-05T14:05:43Z</time>
      </trkpt>
      <trkpt lat="46.83366" lon="4.83847">
        <ele>194.8</ele>
        <time>2014-07-05T14:05:46Z</time>
      </trkpt>
      <trkpt lat="46.83368" lon="4.83837">
        <ele>195.28</ele>
        <time>2014-07-05T14:05:50Z</time>
      </trkpt>
      <trkpt lat="46.83381" lon="4.83779">
        <ele>193.84</ele>
        <time>2014-07-05T14:06:03Z</time>
      </trkpt>
      <trkpt lat="46.83392" lon="4.83694">
        <ele>194.32</ele>
        <time>2014-07-05T14:06:20Z</time>
      </trkpt>
      <trkpt lat="46.83393" lon="4.83624">
        <ele>193.84</ele>
        <time>2014-07-05T14:06:34Z</time>
      </trkpt>
      <trkpt lat="46.83396" lon="4.83575">
        <ele>194.32</ele>
        <time>2014-07-05T14:06:43Z</time>
      </trkpt>
      <trkpt lat="46.8343" lon="4.83477">
        <ele>194.32</ele>
        <time>2014-07-05T14:07:00Z</time>
      </trkpt>
      <trkpt lat="46.83463" lon="4.83361">
        <ele>194.32</ele>
        <time>2014-07-05T14:07:19Z</time>
      </trkpt>
      <trkpt lat="46.83486" lon="4.83283">
        <ele>194.32</ele>
        <time>2014-07-05T14:07:33Z</time>
      </trkpt>
      <trkpt lat="46.83494" lon="4.83259">
        <ele>194.32</ele>
        <time>2014-07-05T14:07:37Z</time>
      </trkpt>
      <trkpt lat="46.83503" lon="4.83242">
        <ele>194.32</ele>
        <time>2014-07-05T14:07:40Z</time>
      </trkpt>
      <trkpt lat="46.83519" lon="4.83196">
        <ele>194.32</ele>
        <time>2014-07-05T14:07:48Z</time>
      </trkpt>
      <trkpt lat="46.83523" lon="4.83175">
        <ele>194.32</ele>
        <time>2014-07-05T14:07:51Z</time>
      </trkpt>
      <trkpt lat="46.83672" lon="4.83005">
        <ele>191.92</ele>
        <time>2014-07-05T14:08:43Z</time>
      </trkpt>
      <trkpt lat="46.83676" lon="4.83005">
        <ele>191.44</ele>
        <time>2014-07-05T14:08:44Z</time>
      </trkpt>
      <trkpt lat="46.83684" lon="4.83003">
        <ele>-475.72</ele>
        <time>2014-07-05T14:08:46Z</time>
      </trkpt>
      <trkpt lat="46.83694" lon="4.83001">
        <ele>-426.69</ele>
        <time>2014-07-05T14:08:48Z</time>
      </trkpt>
      <trkpt lat="46.83705" lon="4.82999">
        <ele>-406.5</ele>
        <time>2014-07-05T14:08:51Z</time>
      </trkpt>
      <trkpt lat="46.83709" lon="4.82998">
        <ele>-386.79</ele>
        <time>2014-07-05T14:08:52Z</time>
      </trkpt>
      <trkpt lat="46.8373" lon="4.82991">
        <ele>-297.87</ele>
        <time>2014-07-05T14:08:57Z</time>
      </trkpt>
      <trkpt lat="46.83736" lon="4.82987">
        <ele>-281.53</ele>
        <time>2014-07-05T14:08:58Z</time>
      </trkpt>
      <trkpt lat="46.83741" lon="4.82985">
        <ele>-265.67</ele>
        <time>2014-07-05T14:08:59Z</time>
      </trkpt>
      <trkpt lat="46.83745" lon="4.82983">
        <ele>-250.77</ele>
        <time>2014-07-05T14:09:00Z</time>
      </trkpt>
      <trkpt lat="46.83753" lon="4.82978">
        <ele>-207.99</ele>
        <time>2014-07-05T14:09:02Z</time>
      </trkpt>
      <trkpt lat="46.83757" lon="4.82975">
        <ele>-207.99</ele>
        <time>2014-07-05T14:09:03Z</time>
      </trkpt>
      <trkpt lat="46.83761" lon="4.82972">
        <ele>-195.01</ele>
        <time>2014-07-05T14:09:04Z</time>
      </trkpt>
      <trkpt lat="46.83766" lon="4.8297">
        <ele>-182.03</ele>
        <time>2014-07-05T14:09:05Z</time>
      </trkpt>
      <trkpt lat="46.8377" lon="4.82967">
        <ele>-170.02</ele>
        <time>2014-07-05T14:09:06Z</time>
      </trkpt>
      <trkpt lat="46.83779" lon="4.8296">
        <ele>-146.46</ele>
        <time>2014-07-05T14:09:08Z</time>
      </trkpt>
      <trkpt lat="46.83783" lon="4.82957">
        <ele>-134.93</ele>
        <time>2014-07-05T14:09:09Z</time>
      </trkpt>
      <trkpt lat="46.83788" lon="4.82954">
        <ele>-123.87</ele>
        <time>2014-07-05T14:09:10Z</time>
      </trkpt>
      <trkpt lat="46.83796" lon="4.82946">
        <ele>-103.68</ele>
        <time>2014-07-05T14:09:12Z</time>
      </trkpt>
      <trkpt lat="46.838" lon="4.82942">
        <ele>-94.07</ele>
        <time>2014-07-05T14:09:13Z</time>
      </trkpt>
      <trkpt lat="46.83804" lon="4.82938">
        <ele>-84.46</ele>
        <time>2014-07-05T14:09:14Z</time>
      </trkpt>
      <trkpt lat="46.83808" lon="4.82933">
        <ele>-75.81</ele>
        <time>2014-07-05T14:09:15Z</time>
      </trkpt>
      <trkpt lat="46.83812" lon="4.82928">
        <ele>-67.15</ele>
        <time>2014-07-05T14:09:16Z</time>
      </trkpt>
      <trkpt lat="46.83816" lon="4.82924">
        <ele>-58.5</ele>
        <time>2014-07-05T14:09:17Z</time>
      </trkpt>
      <trkpt lat="46.83819" lon="4.82919">
        <ele>-50.33</ele>
        <time>2014-07-05T14:09:18Z</time>
      </trkpt>
      <trkpt lat="46.83823" lon="4.82914">
        <ele>-42.16</ele>
        <time>2014-07-05T14:09:19Z</time>
      </trkpt>
      <trkpt lat="46.83826" lon="4.82909">
        <ele>-34.47</ele>
        <time>2014-07-05T14:09:20Z</time>
      </trkpt>
      <trkpt lat="46.8383" lon="4.82904">
        <ele>-27.26</ele>
        <time>2014-07-05T14:09:21Z</time>
      </trkpt>
      <trkpt lat="46.83833" lon="4.82899">
        <ele>-20.05</ele>
        <time>2014-07-05T14:09:22Z</time>
      </trkpt>
      <trkpt lat="46.83837" lon="4.82893">
        <ele>-13.32</ele>
        <time>2014-07-05T14:09:23Z</time>
      </trkpt>
      <trkpt lat="46.8384" lon="4.82888">
        <ele>-6.11</ele>
        <time>2014-07-05T14:09:24Z</time>
      </trkpt>
      <trkpt lat="46.83843" lon="4.82883">
        <ele>0.14</ele>
        <time>2014-07-05T14:09:25Z</time>
      </trkpt>
      <trkpt lat="46.83847" lon="4.82877">
        <ele>6.39</ele>
        <time>2014-07-05T14:09:26Z</time>
      </trkpt>
      <trkpt lat="46.8385" lon="4.82871">
        <ele>12.63</ele>
        <time>2014-07-05T14:09:27Z</time>
      </trkpt>
      <trkpt lat="46.83853" lon="4.82866">
        <ele>24.17</ele>
        <time>2014-07-05T14:09:28Z</time>
      </trkpt>
      <trkpt lat="46.83856" lon="4.8286">
        <ele>24.17</ele>
        <time>2014-07-05T14:09:29Z</time>
      </trkpt>
      <trkpt lat="46.83859" lon="4.82855">
        <ele>29.46</ele>
        <time>2014-07-05T14:09:30Z</time>
      </trkpt>
      <trkpt lat="46.83862" lon="4.82849">
        <ele>34.74</ele>
        <time>2014-07-05T14:09:31Z</time>
      </trkpt>
      <trkpt lat="46.83869" lon="4.82839">
        <ele>44.84</ele>
        <time>2014-07-05T14:09:33Z</time>
      </trkpt>
      <trkpt lat="46.83872" lon="4.82834">
        <ele>49.65</ele>
        <time>2014-07-05T14:09:34Z</time>
      </trkpt>
      <trkpt lat="46.83876" lon="4.8283">
        <ele>54.93</ele>
        <time>2014-07-05T14:09:35Z</time>
      </trkpt>
      <trkpt lat="46.83879" lon="4.82825">
        <ele>59.26</ele>
        <time>2014-07-05T14:09:36Z</time>
      </trkpt>
      <trkpt lat="46.83883" lon="4.82821">
        <ele>63.58</ele>
        <time>2014-07-05T14:09:37Z</time>
      </trkpt>
      <trkpt lat="46.83887" lon="4.82817">
        <ele>67.43</ele>
        <time>2014-07-05T14:09:38Z</time>
      </trkpt>
      <trkpt lat="46.83892" lon="4.82813">
        <ele>71.76</ele>
        <time>2014-07-05T14:09:39Z</time>
      </trkpt>
      <trkpt lat="46.83896" lon="4.82809">
        <ele>75.6</ele>
        <time>2014-07-05T14:09:40Z</time>
      </trkpt>
      <trkpt lat="46.83901" lon="4.82806">
        <ele>79.45</ele>
        <time>2014-07-05T14:09:41Z</time>
      </trkpt>
      <trkpt lat="46.83905" lon="4.82804">
        <ele>83.29</ele>
        <time>2014-07-05T14:09:42Z</time>
      </trkpt>
      <trkpt lat="46.8391" lon="4.82801">
        <ele>87.14</ele>
        <time>2014-07-05T14:09:43Z</time>
      </trkpt>
      <trkpt lat="46.83915" lon="4.82799">
        <ele>90.5</ele>
        <time>2014-07-05T14:09:44Z</time>
      </trkpt>
      <trkpt lat="46.8392" lon="4.82797">
        <ele>93.87</ele>
        <time>2014-07-05T14:09:45Z</time>
      </trkpt>
      <trkpt lat="46.83929" lon="4.82795">
        <ele>100.11</ele>
        <time>2014-07-05T14:09:47Z</time>
      </trkpt>
      <trkpt lat="46.83934" lon="4.82794">
        <ele>103.48</ele>
        <time>2014-07-05T14:09:48Z</time>
      </trkpt>
      <trkpt lat="46.83943" lon="4.82792">
        <ele>109.25</ele>
        <time>2014-07-05T14:09:50Z</time>
      </trkpt>
      <trkpt lat="46.83948" lon="4.82792">
        <ele>112.13</ele>
        <time>2014-07-05T14:09:51Z</time>
      </trkpt>
      <trkpt lat="46.83962" lon="4.82788">
        <ele>119.82</ele>
        <time>2014-07-05T14:09:54Z</time>
      </trkpt>
      <trkpt lat="46.83972" lon="4.82784">
        <ele>124.63</ele>
        <time>2014-07-05T14:09:56Z</time>
      </trkpt>
      <trkpt lat="46.83982" lon="4.82779">
        <ele>128.95</ele>
        <time>2014-07-05T14:09:58Z</time>
      </trkpt>
      <trkpt lat="46.83991" lon="4.82773">
        <ele>133.28</ele>
        <time>2014-07-05T14:10:00Z</time>
      </trkpt>
      <trkpt lat="46.84" lon="4.82766">
        <ele>137.13</ele>
        <time>2014-07-05T14:10:02Z</time>
      </trkpt>
      <trkpt lat="46.84009" lon="4.82758">
        <ele>140.49</ele>
        <time>2014-07-05T14:10:04Z</time>
      </trkpt>
      <trkpt lat="46.84018" lon="4.8275">
        <ele>143.85</ele>
        <time>2014-07-05T14:10:06Z</time>
      </trkpt>
      <trkpt lat="46.84026" lon="4.82741">
        <ele>147.22</ele>
        <time>2014-07-05T14:10:08Z</time>
      </trkpt>
      <trkpt lat="46.84037" lon="4.82727">
        <ele>151.54</ele>
        <time>2014-07-05T14:10:11Z</time>
      </trkpt>
      <trkpt lat="46.84047" lon="4.82711">
        <ele>155.87</ele>
        <time>2014-07-05T14:10:14Z</time>
      </trkpt>
      <trkpt lat="46.84054" lon="4.82694">
        <ele>160.68</ele>
        <time>2014-07-05T14:10:17Z</time>
      </trkpt>
      <trkpt lat="46.84057" lon="4.82688">
        <ele>160.2</ele>
        <time>2014-07-05T14:10:18Z</time>
      </trkpt>
      <trkpt lat="46.84063" lon="4.8267">
        <ele>163.56</ele>
        <time>2014-07-05T14:10:21Z</time>
      </trkpt>
      <trkpt lat="46.84072" lon="4.82644">
        <ele>167.41</ele>
        <time>2014-07-05T14:10:25Z</time>
      </trkpt>
      <trkpt lat="46.84083" lon="4.8262">
        <ele>170.77</ele>
        <time>2014-07-05T14:10:29Z</time>
      </trkpt>
      <trkpt lat="46.84105" lon="4.82593">
        <ele>174.62</ele>
        <time>2014-07-05T14:10:35Z</time>
      </trkpt>
      <trkpt lat="46.84125" lon="4.82576">
        <ele>180.87</ele>
        <time>2014-07-05T14:10:41Z</time>
      </trkpt>
      <trkpt lat="46.84128" lon="4.82574">
        <ele>180.38</ele>
        <time>2014-07-05T14:10:42Z</time>
      </trkpt>
      <trkpt lat="46.8414" lon="4.82568">
        <ele>183.75</ele>
        <time>2014-07-05T14:10:48Z</time>
      </trkpt>
      <trkpt lat="46.84173" lon="4.82557">
        <ele>183.27</ele>
        <time>2014-07-05T14:11:03Z</time>
      </trkpt>
      <trkpt lat="46.84172" lon="4.82557">
        <ele>183.75</ele>
        <time>2014-07-05T14:11:14Z</time>
      </trkpt>
      <trkpt lat="46.84172" lon="4.82556">
        <ele>183.75</ele>
        <time>2014-07-05T14:11:35Z</time>
      </trkpt>
      <trkpt lat="46.84173" lon="4.82555">
        <ele>183.75</ele>
        <time>2014-07-05T14:12:06Z</time>
      </trkpt>
      <trkpt lat="46.84173" lon="4.82553">
        <ele>184.23</ele>
        <time>2014-07-05T14:12:44Z</time>
      </trkpt>
      <trkpt lat="46.84173" lon="4.82554">
        <ele>184.23</ele>
        <time>2014-07-05T14:13:20Z</time>
      </trkpt>
      <trkpt lat="46.84172" lon="4.82552">
        <ele>184.71</ele>
        <time>2014-07-05T14:13:58Z</time>
      </trkpt>
      <trkpt lat="46.84172" lon="4.82553">
        <ele>184.71</ele>
        <time>2014-07-05T14:14:30Z</time>
      </trkpt>
      <trkpt lat="46.84172" lon="4.82552">
        <ele>185.19</ele>
        <time>2014-07-05T14:15:13Z</time>
      </trkpt>
      <trkpt lat="46.84172" lon="4.82552">
        <ele>185.19</ele>
        <time>2014-07-05T14:15:44Z</time>
      </trkpt>
      <trkpt lat="46.84173" lon="4.82552">
        <ele>185.67</ele>
        <time>2014-07-05T14:16:24Z</time>
      </trkpt>
      <trkpt lat="46.84173" lon="4.82554">
        <ele>186.15</ele>
        <time>2014-07-05T14:17:16Z</time>
      </trkpt>
      <trkpt lat="46.84173" lon="4.82555">
        <ele>186.63</ele>
        <time>2014-07-05T14:18:00Z</time>
      </trkpt>
      <trkpt lat="46.84174" lon="4.82555">
        <ele>186.63</ele>
        <time>2014-07-05T14:18:35Z</time>
      </trkpt>
      <trkpt lat="46.84172" lon="4.82553">
        <ele>187.11</ele>
        <time>2014-07-05T14:19:11Z</time>
      </trkpt>
      <trkpt lat="46.84173" lon="4.82551">
        <ele>186.63</ele>
        <time>2014-07-05T14:19:51Z</time>
      </trkpt>
      <trkpt lat="46.84174" lon="4.82552">
        <ele>187.11</ele>
        <time>2014-07-05T14:20:38Z</time>
      </trkpt>
      <trkpt lat="46.84174" lon="4.82551">
        <ele>187.59</ele>
        <time>2014-07-05T14:21:25Z</time>
      </trkpt>
      <trkpt lat="46.84174" lon="4.82551">
        <ele>188.08</ele>
        <time>2014-07-05T14:22:05Z</time>
      </trkpt>
      <trkpt lat="46.84174" lon="4.82553">
        <ele>188.08</ele>
        <time>2014-07-05T14:22:52Z</time>
      </trkpt>
      <trkpt lat="46.84174" lon="4.82553">
        <ele>188.08</ele>
        <time>2014-07-05T14:23:40Z</time>
      </trkpt>
      <trkpt lat="46.84174" lon="4.82554">
        <ele>188.56</ele>
        <time>2014-07-05T14:24:16Z</time>
      </trkpt>
      <trkpt lat="46.84173" lon="4.82554">
        <ele>188.56</ele>
        <time>2014-07-05T14:24:54Z</time>
      </trkpt>
      <trkpt lat="46.84174" lon="4.82553">
        <ele>189.04</ele>
        <time>2014-07-05T14:25:28Z</time>
      </trkpt>
      <trkpt lat="46.84176" lon="4.82551">
        <ele>189.04</ele>
        <time>2014-07-05T14:25:46Z</time>
      </trkpt>
      <trkpt lat="46.84176" lon="4.82551">
        <ele>189.04</ele>
        <time>2014-07-05T14:25:49Z</time>
      </trkpt>
      <trkpt lat="46.84185" lon="4.82543">
        <ele>189.04</ele>
        <time>2014-07-05T14:25:55Z</time>
      </trkpt>
      <trkpt lat="46.84224" lon="4.82513">
        <ele>189.52</ele>
        <time>2014-07-05T14:26:11Z</time>
      </trkpt>
      <trkpt lat="46.84263" lon="4.8246">
        <ele>189.04</ele>
        <time>2014-07-05T14:26:25Z</time>
      </trkpt>
      <trkpt lat="46.84277" lon="4.82432">
        <ele>189.04</ele>
        <time>2014-07-05T14:26:31Z</time>
      </trkpt>
      <trkpt lat="46.84295" lon="4.82405">
        <ele>189.04</ele>
        <time>2014-07-05T14:26:37Z</time>
      </trkpt>
      <trkpt lat="46.84357" lon="4.82345">
        <ele>189.52</ele>
        <time>2014-07-05T14:26:54Z</time>
      </trkpt>
      <trkpt lat="46.84405" lon="4.82304">
        <ele>189.04</ele>
        <time>2014-07-05T14:27:06Z</time>
      </trkpt>
      <trkpt lat="46.84422" lon="4.82298">
        <ele>189.04</ele>
        <time>2014-07-05T14:27:10Z</time>
      </trkpt>
      <trkpt lat="46.84485" lon="4.82311">
        <ele>189.04</ele>
        <time>2014-07-05T14:27:26Z</time>
      </trkpt>
      <trkpt lat="46.84541" lon="4.82312">
        <ele>189.52</ele>
        <time>2014-07-05T14:27:39Z</time>
      </trkpt>
      <trkpt lat="46.84581" lon="4.82279">
        <ele>189.52</ele>
        <time>2014-07-05T14:27:48Z</time>
      </trkpt>
      <trkpt lat="46.84604" lon="4.82227">
        <ele>189.52</ele>
        <time>2014-07-05T14:27:57Z</time>
      </trkpt>
      <trkpt lat="46.84611" lon="4.82202">
        <ele>190</ele>
        <time>2014-07-05T14:28:01Z</time>
      </trkpt>
      <trkpt lat="46.84618" lon="4.82171">
        <ele>190</ele>
        <time>2014-07-05T14:28:06Z</time>
      </trkpt>
      <trkpt lat="46.84666" lon="4.82078">
        <ele>190</ele>
        <time>2014-07-05T14:28:22Z</time>
      </trkpt>
      <trkpt lat="46.8468" lon="4.82052">
        <ele>189.52</ele>
        <time>2014-07-05T14:28:27Z</time>
      </trkpt>
      <trkpt lat="46.84708" lon="4.81974">
        <ele>190</ele>
        <time>2014-07-05T14:28:40Z</time>
      </trkpt>
      <trkpt lat="46.84721" lon="4.81908">
        <ele>189.52</ele>
        <time>2014-07-05T14:28:50Z</time>
      </trkpt>
      <trkpt lat="46.84722" lon="4.81887">
        <ele>189.52</ele>
        <time>2014-07-05T14:28:53Z</time>
      </trkpt>
      <trkpt lat="46.84713" lon="4.81764">
        <ele>189.04</ele>
        <time>2014-07-05T14:29:10Z</time>
      </trkpt>
      <trkpt lat="46.84726" lon="4.81659">
        <ele>189.52</ele>
        <time>2014-07-05T14:29:24Z</time>
      </trkpt>
      <trkpt lat="46.84736" lon="4.81607">
        <ele>189.52</ele>
        <time>2014-07-05T14:29:31Z</time>
      </trkpt>
      <trkpt lat="46.84762" lon="4.81467">
        <ele>189.52</ele>
        <time>2014-07-05T14:29:51Z</time>
      </trkpt>
      <trkpt lat="46.84765" lon="4.81446">
        <ele>190</ele>
        <time>2014-07-05T14:29:54Z</time>
      </trkpt>
      <trkpt lat="46.84762" lon="4.8138">
        <ele>189.52</ele>
        <time>2014-07-05T14:30:04Z</time>
      </trkpt>
      <trkpt lat="46.84743" lon="4.81271">
        <ele>190</ele>
        <time>2014-07-05T14:30:21Z</time>
      </trkpt>
      <trkpt lat="46.84726" lon="4.81181">
        <ele>190</ele>
        <time>2014-07-05T14:30:35Z</time>
      </trkpt>
      <trkpt lat="46.84717" lon="4.81131">
        <ele>189.52</ele>
        <time>2014-07-05T14:30:43Z</time>
      </trkpt>
      <trkpt lat="46.84716" lon="4.81119">
        <ele>190</ele>
        <time>2014-07-05T14:30:45Z</time>
      </trkpt>
      <trkpt lat="46.84736" lon="4.81026">
        <ele>190.48</ele>
        <time>2014-07-05T14:31:00Z</time>
      </trkpt>
      <trkpt lat="46.84744" lon="4.80929">
        <ele>190.48</ele>
        <time>2014-07-05T14:31:16Z</time>
      </trkpt>
      <trkpt lat="46.84743" lon="4.8085">
        <ele>190.48</ele>
        <time>2014-07-05T14:31:31Z</time>
      </trkpt>
      <trkpt lat="46.84747" lon="4.8079">
        <ele>192.4</ele>
        <time>2014-07-05T14:31:47Z</time>
      </trkpt>
      <trkpt lat="46.84759" lon="4.80751">
        <ele>193.84</ele>
        <time>2014-07-05T14:32:02Z</time>
      </trkpt>
      <trkpt lat="46.84771" lon="4.80703">
        <ele>195.28</ele>
        <time>2014-07-05T14:32:17Z</time>
      </trkpt>
      <trkpt lat="46.84792" lon="4.80636">
        <ele>195.28</ele>
        <time>2014-07-05T14:32:33Z</time>
      </trkpt>
      <trkpt lat="46.84819" lon="4.8054">
        <ele>195.77</ele>
        <time>2014-07-05T14:32:52Z</time>
      </trkpt>
      <trkpt lat="46.8485" lon="4.80435">
        <ele>195.77</ele>
        <time>2014-07-05T14:33:11Z</time>
      </trkpt>
      <trkpt lat="46.84853" lon="4.80425">
        <ele>195.77</ele>
        <time>2014-07-05T14:33:13Z</time>
      </trkpt>
      <trkpt lat="46.84881" lon="4.80327">
        <ele>195.77</ele>
        <time>2014-07-05T14:33:30Z</time>
      </trkpt>
      <trkpt lat="46.84891" lon="4.80299">
        <ele>195.77</ele>
        <time>2014-07-05T14:33:35Z</time>
      </trkpt>
      <trkpt lat="46.84899" lon="4.80283">
        <ele>195.77</ele>
        <time>2014-07-05T14:33:38Z</time>
      </trkpt>
      <trkpt lat="46.84924" lon="4.80247">
        <ele>196.25</ele>
        <time>2014-07-05T14:33:46Z</time>
      </trkpt>
      <trkpt lat="46.8499" lon="4.80191">
        <ele>196.25</ele>
        <time>2014-07-05T14:34:04Z</time>
      </trkpt>
      <trkpt lat="46.85059" lon="4.80133">
        <ele>196.25</ele>
        <time>2014-07-05T14:34:21Z</time>
      </trkpt>
      <trkpt lat="46.85129" lon="4.80081">
        <ele>196.25</ele>
        <time>2014-07-05T14:34:37Z</time>
      </trkpt>
      <trkpt lat="46.85191" lon="4.80058">
        <ele>196.73</ele>
        <time>2014-07-05T14:34:51Z</time>
      </trkpt>
      <trkpt lat="46.85212" lon="4.80053">
        <ele>196.73</ele>
        <time>2014-07-05T14:34:56Z</time>
      </trkpt>
      <trkpt lat="46.85221" lon="4.80053">
        <ele>196.25</ele>
        <time>2014-07-05T14:34:58Z</time>
      </trkpt>
      <trkpt lat="46.85292" lon="4.80066">
        <ele>196.73</ele>
        <time>2014-07-05T14:35:14Z</time>
      </trkpt>
      <trkpt lat="46.85366" lon="4.80069">
        <ele>196.73</ele>
        <time>2014-07-05T14:35:30Z</time>
      </trkpt>
      <trkpt lat="46.85384" lon="4.80059">
        <ele>196.73</ele>
        <time>2014-07-05T14:35:34Z</time>
      </trkpt>
      <trkpt lat="46.85392" lon="4.8005">
        <ele>196.73</ele>
        <time>2014-07-05T14:35:36Z</time>
      </trkpt>
      <trkpt lat="46.85418" lon="4.80016">
        <ele>196.73</ele>
        <time>2014-07-05T14:35:43Z</time>
      </trkpt>
      <trkpt lat="46.8543" lon="4.80001">
        <ele>196.73</ele>
        <time>2014-07-05T14:35:46Z</time>
      </trkpt>
      <trkpt lat="46.85497" lon="4.79953">
        <ele>196.73</ele>
        <time>2014-07-05T14:36:01Z</time>
      </trkpt>
      <trkpt lat="46.85507" lon="4.79948">
        <ele>196.73</ele>
        <time>2014-07-05T14:36:03Z</time>
      </trkpt>
      <trkpt lat="46.85516" lon="4.79942">
        <ele>196.73</ele>
        <time>2014-07-05T14:36:05Z</time>
      </trkpt>
      <trkpt lat="46.85544" lon="4.79927">
        <ele>196.73</ele>
        <time>2014-07-05T14:36:11Z</time>
      </trkpt>
      <trkpt lat="46.85614" lon="4.79888">
        <ele>196.73</ele>
        <time>2014-07-05T14:36:26Z</time>
      </trkpt>
      <trkpt lat="46.85699" lon="4.79841">
        <ele>197.21</ele>
        <time>2014-07-05T14:36:44Z</time>
      </trkpt>
      <trkpt lat="46.85768" lon="4.79794">
        <ele>196.73</ele>
        <time>2014-07-05T14:36:59Z</time>
      </trkpt>
      <trkpt lat="46.85802" lon="4.79767">
        <ele>197.21</ele>
        <time>2014-07-05T14:37:06Z</time>
      </trkpt>
      <trkpt lat="46.85823" lon="4.79745">
        <ele>197.21</ele>
        <time>2014-07-05T14:37:11Z</time>
      </trkpt>
      <trkpt lat="46.85831" lon="4.79739">
        <ele>197.21</ele>
        <time>2014-07-05T14:37:13Z</time>
      </trkpt>
      <trkpt lat="46.85856" lon="4.79739">
        <ele>196.73</ele>
        <time>2014-07-05T14:37:19Z</time>
      </trkpt>
      <trkpt lat="46.85879" lon="4.79706">
        <ele>197.21</ele>
        <time>2014-07-05T14:37:29Z</time>
      </trkpt>
      <trkpt lat="46.85897" lon="4.79697">
        <ele>197.21</ele>
        <time>2014-07-05T14:37:34Z</time>
      </trkpt>
      <trkpt lat="46.85918" lon="4.79688">
        <ele>197.21</ele>
        <time>2014-07-05T14:37:39Z</time>
      </trkpt>
      <trkpt lat="46.85971" lon="4.79655">
        <ele>197.69</ele>
        <time>2014-07-05T14:37:55Z</time>
      </trkpt>
      <trkpt lat="46.85986" lon="4.79645">
        <ele>197.69</ele>
        <time>2014-07-05T14:37:59Z</time>
      </trkpt>
      <trkpt lat="46.86068" lon="4.79593">
        <ele>197.69</ele>
        <time>2014-07-05T14:38:18Z</time>
      </trkpt>
      <trkpt lat="46.86115" lon="4.79561">
        <ele>197.69</ele>
        <time>2014-07-05T14:38:29Z</time>
      </trkpt>
      <trkpt lat="46.86127" lon="4.79551">
        <ele>198.17</ele>
        <time>2014-07-05T14:38:32Z</time>
      </trkpt>
      <trkpt lat="46.8615" lon="4.79528">
        <ele>197.69</ele>
        <time>2014-07-05T14:38:38Z</time>
      </trkpt>
      <trkpt lat="46.86168" lon="4.7951">
        <ele>198.17</ele>
        <time>2014-07-05T14:38:43Z</time>
      </trkpt>
      <trkpt lat="46.86233" lon="4.79447">
        <ele>198.17</ele>
        <time>2014-07-05T14:38:59Z</time>
      </trkpt>
      <trkpt lat="46.86294" lon="4.79385">
        <ele>198.17</ele>
        <time>2014-07-05T14:39:14Z</time>
      </trkpt>
      <trkpt lat="46.86321" lon="4.79357">
        <ele>198.65</ele>
        <time>2014-07-05T14:39:22Z</time>
      </trkpt>
      <trkpt lat="46.86382" lon="4.79295">
        <ele>198.65</ele>
        <time>2014-07-05T14:39:38Z</time>
      </trkpt>
      <trkpt lat="46.86403" lon="4.79274">
        <ele>198.65</ele>
        <time>2014-07-05T14:39:43Z</time>
      </trkpt>
      <trkpt lat="46.86452" lon="4.79234">
        <ele>198.65</ele>
        <time>2014-07-05T14:39:53Z</time>
      </trkpt>
      <trkpt lat="46.86534" lon="4.79207">
        <ele>200.09</ele>
        <time>2014-07-05T14:40:11Z</time>
      </trkpt>
      <trkpt lat="46.86564" lon="4.79196">
        <ele>201.53</ele>
        <time>2014-07-05T14:40:24Z</time>
      </trkpt>
      <trkpt lat="46.86609" lon="4.79183">
        <ele>200.57</ele>
        <time>2014-07-05T14:40:37Z</time>
      </trkpt>
      <trkpt lat="46.86656" lon="4.79153">
        <ele>201.05</ele>
        <time>2014-07-05T14:40:50Z</time>
      </trkpt>
      <trkpt lat="46.86673" lon="4.79131">
        <ele>201.05</ele>
        <time>2014-07-05T14:40:55Z</time>
      </trkpt>
      <trkpt lat="46.86721" lon="4.79069">
        <ele>201.53</ele>
        <time>2014-07-05T14:41:09Z</time>
      </trkpt>
      <trkpt lat="46.86733" lon="4.79051">
        <ele>201.53</ele>
        <time>2014-07-05T14:41:13Z</time>
      </trkpt>
      <trkpt lat="46.86752" lon="4.79019">
        <ele>201.53</ele>
        <time>2014-07-05T14:41:20Z</time>
      </trkpt>
      <trkpt lat="46.86759" lon="4.78995">
        <ele>201.53</ele>
        <time>2014-07-05T14:41:24Z</time>
      </trkpt>
      <trkpt lat="46.86769" lon="4.78922">
        <ele>201.05</ele>
        <time>2014-07-05T14:41:34Z</time>
      </trkpt>
      <trkpt lat="46.86783" lon="4.78882">
        <ele>201.05</ele>
        <time>2014-07-05T14:41:40Z</time>
      </trkpt>
      <trkpt lat="46.86828" lon="4.78808">
        <ele>201.53</ele>
        <time>2014-07-05T14:41:56Z</time>
      </trkpt>
      <trkpt lat="46.86864" lon="4.78749">
        <ele>201.05</ele>
        <time>2014-07-05T14:42:10Z</time>
      </trkpt>
      <trkpt lat="46.86903" lon="4.78689">
        <ele>201.05</ele>
        <time>2014-07-05T14:42:25Z</time>
      </trkpt>
      <trkpt lat="46.86961" lon="4.78655">
        <ele>202.01</ele>
        <time>2014-07-05T14:42:40Z</time>
      </trkpt>
      <trkpt lat="46.87017" lon="4.7863">
        <ele>203.94</ele>
        <time>2014-07-05T14:42:56Z</time>
      </trkpt>
      <trkpt lat="46.87052" lon="4.78574">
        <ele>203.46</ele>
        <time>2014-07-05T14:43:10Z</time>
      </trkpt>
      <trkpt lat="46.8707" lon="4.78489">
        <ele>203.46</ele>
        <time>2014-07-05T14:43:27Z</time>
      </trkpt>
      <trkpt lat="46.87085" lon="4.78425">
        <ele>203.94</ele>
        <time>2014-07-05T14:43:41Z</time>
      </trkpt>
      <trkpt lat="46.8711" lon="4.78349">
        <ele>204.42</ele>
        <time>2014-07-05T14:43:57Z</time>
      </trkpt>
      <trkpt lat="46.87146" lon="4.7825">
        <ele>204.42</ele>
        <time>2014-07-05T14:44:15Z</time>
      </trkpt>
      <trkpt lat="46.87169" lon="4.78137">
        <ele>203.94</ele>
        <time>2014-07-05T14:44:34Z</time>
      </trkpt>
      <trkpt lat="46.87185" lon="4.78057">
        <ele>204.42</ele>
        <time>2014-07-05T14:44:49Z</time>
      </trkpt>
      <trkpt lat="46.87204" lon="4.77999">
        <ele>204.9</ele>
        <time>2014-07-05T14:45:01Z</time>
      </trkpt>
      <trkpt lat="46.87244" lon="4.77966">
        <ele>204.9</ele>
        <time>2014-07-05T14:45:14Z</time>
      </trkpt>
      <trkpt lat="46.87299" lon="4.77935">
        <ele>205.86</ele>
        <time>2014-07-05T14:45:31Z</time>
      </trkpt>
      <trkpt lat="46.87332" lon="4.77915">
        <ele>206.82</ele>
        <time>2014-07-05T14:45:44Z</time>
      </trkpt>
      <trkpt lat="46.87364" lon="4.77889">
        <ele>206.34</ele>
        <time>2014-07-05T14:46:02Z</time>
      </trkpt>
      <trkpt lat="46.87385" lon="4.7787">
        <ele>206.82</ele>
        <time>2014-07-05T14:46:16Z</time>
      </trkpt>
      <trkpt lat="46.87417" lon="4.77841">
        <ele>206.82</ele>
        <time>2014-07-05T14:46:31Z</time>
      </trkpt>
      <trkpt lat="46.87458" lon="4.77802">
        <ele>206.82</ele>
        <time>2014-07-05T14:46:48Z</time>
      </trkpt>
      <trkpt lat="46.87517" lon="4.77743">
        <ele>206.82</ele>
        <time>2014-07-05T14:47:10Z</time>
      </trkpt>
      <trkpt lat="46.87557" lon="4.777">
        <ele>206.82</ele>
        <time>2014-07-05T14:47:23Z</time>
      </trkpt>
      <trkpt lat="46.87571" lon="4.77678">
        <ele>206.82</ele>
        <time>2014-07-05T14:47:28Z</time>
      </trkpt>
      <trkpt lat="46.87593" lon="4.77583">
        <ele>207.78</ele>
        <time>2014-07-05T14:47:46Z</time>
      </trkpt>
      <trkpt lat="46.87602" lon="4.7753">
        <ele>210.67</ele>
        <time>2014-07-05T14:48:02Z</time>
      </trkpt>
      <trkpt lat="46.87612" lon="4.77482">
        <ele>212.11</ele>
        <time>2014-07-05T14:48:18Z</time>
      </trkpt>
      <trkpt lat="46.87614" lon="4.77457">
        <ele>212.59</ele>
        <time>2014-07-05T14:48:32Z</time>
      </trkpt>
      <trkpt lat="46.87613" lon="4.77458">
        <ele>212.11</ele>
        <time>2014-07-05T14:48:55Z</time>
      </trkpt>
      <trkpt lat="46.87613" lon="4.77457">
        <ele>212.11</ele>
        <time>2014-07-05T14:49:11Z</time>
      </trkpt>
      <trkpt lat="46.87614" lon="4.77458">
        <ele>212.11</ele>
        <time>2014-07-05T14:49:48Z</time>
      </trkpt>
      <trkpt lat="46.87613" lon="4.77457">
        <ele>212.11</ele>
        <time>2014-07-05T14:50:31Z</time>
      </trkpt>
      <trkpt lat="46.87613" lon="4.77458">
        <ele>212.11</ele>
        <time>2014-07-05T14:51:09Z</time>
      </trkpt>
      <trkpt lat="46.87612" lon="4.77458">
        <ele>212.59</ele>
        <time>2014-07-05T14:51:56Z</time>
      </trkpt>
      <trkpt lat="46.87613" lon="4.77457">
        <ele>212.59</ele>
        <time>2014-07-05T14:52:38Z</time>
      </trkpt>
      <trkpt lat="46.87614" lon="4.77458">
        <ele>213.07</ele>
        <time>2014-07-05T14:53:27Z</time>
      </trkpt>
      <trkpt lat="46.87613" lon="4.77456">
        <ele>212.59</ele>
        <time>2014-07-05T14:54:09Z</time>
      </trkpt>
      <trkpt lat="46.87611" lon="4.77456">
        <ele>212.59</ele>
        <time>2014-07-05T14:54:53Z</time>
      </trkpt>
      <trkpt lat="46.87612" lon="4.77457">
        <ele>214.51</ele>
        <time>2014-07-05T14:55:15Z</time>
      </trkpt>
      <trkpt lat="46.87612" lon="4.77457">
        <ele>212.59</ele>
        <time>2014-07-05T14:55:22Z</time>
      </trkpt>
      <trkpt lat="46.87612" lon="4.77456">
        <ele>212.59</ele>
        <time>2014-07-05T14:56:05Z</time>
      </trkpt>
      <trkpt lat="46.87612" lon="4.77457">
        <ele>212.59</ele>
        <time>2014-07-05T14:56:41Z</time>
      </trkpt>
      <trkpt lat="46.87612" lon="4.77453">
        <ele>212.59</ele>
        <time>2014-07-05T14:57:11Z</time>
      </trkpt>
      <trkpt lat="46.87613" lon="4.77453">
        <ele>213.07</ele>
        <time>2014-07-05T14:57:26Z</time>
      </trkpt>
      <trkpt lat="46.8762" lon="4.77405">
        <ele>213.07</ele>
        <time>2014-07-05T14:57:40Z</time>
      </trkpt>
      <trkpt lat="46.87633" lon="4.77353">
        <ele>213.07</ele>
        <time>2014-07-05T14:57:53Z</time>
      </trkpt>
      <trkpt lat="46.87678" lon="4.77311">
        <ele>213.07</ele>
        <time>2014-07-05T14:58:08Z</time>
      </trkpt>
      <trkpt lat="46.87735" lon="4.77262">
        <ele>213.07</ele>
        <time>2014-07-05T14:58:25Z</time>
      </trkpt>
      <trkpt lat="46.87796" lon="4.77203">
        <ele>213.07</ele>
        <time>2014-07-05T14:58:44Z</time>
      </trkpt>
      <trkpt lat="46.87843" lon="4.7712">
        <ele>214.51</ele>
        <time>2014-07-05T14:59:03Z</time>
      </trkpt>
      <trkpt lat="46.87873" lon="4.77062">
        <ele>216.43</ele>
        <time>2014-07-05T14:59:21Z</time>
      </trkpt>
      <trkpt lat="46.87899" lon="4.77017">
        <ele>218.36</ele>
        <time>2014-07-05T14:59:40Z</time>
      </trkpt>
      <trkpt lat="46.87922" lon="4.7696">
        <ele>218.36</ele>
        <time>2014-07-05T14:59:54Z</time>
      </trkpt>
      <trkpt lat="46.87965" lon="4.769">
        <ele>218.84</ele>
        <time>2014-07-05T15:00:10Z</time>
      </trkpt>
      <trkpt lat="46.8803" lon="4.76849">
        <ele>218.84</ele>
        <time>2014-07-05T15:00:28Z</time>
      </trkpt>
      <trkpt lat="46.88095" lon="4.76788">
        <ele>218.84</ele>
        <time>2014-07-05T15:00:45Z</time>
      </trkpt>
      <trkpt lat="46.88142" lon="4.76693">
        <ele>219.32</ele>
        <time>2014-07-05T15:01:03Z</time>
      </trkpt>
      <trkpt lat="46.88173" lon="4.76625">
        <ele>220.76</ele>
        <time>2014-07-05T15:01:18Z</time>
      </trkpt>
      <trkpt lat="46.88181" lon="4.7661">
        <ele>221.72</ele>
        <time>2014-07-05T15:01:29Z</time>
      </trkpt>
      <trkpt lat="46.88203" lon="4.76563">
        <ele>220.76</ele>
        <time>2014-07-05T15:01:41Z</time>
      </trkpt>
      <trkpt lat="46.88244" lon="4.76485">
        <ele>221.72</ele>
        <time>2014-07-05T15:01:58Z</time>
      </trkpt>
      <trkpt lat="46.88259" lon="4.7647">
        <ele>221.72</ele>
        <time>2014-07-05T15:02:02Z</time>
      </trkpt>
      <trkpt lat="46.88275" lon="4.76461">
        <ele>221.72</ele>
        <time>2014-07-05T15:02:06Z</time>
      </trkpt>
      <trkpt lat="46.88287" lon="4.76457">
        <ele>221.72</ele>
        <time>2014-07-05T15:02:09Z</time>
      </trkpt>
      <trkpt lat="46.88366" lon="4.76464">
        <ele>221.72</ele>
        <time>2014-07-05T15:02:26Z</time>
      </trkpt>
      <trkpt lat="46.88443" lon="4.76486">
        <ele>222.68</ele>
        <time>2014-07-05T15:02:44Z</time>
      </trkpt>
      <trkpt lat="46.8846" lon="4.7649">
        <ele>222.68</ele>
        <time>2014-07-05T15:02:48Z</time>
      </trkpt>
      <trkpt lat="46.88531" lon="4.76501">
        <ele>224.12</ele>
        <time>2014-07-05T15:03:06Z</time>
      </trkpt>
      <trkpt lat="46.88536" lon="4.76501">
        <ele>224.61</ele>
        <time>2014-07-05T15:03:08Z</time>
      </trkpt>
      <trkpt lat="46.88572" lon="4.76505">
        <ele>226.53</ele>
        <time>2014-07-05T15:03:23Z</time>
      </trkpt>
      <trkpt lat="46.88623" lon="4.76497">
        <ele>226.53</ele>
        <time>2014-07-05T15:03:40Z</time>
      </trkpt>
      <trkpt lat="46.88696" lon="4.76473">
        <ele>226.53</ele>
        <time>2014-07-05T15:03:59Z</time>
      </trkpt>
      <trkpt lat="46.88769" lon="4.76441">
        <ele>227.49</ele>
        <time>2014-07-05T15:04:18Z</time>
      </trkpt>
      <trkpt lat="46.88819" lon="4.76404">
        <ele>227.49</ele>
        <time>2014-07-05T15:04:33Z</time>
      </trkpt>
      <trkpt lat="46.88861" lon="4.76322">
        <ele>227.97</ele>
        <time>2014-07-05T15:04:50Z</time>
      </trkpt>
      <trkpt lat="46.88899" lon="4.76227">
        <ele>227.97</ele>
        <time>2014-07-05T15:05:09Z</time>
      </trkpt>
      <trkpt lat="46.88942" lon="4.76122">
        <ele>228.45</ele>
        <time>2014-07-05T15:05:30Z</time>
      </trkpt>
      <trkpt lat="46.88962" lon="4.76081">
        <ele>231.33</ele>
        <time>2014-07-05T15:05:44Z</time>
      </trkpt>
      <trkpt lat="46.8898" lon="4.76034">
        <ele>231.81</ele>
        <time>2014-07-05T15:05:59Z</time>
      </trkpt>
      <trkpt lat="46.89004" lon="4.7598">
        <ele>231.81</ele>
        <time>2014-07-05T15:06:13Z</time>
      </trkpt>
      <trkpt lat="46.89034" lon="4.75905">
        <ele>231.81</ele>
        <time>2014-07-05T15:06:28Z</time>
      </trkpt>
      <trkpt lat="46.89045" lon="4.7588">
        <ele>231.81</ele>
        <time>2014-07-05T15:06:33Z</time>
      </trkpt>
      <trkpt lat="46.89058" lon="4.75847">
        <ele>231.81</ele>
        <time>2014-07-05T15:06:39Z</time>
      </trkpt>
      <trkpt lat="46.89085" lon="4.75777">
        <ele>231.81</ele>
        <time>2014-07-05T15:06:53Z</time>
      </trkpt>
      <trkpt lat="46.8909" lon="4.75766">
        <ele>232.3</ele>
        <time>2014-07-05T15:06:55Z</time>
      </trkpt>
      <trkpt lat="46.89101" lon="4.75738">
        <ele>232.3</ele>
        <time>2014-07-05T15:07:00Z</time>
      </trkpt>
      <trkpt lat="46.89116" lon="4.75713">
        <ele>232.3</ele>
        <time>2014-07-05T15:07:05Z</time>
      </trkpt>
      <trkpt lat="46.89134" lon="4.75696">
        <ele>232.3</ele>
        <time>2014-07-05T15:07:10Z</time>
      </trkpt>
      <trkpt lat="46.89189" lon="4.75672">
        <ele>232.78</ele>
        <time>2014-07-05T15:07:23Z</time>
      </trkpt>
      <trkpt lat="46.89253" lon="4.75652">
        <ele>233.26</ele>
        <time>2014-07-05T15:07:38Z</time>
      </trkpt>
      <trkpt lat="46.89318" lon="4.75629">
        <ele>233.26</ele>
        <time>2014-07-05T15:07:52Z</time>
      </trkpt>
      <trkpt lat="46.89382" lon="4.75611">
        <ele>233.26</ele>
        <time>2014-07-05T15:08:06Z</time>
      </trkpt>
      <trkpt lat="46.89436" lon="4.75595">
        <ele>233.26</ele>
        <time>2014-07-05T15:08:17Z</time>
      </trkpt>
      <trkpt lat="46.89499" lon="4.75576">
        <ele>233.26</ele>
        <time>2014-07-05T15:08:30Z</time>
      </trkpt>
      <trkpt lat="46.8956" lon="4.75556">
        <ele>233.26</ele>
        <time>2014-07-05T15:08:44Z</time>
      </trkpt>
      <trkpt lat="46.89621" lon="4.75536">
        <ele>233.26</ele>
        <time>2014-07-05T15:08:57Z</time>
      </trkpt>
      <trkpt lat="46.89676" lon="4.75519">
        <ele>233.26</ele>
        <time>2014-07-05T15:09:08Z</time>
      </trkpt>
      <trkpt lat="46.89763" lon="4.75485">
        <ele>232.78</ele>
        <time>2014-07-05T15:09:25Z</time>
      </trkpt>
      <trkpt lat="46.89825" lon="4.75464">
        <ele>232.78</ele>
        <time>2014-07-05T15:09:38Z</time>
      </trkpt>
      <trkpt lat="46.8983" lon="4.75462">
        <ele>232.78</ele>
        <time>2014-07-05T15:09:39Z</time>
      </trkpt>
      <trkpt lat="46.89849" lon="4.75457">
        <ele>232.78</ele>
        <time>2014-07-05T15:09:43Z</time>
      </trkpt>
      <trkpt lat="46.89869" lon="4.75452">
        <ele>232.78</ele>
        <time>2014-07-05T15:09:47Z</time>
      </trkpt>
      <trkpt lat="46.89884" lon="4.75446">
        <ele>232.78</ele>
        <time>2014-07-05T15:09:50Z</time>
      </trkpt>
      <trkpt lat="46.89899" lon="4.75441">
        <ele>232.78</ele>
        <time>2014-07-05T15:09:53Z</time>
      </trkpt>
      <trkpt lat="46.89964" lon="4.75419">
        <ele>232.78</ele>
        <time>2014-07-05T15:10:06Z</time>
      </trkpt>
      <trkpt lat="46.90016" lon="4.75405">
        <ele>232.78</ele>
        <time>2014-07-05T15:10:17Z</time>
      </trkpt>
      <trkpt lat="46.90083" lon="4.75382">
        <ele>232.3</ele>
        <time>2014-07-05T15:10:31Z</time>
      </trkpt>
      <trkpt lat="46.90088" lon="4.75381">
        <ele>232.78</ele>
        <time>2014-07-05T15:10:32Z</time>
      </trkpt>
      <trkpt lat="46.90151" lon="4.75359">
        <ele>232.3</ele>
        <time>2014-07-05T15:10:46Z</time>
      </trkpt>
      <trkpt lat="46.90197" lon="4.75342">
        <ele>232.3</ele>
        <time>2014-07-05T15:10:58Z</time>
      </trkpt>
      <trkpt lat="46.90208" lon="4.75336">
        <ele>232.3</ele>
        <time>2014-07-05T15:11:01Z</time>
      </trkpt>
      <trkpt lat="46.90221" lon="4.75291">
        <ele>232.78</ele>
        <time>2014-07-05T15:11:14Z</time>
      </trkpt>
      <trkpt lat="46.9023" lon="4.75239">
        <ele>233.26</ele>
        <time>2014-07-05T15:11:27Z</time>
      </trkpt>
      <trkpt lat="46.90232" lon="4.75226">
        <ele>233.26</ele>
        <time>2014-07-05T15:11:32Z</time>
      </trkpt>
      <trkpt lat="46.90237" lon="4.75222">
        <ele>234.22</ele>
        <time>2014-07-05T15:11:44Z</time>
      </trkpt>
      <trkpt lat="46.90239" lon="4.75221">
        <ele>234.22</ele>
        <time>2014-07-05T15:11:48Z</time>
      </trkpt>
      <trkpt lat="46.90261" lon="4.75222">
        <ele>235.18</ele>
        <time>2014-07-05T15:12:00Z</time>
      </trkpt>
      <trkpt lat="46.90263" lon="4.75222">
        <ele>235.18</ele>
        <time>2014-07-05T15:12:17Z</time>
      </trkpt>
      <trkpt lat="46.90296" lon="4.75221">
        <ele>235.66</ele>
        <time>2014-07-05T15:12:32Z</time>
      </trkpt>
      <trkpt lat="46.90331" lon="4.7522">
        <ele>235.18</ele>
        <time>2014-07-05T15:12:47Z</time>
      </trkpt>
      <trkpt lat="46.90372" lon="4.75219">
        <ele>234.22</ele>
        <time>2014-07-05T15:12:59Z</time>
      </trkpt>
      <trkpt lat="46.90416" lon="4.75218">
        <ele>232.78</ele>
        <time>2014-07-05T15:13:09Z</time>
      </trkpt>
      <trkpt lat="46.90433" lon="4.75218">
        <ele>232.78</ele>
        <time>2014-07-05T15:13:13Z</time>
      </trkpt>
      <trkpt lat="46.90507" lon="4.75218">
        <ele>231.81</ele>
        <time>2014-07-05T15:13:30Z</time>
      </trkpt>
      <trkpt lat="46.90516" lon="4.75219">
        <ele>231.81</ele>
        <time>2014-07-05T15:13:32Z</time>
      </trkpt>
      <trkpt lat="46.90525" lon="4.75233">
        <ele>231.33</ele>
        <time>2014-07-05T15:13:37Z</time>
      </trkpt>
      <trkpt lat="46.90526" lon="4.75242">
        <ele>231.33</ele>
        <time>2014-07-05T15:13:45Z</time>
      </trkpt>
      <trkpt lat="46.90532" lon="4.75248">
        <ele>231.33</ele>
        <time>2014-07-05T15:13:50Z</time>
      </trkpt>
      <trkpt lat="46.90557" lon="4.75228">
        <ele>231.33</ele>
        <time>2014-07-05T15:14:01Z</time>
      </trkpt>
      <trkpt lat="46.90566" lon="4.75212">
        <ele>230.37</ele>
        <time>2014-07-05T15:14:06Z</time>
      </trkpt>
      <trkpt lat="46.90567" lon="4.75184">
        <ele>228.93</ele>
        <time>2014-07-05T15:14:10Z</time>
      </trkpt>
      <trkpt lat="46.9057" lon="4.75154">
        <ele>226.53</ele>
        <time>2014-07-05T15:14:14Z</time>
      </trkpt>
      <trkpt lat="46.90573" lon="4.75135">
        <ele>225.09</ele>
        <time>2014-07-05T15:14:17Z</time>
      </trkpt>
      <trkpt lat="46.90602" lon="4.75119">
        <ele>223.16</ele>
        <time>2014-07-05T15:14:26Z</time>
      </trkpt>
      <trkpt lat="46.90629" lon="4.75119">
        <ele>222.2</ele>
        <time>2014-07-05T15:14:32Z</time>
      </trkpt>
      <trkpt lat="46.90647" lon="4.75119">
        <ele>221.24</ele>
        <time>2014-07-05T15:14:36Z</time>
      </trkpt>
      <trkpt lat="46.90665" lon="4.75121">
        <ele>220.76</ele>
        <time>2014-07-05T15:14:41Z</time>
      </trkpt>
      <trkpt lat="46.90693" lon="4.7511">
        <ele>220.76</ele>
        <time>2014-07-05T15:14:53Z</time>
      </trkpt>
      <trkpt lat="46.90693" lon="4.7511">
        <ele>220.76</ele>
        <time>2014-07-05T15:14:56Z</time>
      </trkpt>
      <trkpt lat="46.90691" lon="4.75102">
        <ele>220.76</ele>
        <time>2014-07-05T15:15:00Z</time>
      </trkpt>
      <trkpt lat="46.90649" lon="4.75063">
        <ele>221.72</ele>
        <time>2014-07-05T15:15:18Z</time>
      </trkpt>
      <trkpt lat="46.90665" lon="4.75044">
        <ele>222.68</ele>
        <time>2014-07-05T15:15:26Z</time>
      </trkpt>
      <trkpt lat="46.90726" lon="4.75018">
        <ele>222.68</ele>
        <time>2014-07-05T15:15:46Z</time>
      </trkpt>
      <trkpt lat="46.90778" lon="4.74994">
        <ele>222.68</ele>
        <time>2014-07-05T15:16:04Z</time>
      </trkpt>
      <trkpt lat="46.90815" lon="4.74966">
        <ele>221.24</ele>
        <time>2014-07-05T15:16:16Z</time>
      </trkpt>
      <trkpt lat="46.90868" lon="4.7492">
        <ele>217.88</ele>
        <time>2014-07-05T15:16:29Z</time>
      </trkpt>
      <trkpt lat="46.90872" lon="4.7492">
        <ele>217.88</ele>
        <time>2014-07-05T15:16:33Z</time>
      </trkpt>
      <trkpt lat="46.90871" lon="4.74903">
        <ele>217.88</ele>
        <time>2014-07-05T15:16:40Z</time>
      </trkpt>
      <trkpt lat="46.90862" lon="4.74842">
        <ele>218.36</ele>
        <time>2014-07-05T15:16:53Z</time>
      </trkpt>
      <trkpt lat="46.90888" lon="4.74756">
        <ele>217.4</ele>
        <time>2014-07-05T15:17:10Z</time>
      </trkpt>
      <trkpt lat="46.90921" lon="4.74674">
        <ele>217.4</ele>
        <time>2014-07-05T15:17:27Z</time>
      </trkpt>
      <trkpt lat="46.9094" lon="4.74624">
        <ele>217.88</ele>
        <time>2014-07-05T15:17:36Z</time>
      </trkpt>
      <trkpt lat="46.90989" lon="4.74541">
        <ele>217.4</ele>
        <time>2014-07-05T15:17:53Z</time>
      </trkpt>
      <trkpt lat="46.91033" lon="4.74467">
        <ele>217.4</ele>
        <time>2014-07-05T15:18:08Z</time>
      </trkpt>
      <trkpt lat="46.9109" lon="4.7436">
        <ele>218.36</ele>
        <time>2014-07-05T15:18:29Z</time>
      </trkpt>
      <trkpt lat="46.91112" lon="4.74338">
        <ele>218.36</ele>
        <time>2014-07-05T15:18:36Z</time>
      </trkpt>
      <trkpt lat="46.91127" lon="4.74346">
        <ele>217.88</ele>
        <time>2014-07-05T15:18:40Z</time>
      </trkpt>
      <trkpt lat="46.91171" lon="4.74428">
        <ele>216.43</ele>
        <time>2014-07-05T15:18:56Z</time>
      </trkpt>
      <trkpt lat="46.91179" lon="4.74531">
        <ele>216.43</ele>
        <time>2014-07-05T15:19:12Z</time>
      </trkpt>
      <trkpt lat="46.91182" lon="4.74563">
        <ele>215.95</ele>
        <time>2014-07-05T15:19:18Z</time>
      </trkpt>
      <trkpt lat="46.91191" lon="4.74565">
        <ele>215.95</ele>
        <time>2014-07-05T15:19:22Z</time>
      </trkpt>
      <trkpt lat="46.91207" lon="4.74557">
        <ele>215.95</ele>
        <time>2014-07-05T15:19:34Z</time>
      </trkpt>
      <trkpt lat="46.91212" lon="4.74557">
        <ele>215.95</ele>
        <time>2014-07-05T15:19:49Z</time>
      </trkpt>
      <trkpt lat="46.91213" lon="4.74556">
        <ele>215.95</ele>
        <time>2014-07-05T15:20:24Z</time>
      </trkpt>
      <trkpt lat="46.91218" lon="4.74552">
        <ele>215.95</ele>
        <time>2014-07-05T15:21:00Z</time>
      </trkpt>
      <trkpt lat="46.91216" lon="4.74552">
        <ele>215.95</ele>
        <time>2014-07-05T15:21:44Z</time>
      </trkpt>
      <trkpt lat="46.91214" lon="4.74552">
        <ele>215.95</ele>
        <time>2014-07-05T15:22:25Z</time>
      </trkpt>
      <trkpt lat="46.91213" lon="4.74556">
        <ele>215.95</ele>
        <time>2014-07-05T15:23:10Z</time>
      </trkpt>
      <trkpt lat="46.91216" lon="4.74555">
        <ele>215.47</ele>
        <time>2014-07-05T15:23:58Z</time>
      </trkpt>
      <trkpt lat="46.91213" lon="4.74556">
        <ele>215.47</ele>
        <time>2014-07-05T15:24:39Z</time>
      </trkpt>
      <trkpt lat="46.91215" lon="4.74557">
        <ele>215.47</ele>
        <time>2014-07-05T15:25:31Z</time>
      </trkpt>
      <trkpt lat="46.91216" lon="4.74557">
        <ele>215.47</ele>
        <time>2014-07-05T15:26:12Z</time>
      </trkpt>
      <trkpt lat="46.91215" lon="4.74556">
        <ele>215.95</ele>
        <time>2014-07-05T15:27:03Z</time>
      </trkpt>
      <trkpt lat="46.91211" lon="4.74561">
        <ele>215.95</ele>
        <time>2014-07-05T15:27:49Z</time>
      </trkpt>
      <trkpt lat="46.91215" lon="4.74557">
        <ele>215.47</ele>
        <time>2014-07-05T15:28:20Z</time>
      </trkpt>
      <trkpt lat="46.91228" lon="4.74533">
        <ele>215.47</ele>
        <time>2014-07-05T15:28:39Z</time>
      </trkpt>
      <trkpt lat="46.91234" lon="4.74504">
        <ele>215.47</ele>
        <time>2014-07-05T15:28:57Z</time>
      </trkpt>
      <trkpt lat="46.91236" lon="4.74474">
        <ele>215.47</ele>
        <time>2014-07-05T15:29:15Z</time>
      </trkpt>
      <trkpt lat="46.91234" lon="4.7445">
        <ele>215.47</ele>
        <time>2014-07-05T15:29:30Z</time>
      </trkpt>
      <trkpt lat="46.91231" lon="4.7442">
        <ele>215.95</ele>
        <time>2014-07-05T15:29:49Z</time>
      </trkpt>
      <trkpt lat="46.91226" lon="4.74382">
        <ele>215.95</ele>
        <time>2014-07-05T15:30:13Z</time>
      </trkpt>
      <trkpt lat="46.91228" lon="4.74349">
        <ele>215.95</ele>
        <time>2014-07-05T15:30:33Z</time>
      </trkpt>
      <trkpt lat="46.91238" lon="4.7433">
        <ele>215.95</ele>
        <time>2014-07-05T15:30:53Z</time>
      </trkpt>
      <trkpt lat="46.91237" lon="4.74337">
        <ele>215.95</ele>
        <time>2014-07-05T15:31:05Z</time>
      </trkpt>
      <trkpt lat="46.91224" lon="4.74366">
        <ele>216.43</ele>
        <time>2014-07-05T15:31:18Z</time>
      </trkpt>
      <trkpt lat="46.91229" lon="4.74406">
        <ele>215.95</ele>
        <time>2014-07-05T15:31:30Z</time>
      </trkpt>
      <trkpt lat="46.91234" lon="4.74442">
        <ele>215.95</ele>
        <time>2014-07-05T15:31:40Z</time>
      </trkpt>
      <trkpt lat="46.91221" lon="4.74453">
        <ele>215.95</ele>
        <time>2014-07-05T15:31:47Z</time>
      </trkpt>
      <trkpt lat="46.91209" lon="4.74482">
        <ele>215.47</ele>
        <time>2014-07-05T15:32:00Z</time>
      </trkpt>
      <trkpt lat="46.91214" lon="4.74528">
        <ele>215.95</ele>
        <time>2014-07-05T15:32:15Z</time>
      </trkpt>
      <trkpt lat="46.91215" lon="4.74542">
        <ele>215.95</ele>
        <time>2014-07-05T15:32:19Z</time>
      </trkpt>
      <trkpt lat="46.9123" lon="4.74534">
        <ele>215.95</ele>
        <time>2014-07-05T15:32:28Z</time>
      </trkpt>
      <trkpt lat="46.91234" lon="4.74514">
        <ele>215.47</ele>
        <time>2014-07-05T15:32:34Z</time>
      </trkpt>
      <trkpt lat="46.91235" lon="4.74485">
        <ele>215.95</ele>
        <time>2014-07-05T15:32:49Z</time>
      </trkpt>
      <trkpt lat="46.91234" lon="4.74482">
        <ele>215.47</ele>
        <time>2014-07-05T15:32:58Z</time>
      </trkpt>
      <trkpt lat="46.9122" lon="4.74486">
        <ele>215.47</ele>
        <time>2014-07-05T15:33:15Z</time>
      </trkpt>
      <trkpt lat="46.9122" lon="4.74483">
        <ele>215.47</ele>
        <time>2014-07-05T15:33:29Z</time>
      </trkpt>
      <trkpt lat="46.9122" lon="4.74487">
        <ele>215.47</ele>
        <time>2014-07-05T15:33:44Z</time>
      </trkpt>
      <trkpt lat="46.91221" lon="4.74491">
        <ele>215.47</ele>
        <time>2014-07-05T15:34:10Z</time>
      </trkpt>
      <trkpt lat="46.91217" lon="4.7449">
        <ele>215.47</ele>
        <time>2014-07-05T15:34:37Z</time>
      </trkpt>
      <trkpt lat="46.91218" lon="4.7449">
        <ele>215.47</ele>
        <time>2014-07-05T15:35:18Z</time>
      </trkpt>
      <trkpt lat="46.91221" lon="4.74492">
        <ele>215.47</ele>
        <time>2014-07-05T15:35:53Z</time>
      </trkpt>
      <trkpt lat="46.91221" lon="4.74491">
        <ele>215.47</ele>
        <time>2014-07-05T15:36:30Z</time>
      </trkpt>
      <trkpt lat="46.91222" lon="4.74492">
        <ele>215.47</ele>
        <time>2014-07-05T15:37:03Z</time>
      </trkpt>
      <trkpt lat="46.91221" lon="4.74494">
        <ele>215.47</ele>
        <time>2014-07-05T15:37:34Z</time>
      </trkpt>
      <trkpt lat="46.91222" lon="4.74499">
        <ele>215.47</ele>
        <time>2014-07-05T15:38:07Z</time>
      </trkpt>
      <trkpt lat="46.91222" lon="4.74489">
        <ele>215.95</ele>
        <time>2014-07-05T15:38:36Z</time>
      </trkpt>
      <trkpt lat="46.91219" lon="4.74489">
        <ele>215.95</ele>
        <time>2014-07-05T15:39:06Z</time>
      </trkpt>
      <trkpt lat="46.9122" lon="4.74492">
        <ele>215.95</ele>
        <time>2014-07-05T15:39:43Z</time>
      </trkpt>
      <trkpt lat="46.91219" lon="4.74492">
        <ele>216.43</ele>
        <time>2014-07-05T15:40:27Z</time>
      </trkpt>
      <trkpt lat="46.91224" lon="4.74491">
        <ele>216.43</ele>
        <time>2014-07-05T15:41:06Z</time>
      </trkpt>
      <trkpt lat="46.91223" lon="4.74493">
        <ele>216.91</ele>
        <time>2014-07-05T15:41:46Z</time>
      </trkpt>
      <trkpt lat="46.91223" lon="4.74487">
        <ele>216.91</ele>
        <time>2014-07-05T15:42:23Z</time>
      </trkpt>
      <trkpt lat="46.9122" lon="4.74488">
        <ele>216.91</ele>
        <time>2014-07-05T15:43:07Z</time>
      </trkpt>
      <trkpt lat="46.91221" lon="4.74492">
        <ele>216.91</ele>
        <time>2014-07-05T15:43:54Z</time>
      </trkpt>
      <trkpt lat="46.9122" lon="4.74487">
        <ele>217.4</ele>
        <time>2014-07-05T15:44:34Z</time>
      </trkpt>
      <trkpt lat="46.91221" lon="4.74487">
        <ele>216.91</ele>
        <time>2014-07-05T15:45:20Z</time>
      </trkpt>
      <trkpt lat="46.91224" lon="4.74485">
        <ele>217.4</ele>
        <time>2014-07-05T15:46:03Z</time>
      </trkpt>
      <trkpt lat="46.91226" lon="4.74481">
        <ele>217.4</ele>
        <time>2014-07-05T15:46:36Z</time>
      </trkpt>
      <trkpt lat="46.91228" lon="4.74484">
        <ele>217.4</ele>
        <time>2014-07-05T15:47:08Z</time>
      </trkpt>
      <trkpt lat="46.91228" lon="4.74481">
        <ele>217.88</ele>
        <time>2014-07-05T15:47:48Z</time>
      </trkpt>
      <trkpt lat="46.91229" lon="4.7448">
        <ele>217.88</ele>
        <time>2014-07-05T15:48:22Z</time>
      </trkpt>
      <trkpt lat="46.91228" lon="4.74485">
        <ele>217.88</ele>
        <time>2014-07-05T15:48:54Z</time>
      </trkpt>
      <trkpt lat="46.91226" lon="4.74487">
        <ele>217.88</ele>
        <time>2014-07-05T15:49:33Z</time>
      </trkpt>
      <trkpt lat="46.91226" lon="4.74486">
        <ele>217.4</ele>
        <time>2014-07-05T15:50:09Z</time>
      </trkpt>
      <trkpt lat="46.91224" lon="4.74488">
        <ele>217.4</ele>
        <time>2014-07-05T15:50:48Z</time>
      </trkpt>
      <trkpt lat="46.91223" lon="4.7449">
        <ele>217.88</ele>
        <time>2014-07-05T15:51:24Z</time>
      </trkpt>
      <trkpt lat="46.91219" lon="4.74492">
        <ele>217.88</ele>
        <time>2014-07-05T15:52:03Z</time>
      </trkpt>
      <trkpt lat="46.91214" lon="4.74502">
        <ele>217.88</ele>
        <time>2014-07-05T15:52:42Z</time>
      </trkpt>
      <trkpt lat="46.91222" lon="4.74492">
        <ele>217.88</ele>
        <time>2014-07-05T15:53:14Z</time>
      </trkpt>
      <trkpt lat="46.91224" lon="4.74487">
        <ele>217.4</ele>
        <time>2014-07-05T15:53:48Z</time>
      </trkpt>
      <trkpt lat="46.91221" lon="4.74486">
        <ele>217.88</ele>
        <time>2014-07-05T15:54:28Z</time>
      </trkpt>
      <trkpt lat="46.9122" lon="4.74488">
        <ele>218.36</ele>
        <time>2014-07-05T15:55:08Z</time>
      </trkpt>
      <trkpt lat="46.91218" lon="4.74485">
        <ele>218.36</ele>
        <time>2014-07-05T15:55:49Z</time>
      </trkpt>
      <trkpt lat="46.91217" lon="4.74486">
        <ele>218.36</ele>
        <time>2014-07-05T15:56:26Z</time>
      </trkpt>
      <trkpt lat="46.91227" lon="4.74485">
        <ele>218.36</ele>
        <time>2014-07-05T15:57:01Z</time>
      </trkpt>
      <trkpt lat="46.91228" lon="4.74484">
        <ele>218.36</ele>
        <time>2014-07-05T15:57:39Z</time>
      </trkpt>
      <trkpt lat="46.91232" lon="4.74487">
        <ele>218.36</ele>
        <time>2014-07-05T15:58:10Z</time>
      </trkpt>
      <trkpt lat="46.91222" lon="4.74489">
        <ele>219.32</ele>
        <time>2014-07-05T15:58:40Z</time>
      </trkpt>
      <trkpt lat="46.91224" lon="4.74487">
        <ele>218.36</ele>
        <time>2014-07-05T15:58:51Z</time>
      </trkpt>
      <trkpt lat="46.91222" lon="4.74487">
        <ele>211.63</ele>
        <time>2014-07-05T17:20:17Z</time>
      </trkpt>
      <trkpt lat="46.91224" lon="4.74482">
        <ele>210.19</ele>
        <time>2014-07-05T17:20:25Z</time>
      </trkpt>
      <trkpt lat="46.91223" lon="4.74482">
        <ele>209.7</ele>
        <time>2014-07-05T17:20:55Z</time>
      </trkpt>
      <trkpt lat="46.91225" lon="4.74482">
        <ele>213.07</ele>
        <time>2014-07-05T17:21:13Z</time>
      </trkpt>
      <trkpt lat="46.91225" lon="4.74484">
        <ele>215.95</ele>
        <time>2014-07-05T17:21:23Z</time>
      </trkpt>
      <trkpt lat="46.91228" lon="4.74487">
        <ele>219.32</ele>
        <time>2014-07-05T17:21:35Z</time>
      </trkpt>
      <trkpt lat="46.91229" lon="4.74491">
        <ele>222.2</ele>
        <time>2014-07-05T17:22:01Z</time>
      </trkpt>
      <trkpt lat="46.91222" lon="4.74481">
        <ele>223.64</ele>
        <time>2014-07-05T17:22:25Z</time>
      </trkpt>
      <trkpt lat="46.91221" lon="4.74481">
        <ele>223.64</ele>
        <time>2014-07-05T17:22:26Z</time>
      </trkpt>
      <trkpt lat="46.9122" lon="4.74479">
        <ele>223.64</ele>
        <time>2014-07-05T17:22:28Z</time>
      </trkpt>
      <trkpt lat="46.91204" lon="4.74475">
        <ele>223.64</ele>
        <time>2014-07-05T17:22:54Z</time>
      </trkpt>
      <trkpt lat="46.9122" lon="4.74479">
        <ele>223.16</ele>
        <time>2014-07-05T17:23:20Z</time>
      </trkpt>
      <trkpt lat="46.91226" lon="4.74485">
        <ele>223.64</ele>
        <time>2014-07-05T17:23:55Z</time>
      </trkpt>
      <trkpt lat="46.91232" lon="4.74483">
        <ele>223.16</ele>
        <time>2014-07-05T17:24:28Z</time>
      </trkpt>
      <trkpt lat="46.91224" lon="4.7448">
        <ele>223.16</ele>
        <time>2014-07-05T17:24:53Z</time>
      </trkpt>
      <trkpt lat="46.91223" lon="4.7448">
        <ele>223.16</ele>
        <time>2014-07-05T17:25:01Z</time>
      </trkpt>
      <trkpt lat="46.9122" lon="4.74474">
        <ele>220.76</ele>
        <time>2014-07-05T18:28:37Z</time>
      </trkpt>
      <trkpt lat="46.9122" lon="4.74477">
        <ele>216.43</ele>
        <time>2014-07-05T18:28:38Z</time>
      </trkpt>
      <trkpt lat="46.9122" lon="4.74478">
        <ele>223.64</ele>
        <time>2014-07-05T18:28:39Z</time>
      </trkpt>
      <trkpt lat="46.91222" lon="4.74476">
        <ele>222.2</ele>
        <time>2014-07-05T18:28:40Z</time>
      </trkpt>
      <trkpt lat="46.91224" lon="4.74475">
        <ele>220.76</ele>
        <time>2014-07-05T18:28:51Z</time>
      </trkpt>
      <trkpt lat="46.91221" lon="4.7448">
        <ele>217.4</ele>
        <time>2014-07-05T18:29:04Z</time>
      </trkpt>
      <trkpt lat="46.91223" lon="4.74482">
        <ele>215.47</ele>
        <time>2014-07-05T18:29:37Z</time>
      </trkpt>
      <trkpt lat="46.91222" lon="4.74477">
        <ele>214.51</ele>
        <time>2014-07-05T18:30:20Z</time>
      </trkpt>
      <trkpt lat="46.91224" lon="4.74479">
        <ele>216.43</ele>
        <time>2014-07-05T18:31:54Z</time>
      </trkpt>
      <trkpt lat="46.91221" lon="4.7447">
        <ele>214.99</ele>
        <time>2014-07-05T18:32:02Z</time>
      </trkpt>
      <trkpt lat="46.91223" lon="4.74487">
        <ele>214.51</ele>
        <time>2014-07-05T18:32:28Z</time>
      </trkpt>
      <trkpt lat="46.91221" lon="4.74489">
        <ele>214.51</ele>
        <time>2014-07-05T18:32:58Z</time>
      </trkpt>
      <trkpt lat="46.91222" lon="4.74486">
        <ele>214.99</ele>
        <time>2014-07-05T18:33:31Z</time>
      </trkpt>
      <trkpt lat="46.91221" lon="4.74485">
        <ele>214.99</ele>
        <time>2014-07-05T18:34:08Z</time>
      </trkpt>
      <trkpt lat="46.91222" lon="4.74484">
        <ele>214.51</ele>
        <time>2014-07-05T18:34:35Z</time>
      </trkpt>
      <trkpt lat="46.91224" lon="4.74484">
        <ele>214.51</ele>
        <time>2014-07-05T18:35:04Z</time>
      </trkpt>
      <trkpt lat="46.91222" lon="4.74485">
        <ele>214.99</ele>
        <time>2014-07-05T18:35:36Z</time>
      </trkpt>
      <trkpt lat="46.9122" lon="4.7448">
        <ele>214.99</ele>
        <time>2014-07-05T18:36:03Z</time>
      </trkpt>
      <trkpt lat="46.9122" lon="4.74483">
        <ele>214.99</ele>
        <time>2014-07-05T18:36:30Z</time>
      </trkpt>
      <trkpt lat="46.91225" lon="4.74482">
        <ele>214.99</ele>
        <time>2014-07-05T18:37:01Z</time>
      </trkpt>
      <trkpt lat="46.91225" lon="4.74483">
        <ele>215.47</ele>
        <time>2014-07-05T18:37:38Z</time>
      </trkpt>
      <trkpt lat="46.91224" lon="4.74483">
        <ele>215.47</ele>
        <time>2014-07-05T18:38:14Z</time>
      </trkpt>
      <trkpt lat="46.91224" lon="4.74486">
        <ele>215.47</ele>
        <time>2014-07-05T18:38:43Z</time>
      </trkpt>
      <trkpt lat="46.91222" lon="4.74486">
        <ele>215.47</ele>
        <time>2014-07-05T18:39:17Z</time>
      </trkpt>
      <trkpt lat="46.91223" lon="4.74488">
        <ele>215.95</ele>
        <time>2014-07-05T18:39:51Z</time>
      </trkpt>
      <trkpt lat="46.91226" lon="4.74488">
        <ele>215.95</ele>
        <time>2014-07-05T18:40:24Z</time>
      </trkpt>
      <trkpt lat="46.91226" lon="4.74488">
        <ele>215.47</ele>
        <time>2014-07-05T18:40:49Z</time>
      </trkpt>
      <trkpt lat="46.91226" lon="4.7449">
        <ele>215.95</ele>
        <time>2014-07-05T18:41:14Z</time>
      </trkpt>
      <trkpt lat="46.91223" lon="4.74482">
        <ele>215.95</ele>
        <time>2014-07-05T18:41:44Z</time>
      </trkpt>
      <trkpt lat="46.91226" lon="4.74485">
        <ele>215.95</ele>
        <time>2014-07-05T18:42:08Z</time>
      </trkpt>
      <trkpt lat="46.91226" lon="4.74486">
        <ele>215.95</ele>
        <time>2014-07-05T18:42:37Z</time>
      </trkpt>
      <trkpt lat="46.91226" lon="4.74488">
        <ele>215.95</ele>
        <time>2014-07-05T18:43:00Z</time>
      </trkpt>
      <trkpt lat="46.91226" lon="4.74488">
        <ele>215.95</ele>
        <time>2014-07-05T18:43:36Z</time>
      </trkpt>
      <trkpt lat="46.91226" lon="4.74491">
        <ele>216.43</ele>
        <time>2014-07-05T18:44:06Z</time>
      </trkpt>
      <trkpt lat="46.9123" lon="4.7449">
        <ele>216.43</ele>
        <time>2014-07-05T18:44:28Z</time>
      </trkpt>
      <trkpt lat="46.91227" lon="4.74484">
        <ele>216.43</ele>
        <time>2014-07-05T18:45:00Z</time>
      </trkpt>
      <trkpt lat="46.91225" lon="4.74486">
        <ele>216.43</ele>
        <time>2014-07-05T18:45:26Z</time>
      </trkpt>
      <trkpt lat="46.91223" lon="4.7449">
        <ele>216.43</ele>
        <time>2014-07-05T18:46:06Z</time>
      </trkpt>
      <trkpt lat="46.91226" lon="4.74489">
        <ele>216.91</ele>
        <time>2014-07-05T18:46:34Z</time>
      </trkpt>
      <trkpt lat="46.91227" lon="4.74487">
        <ele>216.91</ele>
        <time>2014-07-05T18:47:01Z</time>
      </trkpt>
      <trkpt lat="46.91224" lon="4.74485">
        <ele>216.91</ele>
        <time>2014-07-05T18:47:37Z</time>
      </trkpt>
      <trkpt lat="46.91222" lon="4.74487">
        <ele>216.91</ele>
        <time>2014-07-05T18:48:22Z</time>
      </trkpt>
      <trkpt lat="46.91222" lon="4.74488">
        <ele>216.91</ele>
        <time>2014-07-05T18:48:55Z</time>
      </trkpt>
      <trkpt lat="46.91224" lon="4.74489">
        <ele>216.91</ele>
        <time>2014-07-05T18:49:27Z</time>
      </trkpt>
      <trkpt lat="46.91227" lon="4.74487">
        <ele>216.91</ele>
        <time>2014-07-05T18:49:54Z</time>
      </trkpt>
      <trkpt lat="46.91231" lon="4.74487">
        <ele>216.91</ele>
        <time>2014-07-05T18:50:15Z</time>
      </trkpt>
      <trkpt lat="46.91227" lon="4.74486">
        <ele>216.91</ele>
        <time>2014-07-05T18:50:47Z</time>
      </trkpt>
      <trkpt lat="46.91225" lon="4.74487">
        <ele>216.91</ele>
        <time>2014-07-05T18:51:19Z</time>
      </trkpt>
      <trkpt lat="46.91225" lon="4.74488">
        <ele>216.91</ele>
        <time>2014-07-05T18:51:55Z</time>
      </trkpt>
      <trkpt lat="46.91225" lon="4.74487">
        <ele>217.4</ele>
        <time>2014-07-05T18:52:23Z</time>
      </trkpt>
      <trkpt lat="46.91222" lon="4.74486">
        <ele>217.4</ele>
        <time>2014-07-05T18:52:53Z</time>
      </trkpt>
      <trkpt lat="46.91216" lon="4.74485">
        <ele>217.4</ele>
        <time>2014-07-05T18:53:32Z</time>
      </trkpt>
      <trkpt lat="46.91214" lon="4.74485">
        <ele>217.88</ele>
        <time>2014-07-05T18:54:14Z</time>
      </trkpt>
      <trkpt lat="46.91221" lon="4.74484">
        <ele>217.88</ele>
        <time>2014-07-05T18:54:46Z</time>
      </trkpt>
      <trkpt lat="46.91224" lon="4.74485">
        <ele>217.88</ele>
        <time>2014-07-05T18:55:12Z</time>
      </trkpt>
      <trkpt lat="46.91219" lon="4.74482">
        <ele>218.36</ele>
        <time>2014-07-05T18:55:48Z</time>
      </trkpt>
      <trkpt lat="46.91221" lon="4.74485">
        <ele>218.36</ele>
        <time>2014-07-05T18:56:18Z</time>
      </trkpt>
      <trkpt lat="46.91217" lon="4.74482">
        <ele>218.84</ele>
        <time>2014-07-05T18:56:50Z</time>
      </trkpt>
      <trkpt lat="46.9122" lon="4.74484">
        <ele>218.84</ele>
        <time>2014-07-05T18:57:25Z</time>
      </trkpt>
      <trkpt lat="46.91222" lon="4.74486">
        <ele>218.84</ele>
        <time>2014-07-05T18:57:55Z</time>
      </trkpt>
      <trkpt lat="46.91221" lon="4.74483">
        <ele>219.32</ele>
        <time>2014-07-05T18:58:29Z</time>
      </trkpt>
      <trkpt lat="46.91218" lon="4.74483">
        <ele>219.32</ele>
        <time>2014-07-05T18:59:04Z</time>
      </trkpt>
      <trkpt lat="46.91222" lon="4.74485">
        <ele>219.32</ele>
        <time>2014-07-05T18:59:49Z</time>
      </trkpt>
      <trkpt lat="46.91219" lon="4.74484">
        <ele>219.32</ele>
        <time>2014-07-05T19:00:25Z</time>
      </trkpt>
      <trkpt lat="46.91222" lon="4.74482">
        <ele>219.8</ele>
        <time>2014-07-05T19:01:00Z</time>
      </trkpt>
      <trkpt lat="46.91222" lon="4.74481">
        <ele>219.8</ele>
        <time>2014-07-05T19:01:37Z</time>
      </trkpt>
      <trkpt lat="46.91223" lon="4.74482">
        <ele>219.8</ele>
        <time>2014-07-05T19:02:22Z</time>
      </trkpt>
      <trkpt lat="46.91219" lon="4.7448">
        <ele>220.28</ele>
        <time>2014-07-05T19:03:02Z</time>
      </trkpt>
      <trkpt lat="46.91218" lon="4.74483">
        <ele>220.28</ele>
        <time>2014-07-05T19:03:42Z</time>
      </trkpt>
      <trkpt lat="46.91219" lon="4.74482">
        <ele>220.28</ele>
        <time>2014-07-05T19:04:15Z</time>
      </trkpt>
      <trkpt lat="46.9122" lon="4.74485">
        <ele>220.28</ele>
        <time>2014-07-05T19:04:53Z</time>
      </trkpt>
      <trkpt lat="46.91219" lon="4.74485">
        <ele>220.28</ele>
        <time>2014-07-05T19:05:31Z</time>
      </trkpt>
      <trkpt lat="46.91223" lon="4.7448">
        <ele>220.76</ele>
        <time>2014-07-05T19:06:00Z</time>
      </trkpt>
      <trkpt lat="46.9122" lon="4.74484">
        <ele>220.76</ele>
        <time>2014-07-05T19:06:32Z</time>
      </trkpt>
      <trkpt lat="46.91223" lon="4.74483">
        <ele>220.76</ele>
        <time>2014-07-05T19:07:05Z</time>
      </trkpt>
      <trkpt lat="46.91222" lon="4.74483">
        <ele>220.76</ele>
        <time>2014-07-05T19:07:43Z</time>
      </trkpt>
      <trkpt lat="46.91223" lon="4.74484">
        <ele>220.76</ele>
        <time>2014-07-05T19:08:24Z</time>
      </trkpt>
      <trkpt lat="46.91221" lon="4.74484">
        <ele>220.76</ele>
        <time>2014-07-05T19:09:01Z</time>
      </trkpt>
      <trkpt lat="46.91219" lon="4.74487">
        <ele>220.28</ele>
        <time>2014-07-05T19:09:40Z</time>
      </trkpt>
      <trkpt lat="46.91221" lon="4.74488">
        <ele>220.76</ele>
        <time>2014-07-05T19:10:18Z</time>
      </trkpt>
      <trkpt lat="46.91225" lon="4.74488">
        <ele>220.76</ele>
        <time>2014-07-05T19:10:50Z</time>
      </trkpt>
      <trkpt lat="46.91223" lon="4.74485">
        <ele>220.76</ele>
        <time>2014-07-05T19:11:24Z</time>
      </trkpt>
      <trkpt lat="46.91221" lon="4.74486">
        <ele>220.76</ele>
        <time>2014-07-05T19:11:58Z</time>
      </trkpt>
      <trkpt lat="46.91223" lon="4.74488">
        <ele>220.76</ele>
        <time>2014-07-05T19:12:29Z</time>
      </trkpt>
      <trkpt lat="46.91224" lon="4.74489">
        <ele>220.76</ele>
        <time>2014-07-05T19:12:59Z</time>
      </trkpt>
      <trkpt lat="46.91224" lon="4.7449">
        <ele>220.76</ele>
        <time>2014-07-05T19:13:30Z</time>
      </trkpt>
      <trkpt lat="46.91223" lon="4.74494">
        <ele>221.24</ele>
        <time>2014-07-05T19:14:01Z</time>
      </trkpt>
      <trkpt lat="46.91224" lon="4.74491">
        <ele>221.24</ele>
        <time>2014-07-05T19:14:34Z</time>
      </trkpt>
      <trkpt lat="46.91225" lon="4.74488">
        <ele>221.24</ele>
        <time>2014-07-05T19:15:12Z</time>
      </trkpt>
      <trkpt lat="46.91221" lon="4.74485">
        <ele>221.24</ele>
        <time>2014-07-05T19:15:47Z</time>
      </trkpt>
      <trkpt lat="46.91221" lon="4.74488">
        <ele>221.24</ele>
        <time>2014-07-05T19:16:19Z</time>
      </trkpt>
      <trkpt lat="46.9122" lon="4.74485">
        <ele>221.24</ele>
        <time>2014-07-05T19:16:49Z</time>
      </trkpt>
      <trkpt lat="46.91224" lon="4.74484">
        <ele>221.24</ele>
        <time>2014-07-05T19:17:21Z</time>
      </trkpt>
      <trkpt lat="46.91222" lon="4.74483">
        <ele>221.24</ele>
        <time>2014-07-05T19:17:47Z</time>
      </trkpt>
      <trkpt lat="46.91219" lon="4.74485">
        <ele>221.24</ele>
        <time>2014-07-05T19:18:20Z</time>
      </trkpt>
      <trkpt lat="46.91219" lon="4.74486">
        <ele>221.24</ele>
        <time>2014-07-05T19:18:51Z</time>
      </trkpt>
      <trkpt lat="46.91222" lon="4.74489">
        <ele>221.24</ele>
        <time>2014-07-05T19:19:25Z</time>
      </trkpt>
      <trkpt lat="46.91221" lon="4.7449">
        <ele>221.24</ele>
        <time>2014-07-05T19:20:01Z</time>
      </trkpt>
      <trkpt lat="46.9122" lon="4.7449">
        <ele>221.24</ele>
        <time>2014-07-05T19:20:41Z</time>
      </trkpt>
      <trkpt lat="46.91221" lon="4.74487">
        <ele>221.24</ele>
        <time>2014-07-05T19:21:07Z</time>
      </trkpt>
      <trkpt lat="46.91221" lon="4.74484">
        <ele>220.76</ele>
        <time>2014-07-05T19:21:34Z</time>
      </trkpt>
      <trkpt lat="46.91224" lon="4.74485">
        <ele>220.76</ele>
        <time>2014-07-05T19:22:11Z</time>
      </trkpt>
      <trkpt lat="46.91225" lon="4.74487">
        <ele>221.24</ele>
        <time>2014-07-05T19:22:42Z</time>
      </trkpt>
      <trkpt lat="46.91224" lon="4.74483">
        <ele>220.76</ele>
        <time>2014-07-05T19:23:14Z</time>
      </trkpt>
      <trkpt lat="46.91222" lon="4.74487">
        <ele>220.76</ele>
        <time>2014-07-05T19:23:55Z</time>
      </trkpt>
      <trkpt lat="46.91221" lon="4.74486">
        <ele>220.76</ele>
        <time>2014-07-05T19:24:36Z</time>
      </trkpt>
      <trkpt lat="46.91221" lon="4.74485">
        <ele>220.76</ele>
        <time>2014-07-05T19:24:54Z</time>
      </trkpt>
      <trkpt lat="46.91222" lon="4.74488">
        <ele>220.76</ele>
        <time>2014-07-05T19:25:29Z</time>
      </trkpt>
      <trkpt lat="46.91221" lon="4.74488">
        <ele>220.76</ele>
        <time>2014-07-05T19:26:06Z</time>
      </trkpt>
      <trkpt lat="46.91225" lon="4.74488">
        <ele>220.76</ele>
        <time>2014-07-05T19:26:52Z</time>
      </trkpt>
      <trkpt lat="46.9122" lon="4.74487">
        <ele>220.76</ele>
        <time>2014-07-05T19:27:21Z</time>
      </trkpt>
      <trkpt lat="46.91222" lon="4.74488">
        <ele>220.76</ele>
        <time>2014-07-05T19:28:03Z</time>
      </trkpt>
      <trkpt lat="46.91223" lon="4.74484">
        <ele>220.28</ele>
        <time>2014-07-05T19:28:40Z</time>
      </trkpt>
      <trkpt lat="46.91221" lon="4.74484">
        <ele>220.28</ele>
        <time>2014-07-05T19:29:24Z</time>
      </trkpt>
      <trkpt lat="46.9122" lon="4.74484">
        <ele>220.76</ele>
        <time>2014-07-05T19:30:02Z</time>
      </trkpt>
      <trkpt lat="46.91218" lon="4.74485">
        <ele>220.28</ele>
        <time>2014-07-05T19:30:34Z</time>
      </trkpt>
      <trkpt lat="46.91219" lon="4.74486">
        <ele>220.76</ele>
        <time>2014-07-05T19:31:12Z</time>
      </trkpt>
      <trkpt lat="46.91219" lon="4.74486">
        <ele>220.28</ele>
        <time>2014-07-05T19:31:57Z</time>
      </trkpt>
      <trkpt lat="46.91218" lon="4.74483">
        <ele>220.76</ele>
        <time>2014-07-05T19:32:40Z</time>
      </trkpt>
      <trkpt lat="46.91221" lon="4.74488">
        <ele>220.76</ele>
        <time>2014-07-05T19:33:13Z</time>
      </trkpt>
      <trkpt lat="46.91222" lon="4.74486">
        <ele>220.28</ele>
        <time>2014-07-05T19:33:53Z</time>
      </trkpt>
      <trkpt lat="46.9122" lon="4.74482">
        <ele>220.28</ele>
        <time>2014-07-05T19:34:38Z</time>
      </trkpt>
      <trkpt lat="46.91225" lon="4.74481">
        <ele>220.28</ele>
        <time>2014-07-05T19:35:05Z</time>
      </trkpt>
      <trkpt lat="46.91224" lon="4.74482">
        <ele>220.28</ele>
        <time>2014-07-05T19:35:45Z</time>
      </trkpt>
      <trkpt lat="46.91222" lon="4.74487">
        <ele>220.28</ele>
        <time>2014-07-05T19:36:31Z</time>
      </trkpt>
      <trkpt lat="46.9122" lon="4.7449">
        <ele>220.28</ele>
        <time>2014-07-05T19:37:13Z</time>
      </trkpt>
      <trkpt lat="46.91219" lon="4.7449">
        <ele>220.28</ele>
        <time>2014-07-05T19:38:04Z</time>
      </trkpt>
      <trkpt lat="46.91218" lon="4.74492">
        <ele>219.8</ele>
        <time>2014-07-05T19:38:37Z</time>
      </trkpt>
      <trkpt lat="46.91221" lon="4.74487">
        <ele>219.8</ele>
        <time>2014-07-05T19:39:10Z</time>
      </trkpt>
      <trkpt lat="46.91222" lon="4.74486">
        <ele>219.8</ele>
        <time>2014-07-05T19:39:50Z</time>
      </trkpt>
      <trkpt lat="46.91218" lon="4.74488">
        <ele>219.8</ele>
        <time>2014-07-05T19:40:28Z</time>
      </trkpt>
      <trkpt lat="46.91213" lon="4.74493">
        <ele>219.8</ele>
        <time>2014-07-05T19:41:06Z</time>
      </trkpt>
      <trkpt lat="46.91217" lon="4.74491">
        <ele>219.8</ele>
        <time>2014-07-05T19:41:36Z</time>
      </trkpt>
      <trkpt lat="46.91217" lon="4.74492">
        <ele>219.8</ele>
        <time>2014-07-05T19:42:03Z</time>
      </trkpt>
      <trkpt lat="46.91218" lon="4.74491">
        <ele>219.8</ele>
        <time>2014-07-05T19:42:29Z</time>
      </trkpt>
      <trkpt lat="46.91215" lon="4.74492">
        <ele>219.8</ele>
        <time>2014-07-05T19:43:00Z</time>
      </trkpt>
      <trkpt lat="46.91217" lon="4.7449">
        <ele>219.8</ele>
        <time>2014-07-05T19:43:30Z</time>
      </trkpt>
      <trkpt lat="46.91219" lon="4.74491">
        <ele>219.8</ele>
        <time>2014-07-05T19:44:20Z</time>
      </trkpt>
      <trkpt lat="46.9122" lon="4.74488">
        <ele>219.8</ele>
        <time>2014-07-05T19:44:53Z</time>
      </trkpt>
      <trkpt lat="46.91219" lon="4.74484">
        <ele>219.8</ele>
        <time>2014-07-05T19:45:38Z</time>
      </trkpt>
      <trkpt lat="46.9122" lon="4.74487">
        <ele>219.8</ele>
        <time>2014-07-05T19:46:15Z</time>
      </trkpt>
      <trkpt lat="46.91218" lon="4.74488">
        <ele>219.8</ele>
        <time>2014-07-05T19:46:50Z</time>
      </trkpt>
      <trkpt lat="46.91219" lon="4.74492">
        <ele>219.8</ele>
        <time>2014-07-05T19:47:20Z</time>
      </trkpt>
      <trkpt lat="46.91218" lon="4.74495">
        <ele>220.28</ele>
        <time>2014-07-05T19:47:52Z</time>
      </trkpt>
      <trkpt lat="46.91217" lon="4.74497">
        <ele>219.8</ele>
        <time>2014-07-05T19:48:18Z</time>
      </trkpt>
      <trkpt lat="46.91216" lon="4.74499">
        <ele>220.28</ele>
        <time>2014-07-05T19:48:40Z</time>
      </trkpt>
      <trkpt lat="46.91222" lon="4.74485">
        <ele>219.8</ele>
        <time>2014-07-05T19:49:22Z</time>
      </trkpt>
      <trkpt lat="46.91223" lon="4.74484">
        <ele>219.8</ele>
        <time>2014-07-05T19:49:57Z</time>
      </trkpt>
      <trkpt lat="46.91219" lon="4.74484">
        <ele>219.8</ele>
        <time>2014-07-05T19:50:32Z</time>
      </trkpt>
      <trkpt lat="46.91223" lon="4.74485">
        <ele>219.32</ele>
        <time>2014-07-05T19:51:12Z</time>
      </trkpt>
      <trkpt lat="46.91222" lon="4.74484">
        <ele>219.8</ele>
        <time>2014-07-05T19:51:47Z</time>
      </trkpt>
      <trkpt lat="46.91224" lon="4.74488">
        <ele>219.8</ele>
        <time>2014-07-05T19:52:36Z</time>
      </trkpt>
      <trkpt lat="46.91222" lon="4.74486">
        <ele>219.8</ele>
        <time>2014-07-05T19:53:14Z</time>
      </trkpt>
      <trkpt lat="46.91222" lon="4.74488">
        <ele>219.8</ele>
        <time>2014-07-05T19:53:56Z</time>
      </trkpt>
      <trkpt lat="46.91219" lon="4.7449">
        <ele>219.8</ele>
        <time>2014-07-05T19:54:36Z</time>
      </trkpt>
      <trkpt lat="46.91216" lon="4.74489">
        <ele>219.8</ele>
        <time>2014-07-05T19:55:09Z</time>
      </trkpt>
      <trkpt lat="46.91218" lon="4.74489">
        <ele>219.8</ele>
        <time>2014-07-05T19:55:50Z</time>
      </trkpt>
      <trkpt lat="46.91223" lon="4.74485">
        <ele>220.28</ele>
        <time>2014-07-05T19:56:31Z</time>
      </trkpt>
      <trkpt lat="46.9122" lon="4.74486">
        <ele>220.28</ele>
        <time>2014-07-05T19:57:01Z</time>
      </trkpt>
      <trkpt lat="46.91222" lon="4.7449">
        <ele>219.8</ele>
        <time>2014-07-05T19:57:33Z</time>
      </trkpt>
      <trkpt lat="46.91225" lon="4.74485">
        <ele>220.28</ele>
        <time>2014-07-05T19:58:14Z</time>
      </trkpt>
      <trkpt lat="46.91223" lon="4.74484">
        <ele>220.28</ele>
        <time>2014-07-05T19:58:43Z</time>
      </trkpt>
      <trkpt lat="46.91222" lon="4.74489">
        <ele>220.28</ele>
        <time>2014-07-05T19:59:24Z</time>
      </trkpt>
      <trkpt lat="46.91221" lon="4.74483">
        <ele>220.28</ele>
        <time>2014-07-05T19:59:49Z</time>
      </trkpt>
      <trkpt lat="46.91223" lon="4.74479">
        <ele>220.28</ele>
        <time>2014-07-05T20:00:03Z</time>
      </trkpt>
      <trkpt lat="46.9122" lon="4.74481">
        <ele>219.8</ele>
        <time>2014-07-05T20:00:40Z</time>
      </trkpt>
      <trkpt lat="46.91217" lon="4.74485">
        <ele>219.8</ele>
        <time>2014-07-05T20:01:12Z</time>
      </trkpt>
      <trkpt lat="46.91217" lon="4.74481">
        <ele>219.8</ele>
        <time>2014-07-05T20:01:44Z</time>
      </trkpt>
      <trkpt lat="46.91219" lon="4.74479">
        <ele>219.8</ele>
        <time>2014-07-05T20:02:17Z</time>
      </trkpt>
      <trkpt lat="46.91217" lon="4.74478">
        <ele>219.8</ele>
        <time>2014-07-05T20:03:02Z</time>
      </trkpt>
      <trkpt lat="46.91218" lon="4.74475">
        <ele>219.8</ele>
        <time>2014-07-05T20:03:42Z</time>
      </trkpt>
      <trkpt lat="46.91217" lon="4.7448">
        <ele>219.8</ele>
        <time>2014-07-05T20:04:18Z</time>
      </trkpt>
      <trkpt lat="46.91219" lon="4.74479">
        <ele>219.8</ele>
        <time>2014-07-05T20:04:51Z</time>
      </trkpt>
      <trkpt lat="46.91216" lon="4.74477">
        <ele>219.8</ele>
        <time>2014-07-05T20:05:32Z</time>
      </trkpt>
      <trkpt lat="46.91215" lon="4.74478">
        <ele>219.8</ele>
        <time>2014-07-05T20:06:02Z</time>
      </trkpt>
      <trkpt lat="46.91218" lon="4.74475">
        <ele>219.8</ele>
        <time>2014-07-05T20:06:45Z</time>
      </trkpt>
      <trkpt lat="46.91218" lon="4.74472">
        <ele>219.8</ele>
        <time>2014-07-05T20:07:15Z</time>
      </trkpt>
      <trkpt lat="46.91219" lon="4.74477">
        <ele>219.8</ele>
        <time>2014-07-05T20:07:48Z</time>
      </trkpt>
      <trkpt lat="46.91219" lon="4.74478">
        <ele>219.8</ele>
        <time>2014-07-05T20:08:28Z</time>
      </trkpt>
      <trkpt lat="46.91219" lon="4.7448">
        <ele>219.8</ele>
        <time>2014-07-05T20:09:05Z</time>
      </trkpt>
      <trkpt lat="46.91218" lon="4.74479">
        <ele>219.8</ele>
        <time>2014-07-05T20:09:40Z</time>
      </trkpt>
      <trkpt lat="46.9122" lon="4.74483">
        <ele>219.32</ele>
        <time>2014-07-05T20:10:17Z</time>
      </trkpt>
      <trkpt lat="46.91218" lon="4.74485">
        <ele>219.32</ele>
        <time>2014-07-05T20:10:56Z</time>
      </trkpt>
      <trkpt lat="46.91218" lon="4.74479">
        <ele>219.32</ele>
        <time>2014-07-05T20:11:30Z</time>
      </trkpt>
      <trkpt lat="46.9122" lon="4.74479">
        <ele>219.32</ele>
        <time>2014-07-05T20:12:09Z</time>
      </trkpt>
      <trkpt lat="46.91223" lon="4.74479">
        <ele>219.32</ele>
        <time>2014-07-05T20:12:50Z</time>
      </trkpt>
      <trkpt lat="46.91221" lon="4.74479">
        <ele>219.32</ele>
        <time>2014-07-05T20:13:32Z</time>
      </trkpt>
      <trkpt lat="46.91224" lon="4.74481">
        <ele>219.32</ele>
        <time>2014-07-05T20:14:05Z</time>
      </trkpt>
      <trkpt lat="46.91224" lon="4.74477">
        <ele>219.32</ele>
        <time>2014-07-05T20:14:55Z</time>
      </trkpt>
      <trkpt lat="46.91224" lon="4.74478">
        <ele>219.32</ele>
        <time>2014-07-05T20:15:38Z</time>
      </trkpt>
      <trkpt lat="46.91222" lon="4.7448">
        <ele>219.8</ele>
        <time>2014-07-05T20:16:14Z</time>
      </trkpt>
      <trkpt lat="46.91218" lon="4.74479">
        <ele>219.8</ele>
        <time>2014-07-05T20:16:49Z</time>
      </trkpt>
      <trkpt lat="46.91224" lon="4.74483">
        <ele>219.8</ele>
        <time>2014-07-05T20:17:29Z</time>
      </trkpt>
      <trkpt lat="46.9122" lon="4.74486">
        <ele>220.28</ele>
        <time>2014-07-05T20:18:15Z</time>
      </trkpt>
      <trkpt lat="46.91221" lon="4.7448">
        <ele>220.28</ele>
        <time>2014-07-05T20:18:53Z</time>
      </trkpt>
      <trkpt lat="46.91223" lon="4.7448">
        <ele>220.28</ele>
        <time>2014-07-05T20:19:32Z</time>
      </trkpt>
      <trkpt lat="46.91222" lon="4.74482">
        <ele>220.28</ele>
        <time>2014-07-05T20:20:12Z</time>
      </trkpt>
      <trkpt lat="46.91221" lon="4.74482">
        <ele>220.28</ele>
        <time>2014-07-05T20:20:52Z</time>
      </trkpt>
      <trkpt lat="46.91222" lon="4.74479">
        <ele>220.28</ele>
        <time>2014-07-05T20:21:36Z</time>
      </trkpt>
      <trkpt lat="46.91222" lon="4.74486">
        <ele>220.76</ele>
        <time>2014-07-05T20:22:14Z</time>
      </trkpt>
      <trkpt lat="46.91224" lon="4.74486">
        <ele>220.76</ele>
        <time>2014-07-05T20:22:45Z</time>
      </trkpt>
      <trkpt lat="46.91224" lon="4.7448">
        <ele>220.76</ele>
        <time>2014-07-05T20:23:17Z</time>
      </trkpt>
      <trkpt lat="46.91221" lon="4.74478">
        <ele>221.24</ele>
        <time>2014-07-05T20:24:01Z</time>
      </trkpt>
      <trkpt lat="46.91219" lon="4.74476">
        <ele>221.24</ele>
        <time>2014-07-05T20:24:32Z</time>
      </trkpt>
      <trkpt lat="46.9122" lon="4.74481">
        <ele>221.72</ele>
        <time>2014-07-05T20:25:10Z</time>
      </trkpt>
      <trkpt lat="46.91218" lon="4.74482">
        <ele>221.72</ele>
        <time>2014-07-05T20:25:42Z</time>
      </trkpt>
      <trkpt lat="46.91223" lon="4.74484">
        <ele>221.72</ele>
        <time>2014-07-05T20:26:23Z</time>
      </trkpt>
      <trkpt lat="46.91225" lon="4.74484">
        <ele>222.2</ele>
        <time>2014-07-05T20:27:01Z</time>
      </trkpt>
      <trkpt lat="46.91225" lon="4.74485">
        <ele>222.2</ele>
        <time>2014-07-05T20:27:38Z</time>
      </trkpt>
      <trkpt lat="46.91224" lon="4.74485">
        <ele>222.2</ele>
        <time>2014-07-05T20:28:21Z</time>
      </trkpt>
      <trkpt lat="46.91224" lon="4.74482">
        <ele>222.2</ele>
        <time>2014-07-05T20:28:59Z</time>
      </trkpt>
      <trkpt lat="46.91225" lon="4.74485">
        <ele>222.2</ele>
        <time>2014-07-05T20:29:34Z</time>
      </trkpt>
      <trkpt lat="46.91223" lon="4.74489">
        <ele>222.2</ele>
        <time>2014-07-05T20:30:04Z</time>
      </trkpt>
      <trkpt lat="46.91223" lon="4.74488">
        <ele>222.2</ele>
        <time>2014-07-05T20:30:42Z</time>
      </trkpt>
      <trkpt lat="46.91226" lon="4.74487">
        <ele>222.68</ele>
        <time>2014-07-05T20:31:26Z</time>
      </trkpt>
      <trkpt lat="46.91221" lon="4.74485">
        <ele>222.68</ele>
        <time>2014-07-05T20:32:03Z</time>
      </trkpt>
      <trkpt lat="46.91222" lon="4.74481">
        <ele>222.68</ele>
        <time>2014-07-05T20:32:47Z</time>
      </trkpt>
      <trkpt lat="46.91219" lon="4.74483">
        <ele>222.68</ele>
        <time>2014-07-05T20:33:22Z</time>
      </trkpt>
      <trkpt lat="46.9122" lon="4.74484">
        <ele>222.68</ele>
        <time>2014-07-05T20:33:54Z</time>
      </trkpt>
      <trkpt lat="46.91225" lon="4.74489">
        <ele>223.16</ele>
        <time>2014-07-05T20:34:31Z</time>
      </trkpt>
      <trkpt lat="46.91223" lon="4.74488">
        <ele>223.16</ele>
        <time>2014-07-05T20:35:07Z</time>
      </trkpt>
      <trkpt lat="46.91225" lon="4.74485">
        <ele>223.16</ele>
        <time>2014-07-05T20:35:47Z</time>
      </trkpt>
      <trkpt lat="46.91221" lon="4.74484">
        <ele>223.64</ele>
        <time>2014-07-05T20:36:30Z</time>
      </trkpt>
      <trkpt lat="46.91219" lon="4.74476">
        <ele>223.64</ele>
        <time>2014-07-05T20:36:47Z</time>
      </trkpt>
      <trkpt lat="46.91219" lon="4.74485">
        <ele>222.68</ele>
        <time>2014-07-05T20:37:22Z</time>
      </trkpt>
      <trkpt lat="46.91218" lon="4.74485">
        <ele>223.16</ele>
        <time>2014-07-05T20:37:53Z</time>
      </trkpt>
      <trkpt lat="46.91218" lon="4.74485">
        <ele>222.68</ele>
        <time>2014-07-05T20:38:25Z</time>
      </trkpt>
      <trkpt lat="46.91223" lon="4.74479">
        <ele>223.16</ele>
        <time>2014-07-05T20:38:39Z</time>
      </trkpt>
      <trkpt lat="46.91228" lon="4.74478">
        <ele>223.16</ele>
        <time>2014-07-05T20:39:14Z</time>
      </trkpt>
      <trkpt lat="46.91231" lon="4.74478">
        <ele>223.16</ele>
        <time>2014-07-05T20:39:25Z</time>
      </trkpt>
      <trkpt lat="46.9122" lon="4.74481">
        <ele>183.27</ele>
        <time>2014-07-06T05:00:08Z</time>
      </trkpt>
      <trkpt lat="46.91209" lon="4.74495">
        <ele>228.93</ele>
        <time>2014-07-06T05:00:15Z</time>
      </trkpt>
      <trkpt lat="46.91208" lon="4.74495">
        <ele>227.01</ele>
        <time>2014-07-06T05:00:16Z</time>
      </trkpt>
      <trkpt lat="46.91223" lon="4.74478">
        <ele>223.16</ele>
        <time>2014-07-06T05:00:42Z</time>
      </trkpt>
      <trkpt lat="46.91222" lon="4.74478">
        <ele>223.16</ele>
        <time>2014-07-06T05:00:43Z</time>
      </trkpt>
      <trkpt lat="46.91222" lon="4.74478">
        <ele>221.24</ele>
        <time>2014-07-06T05:00:47Z</time>
      </trkpt>
      <trkpt lat="46.9122" lon="4.74481">
        <ele>221.72</ele>
        <time>2014-07-06T08:11:01Z</time>
      </trkpt>
      <trkpt lat="46.91214" lon="4.74559">
        <ele>227.97</ele>
        <time>2014-07-06T08:11:41Z</time>
      </trkpt>
      <trkpt lat="46.91214" lon="4.7456">
        <ele>227.97</ele>
        <time>2014-07-06T08:11:42Z</time>
      </trkpt>
      <trkpt lat="46.91216" lon="4.74562">
        <ele>227.49</ele>
        <time>2014-07-06T08:11:53Z</time>
      </trkpt>
      <trkpt lat="46.91215" lon="4.74559">
        <ele>227.01</ele>
        <time>2014-07-06T08:12:09Z</time>
      </trkpt>
      <trkpt lat="46.91214" lon="4.74557">
        <ele>227.49</ele>
        <time>2014-07-06T08:12:12Z</time>
      </trkpt>
      <trkpt lat="46.91206" lon="4.74556">
        <ele>227.49</ele>
        <time>2014-07-06T08:12:16Z</time>
      </trkpt>
      <trkpt lat="46.91198" lon="4.74559">
        <ele>227.49</ele>
        <time>2014-07-06T08:12:22Z</time>
      </trkpt>
      <trkpt lat="46.9119" lon="4.7456">
        <ele>227.49</ele>
        <time>2014-07-06T08:12:25Z</time>
      </trkpt>
      <trkpt lat="46.91188" lon="4.74557">
        <ele>227.97</ele>
        <time>2014-07-06T08:12:26Z</time>
      </trkpt>
      <trkpt lat="46.91184" lon="4.74506">
        <ele>227.97</ele>
        <time>2014-07-06T08:12:39Z</time>
      </trkpt>
      <trkpt lat="46.91176" lon="4.74427">
        <ele>227.97</ele>
        <time>2014-07-06T08:12:55Z</time>
      </trkpt>
      <trkpt lat="46.91145" lon="4.74357">
        <ele>227.97</ele>
        <time>2014-07-06T08:13:10Z</time>
      </trkpt>
      <trkpt lat="46.91127" lon="4.74301">
        <ele>228.93</ele>
        <time>2014-07-06T08:13:23Z</time>
      </trkpt>
      <trkpt lat="46.91159" lon="4.74261">
        <ele>229.41</ele>
        <time>2014-07-06T08:13:37Z</time>
      </trkpt>
      <trkpt lat="46.9117" lon="4.74246">
        <ele>229.89</ele>
        <time>2014-07-06T08:13:49Z</time>
      </trkpt>
      <trkpt lat="46.9117" lon="4.74245">
        <ele>229.89</ele>
        <time>2014-07-06T08:14:05Z</time>
      </trkpt>
      <trkpt lat="46.91171" lon="4.74238">
        <ele>229.89</ele>
        <time>2014-07-06T08:14:15Z</time>
      </trkpt>
      <trkpt lat="46.91163" lon="4.74242">
        <ele>229.41</ele>
        <time>2014-07-06T08:14:20Z</time>
      </trkpt>
      <trkpt lat="46.91122" lon="4.74297">
        <ele>227.97</ele>
        <time>2014-07-06T08:14:36Z</time>
      </trkpt>
      <trkpt lat="46.91114" lon="4.74323">
        <ele>227.49</ele>
        <time>2014-07-06T08:14:41Z</time>
      </trkpt>
      <trkpt lat="46.91102" lon="4.74337">
        <ele>227.49</ele>
        <time>2014-07-06T08:14:45Z</time>
      </trkpt>
      <trkpt lat="46.9109" lon="4.74352">
        <ele>227.01</ele>
        <time>2014-07-06T08:14:49Z</time>
      </trkpt>
      <trkpt lat="46.91076" lon="4.74378">
        <ele>227.01</ele>
        <time>2014-07-06T08:14:54Z</time>
      </trkpt>
      <trkpt lat="46.91032" lon="4.74462">
        <ele>226.05</ele>
        <time>2014-07-06T08:15:10Z</time>
      </trkpt>
      <trkpt lat="46.90997" lon="4.74523">
        <ele>225.57</ele>
        <time>2014-07-06T08:15:22Z</time>
      </trkpt>
      <trkpt lat="46.90978" lon="4.74551">
        <ele>225.57</ele>
        <time>2014-07-06T08:15:28Z</time>
      </trkpt>
      <trkpt lat="46.90936" lon="4.74629">
        <ele>225.57</ele>
        <time>2014-07-06T08:15:44Z</time>
      </trkpt>
      <trkpt lat="46.90932" lon="4.7464">
        <ele>225.57</ele>
        <time>2014-07-06T08:15:46Z</time>
      </trkpt>
      <trkpt lat="46.90927" lon="4.74651">
        <ele>225.57</ele>
        <time>2014-07-06T08:15:48Z</time>
      </trkpt>
      <trkpt lat="46.90887" lon="4.74742">
        <ele>225.57</ele>
        <time>2014-07-06T08:16:06Z</time>
      </trkpt>
      <trkpt lat="46.90856" lon="4.74715">
        <ele>226.05</ele>
        <time>2014-07-06T08:16:16Z</time>
      </trkpt>
      <trkpt lat="46.90817" lon="4.7469">
        <ele>227.01</ele>
        <time>2014-07-06T08:16:30Z</time>
      </trkpt>
      <trkpt lat="46.90791" lon="4.74722">
        <ele>228.93</ele>
        <time>2014-07-06T08:16:45Z</time>
      </trkpt>
      <trkpt lat="46.90765" lon="4.74751">
        <ele>230.85</ele>
        <time>2014-07-06T08:17:03Z</time>
      </trkpt>
      <trkpt lat="46.90744" lon="4.74775">
        <ele>232.78</ele>
        <time>2014-07-06T08:17:19Z</time>
      </trkpt>
      <trkpt lat="46.90733" lon="4.74779">
        <ele>233.26</ele>
        <time>2014-07-06T08:17:26Z</time>
      </trkpt>
      <trkpt lat="46.90728" lon="4.74779">
        <ele>233.74</ele>
        <time>2014-07-06T08:17:29Z</time>
      </trkpt>
      <trkpt lat="46.90714" lon="4.74763">
        <ele>235.18</ele>
        <time>2014-07-06T08:17:41Z</time>
      </trkpt>
      <trkpt lat="46.90701" lon="4.74716">
        <ele>237.1</ele>
        <time>2014-07-06T08:17:59Z</time>
      </trkpt>
      <trkpt lat="46.90693" lon="4.74682">
        <ele>238.54</ele>
        <time>2014-07-06T08:18:14Z</time>
      </trkpt>
      <trkpt lat="46.90678" lon="4.74645">
        <ele>240.95</ele>
        <time>2014-07-06T08:18:32Z</time>
      </trkpt>
      <trkpt lat="46.90671" lon="4.74634">
        <ele>241.91</ele>
        <time>2014-07-06T08:18:40Z</time>
      </trkpt>
      <trkpt lat="46.90666" lon="4.74626">
        <ele>241.91</ele>
        <time>2014-07-06T08:18:53Z</time>
      </trkpt>
      <trkpt lat="46.90658" lon="4.74609">
        <ele>241.43</ele>
        <time>2014-07-06T08:19:03Z</time>
      </trkpt>
      <trkpt lat="46.90653" lon="4.74608">
        <ele>240.47</ele>
        <time>2014-07-06T08:19:19Z</time>
      </trkpt>
      <trkpt lat="46.90653" lon="4.74608">
        <ele>240.47</ele>
        <time>2014-07-06T08:19:20Z</time>
      </trkpt>
      <trkpt lat="46.90628" lon="4.74581">
        <ele>239.02</ele>
        <time>2014-07-06T08:19:31Z</time>
      </trkpt>
      <trkpt lat="46.90621" lon="4.74574">
        <ele>238.06</ele>
        <time>2014-07-06T08:19:34Z</time>
      </trkpt>
      <trkpt lat="46.90619" lon="4.74584">
        <ele>237.1</ele>
        <time>2014-07-06T08:19:41Z</time>
      </trkpt>
      <trkpt lat="46.90619" lon="4.74583">
        <ele>237.1</ele>
        <time>2014-07-06T08:19:42Z</time>
      </trkpt>
      <trkpt lat="46.90625" lon="4.74578">
        <ele>237.58</ele>
        <time>2014-07-06T08:19:49Z</time>
      </trkpt>
      <trkpt lat="46.90653" lon="4.74611">
        <ele>239.99</ele>
        <time>2014-07-06T08:20:06Z</time>
      </trkpt>
      <trkpt lat="46.90675" lon="4.74642">
        <ele>241.43</ele>
        <time>2014-07-06T08:20:22Z</time>
      </trkpt>
      <trkpt lat="46.90687" lon="4.74645">
        <ele>240.47</ele>
        <time>2014-07-06T08:20:27Z</time>
      </trkpt>
      <trkpt lat="46.90726" lon="4.74597">
        <ele>238.54</ele>
        <time>2014-07-06T08:20:38Z</time>
      </trkpt>
      <trkpt lat="46.90766" lon="4.74555">
        <ele>238.06</ele>
        <time>2014-07-06T08:20:52Z</time>
      </trkpt>
      <trkpt lat="46.90807" lon="4.74508">
        <ele>238.06</ele>
        <time>2014-07-06T08:21:07Z</time>
      </trkpt>
      <trkpt lat="46.90841" lon="4.74435">
        <ele>238.06</ele>
        <time>2014-07-06T08:21:23Z</time>
      </trkpt>
      <trkpt lat="46.90903" lon="4.74373">
        <ele>237.58</ele>
        <time>2014-07-06T08:21:42Z</time>
      </trkpt>
      <trkpt lat="46.9097" lon="4.74347">
        <ele>238.06</ele>
        <time>2014-07-06T08:21:58Z</time>
      </trkpt>
      <trkpt lat="46.91003" lon="4.7433">
        <ele>238.06</ele>
        <time>2014-07-06T08:22:06Z</time>
      </trkpt>
      <trkpt lat="46.91074" lon="4.74244">
        <ele>238.54</ele>
        <time>2014-07-06T08:22:27Z</time>
      </trkpt>
      <trkpt lat="46.91105" lon="4.74157">
        <ele>238.54</ele>
        <time>2014-07-06T08:22:42Z</time>
      </trkpt>
      <trkpt lat="46.91107" lon="4.74127">
        <ele>238.54</ele>
        <time>2014-07-06T08:22:47Z</time>
      </trkpt>
      <trkpt lat="46.91105" lon="4.74102">
        <ele>238.54</ele>
        <time>2014-07-06T08:22:51Z</time>
      </trkpt>
      <trkpt lat="46.91082" lon="4.74007">
        <ele>238.54</ele>
        <time>2014-07-06T08:23:08Z</time>
      </trkpt>
      <trkpt lat="46.91049" lon="4.73903">
        <ele>238.54</ele>
        <time>2014-07-06T08:23:27Z</time>
      </trkpt>
      <trkpt lat="46.91035" lon="4.73845">
        <ele>238.54</ele>
        <time>2014-07-06T08:23:37Z</time>
      </trkpt>
      <trkpt lat="46.91026" lon="4.73805">
        <ele>238.06</ele>
        <time>2014-07-06T08:23:44Z</time>
      </trkpt>
      <trkpt lat="46.9102" lon="4.73675">
        <ele>238.54</ele>
        <time>2014-07-06T08:24:03Z</time>
      </trkpt>
      <trkpt lat="46.91002" lon="4.73572">
        <ele>238.54</ele>
        <time>2014-07-06T08:24:19Z</time>
      </trkpt>
      <trkpt lat="46.90978" lon="4.73441">
        <ele>238.06</ele>
        <time>2014-07-06T08:24:40Z</time>
      </trkpt>
      <trkpt lat="46.90964" lon="4.73383">
        <ele>238.06</ele>
        <time>2014-07-06T08:24:50Z</time>
      </trkpt>
      <trkpt lat="46.90954" lon="4.73357">
        <ele>238.54</ele>
        <time>2014-07-06T08:24:55Z</time>
      </trkpt>
      <trkpt lat="46.90938" lon="4.73337">
        <ele>238.54</ele>
        <time>2014-07-06T08:25:00Z</time>
      </trkpt>
      <trkpt lat="46.90897" lon="4.7331">
        <ele>238.06</ele>
        <time>2014-07-06T08:25:10Z</time>
      </trkpt>
      <trkpt lat="46.90888" lon="4.73303">
        <ele>238.06</ele>
        <time>2014-07-06T08:25:12Z</time>
      </trkpt>
      <trkpt lat="46.90864" lon="4.73239">
        <ele>238.06</ele>
        <time>2014-07-06T08:25:23Z</time>
      </trkpt>
      <trkpt lat="46.90865" lon="4.73211">
        <ele>238.06</ele>
        <time>2014-07-06T08:25:27Z</time>
      </trkpt>
      <trkpt lat="46.90867" lon="4.73144">
        <ele>238.06</ele>
        <time>2014-07-06T08:25:37Z</time>
      </trkpt>
      <trkpt lat="46.90864" lon="4.73119">
        <ele>238.06</ele>
        <time>2014-07-06T08:25:41Z</time>
      </trkpt>
      <trkpt lat="46.9082" lon="4.73026">
        <ele>238.54</ele>
        <time>2014-07-06T08:25:58Z</time>
      </trkpt>
      <trkpt lat="46.90768" lon="4.72942">
        <ele>238.06</ele>
        <time>2014-07-06T08:26:16Z</time>
      </trkpt>
      <trkpt lat="46.90731" lon="4.72863">
        <ele>238.06</ele>
        <time>2014-07-06T08:26:31Z</time>
      </trkpt>
      <trkpt lat="46.90729" lon="4.72755">
        <ele>238.06</ele>
        <time>2014-07-06T08:26:48Z</time>
      </trkpt>
      <trkpt lat="46.90729" lon="4.72743">
        <ele>238.06</ele>
        <time>2014-07-06T08:26:50Z</time>
      </trkpt>
      <trkpt lat="46.90724" lon="4.72712">
        <ele>238.06</ele>
        <time>2014-07-06T08:26:55Z</time>
      </trkpt>
      <trkpt lat="46.9069" lon="4.72621">
        <ele>238.06</ele>
        <time>2014-07-06T08:27:12Z</time>
      </trkpt>
      <trkpt lat="46.90673" lon="4.72524">
        <ele>238.06</ele>
        <time>2014-07-06T08:27:29Z</time>
      </trkpt>
      <trkpt lat="46.9067" lon="4.72437">
        <ele>238.06</ele>
        <time>2014-07-06T08:27:45Z</time>
      </trkpt>
      <trkpt lat="46.90669" lon="4.72431">
        <ele>238.54</ele>
        <time>2014-07-06T08:27:46Z</time>
      </trkpt>
      <trkpt lat="46.90663" lon="4.72408">
        <ele>238.06</ele>
        <time>2014-07-06T08:27:50Z</time>
      </trkpt>
      <trkpt lat="46.90625" lon="4.72282">
        <ele>239.02</ele>
        <time>2014-07-06T08:28:13Z</time>
      </trkpt>
      <trkpt lat="46.90629" lon="4.72168">
        <ele>239.51</ele>
        <time>2014-07-06T08:28:32Z</time>
      </trkpt>
      <trkpt lat="46.90632" lon="4.72092">
        <ele>239.99</ele>
        <time>2014-07-06T08:28:45Z</time>
      </trkpt>
      <trkpt lat="46.90631" lon="4.7208">
        <ele>239.51</ele>
        <time>2014-07-06T08:28:47Z</time>
      </trkpt>
      <trkpt lat="46.90647" lon="4.72035">
        <ele>239.51</ele>
        <time>2014-07-06T08:28:56Z</time>
      </trkpt>
      <trkpt lat="46.90668" lon="4.72004">
        <ele>239.99</ele>
        <time>2014-07-06T08:29:03Z</time>
      </trkpt>
      <trkpt lat="46.90718" lon="4.71962">
        <ele>240.47</ele>
        <time>2014-07-06T08:29:17Z</time>
      </trkpt>
      <trkpt lat="46.90728" lon="4.7195">
        <ele>240.47</ele>
        <time>2014-07-06T08:29:20Z</time>
      </trkpt>
      <trkpt lat="46.90734" lon="4.71941">
        <ele>240.47</ele>
        <time>2014-07-06T08:29:22Z</time>
      </trkpt>
      <trkpt lat="46.90743" lon="4.71894">
        <ele>240.47</ele>
        <time>2014-07-06T08:29:30Z</time>
      </trkpt>
      <trkpt lat="46.90734" lon="4.71838">
        <ele>240.47</ele>
        <time>2014-07-06T08:29:39Z</time>
      </trkpt>
      <trkpt lat="46.90716" lon="4.71733">
        <ele>240.47</ele>
        <time>2014-07-06T08:29:56Z</time>
      </trkpt>
      <trkpt lat="46.90703" lon="4.71689">
        <ele>240.47</ele>
        <time>2014-07-06T08:30:04Z</time>
      </trkpt>
      <trkpt lat="46.90654" lon="4.7158">
        <ele>240.95</ele>
        <time>2014-07-06T08:30:26Z</time>
      </trkpt>
      <trkpt lat="46.90608" lon="4.71471">
        <ele>240.95</ele>
        <time>2014-07-06T08:30:48Z</time>
      </trkpt>
      <trkpt lat="46.90572" lon="4.71363">
        <ele>240.47</ele>
        <time>2014-07-06T08:31:08Z</time>
      </trkpt>
      <trkpt lat="46.90539" lon="4.71272">
        <ele>240.47</ele>
        <time>2014-07-06T08:31:25Z</time>
      </trkpt>
      <trkpt lat="46.90494" lon="4.7115">
        <ele>240.47</ele>
        <time>2014-07-06T08:31:48Z</time>
      </trkpt>
      <trkpt lat="46.90473" lon="4.71061">
        <ele>240.47</ele>
        <time>2014-07-06T08:32:04Z</time>
      </trkpt>
      <trkpt lat="46.90494" lon="4.70953">
        <ele>239.99</ele>
        <time>2014-07-06T08:32:23Z</time>
      </trkpt>
      <trkpt lat="46.90492" lon="4.70911">
        <ele>239.51</ele>
        <time>2014-07-06T08:32:31Z</time>
      </trkpt>
      <trkpt lat="46.90502" lon="4.70877">
        <ele>241.91</ele>
        <time>2014-07-06T08:32:42Z</time>
      </trkpt>
      <trkpt lat="46.905" lon="4.70854">
        <ele>243.35</ele>
        <time>2014-07-06T08:32:51Z</time>
      </trkpt>
      <trkpt lat="46.90499" lon="4.70844">
        <ele>243.35</ele>
        <time>2014-07-06T08:32:55Z</time>
      </trkpt>
      <trkpt lat="46.90497" lon="4.70821">
        <ele>241.91</ele>
        <time>2014-07-06T08:32:59Z</time>
      </trkpt>
      <trkpt lat="46.90495" lon="4.70796">
        <ele>240.47</ele>
        <time>2014-07-06T08:33:02Z</time>
      </trkpt>
      <trkpt lat="46.90493" lon="4.70737">
        <ele>239.99</ele>
        <time>2014-07-06T08:33:09Z</time>
      </trkpt>
      <trkpt lat="46.9049" lon="4.70723">
        <ele>239.51</ele>
        <time>2014-07-06T08:33:11Z</time>
      </trkpt>
      <trkpt lat="46.90479" lon="4.70694">
        <ele>239.51</ele>
        <time>2014-07-06T08:33:16Z</time>
      </trkpt>
      <trkpt lat="46.90459" lon="4.7066">
        <ele>239.02</ele>
        <time>2014-07-06T08:33:23Z</time>
      </trkpt>
      <trkpt lat="46.90451" lon="4.70634">
        <ele>239.02</ele>
        <time>2014-07-06T08:33:27Z</time>
      </trkpt>
      <trkpt lat="46.90452" lon="4.70539">
        <ele>239.02</ele>
        <time>2014-07-06T08:33:41Z</time>
      </trkpt>
      <trkpt lat="46.90472" lon="4.70441">
        <ele>238.06</ele>
        <time>2014-07-06T08:33:58Z</time>
      </trkpt>
      <trkpt lat="46.90491" lon="4.70341">
        <ele>238.06</ele>
        <time>2014-07-06T08:34:16Z</time>
      </trkpt>
      <trkpt lat="46.90494" lon="4.70323">
        <ele>238.06</ele>
        <time>2014-07-06T08:34:19Z</time>
      </trkpt>
      <trkpt lat="46.90507" lon="4.70219">
        <ele>238.06</ele>
        <time>2014-07-06T08:34:37Z</time>
      </trkpt>
      <trkpt lat="46.90516" lon="4.70128">
        <ele>238.06</ele>
        <time>2014-07-06T08:34:54Z</time>
      </trkpt>
      <trkpt lat="46.90518" lon="4.70054">
        <ele>238.06</ele>
        <time>2014-07-06T08:35:10Z</time>
      </trkpt>
      <trkpt lat="46.90516" lon="4.69981">
        <ele>238.54</ele>
        <time>2014-07-06T08:35:24Z</time>
      </trkpt>
      <trkpt lat="46.90508" lon="4.69891">
        <ele>237.58</ele>
        <time>2014-07-06T08:35:41Z</time>
      </trkpt>
      <trkpt lat="46.90497" lon="4.69802">
        <ele>238.06</ele>
        <time>2014-07-06T08:35:57Z</time>
      </trkpt>
      <trkpt lat="46.90473" lon="4.69717">
        <ele>238.06</ele>
        <time>2014-07-06T08:36:14Z</time>
      </trkpt>
      <trkpt lat="46.90449" lon="4.6965">
        <ele>238.06</ele>
        <time>2014-07-06T08:36:29Z</time>
      </trkpt>
      <trkpt lat="46.90423" lon="4.69575">
        <ele>237.58</ele>
        <time>2014-07-06T08:36:45Z</time>
      </trkpt>
      <trkpt lat="46.90378" lon="4.69512">
        <ele>238.06</ele>
        <time>2014-07-06T08:37:02Z</time>
      </trkpt>
      <trkpt lat="46.90326" lon="4.69459">
        <ele>237.58</ele>
        <time>2014-07-06T08:37:19Z</time>
      </trkpt>
      <trkpt lat="46.90275" lon="4.69403">
        <ele>237.1</ele>
        <time>2014-07-06T08:37:36Z</time>
      </trkpt>
      <trkpt lat="46.90224" lon="4.69322">
        <ele>237.1</ele>
        <time>2014-07-06T08:37:56Z</time>
      </trkpt>
      <trkpt lat="46.9018" lon="4.69249">
        <ele>237.1</ele>
        <time>2014-07-06T08:38:13Z</time>
      </trkpt>
      <trkpt lat="46.90156" lon="4.69217">
        <ele>237.58</ele>
        <time>2014-07-06T08:38:22Z</time>
      </trkpt>
      <trkpt lat="46.9015" lon="4.692">
        <ele>237.1</ele>
        <time>2014-07-06T08:38:26Z</time>
      </trkpt>
      <trkpt lat="46.90116" lon="4.69148">
        <ele>237.1</ele>
        <time>2014-07-06T08:38:41Z</time>
      </trkpt>
      <trkpt lat="46.9008" lon="4.69112">
        <ele>237.1</ele>
        <time>2014-07-06T08:38:53Z</time>
      </trkpt>
      <trkpt lat="46.9002" lon="4.69043">
        <ele>237.1</ele>
        <time>2014-07-06T08:39:13Z</time>
      </trkpt>
      <trkpt lat="46.89979" lon="4.68988">
        <ele>237.1</ele>
        <time>2014-07-06T08:39:28Z</time>
      </trkpt>
      <trkpt lat="46.89929" lon="4.68932">
        <ele>236.62</ele>
        <time>2014-07-06T08:39:45Z</time>
      </trkpt>
      <trkpt lat="46.89864" lon="4.68916">
        <ele>237.1</ele>
        <time>2014-07-06T08:40:02Z</time>
      </trkpt>
      <trkpt lat="46.898" lon="4.68884">
        <ele>237.1</ele>
        <time>2014-07-06T08:40:18Z</time>
      </trkpt>
      <trkpt lat="46.89796" lon="4.68881">
        <ele>236.62</ele>
        <time>2014-07-06T08:40:19Z</time>
      </trkpt>
      <trkpt lat="46.89729" lon="4.68842">
        <ele>236.62</ele>
        <time>2014-07-06T08:40:37Z</time>
      </trkpt>
      <trkpt lat="46.89653" lon="4.68796">
        <ele>237.1</ele>
        <time>2014-07-06T08:40:57Z</time>
      </trkpt>
      <trkpt lat="46.89584" lon="4.68737">
        <ele>237.1</ele>
        <time>2014-07-06T08:41:17Z</time>
      </trkpt>
      <trkpt lat="46.89506" lon="4.68677">
        <ele>237.58</ele>
        <time>2014-07-06T08:41:38Z</time>
      </trkpt>
      <trkpt lat="46.89465" lon="4.68605">
        <ele>237.58</ele>
        <time>2014-07-06T08:41:54Z</time>
      </trkpt>
      <trkpt lat="46.89433" lon="4.68524">
        <ele>237.58</ele>
        <time>2014-07-06T08:42:10Z</time>
      </trkpt>
      <trkpt lat="46.8938" lon="4.68468">
        <ele>238.06</ele>
        <time>2014-07-06T08:42:28Z</time>
      </trkpt>
      <trkpt lat="46.89314" lon="4.6841">
        <ele>237.1</ele>
        <time>2014-07-06T08:42:47Z</time>
      </trkpt>
      <trkpt lat="46.89252" lon="4.68341">
        <ele>237.58</ele>
        <time>2014-07-06T08:43:07Z</time>
      </trkpt>
      <trkpt lat="46.89216" lon="4.68275">
        <ele>237.58</ele>
        <time>2014-07-06T08:43:24Z</time>
      </trkpt>
      <trkpt lat="46.89189" lon="4.68217">
        <ele>237.1</ele>
        <time>2014-07-06T08:43:37Z</time>
      </trkpt>
      <trkpt lat="46.89142" lon="4.68138">
        <ele>236.62</ele>
        <time>2014-07-06T08:43:55Z</time>
      </trkpt>
      <trkpt lat="46.89134" lon="4.68128">
        <ele>237.1</ele>
        <time>2014-07-06T08:43:58Z</time>
      </trkpt>
      <trkpt lat="46.89107" lon="4.68073">
        <ele>236.62</ele>
        <time>2014-07-06T08:44:10Z</time>
      </trkpt>
      <trkpt lat="46.89067" lon="4.68009">
        <ele>236.62</ele>
        <time>2014-07-06T08:44:27Z</time>
      </trkpt>
      <trkpt lat="46.89017" lon="4.67923">
        <ele>236.14</ele>
        <time>2014-07-06T08:44:47Z</time>
      </trkpt>
      <trkpt lat="46.88981" lon="4.67849">
        <ele>236.14</ele>
        <time>2014-07-06T08:45:03Z</time>
      </trkpt>
      <trkpt lat="46.88967" lon="4.67794">
        <ele>236.62</ele>
        <time>2014-07-06T08:45:13Z</time>
      </trkpt>
      <trkpt lat="46.88965" lon="4.67704">
        <ele>236.14</ele>
        <time>2014-07-06T08:45:28Z</time>
      </trkpt>
      <trkpt lat="46.88939" lon="4.67609">
        <ele>236.14</ele>
        <time>2014-07-06T08:45:46Z</time>
      </trkpt>
      <trkpt lat="46.88913" lon="4.67528">
        <ele>236.62</ele>
        <time>2014-07-06T08:46:02Z</time>
      </trkpt>
      <trkpt lat="46.88881" lon="4.67441">
        <ele>236.14</ele>
        <time>2014-07-06T08:46:19Z</time>
      </trkpt>
      <trkpt lat="46.88843" lon="4.67379">
        <ele>236.62</ele>
        <time>2014-07-06T08:46:34Z</time>
      </trkpt>
      <trkpt lat="46.88799" lon="4.67315">
        <ele>236.62</ele>
        <time>2014-07-06T08:46:49Z</time>
      </trkpt>
      <trkpt lat="46.88745" lon="4.67232">
        <ele>236.62</ele>
        <time>2014-07-06T08:47:08Z</time>
      </trkpt>
      <trkpt lat="46.88708" lon="4.67158">
        <ele>236.14</ele>
        <time>2014-07-06T08:47:23Z</time>
      </trkpt>
      <trkpt lat="46.88701" lon="4.67136">
        <ele>236.14</ele>
        <time>2014-07-06T08:47:27Z</time>
      </trkpt>
      <trkpt lat="46.88662" lon="4.6703">
        <ele>236.14</ele>
        <time>2014-07-06T08:47:47Z</time>
      </trkpt>
      <trkpt lat="46.88624" lon="4.66951">
        <ele>236.14</ele>
        <time>2014-07-06T08:48:02Z</time>
      </trkpt>
      <trkpt lat="46.88605" lon="4.66913">
        <ele>236.62</ele>
        <time>2014-07-06T08:48:10Z</time>
      </trkpt>
      <trkpt lat="46.88556" lon="4.66815">
        <ele>236.62</ele>
        <time>2014-07-06T08:48:30Z</time>
      </trkpt>
      <trkpt lat="46.88504" lon="4.66775">
        <ele>236.62</ele>
        <time>2014-07-06T08:48:45Z</time>
      </trkpt>
      <trkpt lat="46.88436" lon="4.66748">
        <ele>236.62</ele>
        <time>2014-07-06T08:49:02Z</time>
      </trkpt>
      <trkpt lat="46.88363" lon="4.66699">
        <ele>236.62</ele>
        <time>2014-07-06T08:49:22Z</time>
      </trkpt>
      <trkpt lat="46.88298" lon="4.66654">
        <ele>236.62</ele>
        <time>2014-07-06T08:49:40Z</time>
      </trkpt>
      <trkpt lat="46.88265" lon="4.6663">
        <ele>236.62</ele>
        <time>2014-07-06T08:49:48Z</time>
      </trkpt>
      <trkpt lat="46.88204" lon="4.66586">
        <ele>236.62</ele>
        <time>2014-07-06T08:50:03Z</time>
      </trkpt>
      <trkpt lat="46.88129" lon="4.66532">
        <ele>236.62</ele>
        <time>2014-07-06T08:50:22Z</time>
      </trkpt>
      <trkpt lat="46.881" lon="4.66511">
        <ele>236.62</ele>
        <time>2014-07-06T08:50:30Z</time>
      </trkpt>
      <trkpt lat="46.88049" lon="4.66471">
        <ele>236.62</ele>
        <time>2014-07-06T08:50:44Z</time>
      </trkpt>
      <trkpt lat="46.88021" lon="4.6643">
        <ele>237.1</ele>
        <time>2014-07-06T08:50:53Z</time>
      </trkpt>
      <trkpt lat="46.87979" lon="4.66339">
        <ele>237.58</ele>
        <time>2014-07-06T08:51:11Z</time>
      </trkpt>
      <trkpt lat="46.87962" lon="4.66308">
        <ele>237.58</ele>
        <time>2014-07-06T08:51:18Z</time>
      </trkpt>
      <trkpt lat="46.87956" lon="4.663">
        <ele>237.58</ele>
        <time>2014-07-06T08:51:20Z</time>
      </trkpt>
      <trkpt lat="46.87943" lon="4.66281">
        <ele>237.1</ele>
        <time>2014-07-06T08:51:24Z</time>
      </trkpt>
      <trkpt lat="46.87926" lon="4.66244">
        <ele>236.62</ele>
        <time>2014-07-06T08:51:31Z</time>
      </trkpt>
      <trkpt lat="46.87901" lon="4.66174">
        <ele>237.58</ele>
        <time>2014-07-06T08:51:44Z</time>
      </trkpt>
      <trkpt lat="46.87893" lon="4.66161">
        <ele>237.58</ele>
        <time>2014-07-06T08:51:47Z</time>
      </trkpt>
      <trkpt lat="46.87826" lon="4.66087">
        <ele>237.58</ele>
        <time>2014-07-06T08:52:06Z</time>
      </trkpt>
      <trkpt lat="46.87823" lon="4.66083">
        <ele>237.1</ele>
        <time>2014-07-06T08:52:07Z</time>
      </trkpt>
      <trkpt lat="46.87747" lon="4.66038">
        <ele>237.58</ele>
        <time>2014-07-06T08:52:26Z</time>
      </trkpt>
      <trkpt lat="46.87687" lon="4.66003">
        <ele>237.58</ele>
        <time>2014-07-06T08:52:42Z</time>
      </trkpt>
      <trkpt lat="46.87674" lon="4.65996">
        <ele>237.58</ele>
        <time>2014-07-06T08:52:51Z</time>
      </trkpt>
      <trkpt lat="46.87674" lon="4.65994">
        <ele>237.58</ele>
        <time>2014-07-06T08:52:55Z</time>
      </trkpt>
      <trkpt lat="46.87694" lon="4.66005">
        <ele>237.58</ele>
        <time>2014-07-06T08:53:07Z</time>
      </trkpt>
      <trkpt lat="46.87721" lon="4.66015">
        <ele>237.58</ele>
        <time>2014-07-06T08:53:20Z</time>
      </trkpt>
      <trkpt lat="46.87724" lon="4.66018">
        <ele>238.06</ele>
        <time>2014-07-06T08:53:35Z</time>
      </trkpt>
      <trkpt lat="46.87723" lon="4.66022">
        <ele>238.06</ele>
        <time>2014-07-06T08:54:11Z</time>
      </trkpt>
      <trkpt lat="46.87724" lon="4.66021">
        <ele>238.54</ele>
        <time>2014-07-06T08:54:46Z</time>
      </trkpt>
      <trkpt lat="46.87722" lon="4.66019">
        <ele>238.54</ele>
        <time>2014-07-06T08:55:24Z</time>
      </trkpt>
      <trkpt lat="46.87723" lon="4.66021">
        <ele>239.02</ele>
        <time>2014-07-06T08:55:58Z</time>
      </trkpt>
      <trkpt lat="46.87722" lon="4.66023">
        <ele>239.02</ele>
        <time>2014-07-06T08:56:35Z</time>
      </trkpt>
      <trkpt lat="46.87721" lon="4.66025">
        <ele>239.51</ele>
        <time>2014-07-06T08:57:13Z</time>
      </trkpt>
      <trkpt lat="46.87721" lon="4.66024">
        <ele>239.99</ele>
        <time>2014-07-06T08:57:31Z</time>
      </trkpt>
      <trkpt lat="46.87719" lon="4.66025">
        <ele>239.99</ele>
        <time>2014-07-06T08:57:37Z</time>
      </trkpt>
      <trkpt lat="46.87712" lon="4.6602">
        <ele>239.99</ele>
        <time>2014-07-06T08:57:43Z</time>
      </trkpt>
      <trkpt lat="46.87669" lon="4.65993">
        <ele>240.47</ele>
        <time>2014-07-06T08:58:01Z</time>
      </trkpt>
      <trkpt lat="46.87607" lon="4.65951">
        <ele>240.95</ele>
        <time>2014-07-06T08:58:22Z</time>
      </trkpt>
      <trkpt lat="46.87544" lon="4.659">
        <ele>241.91</ele>
        <time>2014-07-06T08:58:42Z</time>
      </trkpt>
      <trkpt lat="46.87496" lon="4.65858">
        <ele>242.87</ele>
        <time>2014-07-06T08:59:00Z</time>
      </trkpt>
      <trkpt lat="46.87466" lon="4.65829">
        <ele>242.87</ele>
        <time>2014-07-06T08:59:13Z</time>
      </trkpt>
      <trkpt lat="46.87413" lon="4.65778">
        <ele>242.87</ele>
        <time>2014-07-06T08:59:30Z</time>
      </trkpt>
      <trkpt lat="46.87347" lon="4.65713">
        <ele>242.87</ele>
        <time>2014-07-06T08:59:49Z</time>
      </trkpt>
      <trkpt lat="46.87289" lon="4.65624">
        <ele>243.35</ele>
        <time>2014-07-06T09:00:08Z</time>
      </trkpt>
      <trkpt lat="46.87252" lon="4.65546">
        <ele>242.87</ele>
        <time>2014-07-06T09:00:23Z</time>
      </trkpt>
      <trkpt lat="46.87203" lon="4.65485">
        <ele>243.83</ele>
        <time>2014-07-06T09:00:39Z</time>
      </trkpt>
      <trkpt lat="46.8716" lon="4.65431">
        <ele>244.79</ele>
        <time>2014-07-06T09:00:57Z</time>
      </trkpt>
      <trkpt lat="46.8713" lon="4.65393">
        <ele>244.79</ele>
        <time>2014-07-06T09:01:09Z</time>
      </trkpt>
      <trkpt lat="46.87072" lon="4.65319">
        <ele>244.79</ele>
        <time>2014-07-06T09:01:28Z</time>
      </trkpt>
      <trkpt lat="46.87024" lon="4.65241">
        <ele>244.31</ele>
        <time>2014-07-06T09:01:45Z</time>
      </trkpt>
      <trkpt lat="46.86993" lon="4.65174">
        <ele>244.31</ele>
        <time>2014-07-06T09:01:58Z</time>
      </trkpt>
      <trkpt lat="46.86933" lon="4.65067">
        <ele>243.83</ele>
        <time>2014-07-06T09:02:20Z</time>
      </trkpt>
      <trkpt lat="46.86924" lon="4.65049">
        <ele>243.83</ele>
        <time>2014-07-06T09:02:24Z</time>
      </trkpt>
      <trkpt lat="46.86889" lon="4.64946">
        <ele>243.83</ele>
        <time>2014-07-06T09:02:43Z</time>
      </trkpt>
      <trkpt lat="46.86865" lon="4.64853">
        <ele>243.83</ele>
        <time>2014-07-06T09:03:00Z</time>
      </trkpt>
      <trkpt lat="46.86864" lon="4.64848">
        <ele>243.83</ele>
        <time>2014-07-06T09:03:01Z</time>
      </trkpt>
      <trkpt lat="46.86854" lon="4.6482">
        <ele>244.31</ele>
        <time>2014-07-06T09:03:06Z</time>
      </trkpt>
      <trkpt lat="46.86831" lon="4.64748">
        <ele>243.83</ele>
        <time>2014-07-06T09:03:19Z</time>
      </trkpt>
      <trkpt lat="46.86823" lon="4.64735">
        <ele>243.83</ele>
        <time>2014-07-06T09:03:22Z</time>
      </trkpt>
      <trkpt lat="46.86751" lon="4.64649">
        <ele>243.83</ele>
        <time>2014-07-06T09:03:44Z</time>
      </trkpt>
      <trkpt lat="46.86693" lon="4.64598">
        <ele>243.83</ele>
        <time>2014-07-06T09:04:01Z</time>
      </trkpt>
      <trkpt lat="46.86645" lon="4.64605">
        <ele>243.35</ele>
        <time>2014-07-06T09:04:14Z</time>
      </trkpt>
      <trkpt lat="46.86634" lon="4.64608">
        <ele>243.35</ele>
        <time>2014-07-06T09:04:17Z</time>
      </trkpt>
      <trkpt lat="46.86604" lon="4.64604">
        <ele>245.27</ele>
        <time>2014-07-06T09:04:28Z</time>
      </trkpt>
      <trkpt lat="46.86571" lon="4.64608">
        <ele>245.27</ele>
        <time>2014-07-06T09:04:42Z</time>
      </trkpt>
      <trkpt lat="46.86547" lon="4.64613">
        <ele>244.31</ele>
        <time>2014-07-06T09:04:49Z</time>
      </trkpt>
      <trkpt lat="46.86533" lon="4.64614">
        <ele>243.83</ele>
        <time>2014-07-06T09:04:52Z</time>
      </trkpt>
      <trkpt lat="46.86461" lon="4.64623">
        <ele>243.83</ele>
        <time>2014-07-06T09:05:08Z</time>
      </trkpt>
      <trkpt lat="46.86367" lon="4.64612">
        <ele>244.79</ele>
        <time>2014-07-06T09:05:29Z</time>
      </trkpt>
      <trkpt lat="46.8631" lon="4.64596">
        <ele>246.72</ele>
        <time>2014-07-06T09:05:45Z</time>
      </trkpt>
      <trkpt lat="46.86252" lon="4.64571">
        <ele>247.2</ele>
        <time>2014-07-06T09:06:02Z</time>
      </trkpt>
      <trkpt lat="46.86241" lon="4.64566">
        <ele>247.2</ele>
        <time>2014-07-06T09:06:05Z</time>
      </trkpt>
      <trkpt lat="46.86165" lon="4.64531">
        <ele>247.2</ele>
        <time>2014-07-06T09:06:24Z</time>
      </trkpt>
      <trkpt lat="46.86082" lon="4.6448">
        <ele>247.2</ele>
        <time>2014-07-06T09:06:45Z</time>
      </trkpt>
      <trkpt lat="46.86042" lon="4.64456">
        <ele>247.2</ele>
        <time>2014-07-06T09:06:55Z</time>
      </trkpt>
      <trkpt lat="46.85963" lon="4.64406">
        <ele>247.2</ele>
        <time>2014-07-06T09:07:15Z</time>
      </trkpt>
      <trkpt lat="46.85875" lon="4.64354">
        <ele>247.68</ele>
        <time>2014-07-06T09:07:36Z</time>
      </trkpt>
      <trkpt lat="46.85798" lon="4.64296">
        <ele>247.68</ele>
        <time>2014-07-06T09:07:56Z</time>
      </trkpt>
      <trkpt lat="46.8573" lon="4.64212">
        <ele>247.68</ele>
        <time>2014-07-06T09:08:16Z</time>
      </trkpt>
      <trkpt lat="46.85671" lon="4.64135">
        <ele>248.16</ele>
        <time>2014-07-06T09:08:34Z</time>
      </trkpt>
      <trkpt lat="46.85621" lon="4.64078">
        <ele>248.16</ele>
        <time>2014-07-06T09:08:48Z</time>
      </trkpt>
      <trkpt lat="46.85613" lon="4.64073">
        <ele>247.68</ele>
        <time>2014-07-06T09:08:50Z</time>
      </trkpt>
      <trkpt lat="46.85601" lon="4.64057">
        <ele>248.16</ele>
        <time>2014-07-06T09:08:54Z</time>
      </trkpt>
      <trkpt lat="46.85547" lon="4.64004">
        <ele>247.68</ele>
        <time>2014-07-06T09:09:10Z</time>
      </trkpt>
      <trkpt lat="46.85505" lon="4.63971">
        <ele>248.16</ele>
        <time>2014-07-06T09:09:21Z</time>
      </trkpt>
      <trkpt lat="46.85421" lon="4.6394">
        <ele>248.64</ele>
        <time>2014-07-06T09:09:42Z</time>
      </trkpt>
      <trkpt lat="46.85357" lon="4.63925">
        <ele>249.12</ele>
        <time>2014-07-06T09:09:59Z</time>
      </trkpt>
      <trkpt lat="46.85293" lon="4.63909">
        <ele>250.08</ele>
        <time>2014-07-06T09:10:18Z</time>
      </trkpt>
      <trkpt lat="46.85242" lon="4.63888">
        <ele>250.56</ele>
        <time>2014-07-06T09:10:33Z</time>
      </trkpt>
      <trkpt lat="46.85183" lon="4.6385">
        <ele>250.56</ele>
        <time>2014-07-06T09:10:50Z</time>
      </trkpt>
      <trkpt lat="46.85122" lon="4.6381">
        <ele>250.56</ele>
        <time>2014-07-06T09:11:06Z</time>
      </trkpt>
      <trkpt lat="46.85036" lon="4.63754">
        <ele>250.56</ele>
        <time>2014-07-06T09:11:27Z</time>
      </trkpt>
      <trkpt lat="46.8496" lon="4.63711">
        <ele>250.56</ele>
        <time>2014-07-06T09:11:45Z</time>
      </trkpt>
      <trkpt lat="46.84913" lon="4.63681">
        <ele>251.04</ele>
        <time>2014-07-06T09:11:57Z</time>
      </trkpt>
      <trkpt lat="46.84876" lon="4.63622">
        <ele>251.04</ele>
        <time>2014-07-06T09:12:10Z</time>
      </trkpt>
      <trkpt lat="46.84839" lon="4.63573">
        <ele>251.04</ele>
        <time>2014-07-06T09:12:22Z</time>
      </trkpt>
      <trkpt lat="46.84778" lon="4.63509">
        <ele>251.04</ele>
        <time>2014-07-06T09:12:39Z</time>
      </trkpt>
      <trkpt lat="46.84727" lon="4.63456">
        <ele>251.52</ele>
        <time>2014-07-06T09:12:54Z</time>
      </trkpt>
      <trkpt lat="46.84679" lon="4.63409">
        <ele>251.52</ele>
        <time>2014-07-06T09:13:11Z</time>
      </trkpt>
      <trkpt lat="46.84668" lon="4.63396">
        <ele>251.52</ele>
        <time>2014-07-06T09:13:15Z</time>
      </trkpt>
      <trkpt lat="46.84666" lon="4.6339">
        <ele>252</ele>
        <time>2014-07-06T09:13:16Z</time>
      </trkpt>
      <trkpt lat="46.84672" lon="4.63373">
        <ele>252.96</ele>
        <time>2014-07-06T09:13:21Z</time>
      </trkpt>
      <trkpt lat="46.84673" lon="4.63363">
        <ele>253.44</ele>
        <time>2014-07-06T09:13:33Z</time>
      </trkpt>
      <trkpt lat="46.84673" lon="4.63364">
        <ele>253.44</ele>
        <time>2014-07-06T09:13:36Z</time>
      </trkpt>
      <trkpt lat="46.84666" lon="4.63363">
        <ele>253.44</ele>
        <time>2014-07-06T09:13:41Z</time>
      </trkpt>
      <trkpt lat="46.84663" lon="4.63371">
        <ele>253.93</ele>
        <time>2014-07-06T09:13:44Z</time>
      </trkpt>
      <trkpt lat="46.84655" lon="4.63384">
        <ele>254.89</ele>
        <time>2014-07-06T09:13:50Z</time>
      </trkpt>
      <trkpt lat="46.8465" lon="4.63394">
        <ele>255.37</ele>
        <time>2014-07-06T09:13:54Z</time>
      </trkpt>
      <trkpt lat="46.84643" lon="4.63408">
        <ele>255.37</ele>
        <time>2014-07-06T09:13:59Z</time>
      </trkpt>
      <trkpt lat="46.84604" lon="4.63479">
        <ele>252.48</ele>
        <time>2014-07-06T09:14:16Z</time>
      </trkpt>
      <trkpt lat="46.84599" lon="4.63484">
        <ele>252.48</ele>
        <time>2014-07-06T09:14:18Z</time>
      </trkpt>
      <trkpt lat="46.8459" lon="4.63478">
        <ele>252</ele>
        <time>2014-07-06T09:14:23Z</time>
      </trkpt>
      <trkpt lat="46.84581" lon="4.63481">
        <ele>252.48</ele>
        <time>2014-07-06T09:14:34Z</time>
      </trkpt>
      <trkpt lat="46.84579" lon="4.63482">
        <ele>252.48</ele>
        <time>2014-07-06T09:14:47Z</time>
      </trkpt>
      <trkpt lat="46.84581" lon="4.63479">
        <ele>252.48</ele>
        <time>2014-07-06T09:14:49Z</time>
      </trkpt>
      <trkpt lat="46.84585" lon="4.63476">
        <ele>252.48</ele>
        <time>2014-07-06T09:14:51Z</time>
      </trkpt>
      <trkpt lat="46.84591" lon="4.63468">
        <ele>252</ele>
        <time>2014-07-06T09:14:55Z</time>
      </trkpt>
      <trkpt lat="46.84579" lon="4.63482">
        <ele>264.02</ele>
        <time>2014-07-06T09:16:48Z</time>
      </trkpt>
      <trkpt lat="46.84595" lon="4.63501">
        <ele>264.02</ele>
        <time>2014-07-06T09:16:49Z</time>
      </trkpt>
      <trkpt lat="46.84597" lon="4.63496">
        <ele>261.14</ele>
        <time>2014-07-06T09:16:59Z</time>
      </trkpt>
      <trkpt lat="46.84598" lon="4.63495">
        <ele>257.77</ele>
        <time>2014-07-06T09:17:08Z</time>
      </trkpt>
      <trkpt lat="46.84598" lon="4.63497">
        <ele>254.89</ele>
        <time>2014-07-06T09:17:21Z</time>
      </trkpt>
      <trkpt lat="46.84615" lon="4.63463">
        <ele>252.96</ele>
        <time>2014-07-06T09:17:32Z</time>
      </trkpt>
      <trkpt lat="46.84618" lon="4.63456">
        <ele>252.96</ele>
        <time>2014-07-06T09:17:34Z</time>
      </trkpt>
      <trkpt lat="46.84635" lon="4.6343">
        <ele>252</ele>
        <time>2014-07-06T09:17:49Z</time>
      </trkpt>
      <trkpt lat="46.84636" lon="4.6343">
        <ele>251.52</ele>
        <time>2014-07-06T09:17:55Z</time>
      </trkpt>
      <trkpt lat="46.84646" lon="4.6342">
        <ele>249.6</ele>
        <time>2014-07-06T09:18:11Z</time>
      </trkpt>
      <trkpt lat="46.84647" lon="4.63418">
        <ele>247.68</ele>
        <time>2014-07-06T09:18:32Z</time>
      </trkpt>
      <trkpt lat="46.84644" lon="4.63418">
        <ele>247.68</ele>
        <time>2014-07-06T09:18:52Z</time>
      </trkpt>
      <trkpt lat="46.84647" lon="4.63418">
        <ele>247.2</ele>
        <time>2014-07-06T09:19:21Z</time>
      </trkpt>
      <trkpt lat="46.84647" lon="4.63414">
        <ele>247.2</ele>
        <time>2014-07-06T09:19:50Z</time>
      </trkpt>
      <trkpt lat="46.84644" lon="4.63417">
        <ele>247.68</ele>
        <time>2014-07-06T09:20:26Z</time>
      </trkpt>
      <trkpt lat="46.84644" lon="4.63422">
        <ele>248.16</ele>
        <time>2014-07-06T09:20:57Z</time>
      </trkpt>
      <trkpt lat="46.84644" lon="4.63422">
        <ele>247.68</ele>
        <time>2014-07-06T09:21:12Z</time>
      </trkpt>
      <trkpt lat="46.84638" lon="4.63425">
        <ele>247.68</ele>
        <time>2014-07-06T09:21:17Z</time>
      </trkpt>
      <trkpt lat="46.84638" lon="4.63421">
        <ele>248.64</ele>
        <time>2014-07-06T09:21:20Z</time>
      </trkpt>
      <trkpt lat="46.84649" lon="4.63411">
        <ele>250.08</ele>
        <time>2014-07-06T09:21:35Z</time>
      </trkpt>
      <trkpt lat="46.84653" lon="4.63397">
        <ele>249.6</ele>
        <time>2014-07-06T09:21:53Z</time>
      </trkpt>
      <trkpt lat="46.84655" lon="4.63396">
        <ele>249.6</ele>
        <time>2014-07-06T09:22:15Z</time>
      </trkpt>
      <trkpt lat="46.84657" lon="4.63395">
        <ele>250.08</ele>
        <time>2014-07-06T09:22:44Z</time>
      </trkpt>
      <trkpt lat="46.84652" lon="4.63395">
        <ele>249.6</ele>
        <time>2014-07-06T09:23:19Z</time>
      </trkpt>
      <trkpt lat="46.84651" lon="4.63399">
        <ele>251.04</ele>
        <time>2014-07-06T09:23:31Z</time>
      </trkpt>
      <trkpt lat="46.84641" lon="4.63416">
        <ele>249.6</ele>
        <time>2014-07-06T09:23:46Z</time>
      </trkpt>
      <trkpt lat="46.84635" lon="4.63425">
        <ele>248.64</ele>
        <time>2014-07-06T09:24:02Z</time>
      </trkpt>
      <trkpt lat="46.84629" lon="4.63434">
        <ele>248.64</ele>
        <time>2014-07-06T09:24:12Z</time>
      </trkpt>
      <trkpt lat="46.84628" lon="4.63439">
        <ele>247.2</ele>
        <time>2014-07-06T09:24:15Z</time>
      </trkpt>
      <trkpt lat="46.84626" lon="4.63442">
        <ele>249.12</ele>
        <time>2014-07-06T09:24:17Z</time>
      </trkpt>
      <trkpt lat="46.84611" lon="4.63471">
        <ele>247.68</ele>
        <time>2014-07-06T09:24:35Z</time>
      </trkpt>
      <trkpt lat="46.84609" lon="4.63489">
        <ele>247.68</ele>
        <time>2014-07-06T09:24:48Z</time>
      </trkpt>
      <trkpt lat="46.84599" lon="4.63504">
        <ele>248.16</ele>
        <time>2014-07-06T09:25:02Z</time>
      </trkpt>
      <trkpt lat="46.84598" lon="4.63507">
        <ele>247.68</ele>
        <time>2014-07-06T09:25:05Z</time>
      </trkpt>
      <trkpt lat="46.84593" lon="4.63517">
        <ele>247.68</ele>
        <time>2014-07-06T09:25:18Z</time>
      </trkpt>
      <trkpt lat="46.84597" lon="4.6351">
        <ele>248.16</ele>
        <time>2014-07-06T09:25:29Z</time>
      </trkpt>
      <trkpt lat="46.84601" lon="4.63503">
        <ele>247.68</ele>
        <time>2014-07-06T09:25:35Z</time>
      </trkpt>
      <trkpt lat="46.84605" lon="4.63499">
        <ele>247.68</ele>
        <time>2014-07-06T09:25:39Z</time>
      </trkpt>
      <trkpt lat="46.84608" lon="4.63482">
        <ele>248.16</ele>
        <time>2014-07-06T09:25:53Z</time>
      </trkpt>
      <trkpt lat="46.84609" lon="4.6348">
        <ele>247.68</ele>
        <time>2014-07-06T09:25:55Z</time>
      </trkpt>
      <trkpt lat="46.84612" lon="4.63477">
        <ele>247.68</ele>
        <time>2014-07-06T09:25:58Z</time>
      </trkpt>
      <trkpt lat="46.84614" lon="4.63474">
        <ele>247.68</ele>
        <time>2014-07-06T09:26:00Z</time>
      </trkpt>
      <trkpt lat="46.84619" lon="4.63462">
        <ele>248.16</ele>
        <time>2014-07-06T09:26:09Z</time>
      </trkpt>
      <trkpt lat="46.84623" lon="4.63457">
        <ele>248.16</ele>
        <time>2014-07-06T09:26:15Z</time>
      </trkpt>
      <trkpt lat="46.84632" lon="4.6344">
        <ele>249.12</ele>
        <time>2014-07-06T09:26:28Z</time>
      </trkpt>
      <trkpt lat="46.84635" lon="4.63436">
        <ele>248.64</ele>
        <time>2014-07-06T09:26:31Z</time>
      </trkpt>
      <trkpt lat="46.84636" lon="4.63433">
        <ele>249.12</ele>
        <time>2014-07-06T09:26:33Z</time>
      </trkpt>
      <trkpt lat="46.84636" lon="4.63427">
        <ele>249.12</ele>
        <time>2014-07-06T09:26:40Z</time>
      </trkpt>
      <trkpt lat="46.84639" lon="4.63422">
        <ele>249.6</ele>
        <time>2014-07-06T09:26:44Z</time>
      </trkpt>
      <trkpt lat="46.84643" lon="4.6342">
        <ele>249.12</ele>
        <time>2014-07-06T09:26:56Z</time>
      </trkpt>
      <trkpt lat="46.84644" lon="4.63422">
        <ele>244.79</ele>
        <time>2014-07-06T09:27:04Z</time>
      </trkpt>
      <trkpt lat="46.84644" lon="4.63422">
        <ele>252</ele>
        <time>2014-07-06T09:27:05Z</time>
      </trkpt>
      <trkpt lat="46.84644" lon="4.63422">
        <ele>251.04</ele>
        <time>2014-07-06T09:27:06Z</time>
      </trkpt>
      <trkpt lat="46.84644" lon="4.63422">
        <ele>247.68</ele>
        <time>2014-07-06T09:27:08Z</time>
      </trkpt>
      <trkpt lat="46.84644" lon="4.63422">
        <ele>251.04</ele>
        <time>2014-07-06T09:27:09Z</time>
      </trkpt>
      <trkpt lat="46.84643" lon="4.63423">
        <ele>248.64</ele>
        <time>2014-07-06T09:27:12Z</time>
      </trkpt>
      <trkpt lat="46.84644" lon="4.63419">
        <ele>250.56</ele>
        <time>2014-07-06T09:27:25Z</time>
      </trkpt>
      <trkpt lat="46.8465" lon="4.63409">
        <ele>251.04</ele>
        <time>2014-07-06T09:27:34Z</time>
      </trkpt>
      <trkpt lat="46.8466" lon="4.6339">
        <ele>251.04</ele>
        <time>2014-07-06T09:27:54Z</time>
      </trkpt>
      <trkpt lat="46.84669" lon="4.63372">
        <ele>250.56</ele>
        <time>2014-07-06T09:28:12Z</time>
      </trkpt>
      <trkpt lat="46.84675" lon="4.63362">
        <ele>250.56</ele>
        <time>2014-07-06T09:28:22Z</time>
      </trkpt>
      <trkpt lat="46.84675" lon="4.63343">
        <ele>249.6</ele>
        <time>2014-07-06T09:28:31Z</time>
      </trkpt>
      <trkpt lat="46.84689" lon="4.63326">
        <ele>249.12</ele>
        <time>2014-07-06T09:28:47Z</time>
      </trkpt>
      <trkpt lat="46.84686" lon="4.63327">
        <ele>249.12</ele>
        <time>2014-07-06T09:29:03Z</time>
      </trkpt>
      <trkpt lat="46.84674" lon="4.63333">
        <ele>248.64</ele>
        <time>2014-07-06T09:29:27Z</time>
      </trkpt>
      <trkpt lat="46.84674" lon="4.63324">
        <ele>248.64</ele>
        <time>2014-07-06T09:29:50Z</time>
      </trkpt>
      <trkpt lat="46.84679" lon="4.63314">
        <ele>248.64</ele>
        <time>2014-07-06T09:30:13Z</time>
      </trkpt>
      <trkpt lat="46.84685" lon="4.6331">
        <ele>248.16</ele>
        <time>2014-07-06T09:30:33Z</time>
      </trkpt>
      <trkpt lat="46.84681" lon="4.6331">
        <ele>248.16</ele>
        <time>2014-07-06T09:30:54Z</time>
      </trkpt>
      <trkpt lat="46.84683" lon="4.63301">
        <ele>248.16</ele>
        <time>2014-07-06T09:31:16Z</time>
      </trkpt>
      <trkpt lat="46.84689" lon="4.63316">
        <ele>248.16</ele>
        <time>2014-07-06T09:31:39Z</time>
      </trkpt>
      <trkpt lat="46.8469" lon="4.63315">
        <ele>248.16</ele>
        <time>2014-07-06T09:31:42Z</time>
      </trkpt>
      <trkpt lat="46.84709" lon="4.63278">
        <ele>248.16</ele>
        <time>2014-07-06T09:32:10Z</time>
      </trkpt>
      <trkpt lat="46.84702" lon="4.63287">
        <ele>248.16</ele>
        <time>2014-07-06T09:32:33Z</time>
      </trkpt>
      <trkpt lat="46.84691" lon="4.63299">
        <ele>247.68</ele>
        <time>2014-07-06T09:32:46Z</time>
      </trkpt>
      <trkpt lat="46.84683" lon="4.63327">
        <ele>247.68</ele>
        <time>2014-07-06T09:33:06Z</time>
      </trkpt>
      <trkpt lat="46.84677" lon="4.63327">
        <ele>247.68</ele>
        <time>2014-07-06T09:33:33Z</time>
      </trkpt>
      <trkpt lat="46.84684" lon="4.63312">
        <ele>247.68</ele>
        <time>2014-07-06T09:33:55Z</time>
      </trkpt>
      <trkpt lat="46.84695" lon="4.63292">
        <ele>247.68</ele>
        <time>2014-07-06T09:34:21Z</time>
      </trkpt>
      <trkpt lat="46.84675" lon="4.63324">
        <ele>247.2</ele>
        <time>2014-07-06T09:34:44Z</time>
      </trkpt>
      <trkpt lat="46.84674" lon="4.63334">
        <ele>247.68</ele>
        <time>2014-07-06T09:35:07Z</time>
      </trkpt>
      <trkpt lat="46.84671" lon="4.63341">
        <ele>247.68</ele>
        <time>2014-07-06T09:35:28Z</time>
      </trkpt>
      <trkpt lat="46.84693" lon="4.63324">
        <ele>247.68</ele>
        <time>2014-07-06T09:35:51Z</time>
      </trkpt>
      <trkpt lat="46.847" lon="4.63311">
        <ele>248.16</ele>
        <time>2014-07-06T09:36:14Z</time>
      </trkpt>
      <trkpt lat="46.84714" lon="4.63299">
        <ele>248.16</ele>
        <time>2014-07-06T09:36:41Z</time>
      </trkpt>
      <trkpt lat="46.84698" lon="4.63307">
        <ele>248.64</ele>
        <time>2014-07-06T09:37:08Z</time>
      </trkpt>
      <trkpt lat="46.84689" lon="4.63319">
        <ele>248.64</ele>
        <time>2014-07-06T09:37:34Z</time>
      </trkpt>
      <trkpt lat="46.84684" lon="4.63323">
        <ele>248.64</ele>
        <time>2014-07-06T09:37:56Z</time>
      </trkpt>
      <trkpt lat="46.84674" lon="4.63331">
        <ele>248.64</ele>
        <time>2014-07-06T09:38:25Z</time>
      </trkpt>
      <trkpt lat="46.84694" lon="4.63322">
        <ele>249.12</ele>
        <time>2014-07-06T09:38:51Z</time>
      </trkpt>
      <trkpt lat="46.84697" lon="4.63332">
        <ele>249.6</ele>
        <time>2014-07-06T09:39:09Z</time>
      </trkpt>
      <trkpt lat="46.84681" lon="4.6335">
        <ele>250.08</ele>
        <time>2014-07-06T09:39:23Z</time>
      </trkpt>
      <trkpt lat="46.84672" lon="4.63361">
        <ele>250.08</ele>
        <time>2014-07-06T09:39:31Z</time>
      </trkpt>
      <trkpt lat="46.84667" lon="4.63368">
        <ele>250.56</ele>
        <time>2014-07-06T09:39:34Z</time>
      </trkpt>
      <trkpt lat="46.84652" lon="4.63375">
        <ele>251.52</ele>
        <time>2014-07-06T09:39:47Z</time>
      </trkpt>
      <trkpt lat="46.8465" lon="4.63387">
        <ele>252.48</ele>
        <time>2014-07-06T09:39:59Z</time>
      </trkpt>
      <trkpt lat="46.84648" lon="4.63391">
        <ele>252.48</ele>
        <time>2014-07-06T09:40:05Z</time>
      </trkpt>
      <trkpt lat="46.84647" lon="4.63396">
        <ele>252.48</ele>
        <time>2014-07-06T09:40:09Z</time>
      </trkpt>
      <trkpt lat="46.84643" lon="4.63413">
        <ele>251.52</ele>
        <time>2014-07-06T09:40:22Z</time>
      </trkpt>
      <trkpt lat="46.84643" lon="4.63415">
        <ele>251.52</ele>
        <time>2014-07-06T09:40:24Z</time>
      </trkpt>
      <trkpt lat="46.84637" lon="4.63424">
        <ele>251.04</ele>
        <time>2014-07-06T09:40:36Z</time>
      </trkpt>
      <trkpt lat="46.84638" lon="4.63422">
        <ele>250.08</ele>
        <time>2014-07-06T09:40:40Z</time>
      </trkpt>
      <trkpt lat="46.84643" lon="4.63416">
        <ele>247.2</ele>
        <time>2014-07-06T09:40:47Z</time>
      </trkpt>
      <trkpt lat="46.84643" lon="4.63416">
        <ele>252.96</ele>
        <time>2014-07-06T09:40:48Z</time>
      </trkpt>
      <trkpt lat="46.84644" lon="4.63416">
        <ele>250.56</ele>
        <time>2014-07-06T09:40:51Z</time>
      </trkpt>
      <trkpt lat="46.84644" lon="4.63415">
        <ele>250.56</ele>
        <time>2014-07-06T09:41:25Z</time>
      </trkpt>
      <trkpt lat="46.84645" lon="4.63417">
        <ele>250.56</ele>
        <time>2014-07-06T09:41:51Z</time>
      </trkpt>
      <trkpt lat="46.8464" lon="4.63424">
        <ele>251.04</ele>
        <time>2014-07-06T09:42:09Z</time>
      </trkpt>
      <trkpt lat="46.84629" lon="4.63435">
        <ele>251.04</ele>
        <time>2014-07-06T09:42:22Z</time>
      </trkpt>
      <trkpt lat="46.84626" lon="4.63434">
        <ele>251.04</ele>
        <time>2014-07-06T09:42:25Z</time>
      </trkpt>
      <trkpt lat="46.84622" lon="4.6344">
        <ele>250.56</ele>
        <time>2014-07-06T09:42:40Z</time>
      </trkpt>
      <trkpt lat="46.84621" lon="4.63441">
        <ele>250.56</ele>
        <time>2014-07-06T09:42:41Z</time>
      </trkpt>
      <trkpt lat="46.84602" lon="4.63479">
        <ele>249.6</ele>
        <time>2014-07-06T09:42:52Z</time>
      </trkpt>
      <trkpt lat="46.84592" lon="4.63467">
        <ele>249.12</ele>
        <time>2014-07-06T09:43:00Z</time>
      </trkpt>
      <trkpt lat="46.84601" lon="4.63447">
        <ele>249.12</ele>
        <time>2014-07-06T09:43:06Z</time>
      </trkpt>
      <trkpt lat="46.84589" lon="4.63428">
        <ele>248.64</ele>
        <time>2014-07-06T09:43:11Z</time>
      </trkpt>
      <trkpt lat="46.84584" lon="4.6342">
        <ele>248.64</ele>
        <time>2014-07-06T09:43:13Z</time>
      </trkpt>
      <trkpt lat="46.84578" lon="4.63412">
        <ele>248.64</ele>
        <time>2014-07-06T09:43:15Z</time>
      </trkpt>
      <trkpt lat="46.84527" lon="4.6334">
        <ele>248.16</ele>
        <time>2014-07-06T09:43:33Z</time>
      </trkpt>
      <trkpt lat="46.8448" lon="4.63279">
        <ele>248.64</ele>
        <time>2014-07-06T09:43:51Z</time>
      </trkpt>
      <trkpt lat="46.84465" lon="4.63255">
        <ele>248.64</ele>
        <time>2014-07-06T09:43:59Z</time>
      </trkpt>
      <trkpt lat="46.84465" lon="4.63214">
        <ele>248.64</ele>
        <time>2014-07-06T09:44:11Z</time>
      </trkpt>
      <trkpt lat="46.84464" lon="4.63194">
        <ele>249.12</ele>
        <time>2014-07-06T09:44:18Z</time>
      </trkpt>
      <trkpt lat="46.84442" lon="4.63154">
        <ele>249.12</ele>
        <time>2014-07-06T09:44:31Z</time>
      </trkpt>
      <trkpt lat="46.84414" lon="4.63098">
        <ele>249.12</ele>
        <time>2014-07-06T09:44:46Z</time>
      </trkpt>
      <trkpt lat="46.84384" lon="4.63027">
        <ele>249.12</ele>
        <time>2014-07-06T09:45:02Z</time>
      </trkpt>
      <trkpt lat="46.84357" lon="4.62959">
        <ele>248.64</ele>
        <time>2014-07-06T09:45:18Z</time>
      </trkpt>
      <trkpt lat="46.84345" lon="4.62931">
        <ele>248.64</ele>
        <time>2014-07-06T09:45:27Z</time>
      </trkpt>
      <trkpt lat="46.84343" lon="4.62935">
        <ele>248.64</ele>
        <time>2014-07-06T09:45:36Z</time>
      </trkpt>
      <trkpt lat="46.84351" lon="4.62946">
        <ele>248.64</ele>
        <time>2014-07-06T09:45:40Z</time>
      </trkpt>
      <trkpt lat="46.84372" lon="4.62999">
        <ele>248.64</ele>
        <time>2014-07-06T09:45:55Z</time>
      </trkpt>
      <trkpt lat="46.84402" lon="4.63076">
        <ele>248.16</ele>
        <time>2014-07-06T09:46:13Z</time>
      </trkpt>
      <trkpt lat="46.8444" lon="4.6315">
        <ele>248.16</ele>
        <time>2014-07-06T09:46:31Z</time>
      </trkpt>
      <trkpt lat="46.84469" lon="4.63213">
        <ele>247.68</ele>
        <time>2014-07-06T09:46:47Z</time>
      </trkpt>
      <trkpt lat="46.84479" lon="4.63277">
        <ele>247.2</ele>
        <time>2014-07-06T09:47:00Z</time>
      </trkpt>
      <trkpt lat="46.84525" lon="4.63338">
        <ele>246.72</ele>
        <time>2014-07-06T09:47:16Z</time>
      </trkpt>
      <trkpt lat="46.84528" lon="4.63342">
        <ele>246.72</ele>
        <time>2014-07-06T09:47:17Z</time>
      </trkpt>
      <trkpt lat="46.84554" lon="4.63375">
        <ele>246.72</ele>
        <time>2014-07-06T09:47:25Z</time>
      </trkpt>
      <trkpt lat="46.84564" lon="4.63387">
        <ele>246.72</ele>
        <time>2014-07-06T09:47:28Z</time>
      </trkpt>
      <trkpt lat="46.84578" lon="4.63404">
        <ele>246.72</ele>
        <time>2014-07-06T09:47:32Z</time>
      </trkpt>
      <trkpt lat="46.84609" lon="4.63444">
        <ele>247.2</ele>
        <time>2014-07-06T09:47:45Z</time>
      </trkpt>
      <trkpt lat="46.84609" lon="4.63446">
        <ele>247.2</ele>
        <time>2014-07-06T09:47:46Z</time>
      </trkpt>
      <trkpt lat="46.8458" lon="4.63481">
        <ele>247.68</ele>
        <time>2014-07-06T09:47:57Z</time>
      </trkpt>
      <trkpt lat="46.84531" lon="4.63474">
        <ele>247.68</ele>
        <time>2014-07-06T09:48:11Z</time>
      </trkpt>
      <trkpt lat="46.84466" lon="4.63474">
        <ele>249.12</ele>
        <time>2014-07-06T09:48:30Z</time>
      </trkpt>
      <trkpt lat="46.8442" lon="4.63474">
        <ele>251.04</ele>
        <time>2014-07-06T09:48:48Z</time>
      </trkpt>
      <trkpt lat="46.84384" lon="4.6348">
        <ele>252.48</ele>
        <time>2014-07-06T09:49:06Z</time>
      </trkpt>
      <trkpt lat="46.84356" lon="4.63484">
        <ele>254.89</ele>
        <time>2014-07-06T09:49:24Z</time>
      </trkpt>
      <trkpt lat="46.84331" lon="4.63487">
        <ele>256.81</ele>
        <time>2014-07-06T09:49:40Z</time>
      </trkpt>
      <trkpt lat="46.84306" lon="4.63493">
        <ele>258.73</ele>
        <time>2014-07-06T09:49:56Z</time>
      </trkpt>
      <trkpt lat="46.8428" lon="4.63499">
        <ele>261.14</ele>
        <time>2014-07-06T09:50:13Z</time>
      </trkpt>
      <trkpt lat="46.84256" lon="4.63503">
        <ele>263.06</ele>
        <time>2014-07-06T09:50:29Z</time>
      </trkpt>
      <trkpt lat="46.84229" lon="4.63507">
        <ele>264.98</ele>
        <time>2014-07-06T09:50:46Z</time>
      </trkpt>
      <trkpt lat="46.84201" lon="4.63512">
        <ele>267.38</ele>
        <time>2014-07-06T09:51:04Z</time>
      </trkpt>
      <trkpt lat="46.84176" lon="4.63516">
        <ele>269.31</ele>
        <time>2014-07-06T09:51:20Z</time>
      </trkpt>
      <trkpt lat="46.8415" lon="4.6352">
        <ele>271.71</ele>
        <time>2014-07-06T09:51:37Z</time>
      </trkpt>
      <trkpt lat="46.84121" lon="4.63525">
        <ele>274.59</ele>
        <time>2014-07-06T09:51:57Z</time>
      </trkpt>
      <trkpt lat="46.84096" lon="4.6353">
        <ele>277</ele>
        <time>2014-07-06T09:52:13Z</time>
      </trkpt>
      <trkpt lat="46.84085" lon="4.6353">
        <ele>278.44</ele>
        <time>2014-07-06T09:52:21Z</time>
      </trkpt>
      <trkpt lat="46.84057" lon="4.63509">
        <ele>281.8</ele>
        <time>2014-07-06T09:52:40Z</time>
      </trkpt>
      <trkpt lat="46.84031" lon="4.63482">
        <ele>283.25</ele>
        <time>2014-07-06T09:52:57Z</time>
      </trkpt>
      <trkpt lat="46.84009" lon="4.63462">
        <ele>283.73</ele>
        <time>2014-07-06T09:53:11Z</time>
      </trkpt>
      <trkpt lat="46.8398" lon="4.63445">
        <ele>284.21</ele>
        <time>2014-07-06T09:53:27Z</time>
      </trkpt>
      <trkpt lat="46.83974" lon="4.63441">
        <ele>283.73</ele>
        <time>2014-07-06T09:53:33Z</time>
      </trkpt>
      <trkpt lat="46.83966" lon="4.63433">
        <ele>284.21</ele>
        <time>2014-07-06T09:53:41Z</time>
      </trkpt>
      <trkpt lat="46.83945" lon="4.63422">
        <ele>284.21</ele>
        <time>2014-07-06T09:53:58Z</time>
      </trkpt>
      <trkpt lat="46.83924" lon="4.63413">
        <ele>284.69</ele>
        <time>2014-07-06T09:54:15Z</time>
      </trkpt>
      <trkpt lat="46.83902" lon="4.63385">
        <ele>283.73</ele>
        <time>2014-07-06T09:54:26Z</time>
      </trkpt>
      <trkpt lat="46.8387" lon="4.63352">
        <ele>282.77</ele>
        <time>2014-07-06T09:54:37Z</time>
      </trkpt>
      <trkpt lat="46.83854" lon="4.63336">
        <ele>282.28</ele>
        <time>2014-07-06T09:54:42Z</time>
      </trkpt>
      <trkpt lat="46.83814" lon="4.63303">
        <ele>280.36</ele>
        <time>2014-07-06T09:54:52Z</time>
      </trkpt>
      <trkpt lat="46.83762" lon="4.63273">
        <ele>279.88</ele>
        <time>2014-07-06T09:55:03Z</time>
      </trkpt>
      <trkpt lat="46.83727" lon="4.63257">
        <ele>279.88</ele>
        <time>2014-07-06T09:55:12Z</time>
      </trkpt>
      <trkpt lat="46.83691" lon="4.6323">
        <ele>279.88</ele>
        <time>2014-07-06T09:55:25Z</time>
      </trkpt>
      <trkpt lat="46.8368" lon="4.63189">
        <ele>277.48</ele>
        <time>2014-07-06T09:55:31Z</time>
      </trkpt>
      <trkpt lat="46.83659" lon="4.63096">
        <ele>274.59</ele>
        <time>2014-07-06T09:55:41Z</time>
      </trkpt>
      <trkpt lat="46.8365" lon="4.62991">
        <ele>272.67</ele>
        <time>2014-07-06T09:55:53Z</time>
      </trkpt>
      <trkpt lat="46.83626" lon="4.62963">
        <ele>270.27</ele>
        <time>2014-07-06T09:56:02Z</time>
      </trkpt>
      <trkpt lat="46.83614" lon="4.62956">
        <ele>269.31</ele>
        <time>2014-07-06T09:56:04Z</time>
      </trkpt>
      <trkpt lat="46.836" lon="4.62948">
        <ele>266.9</ele>
        <time>2014-07-06T09:56:06Z</time>
      </trkpt>
      <trkpt lat="46.83543" lon="4.62909">
        <ele>263.06</ele>
        <time>2014-07-06T09:56:13Z</time>
      </trkpt>
      <trkpt lat="46.83526" lon="4.62898">
        <ele>261.62</ele>
        <time>2014-07-06T09:56:15Z</time>
      </trkpt>
      <trkpt lat="46.83491" lon="4.6283">
        <ele>262.1</ele>
        <time>2014-07-06T09:56:23Z</time>
      </trkpt>
      <trkpt lat="46.83489" lon="4.62813">
        <ele>262.1</ele>
        <time>2014-07-06T09:56:25Z</time>
      </trkpt>
      <trkpt lat="46.83479" lon="4.62742">
        <ele>263.06</ele>
        <time>2014-07-06T09:56:38Z</time>
      </trkpt>
      <trkpt lat="46.83472" lon="4.62688">
        <ele>263.06</ele>
        <time>2014-07-06T09:56:54Z</time>
      </trkpt>
      <trkpt lat="46.83472" lon="4.6266">
        <ele>262.1</ele>
        <time>2014-07-06T09:57:06Z</time>
      </trkpt>
      <trkpt lat="46.83473" lon="4.62661">
        <ele>262.1</ele>
        <time>2014-07-06T09:57:27Z</time>
      </trkpt>
      <trkpt lat="46.83473" lon="4.6266">
        <ele>262.1</ele>
        <time>2014-07-06T09:57:38Z</time>
      </trkpt>
      <trkpt lat="46.83472" lon="4.62653">
        <ele>262.1</ele>
        <time>2014-07-06T09:57:42Z</time>
      </trkpt>
      <trkpt lat="46.83479" lon="4.62583">
        <ele>261.14</ele>
        <time>2014-07-06T09:57:58Z</time>
      </trkpt>
      <trkpt lat="46.83478" lon="4.62512">
        <ele>261.14</ele>
        <time>2014-07-06T09:58:12Z</time>
      </trkpt>
      <trkpt lat="46.83485" lon="4.62434">
        <ele>260.65</ele>
        <time>2014-07-06T09:58:27Z</time>
      </trkpt>
      <trkpt lat="46.83488" lon="4.62378">
        <ele>259.69</ele>
        <time>2014-07-06T09:58:41Z</time>
      </trkpt>
      <trkpt lat="46.83498" lon="4.62328">
        <ele>258.25</ele>
        <time>2014-07-06T09:58:57Z</time>
      </trkpt>
      <trkpt lat="46.83524" lon="4.62277">
        <ele>257.29</ele>
        <time>2014-07-06T09:59:12Z</time>
      </trkpt>
      <trkpt lat="46.83562" lon="4.62252">
        <ele>256.33</ele>
        <time>2014-07-06T09:59:26Z</time>
      </trkpt>
      <trkpt lat="46.83574" lon="4.62236">
        <ele>255.85</ele>
        <time>2014-07-06T09:59:31Z</time>
      </trkpt>
      <trkpt lat="46.83596" lon="4.62172">
        <ele>254.41</ele>
        <time>2014-07-06T09:59:45Z</time>
      </trkpt>
      <trkpt lat="46.83607" lon="4.62155">
        <ele>253.93</ele>
        <time>2014-07-06T09:59:49Z</time>
      </trkpt>
      <trkpt lat="46.83664" lon="4.62072">
        <ele>250.56</ele>
        <time>2014-07-06T10:00:05Z</time>
      </trkpt>
      <trkpt lat="46.837" lon="4.62019">
        <ele>250.08</ele>
        <time>2014-07-06T10:00:15Z</time>
      </trkpt>
      <trkpt lat="46.83704" lon="4.61975">
        <ele>252</ele>
        <time>2014-07-06T10:00:26Z</time>
      </trkpt>
      <trkpt lat="46.83699" lon="4.61964">
        <ele>252</ele>
        <time>2014-07-06T10:00:38Z</time>
      </trkpt>
      <trkpt lat="46.837" lon="4.61964">
        <ele>252</ele>
        <time>2014-07-06T10:01:08Z</time>
      </trkpt>
      <trkpt lat="46.83701" lon="4.61962">
        <ele>252</ele>
        <time>2014-07-06T10:01:31Z</time>
      </trkpt>
      <trkpt lat="46.83706" lon="4.61957">
        <ele>252</ele>
        <time>2014-07-06T10:01:35Z</time>
      </trkpt>
      <trkpt lat="46.83746" lon="4.61918">
        <ele>249.6</ele>
        <time>2014-07-06T10:01:47Z</time>
      </trkpt>
      <trkpt lat="46.83766" lon="4.61905">
        <ele>249.12</ele>
        <time>2014-07-06T10:01:51Z</time>
      </trkpt>
      <trkpt lat="46.83819" lon="4.61891">
        <ele>249.12</ele>
        <time>2014-07-06T10:02:02Z</time>
      </trkpt>
      <trkpt lat="46.83844" lon="4.61885">
        <ele>249.6</ele>
        <time>2014-07-06T10:02:13Z</time>
      </trkpt>
      <trkpt lat="46.83844" lon="4.61886">
        <ele>249.6</ele>
        <time>2014-07-06T10:02:36Z</time>
      </trkpt>
      <trkpt lat="46.83839" lon="4.61832">
        <ele>247.68</ele>
        <time>2014-07-06T10:02:47Z</time>
      </trkpt>
      <trkpt lat="46.83827" lon="4.61729">
        <ele>246.23</ele>
        <time>2014-07-06T10:03:01Z</time>
      </trkpt>
      <trkpt lat="46.83835" lon="4.61684">
        <ele>246.23</ele>
        <time>2014-07-06T10:03:08Z</time>
      </trkpt>
      <trkpt lat="46.83862" lon="4.61621">
        <ele>246.23</ele>
        <time>2014-07-06T10:03:19Z</time>
      </trkpt>
      <trkpt lat="46.8389" lon="4.61548">
        <ele>246.72</ele>
        <time>2014-07-06T10:03:32Z</time>
      </trkpt>
      <trkpt lat="46.83906" lon="4.61443">
        <ele>248.64</ele>
        <time>2014-07-06T10:03:51Z</time>
      </trkpt>
      <trkpt lat="46.8391" lon="4.61421">
        <ele>248.64</ele>
        <time>2014-07-06T10:03:55Z</time>
      </trkpt>
      <trkpt lat="46.83926" lon="4.61336">
        <ele>249.6</ele>
        <time>2014-07-06T10:04:12Z</time>
      </trkpt>
      <trkpt lat="46.83946" lon="4.61307">
        <ele>251.04</ele>
        <time>2014-07-06T10:04:24Z</time>
      </trkpt>
      <trkpt lat="46.83965" lon="4.61279">
        <ele>252.96</ele>
        <time>2014-07-06T10:04:40Z</time>
      </trkpt>
      <trkpt lat="46.8399" lon="4.6126">
        <ele>255.37</ele>
        <time>2014-07-06T10:04:57Z</time>
      </trkpt>
      <trkpt lat="46.84016" lon="4.61235">
        <ele>257.29</ele>
        <time>2014-07-06T10:05:15Z</time>
      </trkpt>
      <trkpt lat="46.84029" lon="4.61184">
        <ele>258.73</ele>
        <time>2014-07-06T10:05:35Z</time>
      </trkpt>
      <trkpt lat="46.84048" lon="4.61143">
        <ele>261.14</ele>
        <time>2014-07-06T10:05:53Z</time>
      </trkpt>
      <trkpt lat="46.8407" lon="4.61115">
        <ele>263.06</ele>
        <time>2014-07-06T10:06:09Z</time>
      </trkpt>
      <trkpt lat="46.84097" lon="4.61088">
        <ele>264.5</ele>
        <time>2014-07-06T10:06:27Z</time>
      </trkpt>
      <trkpt lat="46.84127" lon="4.61052">
        <ele>266.42</ele>
        <time>2014-07-06T10:06:47Z</time>
      </trkpt>
      <trkpt lat="46.84144" lon="4.60999">
        <ele>266.42</ele>
        <time>2014-07-06T10:07:01Z</time>
      </trkpt>
      <trkpt lat="46.8417" lon="4.60939">
        <ele>266.42</ele>
        <time>2014-07-06T10:07:16Z</time>
      </trkpt>
      <trkpt lat="46.84188" lon="4.60879">
        <ele>268.35</ele>
        <time>2014-07-06T10:07:31Z</time>
      </trkpt>
      <trkpt lat="46.84198" lon="4.60798">
        <ele>267.86</ele>
        <time>2014-07-06T10:07:48Z</time>
      </trkpt>
      <trkpt lat="46.84235" lon="4.60798">
        <ele>268.35</ele>
        <time>2014-07-06T10:07:58Z</time>
      </trkpt>
      <trkpt lat="46.84277" lon="4.60785">
        <ele>269.31</ele>
        <time>2014-07-06T10:08:11Z</time>
      </trkpt>
      <trkpt lat="46.84286" lon="4.60727">
        <ele>270.75</ele>
        <time>2014-07-06T10:08:24Z</time>
      </trkpt>
      <trkpt lat="46.84292" lon="4.60681">
        <ele>271.71</ele>
        <time>2014-07-06T10:08:36Z</time>
      </trkpt>
      <trkpt lat="46.84307" lon="4.60625">
        <ele>272.19</ele>
        <time>2014-07-06T10:08:50Z</time>
      </trkpt>
      <trkpt lat="46.8432" lon="4.60554">
        <ele>273.15</ele>
        <time>2014-07-06T10:09:06Z</time>
      </trkpt>
      <trkpt lat="46.84337" lon="4.60476">
        <ele>274.59</ele>
        <time>2014-07-06T10:09:23Z</time>
      </trkpt>
      <trkpt lat="46.84349" lon="4.60404">
        <ele>276.04</ele>
        <time>2014-07-06T10:09:40Z</time>
      </trkpt>
      <trkpt lat="46.84362" lon="4.60329">
        <ele>277.96</ele>
        <time>2014-07-06T10:09:59Z</time>
      </trkpt>
      <trkpt lat="46.84378" lon="4.6027">
        <ele>278.92</ele>
        <time>2014-07-06T10:10:16Z</time>
      </trkpt>
      <trkpt lat="46.84405" lon="4.60208">
        <ele>280.84</ele>
        <time>2014-07-06T10:10:36Z</time>
      </trkpt>
      <trkpt lat="46.84418" lon="4.60154">
        <ele>281.8</ele>
        <time>2014-07-06T10:10:51Z</time>
      </trkpt>
      <trkpt lat="46.84428" lon="4.60096">
        <ele>283.73</ele>
        <time>2014-07-06T10:11:08Z</time>
      </trkpt>
      <trkpt lat="46.84431" lon="4.60053">
        <ele>284.69</ele>
        <time>2014-07-06T10:11:21Z</time>
      </trkpt>
      <trkpt lat="46.84414" lon="4.60012">
        <ele>285.65</ele>
        <time>2014-07-06T10:11:35Z</time>
      </trkpt>
      <trkpt lat="46.84386" lon="4.59976">
        <ele>286.13</ele>
        <time>2014-07-06T10:11:50Z</time>
      </trkpt>
      <trkpt lat="46.84354" lon="4.59929">
        <ele>287.09</ele>
        <time>2014-07-06T10:12:08Z</time>
      </trkpt>
      <trkpt lat="46.84327" lon="4.59889">
        <ele>288.53</ele>
        <time>2014-07-06T10:12:23Z</time>
      </trkpt>
      <trkpt lat="46.84291" lon="4.59845">
        <ele>289.97</ele>
        <time>2014-07-06T10:12:41Z</time>
      </trkpt>
      <trkpt lat="46.84251" lon="4.59802">
        <ele>291.9</ele>
        <time>2014-07-06T10:13:00Z</time>
      </trkpt>
      <trkpt lat="46.84212" lon="4.59747">
        <ele>293.34</ele>
        <time>2014-07-06T10:13:19Z</time>
      </trkpt>
      <trkpt lat="46.84176" lon="4.5968">
        <ele>294.3</ele>
        <time>2014-07-06T10:13:38Z</time>
      </trkpt>
      <trkpt lat="46.84136" lon="4.59642">
        <ele>295.74</ele>
        <time>2014-07-06T10:13:56Z</time>
      </trkpt>
      <trkpt lat="46.84116" lon="4.59604">
        <ele>296.22</ele>
        <time>2014-07-06T10:14:10Z</time>
      </trkpt>
      <trkpt lat="46.84107" lon="4.59543">
        <ele>298.15</ele>
        <time>2014-07-06T10:14:28Z</time>
      </trkpt>
      <trkpt lat="46.84101" lon="4.59488">
        <ele>300.07</ele>
        <time>2014-07-06T10:14:46Z</time>
      </trkpt>
      <trkpt lat="46.84099" lon="4.59455">
        <ele>300.55</ele>
        <time>2014-07-06T10:14:56Z</time>
      </trkpt>
      <trkpt lat="46.84096" lon="4.59449">
        <ele>300.55</ele>
        <time>2014-07-06T10:15:08Z</time>
      </trkpt>
      <trkpt lat="46.84097" lon="4.5945">
        <ele>300.55</ele>
        <time>2014-07-06T10:15:47Z</time>
      </trkpt>
      <trkpt lat="46.84095" lon="4.59453">
        <ele>300.55</ele>
        <time>2014-07-06T10:16:30Z</time>
      </trkpt>
      <trkpt lat="46.84095" lon="4.59452">
        <ele>300.07</ele>
        <time>2014-07-06T10:17:19Z</time>
      </trkpt>
      <trkpt lat="46.84095" lon="4.59453">
        <ele>300.07</ele>
        <time>2014-07-06T10:17:59Z</time>
      </trkpt>
      <trkpt lat="46.84095" lon="4.59453">
        <ele>300.55</ele>
        <time>2014-07-06T10:18:36Z</time>
      </trkpt>
      <trkpt lat="46.84096" lon="4.59454">
        <ele>300.07</ele>
        <time>2014-07-06T10:19:16Z</time>
      </trkpt>
      <trkpt lat="46.84096" lon="4.59454">
        <ele>299.59</ele>
        <time>2014-07-06T10:20:02Z</time>
      </trkpt>
      <trkpt lat="46.84096" lon="4.59454">
        <ele>299.59</ele>
        <time>2014-07-06T10:20:40Z</time>
      </trkpt>
      <trkpt lat="46.84097" lon="4.59454">
        <ele>299.59</ele>
        <time>2014-07-06T10:21:20Z</time>
      </trkpt>
      <trkpt lat="46.84097" lon="4.59454">
        <ele>299.59</ele>
        <time>2014-07-06T10:21:56Z</time>
      </trkpt>
      <trkpt lat="46.84096" lon="4.59454">
        <ele>300.07</ele>
        <time>2014-07-06T10:22:47Z</time>
      </trkpt>
      <trkpt lat="46.84095" lon="4.59451">
        <ele>300.07</ele>
        <time>2014-07-06T10:23:31Z</time>
      </trkpt>
      <trkpt lat="46.84095" lon="4.59449">
        <ele>299.59</ele>
        <time>2014-07-06T10:23:59Z</time>
      </trkpt>
      <trkpt lat="46.84096" lon="4.59449">
        <ele>299.59</ele>
        <time>2014-07-06T10:24:39Z</time>
      </trkpt>
      <trkpt lat="46.84097" lon="4.59448">
        <ele>299.59</ele>
        <time>2014-07-06T10:25:17Z</time>
      </trkpt>
      <trkpt lat="46.84096" lon="4.59451">
        <ele>300.07</ele>
        <time>2014-07-06T10:25:50Z</time>
      </trkpt>
      <trkpt lat="46.84097" lon="4.59449">
        <ele>300.07</ele>
        <time>2014-07-06T10:26:24Z</time>
      </trkpt>
      <trkpt lat="46.84098" lon="4.5945">
        <ele>300.07</ele>
        <time>2014-07-06T10:26:48Z</time>
      </trkpt>
      <trkpt lat="46.84097" lon="4.59449">
        <ele>300.07</ele>
        <time>2014-07-06T10:27:25Z</time>
      </trkpt>
      <trkpt lat="46.84096" lon="4.59449">
        <ele>300.07</ele>
        <time>2014-07-06T10:28:03Z</time>
      </trkpt>
      <trkpt lat="46.84097" lon="4.5945">
        <ele>300.07</ele>
        <time>2014-07-06T10:28:37Z</time>
      </trkpt>
      <trkpt lat="46.84095" lon="4.59451">
        <ele>300.07</ele>
        <time>2014-07-06T10:28:59Z</time>
      </trkpt>
      <trkpt lat="46.84087" lon="4.59439">
        <ele>300.07</ele>
        <time>2014-07-06T10:29:07Z</time>
      </trkpt>
      <trkpt lat="46.84065" lon="4.59385">
        <ele>300.07</ele>
        <time>2014-07-06T10:29:26Z</time>
      </trkpt>
      <trkpt lat="46.84033" lon="4.59319">
        <ele>299.59</ele>
        <time>2014-07-06T10:29:42Z</time>
      </trkpt>
      <trkpt lat="46.84" lon="4.59224">
        <ele>298.63</ele>
        <time>2014-07-06T10:30:00Z</time>
      </trkpt>
      <trkpt lat="46.83976" lon="4.59137">
        <ele>297.67</ele>
        <time>2014-07-06T10:30:14Z</time>
      </trkpt>
      <trkpt lat="46.83928" lon="4.59057">
        <ele>297.18</ele>
        <time>2014-07-06T10:30:30Z</time>
      </trkpt>
      <trkpt lat="46.83868" lon="4.58957">
        <ele>296.22</ele>
        <time>2014-07-06T10:30:50Z</time>
      </trkpt>
      <trkpt lat="46.83815" lon="4.58872">
        <ele>295.26</ele>
        <time>2014-07-06T10:31:07Z</time>
      </trkpt>
      <trkpt lat="46.83762" lon="4.58792">
        <ele>293.82</ele>
        <time>2014-07-06T10:31:21Z</time>
      </trkpt>
      <trkpt lat="46.83733" lon="4.58792">
        <ele>293.82</ele>
        <time>2014-07-06T10:31:27Z</time>
      </trkpt>
      <trkpt lat="46.83713" lon="4.58806">
        <ele>293.34</ele>
        <time>2014-07-06T10:31:32Z</time>
      </trkpt>
      <trkpt lat="46.83688" lon="4.58793">
        <ele>292.86</ele>
        <time>2014-07-06T10:31:38Z</time>
      </trkpt>
      <trkpt lat="46.83639" lon="4.58757">
        <ele>291.9</ele>
        <time>2014-07-06T10:31:49Z</time>
      </trkpt>
      <trkpt lat="46.83618" lon="4.58752">
        <ele>290.94</ele>
        <time>2014-07-06T10:31:53Z</time>
      </trkpt>
      <trkpt lat="46.83594" lon="4.58757">
        <ele>289.97</ele>
        <time>2014-07-06T10:31:58Z</time>
      </trkpt>
      <trkpt lat="46.83532" lon="4.58808">
        <ele>286.61</ele>
        <time>2014-07-06T10:32:12Z</time>
      </trkpt>
      <trkpt lat="46.83518" lon="4.58824">
        <ele>285.65</ele>
        <time>2014-07-06T10:32:16Z</time>
      </trkpt>
      <trkpt lat="46.83486" lon="4.58905">
        <ele>282.28</ele>
        <time>2014-07-06T10:32:27Z</time>
      </trkpt>
      <trkpt lat="46.83466" lon="4.58971">
        <ele>278.92</ele>
        <time>2014-07-06T10:32:33Z</time>
      </trkpt>
      <trkpt lat="46.83444" lon="4.5904">
        <ele>276.52</ele>
        <time>2014-07-06T10:32:39Z</time>
      </trkpt>
      <trkpt lat="46.834" lon="4.59143">
        <ele>276.52</ele>
        <time>2014-07-06T10:32:51Z</time>
      </trkpt>
      <trkpt lat="46.83369" lon="4.59191">
        <ele>279.4</ele>
        <time>2014-07-06T10:33:02Z</time>
      </trkpt>
      <trkpt lat="46.83327" lon="4.59244">
        <ele>278.44</ele>
        <time>2014-07-06T10:33:19Z</time>
      </trkpt>
      <trkpt lat="46.83321" lon="4.5925">
        <ele>278.44</ele>
        <time>2014-07-06T10:33:21Z</time>
      </trkpt>
      <trkpt lat="46.83278" lon="4.59276">
        <ele>275.07</ele>
        <time>2014-07-06T10:33:29Z</time>
      </trkpt>
      <trkpt lat="46.83255" lon="4.59281">
        <ele>273.63</ele>
        <time>2014-07-06T10:33:32Z</time>
      </trkpt>
      <trkpt lat="46.83204" lon="4.59293">
        <ele>270.27</ele>
        <time>2014-07-06T10:33:38Z</time>
      </trkpt>
      <trkpt lat="46.83168" lon="4.59301">
        <ele>268.35</ele>
        <time>2014-07-06T10:33:42Z</time>
      </trkpt>
      <trkpt lat="46.83061" lon="4.59338">
        <ele>266.9</ele>
        <time>2014-07-06T10:33:56Z</time>
      </trkpt>
      <trkpt lat="46.82976" lon="4.59373">
        <ele>266.9</ele>
        <time>2014-07-06T10:34:11Z</time>
      </trkpt>
      <trkpt lat="46.82946" lon="4.59379">
        <ele>268.35</ele>
        <time>2014-07-06T10:34:23Z</time>
      </trkpt>
      <trkpt lat="46.82946" lon="4.59377">
        <ele>268.35</ele>
        <time>2014-07-06T10:34:31Z</time>
      </trkpt>
      <trkpt lat="46.82954" lon="4.59377">
        <ele>267.86</ele>
        <time>2014-07-06T10:34:36Z</time>
      </trkpt>
      <trkpt lat="46.82989" lon="4.59374">
        <ele>266.42</ele>
        <time>2014-07-06T10:34:48Z</time>
      </trkpt>
      <trkpt lat="46.82988" lon="4.59376">
        <ele>266.42</ele>
        <time>2014-07-06T10:35:07Z</time>
      </trkpt>
      <trkpt lat="46.82987" lon="4.59376">
        <ele>266.42</ele>
        <time>2014-07-06T10:35:48Z</time>
      </trkpt>
      <trkpt lat="46.82988" lon="4.59375">
        <ele>266.42</ele>
        <time>2014-07-06T10:36:23Z</time>
      </trkpt>
      <trkpt lat="46.82987" lon="4.59376">
        <ele>266.42</ele>
        <time>2014-07-06T10:37:00Z</time>
      </trkpt>
      <trkpt lat="46.82987" lon="4.59376">
        <ele>266.42</ele>
        <time>2014-07-06T10:37:37Z</time>
      </trkpt>
      <trkpt lat="46.82987" lon="4.59374">
        <ele>266.42</ele>
        <time>2014-07-06T10:38:05Z</time>
      </trkpt>
      <trkpt lat="46.82988" lon="4.59376">
        <ele>265.94</ele>
        <time>2014-07-06T10:38:52Z</time>
      </trkpt>
      <trkpt lat="46.82986" lon="4.59371">
        <ele>266.42</ele>
        <time>2014-07-06T10:39:10Z</time>
      </trkpt>
      <trkpt lat="46.82986" lon="4.59371">
        <ele>265.94</ele>
        <time>2014-07-06T10:39:11Z</time>
      </trkpt>
      <trkpt lat="46.82978" lon="4.59371">
        <ele>266.42</ele>
        <time>2014-07-06T10:39:16Z</time>
      </trkpt>
      <trkpt lat="46.82974" lon="4.59371">
        <ele>266.42</ele>
        <time>2014-07-06T10:39:18Z</time>
      </trkpt>
      <trkpt lat="46.82969" lon="4.59374">
        <ele>266.42</ele>
        <time>2014-07-06T10:39:22Z</time>
      </trkpt>
      <trkpt lat="46.8293" lon="4.59381">
        <ele>268.83</ele>
        <time>2014-07-06T10:39:40Z</time>
      </trkpt>
      <trkpt lat="46.82898" lon="4.59391">
        <ele>271.23</ele>
        <time>2014-07-06T10:39:58Z</time>
      </trkpt>
      <trkpt lat="46.82873" lon="4.59401">
        <ele>272.19</ele>
        <time>2014-07-06T10:40:14Z</time>
      </trkpt>
      <trkpt lat="46.82833" lon="4.59421">
        <ele>272.19</ele>
        <time>2014-07-06T10:40:34Z</time>
      </trkpt>
      <trkpt lat="46.82783" lon="4.59432">
        <ele>270.75</ele>
        <time>2014-07-06T10:40:45Z</time>
      </trkpt>
      <trkpt lat="46.82747" lon="4.59449">
        <ele>267.86</ele>
        <time>2014-07-06T10:40:51Z</time>
      </trkpt>
      <trkpt lat="46.82703" lon="4.59474">
        <ele>264.02</ele>
        <time>2014-07-06T10:40:57Z</time>
      </trkpt>
      <trkpt lat="46.82665" lon="4.595">
        <ele>260.65</ele>
        <time>2014-07-06T10:41:02Z</time>
      </trkpt>
      <trkpt lat="46.82635" lon="4.5954">
        <ele>256.33</ele>
        <time>2014-07-06T10:41:07Z</time>
      </trkpt>
      <trkpt lat="46.82599" lon="4.59552">
        <ele>252.96</ele>
        <time>2014-07-06T10:41:12Z</time>
      </trkpt>
      <trkpt lat="46.82593" lon="4.59548">
        <ele>252.96</ele>
        <time>2014-07-06T10:41:13Z</time>
      </trkpt>
      <trkpt lat="46.82572" lon="4.59534">
        <ele>252</ele>
        <time>2014-07-06T10:41:17Z</time>
      </trkpt>
      <trkpt lat="46.82554" lon="4.59555">
        <ele>251.52</ele>
        <time>2014-07-06T10:41:25Z</time>
      </trkpt>
      <trkpt lat="46.82544" lon="4.59589">
        <ele>251.04</ele>
        <time>2014-07-06T10:41:32Z</time>
      </trkpt>
      <trkpt lat="46.8254" lon="4.59606">
        <ele>250.56</ele>
        <time>2014-07-06T10:41:35Z</time>
      </trkpt>
      <trkpt lat="46.82533" lon="4.59647">
        <ele>250.08</ele>
        <time>2014-07-06T10:41:41Z</time>
      </trkpt>
      <trkpt lat="46.82533" lon="4.59673">
        <ele>249.12</ele>
        <time>2014-07-06T10:41:45Z</time>
      </trkpt>
      <trkpt lat="46.82533" lon="4.59685">
        <ele>249.6</ele>
        <time>2014-07-06T10:41:47Z</time>
      </trkpt>
      <trkpt lat="46.82555" lon="4.59773">
        <ele>249.6</ele>
        <time>2014-07-06T10:42:03Z</time>
      </trkpt>
      <trkpt lat="46.82554" lon="4.59805">
        <ele>249.6</ele>
        <time>2014-07-06T10:42:08Z</time>
      </trkpt>
      <trkpt lat="46.82535" lon="4.59892">
        <ele>250.08</ele>
        <time>2014-07-06T10:42:24Z</time>
      </trkpt>
      <trkpt lat="46.82533" lon="4.59938">
        <ele>250.08</ele>
        <time>2014-07-06T10:42:36Z</time>
      </trkpt>
      <trkpt lat="46.82506" lon="4.59938">
        <ele>250.08</ele>
        <time>2014-07-06T10:42:45Z</time>
      </trkpt>
      <trkpt lat="46.82471" lon="4.59958">
        <ele>252.48</ele>
        <time>2014-07-06T10:43:00Z</time>
      </trkpt>
      <trkpt lat="46.8247" lon="4.59982">
        <ele>252</ele>
        <time>2014-07-06T10:43:05Z</time>
      </trkpt>
      <trkpt lat="46.82439" lon="4.60046">
        <ele>252</ele>
        <time>2014-07-06T10:43:19Z</time>
      </trkpt>
      <trkpt lat="46.82405" lon="4.60089">
        <ele>253.44</ele>
        <time>2014-07-06T10:43:34Z</time>
      </trkpt>
      <trkpt lat="46.82371" lon="4.60107">
        <ele>254.89</ele>
        <time>2014-07-06T10:43:48Z</time>
      </trkpt>
      <trkpt lat="46.82334" lon="4.60102">
        <ele>255.37</ele>
        <time>2014-07-06T10:44:00Z</time>
      </trkpt>
      <trkpt lat="46.82289" lon="4.60087">
        <ele>255.85</ele>
        <time>2014-07-06T10:44:14Z</time>
      </trkpt>
      <trkpt lat="46.82233" lon="4.60083">
        <ele>256.81</ele>
        <time>2014-07-06T10:44:31Z</time>
      </trkpt>
      <trkpt lat="46.82196" lon="4.60111">
        <ele>257.77</ele>
        <time>2014-07-06T10:44:44Z</time>
      </trkpt>
      <trkpt lat="46.82157" lon="4.6015">
        <ele>259.21</ele>
        <time>2014-07-06T10:44:59Z</time>
      </trkpt>
      <trkpt lat="46.82113" lon="4.60188">
        <ele>259.69</ele>
        <time>2014-07-06T10:45:16Z</time>
      </trkpt>
      <trkpt lat="46.82075" lon="4.60221">
        <ele>261.14</ele>
        <time>2014-07-06T10:45:30Z</time>
      </trkpt>
      <trkpt lat="46.82025" lon="4.60259">
        <ele>262.58</ele>
        <time>2014-07-06T10:45:48Z</time>
      </trkpt>
      <trkpt lat="46.81973" lon="4.60274">
        <ele>264.98</ele>
        <time>2014-07-06T10:46:08Z</time>
      </trkpt>
      <trkpt lat="46.81924" lon="4.60273">
        <ele>267.38</ele>
        <time>2014-07-06T10:46:28Z</time>
      </trkpt>
      <trkpt lat="46.81885" lon="4.60272">
        <ele>269.31</ele>
        <time>2014-07-06T10:46:44Z</time>
      </trkpt>
      <trkpt lat="46.81845" lon="4.60271">
        <ele>270.27</ele>
        <time>2014-07-06T10:47:01Z</time>
      </trkpt>
      <trkpt lat="46.81801" lon="4.6027">
        <ele>271.71</ele>
        <time>2014-07-06T10:47:18Z</time>
      </trkpt>
      <trkpt lat="46.81763" lon="4.60268">
        <ele>274.59</ele>
        <time>2014-07-06T10:47:35Z</time>
      </trkpt>
      <trkpt lat="46.8172" lon="4.60257">
        <ele>277.48</ele>
        <time>2014-07-06T10:47:53Z</time>
      </trkpt>
      <trkpt lat="46.81702" lon="4.60252">
        <ele>278.44</ele>
        <time>2014-07-06T10:48:01Z</time>
      </trkpt>
      <trkpt lat="46.81663" lon="4.60238">
        <ele>280.36</ele>
        <time>2014-07-06T10:48:18Z</time>
      </trkpt>
      <trkpt lat="46.81634" lon="4.6024">
        <ele>281.32</ele>
        <time>2014-07-06T10:48:30Z</time>
      </trkpt>
      <trkpt lat="46.81593" lon="4.6027">
        <ele>284.21</ele>
        <time>2014-07-06T10:48:48Z</time>
      </trkpt>
      <trkpt lat="46.81548" lon="4.6028">
        <ele>286.13</ele>
        <time>2014-07-06T10:49:05Z</time>
      </trkpt>
      <trkpt lat="46.81501" lon="4.60289">
        <ele>288.05</ele>
        <time>2014-07-06T10:49:24Z</time>
      </trkpt>
      <trkpt lat="46.81446" lon="4.60316">
        <ele>290.46</ele>
        <time>2014-07-06T10:49:47Z</time>
      </trkpt>
      <trkpt lat="46.81408" lon="4.60339">
        <ele>291.42</ele>
        <time>2014-07-06T10:50:05Z</time>
      </trkpt>
      <trkpt lat="46.81402" lon="4.60343">
        <ele>291.42</ele>
        <time>2014-07-06T10:50:09Z</time>
      </trkpt>
      <trkpt lat="46.8139" lon="4.60351">
        <ele>291.42</ele>
        <time>2014-07-06T10:50:24Z</time>
      </trkpt>
      <trkpt lat="46.8138" lon="4.60369">
        <ele>290.94</ele>
        <time>2014-07-06T10:50:43Z</time>
      </trkpt>
      <trkpt lat="46.81375" lon="4.60386">
        <ele>289.97</ele>
        <time>2014-07-06T10:50:46Z</time>
      </trkpt>
      <trkpt lat="46.81359" lon="4.60498">
        <ele>288.53</ele>
        <time>2014-07-06T10:51:00Z</time>
      </trkpt>
      <trkpt lat="46.81339" lon="4.60566">
        <ele>290.94</ele>
        <time>2014-07-06T10:51:13Z</time>
      </trkpt>
      <trkpt lat="46.8132" lon="4.60593">
        <ele>293.82</ele>
        <time>2014-07-06T10:51:27Z</time>
      </trkpt>
      <trkpt lat="46.81298" lon="4.60617">
        <ele>296.22</ele>
        <time>2014-07-06T10:51:43Z</time>
      </trkpt>
      <trkpt lat="46.81272" lon="4.60637">
        <ele>298.15</ele>
        <time>2014-07-06T10:52:01Z</time>
      </trkpt>
      <trkpt lat="46.81248" lon="4.60652">
        <ele>300.07</ele>
        <time>2014-07-06T10:52:18Z</time>
      </trkpt>
      <trkpt lat="46.81223" lon="4.60667">
        <ele>301.99</ele>
        <time>2014-07-06T10:52:35Z</time>
      </trkpt>
      <trkpt lat="46.81197" lon="4.60678">
        <ele>304.88</ele>
        <time>2014-07-06T10:52:52Z</time>
      </trkpt>
      <trkpt lat="46.81179" lon="4.60679">
        <ele>306.8</ele>
        <time>2014-07-06T10:53:06Z</time>
      </trkpt>
      <trkpt lat="46.81153" lon="4.60668">
        <ele>309.2</ele>
        <time>2014-07-06T10:53:22Z</time>
      </trkpt>
      <trkpt lat="46.81125" lon="4.60658">
        <ele>311.12</ele>
        <time>2014-07-06T10:53:39Z</time>
      </trkpt>
      <trkpt lat="46.81106" lon="4.60649">
        <ele>312.57</ele>
        <time>2014-07-06T10:53:51Z</time>
      </trkpt>
      <trkpt lat="46.8108" lon="4.60628">
        <ele>315.45</ele>
        <time>2014-07-06T10:54:08Z</time>
      </trkpt>
      <trkpt lat="46.81064" lon="4.60591">
        <ele>317.85</ele>
        <time>2014-07-06T10:54:24Z</time>
      </trkpt>
      <trkpt lat="46.81053" lon="4.60549">
        <ele>319.78</ele>
        <time>2014-07-06T10:54:42Z</time>
      </trkpt>
      <trkpt lat="46.81044" lon="4.60509">
        <ele>322.18</ele>
        <time>2014-07-06T10:54:59Z</time>
      </trkpt>
      <trkpt lat="46.81033" lon="4.60467">
        <ele>324.58</ele>
        <time>2014-07-06T10:55:17Z</time>
      </trkpt>
      <trkpt lat="46.81021" lon="4.60433">
        <ele>326.5</ele>
        <time>2014-07-06T10:55:33Z</time>
      </trkpt>
      <trkpt lat="46.81002" lon="4.604">
        <ele>328.91</ele>
        <time>2014-07-06T10:55:49Z</time>
      </trkpt>
      <trkpt lat="46.80985" lon="4.60369">
        <ele>331.31</ele>
        <time>2014-07-06T10:56:05Z</time>
      </trkpt>
      <trkpt lat="46.80964" lon="4.60334">
        <ele>333.71</ele>
        <time>2014-07-06T10:56:23Z</time>
      </trkpt>
      <trkpt lat="46.80944" lon="4.60306">
        <ele>336.12</ele>
        <time>2014-07-06T10:56:39Z</time>
      </trkpt>
      <trkpt lat="46.80924" lon="4.60281">
        <ele>337.56</ele>
        <time>2014-07-06T10:56:56Z</time>
      </trkpt>
      <trkpt lat="46.80899" lon="4.6026">
        <ele>341.41</ele>
        <time>2014-07-06T10:57:13Z</time>
      </trkpt>
      <trkpt lat="46.80865" lon="4.60239">
        <ele>342.37</ele>
        <time>2014-07-06T10:57:33Z</time>
      </trkpt>
      <trkpt lat="46.80831" lon="4.60215">
        <ele>344.77</ele>
        <time>2014-07-06T10:57:53Z</time>
      </trkpt>
      <trkpt lat="46.8081" lon="4.60196">
        <ele>346.21</ele>
        <time>2014-07-06T10:58:06Z</time>
      </trkpt>
      <trkpt lat="46.80783" lon="4.60171">
        <ele>348.62</ele>
        <time>2014-07-06T10:58:24Z</time>
      </trkpt>
      <trkpt lat="46.80759" lon="4.60152">
        <ele>350.54</ele>
        <time>2014-07-06T10:58:40Z</time>
      </trkpt>
      <trkpt lat="46.80728" lon="4.60128">
        <ele>353.42</ele>
        <time>2014-07-06T10:58:59Z</time>
      </trkpt>
      <trkpt lat="46.80703" lon="4.60112">
        <ele>356.31</ele>
        <time>2014-07-06T10:59:13Z</time>
      </trkpt>
      <trkpt lat="46.80669" lon="4.60103">
        <ele>356.79</ele>
        <time>2014-07-06T10:59:31Z</time>
      </trkpt>
      <trkpt lat="46.8064" lon="4.60116">
        <ele>358.23</ele>
        <time>2014-07-06T10:59:46Z</time>
      </trkpt>
      <trkpt lat="46.80608" lon="4.60139">
        <ele>360.63</ele>
        <time>2014-07-06T11:00:05Z</time>
      </trkpt>
      <trkpt lat="46.80579" lon="4.60157">
        <ele>362.55</ele>
        <time>2014-07-06T11:00:22Z</time>
      </trkpt>
      <trkpt lat="46.8055" lon="4.60173">
        <ele>364.48</ele>
        <time>2014-07-06T11:00:38Z</time>
      </trkpt>
      <trkpt lat="46.80529" lon="4.60201">
        <ele>366.4</ele>
        <time>2014-07-06T11:00:52Z</time>
      </trkpt>
      <trkpt lat="46.80508" lon="4.60248">
        <ele>368.32</ele>
        <time>2014-07-06T11:01:10Z</time>
      </trkpt>
      <trkpt lat="46.80502" lon="4.60288">
        <ele>370.73</ele>
        <time>2014-07-06T11:01:26Z</time>
      </trkpt>
      <trkpt lat="46.80501" lon="4.60333">
        <ele>372.65</ele>
        <time>2014-07-06T11:01:43Z</time>
      </trkpt>
      <trkpt lat="46.80491" lon="4.60377">
        <ele>374.57</ele>
        <time>2014-07-06T11:01:59Z</time>
      </trkpt>
      <trkpt lat="46.80481" lon="4.60402">
        <ele>376.01</ele>
        <time>2014-07-06T11:02:12Z</time>
      </trkpt>
      <trkpt lat="46.80452" lon="4.60415">
        <ele>378.42</ele>
        <time>2014-07-06T11:02:28Z</time>
      </trkpt>
      <trkpt lat="46.80423" lon="4.60406">
        <ele>378.9</ele>
        <time>2014-07-06T11:02:41Z</time>
      </trkpt>
      <trkpt lat="46.804" lon="4.6037">
        <ele>380.82</ele>
        <time>2014-07-06T11:02:58Z</time>
      </trkpt>
      <trkpt lat="46.80376" lon="4.60341">
        <ele>382.26</ele>
        <time>2014-07-06T11:03:14Z</time>
      </trkpt>
      <trkpt lat="46.8034" lon="4.60308">
        <ele>384.18</ele>
        <time>2014-07-06T11:03:33Z</time>
      </trkpt>
      <trkpt lat="46.80303" lon="4.60291">
        <ele>385.15</ele>
        <time>2014-07-06T11:03:51Z</time>
      </trkpt>
      <trkpt lat="46.80269" lon="4.60284">
        <ele>385.63</ele>
        <time>2014-07-06T11:04:07Z</time>
      </trkpt>
      <trkpt lat="46.80245" lon="4.6026">
        <ele>385.15</ele>
        <time>2014-07-06T11:04:21Z</time>
      </trkpt>
      <trkpt lat="46.80245" lon="4.6026">
        <ele>385.15</ele>
        <time>2014-07-06T11:04:37Z</time>
      </trkpt>
      <trkpt lat="46.80245" lon="4.60261">
        <ele>385.15</ele>
        <time>2014-07-06T11:05:12Z</time>
      </trkpt>
      <trkpt lat="46.80244" lon="4.60261">
        <ele>385.15</ele>
        <time>2014-07-06T11:05:54Z</time>
      </trkpt>
      <trkpt lat="46.80244" lon="4.6026">
        <ele>385.15</ele>
        <time>2014-07-06T11:06:32Z</time>
      </trkpt>
      <trkpt lat="46.80244" lon="4.6026">
        <ele>385.63</ele>
        <time>2014-07-06T11:07:07Z</time>
      </trkpt>
      <trkpt lat="46.80244" lon="4.6026">
        <ele>385.63</ele>
        <time>2014-07-06T11:07:48Z</time>
      </trkpt>
      <trkpt lat="46.80244" lon="4.6026">
        <ele>385.63</ele>
        <time>2014-07-06T11:08:24Z</time>
      </trkpt>
      <trkpt lat="46.80244" lon="4.60261">
        <ele>386.11</ele>
        <time>2014-07-06T11:09:03Z</time>
      </trkpt>
      <trkpt lat="46.80245" lon="4.60261">
        <ele>386.11</ele>
        <time>2014-07-06T11:09:41Z</time>
      </trkpt>
      <trkpt lat="46.80245" lon="4.60258">
        <ele>386.11</ele>
        <time>2014-07-06T11:10:12Z</time>
      </trkpt>
      <trkpt lat="46.80245" lon="4.6026">
        <ele>386.59</ele>
        <time>2014-07-06T11:10:54Z</time>
      </trkpt>
      <trkpt lat="46.80246" lon="4.6026">
        <ele>386.59</ele>
        <time>2014-07-06T11:11:38Z</time>
      </trkpt>
      <trkpt lat="46.80246" lon="4.60259">
        <ele>386.59</ele>
        <time>2014-07-06T11:12:27Z</time>
      </trkpt>
      <trkpt lat="46.80245" lon="4.6026">
        <ele>386.59</ele>
        <time>2014-07-06T11:13:11Z</time>
      </trkpt>
      <trkpt lat="46.80244" lon="4.60259">
        <ele>386.59</ele>
        <time>2014-07-06T11:13:30Z</time>
      </trkpt>
      <trkpt lat="46.80243" lon="4.60247">
        <ele>386.11</ele>
        <time>2014-07-06T11:13:35Z</time>
      </trkpt>
      <trkpt lat="46.80225" lon="4.60194">
        <ele>385.15</ele>
        <time>2014-07-06T11:13:50Z</time>
      </trkpt>
      <trkpt lat="46.80212" lon="4.60166">
        <ele>385.15</ele>
        <time>2014-07-06T11:13:56Z</time>
      </trkpt>
      <trkpt lat="46.80144" lon="4.60116">
        <ele>384.66</ele>
        <time>2014-07-06T11:14:15Z</time>
      </trkpt>
      <trkpt lat="46.80099" lon="4.60088">
        <ele>384.66</ele>
        <time>2014-07-06T11:14:29Z</time>
      </trkpt>
      <trkpt lat="46.8005" lon="4.60064">
        <ele>384.66</ele>
        <time>2014-07-06T11:14:45Z</time>
      </trkpt>
      <trkpt lat="46.80032" lon="4.60038">
        <ele>384.66</ele>
        <time>2014-07-06T11:14:58Z</time>
      </trkpt>
      <trkpt lat="46.80021" lon="4.59978">
        <ele>384.18</ele>
        <time>2014-07-06T11:15:14Z</time>
      </trkpt>
      <trkpt lat="46.80016" lon="4.59975">
        <ele>383.7</ele>
        <time>2014-07-06T11:15:27Z</time>
      </trkpt>
      <trkpt lat="46.80018" lon="4.59977">
        <ele>383.7</ele>
        <time>2014-07-06T11:15:42Z</time>
      </trkpt>
      <trkpt lat="46.80018" lon="4.59977">
        <ele>384.18</ele>
        <time>2014-07-06T11:16:09Z</time>
      </trkpt>
      <trkpt lat="46.80017" lon="4.59977">
        <ele>384.18</ele>
        <time>2014-07-06T11:16:43Z</time>
      </trkpt>
      <trkpt lat="46.80017" lon="4.59977">
        <ele>384.18</ele>
        <time>2014-07-06T11:17:07Z</time>
      </trkpt>
      <trkpt lat="46.80016" lon="4.59977">
        <ele>383.7</ele>
        <time>2014-07-06T11:17:24Z</time>
      </trkpt>
      <trkpt lat="46.80017" lon="4.59978">
        <ele>384.66</ele>
        <time>2014-07-06T11:17:53Z</time>
      </trkpt>
      <trkpt lat="46.80019" lon="4.59977">
        <ele>383.7</ele>
        <time>2014-07-06T11:18:19Z</time>
      </trkpt>
      <trkpt lat="46.80019" lon="4.59978">
        <ele>384.18</ele>
        <time>2014-07-06T11:18:50Z</time>
      </trkpt>
      <trkpt lat="46.8002" lon="4.59981">
        <ele>383.7</ele>
        <time>2014-07-06T11:19:20Z</time>
      </trkpt>
      <trkpt lat="46.80019" lon="4.59977">
        <ele>384.18</ele>
        <time>2014-07-06T11:19:49Z</time>
      </trkpt>
      <trkpt lat="46.80022" lon="4.59982">
        <ele>384.66</ele>
        <time>2014-07-06T11:20:05Z</time>
      </trkpt>
      <trkpt lat="46.80022" lon="4.59981">
        <ele>383.7</ele>
        <time>2014-07-06T11:20:32Z</time>
      </trkpt>
      <trkpt lat="46.80021" lon="4.5998">
        <ele>384.18</ele>
        <time>2014-07-06T11:21:02Z</time>
      </trkpt>
      <trkpt lat="46.80021" lon="4.59981">
        <ele>384.18</ele>
        <time>2014-07-06T11:21:03Z</time>
      </trkpt>
      <trkpt lat="46.80046" lon="4.59966">
        <ele>383.22</ele>
        <time>2014-07-06T11:21:17Z</time>
      </trkpt>
      <trkpt lat="46.80057" lon="4.59923">
        <ele>379.38</ele>
        <time>2014-07-06T11:21:25Z</time>
      </trkpt>
      <trkpt lat="46.8005" lon="4.59888">
        <ele>376.49</ele>
        <time>2014-07-06T11:21:31Z</time>
      </trkpt>
      <trkpt lat="46.80049" lon="4.59881">
        <ele>375.53</ele>
        <time>2014-07-06T11:21:32Z</time>
      </trkpt>
      <trkpt lat="46.80057" lon="4.59852">
        <ele>373.13</ele>
        <time>2014-07-06T11:21:36Z</time>
      </trkpt>
      <trkpt lat="46.80073" lon="4.59821">
        <ele>371.69</ele>
        <time>2014-07-06T11:21:40Z</time>
      </trkpt>
      <trkpt lat="46.80079" lon="4.59802">
        <ele>370.73</ele>
        <time>2014-07-06T11:21:42Z</time>
      </trkpt>
      <trkpt lat="46.80081" lon="4.59759">
        <ele>368.8</ele>
        <time>2014-07-06T11:21:46Z</time>
      </trkpt>
      <trkpt lat="46.80077" lon="4.59727">
        <ele>367.84</ele>
        <time>2014-07-06T11:21:49Z</time>
      </trkpt>
      <trkpt lat="46.80074" lon="4.59701">
        <ele>367.36</ele>
        <time>2014-07-06T11:21:52Z</time>
      </trkpt>
      <trkpt lat="46.80073" lon="4.5963">
        <ele>364.48</ele>
        <time>2014-07-06T11:22:01Z</time>
      </trkpt>
      <trkpt lat="46.80068" lon="4.59574">
        <ele>361.11</ele>
        <time>2014-07-06T11:22:08Z</time>
      </trkpt>
      <trkpt lat="46.80063" lon="4.59535">
        <ele>358.23</ele>
        <time>2014-07-06T11:22:13Z</time>
      </trkpt>
      <trkpt lat="46.80049" lon="4.59496">
        <ele>354.38</ele>
        <time>2014-07-06T11:22:17Z</time>
      </trkpt>
      <trkpt lat="46.8004" lon="4.59471">
        <ele>353.42</ele>
        <time>2014-07-06T11:22:19Z</time>
      </trkpt>
      <trkpt lat="46.8001" lon="4.59349">
        <ele>349.58</ele>
        <time>2014-07-06T11:22:29Z</time>
      </trkpt>
      <trkpt lat="46.80004" lon="4.59327">
        <ele>349.1</ele>
        <time>2014-07-06T11:22:31Z</time>
      </trkpt>
      <trkpt lat="46.79993" lon="4.59263">
        <ele>344.77</ele>
        <time>2014-07-06T11:22:36Z</time>
      </trkpt>
      <trkpt lat="46.79987" lon="4.59237">
        <ele>343.81</ele>
        <time>2014-07-06T11:22:38Z</time>
      </trkpt>
      <trkpt lat="46.79938" lon="4.59118">
        <ele>340.92</ele>
        <time>2014-07-06T11:22:49Z</time>
      </trkpt>
      <trkpt lat="46.79898" lon="4.59038">
        <ele>338.04</ele>
        <time>2014-07-06T11:22:57Z</time>
      </trkpt>
      <trkpt lat="46.79879" lon="4.58985">
        <ele>335.64</ele>
        <time>2014-07-06T11:23:02Z</time>
      </trkpt>
      <trkpt lat="46.79862" lon="4.58946">
        <ele>334.2</ele>
        <time>2014-07-06T11:23:06Z</time>
      </trkpt>
      <trkpt lat="46.79797" lon="4.58853">
        <ele>331.31</ele>
        <time>2014-07-06T11:23:18Z</time>
      </trkpt>
      <trkpt lat="46.79776" lon="4.58813">
        <ele>329.39</ele>
        <time>2014-07-06T11:23:23Z</time>
      </trkpt>
      <trkpt lat="46.79754" lon="4.58761">
        <ele>326.5</ele>
        <time>2014-07-06T11:23:29Z</time>
      </trkpt>
      <trkpt lat="46.79741" lon="4.58717">
        <ele>323.14</ele>
        <time>2014-07-06T11:23:33Z</time>
      </trkpt>
      <trkpt lat="46.79737" lon="4.58705">
        <ele>322.66</ele>
        <time>2014-07-06T11:23:34Z</time>
      </trkpt>
      <trkpt lat="46.79726" lon="4.58681">
        <ele>321.7</ele>
        <time>2014-07-06T11:23:36Z</time>
      </trkpt>
      <trkpt lat="46.79672" lon="4.58647">
        <ele>319.78</ele>
        <time>2014-07-06T11:23:42Z</time>
      </trkpt>
      <trkpt lat="46.79632" lon="4.58623">
        <ele>323.14</ele>
        <time>2014-07-06T11:23:51Z</time>
      </trkpt>
      <trkpt lat="46.79631" lon="4.5862">
        <ele>323.62</ele>
        <time>2014-07-06T11:23:52Z</time>
      </trkpt>
      <trkpt lat="46.79613" lon="4.58583">
        <ele>326.02</ele>
        <time>2014-07-06T11:24:07Z</time>
      </trkpt>
      <trkpt lat="46.79589" lon="4.58533">
        <ele>326.99</ele>
        <time>2014-07-06T11:24:25Z</time>
      </trkpt>
      <trkpt lat="46.79553" lon="4.58469">
        <ele>328.43</ele>
        <time>2014-07-06T11:24:47Z</time>
      </trkpt>
      <trkpt lat="46.79535" lon="4.58442">
        <ele>328.91</ele>
        <time>2014-07-06T11:25:02Z</time>
      </trkpt>
      <trkpt lat="46.79537" lon="4.58441">
        <ele>328.91</ele>
        <time>2014-07-06T11:25:34Z</time>
      </trkpt>
      <trkpt lat="46.79537" lon="4.58441">
        <ele>327.95</ele>
        <time>2014-07-06T11:26:03Z</time>
      </trkpt>
      <trkpt lat="46.79538" lon="4.5844">
        <ele>328.91</ele>
        <time>2014-07-06T11:26:39Z</time>
      </trkpt>
      <trkpt lat="46.79529" lon="4.58429">
        <ele>327.95</ele>
        <time>2014-07-06T11:27:18Z</time>
      </trkpt>
      <trkpt lat="46.79514" lon="4.58397">
        <ele>329.39</ele>
        <time>2014-07-06T11:27:31Z</time>
      </trkpt>
      <trkpt lat="46.79496" lon="4.58354">
        <ele>330.35</ele>
        <time>2014-07-06T11:27:47Z</time>
      </trkpt>
      <trkpt lat="46.7948" lon="4.58319">
        <ele>331.79</ele>
        <time>2014-07-06T11:28:01Z</time>
      </trkpt>
      <trkpt lat="46.79466" lon="4.58287">
        <ele>333.71</ele>
        <time>2014-07-06T11:28:16Z</time>
      </trkpt>
      <trkpt lat="46.79461" lon="4.58278">
        <ele>334.2</ele>
        <time>2014-07-06T11:28:21Z</time>
      </trkpt>
      <trkpt lat="46.79442" lon="4.58243">
        <ele>336.12</ele>
        <time>2014-07-06T11:28:39Z</time>
      </trkpt>
      <trkpt lat="46.79423" lon="4.58212">
        <ele>337.56</ele>
        <time>2014-07-06T11:28:55Z</time>
      </trkpt>
      <trkpt lat="46.79416" lon="4.58208">
        <ele>337.56</ele>
        <time>2014-07-06T11:29:04Z</time>
      </trkpt>
      <trkpt lat="46.79412" lon="4.58203">
        <ele>337.56</ele>
        <time>2014-07-06T11:29:08Z</time>
      </trkpt>
      <trkpt lat="46.79369" lon="4.58193">
        <ele>337.08</ele>
        <time>2014-07-06T11:29:26Z</time>
      </trkpt>
      <trkpt lat="46.79326" lon="4.58223">
        <ele>336.12</ele>
        <time>2014-07-06T11:29:40Z</time>
      </trkpt>
      <trkpt lat="46.7928" lon="4.58235">
        <ele>336.6</ele>
        <time>2014-07-06T11:29:55Z</time>
      </trkpt>
      <trkpt lat="46.7924" lon="4.58258">
        <ele>338.52</ele>
        <time>2014-07-06T11:30:12Z</time>
      </trkpt>
      <trkpt lat="46.79204" lon="4.58252">
        <ele>339.96</ele>
        <time>2014-07-06T11:30:27Z</time>
      </trkpt>
      <trkpt lat="46.79166" lon="4.58238">
        <ele>341.41</ele>
        <time>2014-07-06T11:30:43Z</time>
      </trkpt>
      <trkpt lat="46.7913" lon="4.58218">
        <ele>342.37</ele>
        <time>2014-07-06T11:31:00Z</time>
      </trkpt>
      <trkpt lat="46.79088" lon="4.58203">
        <ele>343.33</ele>
        <time>2014-07-06T11:31:18Z</time>
      </trkpt>
      <trkpt lat="46.79055" lon="4.58189">
        <ele>344.29</ele>
        <time>2014-07-06T11:31:33Z</time>
      </trkpt>
      <trkpt lat="46.79005" lon="4.58161">
        <ele>344.29</ele>
        <time>2014-07-06T11:31:51Z</time>
      </trkpt>
      <trkpt lat="46.78962" lon="4.58161">
        <ele>344.77</ele>
        <time>2014-07-06T11:32:07Z</time>
      </trkpt>
      <trkpt lat="46.78927" lon="4.58188">
        <ele>346.21</ele>
        <time>2014-07-06T11:32:23Z</time>
      </trkpt>
      <trkpt lat="46.789" lon="4.58203">
        <ele>347.65</ele>
        <time>2014-07-06T11:32:39Z</time>
      </trkpt>
      <trkpt lat="46.7888" lon="4.58212">
        <ele>349.1</ele>
        <time>2014-07-06T11:32:53Z</time>
      </trkpt>
      <trkpt lat="46.78856" lon="4.58223">
        <ele>351.02</ele>
        <time>2014-07-06T11:33:08Z</time>
      </trkpt>
      <trkpt lat="46.78837" lon="4.58234">
        <ele>352.46</ele>
        <time>2014-07-06T11:33:21Z</time>
      </trkpt>
      <trkpt lat="46.78797" lon="4.58239">
        <ele>355.34</ele>
        <time>2014-07-06T11:33:41Z</time>
      </trkpt>
      <trkpt lat="46.78756" lon="4.58239">
        <ele>357.27</ele>
        <time>2014-07-06T11:34:01Z</time>
      </trkpt>
      <trkpt lat="46.78723" lon="4.58234">
        <ele>360.15</ele>
        <time>2014-07-06T11:34:18Z</time>
      </trkpt>
      <trkpt lat="46.78688" lon="4.58225">
        <ele>361.11</ele>
        <time>2014-07-06T11:34:35Z</time>
      </trkpt>
      <trkpt lat="46.78646" lon="4.58219">
        <ele>360.15</ele>
        <time>2014-07-06T11:34:53Z</time>
      </trkpt>
      <trkpt lat="46.78587" lon="4.58235">
        <ele>357.75</ele>
        <time>2014-07-06T11:35:08Z</time>
      </trkpt>
      <trkpt lat="46.78514" lon="4.58232">
        <ele>356.31</ele>
        <time>2014-07-06T11:35:21Z</time>
      </trkpt>
      <trkpt lat="46.78449" lon="4.58227">
        <ele>357.27</ele>
        <time>2014-07-06T11:35:36Z</time>
      </trkpt>
      <trkpt lat="46.78419" lon="4.58221">
        <ele>357.27</ele>
        <time>2014-07-06T11:35:44Z</time>
      </trkpt>
      <trkpt lat="46.78396" lon="4.58207">
        <ele>357.27</ele>
        <time>2014-07-06T11:35:50Z</time>
      </trkpt>
      <trkpt lat="46.78381" lon="4.58195">
        <ele>356.79</ele>
        <time>2014-07-06T11:35:54Z</time>
      </trkpt>
      <trkpt lat="46.78369" lon="4.58185">
        <ele>356.31</ele>
        <time>2014-07-06T11:35:57Z</time>
      </trkpt>
      <trkpt lat="46.78345" lon="4.58162">
        <ele>355.34</ele>
        <time>2014-07-06T11:36:03Z</time>
      </trkpt>
      <trkpt lat="46.78335" lon="4.58155">
        <ele>354.86</ele>
        <time>2014-07-06T11:36:05Z</time>
      </trkpt>
      <trkpt lat="46.78311" lon="4.58147">
        <ele>352.94</ele>
        <time>2014-07-06T11:36:09Z</time>
      </trkpt>
      <trkpt lat="46.78288" lon="4.58137">
        <ele>352.46</ele>
        <time>2014-07-06T11:36:13Z</time>
      </trkpt>
      <trkpt lat="46.78249" lon="4.581">
        <ele>350.54</ele>
        <time>2014-07-06T11:36:21Z</time>
      </trkpt>
      <trkpt lat="46.78222" lon="4.58072">
        <ele>351.5</ele>
        <time>2014-07-06T11:36:27Z</time>
      </trkpt>
      <trkpt lat="46.78175" lon="4.58024">
        <ele>349.1</ele>
        <time>2014-07-06T11:36:38Z</time>
      </trkpt>
      <trkpt lat="46.78157" lon="4.57984">
        <ele>349.1</ele>
        <time>2014-07-06T11:36:49Z</time>
      </trkpt>
      <trkpt lat="46.78157" lon="4.57982">
        <ele>350.06</ele>
        <time>2014-07-06T11:37:03Z</time>
      </trkpt>
      <trkpt lat="46.78147" lon="4.5797">
        <ele>348.62</ele>
        <time>2014-07-06T11:37:21Z</time>
      </trkpt>
      <trkpt lat="46.78122" lon="4.57943">
        <ele>345.73</ele>
        <time>2014-07-06T11:37:30Z</time>
      </trkpt>
      <trkpt lat="46.78071" lon="4.57895">
        <ele>342.85</ele>
        <time>2014-07-06T11:37:42Z</time>
      </trkpt>
      <trkpt lat="46.78001" lon="4.57861">
        <ele>339.96</ele>
        <time>2014-07-06T11:37:53Z</time>
      </trkpt>
      <trkpt lat="46.77966" lon="4.57838">
        <ele>336.6</ele>
        <time>2014-07-06T11:37:59Z</time>
      </trkpt>
      <trkpt lat="46.7796" lon="4.57833">
        <ele>336.6</ele>
        <time>2014-07-06T11:38:00Z</time>
      </trkpt>
      <trkpt lat="46.77949" lon="4.57824">
        <ele>335.64</ele>
        <time>2014-07-06T11:38:02Z</time>
      </trkpt>
      <trkpt lat="46.7792" lon="4.578">
        <ele>331.79</ele>
        <time>2014-07-06T11:38:07Z</time>
      </trkpt>
      <trkpt lat="46.77889" lon="4.57777">
        <ele>328.91</ele>
        <time>2014-07-06T11:38:12Z</time>
      </trkpt>
      <trkpt lat="46.77861" lon="4.57758">
        <ele>325.54</ele>
        <time>2014-07-06T11:38:17Z</time>
      </trkpt>
      <trkpt lat="46.7785" lon="4.5775">
        <ele>324.58</ele>
        <time>2014-07-06T11:38:19Z</time>
      </trkpt>
      <trkpt lat="46.77833" lon="4.57738">
        <ele>323.14</ele>
        <time>2014-07-06T11:38:22Z</time>
      </trkpt>
      <trkpt lat="46.77807" lon="4.57698">
        <ele>320.26</ele>
        <time>2014-07-06T11:38:27Z</time>
      </trkpt>
      <trkpt lat="46.77776" lon="4.57631">
        <ele>316.41</ele>
        <time>2014-07-06T11:38:34Z</time>
      </trkpt>
      <trkpt lat="46.7775" lon="4.57579">
        <ele>313.53</ele>
        <time>2014-07-06T11:38:40Z</time>
      </trkpt>
      <trkpt lat="46.77731" lon="4.57539">
        <ele>312.09</ele>
        <time>2014-07-06T11:38:45Z</time>
      </trkpt>
      <trkpt lat="46.77699" lon="4.57465">
        <ele>308.72</ele>
        <time>2014-07-06T11:38:55Z</time>
      </trkpt>
      <trkpt lat="46.77694" lon="4.57452">
        <ele>307.76</ele>
        <time>2014-07-06T11:38:57Z</time>
      </trkpt>
      <trkpt lat="46.77689" lon="4.5744">
        <ele>307.28</ele>
        <time>2014-07-06T11:38:59Z</time>
      </trkpt>
      <trkpt lat="46.77682" lon="4.57415">
        <ele>305.84</ele>
        <time>2014-07-06T11:39:03Z</time>
      </trkpt>
      <trkpt lat="46.77676" lon="4.5739">
        <ele>303.91</ele>
        <time>2014-07-06T11:39:07Z</time>
      </trkpt>
      <trkpt lat="46.77666" lon="4.5735">
        <ele>300.55</ele>
        <time>2014-07-06T11:39:13Z</time>
      </trkpt>
      <trkpt lat="46.77654" lon="4.57297">
        <ele>297.67</ele>
        <time>2014-07-06T11:39:25Z</time>
      </trkpt>
      <trkpt lat="46.77623" lon="4.57265">
        <ele>296.22</ele>
        <time>2014-07-06T11:39:33Z</time>
      </trkpt>
      <trkpt lat="46.77577" lon="4.57254">
        <ele>295.26</ele>
        <time>2014-07-06T11:39:42Z</time>
      </trkpt>
      <trkpt lat="46.77535" lon="4.57214">
        <ele>296.7</ele>
        <time>2014-07-06T11:39:56Z</time>
      </trkpt>
      <trkpt lat="46.77509" lon="4.5719">
        <ele>298.63</ele>
        <time>2014-07-06T11:40:11Z</time>
      </trkpt>
      <trkpt lat="46.77478" lon="4.57174">
        <ele>301.03</ele>
        <time>2014-07-06T11:40:31Z</time>
      </trkpt>
      <trkpt lat="46.77456" lon="4.57149">
        <ele>303.43</ele>
        <time>2014-07-06T11:40:50Z</time>
      </trkpt>
      <trkpt lat="46.77442" lon="4.57115">
        <ele>306.32</ele>
        <time>2014-07-06T11:41:08Z</time>
      </trkpt>
      <trkpt lat="46.77434" lon="4.57081">
        <ele>309.2</ele>
        <time>2014-07-06T11:41:25Z</time>
      </trkpt>
      <trkpt lat="46.77429" lon="4.57051">
        <ele>311.6</ele>
        <time>2014-07-06T11:41:40Z</time>
      </trkpt>
      <trkpt lat="46.77429" lon="4.5701">
        <ele>314.49</ele>
        <time>2014-07-06T11:41:59Z</time>
      </trkpt>
      <trkpt lat="46.7743" lon="4.56995">
        <ele>314.97</ele>
        <time>2014-07-06T11:42:06Z</time>
      </trkpt>
      <trkpt lat="46.77433" lon="4.56962">
        <ele>317.37</ele>
        <time>2014-07-06T11:42:22Z</time>
      </trkpt>
      <trkpt lat="46.77435" lon="4.56928">
        <ele>319.78</ele>
        <time>2014-07-06T11:42:37Z</time>
      </trkpt>
      <trkpt lat="46.77424" lon="4.569">
        <ele>322.18</ele>
        <time>2014-07-06T11:42:52Z</time>
      </trkpt>
      <trkpt lat="46.7741" lon="4.56875">
        <ele>325.06</ele>
        <time>2014-07-06T11:43:08Z</time>
      </trkpt>
      <trkpt lat="46.77404" lon="4.56864">
        <ele>326.02</ele>
        <time>2014-07-06T11:43:16Z</time>
      </trkpt>
      <trkpt lat="46.77397" lon="4.56852">
        <ele>327.95</ele>
        <time>2014-07-06T11:43:27Z</time>
      </trkpt>
      <trkpt lat="46.77393" lon="4.56844">
        <ele>328.43</ele>
        <time>2014-07-06T11:43:33Z</time>
      </trkpt>
      <trkpt lat="46.77392" lon="4.56843">
        <ele>330.35</ele>
        <time>2014-07-06T11:43:35Z</time>
      </trkpt>
      <trkpt lat="46.77378" lon="4.56827">
        <ele>331.79</ele>
        <time>2014-07-06T11:43:50Z</time>
      </trkpt>
      <trkpt lat="46.77371" lon="4.56818">
        <ele>333.71</ele>
        <time>2014-07-06T11:43:59Z</time>
      </trkpt>
      <trkpt lat="46.77366" lon="4.56816">
        <ele>334.2</ele>
        <time>2014-07-06T11:44:04Z</time>
      </trkpt>
      <trkpt lat="46.7735" lon="4.56799">
        <ele>337.08</ele>
        <time>2014-07-06T11:44:20Z</time>
      </trkpt>
      <trkpt lat="46.77338" lon="4.56785">
        <ele>339.96</ele>
        <time>2014-07-06T11:44:33Z</time>
      </trkpt>
      <trkpt lat="46.7733" lon="4.56769">
        <ele>340.44</ele>
        <time>2014-07-06T11:44:43Z</time>
      </trkpt>
      <trkpt lat="46.77319" lon="4.56744">
        <ele>341.89</ele>
        <time>2014-07-06T11:44:58Z</time>
      </trkpt>
      <trkpt lat="46.77319" lon="4.56742">
        <ele>341.89</ele>
        <time>2014-07-06T11:45:10Z</time>
      </trkpt>
      <trkpt lat="46.77319" lon="4.56744">
        <ele>341.89</ele>
        <time>2014-07-06T11:45:49Z</time>
      </trkpt>
      <trkpt lat="46.77318" lon="4.56744">
        <ele>342.37</ele>
        <time>2014-07-06T11:46:13Z</time>
      </trkpt>
      <trkpt lat="46.77319" lon="4.56743">
        <ele>342.37</ele>
        <time>2014-07-06T11:46:44Z</time>
      </trkpt>
      <trkpt lat="46.77318" lon="4.56742">
        <ele>342.37</ele>
        <time>2014-07-06T11:47:20Z</time>
      </trkpt>
      <trkpt lat="46.77318" lon="4.56745">
        <ele>342.85</ele>
        <time>2014-07-06T11:47:59Z</time>
      </trkpt>
      <trkpt lat="46.77317" lon="4.56745">
        <ele>342.85</ele>
        <time>2014-07-06T11:48:39Z</time>
      </trkpt>
      <trkpt lat="46.77315" lon="4.56744">
        <ele>342.85</ele>
        <time>2014-07-06T11:49:12Z</time>
      </trkpt>
      <trkpt lat="46.77315" lon="4.56746">
        <ele>342.85</ele>
        <time>2014-07-06T11:49:45Z</time>
      </trkpt>
      <trkpt lat="46.77318" lon="4.56744">
        <ele>342.85</ele>
        <time>2014-07-06T11:50:18Z</time>
      </trkpt>
      <trkpt lat="46.77318" lon="4.56743">
        <ele>341.89</ele>
        <time>2014-07-06T11:50:48Z</time>
      </trkpt>
      <trkpt lat="46.77319" lon="4.56744">
        <ele>342.85</ele>
        <time>2014-07-06T11:51:26Z</time>
      </trkpt>
      <trkpt lat="46.77317" lon="4.56743">
        <ele>342.37</ele>
        <time>2014-07-06T11:51:57Z</time>
      </trkpt>
      <trkpt lat="46.77318" lon="4.56744">
        <ele>342.85</ele>
        <time>2014-07-06T11:52:22Z</time>
      </trkpt>
      <trkpt lat="46.7732" lon="4.56744">
        <ele>342.37</ele>
        <time>2014-07-06T11:53:10Z</time>
      </trkpt>
      <trkpt lat="46.77319" lon="4.56744">
        <ele>342.85</ele>
        <time>2014-07-06T11:53:46Z</time>
      </trkpt>
      <trkpt lat="46.77319" lon="4.56743">
        <ele>341.89</ele>
        <time>2014-07-06T11:54:25Z</time>
      </trkpt>
      <trkpt lat="46.7732" lon="4.56743">
        <ele>342.37</ele>
        <time>2014-07-06T11:55:14Z</time>
      </trkpt>
      <trkpt lat="46.77319" lon="4.56743">
        <ele>341.89</ele>
        <time>2014-07-06T11:55:59Z</time>
      </trkpt>
      <trkpt lat="46.77319" lon="4.56744">
        <ele>342.37</ele>
        <time>2014-07-06T11:56:40Z</time>
      </trkpt>
      <trkpt lat="46.7732" lon="4.56744">
        <ele>342.37</ele>
        <time>2014-07-06T11:57:22Z</time>
      </trkpt>
      <trkpt lat="46.7732" lon="4.56743">
        <ele>341.89</ele>
        <time>2014-07-06T11:57:59Z</time>
      </trkpt>
      <trkpt lat="46.7732" lon="4.56743">
        <ele>341.89</ele>
        <time>2014-07-06T11:58:49Z</time>
      </trkpt>
      <trkpt lat="46.7732" lon="4.56742">
        <ele>341.89</ele>
        <time>2014-07-06T11:59:33Z</time>
      </trkpt>
      <trkpt lat="46.77318" lon="4.56744">
        <ele>342.37</ele>
        <time>2014-07-06T12:00:18Z</time>
      </trkpt>
      <trkpt lat="46.77319" lon="4.56742">
        <ele>342.37</ele>
        <time>2014-07-06T12:01:05Z</time>
      </trkpt>
      <trkpt lat="46.7732" lon="4.56742">
        <ele>342.37</ele>
        <time>2014-07-06T12:01:42Z</time>
      </trkpt>
      <trkpt lat="46.77321" lon="4.56741">
        <ele>341.89</ele>
        <time>2014-07-06T12:02:14Z</time>
      </trkpt>
      <trkpt lat="46.77321" lon="4.56742">
        <ele>341.41</ele>
        <time>2014-07-06T12:02:50Z</time>
      </trkpt>
      <trkpt lat="46.77319" lon="4.56741">
        <ele>341.41</ele>
        <time>2014-07-06T12:03:31Z</time>
      </trkpt>
      <trkpt lat="46.77321" lon="4.56742">
        <ele>341.41</ele>
        <time>2014-07-06T12:04:12Z</time>
      </trkpt>
      <trkpt lat="46.7732" lon="4.56741">
        <ele>341.41</ele>
        <time>2014-07-06T12:04:46Z</time>
      </trkpt>
      <trkpt lat="46.7732" lon="4.56742">
        <ele>340.92</ele>
        <time>2014-07-06T12:05:22Z</time>
      </trkpt>
      <trkpt lat="46.77321" lon="4.56742">
        <ele>340.44</ele>
        <time>2014-07-06T12:05:51Z</time>
      </trkpt>
      <trkpt lat="46.7732" lon="4.56741">
        <ele>341.41</ele>
        <time>2014-07-06T12:06:30Z</time>
      </trkpt>
      <trkpt lat="46.77321" lon="4.56741">
        <ele>341.41</ele>
        <time>2014-07-06T12:07:16Z</time>
      </trkpt>
      <trkpt lat="46.7732" lon="4.56742">
        <ele>340.92</ele>
        <time>2014-07-06T12:07:56Z</time>
      </trkpt>
      <trkpt lat="46.7732" lon="4.56743">
        <ele>340.92</ele>
        <time>2014-07-06T12:08:36Z</time>
      </trkpt>
      <trkpt lat="46.77319" lon="4.56743">
        <ele>341.41</ele>
        <time>2014-07-06T12:09:17Z</time>
      </trkpt>
      <trkpt lat="46.7732" lon="4.56743">
        <ele>340.92</ele>
        <time>2014-07-06T12:09:59Z</time>
      </trkpt>
      <trkpt lat="46.7732" lon="4.56744">
        <ele>341.41</ele>
        <time>2014-07-06T12:10:37Z</time>
      </trkpt>
      <trkpt lat="46.7732" lon="4.56743">
        <ele>340.92</ele>
        <time>2014-07-06T12:11:07Z</time>
      </trkpt>
      <trkpt lat="46.77321" lon="4.56744">
        <ele>340.44</ele>
        <time>2014-07-06T12:11:52Z</time>
      </trkpt>
      <trkpt lat="46.77319" lon="4.56743">
        <ele>341.41</ele>
        <time>2014-07-06T12:12:27Z</time>
      </trkpt>
      <trkpt lat="46.7732" lon="4.56743">
        <ele>340.92</ele>
        <time>2014-07-06T12:13:09Z</time>
      </trkpt>
      <trkpt lat="46.7732" lon="4.56741">
        <ele>341.41</ele>
        <time>2014-07-06T12:13:46Z</time>
      </trkpt>
      <trkpt lat="46.7732" lon="4.56739">
        <ele>340.92</ele>
        <time>2014-07-06T12:14:22Z</time>
      </trkpt>
      <trkpt lat="46.77317" lon="4.56725">
        <ele>340.92</ele>
        <time>2014-07-06T12:14:34Z</time>
      </trkpt>
      <trkpt lat="46.77316" lon="4.56723">
        <ele>340.92</ele>
        <time>2014-07-06T12:14:36Z</time>
      </trkpt>
      <trkpt lat="46.77305" lon="4.56693">
        <ele>341.89</ele>
        <time>2014-07-06T12:14:50Z</time>
      </trkpt>
      <trkpt lat="46.7729" lon="4.56651">
        <ele>343.33</ele>
        <time>2014-07-06T12:15:08Z</time>
      </trkpt>
      <trkpt lat="46.77273" lon="4.56604">
        <ele>344.77</ele>
        <time>2014-07-06T12:15:25Z</time>
      </trkpt>
      <trkpt lat="46.77249" lon="4.56549">
        <ele>344.77</ele>
        <time>2014-07-06T12:15:43Z</time>
      </trkpt>
      <trkpt lat="46.77217" lon="4.56503">
        <ele>344.77</ele>
        <time>2014-07-06T12:16:00Z</time>
      </trkpt>
      <trkpt lat="46.77188" lon="4.5646">
        <ele>344.29</ele>
        <time>2014-07-06T12:16:16Z</time>
      </trkpt>
      <trkpt lat="46.77151" lon="4.56399">
        <ele>342.85</ele>
        <time>2014-07-06T12:16:33Z</time>
      </trkpt>
      <trkpt lat="46.77147" lon="4.56388">
        <ele>342.37</ele>
        <time>2014-07-06T12:16:36Z</time>
      </trkpt>
      <trkpt lat="46.77157" lon="4.56372">
        <ele>342.37</ele>
        <time>2014-07-06T12:16:41Z</time>
      </trkpt>
      <trkpt lat="46.77169" lon="4.56356">
        <ele>341.89</ele>
        <time>2014-07-06T12:16:45Z</time>
      </trkpt>
      <trkpt lat="46.77216" lon="4.56295">
        <ele>338.04</ele>
        <time>2014-07-06T12:16:55Z</time>
      </trkpt>
      <trkpt lat="46.77261" lon="4.5624">
        <ele>334.68</ele>
        <time>2014-07-06T12:17:02Z</time>
      </trkpt>
      <trkpt lat="46.77368" lon="4.56134">
        <ele>332.27</ele>
        <time>2014-07-06T12:17:17Z</time>
      </trkpt>
      <trkpt lat="46.77389" lon="4.56114">
        <ele>332.27</ele>
        <time>2014-07-06T12:17:21Z</time>
      </trkpt>
      <trkpt lat="46.7741" lon="4.56061">
        <ele>331.79</ele>
        <time>2014-07-06T12:17:30Z</time>
      </trkpt>
      <trkpt lat="46.77393" lon="4.56039">
        <ele>332.27</ele>
        <time>2014-07-06T12:17:35Z</time>
      </trkpt>
      <trkpt lat="46.77353" lon="4.55986">
        <ele>332.75</ele>
        <time>2014-07-06T12:17:51Z</time>
      </trkpt>
      <trkpt lat="46.77346" lon="4.55927">
        <ele>331.31</ele>
        <time>2014-07-06T12:18:03Z</time>
      </trkpt>
      <trkpt lat="46.77359" lon="4.55877">
        <ele>331.31</ele>
        <time>2014-07-06T12:18:15Z</time>
      </trkpt>
      <trkpt lat="46.77387" lon="4.5581">
        <ele>329.39</ele>
        <time>2014-07-06T12:18:28Z</time>
      </trkpt>
      <trkpt lat="46.77391" lon="4.55785">
        <ele>328.91</ele>
        <time>2014-07-06T12:18:31Z</time>
      </trkpt>
      <trkpt lat="46.77389" lon="4.55695">
        <ele>325.54</ele>
        <time>2014-07-06T12:18:40Z</time>
      </trkpt>
      <trkpt lat="46.77378" lon="4.5557">
        <ele>322.66</ele>
        <time>2014-07-06T12:18:51Z</time>
      </trkpt>
      <trkpt lat="46.77338" lon="4.55444">
        <ele>320.26</ele>
        <time>2014-07-06T12:19:04Z</time>
      </trkpt>
      <trkpt lat="46.77316" lon="4.55395">
        <ele>318.81</ele>
        <time>2014-07-06T12:19:10Z</time>
      </trkpt>
      <trkpt lat="46.77304" lon="4.5537">
        <ele>318.33</ele>
        <time>2014-07-06T12:19:13Z</time>
      </trkpt>
      <trkpt lat="46.77297" lon="4.55353">
        <ele>318.33</ele>
        <time>2014-07-06T12:19:15Z</time>
      </trkpt>
      <trkpt lat="46.7729" lon="4.55309">
        <ele>316.89</ele>
        <time>2014-07-06T12:19:19Z</time>
      </trkpt>
      <trkpt lat="46.77291" lon="4.55241">
        <ele>311.6</ele>
        <time>2014-07-06T12:19:24Z</time>
      </trkpt>
      <trkpt lat="46.77291" lon="4.55227">
        <ele>311.6</ele>
        <time>2014-07-06T12:19:25Z</time>
      </trkpt>
      <trkpt lat="46.77292" lon="4.55182">
        <ele>308.24</ele>
        <time>2014-07-06T12:19:28Z</time>
      </trkpt>
      <trkpt lat="46.77292" lon="4.55135">
        <ele>306.32</ele>
        <time>2014-07-06T12:19:31Z</time>
      </trkpt>
      <trkpt lat="46.77292" lon="4.55093">
        <ele>303.43</ele>
        <time>2014-07-06T12:19:34Z</time>
      </trkpt>
      <trkpt lat="46.77307" lon="4.55037">
        <ele>300.07</ele>
        <time>2014-07-06T12:19:39Z</time>
      </trkpt>
      <trkpt lat="46.77329" lon="4.55008">
        <ele>296.7</ele>
        <time>2014-07-06T12:19:43Z</time>
      </trkpt>
      <trkpt lat="46.77337" lon="4.54959">
        <ele>294.3</ele>
        <time>2014-07-06T12:19:48Z</time>
      </trkpt>
      <trkpt lat="46.77321" lon="4.54883">
        <ele>289.97</ele>
        <time>2014-07-06T12:19:54Z</time>
      </trkpt>
      <trkpt lat="46.77319" lon="4.54833">
        <ele>288.05</ele>
        <time>2014-07-06T12:19:58Z</time>
      </trkpt>
      <trkpt lat="46.77332" lon="4.54785">
        <ele>285.17</ele>
        <time>2014-07-06T12:20:02Z</time>
      </trkpt>
      <trkpt lat="46.7739" lon="4.54681">
        <ele>283.73</ele>
        <time>2014-07-06T12:20:13Z</time>
      </trkpt>
      <trkpt lat="46.77413" lon="4.54643">
        <ele>282.77</ele>
        <time>2014-07-06T12:20:22Z</time>
      </trkpt>
      <trkpt lat="46.77421" lon="4.54625">
        <ele>282.28</ele>
        <time>2014-07-06T12:20:34Z</time>
      </trkpt>
      <trkpt lat="46.77433" lon="4.5458">
        <ele>281.32</ele>
        <time>2014-07-06T12:20:44Z</time>
      </trkpt>
      <trkpt lat="46.77433" lon="4.54569">
        <ele>280.36</ele>
        <time>2014-07-06T12:20:46Z</time>
      </trkpt>
      <trkpt lat="46.77406" lon="4.54507">
        <ele>278.92</ele>
        <time>2014-07-06T12:20:57Z</time>
      </trkpt>
      <trkpt lat="46.77372" lon="4.54485">
        <ele>279.4</ele>
        <time>2014-07-06T12:21:06Z</time>
      </trkpt>
      <trkpt lat="46.77318" lon="4.54478">
        <ele>279.88</ele>
        <time>2014-07-06T12:21:24Z</time>
      </trkpt>
      <trkpt lat="46.77307" lon="4.54452">
        <ele>281.32</ele>
        <time>2014-07-06T12:21:35Z</time>
      </trkpt>
      <trkpt lat="46.77318" lon="4.54406">
        <ele>281.8</ele>
        <time>2014-07-06T12:21:49Z</time>
      </trkpt>
      <trkpt lat="46.77321" lon="4.54376">
        <ele>283.25</ele>
        <time>2014-07-06T12:22:04Z</time>
      </trkpt>
      <trkpt lat="46.77317" lon="4.54378">
        <ele>282.77</ele>
        <time>2014-07-06T12:22:24Z</time>
      </trkpt>
      <trkpt lat="46.77316" lon="4.54378">
        <ele>283.25</ele>
        <time>2014-07-06T12:22:25Z</time>
      </trkpt>
      <trkpt lat="46.77309" lon="4.54386">
        <ele>282.28</ele>
        <time>2014-07-06T12:22:37Z</time>
      </trkpt>
      <trkpt lat="46.7731" lon="4.54388">
        <ele>281.8</ele>
        <time>2014-07-06T12:23:07Z</time>
      </trkpt>
      <trkpt lat="46.77307" lon="4.54387">
        <ele>282.77</ele>
        <time>2014-07-06T12:23:33Z</time>
      </trkpt>
      <trkpt lat="46.77306" lon="4.54384">
        <ele>282.77</ele>
        <time>2014-07-06T12:24:01Z</time>
      </trkpt>
      <trkpt lat="46.77307" lon="4.54386">
        <ele>282.28</ele>
        <time>2014-07-06T12:24:29Z</time>
      </trkpt>
      <trkpt lat="46.7731" lon="4.54386">
        <ele>282.28</ele>
        <time>2014-07-06T12:24:52Z</time>
      </trkpt>
      <trkpt lat="46.7731" lon="4.54384">
        <ele>282.28</ele>
        <time>2014-07-06T12:25:27Z</time>
      </trkpt>
      <trkpt lat="46.77311" lon="4.54384">
        <ele>282.28</ele>
        <time>2014-07-06T12:26:02Z</time>
      </trkpt>
      <trkpt lat="46.77313" lon="4.54385">
        <ele>281.8</ele>
        <time>2014-07-06T12:26:41Z</time>
      </trkpt>
      <trkpt lat="46.77311" lon="4.54386">
        <ele>281.8</ele>
        <time>2014-07-06T12:27:13Z</time>
      </trkpt>
      <trkpt lat="46.77309" lon="4.54382">
        <ele>281.8</ele>
        <time>2014-07-06T12:27:56Z</time>
      </trkpt>
      <trkpt lat="46.7731" lon="4.54383">
        <ele>281.8</ele>
        <time>2014-07-06T12:28:29Z</time>
      </trkpt>
      <trkpt lat="46.77309" lon="4.54385">
        <ele>281.8</ele>
        <time>2014-07-06T12:29:10Z</time>
      </trkpt>
      <trkpt lat="46.77309" lon="4.54387">
        <ele>281.8</ele>
        <time>2014-07-06T12:29:58Z</time>
      </trkpt>
      <trkpt lat="46.7731" lon="4.54385">
        <ele>281.8</ele>
        <time>2014-07-06T12:30:21Z</time>
      </trkpt>
      <trkpt lat="46.77301" lon="4.5438">
        <ele>281.8</ele>
        <time>2014-07-06T12:30:44Z</time>
      </trkpt>
      <trkpt lat="46.77251" lon="4.54361">
        <ele>279.88</ele>
        <time>2014-07-06T12:30:56Z</time>
      </trkpt>
      <trkpt lat="46.77227" lon="4.54337">
        <ele>279.4</ele>
        <time>2014-07-06T12:31:02Z</time>
      </trkpt>
      <trkpt lat="46.77191" lon="4.54275">
        <ele>280.84</ele>
        <time>2014-07-06T12:31:18Z</time>
      </trkpt>
      <trkpt lat="46.77169" lon="4.54233">
        <ele>282.77</ele>
        <time>2014-07-06T12:31:32Z</time>
      </trkpt>
      <trkpt lat="46.77146" lon="4.54188">
        <ele>284.21</ele>
        <time>2014-07-06T12:31:47Z</time>
      </trkpt>
      <trkpt lat="46.77111" lon="4.54107">
        <ele>284.21</ele>
        <time>2014-07-06T12:32:06Z</time>
      </trkpt>
      <trkpt lat="46.77085" lon="4.54005">
        <ele>284.21</ele>
        <time>2014-07-06T12:32:25Z</time>
      </trkpt>
      <trkpt lat="46.77053" lon="4.53929">
        <ele>284.21</ele>
        <time>2014-07-06T12:32:39Z</time>
      </trkpt>
      <trkpt lat="46.77016" lon="4.53832">
        <ele>283.73</ele>
        <time>2014-07-06T12:32:56Z</time>
      </trkpt>
      <trkpt lat="46.76984" lon="4.53734">
        <ele>285.17</ele>
        <time>2014-07-06T12:33:14Z</time>
      </trkpt>
      <trkpt lat="46.76969" lon="4.53689">
        <ele>285.65</ele>
        <time>2014-07-06T12:33:28Z</time>
      </trkpt>
      <trkpt lat="46.76949" lon="4.5363">
        <ele>286.13</ele>
        <time>2014-07-06T12:33:42Z</time>
      </trkpt>
      <trkpt lat="46.76922" lon="4.53544">
        <ele>286.13</ele>
        <time>2014-07-06T12:34:00Z</time>
      </trkpt>
      <trkpt lat="46.76903" lon="4.53462">
        <ele>286.61</ele>
        <time>2014-07-06T12:34:15Z</time>
      </trkpt>
      <trkpt lat="46.76886" lon="4.53383">
        <ele>286.13</ele>
        <time>2014-07-06T12:34:28Z</time>
      </trkpt>
      <trkpt lat="46.76878" lon="4.53274">
        <ele>286.61</ele>
        <time>2014-07-06T12:34:45Z</time>
      </trkpt>
      <trkpt lat="46.76872" lon="4.53241">
        <ele>286.61</ele>
        <time>2014-07-06T12:34:50Z</time>
      </trkpt>
      <trkpt lat="46.76859" lon="4.53207">
        <ele>287.09</ele>
        <time>2014-07-06T12:34:56Z</time>
      </trkpt>
      <trkpt lat="46.76806" lon="4.53131">
        <ele>286.61</ele>
        <time>2014-07-06T12:35:12Z</time>
      </trkpt>
      <trkpt lat="46.76764" lon="4.53038">
        <ele>287.09</ele>
        <time>2014-07-06T12:35:30Z</time>
      </trkpt>
      <trkpt lat="46.76742" lon="4.5294">
        <ele>287.09</ele>
        <time>2014-07-06T12:35:46Z</time>
      </trkpt>
      <trkpt lat="46.76732" lon="4.52886">
        <ele>289.01</ele>
        <time>2014-07-06T12:35:59Z</time>
      </trkpt>
      <trkpt lat="46.76723" lon="4.52828">
        <ele>290.94</ele>
        <time>2014-07-06T12:36:16Z</time>
      </trkpt>
      <trkpt lat="46.76712" lon="4.52775">
        <ele>291.9</ele>
        <time>2014-07-06T12:36:30Z</time>
      </trkpt>
      <trkpt lat="46.76684" lon="4.52699">
        <ele>291.42</ele>
        <time>2014-07-06T12:36:46Z</time>
      </trkpt>
      <trkpt lat="46.76656" lon="4.52618">
        <ele>291.42</ele>
        <time>2014-07-06T12:37:02Z</time>
      </trkpt>
      <trkpt lat="46.76638" lon="4.5255">
        <ele>291.42</ele>
        <time>2014-07-06T12:37:15Z</time>
      </trkpt>
      <trkpt lat="46.76602" lon="4.52471">
        <ele>291.9</ele>
        <time>2014-07-06T12:37:30Z</time>
      </trkpt>
      <trkpt lat="46.7658" lon="4.52442">
        <ele>291.42</ele>
        <time>2014-07-06T12:37:37Z</time>
      </trkpt>
      <trkpt lat="46.76573" lon="4.52436">
        <ele>292.38</ele>
        <time>2014-07-06T12:37:39Z</time>
      </trkpt>
      <trkpt lat="46.76561" lon="4.52429">
        <ele>291.9</ele>
        <time>2014-07-06T12:37:42Z</time>
      </trkpt>
      <trkpt lat="46.76491" lon="4.52415">
        <ele>291.42</ele>
        <time>2014-07-06T12:37:58Z</time>
      </trkpt>
      <trkpt lat="46.76423" lon="4.52384">
        <ele>291.42</ele>
        <time>2014-07-06T12:38:13Z</time>
      </trkpt>
      <trkpt lat="46.76369" lon="4.52345">
        <ele>291.9</ele>
        <time>2014-07-06T12:38:26Z</time>
      </trkpt>
      <trkpt lat="46.76305" lon="4.52255">
        <ele>291.42</ele>
        <time>2014-07-06T12:38:45Z</time>
      </trkpt>
      <trkpt lat="46.7625" lon="4.5217">
        <ele>291.42</ele>
        <time>2014-07-06T12:39:02Z</time>
      </trkpt>
      <trkpt lat="46.76244" lon="4.52161">
        <ele>291.42</ele>
        <time>2014-07-06T12:39:04Z</time>
      </trkpt>
      <trkpt lat="46.76217" lon="4.52132">
        <ele>293.82</ele>
        <time>2014-07-06T12:39:16Z</time>
      </trkpt>
      <trkpt lat="46.76188" lon="4.52099">
        <ele>292.86</ele>
        <time>2014-07-06T12:39:27Z</time>
      </trkpt>
      <trkpt lat="46.76146" lon="4.52074">
        <ele>293.34</ele>
        <time>2014-07-06T12:39:40Z</time>
      </trkpt>
      <trkpt lat="46.76126" lon="4.52052">
        <ele>294.3</ele>
        <time>2014-07-06T12:39:48Z</time>
      </trkpt>
      <trkpt lat="46.76123" lon="4.52053">
        <ele>294.78</ele>
        <time>2014-07-06T12:39:51Z</time>
      </trkpt>
      <trkpt lat="46.76129" lon="4.52046">
        <ele>294.3</ele>
        <time>2014-07-06T12:39:58Z</time>
      </trkpt>
      <trkpt lat="46.7612" lon="4.52037">
        <ele>293.82</ele>
        <time>2014-07-06T12:40:01Z</time>
      </trkpt>
      <trkpt lat="46.76058" lon="4.52009">
        <ele>293.82</ele>
        <time>2014-07-06T12:40:18Z</time>
      </trkpt>
      <trkpt lat="46.76011" lon="4.51965">
        <ele>293.82</ele>
        <time>2014-07-06T12:40:32Z</time>
      </trkpt>
      <trkpt lat="46.75974" lon="4.51862">
        <ele>293.82</ele>
        <time>2014-07-06T12:40:50Z</time>
      </trkpt>
      <trkpt lat="46.75959" lon="4.5175">
        <ele>293.82</ele>
        <time>2014-07-06T12:41:07Z</time>
      </trkpt>
      <trkpt lat="46.75949" lon="4.51637">
        <ele>293.82</ele>
        <time>2014-07-06T12:41:23Z</time>
      </trkpt>
      <trkpt lat="46.75928" lon="4.51558">
        <ele>293.34</ele>
        <time>2014-07-06T12:41:39Z</time>
      </trkpt>
      <trkpt lat="46.75918" lon="4.51545">
        <ele>294.3</ele>
        <time>2014-07-06T12:41:44Z</time>
      </trkpt>
      <trkpt lat="46.75898" lon="4.51506">
        <ele>295.74</ele>
        <time>2014-07-06T12:41:58Z</time>
      </trkpt>
      <trkpt lat="46.75875" lon="4.51446">
        <ele>298.15</ele>
        <time>2014-07-06T12:42:13Z</time>
      </trkpt>
      <trkpt lat="46.75852" lon="4.51397">
        <ele>298.63</ele>
        <time>2014-07-06T12:42:28Z</time>
      </trkpt>
      <trkpt lat="46.75812" lon="4.51299">
        <ele>299.11</ele>
        <time>2014-07-06T12:42:49Z</time>
      </trkpt>
      <trkpt lat="46.75776" lon="4.51209">
        <ele>299.59</ele>
        <time>2014-07-06T12:43:07Z</time>
      </trkpt>
      <trkpt lat="46.75753" lon="4.51144">
        <ele>301.03</ele>
        <time>2014-07-06T12:43:23Z</time>
      </trkpt>
      <trkpt lat="46.75727" lon="4.51091">
        <ele>303.43</ele>
        <time>2014-07-06T12:43:41Z</time>
      </trkpt>
      <trkpt lat="46.75692" lon="4.51004">
        <ele>303.91</ele>
        <time>2014-07-06T12:44:00Z</time>
      </trkpt>
      <trkpt lat="46.75654" lon="4.5091">
        <ele>304.39</ele>
        <time>2014-07-06T12:44:20Z</time>
      </trkpt>
      <trkpt lat="46.75634" lon="4.50851">
        <ele>306.32</ele>
        <time>2014-07-06T12:44:34Z</time>
      </trkpt>
      <trkpt lat="46.7561" lon="4.50793">
        <ele>308.24</ele>
        <time>2014-07-06T12:44:52Z</time>
      </trkpt>
      <trkpt lat="46.75587" lon="4.50745">
        <ele>309.2</ele>
        <time>2014-07-06T12:45:09Z</time>
      </trkpt>
      <trkpt lat="46.75556" lon="4.50669">
        <ele>309.68</ele>
        <time>2014-07-06T12:45:28Z</time>
      </trkpt>
      <trkpt lat="46.75526" lon="4.50593">
        <ele>311.12</ele>
        <time>2014-07-06T12:45:47Z</time>
      </trkpt>
      <trkpt lat="46.75519" lon="4.50578">
        <ele>312.57</ele>
        <time>2014-07-06T12:45:53Z</time>
      </trkpt>
      <trkpt lat="46.75516" lon="4.50576">
        <ele>313.53</ele>
        <time>2014-07-06T12:46:03Z</time>
      </trkpt>
      <trkpt lat="46.75515" lon="4.50577">
        <ele>312.57</ele>
        <time>2014-07-06T12:46:16Z</time>
      </trkpt>
      <trkpt lat="46.75491" lon="4.50599">
        <ele>313.05</ele>
        <time>2014-07-06T12:46:27Z</time>
      </trkpt>
      <trkpt lat="46.75483" lon="4.50645">
        <ele>313.05</ele>
        <time>2014-07-06T12:46:39Z</time>
      </trkpt>
      <trkpt lat="46.75468" lon="4.50692">
        <ele>313.53</ele>
        <time>2014-07-06T12:46:53Z</time>
      </trkpt>
      <trkpt lat="46.75451" lon="4.50734">
        <ele>314.01</ele>
        <time>2014-07-06T12:47:07Z</time>
      </trkpt>
      <trkpt lat="46.75436" lon="4.50765">
        <ele>315.45</ele>
        <time>2014-07-06T12:47:20Z</time>
      </trkpt>
      <trkpt lat="46.75419" lon="4.50794">
        <ele>317.37</ele>
        <time>2014-07-06T12:47:35Z</time>
      </trkpt>
      <trkpt lat="46.75399" lon="4.50826">
        <ele>320.26</ele>
        <time>2014-07-06T12:47:52Z</time>
      </trkpt>
      <trkpt lat="46.75379" lon="4.50869">
        <ele>322.18</ele>
        <time>2014-07-06T12:48:12Z</time>
      </trkpt>
      <trkpt lat="46.75369" lon="4.50913">
        <ele>322.18</ele>
        <time>2014-07-06T12:48:27Z</time>
      </trkpt>
      <trkpt lat="46.75361" lon="4.50962">
        <ele>319.78</ele>
        <time>2014-07-06T12:48:41Z</time>
      </trkpt>
      <trkpt lat="46.7535" lon="4.51012">
        <ele>318.81</ele>
        <time>2014-07-06T12:48:53Z</time>
      </trkpt>
      <trkpt lat="46.75343" lon="4.51011">
        <ele>318.33</ele>
        <time>2014-07-06T12:49:07Z</time>
      </trkpt>
      <trkpt lat="46.75343" lon="4.5101">
        <ele>318.33</ele>
        <time>2014-07-06T12:49:36Z</time>
      </trkpt>
      <trkpt lat="46.75344" lon="4.51008">
        <ele>319.3</ele>
        <time>2014-07-06T12:50:04Z</time>
      </trkpt>
      <trkpt lat="46.75342" lon="4.51011">
        <ele>318.81</ele>
        <time>2014-07-06T12:50:36Z</time>
      </trkpt>
      <trkpt lat="46.75343" lon="4.51011">
        <ele>318.33</ele>
        <time>2014-07-06T12:51:12Z</time>
      </trkpt>
      <trkpt lat="46.75328" lon="4.51006">
        <ele>318.81</ele>
        <time>2014-07-06T12:51:28Z</time>
      </trkpt>
      <trkpt lat="46.75286" lon="4.50987">
        <ele>319.3</ele>
        <time>2014-07-06T12:51:44Z</time>
      </trkpt>
      <trkpt lat="46.75247" lon="4.5097">
        <ele>320.74</ele>
        <time>2014-07-06T12:52:00Z</time>
      </trkpt>
      <trkpt lat="46.75205" lon="4.50953">
        <ele>321.22</ele>
        <time>2014-07-06T12:52:18Z</time>
      </trkpt>
      <trkpt lat="46.75167" lon="4.50937">
        <ele>323.14</ele>
        <time>2014-07-06T12:52:36Z</time>
      </trkpt>
      <trkpt lat="46.75132" lon="4.50923">
        <ele>325.54</ele>
        <time>2014-07-06T12:52:56Z</time>
      </trkpt>
      <trkpt lat="46.75106" lon="4.50912">
        <ele>326.99</ele>
        <time>2014-07-06T12:53:12Z</time>
      </trkpt>
      <trkpt lat="46.75075" lon="4.50899">
        <ele>328.91</ele>
        <time>2014-07-06T12:53:30Z</time>
      </trkpt>
      <trkpt lat="46.75045" lon="4.50888">
        <ele>329.87</ele>
        <time>2014-07-06T12:53:46Z</time>
      </trkpt>
      <trkpt lat="46.75011" lon="4.50872">
        <ele>330.83</ele>
        <time>2014-07-06T12:54:03Z</time>
      </trkpt>
      <trkpt lat="46.74958" lon="4.5085">
        <ele>332.75</ele>
        <time>2014-07-06T12:54:27Z</time>
      </trkpt>
      <trkpt lat="46.7491" lon="4.50828">
        <ele>333.23</ele>
        <time>2014-07-06T12:54:47Z</time>
      </trkpt>
      <trkpt lat="46.74868" lon="4.50809">
        <ele>332.27</ele>
        <time>2014-07-06T12:55:02Z</time>
      </trkpt>
      <trkpt lat="46.74866" lon="4.50809">
        <ele>332.27</ele>
        <time>2014-07-06T12:55:15Z</time>
      </trkpt>
      <trkpt lat="46.74851" lon="4.50802">
        <ele>332.27</ele>
        <time>2014-07-06T12:55:28Z</time>
      </trkpt>
      <trkpt lat="46.74827" lon="4.50769">
        <ele>333.23</ele>
        <time>2014-07-06T12:55:42Z</time>
      </trkpt>
      <trkpt lat="46.74809" lon="4.50729">
        <ele>335.64</ele>
        <time>2014-07-06T12:56:00Z</time>
      </trkpt>
      <trkpt lat="46.74792" lon="4.50698">
        <ele>338.04</ele>
        <time>2014-07-06T12:56:17Z</time>
      </trkpt>
      <trkpt lat="46.74788" lon="4.50692">
        <ele>339</ele>
        <time>2014-07-06T12:56:21Z</time>
      </trkpt>
      <trkpt lat="46.74785" lon="4.50686">
        <ele>339</ele>
        <time>2014-07-06T12:56:25Z</time>
      </trkpt>
      <trkpt lat="46.74766" lon="4.5067">
        <ele>342.37</ele>
        <time>2014-07-06T12:56:42Z</time>
      </trkpt>
      <trkpt lat="46.74744" lon="4.50671">
        <ele>344.77</ele>
        <time>2014-07-06T12:56:58Z</time>
      </trkpt>
      <trkpt lat="46.74723" lon="4.50673">
        <ele>346.69</ele>
        <time>2014-07-06T12:57:13Z</time>
      </trkpt>
      <trkpt lat="46.747" lon="4.50682">
        <ele>348.62</ele>
        <time>2014-07-06T12:57:28Z</time>
      </trkpt>
      <trkpt lat="46.74675" lon="4.50694">
        <ele>349.1</ele>
        <time>2014-07-06T12:57:45Z</time>
      </trkpt>
      <trkpt lat="46.74667" lon="4.50699">
        <ele>349.58</ele>
        <time>2014-07-06T12:57:56Z</time>
      </trkpt>
      <trkpt lat="46.74643" lon="4.50715">
        <ele>349.58</ele>
        <time>2014-07-06T12:58:11Z</time>
      </trkpt>
      <trkpt lat="46.74621" lon="4.5073">
        <ele>348.62</ele>
        <time>2014-07-06T12:58:23Z</time>
      </trkpt>
      <trkpt lat="46.74582" lon="4.50751">
        <ele>346.69</ele>
        <time>2014-07-06T12:58:36Z</time>
      </trkpt>
      <trkpt lat="46.74539" lon="4.50777">
        <ele>344.77</ele>
        <time>2014-07-06T12:58:48Z</time>
      </trkpt>
      <trkpt lat="46.74483" lon="4.50861">
        <ele>342.37</ele>
        <time>2014-07-06T12:59:04Z</time>
      </trkpt>
      <trkpt lat="46.74436" lon="4.50941">
        <ele>341.89</ele>
        <time>2014-07-06T12:59:19Z</time>
      </trkpt>
      <trkpt lat="46.7439" lon="4.50992">
        <ele>340.92</ele>
        <time>2014-07-06T12:59:34Z</time>
      </trkpt>
      <trkpt lat="46.74382" lon="4.50992">
        <ele>340.92</ele>
        <time>2014-07-06T12:59:39Z</time>
      </trkpt>
      <trkpt lat="46.74378" lon="4.50978">
        <ele>340.44</ele>
        <time>2014-07-06T12:59:45Z</time>
      </trkpt>
      <trkpt lat="46.7437" lon="4.50956">
        <ele>339.48</ele>
        <time>2014-07-06T12:59:51Z</time>
      </trkpt>
      <trkpt lat="46.74342" lon="4.5086">
        <ele>337.56</ele>
        <time>2014-07-06T13:00:05Z</time>
      </trkpt>
      <trkpt lat="46.74339" lon="4.50845">
        <ele>336.6</ele>
        <time>2014-07-06T13:00:09Z</time>
      </trkpt>
      <trkpt lat="46.74352" lon="4.50805">
        <ele>335.64</ele>
        <time>2014-07-06T13:00:18Z</time>
      </trkpt>
      <trkpt lat="46.74377" lon="4.50717">
        <ele>335.16</ele>
        <time>2014-07-06T13:00:34Z</time>
      </trkpt>
      <trkpt lat="46.74391" lon="4.50661">
        <ele>334.68</ele>
        <time>2014-07-06T13:00:45Z</time>
      </trkpt>
      <trkpt lat="46.74412" lon="4.50539">
        <ele>334.68</ele>
        <time>2014-07-06T13:01:03Z</time>
      </trkpt>
      <trkpt lat="46.74432" lon="4.5041">
        <ele>333.71</ele>
        <time>2014-07-06T13:01:21Z</time>
      </trkpt>
      <trkpt lat="46.7445" lon="4.50309">
        <ele>334.2</ele>
        <time>2014-07-06T13:01:36Z</time>
      </trkpt>
      <trkpt lat="46.74467" lon="4.50212">
        <ele>333.71</ele>
        <time>2014-07-06T13:01:52Z</time>
      </trkpt>
      <trkpt lat="46.74483" lon="4.50094">
        <ele>330.35</ele>
        <time>2014-07-06T13:02:06Z</time>
      </trkpt>
      <trkpt lat="46.74487" lon="4.49956">
        <ele>327.47</ele>
        <time>2014-07-06T13:02:18Z</time>
      </trkpt>
      <trkpt lat="46.7449" lon="4.49823">
        <ele>324.1</ele>
        <time>2014-07-06T13:02:29Z</time>
      </trkpt>
      <trkpt lat="46.74498" lon="4.4968">
        <ele>321.22</ele>
        <time>2014-07-06T13:02:42Z</time>
      </trkpt>
      <trkpt lat="46.74504" lon="4.49611">
        <ele>317.85</ele>
        <time>2014-07-06T13:02:48Z</time>
      </trkpt>
      <trkpt lat="46.74507" lon="4.49595">
        <ele>317.37</ele>
        <time>2014-07-06T13:02:50Z</time>
      </trkpt>
      <trkpt lat="46.74509" lon="4.49588">
        <ele>317.37</ele>
        <time>2014-07-06T13:02:51Z</time>
      </trkpt>
      <trkpt lat="46.74512" lon="4.49568">
        <ele>316.41</ele>
        <time>2014-07-06T13:02:54Z</time>
      </trkpt>
      <trkpt lat="46.74493" lon="4.49568">
        <ele>314.97</ele>
        <time>2014-07-06T13:02:58Z</time>
      </trkpt>
      <trkpt lat="46.74467" lon="4.49561">
        <ele>314.49</ele>
        <time>2014-07-06T13:03:02Z</time>
      </trkpt>
      <trkpt lat="46.74446" lon="4.49548">
        <ele>314.49</ele>
        <time>2014-07-06T13:03:06Z</time>
      </trkpt>
      <trkpt lat="46.74412" lon="4.49536">
        <ele>315.45</ele>
        <time>2014-07-06T13:03:16Z</time>
      </trkpt>
      <trkpt lat="46.74376" lon="4.49517">
        <ele>315.93</ele>
        <time>2014-07-06T13:03:29Z</time>
      </trkpt>
      <trkpt lat="46.74315" lon="4.49481">
        <ele>316.41</ele>
        <time>2014-07-06T13:03:45Z</time>
      </trkpt>
      <trkpt lat="46.74299" lon="4.49448">
        <ele>315.45</ele>
        <time>2014-07-06T13:03:56Z</time>
      </trkpt>
      <trkpt lat="46.74301" lon="4.49391">
        <ele>315.45</ele>
        <time>2014-07-06T13:04:10Z</time>
      </trkpt>
      <trkpt lat="46.743" lon="4.49343">
        <ele>314.97</ele>
        <time>2014-07-06T13:04:25Z</time>
      </trkpt>
      <trkpt lat="46.74295" lon="4.49291">
        <ele>314.97</ele>
        <time>2014-07-06T13:04:39Z</time>
      </trkpt>
      <trkpt lat="46.74288" lon="4.49203">
        <ele>314.97</ele>
        <time>2014-07-06T13:05:00Z</time>
      </trkpt>
      <trkpt lat="46.74274" lon="4.49125">
        <ele>314.97</ele>
        <time>2014-07-06T13:05:19Z</time>
      </trkpt>
      <trkpt lat="46.74246" lon="4.49059">
        <ele>315.45</ele>
        <time>2014-07-06T13:05:37Z</time>
      </trkpt>
      <trkpt lat="46.7422" lon="4.4899">
        <ele>315.45</ele>
        <time>2014-07-06T13:05:54Z</time>
      </trkpt>
      <trkpt lat="46.74193" lon="4.48925">
        <ele>315.45</ele>
        <time>2014-07-06T13:06:11Z</time>
      </trkpt>
      <trkpt lat="46.74156" lon="4.4889">
        <ele>314.97</ele>
        <time>2014-07-06T13:06:26Z</time>
      </trkpt>
      <trkpt lat="46.74112" lon="4.48872">
        <ele>315.93</ele>
        <time>2014-07-06T13:06:42Z</time>
      </trkpt>
      <trkpt lat="46.74087" lon="4.48819">
        <ele>315.45</ele>
        <time>2014-07-06T13:06:56Z</time>
      </trkpt>
      <trkpt lat="46.74058" lon="4.48782">
        <ele>314.97</ele>
        <time>2014-07-06T13:07:08Z</time>
      </trkpt>
      <trkpt lat="46.74006" lon="4.48758">
        <ele>315.45</ele>
        <time>2014-07-06T13:07:25Z</time>
      </trkpt>
      <trkpt lat="46.73952" lon="4.48774">
        <ele>314.97</ele>
        <time>2014-07-06T13:07:42Z</time>
      </trkpt>
      <trkpt lat="46.7392" lon="4.4883">
        <ele>315.45</ele>
        <time>2014-07-06T13:07:57Z</time>
      </trkpt>
      <trkpt lat="46.73877" lon="4.48897">
        <ele>315.45</ele>
        <time>2014-07-06T13:08:15Z</time>
      </trkpt>
      <trkpt lat="46.73831" lon="4.48928">
        <ele>315.45</ele>
        <time>2014-07-06T13:08:30Z</time>
      </trkpt>
      <trkpt lat="46.73791" lon="4.48934">
        <ele>315.93</ele>
        <time>2014-07-06T13:08:43Z</time>
      </trkpt>
      <trkpt lat="46.73754" lon="4.48902">
        <ele>315.93</ele>
        <time>2014-07-06T13:08:57Z</time>
      </trkpt>
      <trkpt lat="46.73732" lon="4.48838">
        <ele>315.93</ele>
        <time>2014-07-06T13:09:12Z</time>
      </trkpt>
      <trkpt lat="46.73725" lon="4.48826">
        <ele>316.89</ele>
        <time>2014-07-06T13:09:18Z</time>
      </trkpt>
      <trkpt lat="46.73716" lon="4.48821">
        <ele>316.89</ele>
        <time>2014-07-06T13:09:25Z</time>
      </trkpt>
      <trkpt lat="46.73705" lon="4.48834">
        <ele>316.89</ele>
        <time>2014-07-06T13:09:32Z</time>
      </trkpt>
      <trkpt lat="46.737" lon="4.48835">
        <ele>316.89</ele>
        <time>2014-07-06T13:09:34Z</time>
      </trkpt>
      <trkpt lat="46.73679" lon="4.4883">
        <ele>316.89</ele>
        <time>2014-07-06T13:09:43Z</time>
      </trkpt>
      <trkpt lat="46.73678" lon="4.48823">
        <ele>317.37</ele>
        <time>2014-07-06T13:09:46Z</time>
      </trkpt>
      <trkpt lat="46.7369" lon="4.4877">
        <ele>316.89</ele>
        <time>2014-07-06T13:10:01Z</time>
      </trkpt>
      <trkpt lat="46.73694" lon="4.48716">
        <ele>316.41</ele>
        <time>2014-07-06T13:10:15Z</time>
      </trkpt>
      <trkpt lat="46.7368" lon="4.48658">
        <ele>316.41</ele>
        <time>2014-07-06T13:10:31Z</time>
      </trkpt>
      <trkpt lat="46.73674" lon="4.48592">
        <ele>316.41</ele>
        <time>2014-07-06T13:10:48Z</time>
      </trkpt>
      <trkpt lat="46.7367" lon="4.48533">
        <ele>316.41</ele>
        <time>2014-07-06T13:11:05Z</time>
      </trkpt>
      <trkpt lat="46.73668" lon="4.48498">
        <ele>315.93</ele>
        <time>2014-07-06T13:11:16Z</time>
      </trkpt>
      <trkpt lat="46.73659" lon="4.4847">
        <ele>315.45</ele>
        <time>2014-07-06T13:11:27Z</time>
      </trkpt>
      <trkpt lat="46.73634" lon="4.48438">
        <ele>315.93</ele>
        <time>2014-07-06T13:11:39Z</time>
      </trkpt>
      <trkpt lat="46.73619" lon="4.4839">
        <ele>315.45</ele>
        <time>2014-07-06T13:11:51Z</time>
      </trkpt>
      <trkpt lat="46.73606" lon="4.48341">
        <ele>314.97</ele>
        <time>2014-07-06T13:12:03Z</time>
      </trkpt>
      <trkpt lat="46.73611" lon="4.48285">
        <ele>316.41</ele>
        <time>2014-07-06T13:12:17Z</time>
      </trkpt>
      <trkpt lat="46.7361" lon="4.48215">
        <ele>317.85</ele>
        <time>2014-07-06T13:12:35Z</time>
      </trkpt>
      <trkpt lat="46.73609" lon="4.48202">
        <ele>317.85</ele>
        <time>2014-07-06T13:12:39Z</time>
      </trkpt>
      <trkpt lat="46.73626" lon="4.48174">
        <ele>316.89</ele>
        <time>2014-07-06T13:12:50Z</time>
      </trkpt>
      <trkpt lat="46.73638" lon="4.48133">
        <ele>315.93</ele>
        <time>2014-07-06T13:13:01Z</time>
      </trkpt>
      <trkpt lat="46.73638" lon="4.48123">
        <ele>315.45</ele>
        <time>2014-07-06T13:13:03Z</time>
      </trkpt>
      <trkpt lat="46.73638" lon="4.48115">
        <ele>314.97</ele>
        <time>2014-07-06T13:13:04Z</time>
      </trkpt>
      <trkpt lat="46.73635" lon="4.48104">
        <ele>314.97</ele>
        <time>2014-07-06T13:13:06Z</time>
      </trkpt>
      <trkpt lat="46.7362" lon="4.48068">
        <ele>314.49</ele>
        <time>2014-07-06T13:13:12Z</time>
      </trkpt>
      <trkpt lat="46.73605" lon="4.48042">
        <ele>314.97</ele>
        <time>2014-07-06T13:13:17Z</time>
      </trkpt>
      <trkpt lat="46.73573" lon="4.48009">
        <ele>316.89</ele>
        <time>2014-07-06T13:13:28Z</time>
      </trkpt>
      <trkpt lat="46.73572" lon="4.48008">
        <ele>317.37</ele>
        <time>2014-07-06T13:13:29Z</time>
      </trkpt>
      <trkpt lat="46.73566" lon="4.48007">
        <ele>317.85</ele>
        <time>2014-07-06T13:13:32Z</time>
      </trkpt>
      <trkpt lat="46.73564" lon="4.47991">
        <ele>319.78</ele>
        <time>2014-07-06T13:13:39Z</time>
      </trkpt>
      <trkpt lat="46.73593" lon="4.47957">
        <ele>318.33</ele>
        <time>2014-07-06T13:13:57Z</time>
      </trkpt>
      <trkpt lat="46.73597" lon="4.47953">
        <ele>318.33</ele>
        <time>2014-07-06T13:13:59Z</time>
      </trkpt>
      <trkpt lat="46.736" lon="4.47919">
        <ele>318.33</ele>
        <time>2014-07-06T13:14:07Z</time>
      </trkpt>
      <trkpt lat="46.73573" lon="4.47846">
        <ele>316.89</ele>
        <time>2014-07-06T13:14:19Z</time>
      </trkpt>
      <trkpt lat="46.73568" lon="4.47834">
        <ele>316.41</ele>
        <time>2014-07-06T13:14:21Z</time>
      </trkpt>
      <trkpt lat="46.73535" lon="4.47827">
        <ele>315.93</ele>
        <time>2014-07-06T13:14:29Z</time>
      </trkpt>
      <trkpt lat="46.73499" lon="4.4782">
        <ele>314.97</ele>
        <time>2014-07-06T13:14:37Z</time>
      </trkpt>
      <trkpt lat="46.73449" lon="4.47743">
        <ele>314.49</ele>
        <time>2014-07-06T13:14:55Z</time>
      </trkpt>
      <trkpt lat="46.73403" lon="4.47677">
        <ele>314.49</ele>
        <time>2014-07-06T13:15:11Z</time>
      </trkpt>
      <trkpt lat="46.73369" lon="4.4763">
        <ele>314.49</ele>
        <time>2014-07-06T13:15:26Z</time>
      </trkpt>
      <trkpt lat="46.73317" lon="4.47581">
        <ele>314.01</ele>
        <time>2014-07-06T13:15:44Z</time>
      </trkpt>
      <trkpt lat="46.73252" lon="4.47552">
        <ele>313.53</ele>
        <time>2014-07-06T13:16:03Z</time>
      </trkpt>
      <trkpt lat="46.73237" lon="4.47546">
        <ele>314.01</ele>
        <time>2014-07-06T13:16:07Z</time>
      </trkpt>
      <trkpt lat="46.73154" lon="4.47528">
        <ele>312.09</ele>
        <time>2014-07-06T13:16:23Z</time>
      </trkpt>
      <trkpt lat="46.73149" lon="4.47526">
        <ele>312.09</ele>
        <time>2014-07-06T13:16:24Z</time>
      </trkpt>
      <trkpt lat="46.73081" lon="4.47476">
        <ele>311.12</ele>
        <time>2014-07-06T13:16:39Z</time>
      </trkpt>
      <trkpt lat="46.73031" lon="4.47381">
        <ele>311.12</ele>
        <time>2014-07-06T13:16:55Z</time>
      </trkpt>
      <trkpt lat="46.73018" lon="4.47322">
        <ele>311.12</ele>
        <time>2014-07-06T13:17:03Z</time>
      </trkpt>
      <trkpt lat="46.72992" lon="4.47211">
        <ele>311.12</ele>
        <time>2014-07-06T13:17:18Z</time>
      </trkpt>
      <trkpt lat="46.72987" lon="4.4719">
        <ele>311.6</ele>
        <time>2014-07-06T13:17:21Z</time>
      </trkpt>
      <trkpt lat="46.72975" lon="4.47143">
        <ele>311.6</ele>
        <time>2014-07-06T13:17:28Z</time>
      </trkpt>
      <trkpt lat="46.72968" lon="4.47115">
        <ele>311.6</ele>
        <time>2014-07-06T13:17:32Z</time>
      </trkpt>
      <trkpt lat="46.72943" lon="4.46986">
        <ele>311.12</ele>
        <time>2014-07-06T13:17:49Z</time>
      </trkpt>
      <trkpt lat="46.72918" lon="4.46861">
        <ele>311.12</ele>
        <time>2014-07-06T13:18:06Z</time>
      </trkpt>
      <trkpt lat="46.7288" lon="4.46711">
        <ele>311.12</ele>
        <time>2014-07-06T13:18:27Z</time>
      </trkpt>
      <trkpt lat="46.72838" lon="4.46564">
        <ele>311.6</ele>
        <time>2014-07-06T13:18:48Z</time>
      </trkpt>
      <trkpt lat="46.72812" lon="4.46449">
        <ele>311.6</ele>
        <time>2014-07-06T13:19:05Z</time>
      </trkpt>
      <trkpt lat="46.72786" lon="4.46327">
        <ele>312.09</ele>
        <time>2014-07-06T13:19:23Z</time>
      </trkpt>
      <trkpt lat="46.72771" lon="4.46242">
        <ele>312.57</ele>
        <time>2014-07-06T13:19:38Z</time>
      </trkpt>
      <trkpt lat="46.72766" lon="4.46227">
        <ele>311.6</ele>
        <time>2014-07-06T13:19:42Z</time>
      </trkpt>
      <trkpt lat="46.72757" lon="4.46163">
        <ele>310.16</ele>
        <time>2014-07-06T13:19:51Z</time>
      </trkpt>
      <trkpt lat="46.72724" lon="4.4608">
        <ele>309.68</ele>
        <time>2014-07-06T13:20:06Z</time>
      </trkpt>
      <trkpt lat="46.72717" lon="4.46066">
        <ele>309.2</ele>
        <time>2014-07-06T13:20:09Z</time>
      </trkpt>
      <trkpt lat="46.72708" lon="4.46045">
        <ele>309.2</ele>
        <time>2014-07-06T13:20:13Z</time>
      </trkpt>
      <trkpt lat="46.727" lon="4.4603">
        <ele>309.2</ele>
        <time>2014-07-06T13:20:16Z</time>
      </trkpt>
      <trkpt lat="46.72694" lon="4.46014">
        <ele>310.64</ele>
        <time>2014-07-06T13:20:19Z</time>
      </trkpt>
      <trkpt lat="46.72663" lon="4.45952">
        <ele>309.2</ele>
        <time>2014-07-06T13:20:33Z</time>
      </trkpt>
      <trkpt lat="46.72661" lon="4.45948">
        <ele>309.2</ele>
        <time>2014-07-06T13:20:34Z</time>
      </trkpt>
      <trkpt lat="46.72627" lon="4.45873">
        <ele>309.2</ele>
        <time>2014-07-06T13:20:50Z</time>
      </trkpt>
      <trkpt lat="46.72592" lon="4.45786">
        <ele>308.24</ele>
        <time>2014-07-06T13:21:07Z</time>
      </trkpt>
      <trkpt lat="46.72582" lon="4.45756">
        <ele>307.76</ele>
        <time>2014-07-06T13:21:12Z</time>
      </trkpt>
      <trkpt lat="46.72544" lon="4.45653">
        <ele>306.8</ele>
        <time>2014-07-06T13:21:28Z</time>
      </trkpt>
      <trkpt lat="46.72514" lon="4.45567">
        <ele>306.32</ele>
        <time>2014-07-06T13:21:41Z</time>
      </trkpt>
      <trkpt lat="46.72484" lon="4.45485">
        <ele>306.8</ele>
        <time>2014-07-06T13:21:56Z</time>
      </trkpt>
      <trkpt lat="46.72448" lon="4.45385">
        <ele>306.8</ele>
        <time>2014-07-06T13:22:12Z</time>
      </trkpt>
      <trkpt lat="46.72435" lon="4.45351">
        <ele>306.8</ele>
        <time>2014-07-06T13:22:19Z</time>
      </trkpt>
      <trkpt lat="46.72433" lon="4.4535">
        <ele>306.8</ele>
        <time>2014-07-06T13:22:22Z</time>
      </trkpt>
      <trkpt lat="46.72439" lon="4.4537">
        <ele>306.8</ele>
        <time>2014-07-06T13:22:33Z</time>
      </trkpt>
      <trkpt lat="46.72444" lon="4.45374">
        <ele>306.32</ele>
        <time>2014-07-06T13:22:41Z</time>
      </trkpt>
      <trkpt lat="46.72441" lon="4.45364">
        <ele>306.32</ele>
        <time>2014-07-06T13:22:55Z</time>
      </trkpt>
      <trkpt lat="46.72441" lon="4.45364">
        <ele>306.32</ele>
        <time>2014-07-06T13:22:56Z</time>
      </trkpt>
      <trkpt lat="46.72437" lon="4.45354">
        <ele>306.32</ele>
        <time>2014-07-06T13:23:01Z</time>
      </trkpt>
      <trkpt lat="46.72419" lon="4.45306">
        <ele>306.8</ele>
        <time>2014-07-06T13:23:13Z</time>
      </trkpt>
      <trkpt lat="46.72393" lon="4.45236">
        <ele>306.32</ele>
        <time>2014-07-06T13:23:27Z</time>
      </trkpt>
      <trkpt lat="46.72386" lon="4.45211">
        <ele>305.84</ele>
        <time>2014-07-06T13:23:31Z</time>
      </trkpt>
      <trkpt lat="46.72365" lon="4.45151">
        <ele>305.84</ele>
        <time>2014-07-06T13:23:41Z</time>
      </trkpt>
      <trkpt lat="46.72328" lon="4.45072">
        <ele>306.8</ele>
        <time>2014-07-06T13:23:56Z</time>
      </trkpt>
      <trkpt lat="46.7225" lon="4.44993">
        <ele>307.28</ele>
        <time>2014-07-06T13:24:16Z</time>
      </trkpt>
      <trkpt lat="46.72193" lon="4.4493">
        <ele>307.28</ele>
        <time>2014-07-06T13:24:32Z</time>
      </trkpt>
      <trkpt lat="46.72151" lon="4.4484">
        <ele>306.32</ele>
        <time>2014-07-06T13:24:47Z</time>
      </trkpt>
      <trkpt lat="46.72136" lon="4.4473">
        <ele>306.8</ele>
        <time>2014-07-06T13:25:03Z</time>
      </trkpt>
      <trkpt lat="46.72137" lon="4.44716">
        <ele>306.8</ele>
        <time>2014-07-06T13:25:05Z</time>
      </trkpt>
      <trkpt lat="46.72146" lon="4.44617">
        <ele>306.8</ele>
        <time>2014-07-06T13:25:20Z</time>
      </trkpt>
      <trkpt lat="46.72121" lon="4.44517">
        <ele>306.8</ele>
        <time>2014-07-06T13:25:36Z</time>
      </trkpt>
      <trkpt lat="46.72058" lon="4.44427">
        <ele>306.32</ele>
        <time>2014-07-06T13:25:54Z</time>
      </trkpt>
      <trkpt lat="46.72035" lon="4.44395">
        <ele>306.8</ele>
        <time>2014-07-06T13:26:01Z</time>
      </trkpt>
      <trkpt lat="46.71979" lon="4.44359">
        <ele>306.8</ele>
        <time>2014-07-06T13:26:17Z</time>
      </trkpt>
      <trkpt lat="46.7195" lon="4.44354">
        <ele>306.8</ele>
        <time>2014-07-06T13:26:25Z</time>
      </trkpt>
      <trkpt lat="46.71924" lon="4.44342">
        <ele>306.32</ele>
        <time>2014-07-06T13:26:33Z</time>
      </trkpt>
      <trkpt lat="46.7185" lon="4.44283">
        <ele>305.36</ele>
        <time>2014-07-06T13:26:51Z</time>
      </trkpt>
      <trkpt lat="46.71818" lon="4.44236">
        <ele>304.88</ele>
        <time>2014-07-06T13:26:59Z</time>
      </trkpt>
      <trkpt lat="46.71802" lon="4.44201">
        <ele>304.88</ele>
        <time>2014-07-06T13:27:04Z</time>
      </trkpt>
      <trkpt lat="46.71774" lon="4.44088">
        <ele>305.36</ele>
        <time>2014-07-06T13:27:19Z</time>
      </trkpt>
      <trkpt lat="46.71773" lon="4.44081">
        <ele>305.36</ele>
        <time>2014-07-06T13:27:20Z</time>
      </trkpt>
      <trkpt lat="46.71765" lon="4.44056">
        <ele>305.36</ele>
        <time>2014-07-06T13:27:24Z</time>
      </trkpt>
      <trkpt lat="46.71754" lon="4.44042">
        <ele>305.36</ele>
        <time>2014-07-06T13:27:27Z</time>
      </trkpt>
      <trkpt lat="46.71681" lon="4.4401">
        <ele>304.39</ele>
        <time>2014-07-06T13:27:42Z</time>
      </trkpt>
      <trkpt lat="46.71609" lon="4.4398">
        <ele>304.39</ele>
        <time>2014-07-06T13:27:57Z</time>
      </trkpt>
      <trkpt lat="46.71539" lon="4.43984">
        <ele>304.39</ele>
        <time>2014-07-06T13:28:12Z</time>
      </trkpt>
      <trkpt lat="46.71456" lon="4.44016">
        <ele>304.39</ele>
        <time>2014-07-06T13:28:30Z</time>
      </trkpt>
      <trkpt lat="46.714" lon="4.4404">
        <ele>303.91</ele>
        <time>2014-07-06T13:28:43Z</time>
      </trkpt>
      <trkpt lat="46.71371" lon="4.44048">
        <ele>303.91</ele>
        <time>2014-07-06T13:28:50Z</time>
      </trkpt>
      <trkpt lat="46.71355" lon="4.44044">
        <ele>303.43</ele>
        <time>2014-07-06T13:28:54Z</time>
      </trkpt>
      <trkpt lat="46.71336" lon="4.44026">
        <ele>303.43</ele>
        <time>2014-07-06T13:28:59Z</time>
      </trkpt>
      <trkpt lat="46.71281" lon="4.43932">
        <ele>303.43</ele>
        <time>2014-07-06T13:29:18Z</time>
      </trkpt>
      <trkpt lat="46.71246" lon="4.43881">
        <ele>303.43</ele>
        <time>2014-07-06T13:29:28Z</time>
      </trkpt>
      <trkpt lat="46.71218" lon="4.43772">
        <ele>303.43</ele>
        <time>2014-07-06T13:29:45Z</time>
      </trkpt>
      <trkpt lat="46.71203" lon="4.43682">
        <ele>303.91</ele>
        <time>2014-07-06T13:29:58Z</time>
      </trkpt>
      <trkpt lat="46.71178" lon="4.43572">
        <ele>303.43</ele>
        <time>2014-07-06T13:30:15Z</time>
      </trkpt>
      <trkpt lat="46.71138" lon="4.43459">
        <ele>303.91</ele>
        <time>2014-07-06T13:30:35Z</time>
      </trkpt>
      <trkpt lat="46.71101" lon="4.4338">
        <ele>303.43</ele>
        <time>2014-07-06T13:30:49Z</time>
      </trkpt>
      <trkpt lat="46.71089" lon="4.43289">
        <ele>303.91</ele>
        <time>2014-07-06T13:31:02Z</time>
      </trkpt>
      <trkpt lat="46.71067" lon="4.4318">
        <ele>303.43</ele>
        <time>2014-07-06T13:31:19Z</time>
      </trkpt>
      <trkpt lat="46.71028" lon="4.43062">
        <ele>303.43</ele>
        <time>2014-07-06T13:31:37Z</time>
      </trkpt>
      <trkpt lat="46.70968" lon="4.42966">
        <ele>303.91</ele>
        <time>2014-07-06T13:31:56Z</time>
      </trkpt>
      <trkpt lat="46.70938" lon="4.42938">
        <ele>303.91</ele>
        <time>2014-07-06T13:32:04Z</time>
      </trkpt>
      <trkpt lat="46.70891" lon="4.42915">
        <ele>303.91</ele>
        <time>2014-07-06T13:32:15Z</time>
      </trkpt>
      <trkpt lat="46.70852" lon="4.42913">
        <ele>303.91</ele>
        <time>2014-07-06T13:32:24Z</time>
      </trkpt>
      <trkpt lat="46.70837" lon="4.4291">
        <ele>303.91</ele>
        <time>2014-07-06T13:32:27Z</time>
      </trkpt>
      <trkpt lat="46.70823" lon="4.42902">
        <ele>303.43</ele>
        <time>2014-07-06T13:32:30Z</time>
      </trkpt>
      <trkpt lat="46.70811" lon="4.42892">
        <ele>303.91</ele>
        <time>2014-07-06T13:32:33Z</time>
      </trkpt>
      <trkpt lat="46.70793" lon="4.42871">
        <ele>303.43</ele>
        <time>2014-07-06T13:32:38Z</time>
      </trkpt>
      <trkpt lat="46.70773" lon="4.42837">
        <ele>303.43</ele>
        <time>2014-07-06T13:32:45Z</time>
      </trkpt>
      <trkpt lat="46.70751" lon="4.42783">
        <ele>303.43</ele>
        <time>2014-07-06T13:32:54Z</time>
      </trkpt>
      <trkpt lat="46.70747" lon="4.42761">
        <ele>302.95</ele>
        <time>2014-07-06T13:32:57Z</time>
      </trkpt>
      <trkpt lat="46.70748" lon="4.42701">
        <ele>303.43</ele>
        <time>2014-07-06T13:33:06Z</time>
      </trkpt>
      <trkpt lat="46.70745" lon="4.42674">
        <ele>303.91</ele>
        <time>2014-07-06T13:33:10Z</time>
      </trkpt>
      <trkpt lat="46.70712" lon="4.42593">
        <ele>303.91</ele>
        <time>2014-07-06T13:33:24Z</time>
      </trkpt>
      <trkpt lat="46.70692" lon="4.42556">
        <ele>303.91</ele>
        <time>2014-07-06T13:33:32Z</time>
      </trkpt>
      <trkpt lat="46.70647" lon="4.42476">
        <ele>303.91</ele>
        <time>2014-07-06T13:33:48Z</time>
      </trkpt>
      <trkpt lat="46.70617" lon="4.42427">
        <ele>303.91</ele>
        <time>2014-07-06T13:34:03Z</time>
      </trkpt>
      <trkpt lat="46.70591" lon="4.42382">
        <ele>302.95</ele>
        <time>2014-07-06T13:34:15Z</time>
      </trkpt>
      <trkpt lat="46.70531" lon="4.42269">
        <ele>301.51</ele>
        <time>2014-07-06T13:34:32Z</time>
      </trkpt>
      <trkpt lat="46.70481" lon="4.42159">
        <ele>302.47</ele>
        <time>2014-07-06T13:34:48Z</time>
      </trkpt>
      <trkpt lat="46.70417" lon="4.42066">
        <ele>302.95</ele>
        <time>2014-07-06T13:35:05Z</time>
      </trkpt>
      <trkpt lat="46.70396" lon="4.42042">
        <ele>302.47</ele>
        <time>2014-07-06T13:35:10Z</time>
      </trkpt>
      <trkpt lat="46.70371" lon="4.41999">
        <ele>302.47</ele>
        <time>2014-07-06T13:35:17Z</time>
      </trkpt>
      <trkpt lat="46.7033" lon="4.41865">
        <ele>302.47</ele>
        <time>2014-07-06T13:35:35Z</time>
      </trkpt>
      <trkpt lat="46.70293" lon="4.41732">
        <ele>300.07</ele>
        <time>2014-07-06T13:35:50Z</time>
      </trkpt>
      <trkpt lat="46.70249" lon="4.41572">
        <ele>300.55</ele>
        <time>2014-07-06T13:36:10Z</time>
      </trkpt>
      <trkpt lat="46.7019" lon="4.41465">
        <ele>300.07</ele>
        <time>2014-07-06T13:36:27Z</time>
      </trkpt>
      <trkpt lat="46.70126" lon="4.41397">
        <ele>300.55</ele>
        <time>2014-07-06T13:36:42Z</time>
      </trkpt>
      <trkpt lat="46.70056" lon="4.41335">
        <ele>300.07</ele>
        <time>2014-07-06T13:36:58Z</time>
      </trkpt>
      <trkpt lat="46.70011" lon="4.41234">
        <ele>299.59</ele>
        <time>2014-07-06T13:37:14Z</time>
      </trkpt>
      <trkpt lat="46.70004" lon="4.41125">
        <ele>300.07</ele>
        <time>2014-07-06T13:37:28Z</time>
      </trkpt>
      <trkpt lat="46.70009" lon="4.41088">
        <ele>302.47</ele>
        <time>2014-07-06T13:37:33Z</time>
      </trkpt>
      <trkpt lat="46.7001" lon="4.41054">
        <ele>300.55</ele>
        <time>2014-07-06T13:37:38Z</time>
      </trkpt>
      <trkpt lat="46.70001" lon="4.40942">
        <ele>300.07</ele>
        <time>2014-07-06T13:37:53Z</time>
      </trkpt>
      <trkpt lat="46.69994" lon="4.40889">
        <ele>300.07</ele>
        <time>2014-07-06T13:38:00Z</time>
      </trkpt>
      <trkpt lat="46.69983" lon="4.40854">
        <ele>300.55</ele>
        <time>2014-07-06T13:38:05Z</time>
      </trkpt>
      <trkpt lat="46.6994" lon="4.40746">
        <ele>300.07</ele>
        <time>2014-07-06T13:38:22Z</time>
      </trkpt>
      <trkpt lat="46.69934" lon="4.40716">
        <ele>300.55</ele>
        <time>2014-07-06T13:38:27Z</time>
      </trkpt>
      <trkpt lat="46.69921" lon="4.40686">
        <ele>299.11</ele>
        <time>2014-07-06T13:38:32Z</time>
      </trkpt>
      <trkpt lat="46.69859" lon="4.40595">
        <ele>298.15</ele>
        <time>2014-07-06T13:38:46Z</time>
      </trkpt>
      <trkpt lat="46.69813" lon="4.40529">
        <ele>297.67</ele>
        <time>2014-07-06T13:38:57Z</time>
      </trkpt>
      <trkpt lat="46.698" lon="4.40502">
        <ele>297.67</ele>
        <time>2014-07-06T13:39:01Z</time>
      </trkpt>
      <trkpt lat="46.69742" lon="4.4039">
        <ele>297.67</ele>
        <time>2014-07-06T13:39:18Z</time>
      </trkpt>
      <trkpt lat="46.6973" lon="4.40364">
        <ele>297.67</ele>
        <time>2014-07-06T13:39:22Z</time>
      </trkpt>
      <trkpt lat="46.69706" lon="4.40268">
        <ele>297.67</ele>
        <time>2014-07-06T13:39:35Z</time>
      </trkpt>
      <trkpt lat="46.69715" lon="4.40222">
        <ele>297.18</ele>
        <time>2014-07-06T13:39:41Z</time>
      </trkpt>
      <trkpt lat="46.69721" lon="4.40207">
        <ele>297.18</ele>
        <time>2014-07-06T13:39:43Z</time>
      </trkpt>
      <trkpt lat="46.69732" lon="4.40188">
        <ele>297.67</ele>
        <time>2014-07-06T13:39:46Z</time>
      </trkpt>
      <trkpt lat="46.69749" lon="4.40166">
        <ele>297.18</ele>
        <time>2014-07-06T13:39:50Z</time>
      </trkpt>
      <trkpt lat="46.69815" lon="4.40093">
        <ele>297.18</ele>
        <time>2014-07-06T13:40:05Z</time>
      </trkpt>
      <trkpt lat="46.69889" lon="4.39996">
        <ele>297.18</ele>
        <time>2014-07-06T13:40:24Z</time>
      </trkpt>
      <trkpt lat="46.69909" lon="4.39971">
        <ele>298.15</ele>
        <time>2014-07-06T13:40:29Z</time>
      </trkpt>
      <trkpt lat="46.69918" lon="4.39952">
        <ele>297.67</ele>
        <time>2014-07-06T13:40:32Z</time>
      </trkpt>
      <trkpt lat="46.6993" lon="4.39863">
        <ele>298.15</ele>
        <time>2014-07-06T13:40:44Z</time>
      </trkpt>
      <trkpt lat="46.69922" lon="4.39812">
        <ele>298.15</ele>
        <time>2014-07-06T13:40:51Z</time>
      </trkpt>
      <trkpt lat="46.69916" lon="4.39798">
        <ele>297.67</ele>
        <time>2014-07-06T13:40:53Z</time>
      </trkpt>
      <trkpt lat="46.69911" lon="4.39785">
        <ele>298.15</ele>
        <time>2014-07-06T13:40:55Z</time>
      </trkpt>
      <trkpt lat="46.69851" lon="4.39692">
        <ele>297.67</ele>
        <time>2014-07-06T13:41:12Z</time>
      </trkpt>
      <trkpt lat="46.69834" lon="4.39669">
        <ele>297.67</ele>
        <time>2014-07-06T13:41:17Z</time>
      </trkpt>
      <trkpt lat="46.69818" lon="4.39655">
        <ele>298.15</ele>
        <time>2014-07-06T13:41:21Z</time>
      </trkpt>
      <trkpt lat="46.69751" lon="4.39613">
        <ele>297.67</ele>
        <time>2014-07-06T13:41:37Z</time>
      </trkpt>
      <trkpt lat="46.69701" lon="4.39587">
        <ele>297.67</ele>
        <time>2014-07-06T13:41:49Z</time>
      </trkpt>
      <trkpt lat="46.69655" lon="4.39561">
        <ele>297.67</ele>
        <time>2014-07-06T13:42:00Z</time>
      </trkpt>
      <trkpt lat="46.69643" lon="4.39551">
        <ele>297.67</ele>
        <time>2014-07-06T13:42:03Z</time>
      </trkpt>
      <trkpt lat="46.69624" lon="4.39528">
        <ele>297.67</ele>
        <time>2014-07-06T13:42:08Z</time>
      </trkpt>
      <trkpt lat="46.69609" lon="4.39491">
        <ele>297.67</ele>
        <time>2014-07-06T13:42:14Z</time>
      </trkpt>
      <trkpt lat="46.69592" lon="4.39387">
        <ele>297.18</ele>
        <time>2014-07-06T13:42:29Z</time>
      </trkpt>
      <trkpt lat="46.69591" lon="4.39366">
        <ele>297.18</ele>
        <time>2014-07-06T13:42:32Z</time>
      </trkpt>
      <trkpt lat="46.69602" lon="4.39249">
        <ele>297.18</ele>
        <time>2014-07-06T13:42:49Z</time>
      </trkpt>
      <trkpt lat="46.69599" lon="4.39176">
        <ele>297.67</ele>
        <time>2014-07-06T13:43:03Z</time>
      </trkpt>
      <trkpt lat="46.69594" lon="4.39134">
        <ele>299.11</ele>
        <time>2014-07-06T13:43:17Z</time>
      </trkpt>
      <trkpt lat="46.69591" lon="4.3913">
        <ele>298.63</ele>
        <time>2014-07-06T13:43:36Z</time>
      </trkpt>
      <trkpt lat="46.69583" lon="4.39127">
        <ele>298.63</ele>
        <time>2014-07-06T13:43:40Z</time>
      </trkpt>
      <trkpt lat="46.69549" lon="4.39149">
        <ele>300.55</ele>
        <time>2014-07-06T13:43:57Z</time>
      </trkpt>
      <trkpt lat="46.69538" lon="4.39149">
        <ele>300.55</ele>
        <time>2014-07-06T13:44:08Z</time>
      </trkpt>
      <trkpt lat="46.69539" lon="4.3915">
        <ele>300.55</ele>
        <time>2014-07-06T13:44:22Z</time>
      </trkpt>
      <trkpt lat="46.69535" lon="4.39184">
        <ele>300.07</ele>
        <time>2014-07-06T13:44:34Z</time>
      </trkpt>
      <trkpt lat="46.69536" lon="4.39186">
        <ele>300.07</ele>
        <time>2014-07-06T13:44:52Z</time>
      </trkpt>
      <trkpt lat="46.69537" lon="4.39187">
        <ele>299.59</ele>
        <time>2014-07-06T13:45:20Z</time>
      </trkpt>
      <trkpt lat="46.69537" lon="4.39185">
        <ele>299.59</ele>
        <time>2014-07-06T13:45:41Z</time>
      </trkpt>
      <trkpt lat="46.69537" lon="4.39186">
        <ele>299.59</ele>
        <time>2014-07-06T13:46:06Z</time>
      </trkpt>
      <trkpt lat="46.6954" lon="4.39183">
        <ele>299.11</ele>
        <time>2014-07-06T13:46:32Z</time>
      </trkpt>
      <trkpt lat="46.69542" lon="4.39182">
        <ele>299.11</ele>
        <time>2014-07-06T13:46:51Z</time>
      </trkpt>
      <trkpt lat="46.69541" lon="4.39184">
        <ele>298.63</ele>
        <time>2014-07-06T13:47:20Z</time>
      </trkpt>
      <trkpt lat="46.69539" lon="4.39179">
        <ele>299.11</ele>
        <time>2014-07-06T13:47:32Z</time>
      </trkpt>
      <trkpt lat="46.69539" lon="4.39178">
        <ele>298.63</ele>
        <time>2014-07-06T13:47:54Z</time>
      </trkpt>
      <trkpt lat="46.69541" lon="4.39176">
        <ele>298.63</ele>
        <time>2014-07-06T13:48:21Z</time>
      </trkpt>
      <trkpt lat="46.69543" lon="4.39176">
        <ele>298.15</ele>
        <time>2014-07-06T13:48:44Z</time>
      </trkpt>
      <trkpt lat="46.69544" lon="4.39173">
        <ele>298.15</ele>
        <time>2014-07-06T13:49:09Z</time>
      </trkpt>
      <trkpt lat="46.69546" lon="4.39174">
        <ele>298.15</ele>
        <time>2014-07-06T13:49:40Z</time>
      </trkpt>
      <trkpt lat="46.6955" lon="4.39172">
        <ele>298.63</ele>
        <time>2014-07-06T13:50:10Z</time>
      </trkpt>
      <trkpt lat="46.69556" lon="4.39167">
        <ele>299.11</ele>
        <time>2014-07-06T13:50:49Z</time>
      </trkpt>
      <trkpt lat="46.69561" lon="4.39165">
        <ele>299.11</ele>
        <time>2014-07-06T13:51:15Z</time>
      </trkpt>
      <trkpt lat="46.69563" lon="4.39166">
        <ele>299.59</ele>
        <time>2014-07-06T13:51:40Z</time>
      </trkpt>
      <trkpt lat="46.69564" lon="4.39165">
        <ele>300.07</ele>
        <time>2014-07-06T13:52:04Z</time>
      </trkpt>
      <trkpt lat="46.69564" lon="4.39162">
        <ele>300.55</ele>
        <time>2014-07-06T13:52:31Z</time>
      </trkpt>
      <trkpt lat="46.69563" lon="4.3916">
        <ele>301.03</ele>
        <time>2014-07-06T13:53:02Z</time>
      </trkpt>
      <trkpt lat="46.69564" lon="4.39161">
        <ele>301.99</ele>
        <time>2014-07-06T13:53:28Z</time>
      </trkpt>
      <trkpt lat="46.69564" lon="4.39162">
        <ele>302.95</ele>
        <time>2014-07-06T13:54:00Z</time>
      </trkpt>
      <trkpt lat="46.69561" lon="4.39164">
        <ele>303.43</ele>
        <time>2014-07-06T13:54:25Z</time>
      </trkpt>
      <trkpt lat="46.69561" lon="4.39161">
        <ele>304.39</ele>
        <time>2014-07-06T13:54:56Z</time>
      </trkpt>
      <trkpt lat="46.69562" lon="4.39156">
        <ele>305.36</ele>
        <time>2014-07-06T13:55:26Z</time>
      </trkpt>
      <trkpt lat="46.69561" lon="4.39159">
        <ele>306.32</ele>
        <time>2014-07-06T13:56:00Z</time>
      </trkpt>
      <trkpt lat="46.69562" lon="4.39157">
        <ele>306.8</ele>
        <time>2014-07-06T13:56:32Z</time>
      </trkpt>
      <trkpt lat="46.69559" lon="4.39168">
        <ele>307.76</ele>
        <time>2014-07-06T13:57:10Z</time>
      </trkpt>
      <trkpt lat="46.69559" lon="4.39165">
        <ele>308.24</ele>
        <time>2014-07-06T13:57:41Z</time>
      </trkpt>
      <trkpt lat="46.6956" lon="4.39163">
        <ele>308.72</ele>
        <time>2014-07-06T13:58:11Z</time>
      </trkpt>
      <trkpt lat="46.6956" lon="4.3916">
        <ele>308.72</ele>
        <time>2014-07-06T13:58:38Z</time>
      </trkpt>
      <trkpt lat="46.69562" lon="4.3916">
        <ele>309.2</ele>
        <time>2014-07-06T13:59:09Z</time>
      </trkpt>
      <trkpt lat="46.69564" lon="4.39158">
        <ele>309.68</ele>
        <time>2014-07-06T13:59:44Z</time>
      </trkpt>
      <trkpt lat="46.69566" lon="4.39155">
        <ele>310.16</ele>
        <time>2014-07-06T14:00:17Z</time>
      </trkpt>
      <trkpt lat="46.6957" lon="4.39154">
        <ele>310.16</ele>
        <time>2014-07-06T14:00:46Z</time>
      </trkpt>
      <trkpt lat="46.69571" lon="4.39149">
        <ele>310.64</ele>
        <time>2014-07-06T14:01:16Z</time>
      </trkpt>
      <trkpt lat="46.69568" lon="4.39148">
        <ele>310.64</ele>
        <time>2014-07-06T14:01:52Z</time>
      </trkpt>
      <trkpt lat="46.69568" lon="4.39149">
        <ele>311.12</ele>
        <time>2014-07-06T14:02:24Z</time>
      </trkpt>
      <trkpt lat="46.69571" lon="4.3915">
        <ele>311.6</ele>
        <time>2014-07-06T14:02:54Z</time>
      </trkpt>
      <trkpt lat="46.69571" lon="4.39148">
        <ele>310.16</ele>
        <time>2014-07-06T14:03:22Z</time>
      </trkpt>
      <trkpt lat="46.69569" lon="4.39146">
        <ele>309.2</ele>
        <time>2014-07-06T14:03:32Z</time>
      </trkpt>
      <trkpt lat="46.69567" lon="4.39147">
        <ele>309.68</ele>
        <time>2014-07-06T14:03:57Z</time>
      </trkpt>
      <trkpt lat="46.69544" lon="4.39181">
        <ele>309.68</ele>
        <time>2014-07-06T14:04:25Z</time>
      </trkpt>
      <trkpt lat="46.6954" lon="4.39184">
        <ele>308.72</ele>
        <time>2014-07-06T14:04:54Z</time>
      </trkpt>
      <trkpt lat="46.69537" lon="4.39182">
        <ele>308.24</ele>
        <time>2014-07-06T14:05:07Z</time>
      </trkpt>
      <trkpt lat="46.69539" lon="4.39185">
        <ele>317.85</ele>
        <time>2014-07-06T14:29:12Z</time>
      </trkpt>
      <trkpt lat="46.69514" lon="4.39185">
        <ele>321.7</ele>
        <time>2014-07-06T14:29:43Z</time>
      </trkpt>
      <trkpt lat="46.69523" lon="4.39185">
        <ele>322.18</ele>
        <time>2014-07-06T14:30:15Z</time>
      </trkpt>
      <trkpt lat="46.69528" lon="4.39181">
        <ele>321.7</ele>
        <time>2014-07-06T14:30:39Z</time>
      </trkpt>
      <trkpt lat="46.69532" lon="4.39181">
        <ele>321.22</ele>
        <time>2014-07-06T14:31:02Z</time>
      </trkpt>
      <trkpt lat="46.69543" lon="4.39197">
        <ele>320.26</ele>
        <time>2014-07-06T14:31:32Z</time>
      </trkpt>
      <trkpt lat="46.69532" lon="4.39196">
        <ele>320.26</ele>
        <time>2014-07-06T14:31:52Z</time>
      </trkpt>
      <trkpt lat="46.69559" lon="4.3919">
        <ele>321.22</ele>
        <time>2014-07-06T14:34:29Z</time>
      </trkpt>
      <trkpt lat="46.69562" lon="4.39186">
        <ele>321.22</ele>
        <time>2014-07-06T14:34:52Z</time>
      </trkpt>
      <trkpt lat="46.69558" lon="4.39188">
        <ele>321.22</ele>
        <time>2014-07-06T14:35:00Z</time>
      </trkpt>
      <trkpt lat="46.69504" lon="4.39206">
        <ele>321.22</ele>
        <time>2014-07-06T14:35:34Z</time>
      </trkpt>
      <trkpt lat="46.69542" lon="4.3919">
        <ele>321.22</ele>
        <time>2014-07-06T14:36:20Z</time>
      </trkpt>
      <trkpt lat="46.69553" lon="4.39187">
        <ele>321.22</ele>
        <time>2014-07-06T14:36:49Z</time>
      </trkpt>
      <trkpt lat="46.6956" lon="4.39184">
        <ele>322.18</ele>
        <time>2014-07-06T14:37:05Z</time>
      </trkpt>
      <trkpt lat="46.69555" lon="4.3918">
        <ele>321.22</ele>
        <time>2014-07-06T14:37:33Z</time>
      </trkpt>
      <trkpt lat="46.69551" lon="4.39174">
        <ele>320.74</ele>
        <time>2014-07-06T14:37:47Z</time>
      </trkpt>
      <trkpt lat="46.6953" lon="4.39182">
        <ele>314.97</ele>
        <time>2014-07-06T14:43:38Z</time>
      </trkpt>
      <trkpt lat="46.69574" lon="4.39187">
        <ele>315.93</ele>
        <time>2014-07-06T14:43:57Z</time>
      </trkpt>
      <trkpt lat="46.69534" lon="4.39187">
        <ele>314.97</ele>
        <time>2014-07-06T14:44:10Z</time>
      </trkpt>
      <trkpt lat="46.69533" lon="4.39186">
        <ele>314.97</ele>
        <time>2014-07-06T14:44:42Z</time>
      </trkpt>
      <trkpt lat="46.69536" lon="4.3918">
        <ele>314.49</ele>
        <time>2014-07-06T14:45:14Z</time>
      </trkpt>
      <trkpt lat="46.69536" lon="4.39184">
        <ele>314.01</ele>
        <time>2014-07-06T14:45:41Z</time>
      </trkpt>
      <trkpt lat="46.69535" lon="4.39183">
        <ele>313.53</ele>
        <time>2014-07-06T14:46:11Z</time>
      </trkpt>
      <trkpt lat="46.69532" lon="4.39184">
        <ele>313.53</ele>
        <time>2014-07-06T14:46:43Z</time>
      </trkpt>
      <trkpt lat="46.69537" lon="4.39183">
        <ele>312.57</ele>
        <time>2014-07-06T14:47:25Z</time>
      </trkpt>
      <trkpt lat="46.69538" lon="4.39182">
        <ele>313.05</ele>
        <time>2014-07-06T14:47:42Z</time>
      </trkpt>
      <trkpt lat="46.6954" lon="4.39179">
        <ele>313.05</ele>
        <time>2014-07-06T14:47:56Z</time>
      </trkpt>
      <trkpt lat="46.69541" lon="4.39178">
        <ele>313.05</ele>
        <time>2014-07-06T14:48:01Z</time>
      </trkpt>
      <trkpt lat="46.69547" lon="4.39155">
        <ele>313.53</ele>
        <time>2014-07-06T14:48:13Z</time>
      </trkpt>
      <trkpt lat="46.69549" lon="4.39154">
        <ele>313.53</ele>
        <time>2014-07-06T14:48:14Z</time>
      </trkpt>
      <trkpt lat="46.69579" lon="4.39139">
        <ele>312.57</ele>
        <time>2014-07-06T14:48:25Z</time>
      </trkpt>
      <trkpt lat="46.69588" lon="4.39126">
        <ele>311.6</ele>
        <time>2014-07-06T14:48:28Z</time>
      </trkpt>
      <trkpt lat="46.69592" lon="4.39112">
        <ele>311.12</ele>
        <time>2014-07-06T14:48:30Z</time>
      </trkpt>
      <trkpt lat="46.69593" lon="4.39106">
        <ele>310.16</ele>
        <time>2014-07-06T14:48:31Z</time>
      </trkpt>
      <trkpt lat="46.69593" lon="4.391">
        <ele>310.16</ele>
        <time>2014-07-06T14:48:32Z</time>
      </trkpt>
      <trkpt lat="46.69582" lon="4.39068">
        <ele>309.2</ele>
        <time>2014-07-06T14:48:37Z</time>
      </trkpt>
      <trkpt lat="46.69546" lon="4.38998">
        <ele>308.72</ele>
        <time>2014-07-06T14:48:52Z</time>
      </trkpt>
      <trkpt lat="46.69516" lon="4.38934">
        <ele>308.72</ele>
        <time>2014-07-06T14:49:09Z</time>
      </trkpt>
      <trkpt lat="46.69477" lon="4.38862">
        <ele>308.72</ele>
        <time>2014-07-06T14:49:26Z</time>
      </trkpt>
      <trkpt lat="46.69426" lon="4.38792">
        <ele>308.72</ele>
        <time>2014-07-06T14:49:44Z</time>
      </trkpt>
      <trkpt lat="46.69377" lon="4.38732">
        <ele>309.2</ele>
        <time>2014-07-06T14:50:01Z</time>
      </trkpt>
      <trkpt lat="46.69342" lon="4.38665">
        <ele>308.72</ele>
        <time>2014-07-06T14:50:17Z</time>
      </trkpt>
      <trkpt lat="46.69296" lon="4.38579">
        <ele>308.72</ele>
        <time>2014-07-06T14:50:36Z</time>
      </trkpt>
      <trkpt lat="46.69285" lon="4.38564">
        <ele>308.72</ele>
        <time>2014-07-06T14:50:40Z</time>
      </trkpt>
      <trkpt lat="46.69227" lon="4.38508">
        <ele>308.72</ele>
        <time>2014-07-06T14:50:58Z</time>
      </trkpt>
      <trkpt lat="46.69207" lon="4.3849">
        <ele>308.24</ele>
        <time>2014-07-06T14:51:04Z</time>
      </trkpt>
      <trkpt lat="46.69151" lon="4.38436">
        <ele>307.76</ele>
        <time>2014-07-06T14:51:20Z</time>
      </trkpt>
      <trkpt lat="46.69097" lon="4.38376">
        <ele>307.76</ele>
        <time>2014-07-06T14:51:37Z</time>
      </trkpt>
      <trkpt lat="46.69037" lon="4.38346">
        <ele>306.8</ele>
        <time>2014-07-06T14:51:52Z</time>
      </trkpt>
      <trkpt lat="46.68991" lon="4.38292">
        <ele>306.8</ele>
        <time>2014-07-06T14:52:07Z</time>
      </trkpt>
      <trkpt lat="46.68946" lon="4.3825">
        <ele>305.36</ele>
        <time>2014-07-06T14:52:22Z</time>
      </trkpt>
      <trkpt lat="46.68878" lon="4.3818">
        <ele>302.95</ele>
        <time>2014-07-06T14:52:39Z</time>
      </trkpt>
      <trkpt lat="46.68859" lon="4.38142">
        <ele>302.95</ele>
        <time>2014-07-06T14:52:46Z</time>
      </trkpt>
      <trkpt lat="46.68848" lon="4.38109">
        <ele>302.95</ele>
        <time>2014-07-06T14:52:52Z</time>
      </trkpt>
      <trkpt lat="46.68842" lon="4.38093">
        <ele>302.47</ele>
        <time>2014-07-06T14:52:55Z</time>
      </trkpt>
      <trkpt lat="46.68828" lon="4.38071">
        <ele>302.47</ele>
        <time>2014-07-06T14:53:00Z</time>
      </trkpt>
      <trkpt lat="46.68812" lon="4.38054">
        <ele>302.47</ele>
        <time>2014-07-06T14:53:05Z</time>
      </trkpt>
      <trkpt lat="46.68751" lon="4.37999">
        <ele>301.51</ele>
        <time>2014-07-06T14:53:23Z</time>
      </trkpt>
      <trkpt lat="46.68722" lon="4.37934">
        <ele>301.03</ele>
        <time>2014-07-06T14:53:38Z</time>
      </trkpt>
      <trkpt lat="46.68679" lon="4.37884">
        <ele>300.07</ele>
        <time>2014-07-06T14:53:53Z</time>
      </trkpt>
      <trkpt lat="46.68624" lon="4.37853">
        <ele>300.07</ele>
        <time>2014-07-06T14:54:09Z</time>
      </trkpt>
      <trkpt lat="46.68601" lon="4.3784">
        <ele>300.07</ele>
        <time>2014-07-06T14:54:15Z</time>
      </trkpt>
      <trkpt lat="46.68587" lon="4.37833">
        <ele>300.07</ele>
        <time>2014-07-06T14:54:19Z</time>
      </trkpt>
      <trkpt lat="46.68562" lon="4.37819">
        <ele>300.07</ele>
        <time>2014-07-06T14:54:26Z</time>
      </trkpt>
      <trkpt lat="46.68523" lon="4.37797">
        <ele>299.11</ele>
        <time>2014-07-06T14:54:36Z</time>
      </trkpt>
      <trkpt lat="46.68465" lon="4.37755">
        <ele>298.63</ele>
        <time>2014-07-06T14:54:51Z</time>
      </trkpt>
      <trkpt lat="46.6845" lon="4.37741">
        <ele>298.15</ele>
        <time>2014-07-06T14:54:55Z</time>
      </trkpt>
      <trkpt lat="46.68404" lon="4.37669">
        <ele>299.11</ele>
        <time>2014-07-06T14:55:11Z</time>
      </trkpt>
      <trkpt lat="46.68371" lon="4.37584">
        <ele>297.67</ele>
        <time>2014-07-06T14:55:28Z</time>
      </trkpt>
      <trkpt lat="46.68345" lon="4.37526">
        <ele>297.67</ele>
        <time>2014-07-06T14:55:44Z</time>
      </trkpt>
      <trkpt lat="46.68366" lon="4.37497">
        <ele>296.7</ele>
        <time>2014-07-06T14:55:54Z</time>
      </trkpt>
      <trkpt lat="46.68364" lon="4.37467">
        <ele>296.22</ele>
        <time>2014-07-06T14:56:02Z</time>
      </trkpt>
      <trkpt lat="46.6833" lon="4.37409">
        <ele>296.7</ele>
        <time>2014-07-06T14:56:16Z</time>
      </trkpt>
      <trkpt lat="46.68322" lon="4.37389">
        <ele>295.26</ele>
        <time>2014-07-06T14:56:22Z</time>
      </trkpt>
      <trkpt lat="46.68333" lon="4.37385">
        <ele>294.78</ele>
        <time>2014-07-06T14:56:31Z</time>
      </trkpt>
      <trkpt lat="46.68337" lon="4.37383">
        <ele>294.3</ele>
        <time>2014-07-06T14:56:41Z</time>
      </trkpt>
      <trkpt lat="46.68342" lon="4.37388">
        <ele>294.3</ele>
        <time>2014-07-06T14:57:04Z</time>
      </trkpt>
      <trkpt lat="46.68349" lon="4.37398">
        <ele>293.82</ele>
        <time>2014-07-06T14:57:36Z</time>
      </trkpt>
      <trkpt lat="46.68343" lon="4.374">
        <ele>292.86</ele>
        <time>2014-07-06T14:58:11Z</time>
      </trkpt>
      <trkpt lat="46.68341" lon="4.37395">
        <ele>290.94</ele>
        <time>2014-07-06T14:58:49Z</time>
      </trkpt>
      <trkpt lat="46.68335" lon="4.37394">
        <ele>289.01</ele>
        <time>2014-07-06T14:59:28Z</time>
      </trkpt>
      <trkpt lat="46.68339" lon="4.37388">
        <ele>289.01</ele>
        <time>2014-07-06T14:59:56Z</time>
      </trkpt>
      <trkpt lat="46.68338" lon="4.37375">
        <ele>289.01</ele>
        <time>2014-07-06T15:00:21Z</time>
      </trkpt>
      <trkpt lat="46.68345" lon="4.3735">
        <ele>288.05</ele>
        <time>2014-07-06T15:01:00Z</time>
      </trkpt>
      <trkpt lat="46.68345" lon="4.3735">
        <ele>269.31</ele>
        <time>2014-07-06T18:30:06Z</time>
      </trkpt>
      <trkpt lat="46.67691" lon="4.36457">
        <ele>269.31</ele>
        <time>2014-07-06T18:30:07Z</time>
      </trkpt>
      <trkpt lat="46.67675" lon="4.36443">
        <ele>271.23</ele>
        <time>2014-07-06T18:30:41Z</time>
      </trkpt>
      <trkpt lat="46.67675" lon="4.36444">
        <ele>274.11</ele>
        <time>2014-07-06T18:30:47Z</time>
      </trkpt>
      <trkpt lat="46.67676" lon="4.36444">
        <ele>277.48</ele>
        <time>2014-07-06T18:30:53Z</time>
      </trkpt>
      <trkpt lat="46.67677" lon="4.36447">
        <ele>280.84</ele>
        <time>2014-07-06T18:30:59Z</time>
      </trkpt>
      <trkpt lat="46.67682" lon="4.36452">
        <ele>283.73</ele>
        <time>2014-07-06T18:31:14Z</time>
      </trkpt>
      <trkpt lat="46.67685" lon="4.36459">
        <ele>282.77</ele>
        <time>2014-07-06T18:31:47Z</time>
      </trkpt>
      <trkpt lat="46.6768" lon="4.36454">
        <ele>282.77</ele>
        <time>2014-07-06T18:32:22Z</time>
      </trkpt>
      <trkpt lat="46.67677" lon="4.3645">
        <ele>282.77</ele>
        <time>2014-07-06T18:33:03Z</time>
      </trkpt>
      <trkpt lat="46.67677" lon="4.36454">
        <ele>282.77</ele>
        <time>2014-07-06T18:33:42Z</time>
      </trkpt>
      <trkpt lat="46.6768" lon="4.36453">
        <ele>282.77</ele>
        <time>2014-07-06T18:34:25Z</time>
      </trkpt>
      <trkpt lat="46.67678" lon="4.36455">
        <ele>282.28</ele>
        <time>2014-07-06T18:34:41Z</time>
      </trkpt>
      <trkpt lat="46.67678" lon="4.36454">
        <ele>258.25</ele>
        <time>2014-07-07T07:46:41Z</time>
      </trkpt>
      <trkpt lat="46.67231" lon="4.35883">
        <ele>249.6</ele>
        <time>2014-07-07T07:46:48Z</time>
      </trkpt>
      <trkpt lat="46.67237" lon="4.35889">
        <ele>248.16</ele>
        <time>2014-07-07T07:46:49Z</time>
      </trkpt>
      <trkpt lat="46.67266" lon="4.35916">
        <ele>247.68</ele>
        <time>2014-07-07T07:47:07Z</time>
      </trkpt>
      <trkpt lat="46.67272" lon="4.35926">
        <ele>251.52</ele>
        <time>2014-07-07T07:47:23Z</time>
      </trkpt>
      <trkpt lat="46.67275" lon="4.3593">
        <ele>254.89</ele>
        <time>2014-07-07T07:47:26Z</time>
      </trkpt>
      <trkpt lat="46.67277" lon="4.35932">
        <ele>258.25</ele>
        <time>2014-07-07T07:47:29Z</time>
      </trkpt>
      <trkpt lat="46.6728" lon="4.35934">
        <ele>261.62</ele>
        <time>2014-07-07T07:47:33Z</time>
      </trkpt>
      <trkpt lat="46.67283" lon="4.35937">
        <ele>264.98</ele>
        <time>2014-07-07T07:47:38Z</time>
      </trkpt>
      <trkpt lat="46.67283" lon="4.35936">
        <ele>266.42</ele>
        <time>2014-07-07T07:47:40Z</time>
      </trkpt>
      <trkpt lat="46.67283" lon="4.35934">
        <ele>269.31</ele>
        <time>2014-07-07T07:47:45Z</time>
      </trkpt>
      <trkpt lat="46.67284" lon="4.35933">
        <ele>272.67</ele>
        <time>2014-07-07T07:47:52Z</time>
      </trkpt>
      <trkpt lat="46.67282" lon="4.35931">
        <ele>276.04</ele>
        <time>2014-07-07T07:48:01Z</time>
      </trkpt>
      <trkpt lat="46.67282" lon="4.35931">
        <ele>316.89</ele>
        <time>2014-07-07T07:48:09Z</time>
      </trkpt>
      <trkpt lat="46.67282" lon="4.35931">
        <ele>316.89</ele>
        <time>2014-07-07T07:48:10Z</time>
      </trkpt>
      <trkpt lat="46.67282" lon="4.35931">
        <ele>286.13</ele>
        <time>2014-07-07T07:48:13Z</time>
      </trkpt>
      <trkpt lat="46.67281" lon="4.35931">
        <ele>286.13</ele>
        <time>2014-07-07T07:48:14Z</time>
      </trkpt>
      <trkpt lat="46.67282" lon="4.35936">
        <ele>287.09</ele>
        <time>2014-07-07T07:48:42Z</time>
      </trkpt>
      <trkpt lat="46.67281" lon="4.35934">
        <ele>286.13</ele>
        <time>2014-07-07T07:49:03Z</time>
      </trkpt>
      <trkpt lat="46.67281" lon="4.35928">
        <ele>286.13</ele>
        <time>2014-07-07T07:49:23Z</time>
      </trkpt>
      <trkpt lat="46.67281" lon="4.35928">
        <ele>286.13</ele>
        <time>2014-07-07T07:49:34Z</time>
      </trkpt>
      <trkpt lat="46.67281" lon="4.35928">
        <ele>286.13</ele>
        <time>2014-07-07T07:49:35Z</time>
      </trkpt>
      <trkpt lat="46.67287" lon="4.35921">
        <ele>286.13</ele>
        <time>2014-07-07T07:49:48Z</time>
      </trkpt>
      <trkpt lat="46.67291" lon="4.35904">
        <ele>286.13</ele>
        <time>2014-07-07T07:49:58Z</time>
      </trkpt>
      <trkpt lat="46.67297" lon="4.35885">
        <ele>288.53</ele>
        <time>2014-07-07T07:50:05Z</time>
      </trkpt>
      <trkpt lat="46.67297" lon="4.35883">
        <ele>288.53</ele>
        <time>2014-07-07T07:50:06Z</time>
      </trkpt>
      <trkpt lat="46.67284" lon="4.35867">
        <ele>288.53</ele>
        <time>2014-07-07T07:50:15Z</time>
      </trkpt>
      <trkpt lat="46.67273" lon="4.35877">
        <ele>288.53</ele>
        <time>2014-07-07T07:50:20Z</time>
      </trkpt>
      <trkpt lat="46.67257" lon="4.35928">
        <ele>289.97</ele>
        <time>2014-07-07T07:50:34Z</time>
      </trkpt>
      <trkpt lat="46.67236" lon="4.35928">
        <ele>290.46</ele>
        <time>2014-07-07T07:50:49Z</time>
      </trkpt>
      <trkpt lat="46.67234" lon="4.35935">
        <ele>289.97</ele>
        <time>2014-07-07T07:51:07Z</time>
      </trkpt>
      <trkpt lat="46.67231" lon="4.35946">
        <ele>289.97</ele>
        <time>2014-07-07T07:51:42Z</time>
      </trkpt>
      <trkpt lat="46.67234" lon="4.35946">
        <ele>290.46</ele>
        <time>2014-07-07T07:52:09Z</time>
      </trkpt>
      <trkpt lat="46.67236" lon="4.35952">
        <ele>290.46</ele>
        <time>2014-07-07T07:52:41Z</time>
      </trkpt>
      <trkpt lat="46.67236" lon="4.35954">
        <ele>290.94</ele>
        <time>2014-07-07T07:53:08Z</time>
      </trkpt>
      <trkpt lat="46.67236" lon="4.35956">
        <ele>290.94</ele>
        <time>2014-07-07T07:53:40Z</time>
      </trkpt>
      <trkpt lat="46.67235" lon="4.35955">
        <ele>290.94</ele>
        <time>2014-07-07T07:53:41Z</time>
      </trkpt>
      <trkpt lat="46.67218" lon="4.35939">
        <ele>290.94</ele>
        <time>2014-07-07T07:53:50Z</time>
      </trkpt>
      <trkpt lat="46.6718" lon="4.35897">
        <ele>290.94</ele>
        <time>2014-07-07T07:54:06Z</time>
      </trkpt>
      <trkpt lat="46.67132" lon="4.3586">
        <ele>290.94</ele>
        <time>2014-07-07T07:54:22Z</time>
      </trkpt>
      <trkpt lat="46.67121" lon="4.35856">
        <ele>290.94</ele>
        <time>2014-07-07T07:54:30Z</time>
      </trkpt>
      <trkpt lat="46.67114" lon="4.35856">
        <ele>291.42</ele>
        <time>2014-07-07T07:54:46Z</time>
      </trkpt>
      <trkpt lat="46.67112" lon="4.35857">
        <ele>290.94</ele>
        <time>2014-07-07T07:55:07Z</time>
      </trkpt>
      <trkpt lat="46.67111" lon="4.35852">
        <ele>291.42</ele>
        <time>2014-07-07T07:55:34Z</time>
      </trkpt>
      <trkpt lat="46.6711" lon="4.35855">
        <ele>291.42</ele>
        <time>2014-07-07T07:55:59Z</time>
      </trkpt>
      <trkpt lat="46.67109" lon="4.35851">
        <ele>291.42</ele>
        <time>2014-07-07T07:56:08Z</time>
      </trkpt>
      <trkpt lat="46.67094" lon="4.35813">
        <ele>290.94</ele>
        <time>2014-07-07T07:56:20Z</time>
      </trkpt>
      <trkpt lat="46.67092" lon="4.3581">
        <ele>290.94</ele>
        <time>2014-07-07T07:56:21Z</time>
      </trkpt>
      <trkpt lat="46.6706" lon="4.35741">
        <ele>290.94</ele>
        <time>2014-07-07T07:56:37Z</time>
      </trkpt>
      <trkpt lat="46.67018" lon="4.35669">
        <ele>290.46</ele>
        <time>2014-07-07T07:56:54Z</time>
      </trkpt>
      <trkpt lat="46.66959" lon="4.356">
        <ele>290.94</ele>
        <time>2014-07-07T07:57:12Z</time>
      </trkpt>
      <trkpt lat="46.66949" lon="4.35588">
        <ele>290.94</ele>
        <time>2014-07-07T07:57:15Z</time>
      </trkpt>
      <trkpt lat="46.66877" lon="4.3551">
        <ele>290.46</ele>
        <time>2014-07-07T07:57:35Z</time>
      </trkpt>
      <trkpt lat="46.66841" lon="4.35477">
        <ele>290.46</ele>
        <time>2014-07-07T07:57:45Z</time>
      </trkpt>
      <trkpt lat="46.66777" lon="4.35428">
        <ele>290.46</ele>
        <time>2014-07-07T07:58:02Z</time>
      </trkpt>
      <trkpt lat="46.66709" lon="4.35373">
        <ele>290.46</ele>
        <time>2014-07-07T07:58:20Z</time>
      </trkpt>
      <trkpt lat="46.66656" lon="4.35323">
        <ele>290.94</ele>
        <time>2014-07-07T07:58:35Z</time>
      </trkpt>
      <trkpt lat="46.66635" lon="4.35302">
        <ele>290.94</ele>
        <time>2014-07-07T07:58:41Z</time>
      </trkpt>
      <trkpt lat="46.66629" lon="4.35294">
        <ele>290.94</ele>
        <time>2014-07-07T07:58:43Z</time>
      </trkpt>
      <trkpt lat="46.66596" lon="4.35258">
        <ele>290.46</ele>
        <time>2014-07-07T07:58:52Z</time>
      </trkpt>
      <trkpt lat="46.6655" lon="4.35205">
        <ele>290.46</ele>
        <time>2014-07-07T07:59:05Z</time>
      </trkpt>
      <trkpt lat="46.66489" lon="4.35136">
        <ele>289.97</ele>
        <time>2014-07-07T07:59:22Z</time>
      </trkpt>
      <trkpt lat="46.66406" lon="4.35044">
        <ele>290.46</ele>
        <time>2014-07-07T07:59:45Z</time>
      </trkpt>
      <trkpt lat="46.66358" lon="4.34993">
        <ele>289.97</ele>
        <time>2014-07-07T07:59:59Z</time>
      </trkpt>
      <trkpt lat="46.66299" lon="4.34936">
        <ele>289.97</ele>
        <time>2014-07-07T08:00:16Z</time>
      </trkpt>
      <trkpt lat="46.66289" lon="4.34925">
        <ele>289.97</ele>
        <time>2014-07-07T08:00:19Z</time>
      </trkpt>
      <trkpt lat="46.66246" lon="4.34865">
        <ele>291.9</ele>
        <time>2014-07-07T08:00:36Z</time>
      </trkpt>
      <trkpt lat="46.66201" lon="4.3481">
        <ele>290.94</ele>
        <time>2014-07-07T08:00:51Z</time>
      </trkpt>
      <trkpt lat="46.66117" lon="4.34739">
        <ele>290.94</ele>
        <time>2014-07-07T08:01:11Z</time>
      </trkpt>
      <trkpt lat="46.66071" lon="4.347">
        <ele>293.34</ele>
        <time>2014-07-07T08:01:28Z</time>
      </trkpt>
      <trkpt lat="46.66059" lon="4.34691">
        <ele>293.34</ele>
        <time>2014-07-07T08:01:40Z</time>
      </trkpt>
      <trkpt lat="46.6606" lon="4.34693">
        <ele>293.34</ele>
        <time>2014-07-07T08:02:07Z</time>
      </trkpt>
      <trkpt lat="46.66061" lon="4.34694">
        <ele>293.82</ele>
        <time>2014-07-07T08:02:31Z</time>
      </trkpt>
      <trkpt lat="46.66061" lon="4.34693">
        <ele>293.34</ele>
        <time>2014-07-07T08:03:10Z</time>
      </trkpt>
      <trkpt lat="46.66057" lon="4.34691">
        <ele>292.86</ele>
        <time>2014-07-07T08:03:45Z</time>
      </trkpt>
      <trkpt lat="46.66026" lon="4.34674">
        <ele>291.9</ele>
        <time>2014-07-07T08:03:57Z</time>
      </trkpt>
      <trkpt lat="46.65949" lon="4.34636">
        <ele>289.49</ele>
        <time>2014-07-07T08:04:11Z</time>
      </trkpt>
      <trkpt lat="46.65943" lon="4.34633">
        <ele>289.49</ele>
        <time>2014-07-07T08:04:12Z</time>
      </trkpt>
      <trkpt lat="46.65882" lon="4.34588">
        <ele>289.49</ele>
        <time>2014-07-07T08:04:24Z</time>
      </trkpt>
      <trkpt lat="46.65804" lon="4.34518">
        <ele>289.97</ele>
        <time>2014-07-07T08:04:42Z</time>
      </trkpt>
      <trkpt lat="46.65729" lon="4.34434">
        <ele>289.49</ele>
        <time>2014-07-07T08:05:00Z</time>
      </trkpt>
      <trkpt lat="46.65659" lon="4.34353">
        <ele>289.49</ele>
        <time>2014-07-07T08:05:18Z</time>
      </trkpt>
      <trkpt lat="46.65637" lon="4.34322">
        <ele>289.49</ele>
        <time>2014-07-07T08:05:24Z</time>
      </trkpt>
      <trkpt lat="46.65602" lon="4.34253">
        <ele>289.49</ele>
        <time>2014-07-07T08:05:39Z</time>
      </trkpt>
      <trkpt lat="46.65596" lon="4.34247">
        <ele>289.49</ele>
        <time>2014-07-07T08:05:49Z</time>
      </trkpt>
      <trkpt lat="46.65597" lon="4.34252">
        <ele>289.49</ele>
        <time>2014-07-07T08:06:07Z</time>
      </trkpt>
      <trkpt lat="46.65597" lon="4.34257">
        <ele>289.01</ele>
        <time>2014-07-07T08:06:49Z</time>
      </trkpt>
      <trkpt lat="46.65598" lon="4.34253">
        <ele>289.01</ele>
        <time>2014-07-07T08:07:23Z</time>
      </trkpt>
      <trkpt lat="46.65596" lon="4.34247">
        <ele>289.01</ele>
        <time>2014-07-07T08:07:42Z</time>
      </trkpt>
      <trkpt lat="46.65594" lon="4.34251">
        <ele>288.53</ele>
        <time>2014-07-07T08:08:13Z</time>
      </trkpt>
      <trkpt lat="46.65595" lon="4.34248">
        <ele>288.53</ele>
        <time>2014-07-07T08:08:21Z</time>
      </trkpt>
      <trkpt lat="46.65593" lon="4.34236">
        <ele>288.53</ele>
        <time>2014-07-07T08:08:27Z</time>
      </trkpt>
      <trkpt lat="46.65566" lon="4.34196">
        <ele>289.49</ele>
        <time>2014-07-07T08:08:41Z</time>
      </trkpt>
      <trkpt lat="46.65535" lon="4.34141">
        <ele>291.42</ele>
        <time>2014-07-07T08:08:58Z</time>
      </trkpt>
      <trkpt lat="46.65497" lon="4.34079">
        <ele>289.49</ele>
        <time>2014-07-07T08:09:14Z</time>
      </trkpt>
      <trkpt lat="46.65456" lon="4.34025">
        <ele>289.49</ele>
        <time>2014-07-07T08:09:27Z</time>
      </trkpt>
      <trkpt lat="46.65382" lon="4.33981">
        <ele>288.53</ele>
        <time>2014-07-07T08:09:44Z</time>
      </trkpt>
      <trkpt lat="46.65291" lon="4.33939">
        <ele>286.61</ele>
        <time>2014-07-07T08:10:01Z</time>
      </trkpt>
      <trkpt lat="46.65208" lon="4.3394">
        <ele>286.13</ele>
        <time>2014-07-07T08:10:17Z</time>
      </trkpt>
      <trkpt lat="46.65118" lon="4.33943">
        <ele>286.13</ele>
        <time>2014-07-07T08:10:35Z</time>
      </trkpt>
      <trkpt lat="46.65049" lon="4.33913">
        <ele>285.65</ele>
        <time>2014-07-07T08:10:50Z</time>
      </trkpt>
      <trkpt lat="46.65038" lon="4.33901">
        <ele>285.65</ele>
        <time>2014-07-07T08:10:53Z</time>
      </trkpt>
      <trkpt lat="46.65014" lon="4.33876">
        <ele>285.65</ele>
        <time>2014-07-07T08:11:04Z</time>
      </trkpt>
      <trkpt lat="46.65015" lon="4.33877">
        <ele>285.65</ele>
        <time>2014-07-07T08:11:30Z</time>
      </trkpt>
      <trkpt lat="46.65015" lon="4.33876">
        <ele>285.65</ele>
        <time>2014-07-07T08:11:55Z</time>
      </trkpt>
      <trkpt lat="46.65015" lon="4.33875">
        <ele>285.65</ele>
        <time>2014-07-07T08:11:56Z</time>
      </trkpt>
      <trkpt lat="46.64998" lon="4.33837">
        <ele>284.69</ele>
        <time>2014-07-07T08:12:08Z</time>
      </trkpt>
      <trkpt lat="46.6495" lon="4.33758">
        <ele>284.69</ele>
        <time>2014-07-07T08:12:25Z</time>
      </trkpt>
      <trkpt lat="46.64914" lon="4.33691">
        <ele>284.69</ele>
        <time>2014-07-07T08:12:37Z</time>
      </trkpt>
      <trkpt lat="46.64862" lon="4.33589">
        <ele>284.69</ele>
        <time>2014-07-07T08:12:55Z</time>
      </trkpt>
      <trkpt lat="46.64837" lon="4.33569">
        <ele>284.69</ele>
        <time>2014-07-07T08:13:01Z</time>
      </trkpt>
      <trkpt lat="46.64743" lon="4.33553">
        <ele>284.69</ele>
        <time>2014-07-07T08:13:20Z</time>
      </trkpt>
      <trkpt lat="46.64732" lon="4.33554">
        <ele>284.69</ele>
        <time>2014-07-07T08:13:22Z</time>
      </trkpt>
      <trkpt lat="46.64689" lon="4.33584">
        <ele>284.21</ele>
        <time>2014-07-07T08:13:31Z</time>
      </trkpt>
      <trkpt lat="46.64676" lon="4.33594">
        <ele>284.21</ele>
        <time>2014-07-07T08:13:34Z</time>
      </trkpt>
      <trkpt lat="46.64661" lon="4.33602">
        <ele>284.21</ele>
        <time>2014-07-07T08:13:37Z</time>
      </trkpt>
      <trkpt lat="46.6463" lon="4.33606">
        <ele>284.21</ele>
        <time>2014-07-07T08:13:43Z</time>
      </trkpt>
      <trkpt lat="46.64555" lon="4.3358">
        <ele>284.21</ele>
        <time>2014-07-07T08:13:58Z</time>
      </trkpt>
      <trkpt lat="46.64533" lon="4.33548">
        <ele>284.69</ele>
        <time>2014-07-07T08:14:04Z</time>
      </trkpt>
      <trkpt lat="46.64528" lon="4.3352">
        <ele>284.69</ele>
        <time>2014-07-07T08:14:08Z</time>
      </trkpt>
      <trkpt lat="46.64527" lon="4.33436">
        <ele>284.69</ele>
        <time>2014-07-07T08:14:20Z</time>
      </trkpt>
      <trkpt lat="46.6449" lon="4.33346">
        <ele>284.69</ele>
        <time>2014-07-07T08:14:35Z</time>
      </trkpt>
      <trkpt lat="46.6443" lon="4.33289">
        <ele>285.65</ele>
        <time>2014-07-07T08:14:51Z</time>
      </trkpt>
      <trkpt lat="46.64383" lon="4.33265">
        <ele>287.09</ele>
        <time>2014-07-07T08:15:07Z</time>
      </trkpt>
      <trkpt lat="46.64352" lon="4.33273">
        <ele>287.09</ele>
        <time>2014-07-07T08:15:17Z</time>
      </trkpt>
      <trkpt lat="46.6428" lon="4.33313">
        <ele>285.65</ele>
        <time>2014-07-07T08:15:31Z</time>
      </trkpt>
      <trkpt lat="46.6418" lon="4.33369">
        <ele>283.73</ele>
        <time>2014-07-07T08:15:48Z</time>
      </trkpt>
      <trkpt lat="46.64156" lon="4.33377">
        <ele>283.73</ele>
        <time>2014-07-07T08:15:52Z</time>
      </trkpt>
      <trkpt lat="46.64074" lon="4.33361">
        <ele>283.73</ele>
        <time>2014-07-07T08:16:07Z</time>
      </trkpt>
      <trkpt lat="46.64043" lon="4.33357">
        <ele>283.73</ele>
        <time>2014-07-07T08:16:13Z</time>
      </trkpt>
      <trkpt lat="46.63954" lon="4.33394">
        <ele>283.25</ele>
        <time>2014-07-07T08:16:31Z</time>
      </trkpt>
      <trkpt lat="46.63859" lon="4.33422">
        <ele>283.25</ele>
        <time>2014-07-07T08:16:49Z</time>
      </trkpt>
      <trkpt lat="46.6376" lon="4.33448">
        <ele>283.73</ele>
        <time>2014-07-07T08:17:09Z</time>
      </trkpt>
      <trkpt lat="46.6366" lon="4.33477">
        <ele>283.73</ele>
        <time>2014-07-07T08:17:29Z</time>
      </trkpt>
      <trkpt lat="46.63571" lon="4.33468">
        <ele>283.73</ele>
        <time>2014-07-07T08:17:46Z</time>
      </trkpt>
      <trkpt lat="46.63494" lon="4.33455">
        <ele>283.73</ele>
        <time>2014-07-07T08:18:02Z</time>
      </trkpt>
      <trkpt lat="46.63407" lon="4.33497">
        <ele>283.73</ele>
        <time>2014-07-07T08:18:20Z</time>
      </trkpt>
      <trkpt lat="46.63313" lon="4.33506">
        <ele>283.73</ele>
        <time>2014-07-07T08:18:39Z</time>
      </trkpt>
      <trkpt lat="46.63235" lon="4.3348">
        <ele>283.73</ele>
        <time>2014-07-07T08:18:55Z</time>
      </trkpt>
      <trkpt lat="46.6319" lon="4.33408">
        <ele>284.21</ele>
        <time>2014-07-07T08:19:09Z</time>
      </trkpt>
      <trkpt lat="46.63158" lon="4.33343">
        <ele>287.09</ele>
        <time>2014-07-07T08:19:25Z</time>
      </trkpt>
      <trkpt lat="46.63112" lon="4.33274">
        <ele>284.69</ele>
        <time>2014-07-07T08:19:38Z</time>
      </trkpt>
      <trkpt lat="46.63096" lon="4.3326">
        <ele>284.21</ele>
        <time>2014-07-07T08:19:41Z</time>
      </trkpt>
      <trkpt lat="46.63008" lon="4.33243">
        <ele>284.21</ele>
        <time>2014-07-07T08:19:57Z</time>
      </trkpt>
      <trkpt lat="46.63003" lon="4.33245">
        <ele>284.21</ele>
        <time>2014-07-07T08:19:58Z</time>
      </trkpt>
      <trkpt lat="46.62972" lon="4.33273">
        <ele>284.21</ele>
        <time>2014-07-07T08:20:05Z</time>
      </trkpt>
      <trkpt lat="46.62938" lon="4.33329">
        <ele>283.73</ele>
        <time>2014-07-07T08:20:14Z</time>
      </trkpt>
      <trkpt lat="46.62917" lon="4.33341">
        <ele>283.73</ele>
        <time>2014-07-07T08:20:18Z</time>
      </trkpt>
      <trkpt lat="46.62822" lon="4.33356">
        <ele>283.73</ele>
        <time>2014-07-07T08:20:36Z</time>
      </trkpt>
      <trkpt lat="46.62712" lon="4.33386">
        <ele>283.73</ele>
        <time>2014-07-07T08:20:58Z</time>
      </trkpt>
      <trkpt lat="46.6263" lon="4.33388">
        <ele>283.73</ele>
        <time>2014-07-07T08:21:14Z</time>
      </trkpt>
      <trkpt lat="46.62539" lon="4.33333">
        <ele>284.21</ele>
        <time>2014-07-07T08:21:33Z</time>
      </trkpt>
      <trkpt lat="46.6253" lon="4.33326">
        <ele>284.21</ele>
        <time>2014-07-07T08:21:35Z</time>
      </trkpt>
      <trkpt lat="46.62514" lon="4.33301">
        <ele>284.21</ele>
        <time>2014-07-07T08:21:40Z</time>
      </trkpt>
      <trkpt lat="46.6251" lon="4.33287">
        <ele>284.21</ele>
        <time>2014-07-07T08:21:42Z</time>
      </trkpt>
      <trkpt lat="46.62496" lon="4.33202">
        <ele>284.21</ele>
        <time>2014-07-07T08:21:56Z</time>
      </trkpt>
      <trkpt lat="46.62468" lon="4.33077">
        <ele>283.73</ele>
        <time>2014-07-07T08:22:15Z</time>
      </trkpt>
      <trkpt lat="46.62474" lon="4.3296">
        <ele>283.73</ele>
        <time>2014-07-07T08:22:33Z</time>
      </trkpt>
      <trkpt lat="46.62473" lon="4.32947">
        <ele>284.21</ele>
        <time>2014-07-07T08:22:35Z</time>
      </trkpt>
      <trkpt lat="46.62445" lon="4.32854">
        <ele>284.21</ele>
        <time>2014-07-07T08:22:52Z</time>
      </trkpt>
      <trkpt lat="46.62421" lon="4.32801">
        <ele>286.61</ele>
        <time>2014-07-07T08:23:06Z</time>
      </trkpt>
      <trkpt lat="46.62389" lon="4.32738">
        <ele>285.17</ele>
        <time>2014-07-07T08:23:19Z</time>
      </trkpt>
      <trkpt lat="46.6237" lon="4.32717">
        <ele>284.69</ele>
        <time>2014-07-07T08:23:23Z</time>
      </trkpt>
      <trkpt lat="46.62343" lon="4.32705">
        <ele>284.69</ele>
        <time>2014-07-07T08:23:28Z</time>
      </trkpt>
      <trkpt lat="46.62295" lon="4.32725">
        <ele>284.21</ele>
        <time>2014-07-07T08:23:37Z</time>
      </trkpt>
      <trkpt lat="46.62205" lon="4.32788">
        <ele>283.73</ele>
        <time>2014-07-07T08:23:55Z</time>
      </trkpt>
      <trkpt lat="46.62137" lon="4.32765">
        <ele>284.21</ele>
        <time>2014-07-07T08:24:08Z</time>
      </trkpt>
      <trkpt lat="46.62029" lon="4.32698">
        <ele>284.21</ele>
        <time>2014-07-07T08:24:31Z</time>
      </trkpt>
      <trkpt lat="46.61945" lon="4.32627">
        <ele>284.21</ele>
        <time>2014-07-07T08:24:50Z</time>
      </trkpt>
      <trkpt lat="46.61942" lon="4.32621">
        <ele>284.21</ele>
        <time>2014-07-07T08:24:51Z</time>
      </trkpt>
      <trkpt lat="46.6194" lon="4.32617">
        <ele>264.5</ele>
        <time>2014-07-07T09:26:25Z</time>
      </trkpt>
      <trkpt lat="46.51575" lon="4.19507">
        <ele>263.06</ele>
        <time>2014-07-07T09:26:33Z</time>
      </trkpt>
      <trkpt lat="46.51572" lon="4.19509">
        <ele>262.1</ele>
        <time>2014-07-07T09:26:51Z</time>
      </trkpt>
      <trkpt lat="46.51575" lon="4.19507">
        <ele>262.1</ele>
        <time>2014-07-07T09:27:11Z</time>
      </trkpt>
      <trkpt lat="46.51575" lon="4.1951">
        <ele>261.14</ele>
        <time>2014-07-07T09:27:27Z</time>
      </trkpt>
      <trkpt lat="46.51575" lon="4.19505">
        <ele>262.1</ele>
        <time>2014-07-07T09:27:59Z</time>
      </trkpt>
      <trkpt lat="46.51575" lon="4.19501">
        <ele>263.54</ele>
        <time>2014-07-07T09:28:28Z</time>
      </trkpt>
      <trkpt lat="46.51574" lon="4.19507">
        <ele>262.1</ele>
        <time>2014-07-07T09:28:58Z</time>
      </trkpt>
      <trkpt lat="46.51577" lon="4.19513">
        <ele>262.1</ele>
        <time>2014-07-07T09:29:37Z</time>
      </trkpt>
      <trkpt lat="46.51575" lon="4.19511">
        <ele>262.1</ele>
        <time>2014-07-07T09:30:11Z</time>
      </trkpt>
      <trkpt lat="46.51575" lon="4.19507">
        <ele>262.1</ele>
        <time>2014-07-07T09:30:45Z</time>
      </trkpt>
      <trkpt lat="46.51569" lon="4.19509">
        <ele>262.1</ele>
        <time>2014-07-07T09:31:04Z</time>
      </trkpt>
      <trkpt lat="46.51569" lon="4.1951">
        <ele>262.1</ele>
        <time>2014-07-07T09:31:39Z</time>
      </trkpt>
      <trkpt lat="46.5157" lon="4.19518">
        <ele>262.1</ele>
        <time>2014-07-07T09:32:01Z</time>
      </trkpt>
      <trkpt lat="46.51564" lon="4.19531">
        <ele>263.06</ele>
        <time>2014-07-07T09:32:19Z</time>
      </trkpt>
      <trkpt lat="46.51563" lon="4.19529">
        <ele>263.06</ele>
        <time>2014-07-07T09:32:39Z</time>
      </trkpt>
      <trkpt lat="46.51566" lon="4.19533">
        <ele>263.06</ele>
        <time>2014-07-07T09:33:15Z</time>
      </trkpt>
      <trkpt lat="46.51563" lon="4.19529">
        <ele>263.06</ele>
        <time>2014-07-07T09:33:32Z</time>
      </trkpt>
      <trkpt lat="46.51559" lon="4.19528">
        <ele>263.06</ele>
        <time>2014-07-07T09:33:37Z</time>
      </trkpt>
      <trkpt lat="46.51557" lon="4.19526">
        <ele>263.06</ele>
        <time>2014-07-07T09:33:50Z</time>
      </trkpt>
      <trkpt lat="46.51555" lon="4.19528">
        <ele>263.06</ele>
        <time>2014-07-07T09:34:30Z</time>
      </trkpt>
      <trkpt lat="46.51557" lon="4.19524">
        <ele>262.58</ele>
        <time>2014-07-07T09:34:59Z</time>
      </trkpt>
      <trkpt lat="46.51555" lon="4.19528">
        <ele>262.58</ele>
        <time>2014-07-07T09:35:33Z</time>
      </trkpt>
      <trkpt lat="46.51557" lon="4.19526">
        <ele>262.58</ele>
        <time>2014-07-07T09:36:08Z</time>
      </trkpt>
      <trkpt lat="46.51557" lon="4.19524">
        <ele>262.58</ele>
        <time>2014-07-07T09:36:43Z</time>
      </trkpt>
      <trkpt lat="46.51557" lon="4.19524">
        <ele>262.58</ele>
        <time>2014-07-07T09:37:11Z</time>
      </trkpt>
      <trkpt lat="46.51557" lon="4.19524">
        <ele>262.58</ele>
        <time>2014-07-07T09:37:47Z</time>
      </trkpt>
      <trkpt lat="46.51556" lon="4.19525">
        <ele>262.58</ele>
        <time>2014-07-07T09:38:06Z</time>
      </trkpt>
      <trkpt lat="46.51555" lon="4.19525">
        <ele>263.06</ele>
        <time>2014-07-07T09:38:21Z</time>
      </trkpt>
      <trkpt lat="46.51527" lon="4.19517">
        <ele>264.5</ele>
        <time>2014-07-07T09:38:34Z</time>
      </trkpt>
      <trkpt lat="46.51457" lon="4.19496">
        <ele>263.06</ele>
        <time>2014-07-07T09:38:55Z</time>
      </trkpt>
      <trkpt lat="46.5138" lon="4.19474">
        <ele>262.58</ele>
        <time>2014-07-07T09:39:14Z</time>
      </trkpt>
      <trkpt lat="46.51336" lon="4.19461">
        <ele>262.58</ele>
        <time>2014-07-07T09:39:25Z</time>
      </trkpt>
      <trkpt lat="46.51254" lon="4.19439">
        <ele>263.06</ele>
        <time>2014-07-07T09:39:45Z</time>
      </trkpt>
      <trkpt lat="46.51158" lon="4.19409">
        <ele>262.58</ele>
        <time>2014-07-07T09:40:08Z</time>
      </trkpt>
      <trkpt lat="46.51077" lon="4.19386">
        <ele>263.54</ele>
        <time>2014-07-07T09:40:29Z</time>
      </trkpt>
      <trkpt lat="46.51003" lon="4.19359">
        <ele>262.58</ele>
        <time>2014-07-07T09:40:48Z</time>
      </trkpt>
      <trkpt lat="46.50948" lon="4.19318">
        <ele>262.58</ele>
        <time>2014-07-07T09:41:02Z</time>
      </trkpt>
      <trkpt lat="46.50934" lon="4.19282">
        <ele>262.58</ele>
        <time>2014-07-07T09:41:08Z</time>
      </trkpt>
      <trkpt lat="46.50929" lon="4.19177">
        <ele>262.58</ele>
        <time>2014-07-07T09:41:25Z</time>
      </trkpt>
      <trkpt lat="46.5092" lon="4.19077">
        <ele>263.54</ele>
        <time>2014-07-07T09:41:43Z</time>
      </trkpt>
      <trkpt lat="46.50872" lon="4.19007">
        <ele>262.58</ele>
        <time>2014-07-07T09:41:58Z</time>
      </trkpt>
      <trkpt lat="46.50825" lon="4.1891">
        <ele>262.58</ele>
        <time>2014-07-07T09:42:16Z</time>
      </trkpt>
      <trkpt lat="46.50823" lon="4.18905">
        <ele>262.58</ele>
        <time>2014-07-07T09:42:17Z</time>
      </trkpt>
      <trkpt lat="46.50774" lon="4.18816">
        <ele>263.06</ele>
        <time>2014-07-07T09:42:36Z</time>
      </trkpt>
      <trkpt lat="46.50705" lon="4.18733">
        <ele>262.58</ele>
        <time>2014-07-07T09:42:57Z</time>
      </trkpt>
      <trkpt lat="46.50657" lon="4.1867">
        <ele>264.5</ele>
        <time>2014-07-07T09:43:16Z</time>
      </trkpt>
      <trkpt lat="46.50628" lon="4.18638">
        <ele>264.5</ele>
        <time>2014-07-07T09:43:29Z</time>
      </trkpt>
      <trkpt lat="46.5062" lon="4.18629">
        <ele>264.02</ele>
        <time>2014-07-07T09:43:31Z</time>
      </trkpt>
      <trkpt lat="46.50601" lon="4.18615">
        <ele>263.54</ele>
        <time>2014-07-07T09:43:35Z</time>
      </trkpt>
      <trkpt lat="46.50519" lon="4.18602">
        <ele>262.58</ele>
        <time>2014-07-07T09:43:50Z</time>
      </trkpt>
      <trkpt lat="46.50436" lon="4.18561">
        <ele>262.58</ele>
        <time>2014-07-07T09:44:08Z</time>
      </trkpt>
      <trkpt lat="46.50361" lon="4.18511">
        <ele>262.58</ele>
        <time>2014-07-07T09:44:26Z</time>
      </trkpt>
      <trkpt lat="46.50286" lon="4.18489">
        <ele>262.1</ele>
        <time>2014-07-07T09:44:43Z</time>
      </trkpt>
      <trkpt lat="46.50182" lon="4.18464">
        <ele>260.65</ele>
        <time>2014-07-07T09:45:02Z</time>
      </trkpt>
      <trkpt lat="46.50094" lon="4.18443">
        <ele>261.14</ele>
        <time>2014-07-07T09:45:21Z</time>
      </trkpt>
      <trkpt lat="46.50005" lon="4.18418">
        <ele>261.62</ele>
        <time>2014-07-07T09:45:42Z</time>
      </trkpt>
      <trkpt lat="46.49921" lon="4.18401">
        <ele>260.65</ele>
        <time>2014-07-07T09:46:01Z</time>
      </trkpt>
      <trkpt lat="46.49859" lon="4.18387">
        <ele>260.17</ele>
        <time>2014-07-07T09:46:15Z</time>
      </trkpt>
      <trkpt lat="46.49767" lon="4.18362">
        <ele>260.17</ele>
        <time>2014-07-07T09:46:36Z</time>
      </trkpt>
      <trkpt lat="46.49672" lon="4.1834">
        <ele>260.17</ele>
        <time>2014-07-07T09:46:58Z</time>
      </trkpt>
      <trkpt lat="46.49572" lon="4.18316">
        <ele>259.69</ele>
        <time>2014-07-07T09:47:20Z</time>
      </trkpt>
      <trkpt lat="46.49501" lon="4.18297">
        <ele>259.69</ele>
        <time>2014-07-07T09:47:36Z</time>
      </trkpt>
      <trkpt lat="46.49406" lon="4.18274">
        <ele>259.69</ele>
        <time>2014-07-07T09:47:57Z</time>
      </trkpt>
      <trkpt lat="46.49322" lon="4.18253">
        <ele>259.69</ele>
        <time>2014-07-07T09:48:16Z</time>
      </trkpt>
      <trkpt lat="46.49226" lon="4.18229">
        <ele>260.17</ele>
        <time>2014-07-07T09:48:38Z</time>
      </trkpt>
      <trkpt lat="46.49221" lon="4.18228">
        <ele>259.69</ele>
        <time>2014-07-07T09:48:39Z</time>
      </trkpt>
      <trkpt lat="46.49127" lon="4.18201">
        <ele>260.17</ele>
        <time>2014-07-07T09:49:01Z</time>
      </trkpt>
      <trkpt lat="46.49061" lon="4.18134">
        <ele>260.17</ele>
        <time>2014-07-07T09:49:19Z</time>
      </trkpt>
      <trkpt lat="46.48998" lon="4.1808">
        <ele>259.69</ele>
        <time>2014-07-07T09:49:36Z</time>
      </trkpt>
      <trkpt lat="46.48909" lon="4.18028">
        <ele>259.69</ele>
        <time>2014-07-07T09:49:57Z</time>
      </trkpt>
      <trkpt lat="46.48822" lon="4.17977">
        <ele>259.69</ele>
        <time>2014-07-07T09:50:18Z</time>
      </trkpt>
      <trkpt lat="46.48746" lon="4.17927">
        <ele>259.69</ele>
        <time>2014-07-07T09:50:37Z</time>
      </trkpt>
      <trkpt lat="46.48669" lon="4.17855">
        <ele>259.69</ele>
        <time>2014-07-07T09:50:58Z</time>
      </trkpt>
      <trkpt lat="46.48595" lon="4.17804">
        <ele>260.17</ele>
        <time>2014-07-07T09:51:18Z</time>
      </trkpt>
      <trkpt lat="46.48509" lon="4.17781">
        <ele>259.69</ele>
        <time>2014-07-07T09:51:38Z</time>
      </trkpt>
      <trkpt lat="46.48422" lon="4.17755">
        <ele>259.69</ele>
        <time>2014-07-07T09:51:58Z</time>
      </trkpt>
      <trkpt lat="46.48344" lon="4.17731">
        <ele>259.69</ele>
        <time>2014-07-07T09:52:16Z</time>
      </trkpt>
      <trkpt lat="46.48263" lon="4.17704">
        <ele>259.69</ele>
        <time>2014-07-07T09:52:35Z</time>
      </trkpt>
      <trkpt lat="46.48186" lon="4.1766">
        <ele>259.69</ele>
        <time>2014-07-07T09:52:55Z</time>
      </trkpt>
      <trkpt lat="46.48104" lon="4.17624">
        <ele>259.69</ele>
        <time>2014-07-07T09:53:15Z</time>
      </trkpt>
      <trkpt lat="46.48022" lon="4.17595">
        <ele>259.69</ele>
        <time>2014-07-07T09:53:33Z</time>
      </trkpt>
      <trkpt lat="46.47965" lon="4.17536">
        <ele>259.69</ele>
        <time>2014-07-07T09:53:49Z</time>
      </trkpt>
      <trkpt lat="46.47927" lon="4.17473">
        <ele>260.17</ele>
        <time>2014-07-07T09:54:04Z</time>
      </trkpt>
      <trkpt lat="46.47879" lon="4.17398">
        <ele>257.77</ele>
        <time>2014-07-07T09:54:17Z</time>
      </trkpt>
      <trkpt lat="46.47827" lon="4.17321">
        <ele>258.25</ele>
        <time>2014-07-07T09:54:32Z</time>
      </trkpt>
      <trkpt lat="46.47797" lon="4.17297">
        <ele>257.77</ele>
        <time>2014-07-07T09:54:40Z</time>
      </trkpt>
      <trkpt lat="46.4772" lon="4.17265">
        <ele>257.77</ele>
        <time>2014-07-07T09:54:58Z</time>
      </trkpt>
      <trkpt lat="46.47648" lon="4.17237">
        <ele>258.25</ele>
        <time>2014-07-07T09:55:15Z</time>
      </trkpt>
      <trkpt lat="46.47571" lon="4.17219">
        <ele>257.77</ele>
        <time>2014-07-07T09:55:33Z</time>
      </trkpt>
      <trkpt lat="46.47567" lon="4.17218">
        <ele>257.77</ele>
        <time>2014-07-07T09:55:34Z</time>
      </trkpt>
      <trkpt lat="46.47498" lon="4.17206">
        <ele>257.29</ele>
        <time>2014-07-07T09:55:49Z</time>
      </trkpt>
      <trkpt lat="46.47403" lon="4.17187">
        <ele>257.77</ele>
        <time>2014-07-07T09:56:10Z</time>
      </trkpt>
      <trkpt lat="46.47381" lon="4.1718">
        <ele>257.29</ele>
        <time>2014-07-07T09:56:15Z</time>
      </trkpt>
      <trkpt lat="46.47347" lon="4.17162">
        <ele>257.29</ele>
        <time>2014-07-07T09:56:23Z</time>
      </trkpt>
      <trkpt lat="46.47289" lon="4.17086">
        <ele>257.29</ele>
        <time>2014-07-07T09:56:40Z</time>
      </trkpt>
      <trkpt lat="46.47234" lon="4.17004">
        <ele>258.25</ele>
        <time>2014-07-07T09:56:58Z</time>
      </trkpt>
      <trkpt lat="46.47227" lon="4.16996">
        <ele>257.77</ele>
        <time>2014-07-07T09:57:00Z</time>
      </trkpt>
      <trkpt lat="46.47222" lon="4.16987">
        <ele>257.77</ele>
        <time>2014-07-07T09:57:02Z</time>
      </trkpt>
      <trkpt lat="46.47184" lon="4.16932">
        <ele>257.77</ele>
        <time>2014-07-07T09:57:15Z</time>
      </trkpt>
      <trkpt lat="46.47124" lon="4.16846">
        <ele>257.77</ele>
        <time>2014-07-07T09:57:35Z</time>
      </trkpt>
      <trkpt lat="46.47063" lon="4.16755">
        <ele>257.77</ele>
        <time>2014-07-07T09:57:56Z</time>
      </trkpt>
      <trkpt lat="46.47011" lon="4.1668">
        <ele>257.77</ele>
        <time>2014-07-07T09:58:14Z</time>
      </trkpt>
      <trkpt lat="46.46964" lon="4.1663">
        <ele>258.73</ele>
        <time>2014-07-07T09:58:30Z</time>
      </trkpt>
      <trkpt lat="46.46931" lon="4.16608">
        <ele>259.69</ele>
        <time>2014-07-07T09:58:43Z</time>
      </trkpt>
      <trkpt lat="46.46879" lon="4.16575">
        <ele>257.77</ele>
        <time>2014-07-07T09:58:54Z</time>
      </trkpt>
      <trkpt lat="46.46819" lon="4.16526">
        <ele>257.29</ele>
        <time>2014-07-07T09:59:09Z</time>
      </trkpt>
      <trkpt lat="46.46799" lon="4.16506">
        <ele>257.29</ele>
        <time>2014-07-07T09:59:14Z</time>
      </trkpt>
      <trkpt lat="46.46732" lon="4.16438">
        <ele>256.81</ele>
        <time>2014-07-07T09:59:30Z</time>
      </trkpt>
      <trkpt lat="46.46706" lon="4.16422">
        <ele>256.81</ele>
        <time>2014-07-07T09:59:36Z</time>
      </trkpt>
      <trkpt lat="46.46658" lon="4.16413">
        <ele>256.81</ele>
        <time>2014-07-07T09:59:47Z</time>
      </trkpt>
      <trkpt lat="46.46573" lon="4.16402">
        <ele>256.81</ele>
        <time>2014-07-07T10:00:06Z</time>
      </trkpt>
      <trkpt lat="46.46492" lon="4.16387">
        <ele>256.33</ele>
        <time>2014-07-07T10:00:24Z</time>
      </trkpt>
      <trkpt lat="46.46422" lon="4.16351">
        <ele>256.33</ele>
        <time>2014-07-07T10:00:40Z</time>
      </trkpt>
      <trkpt lat="46.4634" lon="4.16297">
        <ele>256.33</ele>
        <time>2014-07-07T10:00:59Z</time>
      </trkpt>
      <trkpt lat="46.4627" lon="4.16254">
        <ele>256.33</ele>
        <time>2014-07-07T10:01:16Z</time>
      </trkpt>
      <trkpt lat="46.46255" lon="4.16245">
        <ele>256.33</ele>
        <time>2014-07-07T10:01:20Z</time>
      </trkpt>
      <trkpt lat="46.46248" lon="4.16239">
        <ele>256.33</ele>
        <time>2014-07-07T10:01:22Z</time>
      </trkpt>
      <trkpt lat="46.4624" lon="4.16235">
        <ele>256.33</ele>
        <time>2014-07-07T10:01:24Z</time>
      </trkpt>
      <trkpt lat="46.46167" lon="4.16184">
        <ele>256.33</ele>
        <time>2014-07-07T10:01:43Z</time>
      </trkpt>
      <trkpt lat="46.46123" lon="4.16147">
        <ele>256.33</ele>
        <time>2014-07-07T10:01:54Z</time>
      </trkpt>
      <trkpt lat="46.46077" lon="4.16096">
        <ele>256.33</ele>
        <time>2014-07-07T10:02:07Z</time>
      </trkpt>
      <trkpt lat="46.4601" lon="4.16022">
        <ele>255.85</ele>
        <time>2014-07-07T10:02:26Z</time>
      </trkpt>
      <trkpt lat="46.45986" lon="4.15996">
        <ele>255.85</ele>
        <time>2014-07-07T10:02:33Z</time>
      </trkpt>
      <trkpt lat="46.45922" lon="4.1593">
        <ele>256.33</ele>
        <time>2014-07-07T10:02:52Z</time>
      </trkpt>
      <trkpt lat="46.45864" lon="4.15891">
        <ele>255.85</ele>
        <time>2014-07-07T10:03:08Z</time>
      </trkpt>
      <trkpt lat="46.45807" lon="4.15858">
        <ele>255.85</ele>
        <time>2014-07-07T10:03:23Z</time>
      </trkpt>
      <trkpt lat="46.45747" lon="4.15823">
        <ele>255.85</ele>
        <time>2014-07-07T10:03:38Z</time>
      </trkpt>
      <trkpt lat="46.45684" lon="4.15778">
        <ele>255.37</ele>
        <time>2014-07-07T10:03:55Z</time>
      </trkpt>
      <trkpt lat="46.45628" lon="4.15742">
        <ele>255.85</ele>
        <time>2014-07-07T10:04:11Z</time>
      </trkpt>
      <trkpt lat="46.4558" lon="4.15745">
        <ele>255.37</ele>
        <time>2014-07-07T10:04:22Z</time>
      </trkpt>
      <trkpt lat="46.45497" lon="4.15773">
        <ele>255.37</ele>
        <time>2014-07-07T10:04:41Z</time>
      </trkpt>
      <trkpt lat="46.45418" lon="4.15795">
        <ele>255.37</ele>
        <time>2014-07-07T10:04:58Z</time>
      </trkpt>
      <trkpt lat="46.45322" lon="4.15811">
        <ele>255.37</ele>
        <time>2014-07-07T10:05:19Z</time>
      </trkpt>
      <trkpt lat="46.45289" lon="4.15812">
        <ele>255.37</ele>
        <time>2014-07-07T10:05:26Z</time>
      </trkpt>
      <trkpt lat="46.45268" lon="4.15806">
        <ele>255.37</ele>
        <time>2014-07-07T10:05:31Z</time>
      </trkpt>
      <trkpt lat="46.4525" lon="4.15795">
        <ele>255.37</ele>
        <time>2014-07-07T10:05:35Z</time>
      </trkpt>
      <trkpt lat="46.45214" lon="4.15764">
        <ele>255.37</ele>
        <time>2014-07-07T10:05:44Z</time>
      </trkpt>
      <trkpt lat="46.45203" lon="4.15753">
        <ele>255.85</ele>
        <time>2014-07-07T10:05:47Z</time>
      </trkpt>
      <trkpt lat="46.4516" lon="4.15721">
        <ele>257.29</ele>
        <time>2014-07-07T10:06:02Z</time>
      </trkpt>
      <trkpt lat="46.45139" lon="4.15711">
        <ele>258.25</ele>
        <time>2014-07-07T10:06:16Z</time>
      </trkpt>
      <trkpt lat="46.45138" lon="4.1571">
        <ele>258.25</ele>
        <time>2014-07-07T10:06:34Z</time>
      </trkpt>
      <trkpt lat="46.45122" lon="4.15709">
        <ele>256.81</ele>
        <time>2014-07-07T10:06:43Z</time>
      </trkpt>
      <trkpt lat="46.45093" lon="4.15707">
        <ele>254.89</ele>
        <time>2014-07-07T10:06:49Z</time>
      </trkpt>
      <trkpt lat="46.45071" lon="4.15692">
        <ele>254.89</ele>
        <time>2014-07-07T10:06:55Z</time>
      </trkpt>
      <trkpt lat="46.45056" lon="4.15681">
        <ele>254.41</ele>
        <time>2014-07-07T10:06:59Z</time>
      </trkpt>
      <trkpt lat="46.45013" lon="4.15668">
        <ele>254.89</ele>
        <time>2014-07-07T10:07:13Z</time>
      </trkpt>
      <trkpt lat="46.44976" lon="4.15656">
        <ele>254.89</ele>
        <time>2014-07-07T10:07:28Z</time>
      </trkpt>
      <trkpt lat="46.44972" lon="4.15655">
        <ele>254.89</ele>
        <time>2014-07-07T10:07:35Z</time>
      </trkpt>
      <trkpt lat="46.44967" lon="4.15655">
        <ele>254.89</ele>
        <time>2014-07-07T10:07:51Z</time>
      </trkpt>
      <trkpt lat="46.44964" lon="4.15649">
        <ele>254.89</ele>
        <time>2014-07-07T10:08:25Z</time>
      </trkpt>
      <trkpt lat="46.44964" lon="4.15649">
        <ele>254.89</ele>
        <time>2014-07-07T10:08:37Z</time>
      </trkpt>
      <trkpt lat="46.44927" lon="4.15637">
        <ele>254.89</ele>
        <time>2014-07-07T10:08:51Z</time>
      </trkpt>
      <trkpt lat="46.44881" lon="4.15621">
        <ele>254.89</ele>
        <time>2014-07-07T10:09:04Z</time>
      </trkpt>
      <trkpt lat="46.44821" lon="4.1562">
        <ele>254.89</ele>
        <time>2014-07-07T10:09:19Z</time>
      </trkpt>
      <trkpt lat="46.44745" lon="4.15599">
        <ele>255.37</ele>
        <time>2014-07-07T10:09:37Z</time>
      </trkpt>
      <trkpt lat="46.44736" lon="4.15596">
        <ele>255.37</ele>
        <time>2014-07-07T10:09:39Z</time>
      </trkpt>
      <trkpt lat="46.44719" lon="4.15589">
        <ele>255.37</ele>
        <time>2014-07-07T10:09:43Z</time>
      </trkpt>
      <trkpt lat="46.44632" lon="4.15558">
        <ele>255.37</ele>
        <time>2014-07-07T10:10:03Z</time>
      </trkpt>
      <trkpt lat="46.4456" lon="4.1551">
        <ele>255.37</ele>
        <time>2014-07-07T10:10:20Z</time>
      </trkpt>
      <trkpt lat="46.44482" lon="4.15457">
        <ele>254.89</ele>
        <time>2014-07-07T10:10:38Z</time>
      </trkpt>
      <trkpt lat="46.44393" lon="4.15398">
        <ele>254.89</ele>
        <time>2014-07-07T10:10:59Z</time>
      </trkpt>
      <trkpt lat="46.44322" lon="4.15328">
        <ele>254.41</ele>
        <time>2014-07-07T10:11:17Z</time>
      </trkpt>
      <trkpt lat="46.4427" lon="4.15238">
        <ele>254.89</ele>
        <time>2014-07-07T10:11:34Z</time>
      </trkpt>
      <trkpt lat="46.44234" lon="4.15162">
        <ele>254.89</ele>
        <time>2014-07-07T10:11:48Z</time>
      </trkpt>
      <trkpt lat="46.44231" lon="4.15145">
        <ele>254.89</ele>
        <time>2014-07-07T10:11:51Z</time>
      </trkpt>
      <trkpt lat="46.44244" lon="4.15045">
        <ele>254.89</ele>
        <time>2014-07-07T10:12:06Z</time>
      </trkpt>
      <trkpt lat="46.44254" lon="4.1501">
        <ele>254.89</ele>
        <time>2014-07-07T10:12:12Z</time>
      </trkpt>
      <trkpt lat="46.44264" lon="4.14975">
        <ele>254.89</ele>
        <time>2014-07-07T10:12:18Z</time>
      </trkpt>
      <trkpt lat="46.44275" lon="4.14864">
        <ele>254.89</ele>
        <time>2014-07-07T10:12:36Z</time>
      </trkpt>
      <trkpt lat="46.44285" lon="4.14776">
        <ele>254.41</ele>
        <time>2014-07-07T10:12:50Z</time>
      </trkpt>
      <trkpt lat="46.44294" lon="4.14703">
        <ele>254.41</ele>
        <time>2014-07-07T10:13:02Z</time>
      </trkpt>
      <trkpt lat="46.44305" lon="4.14596">
        <ele>254.41</ele>
        <time>2014-07-07T10:13:19Z</time>
      </trkpt>
      <trkpt lat="46.44312" lon="4.14525">
        <ele>254.89</ele>
        <time>2014-07-07T10:13:31Z</time>
      </trkpt>
      <trkpt lat="46.44319" lon="4.14456">
        <ele>254.41</ele>
        <time>2014-07-07T10:13:42Z</time>
      </trkpt>
      <trkpt lat="46.4432" lon="4.14342">
        <ele>254.41</ele>
        <time>2014-07-07T10:14:00Z</time>
      </trkpt>
      <trkpt lat="46.44315" lon="4.14218">
        <ele>254.41</ele>
        <time>2014-07-07T10:14:20Z</time>
      </trkpt>
      <trkpt lat="46.44316" lon="4.14201">
        <ele>254.89</ele>
        <time>2014-07-07T10:14:23Z</time>
      </trkpt>
      <trkpt lat="46.44317" lon="4.14169">
        <ele>254.41</ele>
        <time>2014-07-07T10:14:28Z</time>
      </trkpt>
      <trkpt lat="46.44321" lon="4.14063">
        <ele>254.41</ele>
        <time>2014-07-07T10:14:45Z</time>
      </trkpt>
      <trkpt lat="46.4432" lon="4.13937">
        <ele>254.41</ele>
        <time>2014-07-07T10:15:05Z</time>
      </trkpt>
      <trkpt lat="46.4432" lon="4.13814">
        <ele>254.41</ele>
        <time>2014-07-07T10:15:25Z</time>
      </trkpt>
      <trkpt lat="46.4432" lon="4.13686">
        <ele>253.93</ele>
        <time>2014-07-07T10:15:45Z</time>
      </trkpt>
      <trkpt lat="46.44319" lon="4.13565">
        <ele>253.93</ele>
        <time>2014-07-07T10:16:04Z</time>
      </trkpt>
      <trkpt lat="46.44319" lon="4.13466">
        <ele>253.93</ele>
        <time>2014-07-07T10:16:21Z</time>
      </trkpt>
      <trkpt lat="46.44319" lon="4.13377">
        <ele>253.93</ele>
        <time>2014-07-07T10:16:36Z</time>
      </trkpt>
      <trkpt lat="46.44318" lon="4.13273">
        <ele>254.41</ele>
        <time>2014-07-07T10:16:52Z</time>
      </trkpt>
      <trkpt lat="46.44317" lon="4.13145">
        <ele>253.93</ele>
        <time>2014-07-07T10:17:12Z</time>
      </trkpt>
      <trkpt lat="46.44316" lon="4.13013">
        <ele>253.93</ele>
        <time>2014-07-07T10:17:32Z</time>
      </trkpt>
      <trkpt lat="46.44317" lon="4.12932">
        <ele>253.93</ele>
        <time>2014-07-07T10:17:47Z</time>
      </trkpt>
      <trkpt lat="46.44319" lon="4.12842">
        <ele>253.93</ele>
        <time>2014-07-07T10:18:02Z</time>
      </trkpt>
      <trkpt lat="46.44341" lon="4.12747">
        <ele>253.93</ele>
        <time>2014-07-07T10:18:20Z</time>
      </trkpt>
      <trkpt lat="46.44372" lon="4.12651">
        <ele>253.93</ele>
        <time>2014-07-07T10:18:38Z</time>
      </trkpt>
      <trkpt lat="46.44401" lon="4.12558">
        <ele>253.93</ele>
        <time>2014-07-07T10:18:55Z</time>
      </trkpt>
      <trkpt lat="46.44432" lon="4.1247">
        <ele>252</ele>
        <time>2014-07-07T10:19:08Z</time>
      </trkpt>
      <trkpt lat="46.44467" lon="4.12367">
        <ele>251.52</ele>
        <time>2014-07-07T10:19:25Z</time>
      </trkpt>
      <trkpt lat="46.44469" lon="4.12361">
        <ele>251.52</ele>
        <time>2014-07-07T10:19:26Z</time>
      </trkpt>
      <trkpt lat="46.44501" lon="4.12253">
        <ele>251.52</ele>
        <time>2014-07-07T10:19:44Z</time>
      </trkpt>
      <trkpt lat="46.44536" lon="4.12146">
        <ele>251.52</ele>
        <time>2014-07-07T10:20:02Z</time>
      </trkpt>
      <trkpt lat="46.44569" lon="4.12047">
        <ele>251.52</ele>
        <time>2014-07-07T10:20:20Z</time>
      </trkpt>
      <trkpt lat="46.44601" lon="4.12007">
        <ele>251.04</ele>
        <time>2014-07-07T10:20:32Z</time>
      </trkpt>
      <trkpt lat="46.44624" lon="4.11967">
        <ele>251.04</ele>
        <time>2014-07-07T10:20:46Z</time>
      </trkpt>
      <trkpt lat="46.44645" lon="4.1189">
        <ele>251.52</ele>
        <time>2014-07-07T10:21:03Z</time>
      </trkpt>
      <trkpt lat="46.44675" lon="4.11822">
        <ele>251.04</ele>
        <time>2014-07-07T10:21:18Z</time>
      </trkpt>
      <trkpt lat="46.44698" lon="4.11788">
        <ele>251.52</ele>
        <time>2014-07-07T10:21:31Z</time>
      </trkpt>
      <trkpt lat="46.44717" lon="4.11766">
        <ele>253.44</ele>
        <time>2014-07-07T10:21:44Z</time>
      </trkpt>
      <trkpt lat="46.44719" lon="4.11762">
        <ele>253.44</ele>
        <time>2014-07-07T10:21:58Z</time>
      </trkpt>
      <trkpt lat="46.4472" lon="4.1176">
        <ele>253.44</ele>
        <time>2014-07-07T10:22:25Z</time>
      </trkpt>
      <trkpt lat="46.44722" lon="4.11759">
        <ele>253.44</ele>
        <time>2014-07-07T10:22:49Z</time>
      </trkpt>
      <trkpt lat="46.44723" lon="4.11756">
        <ele>253.93</ele>
        <time>2014-07-07T10:23:15Z</time>
      </trkpt>
      <trkpt lat="46.4473" lon="4.11743">
        <ele>252.96</ele>
        <time>2014-07-07T10:23:27Z</time>
      </trkpt>
      <trkpt lat="46.44754" lon="4.11704">
        <ele>251.04</ele>
        <time>2014-07-07T10:23:38Z</time>
      </trkpt>
      <trkpt lat="46.44783" lon="4.11663">
        <ele>252</ele>
        <time>2014-07-07T10:23:51Z</time>
      </trkpt>
      <trkpt lat="46.44805" lon="4.1163">
        <ele>252</ele>
        <time>2014-07-07T10:24:03Z</time>
      </trkpt>
      <trkpt lat="46.44835" lon="4.11586">
        <ele>251.52</ele>
        <time>2014-07-07T10:24:16Z</time>
      </trkpt>
      <trkpt lat="46.4488" lon="4.11514">
        <ele>252</ele>
        <time>2014-07-07T10:24:35Z</time>
      </trkpt>
      <trkpt lat="46.44908" lon="4.11461">
        <ele>251.52</ele>
        <time>2014-07-07T10:24:48Z</time>
      </trkpt>
      <trkpt lat="46.4493" lon="4.11425">
        <ele>251.52</ele>
        <time>2014-07-07T10:25:01Z</time>
      </trkpt>
      <trkpt lat="46.4495" lon="4.114">
        <ele>251.52</ele>
        <time>2014-07-07T10:25:15Z</time>
      </trkpt>
      <trkpt lat="46.4495" lon="4.11396">
        <ele>251.04</ele>
        <time>2014-07-07T10:25:33Z</time>
      </trkpt>
      <trkpt lat="46.44948" lon="4.11395">
        <ele>249.12</ele>
        <time>2014-07-07T10:25:55Z</time>
      </trkpt>
      <trkpt lat="46.44948" lon="4.11396">
        <ele>251.52</ele>
        <time>2014-07-07T10:26:05Z</time>
      </trkpt>
      <trkpt lat="46.44948" lon="4.11396">
        <ele>251.52</ele>
        <time>2014-07-07T10:26:25Z</time>
      </trkpt>
      <trkpt lat="46.44948" lon="4.11392">
        <ele>251.04</ele>
        <time>2014-07-07T10:26:33Z</time>
      </trkpt>
      <trkpt lat="46.44947" lon="4.11389">
        <ele>251.04</ele>
        <time>2014-07-07T10:26:35Z</time>
      </trkpt>
      <trkpt lat="46.44951" lon="4.11382">
        <ele>251.04</ele>
        <time>2014-07-07T10:26:39Z</time>
      </trkpt>
      <trkpt lat="46.44954" lon="4.11379">
        <ele>251.04</ele>
        <time>2014-07-07T10:26:41Z</time>
      </trkpt>
      <trkpt lat="46.44954" lon="4.1139">
        <ele>251.52</ele>
        <time>2014-07-07T10:26:50Z</time>
      </trkpt>
      <trkpt lat="46.44952" lon="4.11388">
        <ele>251.52</ele>
        <time>2014-07-07T10:27:12Z</time>
      </trkpt>
      <trkpt lat="46.44951" lon="4.11385">
        <ele>251.52</ele>
        <time>2014-07-07T10:27:32Z</time>
      </trkpt>
      <trkpt lat="46.4495" lon="4.11387">
        <ele>251.52</ele>
        <time>2014-07-07T10:28:02Z</time>
      </trkpt>
      <trkpt lat="46.44938" lon="4.11427">
        <ele>251.52</ele>
        <time>2014-07-07T10:28:15Z</time>
      </trkpt>
      <trkpt lat="46.44916" lon="4.11467">
        <ele>252.48</ele>
        <time>2014-07-07T10:28:29Z</time>
      </trkpt>
      <trkpt lat="46.44909" lon="4.11492">
        <ele>254.41</ele>
        <time>2014-07-07T10:28:43Z</time>
      </trkpt>
      <trkpt lat="46.44899" lon="4.11529">
        <ele>252.96</ele>
        <time>2014-07-07T10:28:55Z</time>
      </trkpt>
      <trkpt lat="46.44901" lon="4.11551">
        <ele>252</ele>
        <time>2014-07-07T10:28:59Z</time>
      </trkpt>
      <trkpt lat="46.44908" lon="4.11628">
        <ele>250.56</ele>
        <time>2014-07-07T10:29:14Z</time>
      </trkpt>
      <trkpt lat="46.44915" lon="4.11706">
        <ele>250.08</ele>
        <time>2014-07-07T10:29:31Z</time>
      </trkpt>
      <trkpt lat="46.44923" lon="4.11777">
        <ele>249.6</ele>
        <time>2014-07-07T10:29:48Z</time>
      </trkpt>
      <trkpt lat="46.44927" lon="4.11818">
        <ele>249.12</ele>
        <time>2014-07-07T10:30:00Z</time>
      </trkpt>
      <trkpt lat="46.44925" lon="4.11821">
        <ele>249.6</ele>
        <time>2014-07-07T10:30:15Z</time>
      </trkpt>
      <trkpt lat="46.44927" lon="4.11823">
        <ele>249.12</ele>
        <time>2014-07-07T10:30:30Z</time>
      </trkpt>
      <trkpt lat="46.44928" lon="4.11834">
        <ele>249.6</ele>
        <time>2014-07-07T10:30:35Z</time>
      </trkpt>
      <trkpt lat="46.44942" lon="4.11862">
        <ele>249.6</ele>
        <time>2014-07-07T10:30:48Z</time>
      </trkpt>
      <trkpt lat="46.44968" lon="4.11879">
        <ele>250.08</ele>
        <time>2014-07-07T10:30:59Z</time>
      </trkpt>
      <trkpt lat="46.44986" lon="4.11895">
        <ele>250.08</ele>
        <time>2014-07-07T10:31:07Z</time>
      </trkpt>
      <trkpt lat="46.44995" lon="4.11904">
        <ele>250.08</ele>
        <time>2014-07-07T10:31:11Z</time>
      </trkpt>
      <trkpt lat="46.45028" lon="4.11926">
        <ele>250.56</ele>
        <time>2014-07-07T10:31:26Z</time>
      </trkpt>
      <trkpt lat="46.45037" lon="4.11929">
        <ele>250.08</ele>
        <time>2014-07-07T10:31:34Z</time>
      </trkpt>
      <trkpt lat="46.45028" lon="4.11921">
        <ele>250.56</ele>
        <time>2014-07-07T10:31:40Z</time>
      </trkpt>
      <trkpt lat="46.45019" lon="4.11918">
        <ele>250.56</ele>
        <time>2014-07-07T10:31:45Z</time>
      </trkpt>
      <trkpt lat="46.45024" lon="4.11916">
        <ele>250.56</ele>
        <time>2014-07-07T10:31:51Z</time>
      </trkpt>
      <trkpt lat="46.45029" lon="4.11912">
        <ele>250.56</ele>
        <time>2014-07-07T10:31:55Z</time>
      </trkpt>
      <trkpt lat="46.45037" lon="4.11889">
        <ele>251.04</ele>
        <time>2014-07-07T10:32:07Z</time>
      </trkpt>
      <trkpt lat="46.45037" lon="4.11888">
        <ele>251.04</ele>
        <time>2014-07-07T10:32:26Z</time>
      </trkpt>
      <trkpt lat="46.45036" lon="4.11887">
        <ele>251.04</ele>
        <time>2014-07-07T10:32:51Z</time>
      </trkpt>
      <trkpt lat="46.45034" lon="4.11888">
        <ele>250.56</ele>
        <time>2014-07-07T10:33:24Z</time>
      </trkpt>
      <trkpt lat="46.45036" lon="4.11889">
        <ele>251.04</ele>
        <time>2014-07-07T10:33:45Z</time>
      </trkpt>
      <trkpt lat="46.45035" lon="4.11887">
        <ele>252</ele>
        <time>2014-07-07T10:52:40Z</time>
      </trkpt>
      <trkpt lat="46.45046" lon="4.1191">
        <ele>251.52</ele>
        <time>2014-07-07T10:52:42Z</time>
      </trkpt>
      <trkpt lat="46.45054" lon="4.11918">
        <ele>251.52</ele>
        <time>2014-07-07T10:53:07Z</time>
      </trkpt>
      <trkpt lat="46.45053" lon="4.11927">
        <ele>249.6</ele>
        <time>2014-07-07T10:53:32Z</time>
      </trkpt>
      <trkpt lat="46.45053" lon="4.11929">
        <ele>253.93</ele>
        <time>2014-07-07T10:53:37Z</time>
      </trkpt>
      <trkpt lat="46.45053" lon="4.11929">
        <ele>257.29</ele>
        <time>2014-07-07T10:53:40Z</time>
      </trkpt>
      <trkpt lat="46.45053" lon="4.11929">
        <ele>260.65</ele>
        <time>2014-07-07T10:53:43Z</time>
      </trkpt>
      <trkpt lat="46.45054" lon="4.1193">
        <ele>264.5</ele>
        <time>2014-07-07T10:53:47Z</time>
      </trkpt>
      <trkpt lat="46.45055" lon="4.1193">
        <ele>267.86</ele>
        <time>2014-07-07T10:53:51Z</time>
      </trkpt>
      <trkpt lat="46.45054" lon="4.11936">
        <ele>271.23</ele>
        <time>2014-07-07T10:53:56Z</time>
      </trkpt>
      <trkpt lat="46.45055" lon="4.1194">
        <ele>274.59</ele>
        <time>2014-07-07T10:54:01Z</time>
      </trkpt>
      <trkpt lat="46.45055" lon="4.11942">
        <ele>277.96</ele>
        <time>2014-07-07T10:54:03Z</time>
      </trkpt>
      <trkpt lat="46.45054" lon="4.11945">
        <ele>281.32</ele>
        <time>2014-07-07T10:54:09Z</time>
      </trkpt>
      <trkpt lat="46.45054" lon="4.11944">
        <ele>284.69</ele>
        <time>2014-07-07T10:54:16Z</time>
      </trkpt>
      <trkpt lat="46.45055" lon="4.11945">
        <ele>288.05</ele>
        <time>2014-07-07T10:54:25Z</time>
      </trkpt>
      <trkpt lat="46.45055" lon="4.1194">
        <ele>291.9</ele>
        <time>2014-07-07T10:54:33Z</time>
      </trkpt>
      <trkpt lat="46.45056" lon="4.1194">
        <ele>293.34</ele>
        <time>2014-07-07T10:54:44Z</time>
      </trkpt>
      <trkpt lat="46.45054" lon="4.11943">
        <ele>296.7</ele>
        <time>2014-07-07T10:54:59Z</time>
      </trkpt>
      <trkpt lat="46.45052" lon="4.11946">
        <ele>299.59</ele>
        <time>2014-07-07T10:55:19Z</time>
      </trkpt>
      <trkpt lat="46.4505" lon="4.11921">
        <ele>300.07</ele>
        <time>2014-07-07T10:55:55Z</time>
      </trkpt>
      <trkpt lat="46.45044" lon="4.11909">
        <ele>300.07</ele>
        <time>2014-07-07T10:56:30Z</time>
      </trkpt>
      <trkpt lat="46.45039" lon="4.11914">
        <ele>299.59</ele>
        <time>2014-07-07T10:56:53Z</time>
      </trkpt>
      <trkpt lat="46.44981" lon="4.12111">
        <ele>302.47</ele>
        <time>2014-07-07T12:15:38Z</time>
      </trkpt>
      <trkpt lat="46.44984" lon="4.12108">
        <ele>302.47</ele>
        <time>2014-07-07T12:15:39Z</time>
      </trkpt>
      <trkpt lat="46.44979" lon="4.1211">
        <ele>298.63</ele>
        <time>2014-07-07T12:15:44Z</time>
      </trkpt>
      <trkpt lat="46.44979" lon="4.12112">
        <ele>294.3</ele>
        <time>2014-07-07T12:15:46Z</time>
      </trkpt>
      <trkpt lat="46.44979" lon="4.12111">
        <ele>291.42</ele>
        <time>2014-07-07T12:15:48Z</time>
      </trkpt>
      <trkpt lat="46.4498" lon="4.12112">
        <ele>287.57</ele>
        <time>2014-07-07T12:15:50Z</time>
      </trkpt>
      <trkpt lat="46.4498" lon="4.1211">
        <ele>284.69</ele>
        <time>2014-07-07T12:15:52Z</time>
      </trkpt>
      <trkpt lat="46.44981" lon="4.1211">
        <ele>280.36</ele>
        <time>2014-07-07T12:15:55Z</time>
      </trkpt>
      <trkpt lat="46.44981" lon="4.12109">
        <ele>277</ele>
        <time>2014-07-07T12:15:58Z</time>
      </trkpt>
      <trkpt lat="46.44981" lon="4.12108">
        <ele>273.63</ele>
        <time>2014-07-07T12:16:01Z</time>
      </trkpt>
      <trkpt lat="46.4498" lon="4.12109">
        <ele>270.27</ele>
        <time>2014-07-07T12:16:04Z</time>
      </trkpt>
      <trkpt lat="46.44979" lon="4.12112">
        <ele>267.38</ele>
        <time>2014-07-07T12:16:08Z</time>
      </trkpt>
      <trkpt lat="46.44979" lon="4.12114">
        <ele>264.02</ele>
        <time>2014-07-07T12:16:13Z</time>
      </trkpt>
      <trkpt lat="46.44979" lon="4.12113">
        <ele>260.65</ele>
        <time>2014-07-07T12:16:19Z</time>
      </trkpt>
      <trkpt lat="46.44979" lon="4.12114">
        <ele>259.21</ele>
        <time>2014-07-07T12:16:23Z</time>
      </trkpt>
      <trkpt lat="46.44979" lon="4.12113">
        <ele>257.29</ele>
        <time>2014-07-07T12:16:28Z</time>
      </trkpt>
      <trkpt lat="46.44989" lon="4.12103">
        <ele>255.37</ele>
        <time>2014-07-07T12:16:36Z</time>
      </trkpt>
      <trkpt lat="46.44991" lon="4.12099">
        <ele>253.93</ele>
        <time>2014-07-07T12:16:42Z</time>
      </trkpt>
      <trkpt lat="46.44959" lon="4.12109">
        <ele>252</ele>
        <time>2014-07-07T12:16:56Z</time>
      </trkpt>
      <trkpt lat="46.44915" lon="4.12123">
        <ele>251.04</ele>
        <time>2014-07-07T12:17:12Z</time>
      </trkpt>
      <trkpt lat="46.4491" lon="4.12118">
        <ele>251.04</ele>
        <time>2014-07-07T12:17:16Z</time>
      </trkpt>
      <trkpt lat="46.44892" lon="4.1213">
        <ele>252</ele>
        <time>2014-07-07T12:17:26Z</time>
      </trkpt>
      <trkpt lat="46.44886" lon="4.12123">
        <ele>252.48</ele>
        <time>2014-07-07T12:17:37Z</time>
      </trkpt>
      <trkpt lat="46.44885" lon="4.12118">
        <ele>252.96</ele>
        <time>2014-07-07T12:17:58Z</time>
      </trkpt>
      <trkpt lat="46.44868" lon="4.1209">
        <ele>251.52</ele>
        <time>2014-07-07T12:18:14Z</time>
      </trkpt>
      <trkpt lat="46.4485" lon="4.12052">
        <ele>250.56</ele>
        <time>2014-07-07T12:18:26Z</time>
      </trkpt>
      <trkpt lat="46.44848" lon="4.12015">
        <ele>250.56</ele>
        <time>2014-07-07T12:18:39Z</time>
      </trkpt>
      <trkpt lat="46.44849" lon="4.12013">
        <ele>251.04</ele>
        <time>2014-07-07T12:18:40Z</time>
      </trkpt>
      <trkpt lat="46.44855" lon="4.12007">
        <ele>251.04</ele>
        <time>2014-07-07T12:18:45Z</time>
      </trkpt>
      <trkpt lat="46.44859" lon="4.12001">
        <ele>251.04</ele>
        <time>2014-07-07T12:18:49Z</time>
      </trkpt>
      <trkpt lat="46.44858" lon="4.11998">
        <ele>251.04</ele>
        <time>2014-07-07T12:18:52Z</time>
      </trkpt>
      <trkpt lat="46.44852" lon="4.12003">
        <ele>250.56</ele>
        <time>2014-07-07T12:18:57Z</time>
      </trkpt>
      <trkpt lat="46.44857" lon="4.12006">
        <ele>251.04</ele>
        <time>2014-07-07T12:19:04Z</time>
      </trkpt>
      <trkpt lat="46.44896" lon="4.11973">
        <ele>251.04</ele>
        <time>2014-07-07T12:19:22Z</time>
      </trkpt>
      <trkpt lat="46.44941" lon="4.11944">
        <ele>251.04</ele>
        <time>2014-07-07T12:19:39Z</time>
      </trkpt>
      <trkpt lat="46.44967" lon="4.11911">
        <ele>251.52</ele>
        <time>2014-07-07T12:19:53Z</time>
      </trkpt>
      <trkpt lat="46.44974" lon="4.11895">
        <ele>251.52</ele>
        <time>2014-07-07T12:20:06Z</time>
      </trkpt>
      <trkpt lat="46.44976" lon="4.11888">
        <ele>252</ele>
        <time>2014-07-07T12:20:27Z</time>
      </trkpt>
      <trkpt lat="46.44993" lon="4.11842">
        <ele>251.52</ele>
        <time>2014-07-07T12:20:42Z</time>
      </trkpt>
      <trkpt lat="46.45004" lon="4.11767">
        <ele>250.08</ele>
        <time>2014-07-07T12:20:58Z</time>
      </trkpt>
      <trkpt lat="46.45015" lon="4.11713">
        <ele>250.08</ele>
        <time>2014-07-07T12:21:13Z</time>
      </trkpt>
      <trkpt lat="46.45041" lon="4.11654">
        <ele>250.56</ele>
        <time>2014-07-07T12:21:28Z</time>
      </trkpt>
      <trkpt lat="46.45039" lon="4.11608">
        <ele>250.56</ele>
        <time>2014-07-07T12:21:40Z</time>
      </trkpt>
      <trkpt lat="46.45003" lon="4.11568">
        <ele>251.04</ele>
        <time>2014-07-07T12:21:54Z</time>
      </trkpt>
      <trkpt lat="46.44959" lon="4.1152">
        <ele>251.52</ele>
        <time>2014-07-07T12:22:12Z</time>
      </trkpt>
      <trkpt lat="46.44926" lon="4.115">
        <ele>253.93</ele>
        <time>2014-07-07T12:22:28Z</time>
      </trkpt>
      <trkpt lat="46.44909" lon="4.11488">
        <ele>255.37</ele>
        <time>2014-07-07T12:22:40Z</time>
      </trkpt>
      <trkpt lat="46.44925" lon="4.11449">
        <ele>252.96</ele>
        <time>2014-07-07T12:22:50Z</time>
      </trkpt>
      <trkpt lat="46.44952" lon="4.11389">
        <ele>252</ele>
        <time>2014-07-07T12:23:00Z</time>
      </trkpt>
      <trkpt lat="46.44959" lon="4.11373">
        <ele>252</ele>
        <time>2014-07-07T12:23:03Z</time>
      </trkpt>
      <trkpt lat="46.44993" lon="4.11297">
        <ele>252</ele>
        <time>2014-07-07T12:23:19Z</time>
      </trkpt>
      <trkpt lat="46.45022" lon="4.11235">
        <ele>252</ele>
        <time>2014-07-07T12:23:36Z</time>
      </trkpt>
      <trkpt lat="46.45046" lon="4.11181">
        <ele>252</ele>
        <time>2014-07-07T12:23:51Z</time>
      </trkpt>
      <trkpt lat="46.45079" lon="4.1111">
        <ele>252</ele>
        <time>2014-07-07T12:24:08Z</time>
      </trkpt>
      <trkpt lat="46.45109" lon="4.11045">
        <ele>252</ele>
        <time>2014-07-07T12:24:23Z</time>
      </trkpt>
      <trkpt lat="46.45154" lon="4.1095">
        <ele>252</ele>
        <time>2014-07-07T12:24:44Z</time>
      </trkpt>
      <trkpt lat="46.45188" lon="4.10873">
        <ele>252</ele>
        <time>2014-07-07T12:25:01Z</time>
      </trkpt>
      <trkpt lat="46.45227" lon="4.10788">
        <ele>252</ele>
        <time>2014-07-07T12:25:20Z</time>
      </trkpt>
      <trkpt lat="46.45265" lon="4.10701">
        <ele>252</ele>
        <time>2014-07-07T12:25:41Z</time>
      </trkpt>
      <trkpt lat="46.45304" lon="4.10622">
        <ele>252</ele>
        <time>2014-07-07T12:25:59Z</time>
      </trkpt>
      <trkpt lat="46.45333" lon="4.10558">
        <ele>252</ele>
        <time>2014-07-07T12:26:13Z</time>
      </trkpt>
      <trkpt lat="46.45367" lon="4.10485">
        <ele>252</ele>
        <time>2014-07-07T12:26:28Z</time>
      </trkpt>
      <trkpt lat="46.45408" lon="4.10395">
        <ele>252</ele>
        <time>2014-07-07T12:26:47Z</time>
      </trkpt>
      <trkpt lat="46.45451" lon="4.10298">
        <ele>252</ele>
        <time>2014-07-07T12:27:07Z</time>
      </trkpt>
      <trkpt lat="46.45491" lon="4.10217">
        <ele>253.93</ele>
        <time>2014-07-07T12:27:25Z</time>
      </trkpt>
      <trkpt lat="46.45531" lon="4.10148">
        <ele>252.96</ele>
        <time>2014-07-07T12:27:43Z</time>
      </trkpt>
      <trkpt lat="46.45562" lon="4.10106">
        <ele>252.48</ele>
        <time>2014-07-07T12:27:56Z</time>
      </trkpt>
      <trkpt lat="46.456" lon="4.10066">
        <ele>252.96</ele>
        <time>2014-07-07T12:28:10Z</time>
      </trkpt>
      <trkpt lat="46.45658" lon="4.09981">
        <ele>252.96</ele>
        <time>2014-07-07T12:28:34Z</time>
      </trkpt>
      <trkpt lat="46.45715" lon="4.09895">
        <ele>252.48</ele>
        <time>2014-07-07T12:28:56Z</time>
      </trkpt>
      <trkpt lat="46.45788" lon="4.09823">
        <ele>252</ele>
        <time>2014-07-07T12:29:17Z</time>
      </trkpt>
      <trkpt lat="46.45867" lon="4.09776">
        <ele>251.52</ele>
        <time>2014-07-07T12:29:39Z</time>
      </trkpt>
      <trkpt lat="46.45943" lon="4.09736">
        <ele>249.6</ele>
        <time>2014-07-07T12:29:57Z</time>
      </trkpt>
      <trkpt lat="46.46008" lon="4.09658">
        <ele>249.6</ele>
        <time>2014-07-07T12:30:16Z</time>
      </trkpt>
      <trkpt lat="46.46076" lon="4.09555">
        <ele>249.12</ele>
        <time>2014-07-07T12:30:38Z</time>
      </trkpt>
      <trkpt lat="46.46132" lon="4.09472">
        <ele>249.12</ele>
        <time>2014-07-07T12:30:57Z</time>
      </trkpt>
      <trkpt lat="46.46183" lon="4.09403">
        <ele>249.12</ele>
        <time>2014-07-07T12:31:14Z</time>
      </trkpt>
      <trkpt lat="46.46225" lon="4.09361">
        <ele>249.12</ele>
        <time>2014-07-07T12:31:27Z</time>
      </trkpt>
      <trkpt lat="46.46292" lon="4.09296">
        <ele>248.64</ele>
        <time>2014-07-07T12:31:46Z</time>
      </trkpt>
      <trkpt lat="46.46361" lon="4.09225">
        <ele>248.64</ele>
        <time>2014-07-07T12:32:06Z</time>
      </trkpt>
      <trkpt lat="46.46426" lon="4.09163">
        <ele>247.2</ele>
        <time>2014-07-07T12:32:22Z</time>
      </trkpt>
      <trkpt lat="46.46487" lon="4.09083">
        <ele>247.2</ele>
        <time>2014-07-07T12:32:40Z</time>
      </trkpt>
      <trkpt lat="46.46527" lon="4.09019">
        <ele>247.2</ele>
        <time>2014-07-07T12:32:55Z</time>
      </trkpt>
      <trkpt lat="46.46568" lon="4.08952">
        <ele>247.2</ele>
        <time>2014-07-07T12:33:10Z</time>
      </trkpt>
      <trkpt lat="46.46608" lon="4.08891">
        <ele>247.2</ele>
        <time>2014-07-07T12:33:23Z</time>
      </trkpt>
      <trkpt lat="46.46655" lon="4.08821">
        <ele>247.2</ele>
        <time>2014-07-07T12:33:39Z</time>
      </trkpt>
      <trkpt lat="46.46706" lon="4.08752">
        <ele>246.72</ele>
        <time>2014-07-07T12:33:55Z</time>
      </trkpt>
      <trkpt lat="46.46722" lon="4.08729">
        <ele>246.72</ele>
        <time>2014-07-07T12:34:00Z</time>
      </trkpt>
      <trkpt lat="46.46775" lon="4.08653">
        <ele>246.23</ele>
        <time>2014-07-07T12:34:17Z</time>
      </trkpt>
      <trkpt lat="46.46818" lon="4.08592">
        <ele>246.23</ele>
        <time>2014-07-07T12:34:31Z</time>
      </trkpt>
      <trkpt lat="46.46863" lon="4.08526">
        <ele>246.72</ele>
        <time>2014-07-07T12:34:46Z</time>
      </trkpt>
      <trkpt lat="46.46918" lon="4.08448">
        <ele>245.75</ele>
        <time>2014-07-07T12:35:04Z</time>
      </trkpt>
      <trkpt lat="46.46967" lon="4.08376">
        <ele>245.75</ele>
        <time>2014-07-07T12:35:20Z</time>
      </trkpt>
      <trkpt lat="46.46988" lon="4.08346">
        <ele>245.75</ele>
        <time>2014-07-07T12:35:27Z</time>
      </trkpt>
      <trkpt lat="46.46999" lon="4.08324">
        <ele>246.23</ele>
        <time>2014-07-07T12:35:31Z</time>
      </trkpt>
      <trkpt lat="46.47006" lon="4.08296">
        <ele>245.75</ele>
        <time>2014-07-07T12:35:36Z</time>
      </trkpt>
      <trkpt lat="46.47018" lon="4.08217">
        <ele>245.75</ele>
        <time>2014-07-07T12:35:49Z</time>
      </trkpt>
      <trkpt lat="46.47033" lon="4.08172">
        <ele>245.75</ele>
        <time>2014-07-07T12:35:57Z</time>
      </trkpt>
      <trkpt lat="46.47071" lon="4.08094">
        <ele>246.23</ele>
        <time>2014-07-07T12:36:14Z</time>
      </trkpt>
      <trkpt lat="46.47069" lon="4.08009">
        <ele>245.75</ele>
        <time>2014-07-07T12:36:28Z</time>
      </trkpt>
      <trkpt lat="46.47048" lon="4.07903">
        <ele>245.75</ele>
        <time>2014-07-07T12:36:46Z</time>
      </trkpt>
      <trkpt lat="46.47048" lon="4.07826">
        <ele>246.23</ele>
        <time>2014-07-07T12:37:00Z</time>
      </trkpt>
      <trkpt lat="46.47065" lon="4.07751">
        <ele>245.75</ele>
        <time>2014-07-07T12:37:14Z</time>
      </trkpt>
      <trkpt lat="46.47066" lon="4.07746">
        <ele>245.75</ele>
        <time>2014-07-07T12:37:15Z</time>
      </trkpt>
      <trkpt lat="46.47075" lon="4.07732">
        <ele>245.75</ele>
        <time>2014-07-07T12:37:19Z</time>
      </trkpt>
      <trkpt lat="46.47103" lon="4.07685">
        <ele>247.2</ele>
        <time>2014-07-07T12:37:31Z</time>
      </trkpt>
      <trkpt lat="46.47149" lon="4.07583">
        <ele>245.75</ele>
        <time>2014-07-07T12:37:52Z</time>
      </trkpt>
      <trkpt lat="46.47176" lon="4.0752">
        <ele>245.75</ele>
        <time>2014-07-07T12:38:07Z</time>
      </trkpt>
      <trkpt lat="46.47177" lon="4.07515">
        <ele>245.27</ele>
        <time>2014-07-07T12:38:18Z</time>
      </trkpt>
      <trkpt lat="46.47179" lon="4.07513">
        <ele>245.27</ele>
        <time>2014-07-07T12:38:42Z</time>
      </trkpt>
      <trkpt lat="46.47177" lon="4.07512">
        <ele>245.75</ele>
        <time>2014-07-07T12:39:27Z</time>
      </trkpt>
      <trkpt lat="46.4718" lon="4.07514">
        <ele>245.75</ele>
        <time>2014-07-07T12:39:55Z</time>
      </trkpt>
      <trkpt lat="46.47178" lon="4.07508">
        <ele>245.75</ele>
        <time>2014-07-07T12:40:09Z</time>
      </trkpt>
      <trkpt lat="46.47178" lon="4.07505">
        <ele>245.75</ele>
        <time>2014-07-07T12:40:23Z</time>
      </trkpt>
      <trkpt lat="46.47184" lon="4.07489">
        <ele>245.75</ele>
        <time>2014-07-07T12:40:37Z</time>
      </trkpt>
      <trkpt lat="46.47198" lon="4.07437">
        <ele>245.75</ele>
        <time>2014-07-07T12:40:53Z</time>
      </trkpt>
      <trkpt lat="46.47216" lon="4.07381">
        <ele>245.75</ele>
        <time>2014-07-07T12:41:09Z</time>
      </trkpt>
      <trkpt lat="46.47244" lon="4.07306">
        <ele>245.27</ele>
        <time>2014-07-07T12:41:26Z</time>
      </trkpt>
      <trkpt lat="46.47278" lon="4.07225">
        <ele>245.75</ele>
        <time>2014-07-07T12:41:43Z</time>
      </trkpt>
      <trkpt lat="46.47307" lon="4.07132">
        <ele>245.75</ele>
        <time>2014-07-07T12:42:01Z</time>
      </trkpt>
      <trkpt lat="46.47331" lon="4.0705">
        <ele>245.27</ele>
        <time>2014-07-07T12:42:16Z</time>
      </trkpt>
      <trkpt lat="46.47366" lon="4.06954">
        <ele>245.75</ele>
        <time>2014-07-07T12:42:32Z</time>
      </trkpt>
      <trkpt lat="46.47417" lon="4.0688">
        <ele>245.27</ele>
        <time>2014-07-07T12:42:48Z</time>
      </trkpt>
      <trkpt lat="46.47421" lon="4.06876">
        <ele>245.75</ele>
        <time>2014-07-07T12:42:49Z</time>
      </trkpt>
      <trkpt lat="46.47497" lon="4.06807">
        <ele>245.75</ele>
        <time>2014-07-07T12:43:09Z</time>
      </trkpt>
      <trkpt lat="46.47582" lon="4.06733">
        <ele>245.75</ele>
        <time>2014-07-07T12:43:31Z</time>
      </trkpt>
      <trkpt lat="46.47601" lon="4.06717">
        <ele>245.75</ele>
        <time>2014-07-07T12:43:36Z</time>
      </trkpt>
      <trkpt lat="46.4768" lon="4.06664">
        <ele>245.27</ele>
        <time>2014-07-07T12:43:55Z</time>
      </trkpt>
      <trkpt lat="46.4775" lon="4.0665">
        <ele>245.27</ele>
        <time>2014-07-07T12:44:10Z</time>
      </trkpt>
      <trkpt lat="46.47826" lon="4.06638">
        <ele>245.27</ele>
        <time>2014-07-07T12:44:28Z</time>
      </trkpt>
      <trkpt lat="46.47868" lon="4.06613">
        <ele>245.27</ele>
        <time>2014-07-07T12:44:41Z</time>
      </trkpt>
      <trkpt lat="46.47911" lon="4.0656">
        <ele>245.27</ele>
        <time>2014-07-07T12:45:00Z</time>
      </trkpt>
      <trkpt lat="46.47941" lon="4.06489">
        <ele>245.27</ele>
        <time>2014-07-07T12:45:16Z</time>
      </trkpt>
      <trkpt lat="46.47953" lon="4.06406">
        <ele>244.79</ele>
        <time>2014-07-07T12:45:34Z</time>
      </trkpt>
      <trkpt lat="46.47947" lon="4.06333">
        <ele>244.79</ele>
        <time>2014-07-07T12:45:46Z</time>
      </trkpt>
      <trkpt lat="46.47942" lon="4.06304">
        <ele>245.27</ele>
        <time>2014-07-07T12:45:51Z</time>
      </trkpt>
      <trkpt lat="46.47938" lon="4.06286">
        <ele>245.27</ele>
        <time>2014-07-07T12:45:54Z</time>
      </trkpt>
      <trkpt lat="46.47924" lon="4.06174">
        <ele>244.79</ele>
        <time>2014-07-07T12:46:14Z</time>
      </trkpt>
      <trkpt lat="46.47913" lon="4.06072">
        <ele>242.87</ele>
        <time>2014-07-07T12:46:28Z</time>
      </trkpt>
      <trkpt lat="46.47903" lon="4.05971">
        <ele>242.39</ele>
        <time>2014-07-07T12:46:43Z</time>
      </trkpt>
      <trkpt lat="46.47901" lon="4.05951">
        <ele>242.39</ele>
        <time>2014-07-07T12:46:46Z</time>
      </trkpt>
      <trkpt lat="46.47902" lon="4.05908">
        <ele>242.39</ele>
        <time>2014-07-07T12:46:53Z</time>
      </trkpt>
      <trkpt lat="46.47904" lon="4.05889">
        <ele>241.91</ele>
        <time>2014-07-07T12:46:56Z</time>
      </trkpt>
      <trkpt lat="46.47908" lon="4.05871">
        <ele>241.91</ele>
        <time>2014-07-07T12:46:59Z</time>
      </trkpt>
      <trkpt lat="46.47912" lon="4.0586">
        <ele>241.91</ele>
        <time>2014-07-07T12:47:01Z</time>
      </trkpt>
      <trkpt lat="46.47923" lon="4.05838">
        <ele>242.39</ele>
        <time>2014-07-07T12:47:05Z</time>
      </trkpt>
      <trkpt lat="46.47974" lon="4.05766">
        <ele>242.39</ele>
        <time>2014-07-07T12:47:21Z</time>
      </trkpt>
      <trkpt lat="46.48027" lon="4.05688">
        <ele>242.39</ele>
        <time>2014-07-07T12:47:38Z</time>
      </trkpt>
      <trkpt lat="46.48061" lon="4.05625">
        <ele>242.39</ele>
        <time>2014-07-07T12:47:51Z</time>
      </trkpt>
      <trkpt lat="46.48096" lon="4.05565">
        <ele>242.87</ele>
        <time>2014-07-07T12:48:04Z</time>
      </trkpt>
      <trkpt lat="46.4814" lon="4.05486">
        <ele>242.39</ele>
        <time>2014-07-07T12:48:20Z</time>
      </trkpt>
      <trkpt lat="46.48165" lon="4.05422">
        <ele>242.39</ele>
        <time>2014-07-07T12:48:32Z</time>
      </trkpt>
      <trkpt lat="46.48193" lon="4.0534">
        <ele>242.39</ele>
        <time>2014-07-07T12:48:46Z</time>
      </trkpt>
      <trkpt lat="46.48249" lon="4.05277">
        <ele>242.39</ele>
        <time>2014-07-07T12:49:01Z</time>
      </trkpt>
      <trkpt lat="46.48274" lon="4.05266">
        <ele>242.39</ele>
        <time>2014-07-07T12:49:07Z</time>
      </trkpt>
      <trkpt lat="46.48335" lon="4.05207">
        <ele>242.39</ele>
        <time>2014-07-07T12:49:24Z</time>
      </trkpt>
      <trkpt lat="46.48346" lon="4.05196">
        <ele>242.39</ele>
        <time>2014-07-07T12:49:27Z</time>
      </trkpt>
      <trkpt lat="46.48412" lon="4.05126">
        <ele>241.91</ele>
        <time>2014-07-07T12:49:46Z</time>
      </trkpt>
      <trkpt lat="46.48416" lon="4.05123">
        <ele>242.39</ele>
        <time>2014-07-07T12:49:47Z</time>
      </trkpt>
      <trkpt lat="46.48434" lon="4.05097">
        <ele>242.39</ele>
        <time>2014-07-07T12:49:53Z</time>
      </trkpt>
      <trkpt lat="46.48445" lon="4.0507">
        <ele>242.39</ele>
        <time>2014-07-07T12:49:58Z</time>
      </trkpt>
      <trkpt lat="46.48452" lon="4.05046">
        <ele>242.39</ele>
        <time>2014-07-07T12:50:02Z</time>
      </trkpt>
      <trkpt lat="46.48457" lon="4.0501">
        <ele>242.39</ele>
        <time>2014-07-07T12:50:08Z</time>
      </trkpt>
      <trkpt lat="46.48489" lon="4.0493">
        <ele>242.39</ele>
        <time>2014-07-07T12:50:23Z</time>
      </trkpt>
      <trkpt lat="46.48492" lon="4.04926">
        <ele>242.39</ele>
        <time>2014-07-07T12:50:24Z</time>
      </trkpt>
      <trkpt lat="46.48532" lon="4.04878">
        <ele>242.39</ele>
        <time>2014-07-07T12:50:36Z</time>
      </trkpt>
      <trkpt lat="46.48577" lon="4.04832">
        <ele>242.39</ele>
        <time>2014-07-07T12:50:49Z</time>
      </trkpt>
      <trkpt lat="46.48589" lon="4.04807">
        <ele>242.39</ele>
        <time>2014-07-07T12:50:54Z</time>
      </trkpt>
      <trkpt lat="46.48596" lon="4.04777">
        <ele>242.87</ele>
        <time>2014-07-07T12:50:59Z</time>
      </trkpt>
      <trkpt lat="46.48606" lon="4.04668">
        <ele>242.39</ele>
        <time>2014-07-07T12:51:16Z</time>
      </trkpt>
      <trkpt lat="46.48614" lon="4.04586">
        <ele>242.39</ele>
        <time>2014-07-07T12:51:29Z</time>
      </trkpt>
      <trkpt lat="46.48616" lon="4.0456">
        <ele>242.39</ele>
        <time>2014-07-07T12:51:33Z</time>
      </trkpt>
      <trkpt lat="46.48618" lon="4.0454">
        <ele>242.39</ele>
        <time>2014-07-07T12:51:36Z</time>
      </trkpt>
      <trkpt lat="46.48621" lon="4.04515">
        <ele>243.83</ele>
        <time>2014-07-07T12:51:40Z</time>
      </trkpt>
      <trkpt lat="46.48624" lon="4.04484">
        <ele>242.39</ele>
        <time>2014-07-07T12:51:45Z</time>
      </trkpt>
      <trkpt lat="46.4863" lon="4.04387">
        <ele>242.39</ele>
        <time>2014-07-07T12:52:01Z</time>
      </trkpt>
      <trkpt lat="46.48641" lon="4.04273">
        <ele>242.39</ele>
        <time>2014-07-07T12:52:19Z</time>
      </trkpt>
      <trkpt lat="46.48643" lon="4.04253">
        <ele>242.39</ele>
        <time>2014-07-07T12:52:22Z</time>
      </trkpt>
      <trkpt lat="46.48649" lon="4.04169">
        <ele>242.87</ele>
        <time>2014-07-07T12:52:35Z</time>
      </trkpt>
      <trkpt lat="46.48658" lon="4.04073">
        <ele>242.39</ele>
        <time>2014-07-07T12:52:50Z</time>
      </trkpt>
      <trkpt lat="46.48668" lon="4.0398">
        <ele>242.39</ele>
        <time>2014-07-07T12:53:05Z</time>
      </trkpt>
      <trkpt lat="46.48687" lon="4.03859">
        <ele>242.39</ele>
        <time>2014-07-07T12:53:24Z</time>
      </trkpt>
      <trkpt lat="46.48701" lon="4.0378">
        <ele>242.39</ele>
        <time>2014-07-07T12:53:37Z</time>
      </trkpt>
      <trkpt lat="46.48704" lon="4.03669">
        <ele>242.87</ele>
        <time>2014-07-07T12:53:55Z</time>
      </trkpt>
      <trkpt lat="46.48688" lon="4.03554">
        <ele>242.87</ele>
        <time>2014-07-07T12:54:14Z</time>
      </trkpt>
      <trkpt lat="46.48684" lon="4.03498">
        <ele>242.87</ele>
        <time>2014-07-07T12:54:23Z</time>
      </trkpt>
      <trkpt lat="46.48682" lon="4.03401">
        <ele>242.87</ele>
        <time>2014-07-07T12:54:39Z</time>
      </trkpt>
      <trkpt lat="46.4869" lon="4.0337">
        <ele>242.87</ele>
        <time>2014-07-07T12:54:45Z</time>
      </trkpt>
      <trkpt lat="46.487" lon="4.03325">
        <ele>242.87</ele>
        <time>2014-07-07T12:54:53Z</time>
      </trkpt>
      <trkpt lat="46.48715" lon="4.0323">
        <ele>242.39</ele>
        <time>2014-07-07T12:55:09Z</time>
      </trkpt>
      <trkpt lat="46.48735" lon="4.03144">
        <ele>242.39</ele>
        <time>2014-07-07T12:55:24Z</time>
      </trkpt>
      <trkpt lat="46.48774" lon="4.03071">
        <ele>242.39</ele>
        <time>2014-07-07T12:55:39Z</time>
      </trkpt>
      <trkpt lat="46.48785" lon="4.03051">
        <ele>242.39</ele>
        <time>2014-07-07T12:55:43Z</time>
      </trkpt>
      <trkpt lat="46.48804" lon="4.03004">
        <ele>242.39</ele>
        <time>2014-07-07T12:55:52Z</time>
      </trkpt>
      <trkpt lat="46.4881" lon="4.02929">
        <ele>242.39</ele>
        <time>2014-07-07T12:56:05Z</time>
      </trkpt>
      <trkpt lat="46.48816" lon="4.02825">
        <ele>242.87</ele>
        <time>2014-07-07T12:56:21Z</time>
      </trkpt>
      <trkpt lat="46.48813" lon="4.02794">
        <ele>242.87</ele>
        <time>2014-07-07T12:56:26Z</time>
      </trkpt>
      <trkpt lat="46.48803" lon="4.02707">
        <ele>242.87</ele>
        <time>2014-07-07T12:56:40Z</time>
      </trkpt>
      <trkpt lat="46.48796" lon="4.02628">
        <ele>242.87</ele>
        <time>2014-07-07T12:56:53Z</time>
      </trkpt>
      <trkpt lat="46.48794" lon="4.0259">
        <ele>242.39</ele>
        <time>2014-07-07T12:56:59Z</time>
      </trkpt>
      <trkpt lat="46.48782" lon="4.02515">
        <ele>242.39</ele>
        <time>2014-07-07T12:57:11Z</time>
      </trkpt>
      <trkpt lat="46.48779" lon="4.02503">
        <ele>242.39</ele>
        <time>2014-07-07T12:57:13Z</time>
      </trkpt>
      <trkpt lat="46.48764" lon="4.02411">
        <ele>242.39</ele>
        <time>2014-07-07T12:57:28Z</time>
      </trkpt>
      <trkpt lat="46.4876" lon="4.02366">
        <ele>242.39</ele>
        <time>2014-07-07T12:57:35Z</time>
      </trkpt>
      <trkpt lat="46.48758" lon="4.02333">
        <ele>242.39</ele>
        <time>2014-07-07T12:57:40Z</time>
      </trkpt>
      <trkpt lat="46.48753" lon="4.02282">
        <ele>242.39</ele>
        <time>2014-07-07T12:57:48Z</time>
      </trkpt>
      <trkpt lat="46.48733" lon="4.02179">
        <ele>242.39</ele>
        <time>2014-07-07T12:58:05Z</time>
      </trkpt>
      <trkpt lat="46.48706" lon="4.02083">
        <ele>242.39</ele>
        <time>2014-07-07T12:58:21Z</time>
      </trkpt>
      <trkpt lat="46.48703" lon="4.02063">
        <ele>242.39</ele>
        <time>2014-07-07T12:58:24Z</time>
      </trkpt>
      <trkpt lat="46.48702" lon="4.01993">
        <ele>242.39</ele>
        <time>2014-07-07T12:58:35Z</time>
      </trkpt>
      <trkpt lat="46.48708" lon="4.0191">
        <ele>241.91</ele>
        <time>2014-07-07T12:58:48Z</time>
      </trkpt>
      <trkpt lat="46.48717" lon="4.01817">
        <ele>242.39</ele>
        <time>2014-07-07T12:59:04Z</time>
      </trkpt>
      <trkpt lat="46.48724" lon="4.01728">
        <ele>241.91</ele>
        <time>2014-07-07T12:59:20Z</time>
      </trkpt>
      <trkpt lat="46.48745" lon="4.01629">
        <ele>241.91</ele>
        <time>2014-07-07T12:59:39Z</time>
      </trkpt>
      <trkpt lat="46.4877" lon="4.01612">
        <ele>241.91</ele>
        <time>2014-07-07T12:59:47Z</time>
      </trkpt>
      <trkpt lat="46.48778" lon="4.01592">
        <ele>241.91</ele>
        <time>2014-07-07T12:59:53Z</time>
      </trkpt>
      <trkpt lat="46.48771" lon="4.0156">
        <ele>241.91</ele>
        <time>2014-07-07T13:00:03Z</time>
      </trkpt>
      <trkpt lat="46.48774" lon="4.01552">
        <ele>241.91</ele>
        <time>2014-07-07T13:00:05Z</time>
      </trkpt>
      <trkpt lat="46.48803" lon="4.01466">
        <ele>242.39</ele>
        <time>2014-07-07T13:00:26Z</time>
      </trkpt>
      <trkpt lat="46.48824" lon="4.01372">
        <ele>241.91</ele>
        <time>2014-07-07T13:00:44Z</time>
      </trkpt>
      <trkpt lat="46.48825" lon="4.01289">
        <ele>242.39</ele>
        <time>2014-07-07T13:00:59Z</time>
      </trkpt>
      <trkpt lat="46.48806" lon="4.01177">
        <ele>242.39</ele>
        <time>2014-07-07T13:01:19Z</time>
      </trkpt>
      <trkpt lat="46.48773" lon="4.01047">
        <ele>242.39</ele>
        <time>2014-07-07T13:01:41Z</time>
      </trkpt>
      <trkpt lat="46.48766" lon="4.00996">
        <ele>242.87</ele>
        <time>2014-07-07T13:01:49Z</time>
      </trkpt>
      <trkpt lat="46.48767" lon="4.00951">
        <ele>242.87</ele>
        <time>2014-07-07T13:01:56Z</time>
      </trkpt>
      <trkpt lat="46.48787" lon="4.0083">
        <ele>242.87</ele>
        <time>2014-07-07T13:02:16Z</time>
      </trkpt>
      <trkpt lat="46.48803" lon="4.00726">
        <ele>242.87</ele>
        <time>2014-07-07T13:02:34Z</time>
      </trkpt>
      <trkpt lat="46.48808" lon="4.00656">
        <ele>243.35</ele>
        <time>2014-07-07T13:02:48Z</time>
      </trkpt>
      <trkpt lat="46.48827" lon="4.00598">
        <ele>242.87</ele>
        <time>2014-07-07T13:03:02Z</time>
      </trkpt>
      <trkpt lat="46.48833" lon="4.00505">
        <ele>242.87</ele>
        <time>2014-07-07T13:03:21Z</time>
      </trkpt>
      <trkpt lat="46.48825" lon="4.00418">
        <ele>242.87</ele>
        <time>2014-07-07T13:03:38Z</time>
      </trkpt>
      <trkpt lat="46.48806" lon="4.00347">
        <ele>242.87</ele>
        <time>2014-07-07T13:03:54Z</time>
      </trkpt>
      <trkpt lat="46.48773" lon="4.0027">
        <ele>242.87</ele>
        <time>2014-07-07T13:04:12Z</time>
      </trkpt>
      <trkpt lat="46.48737" lon="4.00192">
        <ele>242.87</ele>
        <time>2014-07-07T13:04:30Z</time>
      </trkpt>
      <trkpt lat="46.48702" lon="4.00116">
        <ele>242.87</ele>
        <time>2014-07-07T13:04:47Z</time>
      </trkpt>
      <trkpt lat="46.48664" lon="4.00032">
        <ele>242.87</ele>
        <time>2014-07-07T13:05:05Z</time>
      </trkpt>
      <trkpt lat="46.48624" lon="3.99945">
        <ele>242.87</ele>
        <time>2014-07-07T13:05:23Z</time>
      </trkpt>
      <trkpt lat="46.48578" lon="3.99862">
        <ele>242.39</ele>
        <time>2014-07-07T13:05:43Z</time>
      </trkpt>
      <trkpt lat="46.48559" lon="3.99806">
        <ele>242.87</ele>
        <time>2014-07-07T13:05:55Z</time>
      </trkpt>
      <trkpt lat="46.48542" lon="3.99721">
        <ele>242.87</ele>
        <time>2014-07-07T13:06:11Z</time>
      </trkpt>
      <trkpt lat="46.4854" lon="3.99621">
        <ele>242.87</ele>
        <time>2014-07-07T13:06:30Z</time>
      </trkpt>
      <trkpt lat="46.48541" lon="3.99506">
        <ele>242.39</ele>
        <time>2014-07-07T13:06:50Z</time>
      </trkpt>
      <trkpt lat="46.48527" lon="3.99394">
        <ele>242.39</ele>
        <time>2014-07-07T13:07:10Z</time>
      </trkpt>
      <trkpt lat="46.48485" lon="3.99301">
        <ele>242.39</ele>
        <time>2014-07-07T13:07:30Z</time>
      </trkpt>
      <trkpt lat="46.48439" lon="3.99228">
        <ele>242.87</ele>
        <time>2014-07-07T13:07:47Z</time>
      </trkpt>
      <trkpt lat="46.484" lon="3.99132">
        <ele>242.39</ele>
        <time>2014-07-07T13:08:06Z</time>
      </trkpt>
      <trkpt lat="46.4838" lon="3.99033">
        <ele>242.87</ele>
        <time>2014-07-07T13:08:24Z</time>
      </trkpt>
      <trkpt lat="46.48364" lon="3.98948">
        <ele>242.87</ele>
        <time>2014-07-07T13:08:41Z</time>
      </trkpt>
      <trkpt lat="46.48337" lon="3.98868">
        <ele>242.39</ele>
        <time>2014-07-07T13:08:59Z</time>
      </trkpt>
      <trkpt lat="46.48315" lon="3.98821">
        <ele>242.39</ele>
        <time>2014-07-07T13:09:11Z</time>
      </trkpt>
      <trkpt lat="46.48315" lon="3.98787">
        <ele>242.39</ele>
        <time>2014-07-07T13:09:21Z</time>
      </trkpt>
      <trkpt lat="46.48292" lon="3.98745">
        <ele>242.39</ele>
        <time>2014-07-07T13:09:38Z</time>
      </trkpt>
      <trkpt lat="46.48281" lon="3.98723">
        <ele>242.39</ele>
        <time>2014-07-07T13:09:46Z</time>
      </trkpt>
      <trkpt lat="46.48266" lon="3.98734">
        <ele>242.39</ele>
        <time>2014-07-07T13:09:56Z</time>
      </trkpt>
      <trkpt lat="46.48251" lon="3.987">
        <ele>241.91</ele>
        <time>2014-07-07T13:10:08Z</time>
      </trkpt>
      <trkpt lat="46.48243" lon="3.98655">
        <ele>242.39</ele>
        <time>2014-07-07T13:10:20Z</time>
      </trkpt>
      <trkpt lat="46.48239" lon="3.98636">
        <ele>242.87</ele>
        <time>2014-07-07T13:10:31Z</time>
      </trkpt>
      <trkpt lat="46.48239" lon="3.98638">
        <ele>242.87</ele>
        <time>2014-07-07T13:10:46Z</time>
      </trkpt>
      <trkpt lat="46.48235" lon="3.98642">
        <ele>242.87</ele>
        <time>2014-07-07T13:11:16Z</time>
      </trkpt>
      <trkpt lat="46.48236" lon="3.98641">
        <ele>242.87</ele>
        <time>2014-07-07T13:11:46Z</time>
      </trkpt>
      <trkpt lat="46.48237" lon="3.98639">
        <ele>242.87</ele>
        <time>2014-07-07T13:12:24Z</time>
      </trkpt>
      <trkpt lat="46.48237" lon="3.98641">
        <ele>242.87</ele>
        <time>2014-07-07T13:12:51Z</time>
      </trkpt>
      <trkpt lat="46.48237" lon="3.98642">
        <ele>242.87</ele>
        <time>2014-07-07T13:12:53Z</time>
      </trkpt>
      <trkpt lat="46.48235" lon="3.98657">
        <ele>242.87</ele>
        <time>2014-07-07T13:12:59Z</time>
      </trkpt>
      <trkpt lat="46.48251" lon="3.98712">
        <ele>242.39</ele>
        <time>2014-07-07T13:13:15Z</time>
      </trkpt>
      <trkpt lat="46.48261" lon="3.98731">
        <ele>242.39</ele>
        <time>2014-07-07T13:13:21Z</time>
      </trkpt>
      <trkpt lat="46.48272" lon="3.98729">
        <ele>242.39</ele>
        <time>2014-07-07T13:13:25Z</time>
      </trkpt>
      <trkpt lat="46.48289" lon="3.98718">
        <ele>241.91</ele>
        <time>2014-07-07T13:13:33Z</time>
      </trkpt>
      <trkpt lat="46.48297" lon="3.98734">
        <ele>241.43</ele>
        <time>2014-07-07T13:13:37Z</time>
      </trkpt>
      <trkpt lat="46.48317" lon="3.98773">
        <ele>241.43</ele>
        <time>2014-07-07T13:13:49Z</time>
      </trkpt>
      <trkpt lat="46.48329" lon="3.98793">
        <ele>241.43</ele>
        <time>2014-07-07T13:13:56Z</time>
      </trkpt>
      <trkpt lat="46.48317" lon="3.98825">
        <ele>242.39</ele>
        <time>2014-07-07T13:14:07Z</time>
      </trkpt>
      <trkpt lat="46.4832" lon="3.98831">
        <ele>242.39</ele>
        <time>2014-07-07T13:14:09Z</time>
      </trkpt>
      <trkpt lat="46.48335" lon="3.98867">
        <ele>241.91</ele>
        <time>2014-07-07T13:14:24Z</time>
      </trkpt>
      <trkpt lat="46.48337" lon="3.98868">
        <ele>242.39</ele>
        <time>2014-07-07T13:14:26Z</time>
      </trkpt>
      <trkpt lat="46.48333" lon="3.98859">
        <ele>242.39</ele>
        <time>2014-07-07T13:14:30Z</time>
      </trkpt>
      <trkpt lat="46.48318" lon="3.98809">
        <ele>242.39</ele>
        <time>2014-07-07T13:14:45Z</time>
      </trkpt>
      <trkpt lat="46.48329" lon="3.9879">
        <ele>241.43</ele>
        <time>2014-07-07T13:14:52Z</time>
      </trkpt>
      <trkpt lat="46.48307" lon="3.98747">
        <ele>241.91</ele>
        <time>2014-07-07T13:15:04Z</time>
      </trkpt>
      <trkpt lat="46.48293" lon="3.98711">
        <ele>241.91</ele>
        <time>2014-07-07T13:15:14Z</time>
      </trkpt>
      <trkpt lat="46.48294" lon="3.98718">
        <ele>241.43</ele>
        <time>2014-07-07T13:15:21Z</time>
      </trkpt>
      <trkpt lat="46.48291" lon="3.98717">
        <ele>241.91</ele>
        <time>2014-07-07T13:15:22Z</time>
      </trkpt>
      <trkpt lat="46.48287" lon="3.98715">
        <ele>241.91</ele>
        <time>2014-07-07T13:15:24Z</time>
      </trkpt>
      <trkpt lat="46.48268" lon="3.98732">
        <ele>242.39</ele>
        <time>2014-07-07T13:15:34Z</time>
      </trkpt>
      <trkpt lat="46.48257" lon="3.98726">
        <ele>242.39</ele>
        <time>2014-07-07T13:15:38Z</time>
      </trkpt>
      <trkpt lat="46.48249" lon="3.98678">
        <ele>242.39</ele>
        <time>2014-07-07T13:15:51Z</time>
      </trkpt>
      <trkpt lat="46.4824" lon="3.9864">
        <ele>242.87</ele>
        <time>2014-07-07T13:16:04Z</time>
      </trkpt>
      <trkpt lat="46.48237" lon="3.98636">
        <ele>243.35</ele>
        <time>2014-07-07T13:16:20Z</time>
      </trkpt>
      <trkpt lat="46.48235" lon="3.98641">
        <ele>242.87</ele>
        <time>2014-07-07T13:17:00Z</time>
      </trkpt>
      <trkpt lat="46.48233" lon="3.9864">
        <ele>243.35</ele>
        <time>2014-07-07T13:17:18Z</time>
      </trkpt>
      <trkpt lat="46.4823" lon="3.98643">
        <ele>242.87</ele>
        <time>2014-07-07T13:17:22Z</time>
      </trkpt>
      <trkpt lat="46.48217" lon="3.98624">
        <ele>243.35</ele>
        <time>2014-07-07T13:17:34Z</time>
      </trkpt>
      <trkpt lat="46.48208" lon="3.98601">
        <ele>243.35</ele>
        <time>2014-07-07T13:17:43Z</time>
      </trkpt>
      <trkpt lat="46.48184" lon="3.98555">
        <ele>243.35</ele>
        <time>2014-07-07T13:17:59Z</time>
      </trkpt>
      <trkpt lat="46.48162" lon="3.98503">
        <ele>243.83</ele>
        <time>2014-07-07T13:18:14Z</time>
      </trkpt>
      <trkpt lat="46.48134" lon="3.98445">
        <ele>243.83</ele>
        <time>2014-07-07T13:18:31Z</time>
      </trkpt>
      <trkpt lat="46.48112" lon="3.98403">
        <ele>243.83</ele>
        <time>2014-07-07T13:18:43Z</time>
      </trkpt>
      <trkpt lat="46.48071" lon="3.98322">
        <ele>243.35</ele>
        <time>2014-07-07T13:19:02Z</time>
      </trkpt>
      <trkpt lat="46.48028" lon="3.98239">
        <ele>244.31</ele>
        <time>2014-07-07T13:19:22Z</time>
      </trkpt>
      <trkpt lat="46.47989" lon="3.98213">
        <ele>242.87</ele>
        <time>2014-07-07T13:19:34Z</time>
      </trkpt>
      <trkpt lat="46.47984" lon="3.98212">
        <ele>242.87</ele>
        <time>2014-07-07T13:19:35Z</time>
      </trkpt>
      <trkpt lat="46.47957" lon="3.98189">
        <ele>242.87</ele>
        <time>2014-07-07T13:19:42Z</time>
      </trkpt>
      <trkpt lat="46.47949" lon="3.98184">
        <ele>242.87</ele>
        <time>2014-07-07T13:19:44Z</time>
      </trkpt>
      <trkpt lat="46.47878" lon="3.98136">
        <ele>242.87</ele>
        <time>2014-07-07T13:20:03Z</time>
      </trkpt>
      <trkpt lat="46.47841" lon="3.9812">
        <ele>242.87</ele>
        <time>2014-07-07T13:20:14Z</time>
      </trkpt>
      <trkpt lat="46.47822" lon="3.98103">
        <ele>242.87</ele>
        <time>2014-07-07T13:20:24Z</time>
      </trkpt>
      <trkpt lat="46.47807" lon="3.98094">
        <ele>242.87</ele>
        <time>2014-07-07T13:20:38Z</time>
      </trkpt>
      <trkpt lat="46.47805" lon="3.98094">
        <ele>242.87</ele>
        <time>2014-07-07T13:21:08Z</time>
      </trkpt>
      <trkpt lat="46.47805" lon="3.98098">
        <ele>242.87</ele>
        <time>2014-07-07T13:21:10Z</time>
      </trkpt>
      <trkpt lat="46.47823" lon="3.98106">
        <ele>242.87</ele>
        <time>2014-07-07T13:21:21Z</time>
      </trkpt>
      <trkpt lat="46.47831" lon="3.981">
        <ele>242.87</ele>
        <time>2014-07-07T13:21:25Z</time>
      </trkpt>
      <trkpt lat="46.47848" lon="3.98085">
        <ele>245.27</ele>
        <time>2014-07-07T13:21:36Z</time>
      </trkpt>
      <trkpt lat="46.47844" lon="3.98109">
        <ele>246.23</ele>
        <time>2014-07-07T13:21:47Z</time>
      </trkpt>
      <trkpt lat="46.47843" lon="3.98112">
        <ele>246.23</ele>
        <time>2014-07-07T13:21:48Z</time>
      </trkpt>
      <trkpt lat="46.4783" lon="3.98151">
        <ele>246.23</ele>
        <time>2014-07-07T13:22:05Z</time>
      </trkpt>
      <trkpt lat="46.47819" lon="3.98184">
        <ele>245.27</ele>
        <time>2014-07-07T13:22:17Z</time>
      </trkpt>
      <trkpt lat="46.47798" lon="3.9823">
        <ele>245.27</ele>
        <time>2014-07-07T13:22:30Z</time>
      </trkpt>
      <trkpt lat="46.47793" lon="3.98213">
        <ele>244.31</ele>
        <time>2014-07-07T13:22:40Z</time>
      </trkpt>
      <trkpt lat="46.47796" lon="3.98203">
        <ele>244.31</ele>
        <time>2014-07-07T13:22:50Z</time>
      </trkpt>
      <trkpt lat="46.47796" lon="3.9819">
        <ele>243.35</ele>
        <time>2014-07-07T13:22:58Z</time>
      </trkpt>
      <trkpt lat="46.478" lon="3.98181">
        <ele>242.87</ele>
        <time>2014-07-07T13:23:12Z</time>
      </trkpt>
      <trkpt lat="46.47797" lon="3.98177">
        <ele>242.87</ele>
        <time>2014-07-07T13:23:46Z</time>
      </trkpt>
      <trkpt lat="46.47862" lon="3.98223">
        <ele>246.72</ele>
        <time>2014-07-07T14:36:22Z</time>
      </trkpt>
      <trkpt lat="46.47862" lon="3.98221">
        <ele>246.72</ele>
        <time>2014-07-07T14:36:23Z</time>
      </trkpt>
      <trkpt lat="46.47836" lon="3.98189">
        <ele>246.23</ele>
        <time>2014-07-07T14:36:47Z</time>
      </trkpt>
      <trkpt lat="46.4782" lon="3.98172">
        <ele>249.6</ele>
        <time>2014-07-07T14:37:05Z</time>
      </trkpt>
      <trkpt lat="46.47814" lon="3.98168">
        <ele>252.96</ele>
        <time>2014-07-07T14:37:16Z</time>
      </trkpt>
      <trkpt lat="46.47811" lon="3.98165">
        <ele>252.48</ele>
        <time>2014-07-07T14:37:32Z</time>
      </trkpt>
      <trkpt lat="46.4781" lon="3.98163">
        <ele>252.48</ele>
        <time>2014-07-07T14:38:04Z</time>
      </trkpt>
      <trkpt lat="46.47809" lon="3.9816">
        <ele>252.96</ele>
        <time>2014-07-07T14:38:26Z</time>
      </trkpt>
      <trkpt lat="46.4781" lon="3.98159">
        <ele>252.96</ele>
        <time>2014-07-07T14:39:03Z</time>
      </trkpt>
      <trkpt lat="46.47814" lon="3.98164">
        <ele>252.96</ele>
        <time>2014-07-07T14:39:22Z</time>
      </trkpt>
      <trkpt lat="46.4781" lon="3.98162">
        <ele>252.96</ele>
        <time>2014-07-07T14:39:54Z</time>
      </trkpt>
      <trkpt lat="46.4781" lon="3.98159">
        <ele>252.96</ele>
        <time>2014-07-07T14:40:27Z</time>
      </trkpt>
      <trkpt lat="46.47814" lon="3.98164">
        <ele>252.96</ele>
        <time>2014-07-07T14:40:57Z</time>
      </trkpt>
      <trkpt lat="46.47815" lon="3.98167">
        <ele>252.96</ele>
        <time>2014-07-07T14:41:25Z</time>
      </trkpt>
      <trkpt lat="46.47817" lon="3.98168">
        <ele>252.96</ele>
        <time>2014-07-07T14:41:59Z</time>
      </trkpt>
      <trkpt lat="46.47816" lon="3.98165">
        <ele>252.96</ele>
        <time>2014-07-07T14:42:30Z</time>
      </trkpt>
      <trkpt lat="46.47815" lon="3.98162">
        <ele>253.44</ele>
        <time>2014-07-07T14:42:57Z</time>
      </trkpt>
      <trkpt lat="46.47814" lon="3.9816">
        <ele>252.96</ele>
        <time>2014-07-07T14:43:22Z</time>
      </trkpt>
      <trkpt lat="46.47812" lon="3.98162">
        <ele>253.44</ele>
        <time>2014-07-07T14:43:49Z</time>
      </trkpt>
      <trkpt lat="46.47812" lon="3.98159">
        <ele>253.93</ele>
        <time>2014-07-07T14:44:17Z</time>
      </trkpt>
      <trkpt lat="46.47814" lon="3.98159">
        <ele>253.93</ele>
        <time>2014-07-07T14:44:43Z</time>
      </trkpt>
      <trkpt lat="46.47817" lon="3.98161">
        <ele>253.93</ele>
        <time>2014-07-07T14:45:12Z</time>
      </trkpt>
      <trkpt lat="46.47816" lon="3.9816">
        <ele>254.41</ele>
        <time>2014-07-07T14:45:45Z</time>
      </trkpt>
      <trkpt lat="46.47814" lon="3.98158">
        <ele>254.89</ele>
        <time>2014-07-07T14:46:10Z</time>
      </trkpt>
      <trkpt lat="46.47818" lon="3.98163">
        <ele>254.89</ele>
        <time>2014-07-07T14:46:41Z</time>
      </trkpt>
      <trkpt lat="46.47819" lon="3.98165">
        <ele>254.89</ele>
        <time>2014-07-07T14:47:09Z</time>
      </trkpt>
      <trkpt lat="46.47818" lon="3.98164">
        <ele>254.89</ele>
        <time>2014-07-07T14:47:32Z</time>
      </trkpt>
      <trkpt lat="46.47819" lon="3.98162">
        <ele>254.89</ele>
        <time>2014-07-07T14:47:58Z</time>
      </trkpt>
      <trkpt lat="46.47813" lon="3.98158">
        <ele>254.89</ele>
        <time>2014-07-07T14:48:28Z</time>
      </trkpt>
      <trkpt lat="46.47817" lon="3.98161">
        <ele>254.89</ele>
        <time>2014-07-07T14:48:51Z</time>
      </trkpt>
      <trkpt lat="46.47813" lon="3.9816">
        <ele>254.89</ele>
        <time>2014-07-07T14:49:15Z</time>
      </trkpt>
      <trkpt lat="46.47807" lon="3.98153">
        <ele>254.89</ele>
        <time>2014-07-07T14:49:42Z</time>
      </trkpt>
      <trkpt lat="46.47805" lon="3.98153">
        <ele>254.89</ele>
        <time>2014-07-07T14:50:05Z</time>
      </trkpt>
      <trkpt lat="46.47803" lon="3.98152">
        <ele>254.89</ele>
        <time>2014-07-07T14:50:36Z</time>
      </trkpt>
      <trkpt lat="46.47804" lon="3.98153">
        <ele>254.89</ele>
        <time>2014-07-07T14:51:06Z</time>
      </trkpt>
      <trkpt lat="46.47803" lon="3.98156">
        <ele>254.89</ele>
        <time>2014-07-07T14:51:32Z</time>
      </trkpt>
      <trkpt lat="46.47805" lon="3.98155">
        <ele>254.89</ele>
        <time>2014-07-07T14:52:02Z</time>
      </trkpt>
      <trkpt lat="46.47803" lon="3.98155">
        <ele>255.85</ele>
        <time>2014-07-07T14:52:20Z</time>
      </trkpt>
      <trkpt lat="46.47806" lon="3.98156">
        <ele>254.89</ele>
        <time>2014-07-07T14:52:48Z</time>
      </trkpt>
      <trkpt lat="46.47806" lon="3.98154">
        <ele>254.89</ele>
        <time>2014-07-07T14:53:12Z</time>
      </trkpt>
      <trkpt lat="46.47805" lon="3.98155">
        <ele>254.41</ele>
        <time>2014-07-07T14:53:43Z</time>
      </trkpt>
      <trkpt lat="46.47805" lon="3.98155">
        <ele>254.41</ele>
        <time>2014-07-07T14:54:20Z</time>
      </trkpt>
      <trkpt lat="46.47804" lon="3.98152">
        <ele>254.89</ele>
        <time>2014-07-07T14:54:44Z</time>
      </trkpt>
      <trkpt lat="46.47803" lon="3.98149">
        <ele>254.89</ele>
        <time>2014-07-07T14:55:19Z</time>
      </trkpt>
      <trkpt lat="46.47804" lon="3.98149">
        <ele>254.89</ele>
        <time>2014-07-07T14:55:51Z</time>
      </trkpt>
      <trkpt lat="46.47802" lon="3.98145">
        <ele>254.41</ele>
        <time>2014-07-07T14:56:30Z</time>
      </trkpt>
      <trkpt lat="46.47802" lon="3.9815">
        <ele>254.41</ele>
        <time>2014-07-07T14:57:07Z</time>
      </trkpt>
      <trkpt lat="46.478" lon="3.98153">
        <ele>254.41</ele>
        <time>2014-07-07T14:57:38Z</time>
      </trkpt>
      <trkpt lat="46.47802" lon="3.98149">
        <ele>254.41</ele>
        <time>2014-07-07T14:58:06Z</time>
      </trkpt>
      <trkpt lat="46.47801" lon="3.98148">
        <ele>254.89</ele>
        <time>2014-07-07T14:58:37Z</time>
      </trkpt>
      <trkpt lat="46.47802" lon="3.9815">
        <ele>254.89</ele>
        <time>2014-07-07T14:59:08Z</time>
      </trkpt>
      <trkpt lat="46.47804" lon="3.98153">
        <ele>254.89</ele>
        <time>2014-07-07T14:59:44Z</time>
      </trkpt>
      <trkpt lat="46.47803" lon="3.98154">
        <ele>254.89</ele>
        <time>2014-07-07T15:00:26Z</time>
      </trkpt>
      <trkpt lat="46.47803" lon="3.98152">
        <ele>254.89</ele>
        <time>2014-07-07T15:01:05Z</time>
      </trkpt>
      <trkpt lat="46.47805" lon="3.98151">
        <ele>254.89</ele>
        <time>2014-07-07T15:01:43Z</time>
      </trkpt>
      <trkpt lat="46.47802" lon="3.98146">
        <ele>254.89</ele>
        <time>2014-07-07T15:02:20Z</time>
      </trkpt>
      <trkpt lat="46.47804" lon="3.9815">
        <ele>254.41</ele>
        <time>2014-07-07T15:02:51Z</time>
      </trkpt>
      <trkpt lat="46.47804" lon="3.98147">
        <ele>254.41</ele>
        <time>2014-07-07T15:03:30Z</time>
      </trkpt>
      <trkpt lat="46.47804" lon="3.98151">
        <ele>254.41</ele>
        <time>2014-07-07T15:04:04Z</time>
      </trkpt>
      <trkpt lat="46.47807" lon="3.98158">
        <ele>254.41</ele>
        <time>2014-07-07T15:04:35Z</time>
      </trkpt>
      <trkpt lat="46.47805" lon="3.98158">
        <ele>254.41</ele>
        <time>2014-07-07T15:05:01Z</time>
      </trkpt>
      <trkpt lat="46.47805" lon="3.98154">
        <ele>254.41</ele>
        <time>2014-07-07T15:05:37Z</time>
      </trkpt>
      <trkpt lat="46.47803" lon="3.98151">
        <ele>253.93</ele>
        <time>2014-07-07T15:05:46Z</time>
      </trkpt>
      <trkpt lat="46.47807" lon="3.98141">
        <ele>253.93</ele>
        <time>2014-07-07T15:06:00Z</time>
      </trkpt>
      <trkpt lat="46.47804" lon="3.98112">
        <ele>253.93</ele>
        <time>2014-07-07T15:06:12Z</time>
      </trkpt>
      <trkpt lat="46.47797" lon="3.98108">
        <ele>254.41</ele>
        <time>2014-07-07T15:06:16Z</time>
      </trkpt>
      <trkpt lat="46.47797" lon="3.98103">
        <ele>254.41</ele>
        <time>2014-07-07T15:06:21Z</time>
      </trkpt>
      <trkpt lat="46.47761" lon="3.98082">
        <ele>253.93</ele>
        <time>2014-07-07T15:06:37Z</time>
      </trkpt>
      <trkpt lat="46.47744" lon="3.98071">
        <ele>253.93</ele>
        <time>2014-07-07T15:06:51Z</time>
      </trkpt>
      <trkpt lat="46.4774" lon="3.98068">
        <ele>253.93</ele>
        <time>2014-07-07T15:07:09Z</time>
      </trkpt>
      <trkpt lat="46.47723" lon="3.98057">
        <ele>253.93</ele>
        <time>2014-07-07T15:07:23Z</time>
      </trkpt>
      <trkpt lat="46.47679" lon="3.98029">
        <ele>253.93</ele>
        <time>2014-07-07T15:07:47Z</time>
      </trkpt>
      <trkpt lat="46.47653" lon="3.98013">
        <ele>253.44</ele>
        <time>2014-07-07T15:08:08Z</time>
      </trkpt>
      <trkpt lat="46.47637" lon="3.98002">
        <ele>253.44</ele>
        <time>2014-07-07T15:08:23Z</time>
      </trkpt>
      <trkpt lat="46.47625" lon="3.97994">
        <ele>253.44</ele>
        <time>2014-07-07T15:08:31Z</time>
      </trkpt>
      <trkpt lat="46.4762" lon="3.97997">
        <ele>253.44</ele>
        <time>2014-07-07T15:08:45Z</time>
      </trkpt>
      <trkpt lat="46.47621" lon="3.97997">
        <ele>253.44</ele>
        <time>2014-07-07T15:09:10Z</time>
      </trkpt>
      <trkpt lat="46.47609" lon="3.97991">
        <ele>253.44</ele>
        <time>2014-07-07T15:09:24Z</time>
      </trkpt>
      <trkpt lat="46.47575" lon="3.97976">
        <ele>252.96</ele>
        <time>2014-07-07T15:09:39Z</time>
      </trkpt>
      <trkpt lat="46.47535" lon="3.97946">
        <ele>252</ele>
        <time>2014-07-07T15:09:55Z</time>
      </trkpt>
      <trkpt lat="46.47504" lon="3.97919">
        <ele>252.96</ele>
        <time>2014-07-07T15:10:09Z</time>
      </trkpt>
      <trkpt lat="46.47495" lon="3.97915">
        <ele>252.96</ele>
        <time>2014-07-07T15:10:13Z</time>
      </trkpt>
      <trkpt lat="46.47493" lon="3.97907">
        <ele>252.96</ele>
        <time>2014-07-07T15:10:17Z</time>
      </trkpt>
      <trkpt lat="46.47498" lon="3.97888">
        <ele>252.96</ele>
        <time>2014-07-07T15:10:25Z</time>
      </trkpt>
      <trkpt lat="46.4749" lon="3.97878">
        <ele>253.44</ele>
        <time>2014-07-07T15:10:29Z</time>
      </trkpt>
      <trkpt lat="46.47478" lon="3.97872">
        <ele>251.52</ele>
        <time>2014-07-07T15:10:32Z</time>
      </trkpt>
      <trkpt lat="46.47427" lon="3.97847">
        <ele>249.6</ele>
        <time>2014-07-07T15:10:43Z</time>
      </trkpt>
      <trkpt lat="46.47421" lon="3.9784">
        <ele>249.6</ele>
        <time>2014-07-07T15:10:48Z</time>
      </trkpt>
      <trkpt lat="46.47391" lon="3.97824">
        <ele>249.6</ele>
        <time>2014-07-07T15:11:05Z</time>
      </trkpt>
      <trkpt lat="46.47379" lon="3.97813">
        <ele>249.6</ele>
        <time>2014-07-07T15:11:20Z</time>
      </trkpt>
      <trkpt lat="46.47377" lon="3.97817">
        <ele>249.12</ele>
        <time>2014-07-07T15:12:05Z</time>
      </trkpt>
      <trkpt lat="46.47375" lon="3.97814">
        <ele>249.12</ele>
        <time>2014-07-07T15:12:48Z</time>
      </trkpt>
      <trkpt lat="46.47359" lon="3.978">
        <ele>249.12</ele>
        <time>2014-07-07T15:13:02Z</time>
      </trkpt>
      <trkpt lat="46.47314" lon="3.97736">
        <ele>248.64</ele>
        <time>2014-07-07T15:13:19Z</time>
      </trkpt>
      <trkpt lat="46.47297" lon="3.97657">
        <ele>248.64</ele>
        <time>2014-07-07T15:13:33Z</time>
      </trkpt>
      <trkpt lat="46.4729" lon="3.97534">
        <ele>248.64</ele>
        <time>2014-07-07T15:13:52Z</time>
      </trkpt>
      <trkpt lat="46.47282" lon="3.97396">
        <ele>248.16</ele>
        <time>2014-07-07T15:14:14Z</time>
      </trkpt>
      <trkpt lat="46.47274" lon="3.97275">
        <ele>248.16</ele>
        <time>2014-07-07T15:14:34Z</time>
      </trkpt>
      <trkpt lat="46.47268" lon="3.97167">
        <ele>248.16</ele>
        <time>2014-07-07T15:14:52Z</time>
      </trkpt>
      <trkpt lat="46.47264" lon="3.97107">
        <ele>248.16</ele>
        <time>2014-07-07T15:15:02Z</time>
      </trkpt>
      <trkpt lat="46.47262" lon="3.97083">
        <ele>248.16</ele>
        <time>2014-07-07T15:15:06Z</time>
      </trkpt>
      <trkpt lat="46.47255" lon="3.96968">
        <ele>248.16</ele>
        <time>2014-07-07T15:15:25Z</time>
      </trkpt>
      <trkpt lat="46.47246" lon="3.96844">
        <ele>248.16</ele>
        <time>2014-07-07T15:15:45Z</time>
      </trkpt>
      <trkpt lat="46.47238" lon="3.9673">
        <ele>247.68</ele>
        <time>2014-07-07T15:16:04Z</time>
      </trkpt>
      <trkpt lat="46.47235" lon="3.96655">
        <ele>247.68</ele>
        <time>2014-07-07T15:16:16Z</time>
      </trkpt>
      <trkpt lat="46.47211" lon="3.96571">
        <ele>247.68</ele>
        <time>2014-07-07T15:16:31Z</time>
      </trkpt>
      <trkpt lat="46.47212" lon="3.96515">
        <ele>247.68</ele>
        <time>2014-07-07T15:16:42Z</time>
      </trkpt>
      <trkpt lat="46.47214" lon="3.96481">
        <ele>247.68</ele>
        <time>2014-07-07T15:16:48Z</time>
      </trkpt>
      <trkpt lat="46.47214" lon="3.96463">
        <ele>247.68</ele>
        <time>2014-07-07T15:16:51Z</time>
      </trkpt>
      <trkpt lat="46.47203" lon="3.9633">
        <ele>247.2</ele>
        <time>2014-07-07T15:17:12Z</time>
      </trkpt>
      <trkpt lat="46.47197" lon="3.96233">
        <ele>247.2</ele>
        <time>2014-07-07T15:17:28Z</time>
      </trkpt>
      <trkpt lat="46.47195" lon="3.96209">
        <ele>247.2</ele>
        <time>2014-07-07T15:17:32Z</time>
      </trkpt>
      <trkpt lat="46.47189" lon="3.96107">
        <ele>247.2</ele>
        <time>2014-07-07T15:17:50Z</time>
      </trkpt>
      <trkpt lat="46.47185" lon="3.96027">
        <ele>247.68</ele>
        <time>2014-07-07T15:18:04Z</time>
      </trkpt>
      <trkpt lat="46.47178" lon="3.95926">
        <ele>247.2</ele>
        <time>2014-07-07T15:18:22Z</time>
      </trkpt>
      <trkpt lat="46.47178" lon="3.95909">
        <ele>247.2</ele>
        <time>2014-07-07T15:18:27Z</time>
      </trkpt>
      <trkpt lat="46.4718" lon="3.95834">
        <ele>247.2</ele>
        <time>2014-07-07T15:18:43Z</time>
      </trkpt>
      <trkpt lat="46.4719" lon="3.95759">
        <ele>247.2</ele>
        <time>2014-07-07T15:18:58Z</time>
      </trkpt>
      <trkpt lat="46.47173" lon="3.95661">
        <ele>247.2</ele>
        <time>2014-07-07T15:19:16Z</time>
      </trkpt>
      <trkpt lat="46.47154" lon="3.95545">
        <ele>247.2</ele>
        <time>2014-07-07T15:19:36Z</time>
      </trkpt>
      <trkpt lat="46.47147" lon="3.95432">
        <ele>247.68</ele>
        <time>2014-07-07T15:19:55Z</time>
      </trkpt>
      <trkpt lat="46.47144" lon="3.95365">
        <ele>247.2</ele>
        <time>2014-07-07T15:20:06Z</time>
      </trkpt>
      <trkpt lat="46.47143" lon="3.95328">
        <ele>247.2</ele>
        <time>2014-07-07T15:20:12Z</time>
      </trkpt>
      <trkpt lat="46.47134" lon="3.95192">
        <ele>247.2</ele>
        <time>2014-07-07T15:20:35Z</time>
      </trkpt>
      <trkpt lat="46.47126" lon="3.9507">
        <ele>246.72</ele>
        <time>2014-07-07T15:20:56Z</time>
      </trkpt>
      <trkpt lat="46.47119" lon="3.94963">
        <ele>247.2</ele>
        <time>2014-07-07T15:21:15Z</time>
      </trkpt>
      <trkpt lat="46.47113" lon="3.94854">
        <ele>247.2</ele>
        <time>2014-07-07T15:21:33Z</time>
      </trkpt>
      <trkpt lat="46.47106" lon="3.94743">
        <ele>247.2</ele>
        <time>2014-07-07T15:21:52Z</time>
      </trkpt>
      <trkpt lat="46.47097" lon="3.94628">
        <ele>246.72</ele>
        <time>2014-07-07T15:22:11Z</time>
      </trkpt>
      <trkpt lat="46.4709" lon="3.94553">
        <ele>246.23</ele>
        <time>2014-07-07T15:22:25Z</time>
      </trkpt>
      <trkpt lat="46.47089" lon="3.94447">
        <ele>246.23</ele>
        <time>2014-07-07T15:22:45Z</time>
      </trkpt>
      <trkpt lat="46.47099" lon="3.94323">
        <ele>246.23</ele>
        <time>2014-07-07T15:23:07Z</time>
      </trkpt>
      <trkpt lat="46.47118" lon="3.94239">
        <ele>246.23</ele>
        <time>2014-07-07T15:23:23Z</time>
      </trkpt>
      <trkpt lat="46.47143" lon="3.94171">
        <ele>245.75</ele>
        <time>2014-07-07T15:23:36Z</time>
      </trkpt>
      <trkpt lat="46.47182" lon="3.94087">
        <ele>245.75</ele>
        <time>2014-07-07T15:23:53Z</time>
      </trkpt>
      <trkpt lat="46.47225" lon="3.93997">
        <ele>245.75</ele>
        <time>2014-07-07T15:24:11Z</time>
      </trkpt>
      <trkpt lat="46.4727" lon="3.93899">
        <ele>245.27</ele>
        <time>2014-07-07T15:24:30Z</time>
      </trkpt>
      <trkpt lat="46.47316" lon="3.93798">
        <ele>245.27</ele>
        <time>2014-07-07T15:24:50Z</time>
      </trkpt>
      <trkpt lat="46.47361" lon="3.93705">
        <ele>245.27</ele>
        <time>2014-07-07T15:25:09Z</time>
      </trkpt>
      <trkpt lat="46.4741" lon="3.93601">
        <ele>244.79</ele>
        <time>2014-07-07T15:25:30Z</time>
      </trkpt>
      <trkpt lat="46.47454" lon="3.93504">
        <ele>244.79</ele>
        <time>2014-07-07T15:25:49Z</time>
      </trkpt>
      <trkpt lat="46.475" lon="3.93396">
        <ele>244.79</ele>
        <time>2014-07-07T15:26:10Z</time>
      </trkpt>
      <trkpt lat="46.47535" lon="3.93271">
        <ele>244.31</ele>
        <time>2014-07-07T15:26:31Z</time>
      </trkpt>
      <trkpt lat="46.47556" lon="3.93162">
        <ele>244.79</ele>
        <time>2014-07-07T15:26:50Z</time>
      </trkpt>
      <trkpt lat="46.47566" lon="3.93026">
        <ele>244.31</ele>
        <time>2014-07-07T15:27:12Z</time>
      </trkpt>
      <trkpt lat="46.47566" lon="3.93015">
        <ele>244.79</ele>
        <time>2014-07-07T15:27:14Z</time>
      </trkpt>
      <trkpt lat="46.47573" lon="3.92934">
        <ele>244.31</ele>
        <time>2014-07-07T15:27:29Z</time>
      </trkpt>
      <trkpt lat="46.4758" lon="3.92854">
        <ele>244.31</ele>
        <time>2014-07-07T15:27:43Z</time>
      </trkpt>
      <trkpt lat="46.47592" lon="3.92738">
        <ele>243.83</ele>
        <time>2014-07-07T15:28:02Z</time>
      </trkpt>
      <trkpt lat="46.47603" lon="3.92609">
        <ele>244.31</ele>
        <time>2014-07-07T15:28:22Z</time>
      </trkpt>
      <trkpt lat="46.47612" lon="3.92493">
        <ele>244.31</ele>
        <time>2014-07-07T15:28:41Z</time>
      </trkpt>
      <trkpt lat="46.47618" lon="3.92443">
        <ele>244.31</ele>
        <time>2014-07-07T15:28:49Z</time>
      </trkpt>
      <trkpt lat="46.47631" lon="3.92388">
        <ele>246.23</ele>
        <time>2014-07-07T15:29:02Z</time>
      </trkpt>
      <trkpt lat="46.4763" lon="3.92328">
        <ele>245.27</ele>
        <time>2014-07-07T15:29:15Z</time>
      </trkpt>
      <trkpt lat="46.47629" lon="3.92302">
        <ele>244.31</ele>
        <time>2014-07-07T15:29:19Z</time>
      </trkpt>
      <trkpt lat="46.4763" lon="3.92286">
        <ele>243.83</ele>
        <time>2014-07-07T15:29:24Z</time>
      </trkpt>
      <trkpt lat="46.47637" lon="3.92209">
        <ele>243.83</ele>
        <time>2014-07-07T15:29:42Z</time>
      </trkpt>
      <trkpt lat="46.47644" lon="3.92148">
        <ele>243.83</ele>
        <time>2014-07-07T15:29:54Z</time>
      </trkpt>
      <trkpt lat="46.47664" lon="3.92036">
        <ele>243.83</ele>
        <time>2014-07-07T15:30:13Z</time>
      </trkpt>
      <trkpt lat="46.47696" lon="3.91926">
        <ele>243.83</ele>
        <time>2014-07-07T15:30:32Z</time>
      </trkpt>
      <trkpt lat="46.47735" lon="3.91818">
        <ele>243.83</ele>
        <time>2014-07-07T15:30:51Z</time>
      </trkpt>
      <trkpt lat="46.47775" lon="3.91714">
        <ele>243.83</ele>
        <time>2014-07-07T15:31:10Z</time>
      </trkpt>
      <trkpt lat="46.47801" lon="3.91606">
        <ele>243.35</ele>
        <time>2014-07-07T15:31:28Z</time>
      </trkpt>
      <trkpt lat="46.47814" lon="3.91472">
        <ele>243.83</ele>
        <time>2014-07-07T15:31:49Z</time>
      </trkpt>
      <trkpt lat="46.47813" lon="3.91358">
        <ele>243.35</ele>
        <time>2014-07-07T15:32:07Z</time>
      </trkpt>
      <trkpt lat="46.47812" lon="3.91293">
        <ele>246.72</ele>
        <time>2014-07-07T15:32:21Z</time>
      </trkpt>
      <trkpt lat="46.47803" lon="3.91245">
        <ele>244.31</ele>
        <time>2014-07-07T15:32:34Z</time>
      </trkpt>
      <trkpt lat="46.47802" lon="3.91242">
        <ele>244.31</ele>
        <time>2014-07-07T15:32:35Z</time>
      </trkpt>
      <trkpt lat="46.47799" lon="3.91226">
        <ele>243.35</ele>
        <time>2014-07-07T15:32:40Z</time>
      </trkpt>
      <trkpt lat="46.47792" lon="3.91121">
        <ele>243.35</ele>
        <time>2014-07-07T15:32:58Z</time>
      </trkpt>
      <trkpt lat="46.47793" lon="3.91104">
        <ele>243.35</ele>
        <time>2014-07-07T15:33:01Z</time>
      </trkpt>
      <trkpt lat="46.47808" lon="3.90989">
        <ele>243.35</ele>
        <time>2014-07-07T15:33:20Z</time>
      </trkpt>
      <trkpt lat="46.47824" lon="3.90892">
        <ele>243.35</ele>
        <time>2014-07-07T15:33:37Z</time>
      </trkpt>
      <trkpt lat="46.47842" lon="3.90774">
        <ele>243.35</ele>
        <time>2014-07-07T15:33:56Z</time>
      </trkpt>
      <trkpt lat="46.47858" lon="3.90665">
        <ele>242.87</ele>
        <time>2014-07-07T15:34:14Z</time>
      </trkpt>
      <trkpt lat="46.47877" lon="3.90555">
        <ele>242.87</ele>
        <time>2014-07-07T15:34:32Z</time>
      </trkpt>
      <trkpt lat="46.47893" lon="3.90455">
        <ele>242.87</ele>
        <time>2014-07-07T15:34:48Z</time>
      </trkpt>
      <trkpt lat="46.47908" lon="3.90359">
        <ele>242.87</ele>
        <time>2014-07-07T15:35:04Z</time>
      </trkpt>
      <trkpt lat="46.47921" lon="3.90276">
        <ele>242.87</ele>
        <time>2014-07-07T15:35:18Z</time>
      </trkpt>
      <trkpt lat="46.4794" lon="3.9016">
        <ele>242.87</ele>
        <time>2014-07-07T15:35:37Z</time>
      </trkpt>
      <trkpt lat="46.47959" lon="3.90038">
        <ele>242.87</ele>
        <time>2014-07-07T15:35:57Z</time>
      </trkpt>
      <trkpt lat="46.47979" lon="3.89913">
        <ele>242.87</ele>
        <time>2014-07-07T15:36:18Z</time>
      </trkpt>
      <trkpt lat="46.47988" lon="3.89809">
        <ele>242.87</ele>
        <time>2014-07-07T15:36:35Z</time>
      </trkpt>
      <trkpt lat="46.47987" lon="3.89688">
        <ele>242.87</ele>
        <time>2014-07-07T15:36:55Z</time>
      </trkpt>
      <trkpt lat="46.47978" lon="3.8957">
        <ele>242.39</ele>
        <time>2014-07-07T15:37:14Z</time>
      </trkpt>
      <trkpt lat="46.47964" lon="3.89487">
        <ele>242.87</ele>
        <time>2014-07-07T15:37:28Z</time>
      </trkpt>
      <trkpt lat="46.47951" lon="3.89418">
        <ele>242.39</ele>
        <time>2014-07-07T15:37:42Z</time>
      </trkpt>
      <trkpt lat="46.47942" lon="3.89366">
        <ele>242.39</ele>
        <time>2014-07-07T15:37:57Z</time>
      </trkpt>
      <trkpt lat="46.47929" lon="3.89285">
        <ele>242.87</ele>
        <time>2014-07-07T15:38:14Z</time>
      </trkpt>
      <trkpt lat="46.47911" lon="3.89212">
        <ele>242.87</ele>
        <time>2014-07-07T15:38:28Z</time>
      </trkpt>
      <trkpt lat="46.47914" lon="3.89149">
        <ele>244.31</ele>
        <time>2014-07-07T15:38:41Z</time>
      </trkpt>
      <trkpt lat="46.47915" lon="3.8911">
        <ele>244.79</ele>
        <time>2014-07-07T15:38:52Z</time>
      </trkpt>
      <trkpt lat="46.47919" lon="3.89062">
        <ele>244.79</ele>
        <time>2014-07-07T15:39:04Z</time>
      </trkpt>
      <trkpt lat="46.47923" lon="3.88993">
        <ele>244.79</ele>
        <time>2014-07-07T15:39:20Z</time>
      </trkpt>
      <trkpt lat="46.47936" lon="3.88906">
        <ele>244.79</ele>
        <time>2014-07-07T15:39:38Z</time>
      </trkpt>
      <trkpt lat="46.47955" lon="3.8884">
        <ele>244.79</ele>
        <time>2014-07-07T15:39:52Z</time>
      </trkpt>
      <trkpt lat="46.47968" lon="3.88786">
        <ele>244.79</ele>
        <time>2014-07-07T15:40:06Z</time>
      </trkpt>
      <trkpt lat="46.47993" lon="3.88703">
        <ele>243.83</ele>
        <time>2014-07-07T15:40:22Z</time>
      </trkpt>
      <trkpt lat="46.48033" lon="3.88581">
        <ele>242.39</ele>
        <time>2014-07-07T15:40:41Z</time>
      </trkpt>
      <trkpt lat="46.4806" lon="3.88437">
        <ele>242.39</ele>
        <time>2014-07-07T15:41:02Z</time>
      </trkpt>
      <trkpt lat="46.4807" lon="3.88315">
        <ele>241.91</ele>
        <time>2014-07-07T15:41:20Z</time>
      </trkpt>
      <trkpt lat="46.48072" lon="3.88195">
        <ele>241.91</ele>
        <time>2014-07-07T15:41:38Z</time>
      </trkpt>
      <trkpt lat="46.48072" lon="3.88074">
        <ele>241.43</ele>
        <time>2014-07-07T15:41:57Z</time>
      </trkpt>
      <trkpt lat="46.48073" lon="3.87963">
        <ele>241.43</ele>
        <time>2014-07-07T15:42:14Z</time>
      </trkpt>
      <trkpt lat="46.48072" lon="3.87851">
        <ele>241.43</ele>
        <time>2014-07-07T15:42:31Z</time>
      </trkpt>
      <trkpt lat="46.4807" lon="3.8773">
        <ele>240.95</ele>
        <time>2014-07-07T15:42:49Z</time>
      </trkpt>
      <trkpt lat="46.48069" lon="3.87598">
        <ele>240.95</ele>
        <time>2014-07-07T15:43:09Z</time>
      </trkpt>
      <trkpt lat="46.48068" lon="3.87544">
        <ele>241.43</ele>
        <time>2014-07-07T15:43:17Z</time>
      </trkpt>
      <trkpt lat="46.48068" lon="3.87524">
        <ele>240.95</ele>
        <time>2014-07-07T15:43:20Z</time>
      </trkpt>
      <trkpt lat="46.48065" lon="3.87388">
        <ele>240.95</ele>
        <time>2014-07-07T15:43:41Z</time>
      </trkpt>
      <trkpt lat="46.48067" lon="3.8733">
        <ele>241.91</ele>
        <time>2014-07-07T15:43:53Z</time>
      </trkpt>
      <trkpt lat="46.48067" lon="3.87323">
        <ele>241.91</ele>
        <time>2014-07-07T15:43:57Z</time>
      </trkpt>
      <trkpt lat="46.48067" lon="3.87277">
        <ele>239.51</ele>
        <time>2014-07-07T15:44:09Z</time>
      </trkpt>
      <trkpt lat="46.48066" lon="3.87163">
        <ele>239.51</ele>
        <time>2014-07-07T15:44:28Z</time>
      </trkpt>
      <trkpt lat="46.48068" lon="3.87082">
        <ele>239.51</ele>
        <time>2014-07-07T15:44:41Z</time>
      </trkpt>
      <trkpt lat="46.48079" lon="3.86967">
        <ele>239.99</ele>
        <time>2014-07-07T15:45:00Z</time>
      </trkpt>
      <trkpt lat="46.48093" lon="3.86901">
        <ele>239.99</ele>
        <time>2014-07-07T15:45:11Z</time>
      </trkpt>
      <trkpt lat="46.48126" lon="3.86781">
        <ele>239.51</ele>
        <time>2014-07-07T15:45:32Z</time>
      </trkpt>
      <trkpt lat="46.48172" lon="3.86661">
        <ele>239.51</ele>
        <time>2014-07-07T15:45:53Z</time>
      </trkpt>
      <trkpt lat="46.48216" lon="3.86549">
        <ele>238.54</ele>
        <time>2014-07-07T15:46:12Z</time>
      </trkpt>
      <trkpt lat="46.48262" lon="3.86436">
        <ele>238.06</ele>
        <time>2014-07-07T15:46:30Z</time>
      </trkpt>
      <trkpt lat="46.48304" lon="3.86331">
        <ele>238.06</ele>
        <time>2014-07-07T15:46:48Z</time>
      </trkpt>
      <trkpt lat="46.48324" lon="3.86281">
        <ele>238.06</ele>
        <time>2014-07-07T15:46:57Z</time>
      </trkpt>
      <trkpt lat="46.48359" lon="3.86196">
        <ele>238.06</ele>
        <time>2014-07-07T15:47:13Z</time>
      </trkpt>
      <trkpt lat="46.48391" lon="3.86115">
        <ele>237.58</ele>
        <time>2014-07-07T15:47:29Z</time>
      </trkpt>
      <trkpt lat="46.48427" lon="3.86025">
        <ele>237.58</ele>
        <time>2014-07-07T15:47:47Z</time>
      </trkpt>
      <trkpt lat="46.48456" lon="3.85953">
        <ele>237.58</ele>
        <time>2014-07-07T15:48:01Z</time>
      </trkpt>
      <trkpt lat="46.4848" lon="3.85869">
        <ele>238.06</ele>
        <time>2014-07-07T15:48:17Z</time>
      </trkpt>
      <trkpt lat="46.48491" lon="3.85805">
        <ele>238.06</ele>
        <time>2014-07-07T15:48:29Z</time>
      </trkpt>
      <trkpt lat="46.4851" lon="3.85739">
        <ele>238.06</ele>
        <time>2014-07-07T15:48:47Z</time>
      </trkpt>
      <trkpt lat="46.48509" lon="3.85737">
        <ele>238.06</ele>
        <time>2014-07-07T15:48:55Z</time>
      </trkpt>
      <trkpt lat="46.48502" lon="3.85763">
        <ele>238.06</ele>
        <time>2014-07-07T15:49:06Z</time>
      </trkpt>
      <trkpt lat="46.48504" lon="3.85759">
        <ele>237.58</ele>
        <time>2014-07-07T15:49:16Z</time>
      </trkpt>
      <trkpt lat="46.48506" lon="3.85749">
        <ele>237.58</ele>
        <time>2014-07-07T15:49:20Z</time>
      </trkpt>
      <trkpt lat="46.48527" lon="3.85666">
        <ele>237.58</ele>
        <time>2014-07-07T15:49:36Z</time>
      </trkpt>
      <trkpt lat="46.4856" lon="3.85551">
        <ele>237.58</ele>
        <time>2014-07-07T15:49:56Z</time>
      </trkpt>
      <trkpt lat="46.48577" lon="3.85507">
        <ele>237.58</ele>
        <time>2014-07-07T15:50:04Z</time>
      </trkpt>
      <trkpt lat="46.48581" lon="3.85495">
        <ele>237.58</ele>
        <time>2014-07-07T15:50:06Z</time>
      </trkpt>
      <trkpt lat="46.4863" lon="3.85395">
        <ele>238.06</ele>
        <time>2014-07-07T15:50:25Z</time>
      </trkpt>
      <trkpt lat="46.48684" lon="3.85309">
        <ele>238.06</ele>
        <time>2014-07-07T15:50:43Z</time>
      </trkpt>
      <trkpt lat="46.48752" lon="3.85223">
        <ele>238.06</ele>
        <time>2014-07-07T15:51:03Z</time>
      </trkpt>
      <trkpt lat="46.48832" lon="3.85142">
        <ele>237.1</ele>
        <time>2014-07-07T15:51:24Z</time>
      </trkpt>
      <trkpt lat="46.48899" lon="3.85077">
        <ele>237.58</ele>
        <time>2014-07-07T15:51:42Z</time>
      </trkpt>
      <trkpt lat="46.48958" lon="3.8501">
        <ele>237.58</ele>
        <time>2014-07-07T15:51:58Z</time>
      </trkpt>
      <trkpt lat="46.48975" lon="3.84988">
        <ele>237.58</ele>
        <time>2014-07-07T15:52:03Z</time>
      </trkpt>
      <trkpt lat="46.49003" lon="3.84951">
        <ele>237.1</ele>
        <time>2014-07-07T15:52:11Z</time>
      </trkpt>
      <trkpt lat="46.49061" lon="3.84849">
        <ele>237.58</ele>
        <time>2014-07-07T15:52:30Z</time>
      </trkpt>
      <trkpt lat="46.49099" lon="3.84763">
        <ele>237.58</ele>
        <time>2014-07-07T15:52:45Z</time>
      </trkpt>
      <trkpt lat="46.49102" lon="3.84757">
        <ele>237.58</ele>
        <time>2014-07-07T15:52:46Z</time>
      </trkpt>
      <trkpt lat="46.4911" lon="3.84742">
        <ele>237.58</ele>
        <time>2014-07-07T15:52:49Z</time>
      </trkpt>
      <trkpt lat="46.49129" lon="3.84702">
        <ele>237.58</ele>
        <time>2014-07-07T15:52:56Z</time>
      </trkpt>
      <trkpt lat="46.4917" lon="3.84613">
        <ele>237.58</ele>
        <time>2014-07-07T15:53:12Z</time>
      </trkpt>
      <trkpt lat="46.49222" lon="3.84495">
        <ele>237.58</ele>
        <time>2014-07-07T15:53:32Z</time>
      </trkpt>
      <trkpt lat="46.49264" lon="3.84402">
        <ele>237.58</ele>
        <time>2014-07-07T15:53:51Z</time>
      </trkpt>
      <trkpt lat="46.49305" lon="3.84311">
        <ele>237.58</ele>
        <time>2014-07-07T15:54:10Z</time>
      </trkpt>
      <trkpt lat="46.49351" lon="3.84215">
        <ele>237.1</ele>
        <time>2014-07-07T15:54:29Z</time>
      </trkpt>
      <trkpt lat="46.49376" lon="3.84172">
        <ele>239.02</ele>
        <time>2014-07-07T15:54:40Z</time>
      </trkpt>
      <trkpt lat="46.49381" lon="3.84162">
        <ele>239.02</ele>
        <time>2014-07-07T15:54:45Z</time>
      </trkpt>
      <trkpt lat="46.49389" lon="3.84146">
        <ele>239.99</ele>
        <time>2014-07-07T15:55:01Z</time>
      </trkpt>
      <trkpt lat="46.49388" lon="3.84148">
        <ele>239.99</ele>
        <time>2014-07-07T15:55:27Z</time>
      </trkpt>
      <trkpt lat="46.49389" lon="3.84149">
        <ele>239.99</ele>
        <time>2014-07-07T15:56:06Z</time>
      </trkpt>
      <trkpt lat="46.49387" lon="3.84148">
        <ele>239.99</ele>
        <time>2014-07-07T15:56:41Z</time>
      </trkpt>
      <trkpt lat="46.49388" lon="3.84149">
        <ele>239.99</ele>
        <time>2014-07-07T15:57:14Z</time>
      </trkpt>
      <trkpt lat="46.49391" lon="3.84148">
        <ele>240.47</ele>
        <time>2014-07-07T15:57:50Z</time>
      </trkpt>
      <trkpt lat="46.49391" lon="3.84149">
        <ele>240.47</ele>
        <time>2014-07-07T15:58:21Z</time>
      </trkpt>
      <trkpt lat="46.49389" lon="3.84148">
        <ele>240.47</ele>
        <time>2014-07-07T15:58:49Z</time>
      </trkpt>
      <trkpt lat="46.49392" lon="3.84151">
        <ele>240.47</ele>
        <time>2014-07-07T15:59:23Z</time>
      </trkpt>
      <trkpt lat="46.49389" lon="3.84148">
        <ele>240.47</ele>
        <time>2014-07-07T15:59:59Z</time>
      </trkpt>
      <trkpt lat="46.4939" lon="3.84151">
        <ele>240.95</ele>
        <time>2014-07-07T16:00:46Z</time>
      </trkpt>
      <trkpt lat="46.49394" lon="3.8415">
        <ele>240.95</ele>
        <time>2014-07-07T16:01:27Z</time>
      </trkpt>
      <trkpt lat="46.49392" lon="3.84148">
        <ele>240.95</ele>
        <time>2014-07-07T16:01:57Z</time>
      </trkpt>
      <trkpt lat="46.49392" lon="3.84148">
        <ele>240.47</ele>
        <time>2014-07-07T16:02:26Z</time>
      </trkpt>
      <trkpt lat="46.49384" lon="3.84135">
        <ele>241.43</ele>
        <time>2014-07-07T16:02:39Z</time>
      </trkpt>
      <trkpt lat="46.49383" lon="3.84133">
        <ele>241.43</ele>
        <time>2014-07-07T16:02:47Z</time>
      </trkpt>
      <trkpt lat="46.49372" lon="3.8412">
        <ele>241.43</ele>
        <time>2014-07-07T16:02:55Z</time>
      </trkpt>
      <trkpt lat="46.4933" lon="3.8409">
        <ele>239.99</ele>
        <time>2014-07-07T16:03:09Z</time>
      </trkpt>
      <trkpt lat="46.49281" lon="3.84062">
        <ele>240.95</ele>
        <time>2014-07-07T16:03:26Z</time>
      </trkpt>
      <trkpt lat="46.49239" lon="3.84039">
        <ele>242.87</ele>
        <time>2014-07-07T16:03:45Z</time>
      </trkpt>
      <trkpt lat="46.49203" lon="3.84018">
        <ele>244.79</ele>
        <time>2014-07-07T16:04:02Z</time>
      </trkpt>
      <trkpt lat="46.49159" lon="3.83993">
        <ele>246.23</ele>
        <time>2014-07-07T16:04:21Z</time>
      </trkpt>
      <trkpt lat="46.49118" lon="3.83965">
        <ele>246.23</ele>
        <time>2014-07-07T16:04:38Z</time>
      </trkpt>
      <trkpt lat="46.49052" lon="3.83918">
        <ele>245.75</ele>
        <time>2014-07-07T16:04:57Z</time>
      </trkpt>
      <trkpt lat="46.48972" lon="3.83859">
        <ele>245.27</ele>
        <time>2014-07-07T16:05:17Z</time>
      </trkpt>
      <trkpt lat="46.48891" lon="3.838">
        <ele>245.75</ele>
        <time>2014-07-07T16:05:38Z</time>
      </trkpt>
      <trkpt lat="46.48834" lon="3.83757">
        <ele>247.68</ele>
        <time>2014-07-07T16:05:57Z</time>
      </trkpt>
      <trkpt lat="46.48792" lon="3.83726">
        <ele>249.6</ele>
        <time>2014-07-07T16:06:16Z</time>
      </trkpt>
      <trkpt lat="46.48757" lon="3.83702">
        <ele>250.56</ele>
        <time>2014-07-07T16:06:30Z</time>
      </trkpt>
      <trkpt lat="46.48721" lon="3.83677">
        <ele>251.04</ele>
        <time>2014-07-07T16:06:44Z</time>
      </trkpt>
      <trkpt lat="46.48688" lon="3.83675">
        <ele>253.44</ele>
        <time>2014-07-07T16:06:58Z</time>
      </trkpt>
      <trkpt lat="46.48659" lon="3.83683">
        <ele>254.89</ele>
        <time>2014-07-07T16:07:14Z</time>
      </trkpt>
      <trkpt lat="46.48614" lon="3.83699">
        <ele>256.33</ele>
        <time>2014-07-07T16:07:35Z</time>
      </trkpt>
      <trkpt lat="46.4858" lon="3.83711">
        <ele>258.73</ele>
        <time>2014-07-07T16:07:54Z</time>
      </trkpt>
      <trkpt lat="46.48578" lon="3.83711">
        <ele>258.73</ele>
        <time>2014-07-07T16:07:55Z</time>
      </trkpt>
      <trkpt lat="46.48551" lon="3.83722">
        <ele>261.14</ele>
        <time>2014-07-07T16:08:14Z</time>
      </trkpt>
      <trkpt lat="46.4852" lon="3.83732">
        <ele>263.54</ele>
        <time>2014-07-07T16:08:33Z</time>
      </trkpt>
      <trkpt lat="46.48479" lon="3.83745">
        <ele>264.98</ele>
        <time>2014-07-07T16:08:54Z</time>
      </trkpt>
      <trkpt lat="46.48448" lon="3.83751">
        <ele>265.94</ele>
        <time>2014-07-07T16:09:09Z</time>
      </trkpt>
      <trkpt lat="46.48414" lon="3.83762">
        <ele>266.9</ele>
        <time>2014-07-07T16:09:27Z</time>
      </trkpt>
      <trkpt lat="46.48381" lon="3.83773">
        <ele>267.38</ele>
        <time>2014-07-07T16:09:44Z</time>
      </trkpt>
      <trkpt lat="46.48338" lon="3.83788">
        <ele>268.35</ele>
        <time>2014-07-07T16:10:03Z</time>
      </trkpt>
      <trkpt lat="46.48331" lon="3.8379">
        <ele>268.83</ele>
        <time>2014-07-07T16:10:07Z</time>
      </trkpt>
      <trkpt lat="46.48302" lon="3.83801">
        <ele>268.83</ele>
        <time>2014-07-07T16:10:25Z</time>
      </trkpt>
      <trkpt lat="46.48271" lon="3.83814">
        <ele>268.83</ele>
        <time>2014-07-07T16:10:37Z</time>
      </trkpt>
      <trkpt lat="46.48233" lon="3.8383">
        <ele>269.31</ele>
        <time>2014-07-07T16:10:51Z</time>
      </trkpt>
      <trkpt lat="46.48174" lon="3.83857">
        <ele>268.83</ele>
        <time>2014-07-07T16:11:09Z</time>
      </trkpt>
      <trkpt lat="46.48116" lon="3.83911">
        <ele>269.31</ele>
        <time>2014-07-07T16:11:27Z</time>
      </trkpt>
      <trkpt lat="46.48066" lon="3.83965">
        <ele>270.75</ele>
        <time>2014-07-07T16:11:45Z</time>
      </trkpt>
      <trkpt lat="46.48046" lon="3.83948">
        <ele>271.23</ele>
        <time>2014-07-07T16:11:56Z</time>
      </trkpt>
      <trkpt lat="46.48023" lon="3.83888">
        <ele>271.71</ele>
        <time>2014-07-07T16:12:14Z</time>
      </trkpt>
      <trkpt lat="46.48015" lon="3.83825">
        <ele>270.27</ele>
        <time>2014-07-07T16:12:29Z</time>
      </trkpt>
      <trkpt lat="46.48013" lon="3.83781">
        <ele>269.31</ele>
        <time>2014-07-07T16:12:35Z</time>
      </trkpt>
      <trkpt lat="46.48013" lon="3.83748">
        <ele>268.35</ele>
        <time>2014-07-07T16:12:39Z</time>
      </trkpt>
      <trkpt lat="46.48001" lon="3.83611">
        <ele>264.98</ele>
        <time>2014-07-07T16:12:54Z</time>
      </trkpt>
      <trkpt lat="46.47978" lon="3.83499">
        <ele>264.02</ele>
        <time>2014-07-07T16:13:09Z</time>
      </trkpt>
      <trkpt lat="46.47973" lon="3.83461">
        <ele>263.06</ele>
        <time>2014-07-07T16:13:14Z</time>
      </trkpt>
      <trkpt lat="46.47968" lon="3.83439">
        <ele>263.06</ele>
        <time>2014-07-07T16:13:17Z</time>
      </trkpt>
      <trkpt lat="46.47962" lon="3.83419">
        <ele>262.58</ele>
        <time>2014-07-07T16:13:20Z</time>
      </trkpt>
      <trkpt lat="46.47951" lon="3.83369">
        <ele>262.58</ele>
        <time>2014-07-07T16:13:28Z</time>
      </trkpt>
      <trkpt lat="46.47935" lon="3.83292">
        <ele>261.62</ele>
        <time>2014-07-07T16:13:41Z</time>
      </trkpt>
      <trkpt lat="46.47916" lon="3.83213">
        <ele>259.69</ele>
        <time>2014-07-07T16:13:54Z</time>
      </trkpt>
      <trkpt lat="46.47912" lon="3.83189">
        <ele>258.73</ele>
        <time>2014-07-07T16:13:59Z</time>
      </trkpt>
      <trkpt lat="46.47901" lon="3.83139">
        <ele>256.81</ele>
        <time>2014-07-07T16:14:07Z</time>
      </trkpt>
      <trkpt lat="46.47882" lon="3.83057">
        <ele>253.44</ele>
        <time>2014-07-07T16:14:18Z</time>
      </trkpt>
      <trkpt lat="46.47859" lon="3.82958">
        <ele>249.6</ele>
        <time>2014-07-07T16:14:31Z</time>
      </trkpt>
      <trkpt lat="46.47848" lon="3.82903">
        <ele>246.72</ele>
        <time>2014-07-07T16:14:39Z</time>
      </trkpt>
      <trkpt lat="46.47842" lon="3.82874">
        <ele>245.27</ele>
        <time>2014-07-07T16:14:43Z</time>
      </trkpt>
      <trkpt lat="46.47838" lon="3.82859">
        <ele>243.83</ele>
        <time>2014-07-07T16:14:45Z</time>
      </trkpt>
      <trkpt lat="46.47832" lon="3.82838">
        <ele>241.91</ele>
        <time>2014-07-07T16:14:48Z</time>
      </trkpt>
      <trkpt lat="46.47796" lon="3.82751">
        <ele>240.95</ele>
        <time>2014-07-07T16:15:02Z</time>
      </trkpt>
      <trkpt lat="46.47773" lon="3.8269">
        <ele>240.47</ele>
        <time>2014-07-07T16:15:14Z</time>
      </trkpt>
      <trkpt lat="46.47766" lon="3.82654">
        <ele>239.99</ele>
        <time>2014-07-07T16:15:22Z</time>
      </trkpt>
      <trkpt lat="46.47792" lon="3.8262">
        <ele>239.51</ele>
        <time>2014-07-07T16:15:35Z</time>
      </trkpt>
      <trkpt lat="46.47832" lon="3.82581">
        <ele>239.51</ele>
        <time>2014-07-07T16:15:50Z</time>
      </trkpt>
      <trkpt lat="46.47853" lon="3.82564">
        <ele>239.02</ele>
        <time>2014-07-07T16:15:56Z</time>
      </trkpt>
      <trkpt lat="46.47899" lon="3.82556">
        <ele>239.99</ele>
        <time>2014-07-07T16:16:10Z</time>
      </trkpt>
      <trkpt lat="46.47934" lon="3.82555">
        <ele>239.02</ele>
        <time>2014-07-07T16:16:21Z</time>
      </trkpt>
      <trkpt lat="46.47971" lon="3.82552">
        <ele>240.95</ele>
        <time>2014-07-07T16:16:33Z</time>
      </trkpt>
      <trkpt lat="46.48007" lon="3.82531">
        <ele>242.39</ele>
        <time>2014-07-07T16:16:49Z</time>
      </trkpt>
      <trkpt lat="46.48023" lon="3.82506">
        <ele>243.83</ele>
        <time>2014-07-07T16:17:03Z</time>
      </trkpt>
      <trkpt lat="46.48035" lon="3.82481">
        <ele>245.27</ele>
        <time>2014-07-07T16:17:18Z</time>
      </trkpt>
      <trkpt lat="46.48038" lon="3.82475">
        <ele>245.75</ele>
        <time>2014-07-07T16:17:21Z</time>
      </trkpt>
      <trkpt lat="46.48042" lon="3.82467">
        <ele>246.23</ele>
        <time>2014-07-07T16:17:26Z</time>
      </trkpt>
      <trkpt lat="46.48044" lon="3.82458">
        <ele>246.23</ele>
        <time>2014-07-07T16:17:30Z</time>
      </trkpt>
      <trkpt lat="46.48057" lon="3.82424">
        <ele>247.2</ele>
        <time>2014-07-07T16:17:46Z</time>
      </trkpt>
      <trkpt lat="46.48072" lon="3.82389">
        <ele>248.64</ele>
        <time>2014-07-07T16:18:02Z</time>
      </trkpt>
      <trkpt lat="46.48086" lon="3.82352">
        <ele>249.12</ele>
        <time>2014-07-07T16:18:16Z</time>
      </trkpt>
      <trkpt lat="46.48096" lon="3.82306">
        <ele>250.56</ele>
        <time>2014-07-07T16:18:32Z</time>
      </trkpt>
      <trkpt lat="46.48099" lon="3.82271">
        <ele>251.52</ele>
        <time>2014-07-07T16:18:46Z</time>
      </trkpt>
      <trkpt lat="46.48105" lon="3.82219">
        <ele>253.44</ele>
        <time>2014-07-07T16:19:06Z</time>
      </trkpt>
      <trkpt lat="46.48114" lon="3.82164">
        <ele>254.41</ele>
        <time>2014-07-07T16:19:25Z</time>
      </trkpt>
      <trkpt lat="46.48123" lon="3.82097">
        <ele>254.89</ele>
        <time>2014-07-07T16:19:42Z</time>
      </trkpt>
      <trkpt lat="46.48127" lon="3.82023">
        <ele>255.37</ele>
        <time>2014-07-07T16:19:59Z</time>
      </trkpt>
      <trkpt lat="46.48119" lon="3.81963">
        <ele>255.37</ele>
        <time>2014-07-07T16:20:12Z</time>
      </trkpt>
      <trkpt lat="46.48098" lon="3.81882">
        <ele>254.89</ele>
        <time>2014-07-07T16:20:30Z</time>
      </trkpt>
      <trkpt lat="46.48064" lon="3.81882">
        <ele>254.89</ele>
        <time>2014-07-07T16:20:40Z</time>
      </trkpt>
      <trkpt lat="46.4801" lon="3.81914">
        <ele>256.81</ele>
        <time>2014-07-07T16:20:58Z</time>
      </trkpt>
      <trkpt lat="46.47977" lon="3.81938">
        <ele>259.21</ele>
        <time>2014-07-07T16:21:14Z</time>
      </trkpt>
      <trkpt lat="46.47967" lon="3.81955">
        <ele>259.69</ele>
        <time>2014-07-07T16:21:21Z</time>
      </trkpt>
      <trkpt lat="46.47969" lon="3.81966">
        <ele>259.69</ele>
        <time>2014-07-07T16:21:25Z</time>
      </trkpt>
      <trkpt lat="46.47974" lon="3.82011">
        <ele>258.73</ele>
        <time>2014-07-07T16:21:42Z</time>
      </trkpt>
      <trkpt lat="46.47977" lon="3.82016">
        <ele>258.25</ele>
        <time>2014-07-07T16:21:44Z</time>
      </trkpt>
      <trkpt lat="46.47993" lon="3.82017">
        <ele>258.25</ele>
        <time>2014-07-07T16:21:51Z</time>
      </trkpt>
      <trkpt lat="46.47999" lon="3.82005">
        <ele>258.73</ele>
        <time>2014-07-07T16:21:56Z</time>
      </trkpt>
      <trkpt lat="46.47995" lon="3.81991">
        <ele>258.73</ele>
        <time>2014-07-07T16:22:02Z</time>
      </trkpt>
      <trkpt lat="46.47992" lon="3.81993">
        <ele>259.21</ele>
        <time>2014-07-07T16:22:19Z</time>
      </trkpt>
      <trkpt lat="46.48003" lon="3.81993">
        <ele>259.21</ele>
        <time>2014-07-07T16:22:55Z</time>
      </trkpt>
      <trkpt lat="46.48005" lon="3.8199">
        <ele>259.21</ele>
        <time>2014-07-07T16:23:29Z</time>
      </trkpt>
      <trkpt lat="46.47987" lon="3.81987">
        <ele>259.21</ele>
        <time>2014-07-07T16:23:57Z</time>
      </trkpt>
      <trkpt lat="46.47986" lon="3.81987">
        <ele>258.73</ele>
        <time>2014-07-07T16:24:10Z</time>
      </trkpt>
      <trkpt lat="46.47986" lon="3.81987">
        <ele>273.15</ele>
        <time>2014-07-07T17:12:57Z</time>
      </trkpt>
      <trkpt lat="46.47998" lon="3.8201">
        <ele>273.15</ele>
        <time>2014-07-07T17:12:58Z</time>
      </trkpt>
      <trkpt lat="46.48003" lon="3.82008">
        <ele>272.67</ele>
        <time>2014-07-07T17:13:17Z</time>
      </trkpt>
      <trkpt lat="46.48007" lon="3.82012">
        <ele>229.89</ele>
        <time>2014-07-08T07:23:56Z</time>
      </trkpt>
      <trkpt lat="46.48005" lon="3.82011">
        <ele>251.04</ele>
        <time>2014-07-08T07:23:57Z</time>
      </trkpt>
      <trkpt lat="46.48003" lon="3.82011">
        <ele>248.64</ele>
        <time>2014-07-08T07:23:58Z</time>
      </trkpt>
      <trkpt lat="46.47986" lon="3.82017">
        <ele>247.68</ele>
        <time>2014-07-08T07:24:24Z</time>
      </trkpt>
      <trkpt lat="46.47976" lon="3.82002">
        <ele>239.02</ele>
        <time>2014-07-08T07:24:27Z</time>
      </trkpt>
      <trkpt lat="46.47974" lon="3.82">
        <ele>239.02</ele>
        <time>2014-07-08T07:24:28Z</time>
      </trkpt>
      <trkpt lat="46.47972" lon="3.81994">
        <ele>238.54</ele>
        <time>2014-07-08T07:24:39Z</time>
      </trkpt>
      <trkpt lat="46.47971" lon="3.81985">
        <ele>239.02</ele>
        <time>2014-07-08T07:24:45Z</time>
      </trkpt>
      <trkpt lat="46.47966" lon="3.81953">
        <ele>239.51</ele>
        <time>2014-07-08T07:25:05Z</time>
      </trkpt>
      <trkpt lat="46.47966" lon="3.81941">
        <ele>239.51</ele>
        <time>2014-07-08T07:25:20Z</time>
      </trkpt>
      <trkpt lat="46.47971" lon="3.8194">
        <ele>239.51</ele>
        <time>2014-07-08T07:25:46Z</time>
      </trkpt>
      <trkpt lat="46.47972" lon="3.81938">
        <ele>239.99</ele>
        <time>2014-07-08T07:25:59Z</time>
      </trkpt>
      <trkpt lat="46.48003" lon="3.81913">
        <ele>238.06</ele>
        <time>2014-07-08T07:26:13Z</time>
      </trkpt>
      <trkpt lat="46.48056" lon="3.81885">
        <ele>235.18</ele>
        <time>2014-07-08T07:26:28Z</time>
      </trkpt>
      <trkpt lat="46.48084" lon="3.81868">
        <ele>235.66</ele>
        <time>2014-07-08T07:26:41Z</time>
      </trkpt>
      <trkpt lat="46.48094" lon="3.81856">
        <ele>236.14</ele>
        <time>2014-07-08T07:26:48Z</time>
      </trkpt>
      <trkpt lat="46.48097" lon="3.81859">
        <ele>236.14</ele>
        <time>2014-07-08T07:26:57Z</time>
      </trkpt>
      <trkpt lat="46.48093" lon="3.81865">
        <ele>236.14</ele>
        <time>2014-07-08T07:27:14Z</time>
      </trkpt>
      <trkpt lat="46.48093" lon="3.81865">
        <ele>236.14</ele>
        <time>2014-07-08T07:27:44Z</time>
      </trkpt>
      <trkpt lat="46.48093" lon="3.81865">
        <ele>236.62</ele>
        <time>2014-07-08T07:28:09Z</time>
      </trkpt>
      <trkpt lat="46.48092" lon="3.81865">
        <ele>237.1</ele>
        <time>2014-07-08T07:28:44Z</time>
      </trkpt>
      <trkpt lat="46.48094" lon="3.81868">
        <ele>237.1</ele>
        <time>2014-07-08T07:29:09Z</time>
      </trkpt>
      <trkpt lat="46.48096" lon="3.81865">
        <ele>237.1</ele>
        <time>2014-07-08T07:29:16Z</time>
      </trkpt>
      <trkpt lat="46.48108" lon="3.81833">
        <ele>237.58</ele>
        <time>2014-07-08T07:29:28Z</time>
      </trkpt>
      <trkpt lat="46.48136" lon="3.81811">
        <ele>239.51</ele>
        <time>2014-07-08T07:29:43Z</time>
      </trkpt>
      <trkpt lat="46.48175" lon="3.81805">
        <ele>242.39</ele>
        <time>2014-07-08T07:30:00Z</time>
      </trkpt>
      <trkpt lat="46.48203" lon="3.81809">
        <ele>244.31</ele>
        <time>2014-07-08T07:30:13Z</time>
      </trkpt>
      <trkpt lat="46.48236" lon="3.81819">
        <ele>246.23</ele>
        <time>2014-07-08T07:30:29Z</time>
      </trkpt>
      <trkpt lat="46.48271" lon="3.81836">
        <ele>248.16</ele>
        <time>2014-07-08T07:30:47Z</time>
      </trkpt>
      <trkpt lat="46.483" lon="3.81849">
        <ele>250.08</ele>
        <time>2014-07-08T07:31:02Z</time>
      </trkpt>
      <trkpt lat="46.48338" lon="3.81867">
        <ele>252</ele>
        <time>2014-07-08T07:31:21Z</time>
      </trkpt>
      <trkpt lat="46.48372" lon="3.81884">
        <ele>253.44</ele>
        <time>2014-07-08T07:31:38Z</time>
      </trkpt>
      <trkpt lat="46.48423" lon="3.81917">
        <ele>252.48</ele>
        <time>2014-07-08T07:31:54Z</time>
      </trkpt>
      <trkpt lat="46.48491" lon="3.8196">
        <ele>250.56</ele>
        <time>2014-07-08T07:32:09Z</time>
      </trkpt>
      <trkpt lat="46.48514" lon="3.81973">
        <ele>250.08</ele>
        <time>2014-07-08T07:32:13Z</time>
      </trkpt>
      <trkpt lat="46.48586" lon="3.8202">
        <ele>251.52</ele>
        <time>2014-07-08T07:32:29Z</time>
      </trkpt>
      <trkpt lat="46.48629" lon="3.82047">
        <ele>253.44</ele>
        <time>2014-07-08T07:32:43Z</time>
      </trkpt>
      <trkpt lat="46.48681" lon="3.8208">
        <ele>255.85</ele>
        <time>2014-07-08T07:33:01Z</time>
      </trkpt>
      <trkpt lat="46.4873" lon="3.82133">
        <ele>258.25</ele>
        <time>2014-07-08T07:33:20Z</time>
      </trkpt>
      <trkpt lat="46.48786" lon="3.82199">
        <ele>258.25</ele>
        <time>2014-07-08T07:33:40Z</time>
      </trkpt>
      <trkpt lat="46.48853" lon="3.82235">
        <ele>256.33</ele>
        <time>2014-07-08T07:33:54Z</time>
      </trkpt>
      <trkpt lat="46.48922" lon="3.82263">
        <ele>252.96</ele>
        <time>2014-07-08T07:34:06Z</time>
      </trkpt>
      <trkpt lat="46.48973" lon="3.82285">
        <ele>250.08</ele>
        <time>2014-07-08T07:34:13Z</time>
      </trkpt>
      <trkpt lat="46.49016" lon="3.82306">
        <ele>246.72</ele>
        <time>2014-07-08T07:34:18Z</time>
      </trkpt>
      <trkpt lat="46.49025" lon="3.8231">
        <ele>246.72</ele>
        <time>2014-07-08T07:34:19Z</time>
      </trkpt>
      <trkpt lat="46.49073" lon="3.82327">
        <ele>243.35</ele>
        <time>2014-07-08T07:34:24Z</time>
      </trkpt>
      <trkpt lat="46.49092" lon="3.82334">
        <ele>242.39</ele>
        <time>2014-07-08T07:34:26Z</time>
      </trkpt>
      <trkpt lat="46.49139" lon="3.82354">
        <ele>239.99</ele>
        <time>2014-07-08T07:34:31Z</time>
      </trkpt>
      <trkpt lat="46.49204" lon="3.82373">
        <ele>236.62</ele>
        <time>2014-07-08T07:34:38Z</time>
      </trkpt>
      <trkpt lat="46.49214" lon="3.82376">
        <ele>236.14</ele>
        <time>2014-07-08T07:34:39Z</time>
      </trkpt>
      <trkpt lat="46.49253" lon="3.82385">
        <ele>233.74</ele>
        <time>2014-07-08T07:34:43Z</time>
      </trkpt>
      <trkpt lat="46.49328" lon="3.82396">
        <ele>230.37</ele>
        <time>2014-07-08T07:34:51Z</time>
      </trkpt>
      <trkpt lat="46.49385" lon="3.82402">
        <ele>229.41</ele>
        <time>2014-07-08T07:34:58Z</time>
      </trkpt>
      <trkpt lat="46.4948" lon="3.82365">
        <ele>227.97</ele>
        <time>2014-07-08T07:35:12Z</time>
      </trkpt>
      <trkpt lat="46.49519" lon="3.82342">
        <ele>227.49</ele>
        <time>2014-07-08T07:35:22Z</time>
      </trkpt>
      <trkpt lat="46.49519" lon="3.82342">
        <ele>227.97</ele>
        <time>2014-07-08T07:35:29Z</time>
      </trkpt>
      <trkpt lat="46.49548" lon="3.82323">
        <ele>227.49</ele>
        <time>2014-07-08T07:35:43Z</time>
      </trkpt>
      <trkpt lat="46.49573" lon="3.82305">
        <ele>227.01</ele>
        <time>2014-07-08T07:35:50Z</time>
      </trkpt>
      <trkpt lat="46.49585" lon="3.82298">
        <ele>227.01</ele>
        <time>2014-07-08T07:35:53Z</time>
      </trkpt>
      <trkpt lat="46.49614" lon="3.82312">
        <ele>227.01</ele>
        <time>2014-07-08T07:36:00Z</time>
      </trkpt>
      <trkpt lat="46.49638" lon="3.82346">
        <ele>226.53</ele>
        <time>2014-07-08T07:36:07Z</time>
      </trkpt>
      <trkpt lat="46.49646" lon="3.82355">
        <ele>226.53</ele>
        <time>2014-07-08T07:36:09Z</time>
      </trkpt>
      <trkpt lat="46.49679" lon="3.82378">
        <ele>225.57</ele>
        <time>2014-07-08T07:36:16Z</time>
      </trkpt>
      <trkpt lat="46.497" lon="3.82406">
        <ele>225.09</ele>
        <time>2014-07-08T07:36:21Z</time>
      </trkpt>
      <trkpt lat="46.4973" lon="3.82428">
        <ele>224.12</ele>
        <time>2014-07-08T07:36:27Z</time>
      </trkpt>
      <trkpt lat="46.49827" lon="3.8245">
        <ele>223.16</ele>
        <time>2014-07-08T07:36:44Z</time>
      </trkpt>
      <trkpt lat="46.49876" lon="3.82471">
        <ele>222.68</ele>
        <time>2014-07-08T07:36:53Z</time>
      </trkpt>
      <trkpt lat="46.4993" lon="3.82512">
        <ele>222.2</ele>
        <time>2014-07-08T07:37:04Z</time>
      </trkpt>
      <trkpt lat="46.49974" lon="3.825">
        <ele>221.24</ele>
        <time>2014-07-08T07:37:12Z</time>
      </trkpt>
      <trkpt lat="46.50019" lon="3.82448">
        <ele>220.76</ele>
        <time>2014-07-08T07:37:22Z</time>
      </trkpt>
      <trkpt lat="46.50033" lon="3.82437">
        <ele>220.76</ele>
        <time>2014-07-08T07:37:25Z</time>
      </trkpt>
      <trkpt lat="46.5006" lon="3.82424">
        <ele>220.76</ele>
        <time>2014-07-08T07:37:31Z</time>
      </trkpt>
      <trkpt lat="46.50073" lon="3.82423">
        <ele>220.76</ele>
        <time>2014-07-08T07:37:34Z</time>
      </trkpt>
      <trkpt lat="46.50119" lon="3.82412">
        <ele>220.76</ele>
        <time>2014-07-08T07:37:45Z</time>
      </trkpt>
      <trkpt lat="46.5014" lon="3.82401">
        <ele>220.28</ele>
        <time>2014-07-08T07:37:50Z</time>
      </trkpt>
      <trkpt lat="46.50168" lon="3.82383">
        <ele>219.8</ele>
        <time>2014-07-08T07:37:58Z</time>
      </trkpt>
      <trkpt lat="46.50182" lon="3.82368">
        <ele>219.8</ele>
        <time>2014-07-08T07:38:02Z</time>
      </trkpt>
      <trkpt lat="46.5022" lon="3.82299">
        <ele>221.72</ele>
        <time>2014-07-08T07:38:17Z</time>
      </trkpt>
      <trkpt lat="46.50249" lon="3.82282">
        <ele>224.12</ele>
        <time>2014-07-08T07:38:30Z</time>
      </trkpt>
      <trkpt lat="46.50278" lon="3.82302">
        <ele>224.12</ele>
        <time>2014-07-08T07:38:45Z</time>
      </trkpt>
      <trkpt lat="46.50298" lon="3.82309">
        <ele>222.68</ele>
        <time>2014-07-08T07:38:51Z</time>
      </trkpt>
      <trkpt lat="46.50318" lon="3.82306">
        <ele>221.72</ele>
        <time>2014-07-08T07:38:55Z</time>
      </trkpt>
      <trkpt lat="46.50351" lon="3.82287">
        <ele>219.8</ele>
        <time>2014-07-08T07:39:03Z</time>
      </trkpt>
      <trkpt lat="46.50349" lon="3.82295">
        <ele>219.32</ele>
        <time>2014-07-08T07:39:09Z</time>
      </trkpt>
      <trkpt lat="46.50302" lon="3.8232">
        <ele>220.28</ele>
        <time>2014-07-08T07:39:25Z</time>
      </trkpt>
      <trkpt lat="46.50275" lon="3.82329">
        <ele>219.32</ele>
        <time>2014-07-08T07:39:34Z</time>
      </trkpt>
      <trkpt lat="46.50265" lon="3.82307">
        <ele>220.76</ele>
        <time>2014-07-08T07:39:43Z</time>
      </trkpt>
      <trkpt lat="46.50268" lon="3.82303">
        <ele>220.76</ele>
        <time>2014-07-08T07:39:56Z</time>
      </trkpt>
      <trkpt lat="46.50271" lon="3.82298">
        <ele>221.24</ele>
        <time>2014-07-08T07:40:04Z</time>
      </trkpt>
      <trkpt lat="46.50295" lon="3.82233">
        <ele>221.24</ele>
        <time>2014-07-08T07:40:21Z</time>
      </trkpt>
      <trkpt lat="46.50327" lon="3.82148">
        <ele>221.24</ele>
        <time>2014-07-08T07:40:38Z</time>
      </trkpt>
      <trkpt lat="46.50363" lon="3.82059">
        <ele>221.72</ele>
        <time>2014-07-08T07:40:56Z</time>
      </trkpt>
      <trkpt lat="46.50383" lon="3.82007">
        <ele>221.24</ele>
        <time>2014-07-08T07:41:06Z</time>
      </trkpt>
      <trkpt lat="46.50398" lon="3.8197">
        <ele>221.72</ele>
        <time>2014-07-08T07:41:13Z</time>
      </trkpt>
      <trkpt lat="46.50404" lon="3.81951">
        <ele>221.72</ele>
        <time>2014-07-08T07:41:16Z</time>
      </trkpt>
      <trkpt lat="46.50424" lon="3.81903">
        <ele>221.72</ele>
        <time>2014-07-08T07:41:24Z</time>
      </trkpt>
      <trkpt lat="46.50462" lon="3.81805">
        <ele>221.24</ele>
        <time>2014-07-08T07:41:41Z</time>
      </trkpt>
      <trkpt lat="46.50505" lon="3.81699">
        <ele>221.24</ele>
        <time>2014-07-08T07:41:59Z</time>
      </trkpt>
      <trkpt lat="46.50525" lon="3.81649">
        <ele>222.2</ele>
        <time>2014-07-08T07:42:08Z</time>
      </trkpt>
      <trkpt lat="46.50557" lon="3.81566">
        <ele>221.72</ele>
        <time>2014-07-08T07:42:24Z</time>
      </trkpt>
      <trkpt lat="46.50591" lon="3.81479">
        <ele>222.2</ele>
        <time>2014-07-08T07:42:41Z</time>
      </trkpt>
      <trkpt lat="46.50619" lon="3.81406">
        <ele>222.2</ele>
        <time>2014-07-08T07:42:54Z</time>
      </trkpt>
      <trkpt lat="46.50658" lon="3.81309">
        <ele>222.68</ele>
        <time>2014-07-08T07:43:13Z</time>
      </trkpt>
      <trkpt lat="46.50674" lon="3.81268">
        <ele>222.2</ele>
        <time>2014-07-08T07:43:25Z</time>
      </trkpt>
      <trkpt lat="46.50708" lon="3.81183">
        <ele>222.68</ele>
        <time>2014-07-08T07:43:44Z</time>
      </trkpt>
      <trkpt lat="46.50738" lon="3.81111">
        <ele>223.16</ele>
        <time>2014-07-08T07:44:01Z</time>
      </trkpt>
      <trkpt lat="46.50768" lon="3.81027">
        <ele>223.16</ele>
        <time>2014-07-08T07:44:18Z</time>
      </trkpt>
      <trkpt lat="46.50811" lon="3.80924">
        <ele>223.16</ele>
        <time>2014-07-08T07:44:37Z</time>
      </trkpt>
      <trkpt lat="46.50851" lon="3.80821">
        <ele>223.16</ele>
        <time>2014-07-08T07:44:57Z</time>
      </trkpt>
      <trkpt lat="46.50899" lon="3.807">
        <ele>223.16</ele>
        <time>2014-07-08T07:45:19Z</time>
      </trkpt>
      <trkpt lat="46.50918" lon="3.80652">
        <ele>223.16</ele>
        <time>2014-07-08T07:45:27Z</time>
      </trkpt>
      <trkpt lat="46.50936" lon="3.80619">
        <ele>222.68</ele>
        <time>2014-07-08T07:45:33Z</time>
      </trkpt>
      <trkpt lat="46.50988" lon="3.80541">
        <ele>223.64</ele>
        <time>2014-07-08T07:45:49Z</time>
      </trkpt>
      <trkpt lat="46.51058" lon="3.80471">
        <ele>223.16</ele>
        <time>2014-07-08T07:46:07Z</time>
      </trkpt>
      <trkpt lat="46.51113" lon="3.8041">
        <ele>223.64</ele>
        <time>2014-07-08T07:46:22Z</time>
      </trkpt>
      <trkpt lat="46.5115" lon="3.80367">
        <ele>225.57</ele>
        <time>2014-07-08T07:46:35Z</time>
      </trkpt>
      <trkpt lat="46.5116" lon="3.80364">
        <ele>225.57</ele>
        <time>2014-07-08T07:46:38Z</time>
      </trkpt>
      <trkpt lat="46.51182" lon="3.80322">
        <ele>224.61</ele>
        <time>2014-07-08T07:46:47Z</time>
      </trkpt>
      <trkpt lat="46.51228" lon="3.80216">
        <ele>223.64</ele>
        <time>2014-07-08T07:47:03Z</time>
      </trkpt>
      <trkpt lat="46.51267" lon="3.80116">
        <ele>223.16</ele>
        <time>2014-07-08T07:47:20Z</time>
      </trkpt>
      <trkpt lat="46.51306" lon="3.80018">
        <ele>223.64</ele>
        <time>2014-07-08T07:47:37Z</time>
      </trkpt>
      <trkpt lat="46.51341" lon="3.79934">
        <ele>224.12</ele>
        <time>2014-07-08T07:47:51Z</time>
      </trkpt>
      <trkpt lat="46.51383" lon="3.79832">
        <ele>224.12</ele>
        <time>2014-07-08T07:48:08Z</time>
      </trkpt>
      <trkpt lat="46.5143" lon="3.79715">
        <ele>224.12</ele>
        <time>2014-07-08T07:48:27Z</time>
      </trkpt>
      <trkpt lat="46.51459" lon="3.79635">
        <ele>224.12</ele>
        <time>2014-07-08T07:48:42Z</time>
      </trkpt>
      <trkpt lat="46.51489" lon="3.79573">
        <ele>222.2</ele>
        <time>2014-07-08T07:48:55Z</time>
      </trkpt>
      <trkpt lat="46.51527" lon="3.79477">
        <ele>221.72</ele>
        <time>2014-07-08T07:49:10Z</time>
      </trkpt>
      <trkpt lat="46.51571" lon="3.79369">
        <ele>222.2</ele>
        <time>2014-07-08T07:49:27Z</time>
      </trkpt>
      <trkpt lat="46.51614" lon="3.7926">
        <ele>222.2</ele>
        <time>2014-07-08T07:49:44Z</time>
      </trkpt>
      <trkpt lat="46.51664" lon="3.7914">
        <ele>222.2</ele>
        <time>2014-07-08T07:50:03Z</time>
      </trkpt>
      <trkpt lat="46.51685" lon="3.7909">
        <ele>222.2</ele>
        <time>2014-07-08T07:50:11Z</time>
      </trkpt>
      <trkpt lat="46.51724" lon="3.79">
        <ele>223.16</ele>
        <time>2014-07-08T07:50:27Z</time>
      </trkpt>
      <trkpt lat="46.51728" lon="3.78988">
        <ele>224.12</ele>
        <time>2014-07-08T07:50:30Z</time>
      </trkpt>
      <trkpt lat="46.51735" lon="3.78971">
        <ele>225.09</ele>
        <time>2014-07-08T07:50:38Z</time>
      </trkpt>
      <trkpt lat="46.51737" lon="3.78967">
        <ele>225.57</ele>
        <time>2014-07-08T07:50:41Z</time>
      </trkpt>
      <trkpt lat="46.51744" lon="3.78943">
        <ele>223.64</ele>
        <time>2014-07-08T07:50:53Z</time>
      </trkpt>
      <trkpt lat="46.51764" lon="3.78885">
        <ele>222.2</ele>
        <time>2014-07-08T07:51:06Z</time>
      </trkpt>
      <trkpt lat="46.51796" lon="3.78795">
        <ele>222.68</ele>
        <time>2014-07-08T07:51:22Z</time>
      </trkpt>
      <trkpt lat="46.51833" lon="3.78688">
        <ele>222.68</ele>
        <time>2014-07-08T07:51:40Z</time>
      </trkpt>
      <trkpt lat="46.51869" lon="3.78583">
        <ele>222.68</ele>
        <time>2014-07-08T07:51:57Z</time>
      </trkpt>
      <trkpt lat="46.51909" lon="3.78475">
        <ele>222.68</ele>
        <time>2014-07-08T07:52:15Z</time>
      </trkpt>
      <trkpt lat="46.51947" lon="3.78367">
        <ele>222.68</ele>
        <time>2014-07-08T07:52:33Z</time>
      </trkpt>
      <trkpt lat="46.51949" lon="3.78362">
        <ele>222.68</ele>
        <time>2014-07-08T07:52:34Z</time>
      </trkpt>
      <trkpt lat="46.51992" lon="3.78243">
        <ele>222.68</ele>
        <time>2014-07-08T07:52:53Z</time>
      </trkpt>
      <trkpt lat="46.52012" lon="3.78186">
        <ele>222.68</ele>
        <time>2014-07-08T07:53:02Z</time>
      </trkpt>
      <trkpt lat="46.52047" lon="3.78111">
        <ele>223.64</ele>
        <time>2014-07-08T07:53:16Z</time>
      </trkpt>
      <trkpt lat="46.52061" lon="3.78086">
        <ele>223.16</ele>
        <time>2014-07-08T07:53:21Z</time>
      </trkpt>
      <trkpt lat="46.52073" lon="3.78067">
        <ele>223.16</ele>
        <time>2014-07-08T07:53:25Z</time>
      </trkpt>
      <trkpt lat="46.52111" lon="3.78004">
        <ele>223.16</ele>
        <time>2014-07-08T07:53:38Z</time>
      </trkpt>
      <trkpt lat="46.52176" lon="3.77924">
        <ele>223.64</ele>
        <time>2014-07-08T07:53:56Z</time>
      </trkpt>
      <trkpt lat="46.52214" lon="3.77884">
        <ele>223.64</ele>
        <time>2014-07-08T07:54:06Z</time>
      </trkpt>
      <trkpt lat="46.52286" lon="3.77808">
        <ele>223.16</ele>
        <time>2014-07-08T07:54:25Z</time>
      </trkpt>
      <trkpt lat="46.52356" lon="3.77735">
        <ele>223.16</ele>
        <time>2014-07-08T07:54:44Z</time>
      </trkpt>
      <trkpt lat="46.52392" lon="3.77696">
        <ele>223.16</ele>
        <time>2014-07-08T07:54:54Z</time>
      </trkpt>
      <trkpt lat="46.52456" lon="3.77629">
        <ele>223.64</ele>
        <time>2014-07-08T07:55:12Z</time>
      </trkpt>
      <trkpt lat="46.52508" lon="3.77565">
        <ele>223.16</ele>
        <time>2014-07-08T07:55:28Z</time>
      </trkpt>
      <trkpt lat="46.52542" lon="3.77555">
        <ele>223.16</ele>
        <time>2014-07-08T07:55:40Z</time>
      </trkpt>
      <trkpt lat="46.52545" lon="3.77554">
        <ele>222.68</ele>
        <time>2014-07-08T07:55:41Z</time>
      </trkpt>
      <trkpt lat="46.52602" lon="3.77498">
        <ele>219.32</ele>
        <time>2014-07-08T07:55:53Z</time>
      </trkpt>
      <trkpt lat="46.52665" lon="3.77432">
        <ele>218.36</ele>
        <time>2014-07-08T07:56:06Z</time>
      </trkpt>
      <trkpt lat="46.52731" lon="3.77362">
        <ele>218.36</ele>
        <time>2014-07-08T07:56:22Z</time>
      </trkpt>
      <trkpt lat="46.5281" lon="3.77279">
        <ele>219.32</ele>
        <time>2014-07-08T07:56:41Z</time>
      </trkpt>
      <trkpt lat="46.52875" lon="3.7721">
        <ele>218.84</ele>
        <time>2014-07-08T07:56:57Z</time>
      </trkpt>
      <trkpt lat="46.52882" lon="3.77201">
        <ele>219.32</ele>
        <time>2014-07-08T07:56:59Z</time>
      </trkpt>
      <trkpt lat="46.52946" lon="3.77133">
        <ele>219.32</ele>
        <time>2014-07-08T07:57:15Z</time>
      </trkpt>
      <trkpt lat="46.52949" lon="3.77129">
        <ele>218.84</ele>
        <time>2014-07-08T07:57:16Z</time>
      </trkpt>
      <trkpt lat="46.52957" lon="3.77122">
        <ele>219.32</ele>
        <time>2014-07-08T07:57:18Z</time>
      </trkpt>
      <trkpt lat="46.53009" lon="3.77065">
        <ele>219.32</ele>
        <time>2014-07-08T07:57:33Z</time>
      </trkpt>
      <trkpt lat="46.53033" lon="3.77039">
        <ele>219.32</ele>
        <time>2014-07-08T07:57:41Z</time>
      </trkpt>
      <trkpt lat="46.53099" lon="3.76969">
        <ele>218.84</ele>
        <time>2014-07-08T07:57:59Z</time>
      </trkpt>
      <trkpt lat="46.53129" lon="3.76935">
        <ele>219.32</ele>
        <time>2014-07-08T07:58:07Z</time>
      </trkpt>
      <trkpt lat="46.53157" lon="3.76894">
        <ele>222.2</ele>
        <time>2014-07-08T07:58:19Z</time>
      </trkpt>
      <trkpt lat="46.5318" lon="3.76867">
        <ele>224.61</ele>
        <time>2014-07-08T07:58:33Z</time>
      </trkpt>
      <trkpt lat="46.53197" lon="3.7685">
        <ele>224.61</ele>
        <time>2014-07-08T07:58:42Z</time>
      </trkpt>
      <trkpt lat="46.53234" lon="3.76805">
        <ele>221.72</ele>
        <time>2014-07-08T07:58:51Z</time>
      </trkpt>
      <trkpt lat="46.53304" lon="3.76763">
        <ele>221.72</ele>
        <time>2014-07-08T07:59:06Z</time>
      </trkpt>
      <trkpt lat="46.53348" lon="3.76736">
        <ele>222.2</ele>
        <time>2014-07-08T07:59:21Z</time>
      </trkpt>
      <trkpt lat="46.53405" lon="3.76689">
        <ele>222.2</ele>
        <time>2014-07-08T07:59:39Z</time>
      </trkpt>
      <trkpt lat="46.5345" lon="3.76647">
        <ele>222.2</ele>
        <time>2014-07-08T07:59:52Z</time>
      </trkpt>
      <trkpt lat="46.53494" lon="3.76596">
        <ele>222.2</ele>
        <time>2014-07-08T08:00:06Z</time>
      </trkpt>
      <trkpt lat="46.53529" lon="3.76552">
        <ele>221.72</ele>
        <time>2014-07-08T08:00:16Z</time>
      </trkpt>
      <trkpt lat="46.5355" lon="3.76522">
        <ele>221.72</ele>
        <time>2014-07-08T08:00:22Z</time>
      </trkpt>
      <trkpt lat="46.53574" lon="3.7649">
        <ele>222.2</ele>
        <time>2014-07-08T08:00:29Z</time>
      </trkpt>
      <trkpt lat="46.53612" lon="3.76436">
        <ele>222.2</ele>
        <time>2014-07-08T08:00:41Z</time>
      </trkpt>
      <trkpt lat="46.53634" lon="3.76384">
        <ele>222.2</ele>
        <time>2014-07-08T08:00:51Z</time>
      </trkpt>
      <trkpt lat="46.53642" lon="3.76346">
        <ele>222.2</ele>
        <time>2014-07-08T08:00:57Z</time>
      </trkpt>
      <trkpt lat="46.53643" lon="3.7631">
        <ele>221.72</ele>
        <time>2014-07-08T08:01:02Z</time>
      </trkpt>
      <trkpt lat="46.53645" lon="3.76297">
        <ele>222.2</ele>
        <time>2014-07-08T08:01:04Z</time>
      </trkpt>
      <trkpt lat="46.5365" lon="3.76273">
        <ele>222.2</ele>
        <time>2014-07-08T08:01:08Z</time>
      </trkpt>
      <trkpt lat="46.53655" lon="3.76251">
        <ele>221.72</ele>
        <time>2014-07-08T08:01:12Z</time>
      </trkpt>
      <trkpt lat="46.53658" lon="3.76217">
        <ele>221.72</ele>
        <time>2014-07-08T08:01:17Z</time>
      </trkpt>
      <trkpt lat="46.53641" lon="3.76103">
        <ele>222.2</ele>
        <time>2014-07-08T08:01:34Z</time>
      </trkpt>
      <trkpt lat="46.53635" lon="3.76064">
        <ele>222.2</ele>
        <time>2014-07-08T08:01:41Z</time>
      </trkpt>
      <trkpt lat="46.5363" lon="3.7604">
        <ele>222.2</ele>
        <time>2014-07-08T08:01:45Z</time>
      </trkpt>
      <trkpt lat="46.5361" lon="3.75915">
        <ele>222.2</ele>
        <time>2014-07-08T08:02:05Z</time>
      </trkpt>
      <trkpt lat="46.53575" lon="3.75818">
        <ele>222.2</ele>
        <time>2014-07-08T08:02:21Z</time>
      </trkpt>
      <trkpt lat="46.53531" lon="3.75734">
        <ele>222.68</ele>
        <time>2014-07-08T08:02:37Z</time>
      </trkpt>
      <trkpt lat="46.53467" lon="3.75636">
        <ele>222.68</ele>
        <time>2014-07-08T08:02:58Z</time>
      </trkpt>
      <trkpt lat="46.53456" lon="3.75621">
        <ele>222.68</ele>
        <time>2014-07-08T08:03:01Z</time>
      </trkpt>
      <trkpt lat="46.53395" lon="3.75534">
        <ele>222.2</ele>
        <time>2014-07-08T08:03:18Z</time>
      </trkpt>
      <trkpt lat="46.53335" lon="3.75439">
        <ele>223.16</ele>
        <time>2014-07-08T08:03:35Z</time>
      </trkpt>
      <trkpt lat="46.53318" lon="3.75405">
        <ele>223.16</ele>
        <time>2014-07-08T08:03:41Z</time>
      </trkpt>
      <trkpt lat="46.53303" lon="3.75357">
        <ele>224.12</ele>
        <time>2014-07-08T08:03:53Z</time>
      </trkpt>
      <trkpt lat="46.53303" lon="3.75358">
        <ele>224.12</ele>
        <time>2014-07-08T08:04:09Z</time>
      </trkpt>
      <trkpt lat="46.53303" lon="3.75359">
        <ele>224.12</ele>
        <time>2014-07-08T08:04:48Z</time>
      </trkpt>
      <trkpt lat="46.53305" lon="3.7536">
        <ele>224.12</ele>
        <time>2014-07-08T08:05:17Z</time>
      </trkpt>
      <trkpt lat="46.53304" lon="3.75358">
        <ele>224.61</ele>
        <time>2014-07-08T08:05:46Z</time>
      </trkpt>
      <trkpt lat="46.53304" lon="3.75358">
        <ele>224.61</ele>
        <time>2014-07-08T08:06:21Z</time>
      </trkpt>
      <trkpt lat="46.53304" lon="3.75357">
        <ele>225.09</ele>
        <time>2014-07-08T08:07:03Z</time>
      </trkpt>
      <trkpt lat="46.53301" lon="3.75357">
        <ele>225.57</ele>
        <time>2014-07-08T08:07:40Z</time>
      </trkpt>
      <trkpt lat="46.533" lon="3.75357">
        <ele>225.09</ele>
        <time>2014-07-08T08:08:06Z</time>
      </trkpt>
      <trkpt lat="46.53294" lon="3.75341">
        <ele>225.57</ele>
        <time>2014-07-08T08:08:15Z</time>
      </trkpt>
      <trkpt lat="46.53278" lon="3.75269">
        <ele>226.05</ele>
        <time>2014-07-08T08:08:32Z</time>
      </trkpt>
      <trkpt lat="46.53273" lon="3.75154">
        <ele>225.57</ele>
        <time>2014-07-08T08:08:49Z</time>
      </trkpt>
      <trkpt lat="46.5327" lon="3.75045">
        <ele>225.09</ele>
        <time>2014-07-08T08:09:05Z</time>
      </trkpt>
      <trkpt lat="46.5325" lon="3.75006">
        <ele>224.61</ele>
        <time>2014-07-08T08:09:13Z</time>
      </trkpt>
      <trkpt lat="46.53201" lon="3.74967">
        <ele>224.61</ele>
        <time>2014-07-08T08:09:26Z</time>
      </trkpt>
      <trkpt lat="46.53192" lon="3.74932">
        <ele>224.61</ele>
        <time>2014-07-08T08:09:33Z</time>
      </trkpt>
      <trkpt lat="46.53192" lon="3.74814">
        <ele>224.61</ele>
        <time>2014-07-08T08:09:52Z</time>
      </trkpt>
      <trkpt lat="46.53195" lon="3.74802">
        <ele>224.61</ele>
        <time>2014-07-08T08:10:00Z</time>
      </trkpt>
      <trkpt lat="46.53195" lon="3.74801">
        <ele>224.61</ele>
        <time>2014-07-08T08:10:18Z</time>
      </trkpt>
      <trkpt lat="46.53196" lon="3.74791">
        <ele>224.61</ele>
        <time>2014-07-08T08:10:23Z</time>
      </trkpt>
      <trkpt lat="46.53197" lon="3.74725">
        <ele>224.61</ele>
        <time>2014-07-08T08:10:39Z</time>
      </trkpt>
      <trkpt lat="46.53203" lon="3.74599">
        <ele>225.09</ele>
        <time>2014-07-08T08:10:59Z</time>
      </trkpt>
      <trkpt lat="46.53211" lon="3.74532">
        <ele>227.49</ele>
        <time>2014-07-08T08:11:13Z</time>
      </trkpt>
      <trkpt lat="46.53212" lon="3.74524">
        <ele>227.49</ele>
        <time>2014-07-08T08:11:17Z</time>
      </trkpt>
      <trkpt lat="46.53212" lon="3.74515">
        <ele>228.45</ele>
        <time>2014-07-08T08:11:30Z</time>
      </trkpt>
      <trkpt lat="46.53214" lon="3.74512">
        <ele>228.45</ele>
        <time>2014-07-08T08:11:33Z</time>
      </trkpt>
      <trkpt lat="46.53215" lon="3.74492">
        <ele>227.49</ele>
        <time>2014-07-08T08:11:40Z</time>
      </trkpt>
      <trkpt lat="46.53215" lon="3.74468">
        <ele>226.53</ele>
        <time>2014-07-08T08:11:46Z</time>
      </trkpt>
      <trkpt lat="46.53212" lon="3.74407">
        <ele>224.61</ele>
        <time>2014-07-08T08:11:54Z</time>
      </trkpt>
      <trkpt lat="46.53207" lon="3.74377">
        <ele>224.61</ele>
        <time>2014-07-08T08:11:58Z</time>
      </trkpt>
      <trkpt lat="46.53202" lon="3.74364">
        <ele>224.61</ele>
        <time>2014-07-08T08:12:00Z</time>
      </trkpt>
      <trkpt lat="46.53187" lon="3.74326">
        <ele>224.61</ele>
        <time>2014-07-08T08:12:07Z</time>
      </trkpt>
      <trkpt lat="46.53141" lon="3.74234">
        <ele>224.61</ele>
        <time>2014-07-08T08:12:24Z</time>
      </trkpt>
      <trkpt lat="46.53098" lon="3.74144">
        <ele>224.61</ele>
        <time>2014-07-08T08:12:41Z</time>
      </trkpt>
      <trkpt lat="46.53047" lon="3.74036">
        <ele>224.61</ele>
        <time>2014-07-08T08:13:00Z</time>
      </trkpt>
      <trkpt lat="46.53002" lon="3.7393">
        <ele>225.09</ele>
        <time>2014-07-08T08:13:18Z</time>
      </trkpt>
      <trkpt lat="46.52967" lon="3.73823">
        <ele>225.09</ele>
        <time>2014-07-08T08:13:35Z</time>
      </trkpt>
      <trkpt lat="46.52941" lon="3.73726">
        <ele>225.57</ele>
        <time>2014-07-08T08:13:50Z</time>
      </trkpt>
      <trkpt lat="46.52909" lon="3.73614">
        <ele>225.09</ele>
        <time>2014-07-08T08:14:08Z</time>
      </trkpt>
      <trkpt lat="46.52901" lon="3.73586">
        <ele>225.09</ele>
        <time>2014-07-08T08:14:12Z</time>
      </trkpt>
      <trkpt lat="46.52868" lon="3.7346">
        <ele>225.57</ele>
        <time>2014-07-08T08:14:30Z</time>
      </trkpt>
      <trkpt lat="46.5284" lon="3.73337">
        <ele>226.53</ele>
        <time>2014-07-08T08:14:48Z</time>
      </trkpt>
      <trkpt lat="46.52835" lon="3.7332">
        <ele>227.49</ele>
        <time>2014-07-08T08:14:53Z</time>
      </trkpt>
      <trkpt lat="46.52831" lon="3.73304">
        <ele>228.45</ele>
        <time>2014-07-08T08:15:01Z</time>
      </trkpt>
      <trkpt lat="46.52827" lon="3.73294">
        <ele>227.97</ele>
        <time>2014-07-08T08:15:05Z</time>
      </trkpt>
      <trkpt lat="46.52825" lon="3.7328">
        <ele>227.01</ele>
        <time>2014-07-08T08:15:11Z</time>
      </trkpt>
      <trkpt lat="46.52812" lon="3.73229">
        <ele>225.09</ele>
        <time>2014-07-08T08:15:19Z</time>
      </trkpt>
      <trkpt lat="46.52813" lon="3.73168">
        <ele>224.61</ele>
        <time>2014-07-08T08:15:27Z</time>
      </trkpt>
      <trkpt lat="46.52816" lon="3.73122">
        <ele>225.57</ele>
        <time>2014-07-08T08:15:34Z</time>
      </trkpt>
      <trkpt lat="46.52839" lon="3.73066">
        <ele>225.09</ele>
        <time>2014-07-08T08:15:45Z</time>
      </trkpt>
      <trkpt lat="46.52867" lon="3.72979">
        <ele>225.57</ele>
        <time>2014-07-08T08:16:01Z</time>
      </trkpt>
      <trkpt lat="46.52897" lon="3.7289">
        <ele>226.05</ele>
        <time>2014-07-08T08:16:16Z</time>
      </trkpt>
      <trkpt lat="46.52915" lon="3.72865">
        <ele>226.05</ele>
        <time>2014-07-08T08:16:21Z</time>
      </trkpt>
      <trkpt lat="46.52948" lon="3.72828">
        <ele>225.57</ele>
        <time>2014-07-08T08:16:30Z</time>
      </trkpt>
      <trkpt lat="46.52975" lon="3.72815">
        <ele>225.09</ele>
        <time>2014-07-08T08:16:37Z</time>
      </trkpt>
      <trkpt lat="46.52991" lon="3.72806">
        <ele>225.57</ele>
        <time>2014-07-08T08:16:41Z</time>
      </trkpt>
      <trkpt lat="46.5301" lon="3.7279">
        <ele>225.57</ele>
        <time>2014-07-08T08:16:46Z</time>
      </trkpt>
      <trkpt lat="46.53046" lon="3.72729">
        <ele>225.09</ele>
        <time>2014-07-08T08:16:58Z</time>
      </trkpt>
      <trkpt lat="46.53066" lon="3.72652">
        <ele>225.09</ele>
        <time>2014-07-08T08:17:11Z</time>
      </trkpt>
      <trkpt lat="46.53067" lon="3.72645">
        <ele>225.57</ele>
        <time>2014-07-08T08:17:12Z</time>
      </trkpt>
      <trkpt lat="46.5308" lon="3.72587">
        <ele>225.57</ele>
        <time>2014-07-08T08:17:21Z</time>
      </trkpt>
      <trkpt lat="46.53106" lon="3.72472">
        <ele>225.57</ele>
        <time>2014-07-08T08:17:38Z</time>
      </trkpt>
      <trkpt lat="46.53133" lon="3.7235">
        <ele>225.57</ele>
        <time>2014-07-08T08:17:56Z</time>
      </trkpt>
      <trkpt lat="46.53157" lon="3.72247">
        <ele>225.09</ele>
        <time>2014-07-08T08:18:11Z</time>
      </trkpt>
      <trkpt lat="46.53162" lon="3.72228">
        <ele>225.09</ele>
        <time>2014-07-08T08:18:14Z</time>
      </trkpt>
      <trkpt lat="46.53188" lon="3.72107">
        <ele>225.57</ele>
        <time>2014-07-08T08:18:32Z</time>
      </trkpt>
      <trkpt lat="46.53214" lon="3.71993">
        <ele>226.05</ele>
        <time>2014-07-08T08:18:49Z</time>
      </trkpt>
      <trkpt lat="46.53231" lon="3.71925">
        <ele>225.57</ele>
        <time>2014-07-08T08:18:59Z</time>
      </trkpt>
      <trkpt lat="46.53264" lon="3.71812">
        <ele>225.57</ele>
        <time>2014-07-08T08:19:16Z</time>
      </trkpt>
      <trkpt lat="46.53266" lon="3.71806">
        <ele>225.57</ele>
        <time>2014-07-08T08:19:17Z</time>
      </trkpt>
      <trkpt lat="46.53279" lon="3.71769">
        <ele>226.05</ele>
        <time>2014-07-08T08:19:23Z</time>
      </trkpt>
      <trkpt lat="46.53287" lon="3.71752">
        <ele>226.05</ele>
        <time>2014-07-08T08:19:26Z</time>
      </trkpt>
      <trkpt lat="46.5332" lon="3.71687">
        <ele>225.57</ele>
        <time>2014-07-08T08:19:37Z</time>
      </trkpt>
      <trkpt lat="46.53353" lon="3.71631">
        <ele>226.05</ele>
        <time>2014-07-08T08:19:47Z</time>
      </trkpt>
      <trkpt lat="46.53367" lon="3.71611">
        <ele>226.05</ele>
        <time>2014-07-08T08:19:51Z</time>
      </trkpt>
      <trkpt lat="46.5344" lon="3.71527">
        <ele>226.05</ele>
        <time>2014-07-08T08:20:10Z</time>
      </trkpt>
      <trkpt lat="46.53517" lon="3.71447">
        <ele>226.05</ele>
        <time>2014-07-08T08:20:29Z</time>
      </trkpt>
      <trkpt lat="46.53583" lon="3.7138">
        <ele>226.05</ele>
        <time>2014-07-08T08:20:45Z</time>
      </trkpt>
      <trkpt lat="46.53653" lon="3.71307">
        <ele>226.05</ele>
        <time>2014-07-08T08:21:03Z</time>
      </trkpt>
      <trkpt lat="46.53699" lon="3.71243">
        <ele>227.01</ele>
        <time>2014-07-08T08:21:19Z</time>
      </trkpt>
      <trkpt lat="46.53724" lon="3.71189">
        <ele>227.49</ele>
        <time>2014-07-08T08:21:32Z</time>
      </trkpt>
      <trkpt lat="46.5375" lon="3.71103">
        <ele>227.49</ele>
        <time>2014-07-08T08:21:49Z</time>
      </trkpt>
      <trkpt lat="46.53766" lon="3.71007">
        <ele>226.05</ele>
        <time>2014-07-08T08:22:06Z</time>
      </trkpt>
      <trkpt lat="46.5378" lon="3.70942">
        <ele>226.05</ele>
        <time>2014-07-08T08:22:20Z</time>
      </trkpt>
      <trkpt lat="46.53804" lon="3.70863">
        <ele>226.05</ele>
        <time>2014-07-08T08:22:38Z</time>
      </trkpt>
      <trkpt lat="46.53814" lon="3.70826">
        <ele>226.05</ele>
        <time>2014-07-08T08:22:48Z</time>
      </trkpt>
      <trkpt lat="46.53815" lon="3.70818">
        <ele>226.05</ele>
        <time>2014-07-08T08:22:52Z</time>
      </trkpt>
      <trkpt lat="46.53815" lon="3.70817">
        <ele>226.05</ele>
        <time>2014-07-08T08:23:06Z</time>
      </trkpt>
      <trkpt lat="46.53815" lon="3.70818">
        <ele>226.05</ele>
        <time>2014-07-08T08:23:35Z</time>
      </trkpt>
      <trkpt lat="46.53815" lon="3.70817">
        <ele>226.05</ele>
        <time>2014-07-08T08:24:08Z</time>
      </trkpt>
      <trkpt lat="46.53814" lon="3.70819">
        <ele>226.05</ele>
        <time>2014-07-08T08:24:32Z</time>
      </trkpt>
      <trkpt lat="46.53817" lon="3.70817">
        <ele>226.05</ele>
        <time>2014-07-08T08:24:56Z</time>
      </trkpt>
      <trkpt lat="46.53815" lon="3.70815">
        <ele>226.05</ele>
        <time>2014-07-08T08:25:24Z</time>
      </trkpt>
      <trkpt lat="46.53816" lon="3.70818">
        <ele>226.05</ele>
        <time>2014-07-08T08:25:45Z</time>
      </trkpt>
      <trkpt lat="46.53817" lon="3.70815">
        <ele>226.05</ele>
        <time>2014-07-08T08:26:10Z</time>
      </trkpt>
      <trkpt lat="46.53816" lon="3.70816">
        <ele>226.05</ele>
        <time>2014-07-08T08:26:46Z</time>
      </trkpt>
      <trkpt lat="46.53815" lon="3.70816">
        <ele>226.53</ele>
        <time>2014-07-08T08:27:07Z</time>
      </trkpt>
      <trkpt lat="46.53818" lon="3.70805">
        <ele>226.53</ele>
        <time>2014-07-08T08:27:12Z</time>
      </trkpt>
      <trkpt lat="46.53831" lon="3.70772">
        <ele>226.53</ele>
        <time>2014-07-08T08:27:25Z</time>
      </trkpt>
      <trkpt lat="46.53836" lon="3.70765">
        <ele>226.53</ele>
        <time>2014-07-08T08:27:29Z</time>
      </trkpt>
      <trkpt lat="46.53823" lon="3.70752">
        <ele>227.97</ele>
        <time>2014-07-08T08:27:38Z</time>
      </trkpt>
      <trkpt lat="46.53811" lon="3.70746">
        <ele>227.01</ele>
        <time>2014-07-08T08:27:43Z</time>
      </trkpt>
      <trkpt lat="46.53791" lon="3.70699">
        <ele>225.57</ele>
        <time>2014-07-08T08:27:52Z</time>
      </trkpt>
      <trkpt lat="46.53802" lon="3.70677">
        <ele>227.49</ele>
        <time>2014-07-08T08:28:00Z</time>
      </trkpt>
      <trkpt lat="46.53822" lon="3.70628">
        <ele>225.09</ele>
        <time>2014-07-08T08:28:15Z</time>
      </trkpt>
      <trkpt lat="46.53825" lon="3.70617">
        <ele>225.09</ele>
        <time>2014-07-08T08:28:18Z</time>
      </trkpt>
      <trkpt lat="46.53817" lon="3.70617">
        <ele>224.61</ele>
        <time>2014-07-08T08:28:24Z</time>
      </trkpt>
      <trkpt lat="46.53812" lon="3.70625">
        <ele>224.12</ele>
        <time>2014-07-08T08:28:27Z</time>
      </trkpt>
      <trkpt lat="46.53793" lon="3.70636">
        <ele>224.12</ele>
        <time>2014-07-08T08:28:37Z</time>
      </trkpt>
      <trkpt lat="46.53791" lon="3.70633">
        <ele>224.12</ele>
        <time>2014-07-08T08:28:38Z</time>
      </trkpt>
      <trkpt lat="46.5374" lon="3.70586">
        <ele>224.12</ele>
        <time>2014-07-08T08:28:55Z</time>
      </trkpt>
      <trkpt lat="46.53673" lon="3.70525">
        <ele>224.12</ele>
        <time>2014-07-08T08:29:13Z</time>
      </trkpt>
      <trkpt lat="46.53596" lon="3.70455">
        <ele>224.12</ele>
        <time>2014-07-08T08:29:33Z</time>
      </trkpt>
      <trkpt lat="46.53528" lon="3.70393">
        <ele>224.12</ele>
        <time>2014-07-08T08:29:50Z</time>
      </trkpt>
      <trkpt lat="46.53444" lon="3.70317">
        <ele>224.61</ele>
        <time>2014-07-08T08:30:11Z</time>
      </trkpt>
      <trkpt lat="46.53427" lon="3.70313">
        <ele>224.61</ele>
        <time>2014-07-08T08:30:15Z</time>
      </trkpt>
      <trkpt lat="46.53401" lon="3.70304">
        <ele>223.64</ele>
        <time>2014-07-08T08:30:20Z</time>
      </trkpt>
      <trkpt lat="46.53384" lon="3.70264">
        <ele>223.64</ele>
        <time>2014-07-08T08:30:27Z</time>
      </trkpt>
      <trkpt lat="46.53368" lon="3.70238">
        <ele>223.64</ele>
        <time>2014-07-08T08:30:32Z</time>
      </trkpt>
      <trkpt lat="46.5333" lon="3.70148">
        <ele>222.68</ele>
        <time>2014-07-08T08:30:47Z</time>
      </trkpt>
      <trkpt lat="46.53289" lon="3.70064">
        <ele>222.68</ele>
        <time>2014-07-08T08:31:02Z</time>
      </trkpt>
      <trkpt lat="46.53239" lon="3.6996">
        <ele>223.16</ele>
        <time>2014-07-08T08:31:22Z</time>
      </trkpt>
      <trkpt lat="46.53191" lon="3.69858">
        <ele>223.64</ele>
        <time>2014-07-08T08:31:41Z</time>
      </trkpt>
      <trkpt lat="46.53155" lon="3.69782">
        <ele>223.64</ele>
        <time>2014-07-08T08:31:56Z</time>
      </trkpt>
      <trkpt lat="46.53153" lon="3.69777">
        <ele>224.12</ele>
        <time>2014-07-08T08:31:57Z</time>
      </trkpt>
      <trkpt lat="46.53114" lon="3.6973">
        <ele>226.05</ele>
        <time>2014-07-08T08:32:12Z</time>
      </trkpt>
      <trkpt lat="46.53061" lon="3.69691">
        <ele>227.01</ele>
        <time>2014-07-08T08:32:30Z</time>
      </trkpt>
      <trkpt lat="46.52987" lon="3.69643">
        <ele>226.53</ele>
        <time>2014-07-08T08:32:49Z</time>
      </trkpt>
      <trkpt lat="46.52905" lon="3.69588">
        <ele>226.53</ele>
        <time>2014-07-08T08:33:09Z</time>
      </trkpt>
      <trkpt lat="46.5284" lon="3.69547">
        <ele>227.49</ele>
        <time>2014-07-08T08:33:26Z</time>
      </trkpt>
      <trkpt lat="46.52757" lon="3.69492">
        <ele>227.49</ele>
        <time>2014-07-08T08:33:46Z</time>
      </trkpt>
      <trkpt lat="46.5269" lon="3.69451">
        <ele>227.49</ele>
        <time>2014-07-08T08:34:02Z</time>
      </trkpt>
      <trkpt lat="46.52682" lon="3.69444">
        <ele>227.97</ele>
        <time>2014-07-08T08:34:06Z</time>
      </trkpt>
      <trkpt lat="46.52671" lon="3.69438">
        <ele>227.97</ele>
        <time>2014-07-08T08:34:11Z</time>
      </trkpt>
      <trkpt lat="46.52657" lon="3.69428">
        <ele>227.49</ele>
        <time>2014-07-08T08:34:17Z</time>
      </trkpt>
      <trkpt lat="46.5261" lon="3.69384">
        <ele>227.01</ele>
        <time>2014-07-08T08:34:33Z</time>
      </trkpt>
      <trkpt lat="46.52607" lon="3.6938">
        <ele>227.01</ele>
        <time>2014-07-08T08:34:34Z</time>
      </trkpt>
      <trkpt lat="46.52569" lon="3.69306">
        <ele>227.01</ele>
        <time>2014-07-08T08:34:50Z</time>
      </trkpt>
      <trkpt lat="46.52523" lon="3.6922">
        <ele>227.01</ele>
        <time>2014-07-08T08:35:08Z</time>
      </trkpt>
      <trkpt lat="46.52473" lon="3.69125">
        <ele>227.49</ele>
        <time>2014-07-08T08:35:28Z</time>
      </trkpt>
      <trkpt lat="46.52427" lon="3.69033">
        <ele>227.01</ele>
        <time>2014-07-08T08:35:45Z</time>
      </trkpt>
      <trkpt lat="46.52404" lon="3.68987">
        <ele>228.45</ele>
        <time>2014-07-08T08:35:55Z</time>
      </trkpt>
      <trkpt lat="46.52385" lon="3.68955">
        <ele>226.05</ele>
        <time>2014-07-08T08:36:04Z</time>
      </trkpt>
      <trkpt lat="46.52352" lon="3.68908">
        <ele>226.05</ele>
        <time>2014-07-08T08:36:19Z</time>
      </trkpt>
      <trkpt lat="46.52296" lon="3.68842">
        <ele>226.05</ele>
        <time>2014-07-08T08:36:37Z</time>
      </trkpt>
      <trkpt lat="46.52266" lon="3.68808">
        <ele>225.57</ele>
        <time>2014-07-08T08:36:46Z</time>
      </trkpt>
      <trkpt lat="46.52241" lon="3.68776">
        <ele>226.53</ele>
        <time>2014-07-08T08:36:59Z</time>
      </trkpt>
      <trkpt lat="46.52216" lon="3.68744">
        <ele>226.05</ele>
        <time>2014-07-08T08:37:11Z</time>
      </trkpt>
      <trkpt lat="46.52189" lon="3.68703">
        <ele>226.05</ele>
        <time>2014-07-08T08:37:23Z</time>
      </trkpt>
      <trkpt lat="46.52185" lon="3.6867">
        <ele>227.49</ele>
        <time>2014-07-08T08:37:33Z</time>
      </trkpt>
      <trkpt lat="46.52177" lon="3.68673">
        <ele>227.49</ele>
        <time>2014-07-08T08:37:39Z</time>
      </trkpt>
      <trkpt lat="46.52155" lon="3.68713">
        <ele>228.93</ele>
        <time>2014-07-08T08:37:57Z</time>
      </trkpt>
      <trkpt lat="46.52151" lon="3.68718">
        <ele>229.41</ele>
        <time>2014-07-08T08:38:00Z</time>
      </trkpt>
      <trkpt lat="46.52139" lon="3.68713">
        <ele>228.93</ele>
        <time>2014-07-08T08:38:05Z</time>
      </trkpt>
      <trkpt lat="46.52101" lon="3.68663">
        <ele>228.93</ele>
        <time>2014-07-08T08:38:21Z</time>
      </trkpt>
      <trkpt lat="46.52054" lon="3.68612">
        <ele>228.93</ele>
        <time>2014-07-08T08:38:37Z</time>
      </trkpt>
      <trkpt lat="46.52036" lon="3.6859">
        <ele>228.45</ele>
        <time>2014-07-08T08:38:45Z</time>
      </trkpt>
      <trkpt lat="46.52028" lon="3.68609">
        <ele>228.93</ele>
        <time>2014-07-08T08:38:53Z</time>
      </trkpt>
      <trkpt lat="46.52027" lon="3.68614">
        <ele>228.93</ele>
        <time>2014-07-08T08:39:02Z</time>
      </trkpt>
      <trkpt lat="46.52026" lon="3.68613">
        <ele>228.93</ele>
        <time>2014-07-08T08:39:21Z</time>
      </trkpt>
      <trkpt lat="46.52026" lon="3.68613">
        <ele>228.93</ele>
        <time>2014-07-08T08:39:47Z</time>
      </trkpt>
      <trkpt lat="46.52029" lon="3.6861">
        <ele>228.93</ele>
        <time>2014-07-08T08:39:53Z</time>
      </trkpt>
      <trkpt lat="46.52034" lon="3.68601">
        <ele>229.41</ele>
        <time>2014-07-08T08:39:58Z</time>
      </trkpt>
      <trkpt lat="46.52036" lon="3.68589">
        <ele>228.93</ele>
        <time>2014-07-08T08:40:02Z</time>
      </trkpt>
      <trkpt lat="46.5202" lon="3.68566">
        <ele>228.93</ele>
        <time>2014-07-08T08:40:16Z</time>
      </trkpt>
      <trkpt lat="46.52015" lon="3.68557">
        <ele>228.93</ele>
        <time>2014-07-08T08:40:29Z</time>
      </trkpt>
      <trkpt lat="46.51996" lon="3.68536">
        <ele>228.45</ele>
        <time>2014-07-08T08:40:40Z</time>
      </trkpt>
      <trkpt lat="46.51963" lon="3.68497">
        <ele>228.93</ele>
        <time>2014-07-08T08:40:52Z</time>
      </trkpt>
      <trkpt lat="46.51952" lon="3.68503">
        <ele>229.41</ele>
        <time>2014-07-08T08:40:57Z</time>
      </trkpt>
      <trkpt lat="46.51943" lon="3.68506">
        <ele>228.93</ele>
        <time>2014-07-08T08:41:07Z</time>
      </trkpt>
      <trkpt lat="46.51943" lon="3.68505">
        <ele>228.93</ele>
        <time>2014-07-08T08:41:08Z</time>
      </trkpt>
      <trkpt lat="46.51941" lon="3.68519">
        <ele>229.41</ele>
        <time>2014-07-08T08:41:17Z</time>
      </trkpt>
      <trkpt lat="46.51939" lon="3.6852">
        <ele>229.41</ele>
        <time>2014-07-08T08:41:18Z</time>
      </trkpt>
      <trkpt lat="46.51923" lon="3.6852">
        <ele>228.93</ele>
        <time>2014-07-08T08:41:24Z</time>
      </trkpt>
      <trkpt lat="46.51901" lon="3.68515">
        <ele>229.41</ele>
        <time>2014-07-08T08:41:34Z</time>
      </trkpt>
      <trkpt lat="46.51898" lon="3.68516">
        <ele>229.41</ele>
        <time>2014-07-08T08:41:36Z</time>
      </trkpt>
      <trkpt lat="46.51864" lon="3.68501">
        <ele>229.41</ele>
        <time>2014-07-08T08:41:49Z</time>
      </trkpt>
      <trkpt lat="46.51816" lon="3.68463">
        <ele>229.89</ele>
        <time>2014-07-08T08:42:06Z</time>
      </trkpt>
      <trkpt lat="46.51764" lon="3.68412">
        <ele>228.93</ele>
        <time>2014-07-08T08:42:22Z</time>
      </trkpt>
      <trkpt lat="46.51717" lon="3.68327">
        <ele>229.41</ele>
        <time>2014-07-08T08:42:38Z</time>
      </trkpt>
      <trkpt lat="46.51695" lon="3.68246">
        <ele>229.41</ele>
        <time>2014-07-08T08:42:51Z</time>
      </trkpt>
      <trkpt lat="46.51674" lon="3.68196">
        <ele>228.93</ele>
        <time>2014-07-08T08:43:00Z</time>
      </trkpt>
      <trkpt lat="46.51663" lon="3.68174">
        <ele>228.93</ele>
        <time>2014-07-08T08:43:05Z</time>
      </trkpt>
      <trkpt lat="46.51658" lon="3.68162">
        <ele>228.93</ele>
        <time>2014-07-08T08:43:09Z</time>
      </trkpt>
      <trkpt lat="46.5163" lon="3.68124">
        <ele>228.93</ele>
        <time>2014-07-08T08:43:22Z</time>
      </trkpt>
      <trkpt lat="46.51592" lon="3.68083">
        <ele>228.45</ele>
        <time>2014-07-08T08:43:34Z</time>
      </trkpt>
      <trkpt lat="46.51544" lon="3.68049">
        <ele>228.45</ele>
        <time>2014-07-08T08:43:49Z</time>
      </trkpt>
      <trkpt lat="46.51528" lon="3.68039">
        <ele>228.93</ele>
        <time>2014-07-08T08:44:02Z</time>
      </trkpt>
      <trkpt lat="46.5151" lon="3.68027">
        <ele>228.93</ele>
        <time>2014-07-08T08:44:16Z</time>
      </trkpt>
      <trkpt lat="46.5151" lon="3.68023">
        <ele>228.93</ele>
        <time>2014-07-08T08:44:46Z</time>
      </trkpt>
      <trkpt lat="46.51507" lon="3.68021">
        <ele>229.41</ele>
        <time>2014-07-08T08:45:14Z</time>
      </trkpt>
      <trkpt lat="46.51474" lon="3.68004">
        <ele>228.93</ele>
        <time>2014-07-08T08:45:26Z</time>
      </trkpt>
      <trkpt lat="46.51415" lon="3.67966">
        <ele>228.93</ele>
        <time>2014-07-08T08:45:42Z</time>
      </trkpt>
      <trkpt lat="46.51357" lon="3.67928">
        <ele>228.93</ele>
        <time>2014-07-08T08:45:57Z</time>
      </trkpt>
      <trkpt lat="46.51309" lon="3.67897">
        <ele>229.41</ele>
        <time>2014-07-08T08:46:09Z</time>
      </trkpt>
      <trkpt lat="46.51286" lon="3.67884">
        <ele>229.41</ele>
        <time>2014-07-08T08:46:16Z</time>
      </trkpt>
      <trkpt lat="46.51268" lon="3.67878">
        <ele>229.41</ele>
        <time>2014-07-08T08:46:23Z</time>
      </trkpt>
      <trkpt lat="46.51222" lon="3.67874">
        <ele>229.41</ele>
        <time>2014-07-08T08:46:37Z</time>
      </trkpt>
      <trkpt lat="46.51163" lon="3.67872">
        <ele>229.89</ele>
        <time>2014-07-08T08:46:52Z</time>
      </trkpt>
      <trkpt lat="46.51102" lon="3.6787">
        <ele>229.41</ele>
        <time>2014-07-08T08:47:06Z</time>
      </trkpt>
      <trkpt lat="46.51027" lon="3.67871">
        <ele>229.89</ele>
        <time>2014-07-08T08:47:24Z</time>
      </trkpt>
      <trkpt lat="46.50989" lon="3.67905">
        <ele>229.89</ele>
        <time>2014-07-08T08:47:36Z</time>
      </trkpt>
      <trkpt lat="46.50985" lon="3.6791">
        <ele>229.89</ele>
        <time>2014-07-08T08:47:38Z</time>
      </trkpt>
      <trkpt lat="46.50981" lon="3.67913">
        <ele>229.89</ele>
        <time>2014-07-08T08:47:41Z</time>
      </trkpt>
      <trkpt lat="46.50976" lon="3.67913">
        <ele>229.89</ele>
        <time>2014-07-08T08:47:44Z</time>
      </trkpt>
      <trkpt lat="46.50972" lon="3.67909">
        <ele>229.89</ele>
        <time>2014-07-08T08:47:57Z</time>
      </trkpt>
      <trkpt lat="46.50953" lon="3.67907">
        <ele>229.89</ele>
        <time>2014-07-08T08:48:11Z</time>
      </trkpt>
      <trkpt lat="46.50912" lon="3.67904">
        <ele>229.41</ele>
        <time>2014-07-08T08:48:23Z</time>
      </trkpt>
      <trkpt lat="46.50853" lon="3.67894">
        <ele>229.41</ele>
        <time>2014-07-08T08:48:39Z</time>
      </trkpt>
      <trkpt lat="46.50813" lon="3.6787">
        <ele>228.93</ele>
        <time>2014-07-08T08:48:52Z</time>
      </trkpt>
      <trkpt lat="46.50805" lon="3.67859">
        <ele>228.93</ele>
        <time>2014-07-08T08:49:04Z</time>
      </trkpt>
      <trkpt lat="46.50807" lon="3.67864">
        <ele>229.41</ele>
        <time>2014-07-08T08:49:23Z</time>
      </trkpt>
      <trkpt lat="46.50813" lon="3.67872">
        <ele>229.41</ele>
        <time>2014-07-08T08:49:33Z</time>
      </trkpt>
      <trkpt lat="46.50819" lon="3.67878">
        <ele>229.41</ele>
        <time>2014-07-08T08:49:37Z</time>
      </trkpt>
      <trkpt lat="46.50862" lon="3.67896">
        <ele>229.41</ele>
        <time>2014-07-08T08:49:51Z</time>
      </trkpt>
      <trkpt lat="46.50927" lon="3.67906">
        <ele>229.41</ele>
        <time>2014-07-08T08:50:08Z</time>
      </trkpt>
      <trkpt lat="46.50972" lon="3.67913">
        <ele>229.89</ele>
        <time>2014-07-08T08:50:21Z</time>
      </trkpt>
      <trkpt lat="46.50984" lon="3.67911">
        <ele>229.89</ele>
        <time>2014-07-08T08:50:26Z</time>
      </trkpt>
      <trkpt lat="46.50991" lon="3.67899">
        <ele>229.89</ele>
        <time>2014-07-08T08:50:30Z</time>
      </trkpt>
      <trkpt lat="46.51023" lon="3.67872">
        <ele>230.37</ele>
        <time>2014-07-08T08:50:42Z</time>
      </trkpt>
      <trkpt lat="46.51074" lon="3.67872">
        <ele>229.89</ele>
        <time>2014-07-08T08:50:56Z</time>
      </trkpt>
      <trkpt lat="46.51114" lon="3.67874">
        <ele>229.89</ele>
        <time>2014-07-08T08:51:09Z</time>
      </trkpt>
      <trkpt lat="46.51175" lon="3.67875">
        <ele>230.37</ele>
        <time>2014-07-08T08:51:25Z</time>
      </trkpt>
      <trkpt lat="46.51229" lon="3.67876">
        <ele>230.37</ele>
        <time>2014-07-08T08:51:39Z</time>
      </trkpt>
      <trkpt lat="46.51272" lon="3.67881">
        <ele>229.89</ele>
        <time>2014-07-08T08:51:52Z</time>
      </trkpt>
      <trkpt lat="46.51285" lon="3.67884">
        <ele>229.89</ele>
        <time>2014-07-08T08:52:00Z</time>
      </trkpt>
      <trkpt lat="46.5129" lon="3.67889">
        <ele>229.89</ele>
        <time>2014-07-08T08:52:04Z</time>
      </trkpt>
      <trkpt lat="46.51305" lon="3.67899">
        <ele>229.89</ele>
        <time>2014-07-08T08:52:16Z</time>
      </trkpt>
      <trkpt lat="46.51316" lon="3.67905">
        <ele>229.89</ele>
        <time>2014-07-08T08:52:22Z</time>
      </trkpt>
      <trkpt lat="46.51342" lon="3.67922">
        <ele>229.41</ele>
        <time>2014-07-08T08:52:38Z</time>
      </trkpt>
      <trkpt lat="46.51387" lon="3.67949">
        <ele>229.89</ele>
        <time>2014-07-08T08:52:52Z</time>
      </trkpt>
      <trkpt lat="46.51447" lon="3.67987">
        <ele>229.41</ele>
        <time>2014-07-08T08:53:06Z</time>
      </trkpt>
      <trkpt lat="46.5146" lon="3.67996">
        <ele>229.89</ele>
        <time>2014-07-08T08:53:09Z</time>
      </trkpt>
      <trkpt lat="46.5147" lon="3.68">
        <ele>229.41</ele>
        <time>2014-07-08T08:53:11Z</time>
      </trkpt>
      <trkpt lat="46.51518" lon="3.68035">
        <ele>229.89</ele>
        <time>2014-07-08T08:53:24Z</time>
      </trkpt>
      <trkpt lat="46.51569" lon="3.68067">
        <ele>229.89</ele>
        <time>2014-07-08T08:53:38Z</time>
      </trkpt>
      <trkpt lat="46.51598" lon="3.68091">
        <ele>229.89</ele>
        <time>2014-07-08T08:53:46Z</time>
      </trkpt>
      <trkpt lat="46.51652" lon="3.68153">
        <ele>229.89</ele>
        <time>2014-07-08T08:54:02Z</time>
      </trkpt>
      <trkpt lat="46.51655" lon="3.68159">
        <ele>229.89</ele>
        <time>2014-07-08T08:54:04Z</time>
      </trkpt>
      <trkpt lat="46.5166" lon="3.68172">
        <ele>229.89</ele>
        <time>2014-07-08T08:54:15Z</time>
      </trkpt>
      <trkpt lat="46.51659" lon="3.68174">
        <ele>229.89</ele>
        <time>2014-07-08T08:54:19Z</time>
      </trkpt>
      <trkpt lat="46.51656" lon="3.68178">
        <ele>229.41</ele>
        <time>2014-07-08T08:54:23Z</time>
      </trkpt>
      <trkpt lat="46.51651" lon="3.68176">
        <ele>229.41</ele>
        <time>2014-07-08T08:54:34Z</time>
      </trkpt>
      <trkpt lat="46.51648" lon="3.68169">
        <ele>229.41</ele>
        <time>2014-07-08T08:54:49Z</time>
      </trkpt>
      <trkpt lat="46.51644" lon="3.68163">
        <ele>229.41</ele>
        <time>2014-07-08T08:54:56Z</time>
      </trkpt>
      <trkpt lat="46.51619" lon="3.6817">
        <ele>228.93</ele>
        <time>2014-07-08T08:55:04Z</time>
      </trkpt>
      <trkpt lat="46.5157" lon="3.68163">
        <ele>228.93</ele>
        <time>2014-07-08T08:55:15Z</time>
      </trkpt>
      <trkpt lat="46.51551" lon="3.68151">
        <ele>229.41</ele>
        <time>2014-07-08T08:55:20Z</time>
      </trkpt>
      <trkpt lat="46.5152" lon="3.68123">
        <ele>229.41</ele>
        <time>2014-07-08T08:55:30Z</time>
      </trkpt>
      <trkpt lat="46.51514" lon="3.68124">
        <ele>229.89</ele>
        <time>2014-07-08T08:55:37Z</time>
      </trkpt>
      <trkpt lat="46.5151" lon="3.68131">
        <ele>229.89</ele>
        <time>2014-07-08T08:55:41Z</time>
      </trkpt>
      <trkpt lat="46.51496" lon="3.68161">
        <ele>229.41</ele>
        <time>2014-07-08T08:55:56Z</time>
      </trkpt>
      <trkpt lat="46.51497" lon="3.68163">
        <ele>229.41</ele>
        <time>2014-07-08T08:56:11Z</time>
      </trkpt>
      <trkpt lat="46.51498" lon="3.68157">
        <ele>229.89</ele>
        <time>2014-07-08T08:56:20Z</time>
      </trkpt>
      <trkpt lat="46.51512" lon="3.6813">
        <ele>229.89</ele>
        <time>2014-07-08T08:56:34Z</time>
      </trkpt>
      <trkpt lat="46.51516" lon="3.68123">
        <ele>229.41</ele>
        <time>2014-07-08T08:56:48Z</time>
      </trkpt>
      <trkpt lat="46.51516" lon="3.68119">
        <ele>229.41</ele>
        <time>2014-07-08T08:57:15Z</time>
      </trkpt>
      <trkpt lat="46.51515" lon="3.68114">
        <ele>229.41</ele>
        <time>2014-07-08T08:57:56Z</time>
      </trkpt>
      <trkpt lat="46.51515" lon="3.68114">
        <ele>225.57</ele>
        <time>2014-07-08T08:58:20Z</time>
      </trkpt>
      <trkpt lat="46.51512" lon="3.68108">
        <ele>213.07</ele>
        <time>2014-07-08T08:58:27Z</time>
      </trkpt>
      <trkpt lat="46.51512" lon="3.68107">
        <ele>211.15</ele>
        <time>2014-07-08T08:58:29Z</time>
      </trkpt>
      <trkpt lat="46.51514" lon="3.68119">
        <ele>214.03</ele>
        <time>2014-07-08T08:58:37Z</time>
      </trkpt>
      <trkpt lat="46.51514" lon="3.68115">
        <ele>217.4</ele>
        <time>2014-07-08T08:58:56Z</time>
      </trkpt>
      <trkpt lat="46.51517" lon="3.68114">
        <ele>220.28</ele>
        <time>2014-07-08T08:59:10Z</time>
      </trkpt>
      <trkpt lat="46.51518" lon="3.68113">
        <ele>223.64</ele>
        <time>2014-07-08T08:59:20Z</time>
      </trkpt>
      <trkpt lat="46.51517" lon="3.68113">
        <ele>224.12</ele>
        <time>2014-07-08T08:59:21Z</time>
      </trkpt>
      <trkpt lat="46.51517" lon="3.68112">
        <ele>227.01</ele>
        <time>2014-07-08T08:59:35Z</time>
      </trkpt>
      <trkpt lat="46.51516" lon="3.68112">
        <ele>230.37</ele>
        <time>2014-07-08T08:59:55Z</time>
      </trkpt>
      <trkpt lat="46.51516" lon="3.68112">
        <ele>231.81</ele>
        <time>2014-07-08T09:00:25Z</time>
      </trkpt>
      <trkpt lat="46.51516" lon="3.68115">
        <ele>231.33</ele>
        <time>2014-07-08T09:00:54Z</time>
      </trkpt>
      <trkpt lat="46.51517" lon="3.68109">
        <ele>231.81</ele>
        <time>2014-07-08T09:01:25Z</time>
      </trkpt>
      <trkpt lat="46.51517" lon="3.68112">
        <ele>231.81</ele>
        <time>2014-07-08T09:01:56Z</time>
      </trkpt>
      <trkpt lat="46.51516" lon="3.68106">
        <ele>231.81</ele>
        <time>2014-07-08T09:02:32Z</time>
      </trkpt>
      <trkpt lat="46.51515" lon="3.6811">
        <ele>232.3</ele>
        <time>2014-07-08T09:03:07Z</time>
      </trkpt>
      <trkpt lat="46.51516" lon="3.68107">
        <ele>232.3</ele>
        <time>2014-07-08T09:03:36Z</time>
      </trkpt>
      <trkpt lat="46.51517" lon="3.6811">
        <ele>232.3</ele>
        <time>2014-07-08T09:03:41Z</time>
      </trkpt>
      <trkpt lat="46.51524" lon="3.68122">
        <ele>231.81</ele>
        <time>2014-07-08T09:03:47Z</time>
      </trkpt>
      <trkpt lat="46.51554" lon="3.68148">
        <ele>231.81</ele>
        <time>2014-07-08T09:04:01Z</time>
      </trkpt>
      <trkpt lat="46.51598" lon="3.68167">
        <ele>231.33</ele>
        <time>2014-07-08T09:04:15Z</time>
      </trkpt>
      <trkpt lat="46.5164" lon="3.68164">
        <ele>231.81</ele>
        <time>2014-07-08T09:04:28Z</time>
      </trkpt>
      <trkpt lat="46.51652" lon="3.68157">
        <ele>232.3</ele>
        <time>2014-07-08T09:04:33Z</time>
      </trkpt>
      <trkpt lat="46.51661" lon="3.68166">
        <ele>232.3</ele>
        <time>2014-07-08T09:04:38Z</time>
      </trkpt>
      <trkpt lat="46.51681" lon="3.68211">
        <ele>231.81</ele>
        <time>2014-07-08T09:04:51Z</time>
      </trkpt>
      <trkpt lat="46.51703" lon="3.68272">
        <ele>231.81</ele>
        <time>2014-07-08T09:05:05Z</time>
      </trkpt>
      <trkpt lat="46.51731" lon="3.6836">
        <ele>232.3</ele>
        <time>2014-07-08T09:05:22Z</time>
      </trkpt>
      <trkpt lat="46.51788" lon="3.68445">
        <ele>231.81</ele>
        <time>2014-07-08T09:05:40Z</time>
      </trkpt>
      <trkpt lat="46.51823" lon="3.68472">
        <ele>232.3</ele>
        <time>2014-07-08T09:05:52Z</time>
      </trkpt>
      <trkpt lat="46.51828" lon="3.68474">
        <ele>232.78</ele>
        <time>2014-07-08T09:06:06Z</time>
      </trkpt>
      <trkpt lat="46.5183" lon="3.68474">
        <ele>232.78</ele>
        <time>2014-07-08T09:06:43Z</time>
      </trkpt>
      <trkpt lat="46.51831" lon="3.68474">
        <ele>230.85</ele>
        <time>2014-07-08T09:07:08Z</time>
      </trkpt>
      <trkpt lat="46.51829" lon="3.68475">
        <ele>231.81</ele>
        <time>2014-07-08T09:07:40Z</time>
      </trkpt>
      <trkpt lat="46.51831" lon="3.68478">
        <ele>232.3</ele>
        <time>2014-07-08T09:07:43Z</time>
      </trkpt>
      <trkpt lat="46.51858" lon="3.68499">
        <ele>232.3</ele>
        <time>2014-07-08T09:07:55Z</time>
      </trkpt>
      <trkpt lat="46.51892" lon="3.68526">
        <ele>232.78</ele>
        <time>2014-07-08T09:08:09Z</time>
      </trkpt>
      <trkpt lat="46.51892" lon="3.68528">
        <ele>232.3</ele>
        <time>2014-07-08T09:08:27Z</time>
      </trkpt>
      <trkpt lat="46.51892" lon="3.6852">
        <ele>232.3</ele>
        <time>2014-07-08T09:08:48Z</time>
      </trkpt>
      <trkpt lat="46.51893" lon="3.68521">
        <ele>231.81</ele>
        <time>2014-07-08T09:08:58Z</time>
      </trkpt>
      <trkpt lat="46.51892" lon="3.68534">
        <ele>232.3</ele>
        <time>2014-07-08T09:09:04Z</time>
      </trkpt>
      <trkpt lat="46.51859" lon="3.68587">
        <ele>233.74</ele>
        <time>2014-07-08T09:09:18Z</time>
      </trkpt>
      <trkpt lat="46.51827" lon="3.68638">
        <ele>233.26</ele>
        <time>2014-07-08T09:09:33Z</time>
      </trkpt>
      <trkpt lat="46.51796" lon="3.68685">
        <ele>233.26</ele>
        <time>2014-07-08T09:09:51Z</time>
      </trkpt>
      <trkpt lat="46.51762" lon="3.68736">
        <ele>232.78</ele>
        <time>2014-07-08T09:10:06Z</time>
      </trkpt>
      <trkpt lat="46.51718" lon="3.68805">
        <ele>232.3</ele>
        <time>2014-07-08T09:10:24Z</time>
      </trkpt>
      <trkpt lat="46.51682" lon="3.68855">
        <ele>232.78</ele>
        <time>2014-07-08T09:10:40Z</time>
      </trkpt>
      <trkpt lat="46.51682" lon="3.68853">
        <ele>233.26</ele>
        <time>2014-07-08T09:10:52Z</time>
      </trkpt>
      <trkpt lat="46.51681" lon="3.68851">
        <ele>231.81</ele>
        <time>2014-07-08T09:11:17Z</time>
      </trkpt>
      <trkpt lat="46.51681" lon="3.68851">
        <ele>232.78</ele>
        <time>2014-07-08T09:11:25Z</time>
      </trkpt>
      <trkpt lat="46.5168" lon="3.68851">
        <ele>232.78</ele>
        <time>2014-07-08T09:12:02Z</time>
      </trkpt>
      <trkpt lat="46.5168" lon="3.6885">
        <ele>231.33</ele>
        <time>2014-07-08T09:12:11Z</time>
      </trkpt>
      <trkpt lat="46.5168" lon="3.68851">
        <ele>232.78</ele>
        <time>2014-07-08T09:12:28Z</time>
      </trkpt>
      <trkpt lat="46.51681" lon="3.68848">
        <ele>232.78</ele>
        <time>2014-07-08T09:12:58Z</time>
      </trkpt>
      <trkpt lat="46.51681" lon="3.68849">
        <ele>233.26</ele>
        <time>2014-07-08T09:13:20Z</time>
      </trkpt>
      <trkpt lat="46.51683" lon="3.68852">
        <ele>233.26</ele>
        <time>2014-07-08T09:13:51Z</time>
      </trkpt>
      <trkpt lat="46.51682" lon="3.68853">
        <ele>233.26</ele>
        <time>2014-07-08T09:14:26Z</time>
      </trkpt>
      <trkpt lat="46.51682" lon="3.68852">
        <ele>233.26</ele>
        <time>2014-07-08T09:15:08Z</time>
      </trkpt>
      <trkpt lat="46.5168" lon="3.68855">
        <ele>233.26</ele>
        <time>2014-07-08T09:15:51Z</time>
      </trkpt>
      <trkpt lat="46.51684" lon="3.68853">
        <ele>233.74</ele>
        <time>2014-07-08T09:16:29Z</time>
      </trkpt>
      <trkpt lat="46.51683" lon="3.68853">
        <ele>231.33</ele>
        <time>2014-07-08T09:17:08Z</time>
      </trkpt>
      <trkpt lat="46.51682" lon="3.68853">
        <ele>233.26</ele>
        <time>2014-07-08T09:17:16Z</time>
      </trkpt>
      <trkpt lat="46.51696" lon="3.6885">
        <ele>233.26</ele>
        <time>2014-07-08T09:17:24Z</time>
      </trkpt>
      <trkpt lat="46.51699" lon="3.68843">
        <ele>232.78</ele>
        <time>2014-07-08T09:17:26Z</time>
      </trkpt>
      <trkpt lat="46.51731" lon="3.68794">
        <ele>232.78</ele>
        <time>2014-07-08T09:17:42Z</time>
      </trkpt>
      <trkpt lat="46.51782" lon="3.68716">
        <ele>233.74</ele>
        <time>2014-07-08T09:18:03Z</time>
      </trkpt>
      <trkpt lat="46.51836" lon="3.68633">
        <ele>234.22</ele>
        <time>2014-07-08T09:18:24Z</time>
      </trkpt>
      <trkpt lat="46.5189" lon="3.68548">
        <ele>233.26</ele>
        <time>2014-07-08T09:18:44Z</time>
      </trkpt>
      <trkpt lat="46.51942" lon="3.68463">
        <ele>231.81</ele>
        <time>2014-07-08T09:19:02Z</time>
      </trkpt>
      <trkpt lat="46.51955" lon="3.68449">
        <ele>231.33</ele>
        <time>2014-07-08T09:19:06Z</time>
      </trkpt>
      <trkpt lat="46.52" lon="3.6838">
        <ele>232.3</ele>
        <time>2014-07-08T09:19:22Z</time>
      </trkpt>
      <trkpt lat="46.52018" lon="3.6835">
        <ele>232.78</ele>
        <time>2014-07-08T09:19:31Z</time>
      </trkpt>
      <trkpt lat="46.52023" lon="3.68347">
        <ele>233.74</ele>
        <time>2014-07-08T09:19:35Z</time>
      </trkpt>
      <trkpt lat="46.52025" lon="3.68344">
        <ele>233.74</ele>
        <time>2014-07-08T09:19:49Z</time>
      </trkpt>
      <trkpt lat="46.52023" lon="3.68339">
        <ele>233.74</ele>
        <time>2014-07-08T09:20:22Z</time>
      </trkpt>
      <trkpt lat="46.52023" lon="3.6834">
        <ele>233.74</ele>
        <time>2014-07-08T09:20:58Z</time>
      </trkpt>
      <trkpt lat="46.52024" lon="3.6835">
        <ele>233.74</ele>
        <time>2014-07-08T09:21:25Z</time>
      </trkpt>
      <trkpt lat="46.52023" lon="3.6835">
        <ele>233.74</ele>
        <time>2014-07-08T09:21:56Z</time>
      </trkpt>
      <trkpt lat="46.52023" lon="3.68346">
        <ele>233.74</ele>
        <time>2014-07-08T09:22:22Z</time>
      </trkpt>
      <trkpt lat="46.52022" lon="3.68345">
        <ele>233.74</ele>
        <time>2014-07-08T09:22:50Z</time>
      </trkpt>
      <trkpt lat="46.52025" lon="3.68345">
        <ele>233.74</ele>
        <time>2014-07-08T09:23:17Z</time>
      </trkpt>
      <trkpt lat="46.52025" lon="3.68341">
        <ele>233.74</ele>
        <time>2014-07-08T09:23:35Z</time>
      </trkpt>
      <trkpt lat="46.52029" lon="3.68336">
        <ele>234.22</ele>
        <time>2014-07-08T09:23:39Z</time>
      </trkpt>
      <trkpt lat="46.52044" lon="3.68313">
        <ele>235.18</ele>
        <time>2014-07-08T09:23:51Z</time>
      </trkpt>
      <trkpt lat="46.52046" lon="3.68304">
        <ele>235.18</ele>
        <time>2014-07-08T09:24:04Z</time>
      </trkpt>
      <trkpt lat="46.52066" lon="3.68278">
        <ele>236.62</ele>
        <time>2014-07-08T09:24:18Z</time>
      </trkpt>
      <trkpt lat="46.52083" lon="3.68252">
        <ele>237.58</ele>
        <time>2014-07-08T09:24:32Z</time>
      </trkpt>
      <trkpt lat="46.52113" lon="3.68213">
        <ele>239.99</ele>
        <time>2014-07-08T09:24:51Z</time>
      </trkpt>
      <trkpt lat="46.52138" lon="3.68191">
        <ele>241.91</ele>
        <time>2014-07-08T09:25:05Z</time>
      </trkpt>
      <trkpt lat="46.52143" lon="3.6819">
        <ele>241.91</ele>
        <time>2014-07-08T09:25:20Z</time>
      </trkpt>
      <trkpt lat="46.52143" lon="3.68188">
        <ele>242.39</ele>
        <time>2014-07-08T09:25:32Z</time>
      </trkpt>
      <trkpt lat="46.52137" lon="3.68186">
        <ele>241.91</ele>
        <time>2014-07-08T09:25:36Z</time>
      </trkpt>
      <trkpt lat="46.52125" lon="3.68193">
        <ele>241.43</ele>
        <time>2014-07-08T09:25:41Z</time>
      </trkpt>
      <trkpt lat="46.52119" lon="3.68191">
        <ele>241.43</ele>
        <time>2014-07-08T09:25:44Z</time>
      </trkpt>
      <trkpt lat="46.52112" lon="3.68197">
        <ele>240.95</ele>
        <time>2014-07-08T09:25:55Z</time>
      </trkpt>
      <trkpt lat="46.52112" lon="3.68198">
        <ele>241.43</ele>
        <time>2014-07-08T09:26:11Z</time>
      </trkpt>
      <trkpt lat="46.52112" lon="3.68198">
        <ele>240.95</ele>
        <time>2014-07-08T09:26:38Z</time>
      </trkpt>
      <trkpt lat="46.52113" lon="3.68198">
        <ele>240.47</ele>
        <time>2014-07-08T09:27:08Z</time>
      </trkpt>
      <trkpt lat="46.52115" lon="3.682">
        <ele>240.95</ele>
        <time>2014-07-08T09:27:40Z</time>
      </trkpt>
      <trkpt lat="46.52116" lon="3.68205">
        <ele>240.95</ele>
        <time>2014-07-08T09:28:08Z</time>
      </trkpt>
      <trkpt lat="46.52118" lon="3.682">
        <ele>240.95</ele>
        <time>2014-07-08T09:28:40Z</time>
      </trkpt>
      <trkpt lat="46.52119" lon="3.68198">
        <ele>240.95</ele>
        <time>2014-07-08T09:29:13Z</time>
      </trkpt>
      <trkpt lat="46.52118" lon="3.68202">
        <ele>241.43</ele>
        <time>2014-07-08T09:29:46Z</time>
      </trkpt>
      <trkpt lat="46.5212" lon="3.68201">
        <ele>241.91</ele>
        <time>2014-07-08T09:30:21Z</time>
      </trkpt>
      <trkpt lat="46.52119" lon="3.682">
        <ele>242.39</ele>
        <time>2014-07-08T09:30:55Z</time>
      </trkpt>
      <trkpt lat="46.5212" lon="3.68198">
        <ele>241.91</ele>
        <time>2014-07-08T09:31:27Z</time>
      </trkpt>
      <trkpt lat="46.52118" lon="3.68201">
        <ele>241.91</ele>
        <time>2014-07-08T09:31:58Z</time>
      </trkpt>
      <trkpt lat="46.52115" lon="3.68203">
        <ele>242.39</ele>
        <time>2014-07-08T09:32:42Z</time>
      </trkpt>
      <trkpt lat="46.52118" lon="3.68202">
        <ele>242.39</ele>
        <time>2014-07-08T09:33:13Z</time>
      </trkpt>
      <trkpt lat="46.52119" lon="3.68201">
        <ele>242.39</ele>
        <time>2014-07-08T09:33:51Z</time>
      </trkpt>
      <trkpt lat="46.5212" lon="3.682">
        <ele>242.39</ele>
        <time>2014-07-08T09:34:25Z</time>
      </trkpt>
      <trkpt lat="46.52119" lon="3.68201">
        <ele>242.39</ele>
        <time>2014-07-08T09:35:15Z</time>
      </trkpt>
      <trkpt lat="46.52124" lon="3.682">
        <ele>242.39</ele>
        <time>2014-07-08T09:35:52Z</time>
      </trkpt>
      <trkpt lat="46.52122" lon="3.682">
        <ele>242.87</ele>
        <time>2014-07-08T09:36:27Z</time>
      </trkpt>
      <trkpt lat="46.5212" lon="3.682">
        <ele>242.39</ele>
        <time>2014-07-08T09:36:53Z</time>
      </trkpt>
      <trkpt lat="46.5212" lon="3.682">
        <ele>242.87</ele>
        <time>2014-07-08T09:37:26Z</time>
      </trkpt>
      <trkpt lat="46.5212" lon="3.682">
        <ele>242.87</ele>
        <time>2014-07-08T09:37:58Z</time>
      </trkpt>
      <trkpt lat="46.52119" lon="3.68201">
        <ele>243.35</ele>
        <time>2014-07-08T09:38:34Z</time>
      </trkpt>
      <trkpt lat="46.52119" lon="3.682">
        <ele>242.87</ele>
        <time>2014-07-08T09:39:05Z</time>
      </trkpt>
      <trkpt lat="46.52119" lon="3.68199">
        <ele>243.35</ele>
        <time>2014-07-08T09:39:37Z</time>
      </trkpt>
      <trkpt lat="46.5212" lon="3.682">
        <ele>243.35</ele>
        <time>2014-07-08T09:40:13Z</time>
      </trkpt>
      <trkpt lat="46.52121" lon="3.68198">
        <ele>243.83</ele>
        <time>2014-07-08T09:40:52Z</time>
      </trkpt>
      <trkpt lat="46.52119" lon="3.682">
        <ele>243.35</ele>
        <time>2014-07-08T09:41:30Z</time>
      </trkpt>
      <trkpt lat="46.52121" lon="3.68198">
        <ele>243.83</ele>
        <time>2014-07-08T09:42:16Z</time>
      </trkpt>
      <trkpt lat="46.52119" lon="3.68199">
        <ele>244.31</ele>
        <time>2014-07-08T09:42:56Z</time>
      </trkpt>
      <trkpt lat="46.52119" lon="3.68201">
        <ele>243.83</ele>
        <time>2014-07-08T09:43:33Z</time>
      </trkpt>
      <trkpt lat="46.52123" lon="3.68198">
        <ele>244.79</ele>
        <time>2014-07-08T09:44:01Z</time>
      </trkpt>
      <trkpt lat="46.52123" lon="3.68201">
        <ele>244.31</ele>
        <time>2014-07-08T09:44:41Z</time>
      </trkpt>
      <trkpt lat="46.52122" lon="3.68199">
        <ele>244.31</ele>
        <time>2014-07-08T09:45:16Z</time>
      </trkpt>
      <trkpt lat="46.52122" lon="3.68199">
        <ele>244.31</ele>
        <time>2014-07-08T09:45:51Z</time>
      </trkpt>
      <trkpt lat="46.52124" lon="3.68199">
        <ele>245.27</ele>
        <time>2014-07-08T09:46:27Z</time>
      </trkpt>
      <trkpt lat="46.52124" lon="3.68199">
        <ele>244.31</ele>
        <time>2014-07-08T09:47:07Z</time>
      </trkpt>
      <trkpt lat="46.52127" lon="3.68198">
        <ele>244.79</ele>
        <time>2014-07-08T09:47:38Z</time>
      </trkpt>
      <trkpt lat="46.52128" lon="3.68198">
        <ele>244.79</ele>
        <time>2014-07-08T09:48:09Z</time>
      </trkpt>
      <trkpt lat="46.52123" lon="3.68207">
        <ele>244.31</ele>
        <time>2014-07-08T09:48:29Z</time>
      </trkpt>
      <trkpt lat="46.52123" lon="3.68215">
        <ele>243.83</ele>
        <time>2014-07-08T09:48:44Z</time>
      </trkpt>
      <trkpt lat="46.5212" lon="3.68219">
        <ele>243.83</ele>
        <time>2014-07-08T09:49:07Z</time>
      </trkpt>
      <trkpt lat="46.52118" lon="3.68215">
        <ele>244.31</ele>
        <time>2014-07-08T09:49:16Z</time>
      </trkpt>
      <trkpt lat="46.52117" lon="3.68212">
        <ele>244.31</ele>
        <time>2014-07-08T09:49:19Z</time>
      </trkpt>
      <trkpt lat="46.52113" lon="3.68215">
        <ele>244.79</ele>
        <time>2014-07-08T09:49:32Z</time>
      </trkpt>
      <trkpt lat="46.5211" lon="3.68226">
        <ele>244.79</ele>
        <time>2014-07-08T09:49:57Z</time>
      </trkpt>
      <trkpt lat="46.5212" lon="3.68229">
        <ele>245.27</ele>
        <time>2014-07-08T09:50:31Z</time>
      </trkpt>
      <trkpt lat="46.52136" lon="3.68228">
        <ele>245.75</ele>
        <time>2014-07-08T09:51:00Z</time>
      </trkpt>
      <trkpt lat="46.52145" lon="3.68227">
        <ele>246.23</ele>
        <time>2014-07-08T09:51:36Z</time>
      </trkpt>
      <trkpt lat="46.52151" lon="3.68223">
        <ele>246.72</ele>
        <time>2014-07-08T09:52:00Z</time>
      </trkpt>
      <trkpt lat="46.52153" lon="3.68216">
        <ele>247.2</ele>
        <time>2014-07-08T09:52:11Z</time>
      </trkpt>
      <trkpt lat="46.52144" lon="3.68212">
        <ele>247.2</ele>
        <time>2014-07-08T09:52:27Z</time>
      </trkpt>
      <trkpt lat="46.52136" lon="3.68211">
        <ele>247.68</ele>
        <time>2014-07-08T09:52:50Z</time>
      </trkpt>
      <trkpt lat="46.52136" lon="3.68213">
        <ele>247.68</ele>
        <time>2014-07-08T09:52:51Z</time>
      </trkpt>
      <trkpt lat="46.52089" lon="3.68261">
        <ele>245.75</ele>
        <time>2014-07-08T09:53:04Z</time>
      </trkpt>
      <trkpt lat="46.52016" lon="3.68342">
        <ele>241.91</ele>
        <time>2014-07-08T09:53:17Z</time>
      </trkpt>
      <trkpt lat="46.52006" lon="3.68356">
        <ele>241.43</ele>
        <time>2014-07-08T09:53:19Z</time>
      </trkpt>
      <trkpt lat="46.51952" lon="3.68438">
        <ele>239.99</ele>
        <time>2014-07-08T09:53:35Z</time>
      </trkpt>
      <trkpt lat="46.5192" lon="3.68493">
        <ele>239.99</ele>
        <time>2014-07-08T09:53:51Z</time>
      </trkpt>
      <trkpt lat="46.51892" lon="3.68515">
        <ele>239.99</ele>
        <time>2014-07-08T09:54:04Z</time>
      </trkpt>
      <trkpt lat="46.51858" lon="3.68503">
        <ele>239.99</ele>
        <time>2014-07-08T09:54:18Z</time>
      </trkpt>
      <trkpt lat="46.51839" lon="3.6851">
        <ele>239.51</ele>
        <time>2014-07-08T09:54:27Z</time>
      </trkpt>
      <trkpt lat="46.51836" lon="3.68508">
        <ele>239.51</ele>
        <time>2014-07-08T09:54:41Z</time>
      </trkpt>
      <trkpt lat="46.51836" lon="3.68506">
        <ele>239.02</ele>
        <time>2014-07-08T09:55:18Z</time>
      </trkpt>
      <trkpt lat="46.51838" lon="3.68505">
        <ele>239.02</ele>
        <time>2014-07-08T09:55:51Z</time>
      </trkpt>
      <trkpt lat="46.51839" lon="3.68506">
        <ele>238.54</ele>
        <time>2014-07-08T09:56:22Z</time>
      </trkpt>
      <trkpt lat="46.51837" lon="3.68507">
        <ele>238.54</ele>
        <time>2014-07-08T09:57:02Z</time>
      </trkpt>
      <trkpt lat="46.51837" lon="3.68506">
        <ele>238.54</ele>
        <time>2014-07-08T09:57:31Z</time>
      </trkpt>
      <trkpt lat="46.5184" lon="3.68511">
        <ele>238.06</ele>
        <time>2014-07-08T09:57:52Z</time>
      </trkpt>
      <trkpt lat="46.51864" lon="3.68509">
        <ele>238.54</ele>
        <time>2014-07-08T09:58:05Z</time>
      </trkpt>
      <trkpt lat="46.51875" lon="3.68509">
        <ele>238.54</ele>
        <time>2014-07-08T09:58:11Z</time>
      </trkpt>
      <trkpt lat="46.51882" lon="3.68515">
        <ele>238.06</ele>
        <time>2014-07-08T09:58:15Z</time>
      </trkpt>
      <trkpt lat="46.51909" lon="3.68524">
        <ele>238.54</ele>
        <time>2014-07-08T09:58:30Z</time>
      </trkpt>
      <trkpt lat="46.51927" lon="3.68489">
        <ele>238.06</ele>
        <time>2014-07-08T09:58:44Z</time>
      </trkpt>
      <trkpt lat="46.51954" lon="3.68449">
        <ele>237.58</ele>
        <time>2014-07-08T09:58:57Z</time>
      </trkpt>
      <trkpt lat="46.51957" lon="3.68447">
        <ele>237.58</ele>
        <time>2014-07-08T09:58:58Z</time>
      </trkpt>
      <trkpt lat="46.5199" lon="3.68475">
        <ele>236.62</ele>
        <time>2014-07-08T09:59:11Z</time>
      </trkpt>
      <trkpt lat="46.52047" lon="3.68527">
        <ele>236.62</ele>
        <time>2014-07-08T09:59:29Z</time>
      </trkpt>
      <trkpt lat="46.52096" lon="3.68554">
        <ele>236.62</ele>
        <time>2014-07-08T09:59:42Z</time>
      </trkpt>
      <trkpt lat="46.52148" lon="3.68615">
        <ele>236.62</ele>
        <time>2014-07-08T09:59:57Z</time>
      </trkpt>
      <trkpt lat="46.52197" lon="3.68658">
        <ele>236.62</ele>
        <time>2014-07-08T10:00:14Z</time>
      </trkpt>
      <trkpt lat="46.52237" lon="3.6867">
        <ele>236.62</ele>
        <time>2014-07-08T10:00:27Z</time>
      </trkpt>
      <trkpt lat="46.5227" lon="3.68709">
        <ele>236.62</ele>
        <time>2014-07-08T10:00:39Z</time>
      </trkpt>
      <trkpt lat="46.52323" lon="3.68773">
        <ele>236.62</ele>
        <time>2014-07-08T10:00:56Z</time>
      </trkpt>
      <trkpt lat="46.52333" lon="3.68785">
        <ele>236.62</ele>
        <time>2014-07-08T10:00:59Z</time>
      </trkpt>
      <trkpt lat="46.52391" lon="3.68855">
        <ele>236.14</ele>
        <time>2014-07-08T10:01:16Z</time>
      </trkpt>
      <trkpt lat="46.52448" lon="3.6893">
        <ele>237.58</ele>
        <time>2014-07-08T10:01:35Z</time>
      </trkpt>
      <trkpt lat="46.52453" lon="3.6895">
        <ele>237.58</ele>
        <time>2014-07-08T10:01:39Z</time>
      </trkpt>
      <trkpt lat="46.52487" lon="3.69066">
        <ele>237.1</ele>
        <time>2014-07-08T10:02:00Z</time>
      </trkpt>
      <trkpt lat="46.52524" lon="3.69165">
        <ele>237.1</ele>
        <time>2014-07-08T10:02:19Z</time>
      </trkpt>
      <trkpt lat="46.52559" lon="3.69246">
        <ele>237.1</ele>
        <time>2014-07-08T10:02:35Z</time>
      </trkpt>
      <trkpt lat="46.52596" lon="3.69299">
        <ele>236.62</ele>
        <time>2014-07-08T10:02:47Z</time>
      </trkpt>
      <trkpt lat="46.52658" lon="3.69356">
        <ele>236.14</ele>
        <time>2014-07-08T10:03:04Z</time>
      </trkpt>
      <trkpt lat="46.52727" lon="3.69395">
        <ele>236.14</ele>
        <time>2014-07-08T10:03:22Z</time>
      </trkpt>
      <trkpt lat="46.52786" lon="3.69428">
        <ele>236.62</ele>
        <time>2014-07-08T10:03:39Z</time>
      </trkpt>
      <trkpt lat="46.52817" lon="3.69446">
        <ele>236.62</ele>
        <time>2014-07-08T10:03:47Z</time>
      </trkpt>
      <trkpt lat="46.52885" lon="3.69483">
        <ele>236.62</ele>
        <time>2014-07-08T10:04:04Z</time>
      </trkpt>
      <trkpt lat="46.52947" lon="3.69518">
        <ele>236.14</ele>
        <time>2014-07-08T10:04:20Z</time>
      </trkpt>
      <trkpt lat="46.53002" lon="3.69544">
        <ele>237.1</ele>
        <time>2014-07-08T10:04:36Z</time>
      </trkpt>
      <trkpt lat="46.53007" lon="3.69544">
        <ele>237.58</ele>
        <time>2014-07-08T10:04:45Z</time>
      </trkpt>
      <trkpt lat="46.53008" lon="3.69545">
        <ele>237.58</ele>
        <time>2014-07-08T10:05:20Z</time>
      </trkpt>
      <trkpt lat="46.53008" lon="3.69541">
        <ele>237.1</ele>
        <time>2014-07-08T10:05:59Z</time>
      </trkpt>
      <trkpt lat="46.53009" lon="3.69541">
        <ele>236.62</ele>
        <time>2014-07-08T10:06:36Z</time>
      </trkpt>
      <trkpt lat="46.53009" lon="3.69543">
        <ele>236.62</ele>
        <time>2014-07-08T10:07:22Z</time>
      </trkpt>
      <trkpt lat="46.53007" lon="3.69542">
        <ele>236.62</ele>
        <time>2014-07-08T10:08:02Z</time>
      </trkpt>
      <trkpt lat="46.53006" lon="3.69543">
        <ele>236.62</ele>
        <time>2014-07-08T10:08:24Z</time>
      </trkpt>
      <trkpt lat="46.53006" lon="3.69546">
        <ele>236.14</ele>
        <time>2014-07-08T10:09:08Z</time>
      </trkpt>
      <trkpt lat="46.53006" lon="3.69544">
        <ele>237.1</ele>
        <time>2014-07-08T10:09:40Z</time>
      </trkpt>
      <trkpt lat="46.53007" lon="3.69543">
        <ele>235.18</ele>
        <time>2014-07-08T10:10:33Z</time>
      </trkpt>
      <trkpt lat="46.53007" lon="3.69542">
        <ele>235.18</ele>
        <time>2014-07-08T10:11:16Z</time>
      </trkpt>
      <trkpt lat="46.53007" lon="3.69543">
        <ele>234.7</ele>
        <time>2014-07-08T10:11:47Z</time>
      </trkpt>
      <trkpt lat="46.53007" lon="3.69546">
        <ele>235.18</ele>
        <time>2014-07-08T10:12:06Z</time>
      </trkpt>
      <trkpt lat="46.53009" lon="3.69546">
        <ele>234.7</ele>
        <time>2014-07-08T10:12:17Z</time>
      </trkpt>
      <trkpt lat="46.53009" lon="3.69544">
        <ele>234.7</ele>
        <time>2014-07-08T10:12:46Z</time>
      </trkpt>
      <trkpt lat="46.53008" lon="3.69541">
        <ele>234.22</ele>
        <time>2014-07-08T10:13:22Z</time>
      </trkpt>
      <trkpt lat="46.5301" lon="3.69549">
        <ele>234.22</ele>
        <time>2014-07-08T10:13:50Z</time>
      </trkpt>
      <trkpt lat="46.5301" lon="3.69547">
        <ele>234.7</ele>
        <time>2014-07-08T10:14:28Z</time>
      </trkpt>
      <trkpt lat="46.53011" lon="3.69549">
        <ele>234.7</ele>
        <time>2014-07-08T10:15:03Z</time>
      </trkpt>
      <trkpt lat="46.5301" lon="3.69546">
        <ele>234.22</ele>
        <time>2014-07-08T10:15:33Z</time>
      </trkpt>
      <trkpt lat="46.53011" lon="3.69548">
        <ele>234.22</ele>
        <time>2014-07-08T10:16:11Z</time>
      </trkpt>
      <trkpt lat="46.53011" lon="3.69549">
        <ele>233.26</ele>
        <time>2014-07-08T10:16:43Z</time>
      </trkpt>
      <trkpt lat="46.5301" lon="3.69551">
        <ele>233.74</ele>
        <time>2014-07-08T10:17:06Z</time>
      </trkpt>
      <trkpt lat="46.53011" lon="3.69548">
        <ele>232.78</ele>
        <time>2014-07-08T10:17:10Z</time>
      </trkpt>
      <trkpt lat="46.53011" lon="3.69549">
        <ele>233.74</ele>
        <time>2014-07-08T10:17:18Z</time>
      </trkpt>
      <trkpt lat="46.5301" lon="3.69549">
        <ele>233.74</ele>
        <time>2014-07-08T10:17:37Z</time>
      </trkpt>
      <trkpt lat="46.53014" lon="3.69553">
        <ele>233.74</ele>
        <time>2014-07-08T10:17:41Z</time>
      </trkpt>
      <trkpt lat="46.53014" lon="3.69559">
        <ele>233.74</ele>
        <time>2014-07-08T10:17:53Z</time>
      </trkpt>
      <trkpt lat="46.53016" lon="3.69559">
        <ele>233.74</ele>
        <time>2014-07-08T10:17:57Z</time>
      </trkpt>
      <trkpt lat="46.53027" lon="3.69562">
        <ele>233.74</ele>
        <time>2014-07-08T10:18:03Z</time>
      </trkpt>
      <trkpt lat="46.53087" lon="3.6959">
        <ele>232.78</ele>
        <time>2014-07-08T10:18:21Z</time>
      </trkpt>
      <trkpt lat="46.5314" lon="3.69617">
        <ele>233.26</ele>
        <time>2014-07-08T10:18:35Z</time>
      </trkpt>
      <trkpt lat="46.53166" lon="3.69633">
        <ele>233.26</ele>
        <time>2014-07-08T10:18:46Z</time>
      </trkpt>
      <trkpt lat="46.53167" lon="3.69634">
        <ele>233.26</ele>
        <time>2014-07-08T10:18:53Z</time>
      </trkpt>
      <trkpt lat="46.53164" lon="3.69643">
        <ele>233.26</ele>
        <time>2014-07-08T10:18:57Z</time>
      </trkpt>
      <trkpt lat="46.53155" lon="3.6967">
        <ele>231.81</ele>
        <time>2014-07-08T10:19:02Z</time>
      </trkpt>
      <trkpt lat="46.53143" lon="3.69722">
        <ele>231.81</ele>
        <time>2014-07-08T10:19:16Z</time>
      </trkpt>
      <trkpt lat="46.53144" lon="3.69721">
        <ele>231.81</ele>
        <time>2014-07-08T10:19:18Z</time>
      </trkpt>
      <trkpt lat="46.53149" lon="3.69699">
        <ele>232.3</ele>
        <time>2014-07-08T10:19:25Z</time>
      </trkpt>
      <trkpt lat="46.53162" lon="3.69627">
        <ele>233.26</ele>
        <time>2014-07-08T10:19:43Z</time>
      </trkpt>
      <trkpt lat="46.53188" lon="3.6964">
        <ele>233.26</ele>
        <time>2014-07-08T10:19:56Z</time>
      </trkpt>
      <trkpt lat="46.53207" lon="3.69672">
        <ele>232.3</ele>
        <time>2014-07-08T10:20:06Z</time>
      </trkpt>
      <trkpt lat="46.53214" lon="3.69694">
        <ele>231.81</ele>
        <time>2014-07-08T10:20:11Z</time>
      </trkpt>
      <trkpt lat="46.53208" lon="3.6968">
        <ele>231.81</ele>
        <time>2014-07-08T10:20:20Z</time>
      </trkpt>
      <trkpt lat="46.53181" lon="3.69634">
        <ele>233.26</ele>
        <time>2014-07-08T10:20:33Z</time>
      </trkpt>
      <trkpt lat="46.53174" lon="3.69629">
        <ele>232.78</ele>
        <time>2014-07-08T10:20:35Z</time>
      </trkpt>
      <trkpt lat="46.53096" lon="3.69592">
        <ele>232.3</ele>
        <time>2014-07-08T10:20:53Z</time>
      </trkpt>
      <trkpt lat="46.53084" lon="3.69588">
        <ele>232.3</ele>
        <time>2014-07-08T10:20:56Z</time>
      </trkpt>
      <trkpt lat="46.53067" lon="3.69579">
        <ele>232.3</ele>
        <time>2014-07-08T10:21:00Z</time>
      </trkpt>
      <trkpt lat="46.53001" lon="3.69541">
        <ele>232.78</ele>
        <time>2014-07-08T10:21:18Z</time>
      </trkpt>
      <trkpt lat="46.52995" lon="3.69534">
        <ele>232.78</ele>
        <time>2014-07-08T10:21:20Z</time>
      </trkpt>
      <trkpt lat="46.52921" lon="3.69496">
        <ele>232.3</ele>
        <time>2014-07-08T10:21:37Z</time>
      </trkpt>
      <trkpt lat="46.52878" lon="3.69473">
        <ele>232.3</ele>
        <time>2014-07-08T10:21:47Z</time>
      </trkpt>
      <trkpt lat="46.5287" lon="3.6947">
        <ele>232.3</ele>
        <time>2014-07-08T10:21:49Z</time>
      </trkpt>
      <trkpt lat="46.52801" lon="3.69429">
        <ele>232.3</ele>
        <time>2014-07-08T10:22:05Z</time>
      </trkpt>
      <trkpt lat="46.52724" lon="3.69387">
        <ele>231.81</ele>
        <time>2014-07-08T10:22:22Z</time>
      </trkpt>
      <trkpt lat="46.52683" lon="3.69363">
        <ele>231.81</ele>
        <time>2014-07-08T10:22:32Z</time>
      </trkpt>
      <trkpt lat="46.52685" lon="3.6937">
        <ele>231.81</ele>
        <time>2014-07-08T10:22:36Z</time>
      </trkpt>
      <trkpt lat="46.52691" lon="3.69374">
        <ele>231.81</ele>
        <time>2014-07-08T10:22:38Z</time>
      </trkpt>
      <trkpt lat="46.52693" lon="3.69396">
        <ele>232.3</ele>
        <time>2014-07-08T10:22:43Z</time>
      </trkpt>
      <trkpt lat="46.5268" lon="3.6944">
        <ele>232.78</ele>
        <time>2014-07-08T10:22:51Z</time>
      </trkpt>
      <trkpt lat="46.52687" lon="3.69451">
        <ele>232.3</ele>
        <time>2014-07-08T10:22:57Z</time>
      </trkpt>
      <trkpt lat="46.5271" lon="3.69467">
        <ele>232.3</ele>
        <time>2014-07-08T10:23:10Z</time>
      </trkpt>
      <trkpt lat="46.52728" lon="3.69477">
        <ele>232.3</ele>
        <time>2014-07-08T10:23:20Z</time>
      </trkpt>
      <trkpt lat="46.52728" lon="3.69476">
        <ele>232.3</ele>
        <time>2014-07-08T10:23:29Z</time>
      </trkpt>
      <trkpt lat="46.52738" lon="3.69484">
        <ele>232.3</ele>
        <time>2014-07-08T10:23:35Z</time>
      </trkpt>
      <trkpt lat="46.52793" lon="3.69517">
        <ele>232.78</ele>
        <time>2014-07-08T10:23:54Z</time>
      </trkpt>
      <trkpt lat="46.52846" lon="3.69554">
        <ele>232.3</ele>
        <time>2014-07-08T10:24:09Z</time>
      </trkpt>
      <trkpt lat="46.5292" lon="3.69602">
        <ele>231.81</ele>
        <time>2014-07-08T10:24:27Z</time>
      </trkpt>
      <trkpt lat="46.53008" lon="3.6966">
        <ele>231.33</ele>
        <time>2014-07-08T10:24:46Z</time>
      </trkpt>
      <trkpt lat="46.53084" lon="3.69709">
        <ele>231.81</ele>
        <time>2014-07-08T10:25:03Z</time>
      </trkpt>
      <trkpt lat="46.53135" lon="3.69752">
        <ele>230.37</ele>
        <time>2014-07-08T10:25:15Z</time>
      </trkpt>
      <trkpt lat="46.53152" lon="3.69778">
        <ele>229.41</ele>
        <time>2014-07-08T10:25:19Z</time>
      </trkpt>
      <trkpt lat="46.53212" lon="3.69903">
        <ele>228.45</ele>
        <time>2014-07-08T10:25:36Z</time>
      </trkpt>
      <trkpt lat="46.53265" lon="3.70014">
        <ele>228.93</ele>
        <time>2014-07-08T10:25:52Z</time>
      </trkpt>
      <trkpt lat="46.53328" lon="3.70146">
        <ele>227.97</ele>
        <time>2014-07-08T10:26:11Z</time>
      </trkpt>
      <trkpt lat="46.53378" lon="3.70255">
        <ele>228.93</ele>
        <time>2014-07-08T10:26:28Z</time>
      </trkpt>
      <trkpt lat="46.53384" lon="3.70265">
        <ele>228.93</ele>
        <time>2014-07-08T10:26:30Z</time>
      </trkpt>
      <trkpt lat="46.53404" lon="3.70306">
        <ele>228.93</ele>
        <time>2014-07-08T10:26:38Z</time>
      </trkpt>
      <trkpt lat="46.53412" lon="3.70312">
        <ele>228.93</ele>
        <time>2014-07-08T10:26:40Z</time>
      </trkpt>
      <trkpt lat="46.53449" lon="3.70325">
        <ele>229.89</ele>
        <time>2014-07-08T10:26:49Z</time>
      </trkpt>
      <trkpt lat="46.53524" lon="3.70395">
        <ele>229.41</ele>
        <time>2014-07-08T10:27:09Z</time>
      </trkpt>
      <trkpt lat="46.53606" lon="3.70469">
        <ele>229.41</ele>
        <time>2014-07-08T10:27:29Z</time>
      </trkpt>
      <trkpt lat="46.5367" lon="3.70526">
        <ele>229.41</ele>
        <time>2014-07-08T10:27:45Z</time>
      </trkpt>
      <trkpt lat="46.53685" lon="3.7054">
        <ele>228.93</ele>
        <time>2014-07-08T10:27:49Z</time>
      </trkpt>
      <trkpt lat="46.53709" lon="3.70562">
        <ele>229.41</ele>
        <time>2014-07-08T10:27:55Z</time>
      </trkpt>
      <trkpt lat="46.53782" lon="3.70627">
        <ele>229.41</ele>
        <time>2014-07-08T10:28:13Z</time>
      </trkpt>
      <trkpt lat="46.53803" lon="3.70644">
        <ele>229.41</ele>
        <time>2014-07-08T10:28:19Z</time>
      </trkpt>
      <trkpt lat="46.53813" lon="3.70633">
        <ele>229.41</ele>
        <time>2014-07-08T10:28:23Z</time>
      </trkpt>
      <trkpt lat="46.53826" lon="3.70622">
        <ele>229.41</ele>
        <time>2014-07-08T10:28:33Z</time>
      </trkpt>
      <trkpt lat="46.53823" lon="3.70631">
        <ele>229.89</ele>
        <time>2014-07-08T10:28:36Z</time>
      </trkpt>
      <trkpt lat="46.53803" lon="3.70677">
        <ele>232.78</ele>
        <time>2014-07-08T10:28:52Z</time>
      </trkpt>
      <trkpt lat="46.5379" lon="3.70707">
        <ele>230.85</ele>
        <time>2014-07-08T10:28:59Z</time>
      </trkpt>
      <trkpt lat="46.53801" lon="3.70746">
        <ele>230.85</ele>
        <time>2014-07-08T10:29:07Z</time>
      </trkpt>
      <trkpt lat="46.5383" lon="3.70762">
        <ele>232.78</ele>
        <time>2014-07-08T10:29:21Z</time>
      </trkpt>
      <trkpt lat="46.53834" lon="3.70767">
        <ele>232.78</ele>
        <time>2014-07-08T10:29:23Z</time>
      </trkpt>
      <trkpt lat="46.53833" lon="3.70779">
        <ele>231.81</ele>
        <time>2014-07-08T10:29:34Z</time>
      </trkpt>
      <trkpt lat="46.53833" lon="3.7078">
        <ele>231.81</ele>
        <time>2014-07-08T10:30:08Z</time>
      </trkpt>
      <trkpt lat="46.53831" lon="3.70776">
        <ele>231.33</ele>
        <time>2014-07-08T10:30:27Z</time>
      </trkpt>
      <trkpt lat="46.5383" lon="3.70766">
        <ele>231.33</ele>
        <time>2014-07-08T10:30:45Z</time>
      </trkpt>
      <trkpt lat="46.5383" lon="3.70766">
        <ele>231.33</ele>
        <time>2014-07-08T10:31:12Z</time>
      </trkpt>
      <trkpt lat="46.5383" lon="3.70765">
        <ele>231.33</ele>
        <time>2014-07-08T10:31:45Z</time>
      </trkpt>
      <trkpt lat="46.5383" lon="3.70766">
        <ele>230.85</ele>
        <time>2014-07-08T10:32:09Z</time>
      </trkpt>
      <trkpt lat="46.53828" lon="3.70765">
        <ele>230.85</ele>
        <time>2014-07-08T10:32:34Z</time>
      </trkpt>
      <trkpt lat="46.5383" lon="3.70766">
        <ele>230.37</ele>
        <time>2014-07-08T10:33:00Z</time>
      </trkpt>
      <trkpt lat="46.53832" lon="3.70777">
        <ele>230.37</ele>
        <time>2014-07-08T10:33:17Z</time>
      </trkpt>
      <trkpt lat="46.53823" lon="3.7082">
        <ele>228.45</ele>
        <time>2014-07-08T10:33:28Z</time>
      </trkpt>
      <trkpt lat="46.53826" lon="3.70853">
        <ele>228.45</ele>
        <time>2014-07-08T10:33:38Z</time>
      </trkpt>
      <trkpt lat="46.53828" lon="3.70847">
        <ele>227.97</ele>
        <time>2014-07-08T10:34:03Z</time>
      </trkpt>
      <trkpt lat="46.5383" lon="3.70848">
        <ele>227.49</ele>
        <time>2014-07-08T10:34:34Z</time>
      </trkpt>
      <trkpt lat="46.5383" lon="3.70848">
        <ele>227.49</ele>
        <time>2014-07-08T10:35:05Z</time>
      </trkpt>
      <trkpt lat="46.53831" lon="3.70849">
        <ele>227.49</ele>
        <time>2014-07-08T10:35:10Z</time>
      </trkpt>
      <trkpt lat="46.53856" lon="3.70872">
        <ele>227.01</ele>
        <time>2014-07-08T10:35:23Z</time>
      </trkpt>
      <trkpt lat="46.53857" lon="3.70873">
        <ele>227.01</ele>
        <time>2014-07-08T10:35:24Z</time>
      </trkpt>
      <trkpt lat="46.53863" lon="3.70868">
        <ele>227.01</ele>
        <time>2014-07-08T10:35:28Z</time>
      </trkpt>
      <trkpt lat="46.53885" lon="3.70789">
        <ele>227.01</ele>
        <time>2014-07-08T10:35:45Z</time>
      </trkpt>
      <trkpt lat="46.53908" lon="3.70714">
        <ele>224.61</ele>
        <time>2014-07-08T10:36:00Z</time>
      </trkpt>
      <trkpt lat="46.53957" lon="3.70633">
        <ele>224.61</ele>
        <time>2014-07-08T10:36:18Z</time>
      </trkpt>
      <trkpt lat="46.53972" lon="3.70618">
        <ele>224.61</ele>
        <time>2014-07-08T10:36:22Z</time>
      </trkpt>
      <trkpt lat="46.54058" lon="3.70566">
        <ele>224.61</ele>
        <time>2014-07-08T10:36:42Z</time>
      </trkpt>
      <trkpt lat="46.54116" lon="3.70538">
        <ele>224.12</ele>
        <time>2014-07-08T10:36:57Z</time>
      </trkpt>
      <trkpt lat="46.54117" lon="3.70535">
        <ele>224.61</ele>
        <time>2014-07-08T10:37:15Z</time>
      </trkpt>
      <trkpt lat="46.54122" lon="3.70524">
        <ele>224.61</ele>
        <time>2014-07-08T10:37:47Z</time>
      </trkpt>
      <trkpt lat="46.54116" lon="3.70529">
        <ele>225.09</ele>
        <time>2014-07-08T10:38:17Z</time>
      </trkpt>
      <trkpt lat="46.54123" lon="3.70528">
        <ele>225.57</ele>
        <time>2014-07-08T10:38:50Z</time>
      </trkpt>
      <trkpt lat="46.54127" lon="3.70535">
        <ele>225.57</ele>
        <time>2014-07-08T10:39:21Z</time>
      </trkpt>
      <trkpt lat="46.54124" lon="3.70524">
        <ele>226.05</ele>
        <time>2014-07-08T10:39:54Z</time>
      </trkpt>
      <trkpt lat="46.54149" lon="3.70516">
        <ele>226.05</ele>
        <time>2014-07-08T10:40:08Z</time>
      </trkpt>
      <trkpt lat="46.54189" lon="3.70494">
        <ele>226.05</ele>
        <time>2014-07-08T10:40:21Z</time>
      </trkpt>
      <trkpt lat="46.54228" lon="3.70474">
        <ele>227.01</ele>
        <time>2014-07-08T10:40:33Z</time>
      </trkpt>
      <trkpt lat="46.54285" lon="3.70452">
        <ele>227.49</ele>
        <time>2014-07-08T10:40:49Z</time>
      </trkpt>
      <trkpt lat="46.54303" lon="3.70444">
        <ele>227.49</ele>
        <time>2014-07-08T10:40:54Z</time>
      </trkpt>
      <trkpt lat="46.54367" lon="3.70432">
        <ele>228.93</ele>
        <time>2014-07-08T10:41:11Z</time>
      </trkpt>
      <trkpt lat="46.5444" lon="3.70433">
        <ele>228.45</ele>
        <time>2014-07-08T10:41:29Z</time>
      </trkpt>
      <trkpt lat="46.54503" lon="3.70433">
        <ele>228.93</ele>
        <time>2014-07-08T10:41:45Z</time>
      </trkpt>
      <trkpt lat="46.54563" lon="3.70434">
        <ele>228.45</ele>
        <time>2014-07-08T10:42:00Z</time>
      </trkpt>
      <trkpt lat="46.54629" lon="3.70435">
        <ele>227.97</ele>
        <time>2014-07-08T10:42:15Z</time>
      </trkpt>
      <trkpt lat="46.54664" lon="3.70435">
        <ele>227.49</ele>
        <time>2014-07-08T10:42:23Z</time>
      </trkpt>
      <trkpt lat="46.5469" lon="3.70439">
        <ele>227.97</ele>
        <time>2014-07-08T10:42:29Z</time>
      </trkpt>
      <trkpt lat="46.54699" lon="3.70445">
        <ele>227.49</ele>
        <time>2014-07-08T10:42:31Z</time>
      </trkpt>
      <trkpt lat="46.54734" lon="3.70486">
        <ele>227.97</ele>
        <time>2014-07-08T10:42:41Z</time>
      </trkpt>
      <trkpt lat="46.54779" lon="3.7054">
        <ele>227.49</ele>
        <time>2014-07-08T10:42:54Z</time>
      </trkpt>
      <trkpt lat="46.54848" lon="3.70624">
        <ele>227.49</ele>
        <time>2014-07-08T10:43:14Z</time>
      </trkpt>
      <trkpt lat="46.54913" lon="3.70702">
        <ele>227.97</ele>
        <time>2014-07-08T10:43:34Z</time>
      </trkpt>
      <trkpt lat="46.54984" lon="3.70785">
        <ele>227.49</ele>
        <time>2014-07-08T10:43:54Z</time>
      </trkpt>
      <trkpt lat="46.54995" lon="3.70797">
        <ele>227.01</ele>
        <time>2014-07-08T10:43:57Z</time>
      </trkpt>
      <trkpt lat="46.55062" lon="3.7088">
        <ele>226.05</ele>
        <time>2014-07-08T10:44:15Z</time>
      </trkpt>
      <trkpt lat="46.55099" lon="3.70968">
        <ele>225.09</ele>
        <time>2014-07-08T10:44:28Z</time>
      </trkpt>
      <trkpt lat="46.55129" lon="3.71001">
        <ele>225.09</ele>
        <time>2014-07-08T10:44:35Z</time>
      </trkpt>
      <trkpt lat="46.552" lon="3.71059">
        <ele>224.61</ele>
        <time>2014-07-08T10:44:52Z</time>
      </trkpt>
      <trkpt lat="46.55274" lon="3.71128">
        <ele>223.64</ele>
        <time>2014-07-08T10:45:10Z</time>
      </trkpt>
      <trkpt lat="46.55352" lon="3.7115">
        <ele>224.12</ele>
        <time>2014-07-08T10:45:27Z</time>
      </trkpt>
      <trkpt lat="46.5543" lon="3.7116">
        <ele>223.64</ele>
        <time>2014-07-08T10:45:46Z</time>
      </trkpt>
      <trkpt lat="46.55521" lon="3.71172">
        <ele>223.64</ele>
        <time>2014-07-08T10:46:09Z</time>
      </trkpt>
      <trkpt lat="46.55591" lon="3.7118">
        <ele>223.64</ele>
        <time>2014-07-08T10:46:26Z</time>
      </trkpt>
      <trkpt lat="46.55671" lon="3.71189">
        <ele>223.64</ele>
        <time>2014-07-08T10:46:45Z</time>
      </trkpt>
      <trkpt lat="46.55742" lon="3.71197">
        <ele>224.12</ele>
        <time>2014-07-08T10:47:02Z</time>
      </trkpt>
      <trkpt lat="46.55819" lon="3.71206">
        <ele>224.12</ele>
        <time>2014-07-08T10:47:20Z</time>
      </trkpt>
      <trkpt lat="46.55849" lon="3.71209">
        <ele>224.12</ele>
        <time>2014-07-08T10:47:27Z</time>
      </trkpt>
      <trkpt lat="46.55943" lon="3.71219">
        <ele>223.64</ele>
        <time>2014-07-08T10:47:48Z</time>
      </trkpt>
      <trkpt lat="46.56028" lon="3.7123">
        <ele>223.16</ele>
        <time>2014-07-08T10:48:07Z</time>
      </trkpt>
      <trkpt lat="46.56111" lon="3.71238">
        <ele>223.16</ele>
        <time>2014-07-08T10:48:26Z</time>
      </trkpt>
      <trkpt lat="46.56182" lon="3.71246">
        <ele>223.16</ele>
        <time>2014-07-08T10:48:42Z</time>
      </trkpt>
      <trkpt lat="46.5626" lon="3.71254">
        <ele>223.16</ele>
        <time>2014-07-08T10:49:00Z</time>
      </trkpt>
      <trkpt lat="46.56311" lon="3.7126">
        <ele>222.68</ele>
        <time>2014-07-08T10:49:12Z</time>
      </trkpt>
      <trkpt lat="46.56325" lon="3.71258">
        <ele>222.68</ele>
        <time>2014-07-08T10:49:15Z</time>
      </trkpt>
      <trkpt lat="46.56367" lon="3.7124">
        <ele>222.68</ele>
        <time>2014-07-08T10:49:28Z</time>
      </trkpt>
      <trkpt lat="46.56423" lon="3.71225">
        <ele>222.68</ele>
        <time>2014-07-08T10:49:46Z</time>
      </trkpt>
      <trkpt lat="46.56477" lon="3.7121">
        <ele>223.64</ele>
        <time>2014-07-08T10:50:04Z</time>
      </trkpt>
      <trkpt lat="46.56515" lon="3.71197">
        <ele>223.64</ele>
        <time>2014-07-08T10:50:18Z</time>
      </trkpt>
      <trkpt lat="46.56566" lon="3.71189">
        <ele>224.12</ele>
        <time>2014-07-08T10:50:34Z</time>
      </trkpt>
      <trkpt lat="46.56634" lon="3.71191">
        <ele>223.16</ele>
        <time>2014-07-08T10:50:52Z</time>
      </trkpt>
      <trkpt lat="46.56698" lon="3.71198">
        <ele>223.16</ele>
        <time>2014-07-08T10:51:08Z</time>
      </trkpt>
      <trkpt lat="46.56753" lon="3.71215">
        <ele>223.16</ele>
        <time>2014-07-08T10:51:24Z</time>
      </trkpt>
      <trkpt lat="46.56808" lon="3.71244">
        <ele>223.16</ele>
        <time>2014-07-08T10:51:40Z</time>
      </trkpt>
      <trkpt lat="46.56811" lon="3.71247">
        <ele>223.16</ele>
        <time>2014-07-08T10:51:41Z</time>
      </trkpt>
      <trkpt lat="46.56855" lon="3.71298">
        <ele>222.68</ele>
        <time>2014-07-08T10:51:55Z</time>
      </trkpt>
      <trkpt lat="46.56897" lon="3.71316">
        <ele>221.72</ele>
        <time>2014-07-08T10:52:05Z</time>
      </trkpt>
      <trkpt lat="46.56971" lon="3.7131">
        <ele>222.2</ele>
        <time>2014-07-08T10:52:23Z</time>
      </trkpt>
      <trkpt lat="46.5705" lon="3.71318">
        <ele>221.72</ele>
        <time>2014-07-08T10:52:42Z</time>
      </trkpt>
      <trkpt lat="46.57108" lon="3.71328">
        <ele>221.72</ele>
        <time>2014-07-08T10:52:56Z</time>
      </trkpt>
      <trkpt lat="46.57155" lon="3.71339">
        <ele>221.72</ele>
        <time>2014-07-08T10:53:09Z</time>
      </trkpt>
      <trkpt lat="46.5721" lon="3.71352">
        <ele>221.72</ele>
        <time>2014-07-08T10:53:22Z</time>
      </trkpt>
      <trkpt lat="46.57271" lon="3.71384">
        <ele>222.2</ele>
        <time>2014-07-08T10:53:38Z</time>
      </trkpt>
      <trkpt lat="46.57333" lon="3.7143">
        <ele>223.16</ele>
        <time>2014-07-08T10:53:56Z</time>
      </trkpt>
      <trkpt lat="46.57376" lon="3.71442">
        <ele>223.64</ele>
        <time>2014-07-08T10:54:07Z</time>
      </trkpt>
      <trkpt lat="46.57442" lon="3.71456">
        <ele>223.16</ele>
        <time>2014-07-08T10:54:23Z</time>
      </trkpt>
      <trkpt lat="46.575" lon="3.71469">
        <ele>223.64</ele>
        <time>2014-07-08T10:54:37Z</time>
      </trkpt>
      <trkpt lat="46.57557" lon="3.71482">
        <ele>223.16</ele>
        <time>2014-07-08T10:54:49Z</time>
      </trkpt>
      <trkpt lat="46.57571" lon="3.71488">
        <ele>223.16</ele>
        <time>2014-07-08T10:54:52Z</time>
      </trkpt>
      <trkpt lat="46.57645" lon="3.71541">
        <ele>223.16</ele>
        <time>2014-07-08T10:55:10Z</time>
      </trkpt>
      <trkpt lat="46.57686" lon="3.71571">
        <ele>223.16</ele>
        <time>2014-07-08T10:55:24Z</time>
      </trkpt>
      <trkpt lat="46.57714" lon="3.71592">
        <ele>223.16</ele>
        <time>2014-07-08T10:55:36Z</time>
      </trkpt>
      <trkpt lat="46.57742" lon="3.71634">
        <ele>223.16</ele>
        <time>2014-07-08T10:55:51Z</time>
      </trkpt>
      <trkpt lat="46.57751" lon="3.71667">
        <ele>222.68</ele>
        <time>2014-07-08T10:56:04Z</time>
      </trkpt>
      <trkpt lat="46.5775" lon="3.71674">
        <ele>222.68</ele>
        <time>2014-07-08T10:56:15Z</time>
      </trkpt>
      <trkpt lat="46.57749" lon="3.71677">
        <ele>222.68</ele>
        <time>2014-07-08T10:56:24Z</time>
      </trkpt>
      <trkpt lat="46.57758" lon="3.7167">
        <ele>223.64</ele>
        <time>2014-07-08T10:56:34Z</time>
      </trkpt>
      <trkpt lat="46.5776" lon="3.7167">
        <ele>223.16</ele>
        <time>2014-07-08T10:56:53Z</time>
      </trkpt>
      <trkpt lat="46.5776" lon="3.71672">
        <ele>223.16</ele>
        <time>2014-07-08T10:57:33Z</time>
      </trkpt>
      <trkpt lat="46.5776" lon="3.71671">
        <ele>223.16</ele>
        <time>2014-07-08T10:58:05Z</time>
      </trkpt>
      <trkpt lat="46.57759" lon="3.71675">
        <ele>223.16</ele>
        <time>2014-07-08T10:58:37Z</time>
      </trkpt>
      <trkpt lat="46.5776" lon="3.71673">
        <ele>223.64</ele>
        <time>2014-07-08T10:59:25Z</time>
      </trkpt>
      <trkpt lat="46.5776" lon="3.7167">
        <ele>223.16</ele>
        <time>2014-07-08T11:00:05Z</time>
      </trkpt>
      <trkpt lat="46.5776" lon="3.71671">
        <ele>223.16</ele>
        <time>2014-07-08T11:00:50Z</time>
      </trkpt>
      <trkpt lat="46.5776" lon="3.71673">
        <ele>223.16</ele>
        <time>2014-07-08T11:01:31Z</time>
      </trkpt>
      <trkpt lat="46.57757" lon="3.71667">
        <ele>223.16</ele>
        <time>2014-07-08T11:02:01Z</time>
      </trkpt>
      <trkpt lat="46.57759" lon="3.71668">
        <ele>223.16</ele>
        <time>2014-07-08T11:02:41Z</time>
      </trkpt>
      <trkpt lat="46.57761" lon="3.71669">
        <ele>223.16</ele>
        <time>2014-07-08T11:03:13Z</time>
      </trkpt>
      <trkpt lat="46.57759" lon="3.71669">
        <ele>223.16</ele>
        <time>2014-07-08T11:03:40Z</time>
      </trkpt>
      <trkpt lat="46.57759" lon="3.71669">
        <ele>223.16</ele>
        <time>2014-07-08T11:04:04Z</time>
      </trkpt>
      <trkpt lat="46.57754" lon="3.71666">
        <ele>223.16</ele>
        <time>2014-07-08T11:04:52Z</time>
      </trkpt>
      <trkpt lat="46.57755" lon="3.71666">
        <ele>223.64</ele>
        <time>2014-07-08T11:05:23Z</time>
      </trkpt>
      <trkpt lat="46.57755" lon="3.71666">
        <ele>223.64</ele>
        <time>2014-07-08T11:05:59Z</time>
      </trkpt>
      <trkpt lat="46.57755" lon="3.7167">
        <ele>223.16</ele>
        <time>2014-07-08T11:06:42Z</time>
      </trkpt>
      <trkpt lat="46.57757" lon="3.71669">
        <ele>223.64</ele>
        <time>2014-07-08T11:07:15Z</time>
      </trkpt>
      <trkpt lat="46.57757" lon="3.71667">
        <ele>223.64</ele>
        <time>2014-07-08T11:07:40Z</time>
      </trkpt>
      <trkpt lat="46.57756" lon="3.71668">
        <ele>224.12</ele>
        <time>2014-07-08T11:08:17Z</time>
      </trkpt>
      <trkpt lat="46.57754" lon="3.71668">
        <ele>224.12</ele>
        <time>2014-07-08T11:08:44Z</time>
      </trkpt>
      <trkpt lat="46.57754" lon="3.71665">
        <ele>224.12</ele>
        <time>2014-07-08T11:09:25Z</time>
      </trkpt>
      <trkpt lat="46.57753" lon="3.71662">
        <ele>224.12</ele>
        <time>2014-07-08T11:09:52Z</time>
      </trkpt>
      <trkpt lat="46.57752" lon="3.71663">
        <ele>224.61</ele>
        <time>2014-07-08T11:10:28Z</time>
      </trkpt>
      <trkpt lat="46.57753" lon="3.71664">
        <ele>224.61</ele>
        <time>2014-07-08T11:11:05Z</time>
      </trkpt>
      <trkpt lat="46.57753" lon="3.71666">
        <ele>224.61</ele>
        <time>2014-07-08T11:11:34Z</time>
      </trkpt>
      <trkpt lat="46.57753" lon="3.71665">
        <ele>225.09</ele>
        <time>2014-07-08T11:12:08Z</time>
      </trkpt>
      <trkpt lat="46.57751" lon="3.71665">
        <ele>225.09</ele>
        <time>2014-07-08T11:12:35Z</time>
      </trkpt>
      <trkpt lat="46.57754" lon="3.71665">
        <ele>225.57</ele>
        <time>2014-07-08T11:13:12Z</time>
      </trkpt>
      <trkpt lat="46.57752" lon="3.71664">
        <ele>225.09</ele>
        <time>2014-07-08T11:13:43Z</time>
      </trkpt>
      <trkpt lat="46.57753" lon="3.71664">
        <ele>226.05</ele>
        <time>2014-07-08T11:14:19Z</time>
      </trkpt>
      <trkpt lat="46.57753" lon="3.71666">
        <ele>226.05</ele>
        <time>2014-07-08T11:15:01Z</time>
      </trkpt>
      <trkpt lat="46.57753" lon="3.71667">
        <ele>226.05</ele>
        <time>2014-07-08T11:15:37Z</time>
      </trkpt>
      <trkpt lat="46.57752" lon="3.71667">
        <ele>226.53</ele>
        <time>2014-07-08T11:16:03Z</time>
      </trkpt>
      <trkpt lat="46.57751" lon="3.71666">
        <ele>226.53</ele>
        <time>2014-07-08T11:16:31Z</time>
      </trkpt>
      <trkpt lat="46.57759" lon="3.71668">
        <ele>226.53</ele>
        <time>2014-07-08T11:17:00Z</time>
      </trkpt>
      <trkpt lat="46.5776" lon="3.71668">
        <ele>226.53</ele>
        <time>2014-07-08T11:17:26Z</time>
      </trkpt>
      <trkpt lat="46.5776" lon="3.71667">
        <ele>226.05</ele>
        <time>2014-07-08T11:17:55Z</time>
      </trkpt>
      <trkpt lat="46.57759" lon="3.71668">
        <ele>226.05</ele>
        <time>2014-07-08T11:18:29Z</time>
      </trkpt>
      <trkpt lat="46.57759" lon="3.71669">
        <ele>225.57</ele>
        <time>2014-07-08T11:18:54Z</time>
      </trkpt>
      <trkpt lat="46.57757" lon="3.71667">
        <ele>225.57</ele>
        <time>2014-07-08T11:19:21Z</time>
      </trkpt>
      <trkpt lat="46.57758" lon="3.71666">
        <ele>225.57</ele>
        <time>2014-07-08T11:19:56Z</time>
      </trkpt>
      <trkpt lat="46.57757" lon="3.71667">
        <ele>225.57</ele>
        <time>2014-07-08T11:20:24Z</time>
      </trkpt>
      <trkpt lat="46.57758" lon="3.71669">
        <ele>225.57</ele>
        <time>2014-07-08T11:20:57Z</time>
      </trkpt>
      <trkpt lat="46.57757" lon="3.71668">
        <ele>225.09</ele>
        <time>2014-07-08T11:21:35Z</time>
      </trkpt>
      <trkpt lat="46.57757" lon="3.71668">
        <ele>225.57</ele>
        <time>2014-07-08T11:22:14Z</time>
      </trkpt>
      <trkpt lat="46.57758" lon="3.71668">
        <ele>225.57</ele>
        <time>2014-07-08T11:22:46Z</time>
      </trkpt>
      <trkpt lat="46.57758" lon="3.71665">
        <ele>225.57</ele>
        <time>2014-07-08T11:23:26Z</time>
      </trkpt>
      <trkpt lat="46.57759" lon="3.71667">
        <ele>225.57</ele>
        <time>2014-07-08T11:23:56Z</time>
      </trkpt>
      <trkpt lat="46.57759" lon="3.71668">
        <ele>226.05</ele>
        <time>2014-07-08T11:24:36Z</time>
      </trkpt>
      <trkpt lat="46.5776" lon="3.71667">
        <ele>225.57</ele>
        <time>2014-07-08T11:25:21Z</time>
      </trkpt>
      <trkpt lat="46.57758" lon="3.71666">
        <ele>225.57</ele>
        <time>2014-07-08T11:25:54Z</time>
      </trkpt>
      <trkpt lat="46.57758" lon="3.7167">
        <ele>225.57</ele>
        <time>2014-07-08T11:26:29Z</time>
      </trkpt>
      <trkpt lat="46.57759" lon="3.71669">
        <ele>225.57</ele>
        <time>2014-07-08T11:26:58Z</time>
      </trkpt>
      <trkpt lat="46.5776" lon="3.71668">
        <ele>225.57</ele>
        <time>2014-07-08T11:27:28Z</time>
      </trkpt>
      <trkpt lat="46.57759" lon="3.71668">
        <ele>225.57</ele>
        <time>2014-07-08T11:27:52Z</time>
      </trkpt>
      <trkpt lat="46.57759" lon="3.71667">
        <ele>225.57</ele>
        <time>2014-07-08T11:28:22Z</time>
      </trkpt>
      <trkpt lat="46.57759" lon="3.71667">
        <ele>225.57</ele>
        <time>2014-07-08T11:28:50Z</time>
      </trkpt>
      <trkpt lat="46.57759" lon="3.71667">
        <ele>225.09</ele>
        <time>2014-07-08T11:29:11Z</time>
      </trkpt>
      <trkpt lat="46.57759" lon="3.71668">
        <ele>225.57</ele>
        <time>2014-07-08T11:29:31Z</time>
      </trkpt>
      <trkpt lat="46.57759" lon="3.71668">
        <ele>225.09</ele>
        <time>2014-07-08T11:29:58Z</time>
      </trkpt>
      <trkpt lat="46.5776" lon="3.71667">
        <ele>225.09</ele>
        <time>2014-07-08T11:30:30Z</time>
      </trkpt>
      <trkpt lat="46.57758" lon="3.71667">
        <ele>225.09</ele>
        <time>2014-07-08T11:30:58Z</time>
      </trkpt>
      <trkpt lat="46.57758" lon="3.71669">
        <ele>225.09</ele>
        <time>2014-07-08T11:31:30Z</time>
      </trkpt>
      <trkpt lat="46.57759" lon="3.71669">
        <ele>225.09</ele>
        <time>2014-07-08T11:32:11Z</time>
      </trkpt>
      <trkpt lat="46.5776" lon="3.71668">
        <ele>225.09</ele>
        <time>2014-07-08T11:32:50Z</time>
      </trkpt>
      <trkpt lat="46.57759" lon="3.71669">
        <ele>225.09</ele>
        <time>2014-07-08T11:33:20Z</time>
      </trkpt>
      <trkpt lat="46.57758" lon="3.71669">
        <ele>225.09</ele>
        <time>2014-07-08T11:33:51Z</time>
      </trkpt>
      <trkpt lat="46.57756" lon="3.71669">
        <ele>224.61</ele>
        <time>2014-07-08T11:34:25Z</time>
      </trkpt>
      <trkpt lat="46.57756" lon="3.71668">
        <ele>225.09</ele>
        <time>2014-07-08T11:35:00Z</time>
      </trkpt>
      <trkpt lat="46.57757" lon="3.71669">
        <ele>225.09</ele>
        <time>2014-07-08T11:35:52Z</time>
      </trkpt>
      <trkpt lat="46.5776" lon="3.71666">
        <ele>225.09</ele>
        <time>2014-07-08T11:36:30Z</time>
      </trkpt>
      <trkpt lat="46.57761" lon="3.71667">
        <ele>225.09</ele>
        <time>2014-07-08T11:37:08Z</time>
      </trkpt>
      <trkpt lat="46.57759" lon="3.71666">
        <ele>224.61</ele>
        <time>2014-07-08T11:38:01Z</time>
      </trkpt>
      <trkpt lat="46.57762" lon="3.71666">
        <ele>224.61</ele>
        <time>2014-07-08T11:38:54Z</time>
      </trkpt>
      <trkpt lat="46.57761" lon="3.71666">
        <ele>224.12</ele>
        <time>2014-07-08T11:39:35Z</time>
      </trkpt>
      <trkpt lat="46.5776" lon="3.71666">
        <ele>224.12</ele>
        <time>2014-07-08T11:40:09Z</time>
      </trkpt>
      <trkpt lat="46.57759" lon="3.71668">
        <ele>223.64</ele>
        <time>2014-07-08T11:40:41Z</time>
      </trkpt>
      <trkpt lat="46.5776" lon="3.71666">
        <ele>223.64</ele>
        <time>2014-07-08T11:41:14Z</time>
      </trkpt>
      <trkpt lat="46.5776" lon="3.71667">
        <ele>223.64</ele>
        <time>2014-07-08T11:41:47Z</time>
      </trkpt>
      <trkpt lat="46.57761" lon="3.71668">
        <ele>223.64</ele>
        <time>2014-07-08T11:42:19Z</time>
      </trkpt>
      <trkpt lat="46.57761" lon="3.71668">
        <ele>222.68</ele>
        <time>2014-07-08T11:42:49Z</time>
      </trkpt>
      <trkpt lat="46.5776" lon="3.71666">
        <ele>223.16</ele>
        <time>2014-07-08T11:43:24Z</time>
      </trkpt>
      <trkpt lat="46.57761" lon="3.71667">
        <ele>223.16</ele>
        <time>2014-07-08T11:44:04Z</time>
      </trkpt>
      <trkpt lat="46.57762" lon="3.71667">
        <ele>223.16</ele>
        <time>2014-07-08T11:44:34Z</time>
      </trkpt>
      <trkpt lat="46.5776" lon="3.71666">
        <ele>223.16</ele>
        <time>2014-07-08T11:45:02Z</time>
      </trkpt>
      <trkpt lat="46.57758" lon="3.71666">
        <ele>223.16</ele>
        <time>2014-07-08T11:45:32Z</time>
      </trkpt>
      <trkpt lat="46.5776" lon="3.71669">
        <ele>223.16</ele>
        <time>2014-07-08T11:46:02Z</time>
      </trkpt>
      <trkpt lat="46.57759" lon="3.71668">
        <ele>223.16</ele>
        <time>2014-07-08T11:46:37Z</time>
      </trkpt>
      <trkpt lat="46.5776" lon="3.71668">
        <ele>223.16</ele>
        <time>2014-07-08T11:47:08Z</time>
      </trkpt>
      <trkpt lat="46.5776" lon="3.71668">
        <ele>223.16</ele>
        <time>2014-07-08T11:47:44Z</time>
      </trkpt>
      <trkpt lat="46.57765" lon="3.71669">
        <ele>223.16</ele>
        <time>2014-07-08T11:48:03Z</time>
      </trkpt>
      <trkpt lat="46.57805" lon="3.71684">
        <ele>222.68</ele>
        <time>2014-07-08T11:48:19Z</time>
      </trkpt>
      <trkpt lat="46.57847" lon="3.71702">
        <ele>222.68</ele>
        <time>2014-07-08T11:48:33Z</time>
      </trkpt>
      <trkpt lat="46.57908" lon="3.71715">
        <ele>223.16</ele>
        <time>2014-07-08T11:48:52Z</time>
      </trkpt>
      <trkpt lat="46.5796" lon="3.71708">
        <ele>222.68</ele>
        <time>2014-07-08T11:49:07Z</time>
      </trkpt>
      <trkpt lat="46.58017" lon="3.71673">
        <ele>222.2</ele>
        <time>2014-07-08T11:49:23Z</time>
      </trkpt>
      <trkpt lat="46.58068" lon="3.71643">
        <ele>221.72</ele>
        <time>2014-07-08T11:49:38Z</time>
      </trkpt>
      <trkpt lat="46.58118" lon="3.71616">
        <ele>221.24</ele>
        <time>2014-07-08T11:49:51Z</time>
      </trkpt>
      <trkpt lat="46.58139" lon="3.71604">
        <ele>221.24</ele>
        <time>2014-07-08T11:49:56Z</time>
      </trkpt>
      <trkpt lat="46.58174" lon="3.71536">
        <ele>221.72</ele>
        <time>2014-07-08T11:50:11Z</time>
      </trkpt>
      <trkpt lat="46.58198" lon="3.71478">
        <ele>222.68</ele>
        <time>2014-07-08T11:50:26Z</time>
      </trkpt>
      <trkpt lat="46.58236" lon="3.71417">
        <ele>223.16</ele>
        <time>2014-07-08T11:50:44Z</time>
      </trkpt>
      <trkpt lat="46.58282" lon="3.71365">
        <ele>223.16</ele>
        <time>2014-07-08T11:51:02Z</time>
      </trkpt>
      <trkpt lat="46.58341" lon="3.71314">
        <ele>222.68</ele>
        <time>2014-07-08T11:51:21Z</time>
      </trkpt>
      <trkpt lat="46.58406" lon="3.71272">
        <ele>221.72</ele>
        <time>2014-07-08T11:51:41Z</time>
      </trkpt>
      <trkpt lat="46.5845" lon="3.71245">
        <ele>221.72</ele>
        <time>2014-07-08T11:51:54Z</time>
      </trkpt>
      <trkpt lat="46.58503" lon="3.71212">
        <ele>222.2</ele>
        <time>2014-07-08T11:52:10Z</time>
      </trkpt>
      <trkpt lat="46.5856" lon="3.71176">
        <ele>221.72</ele>
        <time>2014-07-08T11:52:27Z</time>
      </trkpt>
      <trkpt lat="46.5863" lon="3.71132">
        <ele>222.68</ele>
        <time>2014-07-08T11:52:47Z</time>
      </trkpt>
      <trkpt lat="46.58687" lon="3.71096">
        <ele>222.2</ele>
        <time>2014-07-08T11:53:04Z</time>
      </trkpt>
      <trkpt lat="46.58747" lon="3.7106">
        <ele>222.2</ele>
        <time>2014-07-08T11:53:22Z</time>
      </trkpt>
      <trkpt lat="46.58829" lon="3.71047">
        <ele>222.2</ele>
        <time>2014-07-08T11:53:43Z</time>
      </trkpt>
      <trkpt lat="46.58913" lon="3.7104">
        <ele>220.76</ele>
        <time>2014-07-08T11:54:03Z</time>
      </trkpt>
      <trkpt lat="46.58917" lon="3.71038">
        <ele>220.28</ele>
        <time>2014-07-08T11:54:04Z</time>
      </trkpt>
      <trkpt lat="46.58931" lon="3.71027">
        <ele>220.28</ele>
        <time>2014-07-08T11:54:08Z</time>
      </trkpt>
      <trkpt lat="46.58964" lon="3.70952">
        <ele>220.76</ele>
        <time>2014-07-08T11:54:23Z</time>
      </trkpt>
      <trkpt lat="46.59" lon="3.70866">
        <ele>220.76</ele>
        <time>2014-07-08T11:54:41Z</time>
      </trkpt>
      <trkpt lat="46.59031" lon="3.7079">
        <ele>220.76</ele>
        <time>2014-07-08T11:54:58Z</time>
      </trkpt>
      <trkpt lat="46.59064" lon="3.70712">
        <ele>220.76</ele>
        <time>2014-07-08T11:55:16Z</time>
      </trkpt>
      <trkpt lat="46.5909" lon="3.70648">
        <ele>220.76</ele>
        <time>2014-07-08T11:55:30Z</time>
      </trkpt>
      <trkpt lat="46.59124" lon="3.7057">
        <ele>220.28</ele>
        <time>2014-07-08T11:55:47Z</time>
      </trkpt>
      <trkpt lat="46.5916" lon="3.70482">
        <ele>219.8</ele>
        <time>2014-07-08T11:56:05Z</time>
      </trkpt>
      <trkpt lat="46.5919" lon="3.7041">
        <ele>219.32</ele>
        <time>2014-07-08T11:56:20Z</time>
      </trkpt>
      <trkpt lat="46.59211" lon="3.70357">
        <ele>220.76</ele>
        <time>2014-07-08T11:56:36Z</time>
      </trkpt>
      <trkpt lat="46.59229" lon="3.70301">
        <ele>221.24</ele>
        <time>2014-07-08T11:56:54Z</time>
      </trkpt>
      <trkpt lat="46.59243" lon="3.70249">
        <ele>220.76</ele>
        <time>2014-07-08T11:57:08Z</time>
      </trkpt>
      <trkpt lat="46.5926" lon="3.70177">
        <ele>220.76</ele>
        <time>2014-07-08T11:57:24Z</time>
      </trkpt>
      <trkpt lat="46.59284" lon="3.70088">
        <ele>220.28</ele>
        <time>2014-07-08T11:57:44Z</time>
      </trkpt>
      <trkpt lat="46.59304" lon="3.70008">
        <ele>220.28</ele>
        <time>2014-07-08T11:58:02Z</time>
      </trkpt>
      <trkpt lat="46.59335" lon="3.69914">
        <ele>220.28</ele>
        <time>2014-07-08T11:58:22Z</time>
      </trkpt>
      <trkpt lat="46.59373" lon="3.69848">
        <ele>220.76</ele>
        <time>2014-07-08T11:58:40Z</time>
      </trkpt>
      <trkpt lat="46.59422" lon="3.69781">
        <ele>221.24</ele>
        <time>2014-07-08T11:58:59Z</time>
      </trkpt>
      <trkpt lat="46.59461" lon="3.69732">
        <ele>220.28</ele>
        <time>2014-07-08T11:59:14Z</time>
      </trkpt>
      <trkpt lat="46.59476" lon="3.69711">
        <ele>220.28</ele>
        <time>2014-07-08T11:59:19Z</time>
      </trkpt>
      <trkpt lat="46.59506" lon="3.6967">
        <ele>220.28</ele>
        <time>2014-07-08T11:59:29Z</time>
      </trkpt>
      <trkpt lat="46.5952" lon="3.69648">
        <ele>220.28</ele>
        <time>2014-07-08T11:59:34Z</time>
      </trkpt>
      <trkpt lat="46.59527" lon="3.69618">
        <ele>219.8</ele>
        <time>2014-07-08T11:59:39Z</time>
      </trkpt>
      <trkpt lat="46.59507" lon="3.69486">
        <ele>219.32</ele>
        <time>2014-07-08T12:00:00Z</time>
      </trkpt>
      <trkpt lat="46.59496" lon="3.69415">
        <ele>219.8</ele>
        <time>2014-07-08T12:00:14Z</time>
      </trkpt>
      <trkpt lat="46.59491" lon="3.69355">
        <ele>220.28</ele>
        <time>2014-07-08T12:00:29Z</time>
      </trkpt>
      <trkpt lat="46.59491" lon="3.69348">
        <ele>220.76</ele>
        <time>2014-07-08T12:00:40Z</time>
      </trkpt>
      <trkpt lat="46.59491" lon="3.69349">
        <ele>220.28</ele>
        <time>2014-07-08T12:01:23Z</time>
      </trkpt>
      <trkpt lat="46.5949" lon="3.69351">
        <ele>220.28</ele>
        <time>2014-07-08T12:02:01Z</time>
      </trkpt>
      <trkpt lat="46.59491" lon="3.69346">
        <ele>220.28</ele>
        <time>2014-07-08T12:02:14Z</time>
      </trkpt>
      <trkpt lat="46.59492" lon="3.69308">
        <ele>220.28</ele>
        <time>2014-07-08T12:02:27Z</time>
      </trkpt>
      <trkpt lat="46.59492" lon="3.69249">
        <ele>220.28</ele>
        <time>2014-07-08T12:02:42Z</time>
      </trkpt>
      <trkpt lat="46.59493" lon="3.69168">
        <ele>219.8</ele>
        <time>2014-07-08T12:02:59Z</time>
      </trkpt>
      <trkpt lat="46.59493" lon="3.69084">
        <ele>219.8</ele>
        <time>2014-07-08T12:03:16Z</time>
      </trkpt>
      <trkpt lat="46.59493" lon="3.68997">
        <ele>220.28</ele>
        <time>2014-07-08T12:03:32Z</time>
      </trkpt>
      <trkpt lat="46.59495" lon="3.68904">
        <ele>220.28</ele>
        <time>2014-07-08T12:03:48Z</time>
      </trkpt>
      <trkpt lat="46.59497" lon="3.68869">
        <ele>220.28</ele>
        <time>2014-07-08T12:03:54Z</time>
      </trkpt>
      <trkpt lat="46.59512" lon="3.68838">
        <ele>220.28</ele>
        <time>2014-07-08T12:04:01Z</time>
      </trkpt>
      <trkpt lat="46.59575" lon="3.68816">
        <ele>220.28</ele>
        <time>2014-07-08T12:04:17Z</time>
      </trkpt>
      <trkpt lat="46.59648" lon="3.68796">
        <ele>219.8</ele>
        <time>2014-07-08T12:04:34Z</time>
      </trkpt>
      <trkpt lat="46.59726" lon="3.68773">
        <ele>219.32</ele>
        <time>2014-07-08T12:04:51Z</time>
      </trkpt>
      <trkpt lat="46.59761" lon="3.68762">
        <ele>218.84</ele>
        <time>2014-07-08T12:04:59Z</time>
      </trkpt>
      <trkpt lat="46.5977" lon="3.68756">
        <ele>218.84</ele>
        <time>2014-07-08T12:05:01Z</time>
      </trkpt>
      <trkpt lat="46.59831" lon="3.68669">
        <ele>219.32</ele>
        <time>2014-07-08T12:05:19Z</time>
      </trkpt>
      <trkpt lat="46.5984" lon="3.68655">
        <ele>218.84</ele>
        <time>2014-07-08T12:05:22Z</time>
      </trkpt>
      <trkpt lat="46.59879" lon="3.68585">
        <ele>218.84</ele>
        <time>2014-07-08T12:05:38Z</time>
      </trkpt>
      <trkpt lat="46.59886" lon="3.68512">
        <ele>220.28</ele>
        <time>2014-07-08T12:05:55Z</time>
      </trkpt>
      <trkpt lat="46.59895" lon="3.6841">
        <ele>220.28</ele>
        <time>2014-07-08T12:06:14Z</time>
      </trkpt>
      <trkpt lat="46.59902" lon="3.68324">
        <ele>220.28</ele>
        <time>2014-07-08T12:06:29Z</time>
      </trkpt>
      <trkpt lat="46.59901" lon="3.68201">
        <ele>219.8</ele>
        <time>2014-07-08T12:06:48Z</time>
      </trkpt>
      <trkpt lat="46.59895" lon="3.68144">
        <ele>219.8</ele>
        <time>2014-07-08T12:06:57Z</time>
      </trkpt>
      <trkpt lat="46.59911" lon="3.68059">
        <ele>220.28</ele>
        <time>2014-07-08T12:07:11Z</time>
      </trkpt>
      <trkpt lat="46.59954" lon="3.67941">
        <ele>219.8</ele>
        <time>2014-07-08T12:07:31Z</time>
      </trkpt>
      <trkpt lat="46.59989" lon="3.6785">
        <ele>220.28</ele>
        <time>2014-07-08T12:07:49Z</time>
      </trkpt>
      <trkpt lat="46.6001" lon="3.67794">
        <ele>220.28</ele>
        <time>2014-07-08T12:08:01Z</time>
      </trkpt>
      <trkpt lat="46.60012" lon="3.67789">
        <ele>220.28</ele>
        <time>2014-07-08T12:08:02Z</time>
      </trkpt>
      <trkpt lat="46.60031" lon="3.67735">
        <ele>220.28</ele>
        <time>2014-07-08T12:08:12Z</time>
      </trkpt>
      <trkpt lat="46.6005" lon="3.67647">
        <ele>220.28</ele>
        <time>2014-07-08T12:08:28Z</time>
      </trkpt>
      <trkpt lat="46.60065" lon="3.67578">
        <ele>221.24</ele>
        <time>2014-07-08T12:08:41Z</time>
      </trkpt>
      <trkpt lat="46.60082" lon="3.67497">
        <ele>220.28</ele>
        <time>2014-07-08T12:08:55Z</time>
      </trkpt>
      <trkpt lat="46.60102" lon="3.67422">
        <ele>220.76</ele>
        <time>2014-07-08T12:09:09Z</time>
      </trkpt>
      <trkpt lat="46.60128" lon="3.67354">
        <ele>220.28</ele>
        <time>2014-07-08T12:09:23Z</time>
      </trkpt>
      <trkpt lat="46.60169" lon="3.67312">
        <ele>221.24</ele>
        <time>2014-07-08T12:09:36Z</time>
      </trkpt>
      <trkpt lat="46.60193" lon="3.67277">
        <ele>221.72</ele>
        <time>2014-07-08T12:09:47Z</time>
      </trkpt>
      <trkpt lat="46.60182" lon="3.67259">
        <ele>221.24</ele>
        <time>2014-07-08T12:09:52Z</time>
      </trkpt>
      <trkpt lat="46.60154" lon="3.67246">
        <ele>221.24</ele>
        <time>2014-07-08T12:10:01Z</time>
      </trkpt>
      <trkpt lat="46.6015" lon="3.67203">
        <ele>220.28</ele>
        <time>2014-07-08T12:10:10Z</time>
      </trkpt>
      <trkpt lat="46.60177" lon="3.67141">
        <ele>221.72</ele>
        <time>2014-07-08T12:10:25Z</time>
      </trkpt>
      <trkpt lat="46.60232" lon="3.67111">
        <ele>222.2</ele>
        <time>2014-07-08T12:10:41Z</time>
      </trkpt>
      <trkpt lat="46.6026" lon="3.67101">
        <ele>222.2</ele>
        <time>2014-07-08T12:10:52Z</time>
      </trkpt>
      <trkpt lat="46.60285" lon="3.67058">
        <ele>221.72</ele>
        <time>2014-07-08T12:11:05Z</time>
      </trkpt>
      <trkpt lat="46.60346" lon="3.66992">
        <ele>221.72</ele>
        <time>2014-07-08T12:11:25Z</time>
      </trkpt>
      <trkpt lat="46.6038" lon="3.66959">
        <ele>221.24</ele>
        <time>2014-07-08T12:11:36Z</time>
      </trkpt>
      <trkpt lat="46.60402" lon="3.66941">
        <ele>221.24</ele>
        <time>2014-07-08T12:11:42Z</time>
      </trkpt>
      <trkpt lat="46.60431" lon="3.66915">
        <ele>221.24</ele>
        <time>2014-07-08T12:11:50Z</time>
      </trkpt>
      <trkpt lat="46.605" lon="3.66853">
        <ele>220.76</ele>
        <time>2014-07-08T12:12:09Z</time>
      </trkpt>
      <trkpt lat="46.60569" lon="3.66791">
        <ele>220.76</ele>
        <time>2014-07-08T12:12:28Z</time>
      </trkpt>
      <trkpt lat="46.60642" lon="3.66726">
        <ele>220.76</ele>
        <time>2014-07-08T12:12:47Z</time>
      </trkpt>
      <trkpt lat="46.60708" lon="3.66664">
        <ele>221.24</ele>
        <time>2014-07-08T12:13:04Z</time>
      </trkpt>
      <trkpt lat="46.60758" lon="3.66618">
        <ele>220.76</ele>
        <time>2014-07-08T12:13:18Z</time>
      </trkpt>
      <trkpt lat="46.60812" lon="3.6657">
        <ele>220.76</ele>
        <time>2014-07-08T12:13:32Z</time>
      </trkpt>
      <trkpt lat="46.60873" lon="3.66515">
        <ele>220.76</ele>
        <time>2014-07-08T12:13:47Z</time>
      </trkpt>
      <trkpt lat="46.6095" lon="3.66444">
        <ele>220.76</ele>
        <time>2014-07-08T12:14:07Z</time>
      </trkpt>
      <trkpt lat="46.60954" lon="3.6644">
        <ele>221.24</ele>
        <time>2014-07-08T12:14:08Z</time>
      </trkpt>
      <trkpt lat="46.61023" lon="3.66386">
        <ele>220.28</ele>
        <time>2014-07-08T12:14:25Z</time>
      </trkpt>
      <trkpt lat="46.61066" lon="3.66354">
        <ele>220.28</ele>
        <time>2014-07-08T12:14:36Z</time>
      </trkpt>
      <trkpt lat="46.61086" lon="3.66341">
        <ele>220.76</ele>
        <time>2014-07-08T12:14:41Z</time>
      </trkpt>
      <trkpt lat="46.61094" lon="3.66336">
        <ele>220.28</ele>
        <time>2014-07-08T12:14:43Z</time>
      </trkpt>
      <trkpt lat="46.61151" lon="3.66298">
        <ele>220.76</ele>
        <time>2014-07-08T12:14:57Z</time>
      </trkpt>
      <trkpt lat="46.61169" lon="3.66286">
        <ele>220.28</ele>
        <time>2014-07-08T12:15:01Z</time>
      </trkpt>
      <trkpt lat="46.6119" lon="3.66273">
        <ele>220.28</ele>
        <time>2014-07-08T12:15:06Z</time>
      </trkpt>
      <trkpt lat="46.61208" lon="3.66259">
        <ele>220.28</ele>
        <time>2014-07-08T12:15:10Z</time>
      </trkpt>
      <trkpt lat="46.61266" lon="3.66176">
        <ele>220.76</ele>
        <time>2014-07-08T12:15:28Z</time>
      </trkpt>
      <trkpt lat="46.61302" lon="3.66117">
        <ele>220.76</ele>
        <time>2014-07-08T12:15:40Z</time>
      </trkpt>
      <trkpt lat="46.61307" lon="3.66107">
        <ele>220.76</ele>
        <time>2014-07-08T12:15:42Z</time>
      </trkpt>
      <trkpt lat="46.61313" lon="3.66097">
        <ele>220.76</ele>
        <time>2014-07-08T12:15:44Z</time>
      </trkpt>
      <trkpt lat="46.61328" lon="3.66073">
        <ele>220.76</ele>
        <time>2014-07-08T12:15:49Z</time>
      </trkpt>
      <trkpt lat="46.61369" lon="3.66006">
        <ele>220.76</ele>
        <time>2014-07-08T12:16:02Z</time>
      </trkpt>
      <trkpt lat="46.6142" lon="3.65922">
        <ele>219.8</ele>
        <time>2014-07-08T12:16:18Z</time>
      </trkpt>
      <trkpt lat="46.6143" lon="3.65908">
        <ele>219.8</ele>
        <time>2014-07-08T12:16:21Z</time>
      </trkpt>
      <trkpt lat="46.61452" lon="3.65887">
        <ele>220.28</ele>
        <time>2014-07-08T12:16:27Z</time>
      </trkpt>
      <trkpt lat="46.61539" lon="3.65833">
        <ele>220.28</ele>
        <time>2014-07-08T12:16:47Z</time>
      </trkpt>
      <trkpt lat="46.61573" lon="3.65809">
        <ele>219.8</ele>
        <time>2014-07-08T12:16:55Z</time>
      </trkpt>
      <trkpt lat="46.61643" lon="3.65766">
        <ele>220.28</ele>
        <time>2014-07-08T12:17:10Z</time>
      </trkpt>
      <trkpt lat="46.61663" lon="3.65759">
        <ele>220.76</ele>
        <time>2014-07-08T12:17:14Z</time>
      </trkpt>
      <trkpt lat="46.61746" lon="3.65751">
        <ele>220.76</ele>
        <time>2014-07-08T12:17:31Z</time>
      </trkpt>
      <trkpt lat="46.6181" lon="3.65745">
        <ele>220.28</ele>
        <time>2014-07-08T12:17:45Z</time>
      </trkpt>
      <trkpt lat="46.61891" lon="3.65737">
        <ele>219.8</ele>
        <time>2014-07-08T12:18:01Z</time>
      </trkpt>
      <trkpt lat="46.61953" lon="3.65733">
        <ele>219.32</ele>
        <time>2014-07-08T12:18:14Z</time>
      </trkpt>
      <trkpt lat="46.61961" lon="3.65732">
        <ele>219.32</ele>
        <time>2014-07-08T12:18:16Z</time>
      </trkpt>
      <trkpt lat="46.62028" lon="3.65733">
        <ele>219.8</ele>
        <time>2014-07-08T12:18:30Z</time>
      </trkpt>
      <trkpt lat="46.62051" lon="3.65736">
        <ele>219.8</ele>
        <time>2014-07-08T12:18:35Z</time>
      </trkpt>
      <trkpt lat="46.62129" lon="3.65756">
        <ele>219.32</ele>
        <time>2014-07-08T12:18:53Z</time>
      </trkpt>
      <trkpt lat="46.62183" lon="3.65762">
        <ele>218.84</ele>
        <time>2014-07-08T12:19:05Z</time>
      </trkpt>
      <trkpt lat="46.62241" lon="3.65762">
        <ele>220.76</ele>
        <time>2014-07-08T12:19:21Z</time>
      </trkpt>
      <trkpt lat="46.6226" lon="3.65759">
        <ele>220.76</ele>
        <time>2014-07-08T12:19:27Z</time>
      </trkpt>
      <trkpt lat="46.62269" lon="3.65717">
        <ele>221.24</ele>
        <time>2014-07-08T12:19:39Z</time>
      </trkpt>
      <trkpt lat="46.62296" lon="3.65714">
        <ele>219.8</ele>
        <time>2014-07-08T12:19:45Z</time>
      </trkpt>
      <trkpt lat="46.6239" lon="3.65733">
        <ele>217.4</ele>
        <time>2014-07-08T12:20:02Z</time>
      </trkpt>
      <trkpt lat="46.62477" lon="3.6575">
        <ele>217.4</ele>
        <time>2014-07-08T12:20:18Z</time>
      </trkpt>
      <trkpt lat="46.62556" lon="3.65765">
        <ele>217.4</ele>
        <time>2014-07-08T12:20:33Z</time>
      </trkpt>
      <trkpt lat="46.62626" lon="3.65779">
        <ele>217.4</ele>
        <time>2014-07-08T12:20:47Z</time>
      </trkpt>
      <trkpt lat="46.62708" lon="3.65798">
        <ele>217.88</ele>
        <time>2014-07-08T12:21:04Z</time>
      </trkpt>
      <trkpt lat="46.62783" lon="3.65803">
        <ele>217.4</ele>
        <time>2014-07-08T12:21:21Z</time>
      </trkpt>
      <trkpt lat="46.62877" lon="3.65812">
        <ele>217.4</ele>
        <time>2014-07-08T12:21:40Z</time>
      </trkpt>
      <trkpt lat="46.62904" lon="3.65811">
        <ele>217.88</ele>
        <time>2014-07-08T12:21:46Z</time>
      </trkpt>
      <trkpt lat="46.6294" lon="3.65788">
        <ele>217.4</ele>
        <time>2014-07-08T12:21:55Z</time>
      </trkpt>
      <trkpt lat="46.62956" lon="3.65781">
        <ele>217.88</ele>
        <time>2014-07-08T12:21:59Z</time>
      </trkpt>
      <trkpt lat="46.63024" lon="3.65786">
        <ele>217.88</ele>
        <time>2014-07-08T12:22:15Z</time>
      </trkpt>
      <trkpt lat="46.63027" lon="3.65788">
        <ele>217.88</ele>
        <time>2014-07-08T12:22:16Z</time>
      </trkpt>
      <trkpt lat="46.63035" lon="3.65793">
        <ele>217.88</ele>
        <time>2014-07-08T12:22:18Z</time>
      </trkpt>
      <trkpt lat="46.63085" lon="3.65828">
        <ele>220.28</ele>
        <time>2014-07-08T12:22:34Z</time>
      </trkpt>
      <trkpt lat="46.63108" lon="3.6583">
        <ele>221.24</ele>
        <time>2014-07-08T12:22:44Z</time>
      </trkpt>
      <trkpt lat="46.6311" lon="3.65844">
        <ele>221.24</ele>
        <time>2014-07-08T12:22:49Z</time>
      </trkpt>
      <trkpt lat="46.63108" lon="3.65858">
        <ele>221.72</ele>
        <time>2014-07-08T12:23:02Z</time>
      </trkpt>
      <trkpt lat="46.63105" lon="3.6586">
        <ele>221.72</ele>
        <time>2014-07-08T12:23:23Z</time>
      </trkpt>
      <trkpt lat="46.63105" lon="3.65862">
        <ele>222.2</ele>
        <time>2014-07-08T12:23:35Z</time>
      </trkpt>
      <trkpt lat="46.63106" lon="3.65868">
        <ele>221.72</ele>
        <time>2014-07-08T12:23:39Z</time>
      </trkpt>
      <trkpt lat="46.63106" lon="3.65886">
        <ele>220.76</ele>
        <time>2014-07-08T12:23:43Z</time>
      </trkpt>
      <trkpt lat="46.63107" lon="3.65898">
        <ele>221.24</ele>
        <time>2014-07-08T12:23:45Z</time>
      </trkpt>
      <trkpt lat="46.63106" lon="3.65939">
        <ele>219.8</ele>
        <time>2014-07-08T12:23:50Z</time>
      </trkpt>
      <trkpt lat="46.63106" lon="3.65969">
        <ele>218.36</ele>
        <time>2014-07-08T12:23:53Z</time>
      </trkpt>
      <trkpt lat="46.63105" lon="3.66061">
        <ele>215.95</ele>
        <time>2014-07-08T12:24:01Z</time>
      </trkpt>
      <trkpt lat="46.63125" lon="3.66089">
        <ele>214.99</ele>
        <time>2014-07-08T12:24:07Z</time>
      </trkpt>
      <trkpt lat="46.6313" lon="3.66088">
        <ele>214.99</ele>
        <time>2014-07-08T12:24:08Z</time>
      </trkpt>
      <trkpt lat="46.63207" lon="3.66073">
        <ele>214.51</ele>
        <time>2014-07-08T12:24:24Z</time>
      </trkpt>
      <trkpt lat="46.63251" lon="3.66064">
        <ele>214.99</ele>
        <time>2014-07-08T12:24:37Z</time>
      </trkpt>
      <trkpt lat="46.63272" lon="3.66064">
        <ele>215.47</ele>
        <time>2014-07-08T12:24:43Z</time>
      </trkpt>
      <trkpt lat="46.63294" lon="3.66098">
        <ele>215.47</ele>
        <time>2014-07-08T12:24:51Z</time>
      </trkpt>
      <trkpt lat="46.63313" lon="3.66205">
        <ele>215.95</ele>
        <time>2014-07-08T12:25:08Z</time>
      </trkpt>
      <trkpt lat="46.63321" lon="3.66242">
        <ele>215.95</ele>
        <time>2014-07-08T12:25:14Z</time>
      </trkpt>
      <trkpt lat="46.63346" lon="3.66259">
        <ele>215.95</ele>
        <time>2014-07-08T12:25:23Z</time>
      </trkpt>
      <trkpt lat="46.63403" lon="3.66235">
        <ele>215.95</ele>
        <time>2014-07-08T12:25:39Z</time>
      </trkpt>
      <trkpt lat="46.63412" lon="3.66232">
        <ele>215.47</ele>
        <time>2014-07-08T12:25:41Z</time>
      </trkpt>
      <trkpt lat="46.63433" lon="3.66232">
        <ele>215.95</ele>
        <time>2014-07-08T12:25:46Z</time>
      </trkpt>
      <trkpt lat="46.63518" lon="3.66258">
        <ele>215.47</ele>
        <time>2014-07-08T12:26:06Z</time>
      </trkpt>
      <trkpt lat="46.63562" lon="3.66272">
        <ele>214.99</ele>
        <time>2014-07-08T12:26:17Z</time>
      </trkpt>
      <trkpt lat="46.63603" lon="3.66208">
        <ele>214.51</ele>
        <time>2014-07-08T12:26:32Z</time>
      </trkpt>
      <trkpt lat="46.63621" lon="3.66186">
        <ele>214.99</ele>
        <time>2014-07-08T12:26:43Z</time>
      </trkpt>
      <trkpt lat="46.63655" lon="3.66131">
        <ele>214.99</ele>
        <time>2014-07-08T12:27:00Z</time>
      </trkpt>
      <trkpt lat="46.63696" lon="3.66067">
        <ele>214.51</ele>
        <time>2014-07-08T12:27:19Z</time>
      </trkpt>
      <trkpt lat="46.63748" lon="3.66003">
        <ele>214.03</ele>
        <time>2014-07-08T12:27:39Z</time>
      </trkpt>
      <trkpt lat="46.6381" lon="3.65941">
        <ele>214.51</ele>
        <time>2014-07-08T12:27:59Z</time>
      </trkpt>
      <trkpt lat="46.63866" lon="3.65901">
        <ele>214.51</ele>
        <time>2014-07-08T12:28:17Z</time>
      </trkpt>
      <trkpt lat="46.6387" lon="3.65898">
        <ele>214.51</ele>
        <time>2014-07-08T12:28:20Z</time>
      </trkpt>
      <trkpt lat="46.63872" lon="3.6589">
        <ele>214.51</ele>
        <time>2014-07-08T12:28:24Z</time>
      </trkpt>
      <trkpt lat="46.6388" lon="3.65882">
        <ele>214.99</ele>
        <time>2014-07-08T12:28:30Z</time>
      </trkpt>
      <trkpt lat="46.63912" lon="3.65855">
        <ele>214.99</ele>
        <time>2014-07-08T12:28:44Z</time>
      </trkpt>
      <trkpt lat="46.63961" lon="3.65812">
        <ele>214.51</ele>
        <time>2014-07-08T12:29:00Z</time>
      </trkpt>
      <trkpt lat="46.6402" lon="3.65754">
        <ele>214.51</ele>
        <time>2014-07-08T12:29:18Z</time>
      </trkpt>
      <trkpt lat="46.64077" lon="3.65688">
        <ele>214.99</ele>
        <time>2014-07-08T12:29:36Z</time>
      </trkpt>
      <trkpt lat="46.64139" lon="3.65608">
        <ele>214.03</ele>
        <time>2014-07-08T12:29:54Z</time>
      </trkpt>
      <trkpt lat="46.64213" lon="3.6551">
        <ele>213.55</ele>
        <time>2014-07-08T12:30:15Z</time>
      </trkpt>
      <trkpt lat="46.64274" lon="3.6542">
        <ele>213.55</ele>
        <time>2014-07-08T12:30:34Z</time>
      </trkpt>
      <trkpt lat="46.64319" lon="3.65316">
        <ele>213.55</ele>
        <time>2014-07-08T12:30:53Z</time>
      </trkpt>
      <trkpt lat="46.64368" lon="3.65193">
        <ele>213.55</ele>
        <time>2014-07-08T12:31:14Z</time>
      </trkpt>
      <trkpt lat="46.64439" lon="3.65109">
        <ele>213.55</ele>
        <time>2014-07-08T12:31:32Z</time>
      </trkpt>
      <trkpt lat="46.64526" lon="3.65059">
        <ele>213.55</ele>
        <time>2014-07-08T12:31:51Z</time>
      </trkpt>
      <trkpt lat="46.64606" lon="3.65015">
        <ele>214.51</ele>
        <time>2014-07-08T12:32:10Z</time>
      </trkpt>
      <trkpt lat="46.64633" lon="3.64997">
        <ele>214.51</ele>
        <time>2014-07-08T12:32:17Z</time>
      </trkpt>
      <trkpt lat="46.64644" lon="3.64988">
        <ele>214.51</ele>
        <time>2014-07-08T12:32:20Z</time>
      </trkpt>
      <trkpt lat="46.64657" lon="3.64971">
        <ele>215.47</ele>
        <time>2014-07-08T12:32:25Z</time>
      </trkpt>
      <trkpt lat="46.64695" lon="3.64943">
        <ele>217.88</ele>
        <time>2014-07-08T12:32:45Z</time>
      </trkpt>
      <trkpt lat="46.64729" lon="3.64918">
        <ele>220.28</ele>
        <time>2014-07-08T12:33:05Z</time>
      </trkpt>
      <trkpt lat="46.64731" lon="3.64912">
        <ele>220.76</ele>
        <time>2014-07-08T12:33:07Z</time>
      </trkpt>
      <trkpt lat="46.64717" lon="3.64867">
        <ele>220.28</ele>
        <time>2014-07-08T12:33:21Z</time>
      </trkpt>
      <trkpt lat="46.64709" lon="3.64847">
        <ele>218.84</ele>
        <time>2014-07-08T12:33:28Z</time>
      </trkpt>
      <trkpt lat="46.64692" lon="3.64802">
        <ele>216.91</ele>
        <time>2014-07-08T12:33:35Z</time>
      </trkpt>
      <trkpt lat="46.64676" lon="3.64782">
        <ele>216.91</ele>
        <time>2014-07-08T12:33:39Z</time>
      </trkpt>
      <trkpt lat="46.6462" lon="3.64756">
        <ele>216.91</ele>
        <time>2014-07-08T12:33:53Z</time>
      </trkpt>
      <trkpt lat="46.64598" lon="3.64734">
        <ele>218.84</ele>
        <time>2014-07-08T12:34:05Z</time>
      </trkpt>
      <trkpt lat="46.64586" lon="3.64699">
        <ele>219.8</ele>
        <time>2014-07-08T12:34:20Z</time>
      </trkpt>
      <trkpt lat="46.64573" lon="3.64659">
        <ele>222.2</ele>
        <time>2014-07-08T12:34:38Z</time>
      </trkpt>
      <trkpt lat="46.64564" lon="3.64625">
        <ele>225.09</ele>
        <time>2014-07-08T12:34:56Z</time>
      </trkpt>
      <trkpt lat="46.64556" lon="3.64592">
        <ele>227.97</ele>
        <time>2014-07-08T12:35:13Z</time>
      </trkpt>
      <trkpt lat="46.64552" lon="3.64563">
        <ele>230.37</ele>
        <time>2014-07-08T12:35:29Z</time>
      </trkpt>
      <trkpt lat="46.64553" lon="3.64536">
        <ele>232.78</ele>
        <time>2014-07-08T12:35:42Z</time>
      </trkpt>
      <trkpt lat="46.64555" lon="3.64522">
        <ele>233.74</ele>
        <time>2014-07-08T12:35:49Z</time>
      </trkpt>
      <trkpt lat="46.64562" lon="3.64488">
        <ele>236.14</ele>
        <time>2014-07-08T12:36:05Z</time>
      </trkpt>
      <trkpt lat="46.64575" lon="3.64446">
        <ele>237.1</ele>
        <time>2014-07-08T12:36:21Z</time>
      </trkpt>
      <trkpt lat="46.64591" lon="3.64394">
        <ele>238.54</ele>
        <time>2014-07-08T12:36:40Z</time>
      </trkpt>
      <trkpt lat="46.64604" lon="3.6435">
        <ele>238.54</ele>
        <time>2014-07-08T12:36:52Z</time>
      </trkpt>
      <trkpt lat="46.64611" lon="3.64324">
        <ele>238.54</ele>
        <time>2014-07-08T12:37:05Z</time>
      </trkpt>
      <trkpt lat="46.64614" lon="3.64316">
        <ele>238.54</ele>
        <time>2014-07-08T12:37:30Z</time>
      </trkpt>
      <trkpt lat="46.64612" lon="3.64319">
        <ele>238.54</ele>
        <time>2014-07-08T12:37:53Z</time>
      </trkpt>
      <trkpt lat="46.64609" lon="3.64323">
        <ele>239.02</ele>
        <time>2014-07-08T12:38:25Z</time>
      </trkpt>
      <trkpt lat="46.64608" lon="3.6432">
        <ele>239.02</ele>
        <time>2014-07-08T12:38:51Z</time>
      </trkpt>
      <trkpt lat="46.64613" lon="3.64313">
        <ele>239.02</ele>
        <time>2014-07-08T12:39:05Z</time>
      </trkpt>
      <trkpt lat="46.64625" lon="3.64267">
        <ele>238.54</ele>
        <time>2014-07-08T12:39:20Z</time>
      </trkpt>
      <trkpt lat="46.64641" lon="3.64201">
        <ele>238.54</ele>
        <time>2014-07-08T12:39:35Z</time>
      </trkpt>
      <trkpt lat="46.64654" lon="3.64147">
        <ele>237.58</ele>
        <time>2014-07-08T12:39:45Z</time>
      </trkpt>
      <trkpt lat="46.64681" lon="3.64044">
        <ele>236.14</ele>
        <time>2014-07-08T12:40:02Z</time>
      </trkpt>
      <trkpt lat="46.64702" lon="3.63954">
        <ele>236.14</ele>
        <time>2014-07-08T12:40:17Z</time>
      </trkpt>
      <trkpt lat="46.64727" lon="3.63846">
        <ele>237.58</ele>
        <time>2014-07-08T12:40:36Z</time>
      </trkpt>
      <trkpt lat="46.64746" lon="3.63755">
        <ele>237.58</ele>
        <time>2014-07-08T12:40:52Z</time>
      </trkpt>
      <trkpt lat="46.64762" lon="3.63675">
        <ele>239.51</ele>
        <time>2014-07-08T12:41:09Z</time>
      </trkpt>
      <trkpt lat="46.64775" lon="3.63611">
        <ele>238.54</ele>
        <time>2014-07-08T12:41:23Z</time>
      </trkpt>
      <trkpt lat="46.64791" lon="3.6353">
        <ele>239.02</ele>
        <time>2014-07-08T12:41:39Z</time>
      </trkpt>
      <trkpt lat="46.64808" lon="3.63445">
        <ele>239.02</ele>
        <time>2014-07-08T12:41:55Z</time>
      </trkpt>
      <trkpt lat="46.64834" lon="3.63344">
        <ele>239.02</ele>
        <time>2014-07-08T12:42:13Z</time>
      </trkpt>
      <trkpt lat="46.64869" lon="3.63254">
        <ele>237.1</ele>
        <time>2014-07-08T12:42:29Z</time>
      </trkpt>
      <trkpt lat="46.64918" lon="3.63171">
        <ele>235.18</ele>
        <time>2014-07-08T12:42:45Z</time>
      </trkpt>
      <trkpt lat="46.64965" lon="3.63082">
        <ele>235.18</ele>
        <time>2014-07-08T12:43:01Z</time>
      </trkpt>
      <trkpt lat="46.65" lon="3.63012">
        <ele>236.14</ele>
        <time>2014-07-08T12:43:15Z</time>
      </trkpt>
      <trkpt lat="46.65005" lon="3.63002">
        <ele>236.14</ele>
        <time>2014-07-08T12:43:17Z</time>
      </trkpt>
      <trkpt lat="46.65046" lon="3.62906">
        <ele>237.1</ele>
        <time>2014-07-08T12:43:37Z</time>
      </trkpt>
      <trkpt lat="46.65074" lon="3.62816">
        <ele>237.58</ele>
        <time>2014-07-08T12:43:55Z</time>
      </trkpt>
      <trkpt lat="46.65093" lon="3.62726">
        <ele>238.06</ele>
        <time>2014-07-08T12:44:13Z</time>
      </trkpt>
      <trkpt lat="46.65108" lon="3.62626">
        <ele>237.58</ele>
        <time>2014-07-08T12:44:30Z</time>
      </trkpt>
      <trkpt lat="46.65117" lon="3.6254">
        <ele>237.1</ele>
        <time>2014-07-08T12:44:45Z</time>
      </trkpt>
      <trkpt lat="46.65123" lon="3.6248">
        <ele>236.62</ele>
        <time>2014-07-08T12:44:55Z</time>
      </trkpt>
      <trkpt lat="46.6513" lon="3.62429">
        <ele>235.66</ele>
        <time>2014-07-08T12:45:03Z</time>
      </trkpt>
      <trkpt lat="46.6515" lon="3.62308">
        <ele>232.78</ele>
        <time>2014-07-08T12:45:20Z</time>
      </trkpt>
      <trkpt lat="46.65169" lon="3.62205">
        <ele>232.3</ele>
        <time>2014-07-08T12:45:34Z</time>
      </trkpt>
      <trkpt lat="46.65178" lon="3.62159">
        <ele>233.26</ele>
        <time>2014-07-08T12:45:41Z</time>
      </trkpt>
      <trkpt lat="46.65184" lon="3.62127">
        <ele>233.26</ele>
        <time>2014-07-08T12:45:46Z</time>
      </trkpt>
      <trkpt lat="46.65203" lon="3.621">
        <ele>233.26</ele>
        <time>2014-07-08T12:45:52Z</time>
      </trkpt>
      <trkpt lat="46.65256" lon="3.62053">
        <ele>233.26</ele>
        <time>2014-07-08T12:46:07Z</time>
      </trkpt>
      <trkpt lat="46.6531" lon="3.61986">
        <ele>233.26</ele>
        <time>2014-07-08T12:46:22Z</time>
      </trkpt>
      <trkpt lat="46.65325" lon="3.61971">
        <ele>233.26</ele>
        <time>2014-07-08T12:46:26Z</time>
      </trkpt>
      <trkpt lat="46.65362" lon="3.61938">
        <ele>232.78</ele>
        <time>2014-07-08T12:46:35Z</time>
      </trkpt>
      <trkpt lat="46.65418" lon="3.61893">
        <ele>232.78</ele>
        <time>2014-07-08T12:46:48Z</time>
      </trkpt>
      <trkpt lat="46.65431" lon="3.61882">
        <ele>232.3</ele>
        <time>2014-07-08T12:46:51Z</time>
      </trkpt>
      <trkpt lat="46.65502" lon="3.61822">
        <ele>232.3</ele>
        <time>2014-07-08T12:47:07Z</time>
      </trkpt>
      <trkpt lat="46.65561" lon="3.61772">
        <ele>231.81</ele>
        <time>2014-07-08T12:47:21Z</time>
      </trkpt>
      <trkpt lat="46.65585" lon="3.61755">
        <ele>231.81</ele>
        <time>2014-07-08T12:47:32Z</time>
      </trkpt>
      <trkpt lat="46.65586" lon="3.61753">
        <ele>231.33</ele>
        <time>2014-07-08T12:47:37Z</time>
      </trkpt>
      <trkpt lat="46.65581" lon="3.61726">
        <ele>230.85</ele>
        <time>2014-07-08T12:47:46Z</time>
      </trkpt>
      <trkpt lat="46.65568" lon="3.61669">
        <ele>230.85</ele>
        <time>2014-07-08T12:47:59Z</time>
      </trkpt>
      <trkpt lat="46.65554" lon="3.61605">
        <ele>230.37</ele>
        <time>2014-07-08T12:48:11Z</time>
      </trkpt>
      <trkpt lat="46.6554" lon="3.61543">
        <ele>231.33</ele>
        <time>2014-07-08T12:48:22Z</time>
      </trkpt>
      <trkpt lat="46.65533" lon="3.61511">
        <ele>230.85</ele>
        <time>2014-07-08T12:48:27Z</time>
      </trkpt>
      <trkpt lat="46.65523" lon="3.61476">
        <ele>230.85</ele>
        <time>2014-07-08T12:48:33Z</time>
      </trkpt>
      <trkpt lat="46.65506" lon="3.61418">
        <ele>231.81</ele>
        <time>2014-07-08T12:48:43Z</time>
      </trkpt>
      <trkpt lat="46.65484" lon="3.61353">
        <ele>232.3</ele>
        <time>2014-07-08T12:48:56Z</time>
      </trkpt>
      <trkpt lat="46.65465" lon="3.61299">
        <ele>233.74</ele>
        <time>2014-07-08T12:49:10Z</time>
      </trkpt>
      <trkpt lat="46.65454" lon="3.6126">
        <ele>234.22</ele>
        <time>2014-07-08T12:49:25Z</time>
      </trkpt>
      <trkpt lat="46.65441" lon="3.61224">
        <ele>234.7</ele>
        <time>2014-07-08T12:49:38Z</time>
      </trkpt>
      <trkpt lat="46.65456" lon="3.61181">
        <ele>232.78</ele>
        <time>2014-07-08T12:49:51Z</time>
      </trkpt>
      <trkpt lat="46.65507" lon="3.61159">
        <ele>231.81</ele>
        <time>2014-07-08T12:50:06Z</time>
      </trkpt>
      <trkpt lat="46.65561" lon="3.61137">
        <ele>232.3</ele>
        <time>2014-07-08T12:50:23Z</time>
      </trkpt>
      <trkpt lat="46.65606" lon="3.6112">
        <ele>232.3</ele>
        <time>2014-07-08T12:50:37Z</time>
      </trkpt>
      <trkpt lat="46.65667" lon="3.61094">
        <ele>233.26</ele>
        <time>2014-07-08T12:50:54Z</time>
      </trkpt>
      <trkpt lat="46.65731" lon="3.61056">
        <ele>231.81</ele>
        <time>2014-07-08T12:51:10Z</time>
      </trkpt>
      <trkpt lat="46.65735" lon="3.61053">
        <ele>232.3</ele>
        <time>2014-07-08T12:51:11Z</time>
      </trkpt>
      <trkpt lat="46.65744" lon="3.61049">
        <ele>231.81</ele>
        <time>2014-07-08T12:51:13Z</time>
      </trkpt>
      <trkpt lat="46.65771" lon="3.61061">
        <ele>231.81</ele>
        <time>2014-07-08T12:51:20Z</time>
      </trkpt>
      <trkpt lat="46.65827" lon="3.61139">
        <ele>232.3</ele>
        <time>2014-07-08T12:51:39Z</time>
      </trkpt>
      <trkpt lat="46.65871" lon="3.61189">
        <ele>229.41</ele>
        <time>2014-07-08T12:51:48Z</time>
      </trkpt>
      <trkpt lat="46.65942" lon="3.61267">
        <ele>226.05</ele>
        <time>2014-07-08T12:52:00Z</time>
      </trkpt>
      <trkpt lat="46.66017" lon="3.6135">
        <ele>226.05</ele>
        <time>2014-07-08T12:52:15Z</time>
      </trkpt>
      <trkpt lat="46.66051" lon="3.61386">
        <ele>225.09</ele>
        <time>2014-07-08T12:52:23Z</time>
      </trkpt>
      <trkpt lat="46.66118" lon="3.6146">
        <ele>225.09</ele>
        <time>2014-07-08T12:52:38Z</time>
      </trkpt>
      <trkpt lat="46.66171" lon="3.61518">
        <ele>225.57</ele>
        <time>2014-07-08T12:52:50Z</time>
      </trkpt>
      <trkpt lat="46.6622" lon="3.61574">
        <ele>226.53</ele>
        <time>2014-07-08T12:53:03Z</time>
      </trkpt>
      <trkpt lat="46.66236" lon="3.61598">
        <ele>226.53</ele>
        <time>2014-07-08T12:53:08Z</time>
      </trkpt>
      <trkpt lat="46.66291" lon="3.61657">
        <ele>226.53</ele>
        <time>2014-07-08T12:53:21Z</time>
      </trkpt>
      <trkpt lat="46.66363" lon="3.61694">
        <ele>227.49</ele>
        <time>2014-07-08T12:53:37Z</time>
      </trkpt>
      <trkpt lat="46.66431" lon="3.61709">
        <ele>228.45</ele>
        <time>2014-07-08T12:53:53Z</time>
      </trkpt>
      <trkpt lat="46.66484" lon="3.61705">
        <ele>229.41</ele>
        <time>2014-07-08T12:54:06Z</time>
      </trkpt>
      <trkpt lat="46.66553" lon="3.61721">
        <ele>227.49</ele>
        <time>2014-07-08T12:54:20Z</time>
      </trkpt>
      <trkpt lat="46.6664" lon="3.6177">
        <ele>226.05</ele>
        <time>2014-07-08T12:54:36Z</time>
      </trkpt>
      <trkpt lat="46.6673" lon="3.61763">
        <ele>226.05</ele>
        <time>2014-07-08T12:54:51Z</time>
      </trkpt>
      <trkpt lat="46.66816" lon="3.61738">
        <ele>224.61</ele>
        <time>2014-07-08T12:55:05Z</time>
      </trkpt>
      <trkpt lat="46.66907" lon="3.61701">
        <ele>225.09</ele>
        <time>2014-07-08T12:55:22Z</time>
      </trkpt>
      <trkpt lat="46.6699" lon="3.61667">
        <ele>225.57</ele>
        <time>2014-07-08T12:55:40Z</time>
      </trkpt>
      <trkpt lat="46.67045" lon="3.61644">
        <ele>227.01</ele>
        <time>2014-07-08T12:55:54Z</time>
      </trkpt>
      <trkpt lat="46.67084" lon="3.61628">
        <ele>227.97</ele>
        <time>2014-07-08T12:56:07Z</time>
      </trkpt>
      <trkpt lat="46.67132" lon="3.6161">
        <ele>229.41</ele>
        <time>2014-07-08T12:56:24Z</time>
      </trkpt>
      <trkpt lat="46.67192" lon="3.6159">
        <ele>228.93</ele>
        <time>2014-07-08T12:56:41Z</time>
      </trkpt>
      <trkpt lat="46.6722" lon="3.61585">
        <ele>228.45</ele>
        <time>2014-07-08T12:56:48Z</time>
      </trkpt>
      <trkpt lat="46.67298" lon="3.61569">
        <ele>228.45</ele>
        <time>2014-07-08T12:57:05Z</time>
      </trkpt>
      <trkpt lat="46.6737" lon="3.61569">
        <ele>227.01</ele>
        <time>2014-07-08T12:57:20Z</time>
      </trkpt>
      <trkpt lat="46.67448" lon="3.61592">
        <ele>225.09</ele>
        <time>2014-07-08T12:57:34Z</time>
      </trkpt>
      <trkpt lat="46.67585" lon="3.61639">
        <ele>221.72</ele>
        <time>2014-07-08T12:57:56Z</time>
      </trkpt>
      <trkpt lat="46.67663" lon="3.61679">
        <ele>218.84</ele>
        <time>2014-07-08T12:58:07Z</time>
      </trkpt>
      <trkpt lat="46.67774" lon="3.6173">
        <ele>216.91</ele>
        <time>2014-07-08T12:58:22Z</time>
      </trkpt>
      <trkpt lat="46.67878" lon="3.6175">
        <ele>216.91</ele>
        <time>2014-07-08T12:58:39Z</time>
      </trkpt>
      <trkpt lat="46.67895" lon="3.61746">
        <ele>216.91</ele>
        <time>2014-07-08T12:58:42Z</time>
      </trkpt>
      <trkpt lat="46.67914" lon="3.61731">
        <ele>216.91</ele>
        <time>2014-07-08T12:58:46Z</time>
      </trkpt>
      <trkpt lat="46.67945" lon="3.61681">
        <ele>217.4</ele>
        <time>2014-07-08T12:58:55Z</time>
      </trkpt>
      <trkpt lat="46.68003" lon="3.61594">
        <ele>217.88</ele>
        <time>2014-07-08T12:59:12Z</time>
      </trkpt>
      <trkpt lat="46.68037" lon="3.61572">
        <ele>219.32</ele>
        <time>2014-07-08T12:59:24Z</time>
      </trkpt>
      <trkpt lat="46.68066" lon="3.61562">
        <ele>220.28</ele>
        <time>2014-07-08T12:59:41Z</time>
      </trkpt>
      <trkpt lat="46.68099" lon="3.61553">
        <ele>221.72</ele>
        <time>2014-07-08T12:59:59Z</time>
      </trkpt>
      <trkpt lat="46.68127" lon="3.61546">
        <ele>223.16</ele>
        <time>2014-07-08T13:00:13Z</time>
      </trkpt>
      <trkpt lat="46.68155" lon="3.61537">
        <ele>224.61</ele>
        <time>2014-07-08T13:00:28Z</time>
      </trkpt>
      <trkpt lat="46.68182" lon="3.61527">
        <ele>226.05</ele>
        <time>2014-07-08T13:00:43Z</time>
      </trkpt>
      <trkpt lat="46.68209" lon="3.61507">
        <ele>227.01</ele>
        <time>2014-07-08T13:00:59Z</time>
      </trkpt>
      <trkpt lat="46.68247" lon="3.61474">
        <ele>226.53</ele>
        <time>2014-07-08T13:01:15Z</time>
      </trkpt>
      <trkpt lat="46.68285" lon="3.61441">
        <ele>226.53</ele>
        <time>2014-07-08T13:01:30Z</time>
      </trkpt>
      <trkpt lat="46.68341" lon="3.61399">
        <ele>226.05</ele>
        <time>2014-07-08T13:01:47Z</time>
      </trkpt>
      <trkpt lat="46.68395" lon="3.6136">
        <ele>226.05</ele>
        <time>2014-07-08T13:02:02Z</time>
      </trkpt>
      <trkpt lat="46.68458" lon="3.6132">
        <ele>226.05</ele>
        <time>2014-07-08T13:02:20Z</time>
      </trkpt>
      <trkpt lat="46.68526" lon="3.61298">
        <ele>225.57</ele>
        <time>2014-07-08T13:02:37Z</time>
      </trkpt>
      <trkpt lat="46.6859" lon="3.61292">
        <ele>223.64</ele>
        <time>2014-07-08T13:02:52Z</time>
      </trkpt>
      <trkpt lat="46.68661" lon="3.61307">
        <ele>221.24</ele>
        <time>2014-07-08T13:03:05Z</time>
      </trkpt>
      <trkpt lat="46.68725" lon="3.61333">
        <ele>218.84</ele>
        <time>2014-07-08T13:03:16Z</time>
      </trkpt>
      <trkpt lat="46.68754" lon="3.61346">
        <ele>218.36</ele>
        <time>2014-07-08T13:03:21Z</time>
      </trkpt>
      <trkpt lat="46.68839" lon="3.6135">
        <ele>218.36</ele>
        <time>2014-07-08T13:03:37Z</time>
      </trkpt>
      <trkpt lat="46.68878" lon="3.61363">
        <ele>220.76</ele>
        <time>2014-07-08T13:03:50Z</time>
      </trkpt>
      <trkpt lat="46.68906" lon="3.61381">
        <ele>223.16</ele>
        <time>2014-07-08T13:04:06Z</time>
      </trkpt>
      <trkpt lat="46.68942" lon="3.61404">
        <ele>225.09</ele>
        <time>2014-07-08T13:04:24Z</time>
      </trkpt>
      <trkpt lat="46.68957" lon="3.61414">
        <ele>225.57</ele>
        <time>2014-07-08T13:04:38Z</time>
      </trkpt>
      <trkpt lat="46.68957" lon="3.61414">
        <ele>225.09</ele>
        <time>2014-07-08T13:04:58Z</time>
      </trkpt>
      <trkpt lat="46.68956" lon="3.61418">
        <ele>225.57</ele>
        <time>2014-07-08T13:05:29Z</time>
      </trkpt>
      <trkpt lat="46.68959" lon="3.61416">
        <ele>225.09</ele>
        <time>2014-07-08T13:06:04Z</time>
      </trkpt>
      <trkpt lat="46.68959" lon="3.61418">
        <ele>225.57</ele>
        <time>2014-07-08T13:06:29Z</time>
      </trkpt>
      <trkpt lat="46.68966" lon="3.61422">
        <ele>225.57</ele>
        <time>2014-07-08T13:06:41Z</time>
      </trkpt>
      <trkpt lat="46.6901" lon="3.61447">
        <ele>225.57</ele>
        <time>2014-07-08T13:07:00Z</time>
      </trkpt>
      <trkpt lat="46.69056" lon="3.61466">
        <ele>225.57</ele>
        <time>2014-07-08T13:07:15Z</time>
      </trkpt>
      <trkpt lat="46.69109" lon="3.61476">
        <ele>225.09</ele>
        <time>2014-07-08T13:07:28Z</time>
      </trkpt>
      <trkpt lat="46.6919" lon="3.61477">
        <ele>224.12</ele>
        <time>2014-07-08T13:07:44Z</time>
      </trkpt>
      <trkpt lat="46.69291" lon="3.61473">
        <ele>222.68</ele>
        <time>2014-07-08T13:08:03Z</time>
      </trkpt>
      <trkpt lat="46.69393" lon="3.61468">
        <ele>220.76</ele>
        <time>2014-07-08T13:08:21Z</time>
      </trkpt>
      <trkpt lat="46.69495" lon="3.61464">
        <ele>221.24</ele>
        <time>2014-07-08T13:08:40Z</time>
      </trkpt>
      <trkpt lat="46.69582" lon="3.61461">
        <ele>220.76</ele>
        <time>2014-07-08T13:08:57Z</time>
      </trkpt>
      <trkpt lat="46.69659" lon="3.61456">
        <ele>219.8</ele>
        <time>2014-07-08T13:09:12Z</time>
      </trkpt>
      <trkpt lat="46.69739" lon="3.61453">
        <ele>219.32</ele>
        <time>2014-07-08T13:09:28Z</time>
      </trkpt>
      <trkpt lat="46.69838" lon="3.61449">
        <ele>218.36</ele>
        <time>2014-07-08T13:09:47Z</time>
      </trkpt>
      <trkpt lat="46.69913" lon="3.61447">
        <ele>217.88</ele>
        <time>2014-07-08T13:10:02Z</time>
      </trkpt>
      <trkpt lat="46.69995" lon="3.61443">
        <ele>218.36</ele>
        <time>2014-07-08T13:10:20Z</time>
      </trkpt>
      <trkpt lat="46.70051" lon="3.6144">
        <ele>219.32</ele>
        <time>2014-07-08T13:10:34Z</time>
      </trkpt>
      <trkpt lat="46.70123" lon="3.61436">
        <ele>218.84</ele>
        <time>2014-07-08T13:10:51Z</time>
      </trkpt>
      <trkpt lat="46.70188" lon="3.61434">
        <ele>218.84</ele>
        <time>2014-07-08T13:11:06Z</time>
      </trkpt>
      <trkpt lat="46.70264" lon="3.61431">
        <ele>218.36</ele>
        <time>2014-07-08T13:11:23Z</time>
      </trkpt>
      <trkpt lat="46.70335" lon="3.61428">
        <ele>217.88</ele>
        <time>2014-07-08T13:11:38Z</time>
      </trkpt>
      <trkpt lat="46.70348" lon="3.61427">
        <ele>218.84</ele>
        <time>2014-07-08T13:11:41Z</time>
      </trkpt>
      <trkpt lat="46.70428" lon="3.61423">
        <ele>217.88</ele>
        <time>2014-07-08T13:11:59Z</time>
      </trkpt>
      <trkpt lat="46.70486" lon="3.61419">
        <ele>217.88</ele>
        <time>2014-07-08T13:12:11Z</time>
      </trkpt>
      <trkpt lat="46.70545" lon="3.61403">
        <ele>217.88</ele>
        <time>2014-07-08T13:12:23Z</time>
      </trkpt>
      <trkpt lat="46.7058" lon="3.6139">
        <ele>217.88</ele>
        <time>2014-07-08T13:12:31Z</time>
      </trkpt>
      <trkpt lat="46.70641" lon="3.61368">
        <ele>217.4</ele>
        <time>2014-07-08T13:12:44Z</time>
      </trkpt>
      <trkpt lat="46.70694" lon="3.6135">
        <ele>217.88</ele>
        <time>2014-07-08T13:12:55Z</time>
      </trkpt>
      <trkpt lat="46.70772" lon="3.61326">
        <ele>217.4</ele>
        <time>2014-07-08T13:13:10Z</time>
      </trkpt>
      <trkpt lat="46.70873" lon="3.61291">
        <ele>216.91</ele>
        <time>2014-07-08T13:13:30Z</time>
      </trkpt>
      <trkpt lat="46.70957" lon="3.61263">
        <ele>216.43</ele>
        <time>2014-07-08T13:13:46Z</time>
      </trkpt>
      <trkpt lat="46.71029" lon="3.61239">
        <ele>215.95</ele>
        <time>2014-07-08T13:14:00Z</time>
      </trkpt>
      <trkpt lat="46.71124" lon="3.61207">
        <ele>214.51</ele>
        <time>2014-07-08T13:14:18Z</time>
      </trkpt>
      <trkpt lat="46.71148" lon="3.61199">
        <ele>214.51</ele>
        <time>2014-07-08T13:14:23Z</time>
      </trkpt>
      <trkpt lat="46.71166" lon="3.61192">
        <ele>214.51</ele>
        <time>2014-07-08T13:14:28Z</time>
      </trkpt>
      <trkpt lat="46.71208" lon="3.61179">
        <ele>214.03</ele>
        <time>2014-07-08T13:14:38Z</time>
      </trkpt>
      <trkpt lat="46.71287" lon="3.61149">
        <ele>214.51</ele>
        <time>2014-07-08T13:14:55Z</time>
      </trkpt>
      <trkpt lat="46.71354" lon="3.61127">
        <ele>212.59</ele>
        <time>2014-07-08T13:15:11Z</time>
      </trkpt>
      <trkpt lat="46.71367" lon="3.61122">
        <ele>212.59</ele>
        <time>2014-07-08T13:15:15Z</time>
      </trkpt>
      <trkpt lat="46.71367" lon="3.61101">
        <ele>211.63</ele>
        <time>2014-07-08T13:15:19Z</time>
      </trkpt>
      <trkpt lat="46.71354" lon="3.61001">
        <ele>213.07</ele>
        <time>2014-07-08T13:15:35Z</time>
      </trkpt>
      <trkpt lat="46.71351" lon="3.60977">
        <ele>214.03</ele>
        <time>2014-07-08T13:15:44Z</time>
      </trkpt>
      <trkpt lat="46.71349" lon="3.60984">
        <ele>214.03</ele>
        <time>2014-07-08T13:15:58Z</time>
      </trkpt>
      <trkpt lat="46.71347" lon="3.60985">
        <ele>214.03</ele>
        <time>2014-07-08T13:16:31Z</time>
      </trkpt>
      <trkpt lat="46.71355" lon="3.60988">
        <ele>213.55</ele>
        <time>2014-07-08T13:17:07Z</time>
      </trkpt>
      <trkpt lat="46.71352" lon="3.60988">
        <ele>213.55</ele>
        <time>2014-07-08T13:17:42Z</time>
      </trkpt>
      <trkpt lat="46.71354" lon="3.60994">
        <ele>213.55</ele>
        <time>2014-07-08T13:18:14Z</time>
      </trkpt>
      <trkpt lat="46.71352" lon="3.61003">
        <ele>214.03</ele>
        <time>2014-07-08T13:18:47Z</time>
      </trkpt>
      <trkpt lat="46.71356" lon="3.61006">
        <ele>214.03</ele>
        <time>2014-07-08T13:19:20Z</time>
      </trkpt>
      <trkpt lat="46.7135" lon="3.60994">
        <ele>214.03</ele>
        <time>2014-07-08T13:19:53Z</time>
      </trkpt>
      <trkpt lat="46.71351" lon="3.60986">
        <ele>214.51</ele>
        <time>2014-07-08T13:20:22Z</time>
      </trkpt>
      <trkpt lat="46.71354" lon="3.60993">
        <ele>214.51</ele>
        <time>2014-07-08T13:20:57Z</time>
      </trkpt>
      <trkpt lat="46.71351" lon="3.60996">
        <ele>214.99</ele>
        <time>2014-07-08T13:21:33Z</time>
      </trkpt>
      <trkpt lat="46.71354" lon="3.60997">
        <ele>214.99</ele>
        <time>2014-07-08T13:22:10Z</time>
      </trkpt>
      <trkpt lat="46.71359" lon="3.60997">
        <ele>215.47</ele>
        <time>2014-07-08T13:22:49Z</time>
      </trkpt>
      <trkpt lat="46.71354" lon="3.6099">
        <ele>214.51</ele>
        <time>2014-07-08T13:23:28Z</time>
      </trkpt>
      <trkpt lat="46.71356" lon="3.60994">
        <ele>214.51</ele>
        <time>2014-07-08T13:24:09Z</time>
      </trkpt>
      <trkpt lat="46.71353" lon="3.60997">
        <ele>214.99</ele>
        <time>2014-07-08T13:24:43Z</time>
      </trkpt>
      <trkpt lat="46.71349" lon="3.61">
        <ele>215.47</ele>
        <time>2014-07-08T13:25:27Z</time>
      </trkpt>
      <trkpt lat="46.71353" lon="3.61001">
        <ele>215.47</ele>
        <time>2014-07-08T13:26:11Z</time>
      </trkpt>
      <trkpt lat="46.7135" lon="3.60996">
        <ele>214.03</ele>
        <time>2014-07-08T13:26:46Z</time>
      </trkpt>
      <trkpt lat="46.7135" lon="3.60995">
        <ele>215.95</ele>
        <time>2014-07-08T13:26:53Z</time>
      </trkpt>
      <trkpt lat="46.71356" lon="3.60998">
        <ele>215.47</ele>
        <time>2014-07-08T13:27:29Z</time>
      </trkpt>
      <trkpt lat="46.71348" lon="3.60994">
        <ele>215.95</ele>
        <time>2014-07-08T13:28:01Z</time>
      </trkpt>
      <trkpt lat="46.71348" lon="3.60993">
        <ele>215.95</ele>
        <time>2014-07-08T13:28:32Z</time>
      </trkpt>
      <trkpt lat="46.71353" lon="3.61003">
        <ele>216.43</ele>
        <time>2014-07-08T13:29:08Z</time>
      </trkpt>
      <trkpt lat="46.7135" lon="3.61006">
        <ele>216.43</ele>
        <time>2014-07-08T13:29:39Z</time>
      </trkpt>
      <trkpt lat="46.71351" lon="3.61008">
        <ele>216.43</ele>
        <time>2014-07-08T13:30:13Z</time>
      </trkpt>
      <trkpt lat="46.71349" lon="3.61012">
        <ele>216.91</ele>
        <time>2014-07-08T13:30:39Z</time>
      </trkpt>
      <trkpt lat="46.71346" lon="3.60996">
        <ele>216.91</ele>
        <time>2014-07-08T13:31:11Z</time>
      </trkpt>
      <trkpt lat="46.71349" lon="3.60994">
        <ele>216.91</ele>
        <time>2014-07-08T13:31:44Z</time>
      </trkpt>
      <trkpt lat="46.71347" lon="3.60994">
        <ele>216.91</ele>
        <time>2014-07-08T13:32:15Z</time>
      </trkpt>
      <trkpt lat="46.71348" lon="3.60997">
        <ele>217.4</ele>
        <time>2014-07-08T13:32:34Z</time>
      </trkpt>
      <trkpt lat="46.71353" lon="3.61">
        <ele>217.4</ele>
        <time>2014-07-08T13:33:03Z</time>
      </trkpt>
      <trkpt lat="46.71353" lon="3.61001">
        <ele>217.4</ele>
        <time>2014-07-08T13:33:06Z</time>
      </trkpt>
      <trkpt lat="46.71351" lon="3.61001">
        <ele>217.4</ele>
        <time>2014-07-08T13:33:31Z</time>
      </trkpt>
      <trkpt lat="46.71341" lon="3.60985">
        <ele>217.4</ele>
        <time>2014-07-08T13:34:01Z</time>
      </trkpt>
      <trkpt lat="46.71341" lon="3.60982">
        <ele>217.4</ele>
        <time>2014-07-08T13:34:32Z</time>
      </trkpt>
      <trkpt lat="46.71346" lon="3.60983">
        <ele>217.88</ele>
        <time>2014-07-08T13:34:40Z</time>
      </trkpt>
      <trkpt lat="46.71362" lon="3.60993">
        <ele>217.4</ele>
        <time>2014-07-08T13:34:53Z</time>
      </trkpt>
      <trkpt lat="46.71395" lon="3.60986">
        <ele>217.4</ele>
        <time>2014-07-08T13:35:09Z</time>
      </trkpt>
      <trkpt lat="46.71445" lon="3.60983">
        <ele>216.91</ele>
        <time>2014-07-08T13:35:26Z</time>
      </trkpt>
      <trkpt lat="46.715" lon="3.60978">
        <ele>215.47</ele>
        <time>2014-07-08T13:35:42Z</time>
      </trkpt>
      <trkpt lat="46.71509" lon="3.60977">
        <ele>214.51</ele>
        <time>2014-07-08T13:35:44Z</time>
      </trkpt>
      <trkpt lat="46.71517" lon="3.60976">
        <ele>214.51</ele>
        <time>2014-07-08T13:35:46Z</time>
      </trkpt>
      <trkpt lat="46.71584" lon="3.60973">
        <ele>215.47</ele>
        <time>2014-07-08T13:36:02Z</time>
      </trkpt>
      <trkpt lat="46.7165" lon="3.6098">
        <ele>215.95</ele>
        <time>2014-07-08T13:36:20Z</time>
      </trkpt>
      <trkpt lat="46.71701" lon="3.60969">
        <ele>214.99</ele>
        <time>2014-07-08T13:36:33Z</time>
      </trkpt>
      <trkpt lat="46.71753" lon="3.60926">
        <ele>215.95</ele>
        <time>2014-07-08T13:36:48Z</time>
      </trkpt>
      <trkpt lat="46.71801" lon="3.60866">
        <ele>215.47</ele>
        <time>2014-07-08T13:37:04Z</time>
      </trkpt>
      <trkpt lat="46.71808" lon="3.60858">
        <ele>216.91</ele>
        <time>2014-07-08T13:37:06Z</time>
      </trkpt>
      <trkpt lat="46.71873" lon="3.6078">
        <ele>214.99</ele>
        <time>2014-07-08T13:37:26Z</time>
      </trkpt>
      <trkpt lat="46.71918" lon="3.60725">
        <ele>216.43</ele>
        <time>2014-07-08T13:37:42Z</time>
      </trkpt>
      <trkpt lat="46.71965" lon="3.60668">
        <ele>216.43</ele>
        <time>2014-07-08T13:37:58Z</time>
      </trkpt>
      <trkpt lat="46.72018" lon="3.60605">
        <ele>217.4</ele>
        <time>2014-07-08T13:38:17Z</time>
      </trkpt>
      <trkpt lat="46.72065" lon="3.60547">
        <ele>217.4</ele>
        <time>2014-07-08T13:38:33Z</time>
      </trkpt>
      <trkpt lat="46.7211" lon="3.6048">
        <ele>214.03</ele>
        <time>2014-07-08T13:38:45Z</time>
      </trkpt>
      <trkpt lat="46.72124" lon="3.60458">
        <ele>213.55</ele>
        <time>2014-07-08T13:38:48Z</time>
      </trkpt>
      <trkpt lat="46.72172" lon="3.60419">
        <ele>213.07</ele>
        <time>2014-07-08T13:38:57Z</time>
      </trkpt>
      <trkpt lat="46.72201" lon="3.60413">
        <ele>212.11</ele>
        <time>2014-07-08T13:39:02Z</time>
      </trkpt>
      <trkpt lat="46.72255" lon="3.60417">
        <ele>215.47</ele>
        <time>2014-07-08T13:39:15Z</time>
      </trkpt>
      <trkpt lat="46.72292" lon="3.60416">
        <ele>216.43</ele>
        <time>2014-07-08T13:39:30Z</time>
      </trkpt>
      <trkpt lat="46.7234" lon="3.60393">
        <ele>215.95</ele>
        <time>2014-07-08T13:39:44Z</time>
      </trkpt>
      <trkpt lat="46.724" lon="3.60331">
        <ele>216.43</ele>
        <time>2014-07-08T13:40:01Z</time>
      </trkpt>
      <trkpt lat="46.7244" lon="3.60288">
        <ele>216.43</ele>
        <time>2014-07-08T13:40:15Z</time>
      </trkpt>
      <trkpt lat="46.72508" lon="3.60219">
        <ele>215.47</ele>
        <time>2014-07-08T13:40:34Z</time>
      </trkpt>
      <trkpt lat="46.72575" lon="3.60171">
        <ele>213.07</ele>
        <time>2014-07-08T13:40:47Z</time>
      </trkpt>
      <trkpt lat="46.72596" lon="3.60145">
        <ele>213.07</ele>
        <time>2014-07-08T13:40:52Z</time>
      </trkpt>
      <trkpt lat="46.72639" lon="3.60068">
        <ele>213.55</ele>
        <time>2014-07-08T13:41:07Z</time>
      </trkpt>
      <trkpt lat="46.72659" lon="3.59978">
        <ele>213.55</ele>
        <time>2014-07-08T13:41:25Z</time>
      </trkpt>
      <trkpt lat="46.72661" lon="3.59969">
        <ele>213.55</ele>
        <time>2014-07-08T13:41:28Z</time>
      </trkpt>
      <trkpt lat="46.72669" lon="3.59964">
        <ele>213.55</ele>
        <time>2014-07-08T13:41:39Z</time>
      </trkpt>
      <trkpt lat="46.72668" lon="3.59968">
        <ele>213.55</ele>
        <time>2014-07-08T13:42:01Z</time>
      </trkpt>
      <trkpt lat="46.72666" lon="3.59968">
        <ele>213.55</ele>
        <time>2014-07-08T13:42:31Z</time>
      </trkpt>
      <trkpt lat="46.72666" lon="3.59968">
        <ele>213.55</ele>
        <time>2014-07-08T13:42:55Z</time>
      </trkpt>
      <trkpt lat="46.72668" lon="3.59967">
        <ele>213.55</ele>
        <time>2014-07-08T13:43:27Z</time>
      </trkpt>
      <trkpt lat="46.7267" lon="3.59965">
        <ele>213.55</ele>
        <time>2014-07-08T13:44:03Z</time>
      </trkpt>
      <trkpt lat="46.72668" lon="3.59965">
        <ele>213.55</ele>
        <time>2014-07-08T13:44:33Z</time>
      </trkpt>
      <trkpt lat="46.72667" lon="3.59963">
        <ele>213.55</ele>
        <time>2014-07-08T13:45:11Z</time>
      </trkpt>
      <trkpt lat="46.72668" lon="3.59965">
        <ele>213.55</ele>
        <time>2014-07-08T13:45:37Z</time>
      </trkpt>
      <trkpt lat="46.72667" lon="3.59964">
        <ele>213.55</ele>
        <time>2014-07-08T13:46:03Z</time>
      </trkpt>
      <trkpt lat="46.72667" lon="3.59966">
        <ele>213.55</ele>
        <time>2014-07-08T13:46:34Z</time>
      </trkpt>
      <trkpt lat="46.72668" lon="3.59965">
        <ele>213.55</ele>
        <time>2014-07-08T13:47:05Z</time>
      </trkpt>
      <trkpt lat="46.72669" lon="3.59963">
        <ele>213.07</ele>
        <time>2014-07-08T13:47:43Z</time>
      </trkpt>
      <trkpt lat="46.72668" lon="3.59964">
        <ele>213.55</ele>
        <time>2014-07-08T13:48:08Z</time>
      </trkpt>
      <trkpt lat="46.72666" lon="3.59964">
        <ele>213.55</ele>
        <time>2014-07-08T13:48:39Z</time>
      </trkpt>
      <trkpt lat="46.72668" lon="3.59965">
        <ele>213.55</ele>
        <time>2014-07-08T13:49:10Z</time>
      </trkpt>
      <trkpt lat="46.72669" lon="3.59966">
        <ele>213.55</ele>
        <time>2014-07-08T13:49:47Z</time>
      </trkpt>
      <trkpt lat="46.72672" lon="3.59967">
        <ele>213.55</ele>
        <time>2014-07-08T13:50:25Z</time>
      </trkpt>
      <trkpt lat="46.72673" lon="3.59968">
        <ele>213.55</ele>
        <time>2014-07-08T13:50:57Z</time>
      </trkpt>
      <trkpt lat="46.72673" lon="3.59968">
        <ele>213.55</ele>
        <time>2014-07-08T13:51:29Z</time>
      </trkpt>
      <trkpt lat="46.72673" lon="3.59967">
        <ele>213.55</ele>
        <time>2014-07-08T13:51:59Z</time>
      </trkpt>
      <trkpt lat="46.72673" lon="3.59964">
        <ele>213.55</ele>
        <time>2014-07-08T13:52:39Z</time>
      </trkpt>
      <trkpt lat="46.72673" lon="3.59965">
        <ele>213.55</ele>
        <time>2014-07-08T13:53:15Z</time>
      </trkpt>
      <trkpt lat="46.72675" lon="3.59963">
        <ele>213.55</ele>
        <time>2014-07-08T13:53:55Z</time>
      </trkpt>
      <trkpt lat="46.72674" lon="3.59962">
        <ele>213.55</ele>
        <time>2014-07-08T13:54:29Z</time>
      </trkpt>
      <trkpt lat="46.72672" lon="3.59962">
        <ele>213.55</ele>
        <time>2014-07-08T13:55:10Z</time>
      </trkpt>
      <trkpt lat="46.72671" lon="3.59963">
        <ele>213.55</ele>
        <time>2014-07-08T13:55:48Z</time>
      </trkpt>
      <trkpt lat="46.72671" lon="3.59964">
        <ele>213.55</ele>
        <time>2014-07-08T13:56:26Z</time>
      </trkpt>
      <trkpt lat="46.72672" lon="3.59964">
        <ele>213.07</ele>
        <time>2014-07-08T13:57:05Z</time>
      </trkpt>
      <trkpt lat="46.72674" lon="3.59967">
        <ele>213.07</ele>
        <time>2014-07-08T13:57:39Z</time>
      </trkpt>
      <trkpt lat="46.72673" lon="3.59965">
        <ele>213.07</ele>
        <time>2014-07-08T13:58:23Z</time>
      </trkpt>
      <trkpt lat="46.72674" lon="3.59965">
        <ele>213.07</ele>
        <time>2014-07-08T13:59:00Z</time>
      </trkpt>
      <trkpt lat="46.72675" lon="3.59965">
        <ele>213.07</ele>
        <time>2014-07-08T13:59:29Z</time>
      </trkpt>
      <trkpt lat="46.72675" lon="3.59965">
        <ele>213.07</ele>
        <time>2014-07-08T13:59:54Z</time>
      </trkpt>
      <trkpt lat="46.72671" lon="3.59962">
        <ele>213.07</ele>
        <time>2014-07-08T14:00:37Z</time>
      </trkpt>
      <trkpt lat="46.72672" lon="3.59963">
        <ele>213.07</ele>
        <time>2014-07-08T14:01:11Z</time>
      </trkpt>
      <trkpt lat="46.7267" lon="3.59964">
        <ele>213.07</ele>
        <time>2014-07-08T14:01:58Z</time>
      </trkpt>
      <trkpt lat="46.72673" lon="3.59965">
        <ele>213.07</ele>
        <time>2014-07-08T14:02:40Z</time>
      </trkpt>
      <trkpt lat="46.72674" lon="3.59966">
        <ele>212.59</ele>
        <time>2014-07-08T14:03:13Z</time>
      </trkpt>
      <trkpt lat="46.72674" lon="3.59965">
        <ele>212.59</ele>
        <time>2014-07-08T14:03:48Z</time>
      </trkpt>
      <trkpt lat="46.72673" lon="3.59963">
        <ele>212.59</ele>
        <time>2014-07-08T14:04:28Z</time>
      </trkpt>
      <trkpt lat="46.72673" lon="3.59962">
        <ele>212.59</ele>
        <time>2014-07-08T14:05:11Z</time>
      </trkpt>
      <trkpt lat="46.72672" lon="3.59964">
        <ele>212.59</ele>
        <time>2014-07-08T14:05:52Z</time>
      </trkpt>
      <trkpt lat="46.72671" lon="3.59963">
        <ele>212.59</ele>
        <time>2014-07-08T14:06:29Z</time>
      </trkpt>
      <trkpt lat="46.7267" lon="3.59964">
        <ele>212.59</ele>
        <time>2014-07-08T14:07:17Z</time>
      </trkpt>
      <trkpt lat="46.72672" lon="3.59966">
        <ele>212.59</ele>
        <time>2014-07-08T14:08:01Z</time>
      </trkpt>
      <trkpt lat="46.72671" lon="3.59964">
        <ele>212.11</ele>
        <time>2014-07-08T14:08:41Z</time>
      </trkpt>
      <trkpt lat="46.72674" lon="3.59966">
        <ele>212.11</ele>
        <time>2014-07-08T14:09:23Z</time>
      </trkpt>
      <trkpt lat="46.72674" lon="3.59966">
        <ele>212.11</ele>
        <time>2014-07-08T14:10:08Z</time>
      </trkpt>
      <trkpt lat="46.72674" lon="3.59966">
        <ele>212.11</ele>
        <time>2014-07-08T14:10:50Z</time>
      </trkpt>
      <trkpt lat="46.72674" lon="3.59965">
        <ele>212.11</ele>
        <time>2014-07-08T14:11:24Z</time>
      </trkpt>
      <trkpt lat="46.72674" lon="3.59967">
        <ele>212.11</ele>
        <time>2014-07-08T14:11:57Z</time>
      </trkpt>
      <trkpt lat="46.72673" lon="3.59964">
        <ele>212.59</ele>
        <time>2014-07-08T14:12:10Z</time>
      </trkpt>
      <trkpt lat="46.72675" lon="3.59942">
        <ele>212.59</ele>
        <time>2014-07-08T14:12:18Z</time>
      </trkpt>
      <trkpt lat="46.7269" lon="3.59897">
        <ele>212.59</ele>
        <time>2014-07-08T14:12:31Z</time>
      </trkpt>
      <trkpt lat="46.72698" lon="3.59857">
        <ele>212.11</ele>
        <time>2014-07-08T14:12:45Z</time>
      </trkpt>
      <trkpt lat="46.72686" lon="3.59794">
        <ele>211.15</ele>
        <time>2014-07-08T14:12:57Z</time>
      </trkpt>
      <trkpt lat="46.72682" lon="3.59739">
        <ele>210.19</ele>
        <time>2014-07-08T14:13:09Z</time>
      </trkpt>
      <trkpt lat="46.72696" lon="3.59733">
        <ele>210.19</ele>
        <time>2014-07-08T14:13:13Z</time>
      </trkpt>
      <trkpt lat="46.72715" lon="3.59737">
        <ele>209.7</ele>
        <time>2014-07-08T14:13:18Z</time>
      </trkpt>
      <trkpt lat="46.72774" lon="3.59784">
        <ele>210.67</ele>
        <time>2014-07-08T14:13:35Z</time>
      </trkpt>
      <trkpt lat="46.72798" lon="3.59808">
        <ele>211.63</ele>
        <time>2014-07-08T14:13:47Z</time>
      </trkpt>
      <trkpt lat="46.72824" lon="3.59842">
        <ele>210.19</ele>
        <time>2014-07-08T14:14:02Z</time>
      </trkpt>
      <trkpt lat="46.72848" lon="3.59882">
        <ele>208.74</ele>
        <time>2014-07-08T14:14:10Z</time>
      </trkpt>
      <trkpt lat="46.72862" lon="3.59914">
        <ele>207.78</ele>
        <time>2014-07-08T14:14:15Z</time>
      </trkpt>
      <trkpt lat="46.72886" lon="3.60004">
        <ele>207.78</ele>
        <time>2014-07-08T14:14:29Z</time>
      </trkpt>
      <trkpt lat="46.72921" lon="3.60128">
        <ele>208.26</ele>
        <time>2014-07-08T14:14:48Z</time>
      </trkpt>
      <trkpt lat="46.72957" lon="3.60262">
        <ele>208.26</ele>
        <time>2014-07-08T14:15:08Z</time>
      </trkpt>
      <trkpt lat="46.72984" lon="3.60362">
        <ele>209.7</ele>
        <time>2014-07-08T14:15:23Z</time>
      </trkpt>
      <trkpt lat="46.73018" lon="3.60484">
        <ele>208.26</ele>
        <time>2014-07-08T14:15:42Z</time>
      </trkpt>
      <trkpt lat="46.7302" lon="3.6049">
        <ele>208.74</ele>
        <time>2014-07-08T14:15:43Z</time>
      </trkpt>
      <trkpt lat="46.73049" lon="3.60592">
        <ele>208.74</ele>
        <time>2014-07-08T14:16:01Z</time>
      </trkpt>
      <trkpt lat="46.73079" lon="3.60703">
        <ele>208.26</ele>
        <time>2014-07-08T14:16:19Z</time>
      </trkpt>
      <trkpt lat="46.73107" lon="3.60832">
        <ele>208.26</ele>
        <time>2014-07-08T14:16:39Z</time>
      </trkpt>
      <trkpt lat="46.73114" lon="3.60934">
        <ele>208.26</ele>
        <time>2014-07-08T14:16:54Z</time>
      </trkpt>
      <trkpt lat="46.73114" lon="3.60941">
        <ele>208.26</ele>
        <time>2014-07-08T14:16:55Z</time>
      </trkpt>
      <trkpt lat="46.73117" lon="3.60968">
        <ele>208.74</ele>
        <time>2014-07-08T14:16:59Z</time>
      </trkpt>
      <trkpt lat="46.73118" lon="3.60982">
        <ele>208.74</ele>
        <time>2014-07-08T14:17:01Z</time>
      </trkpt>
      <trkpt lat="46.73131" lon="3.61125">
        <ele>208.74</ele>
        <time>2014-07-08T14:17:23Z</time>
      </trkpt>
      <trkpt lat="46.73138" lon="3.61184">
        <ele>208.74</ele>
        <time>2014-07-08T14:17:33Z</time>
      </trkpt>
      <trkpt lat="46.73148" lon="3.61274">
        <ele>208.26</ele>
        <time>2014-07-08T14:17:48Z</time>
      </trkpt>
      <trkpt lat="46.73144" lon="3.61297">
        <ele>208.26</ele>
        <time>2014-07-08T14:17:52Z</time>
      </trkpt>
      <trkpt lat="46.73131" lon="3.61323">
        <ele>208.74</ele>
        <time>2014-07-08T14:17:57Z</time>
      </trkpt>
      <trkpt lat="46.73127" lon="3.61354">
        <ele>208.74</ele>
        <time>2014-07-08T14:18:02Z</time>
      </trkpt>
      <trkpt lat="46.73123" lon="3.61455">
        <ele>208.26</ele>
        <time>2014-07-08T14:18:18Z</time>
      </trkpt>
      <trkpt lat="46.73118" lon="3.61511">
        <ele>208.74</ele>
        <time>2014-07-08T14:18:26Z</time>
      </trkpt>
      <trkpt lat="46.73116" lon="3.61537">
        <ele>209.22</ele>
        <time>2014-07-08T14:18:30Z</time>
      </trkpt>
      <trkpt lat="46.7311" lon="3.61616">
        <ele>208.74</ele>
        <time>2014-07-08T14:18:45Z</time>
      </trkpt>
      <trkpt lat="46.73112" lon="3.61709">
        <ele>209.22</ele>
        <time>2014-07-08T14:19:01Z</time>
      </trkpt>
      <trkpt lat="46.73115" lon="3.61747">
        <ele>209.22</ele>
        <time>2014-07-08T14:19:07Z</time>
      </trkpt>
      <trkpt lat="46.73128" lon="3.61876">
        <ele>209.22</ele>
        <time>2014-07-08T14:19:27Z</time>
      </trkpt>
      <trkpt lat="46.73158" lon="3.61993">
        <ele>208.74</ele>
        <time>2014-07-08T14:19:45Z</time>
      </trkpt>
      <trkpt lat="46.73162" lon="3.62013">
        <ele>208.74</ele>
        <time>2014-07-08T14:19:48Z</time>
      </trkpt>
      <trkpt lat="46.73166" lon="3.62032">
        <ele>208.74</ele>
        <time>2014-07-08T14:19:51Z</time>
      </trkpt>
      <trkpt lat="46.73165" lon="3.62052">
        <ele>208.26</ele>
        <time>2014-07-08T14:19:54Z</time>
      </trkpt>
      <trkpt lat="46.73128" lon="3.62159">
        <ele>207.78</ele>
        <time>2014-07-08T14:20:11Z</time>
      </trkpt>
      <trkpt lat="46.73084" lon="3.62248">
        <ele>208.26</ele>
        <time>2014-07-08T14:20:27Z</time>
      </trkpt>
      <trkpt lat="46.7307" lon="3.62273">
        <ele>208.74</ele>
        <time>2014-07-08T14:20:32Z</time>
      </trkpt>
      <trkpt lat="46.73028" lon="3.62385">
        <ele>209.22</ele>
        <time>2014-07-08T14:20:51Z</time>
      </trkpt>
      <trkpt lat="46.72999" lon="3.62496">
        <ele>209.7</ele>
        <time>2014-07-08T14:21:08Z</time>
      </trkpt>
      <trkpt lat="46.72973" lon="3.62608">
        <ele>210.67</ele>
        <time>2014-07-08T14:21:25Z</time>
      </trkpt>
      <trkpt lat="46.72949" lon="3.62751">
        <ele>209.22</ele>
        <time>2014-07-08T14:21:46Z</time>
      </trkpt>
      <trkpt lat="46.72946" lon="3.62768">
        <ele>209.7</ele>
        <time>2014-07-08T14:21:49Z</time>
      </trkpt>
      <trkpt lat="46.72942" lon="3.62793">
        <ele>209.22</ele>
        <time>2014-07-08T14:21:53Z</time>
      </trkpt>
      <trkpt lat="46.72927" lon="3.62873">
        <ele>208.74</ele>
        <time>2014-07-08T14:22:05Z</time>
      </trkpt>
      <trkpt lat="46.72909" lon="3.62908">
        <ele>208.74</ele>
        <time>2014-07-08T14:22:11Z</time>
      </trkpt>
      <trkpt lat="46.72849" lon="3.62955">
        <ele>208.74</ele>
        <time>2014-07-08T14:22:27Z</time>
      </trkpt>
      <trkpt lat="46.7284" lon="3.6296">
        <ele>208.74</ele>
        <time>2014-07-08T14:22:32Z</time>
      </trkpt>
      <trkpt lat="46.7284" lon="3.62975">
        <ele>208.74</ele>
        <time>2014-07-08T14:22:36Z</time>
      </trkpt>
      <trkpt lat="46.72869" lon="3.63068">
        <ele>207.3</ele>
        <time>2014-07-08T14:22:50Z</time>
      </trkpt>
      <trkpt lat="46.72916" lon="3.63229">
        <ele>206.82</ele>
        <time>2014-07-08T14:23:12Z</time>
      </trkpt>
      <trkpt lat="46.72963" lon="3.63393">
        <ele>208.26</ele>
        <time>2014-07-08T14:23:34Z</time>
      </trkpt>
      <trkpt lat="46.7299" lon="3.63489">
        <ele>210.67</ele>
        <time>2014-07-08T14:23:52Z</time>
      </trkpt>
      <trkpt lat="46.73011" lon="3.63559">
        <ele>212.11</ele>
        <time>2014-07-08T14:24:08Z</time>
      </trkpt>
      <trkpt lat="46.7304" lon="3.63657">
        <ele>213.55</ele>
        <time>2014-07-08T14:24:29Z</time>
      </trkpt>
      <trkpt lat="46.7307" lon="3.63759">
        <ele>213.55</ele>
        <time>2014-07-08T14:24:48Z</time>
      </trkpt>
      <trkpt lat="46.7309" lon="3.63827">
        <ele>213.55</ele>
        <time>2014-07-08T14:24:59Z</time>
      </trkpt>
      <trkpt lat="46.73127" lon="3.63959">
        <ele>211.15</ele>
        <time>2014-07-08T14:25:17Z</time>
      </trkpt>
      <trkpt lat="46.7316" lon="3.64072">
        <ele>207.78</ele>
        <time>2014-07-08T14:25:28Z</time>
      </trkpt>
      <trkpt lat="46.73167" lon="3.64092">
        <ele>207.3</ele>
        <time>2014-07-08T14:25:30Z</time>
      </trkpt>
      <trkpt lat="46.73193" lon="3.64124">
        <ele>206.82</ele>
        <time>2014-07-08T14:25:36Z</time>
      </trkpt>
      <trkpt lat="46.7327" lon="3.64179">
        <ele>206.34</ele>
        <time>2014-07-08T14:25:54Z</time>
      </trkpt>
      <trkpt lat="46.73316" lon="3.64215">
        <ele>206.34</ele>
        <time>2014-07-08T14:26:07Z</time>
      </trkpt>
      <trkpt lat="46.73388" lon="3.64269">
        <ele>206.34</ele>
        <time>2014-07-08T14:26:25Z</time>
      </trkpt>
      <trkpt lat="46.73465" lon="3.64326">
        <ele>206.34</ele>
        <time>2014-07-08T14:26:42Z</time>
      </trkpt>
      <trkpt lat="46.7356" lon="3.64398">
        <ele>205.86</ele>
        <time>2014-07-08T14:27:02Z</time>
      </trkpt>
      <trkpt lat="46.73654" lon="3.64469">
        <ele>205.86</ele>
        <time>2014-07-08T14:27:21Z</time>
      </trkpt>
      <trkpt lat="46.73757" lon="3.64546">
        <ele>206.34</ele>
        <time>2014-07-08T14:27:42Z</time>
      </trkpt>
      <trkpt lat="46.73821" lon="3.64596">
        <ele>206.34</ele>
        <time>2014-07-08T14:27:56Z</time>
      </trkpt>
      <trkpt lat="46.73891" lon="3.6465">
        <ele>206.34</ele>
        <time>2014-07-08T14:28:11Z</time>
      </trkpt>
      <trkpt lat="46.73978" lon="3.64715">
        <ele>206.34</ele>
        <time>2014-07-08T14:28:30Z</time>
      </trkpt>
      <trkpt lat="46.74047" lon="3.64767">
        <ele>206.34</ele>
        <time>2014-07-08T14:28:46Z</time>
      </trkpt>
      <trkpt lat="46.74122" lon="3.64823">
        <ele>206.34</ele>
        <time>2014-07-08T14:29:03Z</time>
      </trkpt>
      <trkpt lat="46.7419" lon="3.64874">
        <ele>206.82</ele>
        <time>2014-07-08T14:29:19Z</time>
      </trkpt>
      <trkpt lat="46.74269" lon="3.64934">
        <ele>206.82</ele>
        <time>2014-07-08T14:29:38Z</time>
      </trkpt>
      <trkpt lat="46.74333" lon="3.64982">
        <ele>206.34</ele>
        <time>2014-07-08T14:29:52Z</time>
      </trkpt>
      <trkpt lat="46.74353" lon="3.64998">
        <ele>206.82</ele>
        <time>2014-07-08T14:29:57Z</time>
      </trkpt>
      <trkpt lat="46.74399" lon="3.65031">
        <ele>206.34</ele>
        <time>2014-07-08T14:30:10Z</time>
      </trkpt>
      <trkpt lat="46.74473" lon="3.65089">
        <ele>206.82</ele>
        <time>2014-07-08T14:30:28Z</time>
      </trkpt>
      <trkpt lat="46.74489" lon="3.65099">
        <ele>207.3</ele>
        <time>2014-07-08T14:30:32Z</time>
      </trkpt>
      <trkpt lat="46.74537" lon="3.65138">
        <ele>208.26</ele>
        <time>2014-07-08T14:30:49Z</time>
      </trkpt>
      <trkpt lat="46.74546" lon="3.65146">
        <ele>208.74</ele>
        <time>2014-07-08T14:30:55Z</time>
      </trkpt>
      <trkpt lat="46.7455" lon="3.6514">
        <ele>208.74</ele>
        <time>2014-07-08T14:31:10Z</time>
      </trkpt>
      <trkpt lat="46.74551" lon="3.6514">
        <ele>208.74</ele>
        <time>2014-07-08T14:31:39Z</time>
      </trkpt>
      <trkpt lat="46.74551" lon="3.65139">
        <ele>208.74</ele>
        <time>2014-07-08T14:31:52Z</time>
      </trkpt>
      <trkpt lat="46.74551" lon="3.65138">
        <ele>208.74</ele>
        <time>2014-07-08T14:32:16Z</time>
      </trkpt>
      <trkpt lat="46.74551" lon="3.65139">
        <ele>208.74</ele>
        <time>2014-07-08T14:32:44Z</time>
      </trkpt>
      <trkpt lat="46.74551" lon="3.65139">
        <ele>208.26</ele>
        <time>2014-07-08T14:33:18Z</time>
      </trkpt>
      <trkpt lat="46.74552" lon="3.65139">
        <ele>208.74</ele>
        <time>2014-07-08T14:33:51Z</time>
      </trkpt>
      <trkpt lat="46.7455" lon="3.65139">
        <ele>208.26</ele>
        <time>2014-07-08T14:34:25Z</time>
      </trkpt>
      <trkpt lat="46.74548" lon="3.65139">
        <ele>208.26</ele>
        <time>2014-07-08T14:35:06Z</time>
      </trkpt>
      <trkpt lat="46.74548" lon="3.65139">
        <ele>208.74</ele>
        <time>2014-07-08T14:35:32Z</time>
      </trkpt>
      <trkpt lat="46.74546" lon="3.6514">
        <ele>208.26</ele>
        <time>2014-07-08T14:35:56Z</time>
      </trkpt>
      <trkpt lat="46.74547" lon="3.6514">
        <ele>208.26</ele>
        <time>2014-07-08T14:36:27Z</time>
      </trkpt>
      <trkpt lat="46.74549" lon="3.65142">
        <ele>208.26</ele>
        <time>2014-07-08T14:36:50Z</time>
      </trkpt>
      <trkpt lat="46.74548" lon="3.65139">
        <ele>208.26</ele>
        <time>2014-07-08T14:37:22Z</time>
      </trkpt>
      <trkpt lat="46.74548" lon="3.6514">
        <ele>209.7</ele>
        <time>2014-07-08T14:37:32Z</time>
      </trkpt>
      <trkpt lat="46.74548" lon="3.6514">
        <ele>208.26</ele>
        <time>2014-07-08T14:37:34Z</time>
      </trkpt>
      <trkpt lat="46.74548" lon="3.65141">
        <ele>208.26</ele>
        <time>2014-07-08T14:38:15Z</time>
      </trkpt>
      <trkpt lat="46.74548" lon="3.65139">
        <ele>207.78</ele>
        <time>2014-07-08T14:38:55Z</time>
      </trkpt>
      <trkpt lat="46.74548" lon="3.6514">
        <ele>208.26</ele>
        <time>2014-07-08T14:39:26Z</time>
      </trkpt>
      <trkpt lat="46.74548" lon="3.65139">
        <ele>208.26</ele>
        <time>2014-07-08T14:39:57Z</time>
      </trkpt>
      <trkpt lat="46.74548" lon="3.65139">
        <ele>208.26</ele>
        <time>2014-07-08T14:40:52Z</time>
      </trkpt>
      <trkpt lat="46.74549" lon="3.65137">
        <ele>208.26</ele>
        <time>2014-07-08T14:41:28Z</time>
      </trkpt>
      <trkpt lat="46.74548" lon="3.65141">
        <ele>208.74</ele>
        <time>2014-07-08T14:42:05Z</time>
      </trkpt>
      <trkpt lat="46.74549" lon="3.6514">
        <ele>208.74</ele>
        <time>2014-07-08T14:42:37Z</time>
      </trkpt>
      <trkpt lat="46.74551" lon="3.65141">
        <ele>208.74</ele>
        <time>2014-07-08T14:43:10Z</time>
      </trkpt>
      <trkpt lat="46.74549" lon="3.6514">
        <ele>208.74</ele>
        <time>2014-07-08T14:43:46Z</time>
      </trkpt>
      <trkpt lat="46.74549" lon="3.65142">
        <ele>208.74</ele>
        <time>2014-07-08T14:44:11Z</time>
      </trkpt>
      <trkpt lat="46.7455" lon="3.65141">
        <ele>208.74</ele>
        <time>2014-07-08T14:44:47Z</time>
      </trkpt>
      <trkpt lat="46.7455" lon="3.65142">
        <ele>209.22</ele>
        <time>2014-07-08T14:45:25Z</time>
      </trkpt>
      <trkpt lat="46.74549" lon="3.6514">
        <ele>210.67</ele>
        <time>2014-07-08T14:45:54Z</time>
      </trkpt>
      <trkpt lat="46.7455" lon="3.6514">
        <ele>209.22</ele>
        <time>2014-07-08T14:45:57Z</time>
      </trkpt>
      <trkpt lat="46.74549" lon="3.6514">
        <ele>208.74</ele>
        <time>2014-07-08T14:46:33Z</time>
      </trkpt>
      <trkpt lat="46.7455" lon="3.65141">
        <ele>208.74</ele>
        <time>2014-07-08T14:47:09Z</time>
      </trkpt>
      <trkpt lat="46.74549" lon="3.6514">
        <ele>208.74</ele>
        <time>2014-07-08T14:47:50Z</time>
      </trkpt>
      <trkpt lat="46.7455" lon="3.65141">
        <ele>208.74</ele>
        <time>2014-07-08T14:48:29Z</time>
      </trkpt>
      <trkpt lat="46.74549" lon="3.6514">
        <ele>208.74</ele>
        <time>2014-07-08T14:49:03Z</time>
      </trkpt>
      <trkpt lat="46.74549" lon="3.65141">
        <ele>208.74</ele>
        <time>2014-07-08T14:49:33Z</time>
      </trkpt>
      <trkpt lat="46.74551" lon="3.65141">
        <ele>208.74</ele>
        <time>2014-07-08T14:50:17Z</time>
      </trkpt>
      <trkpt lat="46.74551" lon="3.65141">
        <ele>208.26</ele>
        <time>2014-07-08T14:50:50Z</time>
      </trkpt>
      <trkpt lat="46.7455" lon="3.65137">
        <ele>208.74</ele>
        <time>2014-07-08T14:51:27Z</time>
      </trkpt>
      <trkpt lat="46.74579" lon="3.65104">
        <ele>208.26</ele>
        <time>2014-07-08T14:51:42Z</time>
      </trkpt>
      <trkpt lat="46.74616" lon="3.65062">
        <ele>208.26</ele>
        <time>2014-07-08T14:51:56Z</time>
      </trkpt>
      <trkpt lat="46.74665" lon="3.65009">
        <ele>208.26</ele>
        <time>2014-07-08T14:52:13Z</time>
      </trkpt>
      <trkpt lat="46.74702" lon="3.64971">
        <ele>208.74</ele>
        <time>2014-07-08T14:52:25Z</time>
      </trkpt>
      <trkpt lat="46.74745" lon="3.64926">
        <ele>208.74</ele>
        <time>2014-07-08T14:52:38Z</time>
      </trkpt>
      <trkpt lat="46.74814" lon="3.64853">
        <ele>208.74</ele>
        <time>2014-07-08T14:52:58Z</time>
      </trkpt>
      <trkpt lat="46.74884" lon="3.64777">
        <ele>208.74</ele>
        <time>2014-07-08T14:53:18Z</time>
      </trkpt>
      <trkpt lat="46.74924" lon="3.64734">
        <ele>208.74</ele>
        <time>2014-07-08T14:53:30Z</time>
      </trkpt>
      <trkpt lat="46.74991" lon="3.64662">
        <ele>208.74</ele>
        <time>2014-07-08T14:53:49Z</time>
      </trkpt>
      <trkpt lat="46.75002" lon="3.6465">
        <ele>208.74</ele>
        <time>2014-07-08T14:53:52Z</time>
      </trkpt>
      <trkpt lat="46.75065" lon="3.64583">
        <ele>207.78</ele>
        <time>2014-07-08T14:54:10Z</time>
      </trkpt>
      <trkpt lat="46.75126" lon="3.64518">
        <ele>207.78</ele>
        <time>2014-07-08T14:54:28Z</time>
      </trkpt>
      <trkpt lat="46.7519" lon="3.64447">
        <ele>206.82</ele>
        <time>2014-07-08T14:54:48Z</time>
      </trkpt>
      <trkpt lat="46.75259" lon="3.64375">
        <ele>206.82</ele>
        <time>2014-07-08T14:55:09Z</time>
      </trkpt>
      <trkpt lat="46.75339" lon="3.64288">
        <ele>206.82</ele>
        <time>2014-07-08T14:55:31Z</time>
      </trkpt>
      <trkpt lat="46.75405" lon="3.64216">
        <ele>206.82</ele>
        <time>2014-07-08T14:55:49Z</time>
      </trkpt>
      <trkpt lat="46.75489" lon="3.64124">
        <ele>206.34</ele>
        <time>2014-07-08T14:56:13Z</time>
      </trkpt>
      <trkpt lat="46.75563" lon="3.64044">
        <ele>207.3</ele>
        <time>2014-07-08T14:56:35Z</time>
      </trkpt>
      <trkpt lat="46.75623" lon="3.6398">
        <ele>207.3</ele>
        <time>2014-07-08T14:56:52Z</time>
      </trkpt>
      <trkpt lat="46.75692" lon="3.63904">
        <ele>207.3</ele>
        <time>2014-07-08T14:57:10Z</time>
      </trkpt>
      <trkpt lat="46.7578" lon="3.63809">
        <ele>207.3</ele>
        <time>2014-07-08T14:57:32Z</time>
      </trkpt>
      <trkpt lat="46.7585" lon="3.63734">
        <ele>206.82</ele>
        <time>2014-07-08T14:57:51Z</time>
      </trkpt>
      <trkpt lat="46.75931" lon="3.63646">
        <ele>206.82</ele>
        <time>2014-07-08T14:58:13Z</time>
      </trkpt>
      <trkpt lat="46.75995" lon="3.63579">
        <ele>207.3</ele>
        <time>2014-07-08T14:58:30Z</time>
      </trkpt>
      <trkpt lat="46.76074" lon="3.63493">
        <ele>207.3</ele>
        <time>2014-07-08T14:58:51Z</time>
      </trkpt>
      <trkpt lat="46.7609" lon="3.63476">
        <ele>205.86</ele>
        <time>2014-07-08T14:58:55Z</time>
      </trkpt>
      <trkpt lat="46.76127" lon="3.63436">
        <ele>207.3</ele>
        <time>2014-07-08T14:59:05Z</time>
      </trkpt>
      <trkpt lat="46.76201" lon="3.63357">
        <ele>206.82</ele>
        <time>2014-07-08T14:59:24Z</time>
      </trkpt>
      <trkpt lat="46.76272" lon="3.6328">
        <ele>207.3</ele>
        <time>2014-07-08T14:59:42Z</time>
      </trkpt>
      <trkpt lat="46.76356" lon="3.6319">
        <ele>206.82</ele>
        <time>2014-07-08T15:00:03Z</time>
      </trkpt>
      <trkpt lat="46.76429" lon="3.63111">
        <ele>206.82</ele>
        <time>2014-07-08T15:00:22Z</time>
      </trkpt>
      <trkpt lat="46.76507" lon="3.63026">
        <ele>206.34</ele>
        <time>2014-07-08T15:00:42Z</time>
      </trkpt>
      <trkpt lat="46.76567" lon="3.62963">
        <ele>206.34</ele>
        <time>2014-07-08T15:00:59Z</time>
      </trkpt>
      <trkpt lat="46.76641" lon="3.62882">
        <ele>206.82</ele>
        <time>2014-07-08T15:01:19Z</time>
      </trkpt>
      <trkpt lat="46.76714" lon="3.62804">
        <ele>206.82</ele>
        <time>2014-07-08T15:01:38Z</time>
      </trkpt>
      <trkpt lat="46.76795" lon="3.62718">
        <ele>206.82</ele>
        <time>2014-07-08T15:01:59Z</time>
      </trkpt>
      <trkpt lat="46.7687" lon="3.62637">
        <ele>206.34</ele>
        <time>2014-07-08T15:02:18Z</time>
      </trkpt>
      <trkpt lat="46.76943" lon="3.62559">
        <ele>206.34</ele>
        <time>2014-07-08T15:02:37Z</time>
      </trkpt>
      <trkpt lat="46.77017" lon="3.6248">
        <ele>206.82</ele>
        <time>2014-07-08T15:02:57Z</time>
      </trkpt>
      <trkpt lat="46.7706" lon="3.62435">
        <ele>206.82</ele>
        <time>2014-07-08T15:03:09Z</time>
      </trkpt>
      <trkpt lat="46.77123" lon="3.62367">
        <ele>205.86</ele>
        <time>2014-07-08T15:03:26Z</time>
      </trkpt>
      <trkpt lat="46.77205" lon="3.6228">
        <ele>206.34</ele>
        <time>2014-07-08T15:03:47Z</time>
      </trkpt>
      <trkpt lat="46.77282" lon="3.62196">
        <ele>206.34</ele>
        <time>2014-07-08T15:04:07Z</time>
      </trkpt>
      <trkpt lat="46.7735" lon="3.62125">
        <ele>205.86</ele>
        <time>2014-07-08T15:04:26Z</time>
      </trkpt>
      <trkpt lat="46.77428" lon="3.62043">
        <ele>205.86</ele>
        <time>2014-07-08T15:04:47Z</time>
      </trkpt>
      <trkpt lat="46.77497" lon="3.6197">
        <ele>205.38</ele>
        <time>2014-07-08T15:05:05Z</time>
      </trkpt>
      <trkpt lat="46.77572" lon="3.6189">
        <ele>205.38</ele>
        <time>2014-07-08T15:05:25Z</time>
      </trkpt>
      <trkpt lat="46.77647" lon="3.6181">
        <ele>205.38</ele>
        <time>2014-07-08T15:05:45Z</time>
      </trkpt>
      <trkpt lat="46.77724" lon="3.61727">
        <ele>205.38</ele>
        <time>2014-07-08T15:06:06Z</time>
      </trkpt>
      <trkpt lat="46.77802" lon="3.61645">
        <ele>204.9</ele>
        <time>2014-07-08T15:06:26Z</time>
      </trkpt>
      <trkpt lat="46.77858" lon="3.61585">
        <ele>205.38</ele>
        <time>2014-07-08T15:06:42Z</time>
      </trkpt>
      <trkpt lat="46.77927" lon="3.61511">
        <ele>205.38</ele>
        <time>2014-07-08T15:07:01Z</time>
      </trkpt>
      <trkpt lat="46.77998" lon="3.61435">
        <ele>205.38</ele>
        <time>2014-07-08T15:07:20Z</time>
      </trkpt>
      <trkpt lat="46.78068" lon="3.61359">
        <ele>205.86</ele>
        <time>2014-07-08T15:07:39Z</time>
      </trkpt>
      <trkpt lat="46.7809" lon="3.61334">
        <ele>205.86</ele>
        <time>2014-07-08T15:07:45Z</time>
      </trkpt>
      <trkpt lat="46.78162" lon="3.61257">
        <ele>205.86</ele>
        <time>2014-07-08T15:08:05Z</time>
      </trkpt>
      <trkpt lat="46.78249" lon="3.61165">
        <ele>205.86</ele>
        <time>2014-07-08T15:08:28Z</time>
      </trkpt>
      <trkpt lat="46.78326" lon="3.61082">
        <ele>205.86</ele>
        <time>2014-07-08T15:08:49Z</time>
      </trkpt>
      <trkpt lat="46.78392" lon="3.6101">
        <ele>205.86</ele>
        <time>2014-07-08T15:09:08Z</time>
      </trkpt>
      <trkpt lat="46.78402" lon="3.60999">
        <ele>205.86</ele>
        <time>2014-07-08T15:09:11Z</time>
      </trkpt>
      <trkpt lat="46.78465" lon="3.60935">
        <ele>206.34</ele>
        <time>2014-07-08T15:09:29Z</time>
      </trkpt>
      <trkpt lat="46.78516" lon="3.60882">
        <ele>206.34</ele>
        <time>2014-07-08T15:09:45Z</time>
      </trkpt>
      <trkpt lat="46.78565" lon="3.60831">
        <ele>206.34</ele>
        <time>2014-07-08T15:10:00Z</time>
      </trkpt>
      <trkpt lat="46.78647" lon="3.60743">
        <ele>206.82</ele>
        <time>2014-07-08T15:10:24Z</time>
      </trkpt>
      <trkpt lat="46.78709" lon="3.60677">
        <ele>205.86</ele>
        <time>2014-07-08T15:10:43Z</time>
      </trkpt>
      <trkpt lat="46.78753" lon="3.60629">
        <ele>206.34</ele>
        <time>2014-07-08T15:10:56Z</time>
      </trkpt>
      <trkpt lat="46.78804" lon="3.60577">
        <ele>206.34</ele>
        <time>2014-07-08T15:11:13Z</time>
      </trkpt>
      <trkpt lat="46.78814" lon="3.60566">
        <ele>206.34</ele>
        <time>2014-07-08T15:11:24Z</time>
      </trkpt>
      <trkpt lat="46.78812" lon="3.60563">
        <ele>206.34</ele>
        <time>2014-07-08T15:11:53Z</time>
      </trkpt>
      <trkpt lat="46.78802" lon="3.6054">
        <ele>205.86</ele>
        <time>2014-07-08T15:12:04Z</time>
      </trkpt>
      <trkpt lat="46.78793" lon="3.60459">
        <ele>205.38</ele>
        <time>2014-07-08T15:12:20Z</time>
      </trkpt>
      <trkpt lat="46.78801" lon="3.60359">
        <ele>204.42</ele>
        <time>2014-07-08T15:12:37Z</time>
      </trkpt>
      <trkpt lat="46.78802" lon="3.60353">
        <ele>204.42</ele>
        <time>2014-07-08T15:12:38Z</time>
      </trkpt>
      <trkpt lat="46.78803" lon="3.6034">
        <ele>204.42</ele>
        <time>2014-07-08T15:12:40Z</time>
      </trkpt>
      <trkpt lat="46.78803" lon="3.6032">
        <ele>204.42</ele>
        <time>2014-07-08T15:12:43Z</time>
      </trkpt>
      <trkpt lat="46.78791" lon="3.6025">
        <ele>203.94</ele>
        <time>2014-07-08T15:12:54Z</time>
      </trkpt>
      <trkpt lat="46.78786" lon="3.60176">
        <ele>203.94</ele>
        <time>2014-07-08T15:13:05Z</time>
      </trkpt>
      <trkpt lat="46.78793" lon="3.6012">
        <ele>203.94</ele>
        <time>2014-07-08T15:13:14Z</time>
      </trkpt>
      <trkpt lat="46.78808" lon="3.6">
        <ele>203.94</ele>
        <time>2014-07-08T15:13:32Z</time>
      </trkpt>
      <trkpt lat="46.78819" lon="3.59876">
        <ele>203.94</ele>
        <time>2014-07-08T15:13:51Z</time>
      </trkpt>
      <trkpt lat="46.78819" lon="3.5987">
        <ele>203.46</ele>
        <time>2014-07-08T15:13:52Z</time>
      </trkpt>
      <trkpt lat="46.78819" lon="3.59783">
        <ele>203.46</ele>
        <time>2014-07-08T15:14:08Z</time>
      </trkpt>
      <trkpt lat="46.78819" lon="3.59725">
        <ele>202.98</ele>
        <time>2014-07-08T15:14:19Z</time>
      </trkpt>
      <trkpt lat="46.78823" lon="3.59622">
        <ele>202.49</ele>
        <time>2014-07-08T15:14:35Z</time>
      </trkpt>
      <trkpt lat="46.78825" lon="3.59597">
        <ele>202.49</ele>
        <time>2014-07-08T15:14:39Z</time>
      </trkpt>
      <trkpt lat="46.78827" lon="3.59487">
        <ele>201.53</ele>
        <time>2014-07-08T15:14:57Z</time>
      </trkpt>
      <trkpt lat="46.78802" lon="3.5937">
        <ele>201.53</ele>
        <time>2014-07-08T15:15:16Z</time>
      </trkpt>
      <trkpt lat="46.78787" lon="3.59322">
        <ele>201.53</ele>
        <time>2014-07-08T15:15:24Z</time>
      </trkpt>
      <trkpt lat="46.78795" lon="3.59283">
        <ele>201.53</ele>
        <time>2014-07-08T15:15:31Z</time>
      </trkpt>
      <trkpt lat="46.78803" lon="3.59276">
        <ele>201.53</ele>
        <time>2014-07-08T15:15:33Z</time>
      </trkpt>
      <trkpt lat="46.78841" lon="3.59257">
        <ele>202.01</ele>
        <time>2014-07-08T15:15:42Z</time>
      </trkpt>
      <trkpt lat="46.78855" lon="3.59242">
        <ele>201.53</ele>
        <time>2014-07-08T15:15:46Z</time>
      </trkpt>
      <trkpt lat="46.78868" lon="3.59188">
        <ele>201.05</ele>
        <time>2014-07-08T15:15:55Z</time>
      </trkpt>
      <trkpt lat="46.78868" lon="3.59175">
        <ele>201.53</ele>
        <time>2014-07-08T15:15:57Z</time>
      </trkpt>
      <trkpt lat="46.78869" lon="3.5915">
        <ele>201.53</ele>
        <time>2014-07-08T15:16:01Z</time>
      </trkpt>
      <trkpt lat="46.78871" lon="3.59126">
        <ele>202.01</ele>
        <time>2014-07-08T15:16:05Z</time>
      </trkpt>
      <trkpt lat="46.78881" lon="3.59096">
        <ele>201.53</ele>
        <time>2014-07-08T15:16:10Z</time>
      </trkpt>
      <trkpt lat="46.78893" lon="3.59067">
        <ele>201.53</ele>
        <time>2014-07-08T15:16:15Z</time>
      </trkpt>
      <trkpt lat="46.78922" lon="3.58984">
        <ele>201.05</ele>
        <time>2014-07-08T15:16:32Z</time>
      </trkpt>
      <trkpt lat="46.78941" lon="3.58908">
        <ele>200.57</ele>
        <time>2014-07-08T15:16:47Z</time>
      </trkpt>
      <trkpt lat="46.78953" lon="3.58804">
        <ele>200.57</ele>
        <time>2014-07-08T15:17:05Z</time>
      </trkpt>
      <trkpt lat="46.78953" lon="3.58798">
        <ele>201.05</ele>
        <time>2014-07-08T15:17:06Z</time>
      </trkpt>
      <trkpt lat="46.78954" lon="3.58773">
        <ele>200.57</ele>
        <time>2014-07-08T15:17:10Z</time>
      </trkpt>
      <trkpt lat="46.78954" lon="3.58729">
        <ele>201.05</ele>
        <time>2014-07-08T15:17:17Z</time>
      </trkpt>
      <trkpt lat="46.78954" lon="3.58716">
        <ele>201.05</ele>
        <time>2014-07-08T15:17:19Z</time>
      </trkpt>
      <trkpt lat="46.78954" lon="3.58691">
        <ele>201.05</ele>
        <time>2014-07-08T15:17:23Z</time>
      </trkpt>
      <trkpt lat="46.7896" lon="3.58578">
        <ele>201.05</ele>
        <time>2014-07-08T15:17:41Z</time>
      </trkpt>
      <trkpt lat="46.78962" lon="3.58553">
        <ele>200.57</ele>
        <time>2014-07-08T15:17:45Z</time>
      </trkpt>
      <trkpt lat="46.78974" lon="3.58482">
        <ele>200.57</ele>
        <time>2014-07-08T15:17:56Z</time>
      </trkpt>
      <trkpt lat="46.78983" lon="3.58459">
        <ele>200.57</ele>
        <time>2014-07-08T15:18:00Z</time>
      </trkpt>
      <trkpt lat="46.79014" lon="3.58408">
        <ele>200.57</ele>
        <time>2014-07-08T15:18:11Z</time>
      </trkpt>
      <trkpt lat="46.79033" lon="3.58369">
        <ele>201.05</ele>
        <time>2014-07-08T15:18:19Z</time>
      </trkpt>
      <trkpt lat="46.79052" lon="3.58298">
        <ele>200.57</ele>
        <time>2014-07-08T15:18:31Z</time>
      </trkpt>
      <trkpt lat="46.79048" lon="3.58266">
        <ele>200.57</ele>
        <time>2014-07-08T15:18:36Z</time>
      </trkpt>
      <trkpt lat="46.79031" lon="3.58218">
        <ele>200.57</ele>
        <time>2014-07-08T15:18:44Z</time>
      </trkpt>
      <trkpt lat="46.79032" lon="3.58139">
        <ele>201.05</ele>
        <time>2014-07-08T15:18:56Z</time>
      </trkpt>
      <trkpt lat="46.79041" lon="3.58115">
        <ele>200.57</ele>
        <time>2014-07-08T15:19:00Z</time>
      </trkpt>
      <trkpt lat="46.79047" lon="3.58105">
        <ele>200.57</ele>
        <time>2014-07-08T15:19:02Z</time>
      </trkpt>
      <trkpt lat="46.79049" lon="3.58061">
        <ele>200.09</ele>
        <time>2014-07-08T15:19:09Z</time>
      </trkpt>
      <trkpt lat="46.79044" lon="3.58049">
        <ele>200.09</ele>
        <time>2014-07-08T15:19:11Z</time>
      </trkpt>
      <trkpt lat="46.79046" lon="3.58011">
        <ele>200.57</ele>
        <time>2014-07-08T15:19:17Z</time>
      </trkpt>
      <trkpt lat="46.79052" lon="3.58">
        <ele>200.57</ele>
        <time>2014-07-08T15:19:19Z</time>
      </trkpt>
      <trkpt lat="46.79058" lon="3.57982">
        <ele>200.57</ele>
        <time>2014-07-08T15:19:22Z</time>
      </trkpt>
      <trkpt lat="46.79056" lon="3.57949">
        <ele>200.57</ele>
        <time>2014-07-08T15:19:27Z</time>
      </trkpt>
      <trkpt lat="46.79041" lon="3.57922">
        <ele>200.09</ele>
        <time>2014-07-08T15:19:32Z</time>
      </trkpt>
      <trkpt lat="46.79002" lon="3.57872">
        <ele>200.57</ele>
        <time>2014-07-08T15:19:43Z</time>
      </trkpt>
      <trkpt lat="46.78995" lon="3.57863">
        <ele>200.57</ele>
        <time>2014-07-08T15:19:45Z</time>
      </trkpt>
      <trkpt lat="46.78985" lon="3.57841">
        <ele>200.09</ele>
        <time>2014-07-08T15:19:49Z</time>
      </trkpt>
      <trkpt lat="46.7898" lon="3.57831">
        <ele>201.05</ele>
        <time>2014-07-08T15:19:51Z</time>
      </trkpt>
      <trkpt lat="46.78944" lon="3.57757">
        <ele>200.57</ele>
        <time>2014-07-08T15:20:08Z</time>
      </trkpt>
      <trkpt lat="46.78907" lon="3.57681">
        <ele>200.57</ele>
        <time>2014-07-08T15:20:25Z</time>
      </trkpt>
      <trkpt lat="46.78888" lon="3.57607">
        <ele>199.61</ele>
        <time>2014-07-08T15:20:38Z</time>
      </trkpt>
      <trkpt lat="46.78866" lon="3.57515">
        <ele>200.09</ele>
        <time>2014-07-08T15:20:54Z</time>
      </trkpt>
      <trkpt lat="46.78825" lon="3.57431">
        <ele>200.09</ele>
        <time>2014-07-08T15:21:11Z</time>
      </trkpt>
      <trkpt lat="46.78779" lon="3.57335">
        <ele>200.09</ele>
        <time>2014-07-08T15:21:30Z</time>
      </trkpt>
      <trkpt lat="46.78766" lon="3.57266">
        <ele>200.09</ele>
        <time>2014-07-08T15:21:42Z</time>
      </trkpt>
      <trkpt lat="46.78764" lon="3.57255">
        <ele>200.09</ele>
        <time>2014-07-08T15:21:44Z</time>
      </trkpt>
      <trkpt lat="46.78756" lon="3.57191">
        <ele>200.57</ele>
        <time>2014-07-08T15:21:55Z</time>
      </trkpt>
      <trkpt lat="46.78743" lon="3.57073">
        <ele>200.57</ele>
        <time>2014-07-08T15:22:14Z</time>
      </trkpt>
      <trkpt lat="46.7874" lon="3.56966">
        <ele>200.57</ele>
        <time>2014-07-08T15:22:31Z</time>
      </trkpt>
      <trkpt lat="46.78772" lon="3.56966">
        <ele>200.57</ele>
        <time>2014-07-08T15:22:41Z</time>
      </trkpt>
      <trkpt lat="46.78778" lon="3.56969">
        <ele>200.57</ele>
        <time>2014-07-08T15:22:43Z</time>
      </trkpt>
      <trkpt lat="46.78814" lon="3.56972">
        <ele>200.57</ele>
        <time>2014-07-08T15:22:54Z</time>
      </trkpt>
      <trkpt lat="46.78825" lon="3.56939">
        <ele>200.57</ele>
        <time>2014-07-08T15:23:00Z</time>
      </trkpt>
      <trkpt lat="46.78845" lon="3.56879">
        <ele>200.09</ele>
        <time>2014-07-08T15:23:12Z</time>
      </trkpt>
      <trkpt lat="46.78861" lon="3.56876">
        <ele>200.57</ele>
        <time>2014-07-08T15:23:16Z</time>
      </trkpt>
      <trkpt lat="46.78887" lon="3.56895">
        <ele>200.57</ele>
        <time>2014-07-08T15:23:23Z</time>
      </trkpt>
      <trkpt lat="46.78895" lon="3.569">
        <ele>200.57</ele>
        <time>2014-07-08T15:23:25Z</time>
      </trkpt>
      <trkpt lat="46.78903" lon="3.56906">
        <ele>200.57</ele>
        <time>2014-07-08T15:23:27Z</time>
      </trkpt>
      <trkpt lat="46.7892" lon="3.56914">
        <ele>200.57</ele>
        <time>2014-07-08T15:23:31Z</time>
      </trkpt>
      <trkpt lat="46.78961" lon="3.56934">
        <ele>200.57</ele>
        <time>2014-07-08T15:23:40Z</time>
      </trkpt>
      <trkpt lat="46.7898" lon="3.56933">
        <ele>199.61</ele>
        <time>2014-07-08T15:23:44Z</time>
      </trkpt>
      <trkpt lat="46.78994" lon="3.56924">
        <ele>199.61</ele>
        <time>2014-07-08T15:23:47Z</time>
      </trkpt>
      <trkpt lat="46.79019" lon="3.56925">
        <ele>200.57</ele>
        <time>2014-07-08T15:23:53Z</time>
      </trkpt>
      <trkpt lat="46.79069" lon="3.56961">
        <ele>200.09</ele>
        <time>2014-07-08T15:24:07Z</time>
      </trkpt>
      <trkpt lat="46.79085" lon="3.57003">
        <ele>200.09</ele>
        <time>2014-07-08T15:24:15Z</time>
      </trkpt>
      <trkpt lat="46.79083" lon="3.57029">
        <ele>200.09</ele>
        <time>2014-07-08T15:24:19Z</time>
      </trkpt>
      <trkpt lat="46.79084" lon="3.57042">
        <ele>200.57</ele>
        <time>2014-07-08T15:24:21Z</time>
      </trkpt>
      <trkpt lat="46.79089" lon="3.57067">
        <ele>200.57</ele>
        <time>2014-07-08T15:24:25Z</time>
      </trkpt>
      <trkpt lat="46.79118" lon="3.57134">
        <ele>200.09</ele>
        <time>2014-07-08T15:24:37Z</time>
      </trkpt>
      <trkpt lat="46.79136" lon="3.57155">
        <ele>200.09</ele>
        <time>2014-07-08T15:24:42Z</time>
      </trkpt>
      <trkpt lat="46.79145" lon="3.57161">
        <ele>200.09</ele>
        <time>2014-07-08T15:24:44Z</time>
      </trkpt>
      <trkpt lat="46.79166" lon="3.5721">
        <ele>199.61</ele>
        <time>2014-07-08T15:24:53Z</time>
      </trkpt>
      <trkpt lat="46.7918" lon="3.57334">
        <ele>199.61</ele>
        <time>2014-07-08T15:25:10Z</time>
      </trkpt>
      <trkpt lat="46.79184" lon="3.57408">
        <ele>199.61</ele>
        <time>2014-07-08T15:25:20Z</time>
      </trkpt>
      <trkpt lat="46.79186" lon="3.57429">
        <ele>199.61</ele>
        <time>2014-07-08T15:25:23Z</time>
      </trkpt>
      <trkpt lat="46.79198" lon="3.5749">
        <ele>200.57</ele>
        <time>2014-07-08T15:25:34Z</time>
      </trkpt>
      <trkpt lat="46.7923" lon="3.57602">
        <ele>200.09</ele>
        <time>2014-07-08T15:25:52Z</time>
      </trkpt>
      <trkpt lat="46.7925" lon="3.57672">
        <ele>200.09</ele>
        <time>2014-07-08T15:26:03Z</time>
      </trkpt>
      <trkpt lat="46.79253" lon="3.57685">
        <ele>200.09</ele>
        <time>2014-07-08T15:26:05Z</time>
      </trkpt>
      <trkpt lat="46.7927" lon="3.57707">
        <ele>199.61</ele>
        <time>2014-07-08T15:26:10Z</time>
      </trkpt>
      <trkpt lat="46.79347" lon="3.57738">
        <ele>199.61</ele>
        <time>2014-07-08T15:26:28Z</time>
      </trkpt>
      <trkpt lat="46.7937" lon="3.57747">
        <ele>200.09</ele>
        <time>2014-07-08T15:26:34Z</time>
      </trkpt>
      <trkpt lat="46.7944" lon="3.57761">
        <ele>200.09</ele>
        <time>2014-07-08T15:26:50Z</time>
      </trkpt>
      <trkpt lat="46.79444" lon="3.5776">
        <ele>199.61</ele>
        <time>2014-07-08T15:26:51Z</time>
      </trkpt>
      <trkpt lat="46.79465" lon="3.57745">
        <ele>200.09</ele>
        <time>2014-07-08T15:26:56Z</time>
      </trkpt>
      <trkpt lat="46.7948" lon="3.57727">
        <ele>200.09</ele>
        <time>2014-07-08T15:27:00Z</time>
      </trkpt>
      <trkpt lat="46.79557" lon="3.57663">
        <ele>199.61</ele>
        <time>2014-07-08T15:27:19Z</time>
      </trkpt>
      <trkpt lat="46.79635" lon="3.576">
        <ele>199.61</ele>
        <time>2014-07-08T15:27:39Z</time>
      </trkpt>
      <trkpt lat="46.79643" lon="3.57595">
        <ele>200.09</ele>
        <time>2014-07-08T15:27:41Z</time>
      </trkpt>
      <trkpt lat="46.79714" lon="3.57568">
        <ele>200.57</ele>
        <time>2014-07-08T15:27:58Z</time>
      </trkpt>
      <trkpt lat="46.79754" lon="3.57553">
        <ele>201.05</ele>
        <time>2014-07-08T15:28:11Z</time>
      </trkpt>
      <trkpt lat="46.79749" lon="3.57537">
        <ele>201.05</ele>
        <time>2014-07-08T15:28:20Z</time>
      </trkpt>
      <trkpt lat="46.79745" lon="3.57522">
        <ele>201.53</ele>
        <time>2014-07-08T15:28:27Z</time>
      </trkpt>
      <trkpt lat="46.79748" lon="3.57515">
        <ele>201.05</ele>
        <time>2014-07-08T15:28:39Z</time>
      </trkpt>
      <trkpt lat="46.79748" lon="3.57515">
        <ele>201.05</ele>
        <time>2014-07-08T15:29:16Z</time>
      </trkpt>
      <trkpt lat="46.79747" lon="3.57513">
        <ele>202.49</ele>
        <time>2014-07-08T15:29:55Z</time>
      </trkpt>
      <trkpt lat="46.79746" lon="3.57513">
        <ele>201.05</ele>
        <time>2014-07-08T15:30:30Z</time>
      </trkpt>
      <trkpt lat="46.79747" lon="3.57511">
        <ele>201.05</ele>
        <time>2014-07-08T15:31:12Z</time>
      </trkpt>
      <trkpt lat="46.79746" lon="3.57512">
        <ele>201.05</ele>
        <time>2014-07-08T15:31:52Z</time>
      </trkpt>
      <trkpt lat="46.79745" lon="3.5751">
        <ele>201.53</ele>
        <time>2014-07-08T15:32:38Z</time>
      </trkpt>
      <trkpt lat="46.79746" lon="3.57513">
        <ele>201.53</ele>
        <time>2014-07-08T15:33:22Z</time>
      </trkpt>
      <trkpt lat="46.79746" lon="3.57512">
        <ele>201.53</ele>
        <time>2014-07-08T15:34:16Z</time>
      </trkpt>
      <trkpt lat="46.79746" lon="3.57512">
        <ele>202.01</ele>
        <time>2014-07-08T15:34:38Z</time>
      </trkpt>
      <trkpt lat="46.79746" lon="3.57513">
        <ele>202.01</ele>
        <time>2014-07-08T15:35:18Z</time>
      </trkpt>
      <trkpt lat="46.79747" lon="3.57511">
        <ele>202.01</ele>
        <time>2014-07-08T15:35:52Z</time>
      </trkpt>
      <trkpt lat="46.79747" lon="3.57513">
        <ele>202.01</ele>
        <time>2014-07-08T15:36:34Z</time>
      </trkpt>
      <trkpt lat="46.79749" lon="3.5751">
        <ele>202.01</ele>
        <time>2014-07-08T15:37:10Z</time>
      </trkpt>
      <trkpt lat="46.79755" lon="3.57501">
        <ele>201.53</ele>
        <time>2014-07-08T15:37:30Z</time>
      </trkpt>
      <trkpt lat="46.79777" lon="3.57474">
        <ele>201.53</ele>
        <time>2014-07-08T15:37:43Z</time>
      </trkpt>
      <trkpt lat="46.79813" lon="3.57432">
        <ele>201.05</ele>
        <time>2014-07-08T15:37:58Z</time>
      </trkpt>
      <trkpt lat="46.79842" lon="3.57383">
        <ele>200.57</ele>
        <time>2014-07-08T15:38:11Z</time>
      </trkpt>
      <trkpt lat="46.7986" lon="3.57323">
        <ele>201.05</ele>
        <time>2014-07-08T15:38:26Z</time>
      </trkpt>
      <trkpt lat="46.79883" lon="3.57255">
        <ele>201.05</ele>
        <time>2014-07-08T15:38:42Z</time>
      </trkpt>
      <trkpt lat="46.79917" lon="3.57184">
        <ele>201.53</ele>
        <time>2014-07-08T15:39:00Z</time>
      </trkpt>
      <trkpt lat="46.79937" lon="3.57127">
        <ele>202.01</ele>
        <time>2014-07-08T15:39:14Z</time>
      </trkpt>
      <trkpt lat="46.79951" lon="3.57058">
        <ele>202.01</ele>
        <time>2014-07-08T15:39:29Z</time>
      </trkpt>
      <trkpt lat="46.79988" lon="3.56996">
        <ele>202.49</ele>
        <time>2014-07-08T15:39:47Z</time>
      </trkpt>
      <trkpt lat="46.80006" lon="3.5692">
        <ele>202.49</ele>
        <time>2014-07-08T15:40:04Z</time>
      </trkpt>
      <trkpt lat="46.80019" lon="3.56834">
        <ele>202.01</ele>
        <time>2014-07-08T15:40:21Z</time>
      </trkpt>
      <trkpt lat="46.80028" lon="3.56756">
        <ele>201.53</ele>
        <time>2014-07-08T15:40:35Z</time>
      </trkpt>
      <trkpt lat="46.80056" lon="3.56648">
        <ele>201.53</ele>
        <time>2014-07-08T15:40:55Z</time>
      </trkpt>
      <trkpt lat="46.80075" lon="3.56582">
        <ele>202.01</ele>
        <time>2014-07-08T15:41:10Z</time>
      </trkpt>
      <trkpt lat="46.80106" lon="3.56523">
        <ele>202.49</ele>
        <time>2014-07-08T15:41:26Z</time>
      </trkpt>
      <trkpt lat="46.80138" lon="3.56487">
        <ele>202.49</ele>
        <time>2014-07-08T15:41:40Z</time>
      </trkpt>
      <trkpt lat="46.80158" lon="3.56451">
        <ele>203.94</ele>
        <time>2014-07-08T15:41:54Z</time>
      </trkpt>
      <trkpt lat="46.80169" lon="3.56441">
        <ele>204.9</ele>
        <time>2014-07-08T15:42:07Z</time>
      </trkpt>
      <trkpt lat="46.80167" lon="3.56442">
        <ele>204.42</ele>
        <time>2014-07-08T15:42:22Z</time>
      </trkpt>
      <trkpt lat="46.80167" lon="3.56441">
        <ele>204.42</ele>
        <time>2014-07-08T15:42:45Z</time>
      </trkpt>
      <trkpt lat="46.8018" lon="3.5643">
        <ele>205.38</ele>
        <time>2014-07-08T15:42:59Z</time>
      </trkpt>
      <trkpt lat="46.80198" lon="3.56414">
        <ele>207.78</ele>
        <time>2014-07-08T15:43:17Z</time>
      </trkpt>
      <trkpt lat="46.80215" lon="3.564">
        <ele>209.7</ele>
        <time>2014-07-08T15:43:33Z</time>
      </trkpt>
      <trkpt lat="46.80224" lon="3.56386">
        <ele>211.63</ele>
        <time>2014-07-08T15:43:48Z</time>
      </trkpt>
      <trkpt lat="46.8023" lon="3.56372">
        <ele>214.99</ele>
        <time>2014-07-08T15:44:02Z</time>
      </trkpt>
      <trkpt lat="46.80233" lon="3.56367">
        <ele>214.51</ele>
        <time>2014-07-08T15:44:07Z</time>
      </trkpt>
      <trkpt lat="46.80237" lon="3.56342">
        <ele>216.91</ele>
        <time>2014-07-08T15:44:25Z</time>
      </trkpt>
      <trkpt lat="46.80234" lon="3.5634">
        <ele>216.91</ele>
        <time>2014-07-08T15:44:51Z</time>
      </trkpt>
      <trkpt lat="46.80235" lon="3.56341">
        <ele>216.91</ele>
        <time>2014-07-08T15:45:34Z</time>
      </trkpt>
      <trkpt lat="46.80234" lon="3.56337">
        <ele>216.91</ele>
        <time>2014-07-08T15:46:19Z</time>
      </trkpt>
      <trkpt lat="46.80233" lon="3.56338">
        <ele>216.91</ele>
        <time>2014-07-08T15:47:06Z</time>
      </trkpt>
      <trkpt lat="46.80231" lon="3.56335">
        <ele>217.4</ele>
        <time>2014-07-08T15:47:46Z</time>
      </trkpt>
      <trkpt lat="46.8023" lon="3.56332">
        <ele>217.4</ele>
        <time>2014-07-08T15:48:19Z</time>
      </trkpt>
      <trkpt lat="46.80236" lon="3.56313">
        <ele>219.8</ele>
        <time>2014-07-08T15:48:36Z</time>
      </trkpt>
      <trkpt lat="46.80244" lon="3.56284">
        <ele>222.2</ele>
        <time>2014-07-08T15:48:55Z</time>
      </trkpt>
      <trkpt lat="46.80256" lon="3.56251">
        <ele>224.61</ele>
        <time>2014-07-08T15:49:17Z</time>
      </trkpt>
      <trkpt lat="46.80268" lon="3.56229">
        <ele>227.01</ele>
        <time>2014-07-08T15:49:34Z</time>
      </trkpt>
      <trkpt lat="46.80283" lon="3.56202">
        <ele>228.93</ele>
        <time>2014-07-08T15:49:53Z</time>
      </trkpt>
      <trkpt lat="46.80296" lon="3.56175">
        <ele>230.37</ele>
        <time>2014-07-08T15:50:11Z</time>
      </trkpt>
      <trkpt lat="46.80298" lon="3.5617">
        <ele>230.37</ele>
        <time>2014-07-08T15:50:28Z</time>
      </trkpt>
      <trkpt lat="46.80312" lon="3.56138">
        <ele>231.33</ele>
        <time>2014-07-08T15:50:44Z</time>
      </trkpt>
      <trkpt lat="46.80327" lon="3.56096">
        <ele>232.3</ele>
        <time>2014-07-08T15:51:00Z</time>
      </trkpt>
      <trkpt lat="46.80338" lon="3.56042">
        <ele>231.81</ele>
        <time>2014-07-08T15:51:14Z</time>
      </trkpt>
      <trkpt lat="46.80337" lon="3.55985">
        <ele>232.3</ele>
        <time>2014-07-08T15:51:28Z</time>
      </trkpt>
      <trkpt lat="46.80332" lon="3.55938">
        <ele>233.26</ele>
        <time>2014-07-08T15:51:41Z</time>
      </trkpt>
      <trkpt lat="46.80339" lon="3.55878">
        <ele>235.18</ele>
        <time>2014-07-08T15:51:57Z</time>
      </trkpt>
      <trkpt lat="46.80352" lon="3.55829">
        <ele>237.1</ele>
        <time>2014-07-08T15:52:14Z</time>
      </trkpt>
      <trkpt lat="46.80359" lon="3.55786">
        <ele>238.54</ele>
        <time>2014-07-08T15:52:29Z</time>
      </trkpt>
      <trkpt lat="46.80366" lon="3.55734">
        <ele>239.51</ele>
        <time>2014-07-08T15:52:46Z</time>
      </trkpt>
      <trkpt lat="46.80373" lon="3.55667">
        <ele>238.06</ele>
        <time>2014-07-08T15:53:04Z</time>
      </trkpt>
      <trkpt lat="46.80388" lon="3.5562">
        <ele>237.58</ele>
        <time>2014-07-08T15:53:16Z</time>
      </trkpt>
      <trkpt lat="46.80405" lon="3.55574">
        <ele>238.06</ele>
        <time>2014-07-08T15:53:32Z</time>
      </trkpt>
      <trkpt lat="46.80425" lon="3.55548">
        <ele>238.54</ele>
        <time>2014-07-08T15:53:44Z</time>
      </trkpt>
      <trkpt lat="46.8045" lon="3.55519">
        <ele>238.54</ele>
        <time>2014-07-08T15:53:57Z</time>
      </trkpt>
      <trkpt lat="46.80476" lon="3.55488">
        <ele>239.02</ele>
        <time>2014-07-08T15:54:11Z</time>
      </trkpt>
      <trkpt lat="46.80502" lon="3.55443">
        <ele>239.51</ele>
        <time>2014-07-08T15:54:25Z</time>
      </trkpt>
      <trkpt lat="46.80531" lon="3.55402">
        <ele>240.47</ele>
        <time>2014-07-08T15:54:40Z</time>
      </trkpt>
      <trkpt lat="46.80559" lon="3.55403">
        <ele>241.91</ele>
        <time>2014-07-08T15:54:53Z</time>
      </trkpt>
      <trkpt lat="46.80595" lon="3.55423">
        <ele>242.87</ele>
        <time>2014-07-08T15:55:08Z</time>
      </trkpt>
      <trkpt lat="46.80642" lon="3.55446">
        <ele>242.39</ele>
        <time>2014-07-08T15:55:24Z</time>
      </trkpt>
      <trkpt lat="46.80692" lon="3.55468">
        <ele>242.39</ele>
        <time>2014-07-08T15:55:42Z</time>
      </trkpt>
      <trkpt lat="46.80738" lon="3.5549">
        <ele>241.91</ele>
        <time>2014-07-08T15:55:56Z</time>
      </trkpt>
      <trkpt lat="46.80787" lon="3.55512">
        <ele>241.91</ele>
        <time>2014-07-08T15:56:10Z</time>
      </trkpt>
      <trkpt lat="46.80831" lon="3.55532">
        <ele>241.43</ele>
        <time>2014-07-08T15:56:25Z</time>
      </trkpt>
      <trkpt lat="46.80837" lon="3.5553">
        <ele>241.43</ele>
        <time>2014-07-08T15:56:37Z</time>
      </trkpt>
      <trkpt lat="46.80839" lon="3.55488">
        <ele>241.43</ele>
        <time>2014-07-08T15:56:51Z</time>
      </trkpt>
      <trkpt lat="46.80846" lon="3.55416">
        <ele>241.91</ele>
        <time>2014-07-08T15:57:07Z</time>
      </trkpt>
      <trkpt lat="46.80853" lon="3.55333">
        <ele>241.91</ele>
        <time>2014-07-08T15:57:24Z</time>
      </trkpt>
      <trkpt lat="46.80863" lon="3.55228">
        <ele>241.91</ele>
        <time>2014-07-08T15:57:43Z</time>
      </trkpt>
      <trkpt lat="46.80872" lon="3.55139">
        <ele>241.91</ele>
        <time>2014-07-08T15:57:59Z</time>
      </trkpt>
      <trkpt lat="46.80882" lon="3.55027">
        <ele>242.39</ele>
        <time>2014-07-08T15:58:19Z</time>
      </trkpt>
      <trkpt lat="46.8089" lon="3.54946">
        <ele>242.39</ele>
        <time>2014-07-08T15:58:34Z</time>
      </trkpt>
      <trkpt lat="46.80899" lon="3.54841">
        <ele>242.39</ele>
        <time>2014-07-08T15:58:51Z</time>
      </trkpt>
      <trkpt lat="46.80911" lon="3.54723">
        <ele>242.87</ele>
        <time>2014-07-08T15:59:09Z</time>
      </trkpt>
      <trkpt lat="46.80922" lon="3.54616">
        <ele>242.39</ele>
        <time>2014-07-08T15:59:25Z</time>
      </trkpt>
      <trkpt lat="46.80936" lon="3.54478">
        <ele>242.39</ele>
        <time>2014-07-08T15:59:45Z</time>
      </trkpt>
      <trkpt lat="46.8095" lon="3.54335">
        <ele>241.91</ele>
        <time>2014-07-08T16:00:05Z</time>
      </trkpt>
      <trkpt lat="46.80964" lon="3.54189">
        <ele>241.91</ele>
        <time>2014-07-08T16:00:26Z</time>
      </trkpt>
      <trkpt lat="46.80975" lon="3.54068">
        <ele>241.91</ele>
        <time>2014-07-08T16:00:44Z</time>
      </trkpt>
      <trkpt lat="46.80989" lon="3.53929">
        <ele>241.91</ele>
        <time>2014-07-08T16:01:06Z</time>
      </trkpt>
      <trkpt lat="46.81002" lon="3.53813">
        <ele>241.91</ele>
        <time>2014-07-08T16:01:26Z</time>
      </trkpt>
      <trkpt lat="46.81005" lon="3.53761">
        <ele>241.91</ele>
        <time>2014-07-08T16:01:35Z</time>
      </trkpt>
      <trkpt lat="46.81016" lon="3.53662">
        <ele>242.39</ele>
        <time>2014-07-08T16:01:51Z</time>
      </trkpt>
      <trkpt lat="46.81029" lon="3.53523">
        <ele>241.43</ele>
        <time>2014-07-08T16:02:13Z</time>
      </trkpt>
      <trkpt lat="46.81043" lon="3.53387">
        <ele>240.95</ele>
        <time>2014-07-08T16:02:34Z</time>
      </trkpt>
      <trkpt lat="46.81056" lon="3.53244">
        <ele>239.99</ele>
        <time>2014-07-08T16:02:56Z</time>
      </trkpt>
      <trkpt lat="46.81069" lon="3.53101">
        <ele>239.02</ele>
        <time>2014-07-08T16:03:17Z</time>
      </trkpt>
      <trkpt lat="46.81084" lon="3.52945">
        <ele>238.06</ele>
        <time>2014-07-08T16:03:39Z</time>
      </trkpt>
      <trkpt lat="46.81102" lon="3.528">
        <ele>237.1</ele>
        <time>2014-07-08T16:04:01Z</time>
      </trkpt>
      <trkpt lat="46.81136" lon="3.52671">
        <ele>237.1</ele>
        <time>2014-07-08T16:04:22Z</time>
      </trkpt>
      <trkpt lat="46.81192" lon="3.52538">
        <ele>236.62</ele>
        <time>2014-07-08T16:04:45Z</time>
      </trkpt>
      <trkpt lat="46.81228" lon="3.52447">
        <ele>235.66</ele>
        <time>2014-07-08T16:05:01Z</time>
      </trkpt>
      <trkpt lat="46.81274" lon="3.5233">
        <ele>235.18</ele>
        <time>2014-07-08T16:05:21Z</time>
      </trkpt>
      <trkpt lat="46.81283" lon="3.52306">
        <ele>235.18</ele>
        <time>2014-07-08T16:05:25Z</time>
      </trkpt>
      <trkpt lat="46.81333" lon="3.52182">
        <ele>234.22</ele>
        <time>2014-07-08T16:05:46Z</time>
      </trkpt>
      <trkpt lat="46.81379" lon="3.52065">
        <ele>233.74</ele>
        <time>2014-07-08T16:06:05Z</time>
      </trkpt>
      <trkpt lat="46.81426" lon="3.51943">
        <ele>232.78</ele>
        <time>2014-07-08T16:06:24Z</time>
      </trkpt>
      <trkpt lat="46.81473" lon="3.51804">
        <ele>232.78</ele>
        <time>2014-07-08T16:06:45Z</time>
      </trkpt>
      <trkpt lat="46.81494" lon="3.51736">
        <ele>232.3</ele>
        <time>2014-07-08T16:06:55Z</time>
      </trkpt>
      <trkpt lat="46.81515" lon="3.51671">
        <ele>232.78</ele>
        <time>2014-07-08T16:07:05Z</time>
      </trkpt>
      <trkpt lat="46.81526" lon="3.51631">
        <ele>232.78</ele>
        <time>2014-07-08T16:07:11Z</time>
      </trkpt>
      <trkpt lat="46.81557" lon="3.51509">
        <ele>232.78</ele>
        <time>2014-07-08T16:07:29Z</time>
      </trkpt>
      <trkpt lat="46.81582" lon="3.51391">
        <ele>232.78</ele>
        <time>2014-07-08T16:07:46Z</time>
      </trkpt>
      <trkpt lat="46.81592" lon="3.51349">
        <ele>233.26</ele>
        <time>2014-07-08T16:07:52Z</time>
      </trkpt>
      <trkpt lat="46.8162" lon="3.51217">
        <ele>233.74</ele>
        <time>2014-07-08T16:08:11Z</time>
      </trkpt>
      <trkpt lat="46.81645" lon="3.51116">
        <ele>234.7</ele>
        <time>2014-07-08T16:08:27Z</time>
      </trkpt>
      <trkpt lat="46.81654" lon="3.5109">
        <ele>234.7</ele>
        <time>2014-07-08T16:08:31Z</time>
      </trkpt>
      <trkpt lat="46.81774" lon="3.51008">
        <ele>234.7</ele>
        <time>2014-07-08T16:08:52Z</time>
      </trkpt>
      <trkpt lat="46.81799" lon="3.5096">
        <ele>234.22</ele>
        <time>2014-07-08T16:09:01Z</time>
      </trkpt>
      <trkpt lat="46.81804" lon="3.50949">
        <ele>234.22</ele>
        <time>2014-07-08T16:09:03Z</time>
      </trkpt>
      <trkpt lat="46.81841" lon="3.50866">
        <ele>233.74</ele>
        <time>2014-07-08T16:09:17Z</time>
      </trkpt>
      <trkpt lat="46.81897" lon="3.50739">
        <ele>232.3</ele>
        <time>2014-07-08T16:09:38Z</time>
      </trkpt>
      <trkpt lat="46.81954" lon="3.50598">
        <ele>231.33</ele>
        <time>2014-07-08T16:10:00Z</time>
      </trkpt>
      <trkpt lat="46.81996" lon="3.50494">
        <ele>230.37</ele>
        <time>2014-07-08T16:10:17Z</time>
      </trkpt>
      <trkpt lat="46.82051" lon="3.50353">
        <ele>229.41</ele>
        <time>2014-07-08T16:10:40Z</time>
      </trkpt>
      <trkpt lat="46.82056" lon="3.50341">
        <ele>228.45</ele>
        <time>2014-07-08T16:10:42Z</time>
      </trkpt>
      <trkpt lat="46.82101" lon="3.50228">
        <ele>227.49</ele>
        <time>2014-07-08T16:11:01Z</time>
      </trkpt>
      <trkpt lat="46.82145" lon="3.50117">
        <ele>226.53</ele>
        <time>2014-07-08T16:11:19Z</time>
      </trkpt>
      <trkpt lat="46.82195" lon="3.49986">
        <ele>225.57</ele>
        <time>2014-07-08T16:11:40Z</time>
      </trkpt>
      <trkpt lat="46.8223" lon="3.49899">
        <ele>224.61</ele>
        <time>2014-07-08T16:11:55Z</time>
      </trkpt>
      <trkpt lat="46.82285" lon="3.49757">
        <ele>223.64</ele>
        <time>2014-07-08T16:12:16Z</time>
      </trkpt>
      <trkpt lat="46.82334" lon="3.49631">
        <ele>222.2</ele>
        <time>2014-07-08T16:12:33Z</time>
      </trkpt>
      <trkpt lat="46.82389" lon="3.49481">
        <ele>220.28</ele>
        <time>2014-07-08T16:12:52Z</time>
      </trkpt>
      <trkpt lat="46.82441" lon="3.49358">
        <ele>217.88</ele>
        <time>2014-07-08T16:13:09Z</time>
      </trkpt>
      <trkpt lat="46.82494" lon="3.49227">
        <ele>216.43</ele>
        <time>2014-07-08T16:13:27Z</time>
      </trkpt>
      <trkpt lat="46.82557" lon="3.4907">
        <ele>214.03</ele>
        <time>2014-07-08T16:13:48Z</time>
      </trkpt>
      <trkpt lat="46.82603" lon="3.48951">
        <ele>213.55</ele>
        <time>2014-07-08T16:14:05Z</time>
      </trkpt>
      <trkpt lat="46.82648" lon="3.48843">
        <ele>212.59</ele>
        <time>2014-07-08T16:14:22Z</time>
      </trkpt>
      <trkpt lat="46.82661" lon="3.48828">
        <ele>213.07</ele>
        <time>2014-07-08T16:14:26Z</time>
      </trkpt>
      <trkpt lat="46.82685" lon="3.48816">
        <ele>212.59</ele>
        <time>2014-07-08T16:14:33Z</time>
      </trkpt>
      <trkpt lat="46.82692" lon="3.48821">
        <ele>212.59</ele>
        <time>2014-07-08T16:14:35Z</time>
      </trkpt>
      <trkpt lat="46.82739" lon="3.48843">
        <ele>211.15</ele>
        <time>2014-07-08T16:14:45Z</time>
      </trkpt>
      <trkpt lat="46.82786" lon="3.48868">
        <ele>209.7</ele>
        <time>2014-07-08T16:14:54Z</time>
      </trkpt>
      <trkpt lat="46.82825" lon="3.48919">
        <ele>209.7</ele>
        <time>2014-07-08T16:15:03Z</time>
      </trkpt>
      <trkpt lat="46.82852" lon="3.48898">
        <ele>209.22</ele>
        <time>2014-07-08T16:15:09Z</time>
      </trkpt>
      <trkpt lat="46.8284" lon="3.48848">
        <ele>209.22</ele>
        <time>2014-07-08T16:15:17Z</time>
      </trkpt>
      <trkpt lat="46.82833" lon="3.48839">
        <ele>209.22</ele>
        <time>2014-07-08T16:15:19Z</time>
      </trkpt>
      <trkpt lat="46.82825" lon="3.48801">
        <ele>209.22</ele>
        <time>2014-07-08T16:15:25Z</time>
      </trkpt>
      <trkpt lat="46.82809" lon="3.48672">
        <ele>210.19</ele>
        <time>2014-07-08T16:15:47Z</time>
      </trkpt>
      <trkpt lat="46.82798" lon="3.48573">
        <ele>212.11</ele>
        <time>2014-07-08T16:16:07Z</time>
      </trkpt>
      <trkpt lat="46.82791" lon="3.48486">
        <ele>213.55</ele>
        <time>2014-07-08T16:16:25Z</time>
      </trkpt>
      <trkpt lat="46.82783" lon="3.48408">
        <ele>214.99</ele>
        <time>2014-07-08T16:16:43Z</time>
      </trkpt>
      <trkpt lat="46.82785" lon="3.48329">
        <ele>214.51</ele>
        <time>2014-07-08T16:17:00Z</time>
      </trkpt>
      <trkpt lat="46.82802" lon="3.48214">
        <ele>213.55</ele>
        <time>2014-07-08T16:17:21Z</time>
      </trkpt>
      <trkpt lat="46.82816" lon="3.48116">
        <ele>212.59</ele>
        <time>2014-07-08T16:17:36Z</time>
      </trkpt>
      <trkpt lat="46.82824" lon="3.48053">
        <ele>212.11</ele>
        <time>2014-07-08T16:17:45Z</time>
      </trkpt>
      <trkpt lat="46.82825" lon="3.48039">
        <ele>212.11</ele>
        <time>2014-07-08T16:17:47Z</time>
      </trkpt>
      <trkpt lat="46.82836" lon="3.47945">
        <ele>212.11</ele>
        <time>2014-07-08T16:18:01Z</time>
      </trkpt>
      <trkpt lat="46.82855" lon="3.47818">
        <ele>210.67</ele>
        <time>2014-07-08T16:18:20Z</time>
      </trkpt>
      <trkpt lat="46.8287" lon="3.47709">
        <ele>209.22</ele>
        <time>2014-07-08T16:18:36Z</time>
      </trkpt>
      <trkpt lat="46.82871" lon="3.47701">
        <ele>208.74</ele>
        <time>2014-07-08T16:18:37Z</time>
      </trkpt>
      <trkpt lat="46.82889" lon="3.47575">
        <ele>206.34</ele>
        <time>2014-07-08T16:18:54Z</time>
      </trkpt>
      <trkpt lat="46.82908" lon="3.47457">
        <ele>204.9</ele>
        <time>2014-07-08T16:19:09Z</time>
      </trkpt>
      <trkpt lat="46.82935" lon="3.47343">
        <ele>203.94</ele>
        <time>2014-07-08T16:19:25Z</time>
      </trkpt>
      <trkpt lat="46.82961" lon="3.47222">
        <ele>203.46</ele>
        <time>2014-07-08T16:19:43Z</time>
      </trkpt>
      <trkpt lat="46.82988" lon="3.47095">
        <ele>203.46</ele>
        <time>2014-07-08T16:20:02Z</time>
      </trkpt>
      <trkpt lat="46.82998" lon="3.47041">
        <ele>203.46</ele>
        <time>2014-07-08T16:20:10Z</time>
      </trkpt>
      <trkpt lat="46.83002" lon="3.47015">
        <ele>203.46</ele>
        <time>2014-07-08T16:20:14Z</time>
      </trkpt>
      <trkpt lat="46.8301" lon="3.46983">
        <ele>203.46</ele>
        <time>2014-07-08T16:20:19Z</time>
      </trkpt>
      <trkpt lat="46.83012" lon="3.46971">
        <ele>203.94</ele>
        <time>2014-07-08T16:20:21Z</time>
      </trkpt>
      <trkpt lat="46.83038" lon="3.46882">
        <ele>203.46</ele>
        <time>2014-07-08T16:20:36Z</time>
      </trkpt>
      <trkpt lat="46.83053" lon="3.46848">
        <ele>203.46</ele>
        <time>2014-07-08T16:20:46Z</time>
      </trkpt>
      <trkpt lat="46.83059" lon="3.46841">
        <ele>202.98</ele>
        <time>2014-07-08T16:20:49Z</time>
      </trkpt>
      <trkpt lat="46.83058" lon="3.46837">
        <ele>202.98</ele>
        <time>2014-07-08T16:20:57Z</time>
      </trkpt>
      <trkpt lat="46.83058" lon="3.46839">
        <ele>203.46</ele>
        <time>2014-07-08T16:21:05Z</time>
      </trkpt>
      <trkpt lat="46.83048" lon="3.46837">
        <ele>203.46</ele>
        <time>2014-07-08T16:21:15Z</time>
      </trkpt>
      <trkpt lat="46.83044" lon="3.46834">
        <ele>203.46</ele>
        <time>2014-07-08T16:21:30Z</time>
      </trkpt>
      <trkpt lat="46.83049" lon="3.46834">
        <ele>203.46</ele>
        <time>2014-07-08T16:21:45Z</time>
      </trkpt>
      <trkpt lat="46.83048" lon="3.46842">
        <ele>203.46</ele>
        <time>2014-07-08T16:21:56Z</time>
      </trkpt>
      <trkpt lat="46.8305" lon="3.46845">
        <ele>203.46</ele>
        <time>2014-07-08T16:21:58Z</time>
      </trkpt>
      <trkpt lat="46.83075" lon="3.46886">
        <ele>202.49</ele>
        <time>2014-07-08T16:22:10Z</time>
      </trkpt>
      <trkpt lat="46.83096" lon="3.46906">
        <ele>201.53</ele>
        <time>2014-07-08T16:22:16Z</time>
      </trkpt>
      <trkpt lat="46.83148" lon="3.46915">
        <ele>201.05</ele>
        <time>2014-07-08T16:22:27Z</time>
      </trkpt>
      <trkpt lat="46.83181" lon="3.46889">
        <ele>201.05</ele>
        <time>2014-07-08T16:22:34Z</time>
      </trkpt>
      <trkpt lat="46.83206" lon="3.46834">
        <ele>201.05</ele>
        <time>2014-07-08T16:22:43Z</time>
      </trkpt>
      <trkpt lat="46.83236" lon="3.46773">
        <ele>201.05</ele>
        <time>2014-07-08T16:22:56Z</time>
      </trkpt>
      <trkpt lat="46.83237" lon="3.46774">
        <ele>201.05</ele>
        <time>2014-07-08T16:23:18Z</time>
      </trkpt>
      <trkpt lat="46.8323" lon="3.46775">
        <ele>201.05</ele>
        <time>2014-07-08T16:23:24Z</time>
      </trkpt>
      <trkpt lat="46.83224" lon="3.46787">
        <ele>201.05</ele>
        <time>2014-07-08T16:23:29Z</time>
      </trkpt>
      <trkpt lat="46.83202" lon="3.46837">
        <ele>200.57</ele>
        <time>2014-07-08T16:23:41Z</time>
      </trkpt>
      <trkpt lat="46.83199" lon="3.46843">
        <ele>200.57</ele>
        <time>2014-07-08T16:23:43Z</time>
      </trkpt>
      <trkpt lat="46.83184" lon="3.46849">
        <ele>200.57</ele>
        <time>2014-07-08T16:23:48Z</time>
      </trkpt>
      <trkpt lat="46.83161" lon="3.46875">
        <ele>200.57</ele>
        <time>2014-07-08T16:23:55Z</time>
      </trkpt>
      <trkpt lat="46.83161" lon="3.46877">
        <ele>201.05</ele>
        <time>2014-07-08T16:24:07Z</time>
      </trkpt>
      <trkpt lat="46.83162" lon="3.46874">
        <ele>200.09</ele>
        <time>2014-07-08T16:24:29Z</time>
      </trkpt>
      <trkpt lat="46.83158" lon="3.46877">
        <ele>199.13</ele>
        <time>2014-07-08T16:25:06Z</time>
      </trkpt>
      <trkpt lat="46.8316" lon="3.46877">
        <ele>199.61</ele>
        <time>2014-07-08T16:25:50Z</time>
      </trkpt>
      <trkpt lat="46.83165" lon="3.46881">
        <ele>200.09</ele>
        <time>2014-07-08T16:26:35Z</time>
      </trkpt>
      <trkpt lat="46.83163" lon="3.4688">
        <ele>200.09</ele>
        <time>2014-07-08T16:27:28Z</time>
      </trkpt>
      <trkpt lat="46.83157" lon="3.46879">
        <ele>201.05</ele>
        <time>2014-07-08T16:28:21Z</time>
      </trkpt>
      <trkpt lat="46.83156" lon="3.4688">
        <ele>200.09</ele>
        <time>2014-07-08T16:28:55Z</time>
      </trkpt>
      <trkpt lat="46.83157" lon="3.4688">
        <ele>200.57</ele>
        <time>2014-07-08T16:29:37Z</time>
      </trkpt>
      <trkpt lat="46.83158" lon="3.46881">
        <ele>200.09</ele>
        <time>2014-07-08T16:30:27Z</time>
      </trkpt>
      <trkpt lat="46.83157" lon="3.4688">
        <ele>200.57</ele>
        <time>2014-07-08T16:30:59Z</time>
      </trkpt>
      <trkpt lat="46.83159" lon="3.46876">
        <ele>200.09</ele>
        <time>2014-07-08T16:31:35Z</time>
      </trkpt>
      <trkpt lat="46.83163" lon="3.46877">
        <ele>200.57</ele>
        <time>2014-07-08T16:32:06Z</time>
      </trkpt>
      <trkpt lat="46.83167" lon="3.46882">
        <ele>200.57</ele>
        <time>2014-07-08T16:32:42Z</time>
      </trkpt>
      <trkpt lat="46.83165" lon="3.46881">
        <ele>200.57</ele>
        <time>2014-07-08T16:33:10Z</time>
      </trkpt>
      <trkpt lat="46.83164" lon="3.46876">
        <ele>200.57</ele>
        <time>2014-07-08T16:33:41Z</time>
      </trkpt>
      <trkpt lat="46.83169" lon="3.46876">
        <ele>200.57</ele>
        <time>2014-07-08T16:34:12Z</time>
      </trkpt>
      <trkpt lat="46.8317" lon="3.46877">
        <ele>197.21</ele>
        <time>2014-07-08T16:34:24Z</time>
      </trkpt>
      <trkpt lat="46.8317" lon="3.46877">
        <ele>197.21</ele>
        <time>2014-07-08T16:34:25Z</time>
      </trkpt>
      <trkpt lat="46.83169" lon="3.46877">
        <ele>200.57</ele>
        <time>2014-07-08T16:34:49Z</time>
      </trkpt>
      <trkpt lat="46.83168" lon="3.46877">
        <ele>200.57</ele>
        <time>2014-07-08T16:34:50Z</time>
      </trkpt>
      <trkpt lat="46.83166" lon="3.46879">
        <ele>200.57</ele>
        <time>2014-07-08T16:35:19Z</time>
      </trkpt>
      <trkpt lat="46.83168" lon="3.46882">
        <ele>200.57</ele>
        <time>2014-07-08T16:35:49Z</time>
      </trkpt>
      <trkpt lat="46.83168" lon="3.46881">
        <ele>200.57</ele>
        <time>2014-07-08T16:36:18Z</time>
      </trkpt>
      <trkpt lat="46.83166" lon="3.46878">
        <ele>200.57</ele>
        <time>2014-07-08T16:36:27Z</time>
      </trkpt>
      <trkpt lat="46.83183" lon="3.46854">
        <ele>200.57</ele>
        <time>2014-07-08T16:36:38Z</time>
      </trkpt>
      <trkpt lat="46.83192" lon="3.46844">
        <ele>200.57</ele>
        <time>2014-07-08T16:36:42Z</time>
      </trkpt>
      <trkpt lat="46.83204" lon="3.46841">
        <ele>200.09</ele>
        <time>2014-07-08T16:36:47Z</time>
      </trkpt>
      <trkpt lat="46.83245" lon="3.46758">
        <ele>200.09</ele>
        <time>2014-07-08T16:37:06Z</time>
      </trkpt>
      <trkpt lat="46.83256" lon="3.4674">
        <ele>200.09</ele>
        <time>2014-07-08T16:37:10Z</time>
      </trkpt>
      <trkpt lat="46.83319" lon="3.46672">
        <ele>200.09</ele>
        <time>2014-07-08T16:37:28Z</time>
      </trkpt>
      <trkpt lat="46.8333" lon="3.46659">
        <ele>199.61</ele>
        <time>2014-07-08T16:37:31Z</time>
      </trkpt>
      <trkpt lat="46.83342" lon="3.46638">
        <ele>199.61</ele>
        <time>2014-07-08T16:37:35Z</time>
      </trkpt>
      <trkpt lat="46.83348" lon="3.4662">
        <ele>200.57</ele>
        <time>2014-07-08T16:37:38Z</time>
      </trkpt>
      <trkpt lat="46.83349" lon="3.46548">
        <ele>200.57</ele>
        <time>2014-07-08T16:37:51Z</time>
      </trkpt>
      <trkpt lat="46.83335" lon="3.46532">
        <ele>200.57</ele>
        <time>2014-07-08T16:37:56Z</time>
      </trkpt>
      <trkpt lat="46.83318" lon="3.46525">
        <ele>200.57</ele>
        <time>2014-07-08T16:38:00Z</time>
      </trkpt>
      <trkpt lat="46.83242" lon="3.46534">
        <ele>200.57</ele>
        <time>2014-07-08T16:38:17Z</time>
      </trkpt>
      <trkpt lat="46.83176" lon="3.46556">
        <ele>200.09</ele>
        <time>2014-07-08T16:38:33Z</time>
      </trkpt>
      <trkpt lat="46.83113" lon="3.46583">
        <ele>200.57</ele>
        <time>2014-07-08T16:38:48Z</time>
      </trkpt>
      <trkpt lat="46.83046" lon="3.46656">
        <ele>201.53</ele>
        <time>2014-07-08T16:39:08Z</time>
      </trkpt>
      <trkpt lat="46.83032" lon="3.46648">
        <ele>201.53</ele>
        <time>2014-07-08T16:39:13Z</time>
      </trkpt>
      <trkpt lat="46.83002" lon="3.46577">
        <ele>202.98</ele>
        <time>2014-07-08T16:39:30Z</time>
      </trkpt>
      <trkpt lat="46.82977" lon="3.46523">
        <ele>203.94</ele>
        <time>2014-07-08T16:39:47Z</time>
      </trkpt>
      <trkpt lat="46.82977" lon="3.46525">
        <ele>203.94</ele>
        <time>2014-07-08T16:39:54Z</time>
      </trkpt>
      <trkpt lat="46.82973" lon="3.46518">
        <ele>203.94</ele>
        <time>2014-07-08T16:40:00Z</time>
      </trkpt>
      <trkpt lat="46.82971" lon="3.46515">
        <ele>203.94</ele>
        <time>2014-07-08T16:40:02Z</time>
      </trkpt>
      <trkpt lat="46.8296" lon="3.4649">
        <ele>204.42</ele>
        <time>2014-07-08T16:40:13Z</time>
      </trkpt>
      <trkpt lat="46.8294" lon="3.46447">
        <ele>204.9</ele>
        <time>2014-07-08T16:40:24Z</time>
      </trkpt>
      <trkpt lat="46.82939" lon="3.46443">
        <ele>204.9</ele>
        <time>2014-07-08T16:40:35Z</time>
      </trkpt>
      <trkpt lat="46.82924" lon="3.46407">
        <ele>204.9</ele>
        <time>2014-07-08T16:40:47Z</time>
      </trkpt>
      <trkpt lat="46.82946" lon="3.46379">
        <ele>203.46</ele>
        <time>2014-07-08T16:40:57Z</time>
      </trkpt>
      <trkpt lat="46.82974" lon="3.46345">
        <ele>201.53</ele>
        <time>2014-07-08T16:41:09Z</time>
      </trkpt>
      <trkpt lat="46.82991" lon="3.46321">
        <ele>200.57</ele>
        <time>2014-07-08T16:41:20Z</time>
      </trkpt>
      <trkpt lat="46.82992" lon="3.46316">
        <ele>200.57</ele>
        <time>2014-07-08T16:41:35Z</time>
      </trkpt>
      <trkpt lat="46.82991" lon="3.46313">
        <ele>200.57</ele>
        <time>2014-07-08T16:41:58Z</time>
      </trkpt>
      <trkpt lat="46.8299" lon="3.46311">
        <ele>200.57</ele>
        <time>2014-07-08T16:42:14Z</time>
      </trkpt>
      <trkpt lat="46.82992" lon="3.46305">
        <ele>200.57</ele>
        <time>2014-07-08T16:42:36Z</time>
      </trkpt>
      <trkpt lat="46.82993" lon="3.46305">
        <ele>200.57</ele>
        <time>2014-07-08T16:42:38Z</time>
      </trkpt>
      <trkpt lat="46.83013" lon="3.46286">
        <ele>200.09</ele>
        <time>2014-07-08T16:42:47Z</time>
      </trkpt>
      <trkpt lat="46.83044" lon="3.46253">
        <ele>199.13</ele>
        <time>2014-07-08T16:42:58Z</time>
      </trkpt>
      <trkpt lat="46.83087" lon="3.46201">
        <ele>199.13</ele>
        <time>2014-07-08T16:43:12Z</time>
      </trkpt>
      <trkpt lat="46.83135" lon="3.46126">
        <ele>198.65</ele>
        <time>2014-07-08T16:43:30Z</time>
      </trkpt>
      <trkpt lat="46.83168" lon="3.46069">
        <ele>198.65</ele>
        <time>2014-07-08T16:43:43Z</time>
      </trkpt>
      <trkpt lat="46.83205" lon="3.46008">
        <ele>198.17</ele>
        <time>2014-07-08T16:43:57Z</time>
      </trkpt>
      <trkpt lat="46.8321" lon="3.45999">
        <ele>198.65</ele>
        <time>2014-07-08T16:43:59Z</time>
      </trkpt>
      <trkpt lat="46.83223" lon="3.45977">
        <ele>198.65</ele>
        <time>2014-07-08T16:44:04Z</time>
      </trkpt>
      <trkpt lat="46.83234" lon="3.45959">
        <ele>198.17</ele>
        <time>2014-07-08T16:44:08Z</time>
      </trkpt>
      <trkpt lat="46.83249" lon="3.45936">
        <ele>198.17</ele>
        <time>2014-07-08T16:44:13Z</time>
      </trkpt>
      <trkpt lat="46.83285" lon="3.45871">
        <ele>198.17</ele>
        <time>2014-07-08T16:44:27Z</time>
      </trkpt>
      <trkpt lat="46.83291" lon="3.45861">
        <ele>198.17</ele>
        <time>2014-07-08T16:44:29Z</time>
      </trkpt>
      <trkpt lat="46.83319" lon="3.45813">
        <ele>198.17</ele>
        <time>2014-07-08T16:44:40Z</time>
      </trkpt>
      <trkpt lat="46.83345" lon="3.45763">
        <ele>198.65</ele>
        <time>2014-07-08T16:44:52Z</time>
      </trkpt>
      <trkpt lat="46.8337" lon="3.45716">
        <ele>198.17</ele>
        <time>2014-07-08T16:45:03Z</time>
      </trkpt>
      <trkpt lat="46.83415" lon="3.45635">
        <ele>198.17</ele>
        <time>2014-07-08T16:45:21Z</time>
      </trkpt>
      <trkpt lat="46.83456" lon="3.45578">
        <ele>197.69</ele>
        <time>2014-07-08T16:45:36Z</time>
      </trkpt>
      <trkpt lat="46.83458" lon="3.45574">
        <ele>197.69</ele>
        <time>2014-07-08T16:45:37Z</time>
      </trkpt>
      <trkpt lat="46.83474" lon="3.45559">
        <ele>197.21</ele>
        <time>2014-07-08T16:45:42Z</time>
      </trkpt>
      <trkpt lat="46.83502" lon="3.45571">
        <ele>197.21</ele>
        <time>2014-07-08T16:45:52Z</time>
      </trkpt>
      <trkpt lat="46.83512" lon="3.45573">
        <ele>197.21</ele>
        <time>2014-07-08T16:46:07Z</time>
      </trkpt>
      <trkpt lat="46.83513" lon="3.45574">
        <ele>196.73</ele>
        <time>2014-07-08T16:46:28Z</time>
      </trkpt>
      <trkpt lat="46.83513" lon="3.45573">
        <ele>196.73</ele>
        <time>2014-07-08T16:46:58Z</time>
      </trkpt>
      <trkpt lat="46.83509" lon="3.45566">
        <ele>196.73</ele>
        <time>2014-07-08T16:47:34Z</time>
      </trkpt>
      <trkpt lat="46.83509" lon="3.45566">
        <ele>196.73</ele>
        <time>2014-07-08T16:48:04Z</time>
      </trkpt>
      <trkpt lat="46.83507" lon="3.45564">
        <ele>197.21</ele>
        <time>2014-07-08T16:48:33Z</time>
      </trkpt>
      <trkpt lat="46.83505" lon="3.45568">
        <ele>197.21</ele>
        <time>2014-07-08T16:49:02Z</time>
      </trkpt>
      <trkpt lat="46.83506" lon="3.45569">
        <ele>197.21</ele>
        <time>2014-07-08T16:49:28Z</time>
      </trkpt>
      <trkpt lat="46.83512" lon="3.45572">
        <ele>197.21</ele>
        <time>2014-07-08T16:50:08Z</time>
      </trkpt>
      <trkpt lat="46.83512" lon="3.45571">
        <ele>197.21</ele>
        <time>2014-07-08T16:50:36Z</time>
      </trkpt>
      <trkpt lat="46.83515" lon="3.45574">
        <ele>197.21</ele>
        <time>2014-07-08T16:51:04Z</time>
      </trkpt>
      <trkpt lat="46.83514" lon="3.45576">
        <ele>197.21</ele>
        <time>2014-07-08T16:51:39Z</time>
      </trkpt>
      <trkpt lat="46.83516" lon="3.45574">
        <ele>197.21</ele>
        <time>2014-07-08T16:52:20Z</time>
      </trkpt>
      <trkpt lat="46.83514" lon="3.45576">
        <ele>197.21</ele>
        <time>2014-07-08T16:52:51Z</time>
      </trkpt>
      <trkpt lat="46.83517" lon="3.45574">
        <ele>197.69</ele>
        <time>2014-07-08T16:53:33Z</time>
      </trkpt>
      <trkpt lat="46.83515" lon="3.45574">
        <ele>197.69</ele>
        <time>2014-07-08T16:54:13Z</time>
      </trkpt>
      <trkpt lat="46.83514" lon="3.45573">
        <ele>197.69</ele>
        <time>2014-07-08T16:54:49Z</time>
      </trkpt>
      <trkpt lat="46.83513" lon="3.45576">
        <ele>197.69</ele>
        <time>2014-07-08T16:55:27Z</time>
      </trkpt>
      <trkpt lat="46.83509" lon="3.45569">
        <ele>197.69</ele>
        <time>2014-07-08T16:56:15Z</time>
      </trkpt>
      <trkpt lat="46.83512" lon="3.45571">
        <ele>197.69</ele>
        <time>2014-07-08T16:56:54Z</time>
      </trkpt>
      <trkpt lat="46.83514" lon="3.45569">
        <ele>197.69</ele>
        <time>2014-07-08T16:57:39Z</time>
      </trkpt>
      <trkpt lat="46.8351" lon="3.45574">
        <ele>197.69</ele>
        <time>2014-07-08T16:58:19Z</time>
      </trkpt>
      <trkpt lat="46.83513" lon="3.45571">
        <ele>198.17</ele>
        <time>2014-07-08T16:58:54Z</time>
      </trkpt>
      <trkpt lat="46.83511" lon="3.45572">
        <ele>197.69</ele>
        <time>2014-07-08T16:59:18Z</time>
      </trkpt>
      <trkpt lat="46.8351" lon="3.45572">
        <ele>197.69</ele>
        <time>2014-07-08T16:59:47Z</time>
      </trkpt>
      <trkpt lat="46.83511" lon="3.45573">
        <ele>198.17</ele>
        <time>2014-07-08T17:00:21Z</time>
      </trkpt>
      <trkpt lat="46.83515" lon="3.45572">
        <ele>198.17</ele>
        <time>2014-07-08T17:00:52Z</time>
      </trkpt>
      <trkpt lat="46.83513" lon="3.45574">
        <ele>198.17</ele>
        <time>2014-07-08T17:01:31Z</time>
      </trkpt>
      <trkpt lat="46.83515" lon="3.45572">
        <ele>198.17</ele>
        <time>2014-07-08T17:02:05Z</time>
      </trkpt>
      <trkpt lat="46.83516" lon="3.45576">
        <ele>198.17</ele>
        <time>2014-07-08T17:02:42Z</time>
      </trkpt>
      <trkpt lat="46.83516" lon="3.45572">
        <ele>198.17</ele>
        <time>2014-07-08T17:03:13Z</time>
      </trkpt>
      <trkpt lat="46.83515" lon="3.45574">
        <ele>198.17</ele>
        <time>2014-07-08T17:03:30Z</time>
      </trkpt>
      <trkpt lat="46.83531" lon="3.45596">
        <ele>197.69</ele>
        <time>2014-07-08T17:03:45Z</time>
      </trkpt>
      <trkpt lat="46.83533" lon="3.45607">
        <ele>197.69</ele>
        <time>2014-07-08T17:03:50Z</time>
      </trkpt>
      <trkpt lat="46.83533" lon="3.45652">
        <ele>197.69</ele>
        <time>2014-07-08T17:04:04Z</time>
      </trkpt>
      <trkpt lat="46.8353" lon="3.45699">
        <ele>197.69</ele>
        <time>2014-07-08T17:04:19Z</time>
      </trkpt>
      <trkpt lat="46.83521" lon="3.45742">
        <ele>197.69</ele>
        <time>2014-07-08T17:04:33Z</time>
      </trkpt>
      <trkpt lat="46.83536" lon="3.45771">
        <ele>197.69</ele>
        <time>2014-07-08T17:04:46Z</time>
      </trkpt>
      <trkpt lat="46.83551" lon="3.45755">
        <ele>197.69</ele>
        <time>2014-07-08T17:04:59Z</time>
      </trkpt>
      <trkpt lat="46.83553" lon="3.45754">
        <ele>197.69</ele>
        <time>2014-07-08T17:05:18Z</time>
      </trkpt>
      <trkpt lat="46.83552" lon="3.45751">
        <ele>197.21</ele>
        <time>2014-07-08T17:05:22Z</time>
      </trkpt>
      <trkpt lat="46.83549" lon="3.45751">
        <ele>197.69</ele>
        <time>2014-07-08T17:05:24Z</time>
      </trkpt>
      <trkpt lat="46.83543" lon="3.45762">
        <ele>197.69</ele>
        <time>2014-07-08T17:05:39Z</time>
      </trkpt>
      <trkpt lat="46.83548" lon="3.45764">
        <ele>197.69</ele>
        <time>2014-07-08T17:05:58Z</time>
      </trkpt>
      <trkpt lat="46.83551" lon="3.45764">
        <ele>197.69</ele>
        <time>2014-07-08T17:06:25Z</time>
      </trkpt>
      <trkpt lat="46.83552" lon="3.45762">
        <ele>197.69</ele>
        <time>2014-07-08T17:06:56Z</time>
      </trkpt>
      <trkpt lat="46.83552" lon="3.45763">
        <ele>197.69</ele>
        <time>2014-07-08T17:07:18Z</time>
      </trkpt>
      <trkpt lat="46.83549" lon="3.45758">
        <ele>197.69</ele>
        <time>2014-07-08T17:07:44Z</time>
      </trkpt>
      <trkpt lat="46.83553" lon="3.45764">
        <ele>198.17</ele>
        <time>2014-07-08T17:08:06Z</time>
      </trkpt>
      <trkpt lat="46.83557" lon="3.45767">
        <ele>198.17</ele>
        <time>2014-07-08T17:08:36Z</time>
      </trkpt>
      <trkpt lat="46.83553" lon="3.45765">
        <ele>198.17</ele>
        <time>2014-07-08T17:08:59Z</time>
      </trkpt>
      <trkpt lat="46.83551" lon="3.45761">
        <ele>198.17</ele>
        <time>2014-07-08T17:09:27Z</time>
      </trkpt>
      <trkpt lat="46.8355" lon="3.45752">
        <ele>198.17</ele>
        <time>2014-07-08T17:10:00Z</time>
      </trkpt>
      <trkpt lat="46.8355" lon="3.45751">
        <ele>198.17</ele>
        <time>2014-07-08T17:10:34Z</time>
      </trkpt>
      <trkpt lat="46.83551" lon="3.45753">
        <ele>198.17</ele>
        <time>2014-07-08T17:10:57Z</time>
      </trkpt>
      <trkpt lat="46.83553" lon="3.45753">
        <ele>198.17</ele>
        <time>2014-07-08T17:11:28Z</time>
      </trkpt>
      <trkpt lat="46.83552" lon="3.45749">
        <ele>198.17</ele>
        <time>2014-07-08T17:11:59Z</time>
      </trkpt>
      <trkpt lat="46.83547" lon="3.45747">
        <ele>198.65</ele>
        <time>2014-07-08T17:12:25Z</time>
      </trkpt>
      <trkpt lat="46.83546" lon="3.45747">
        <ele>198.65</ele>
        <time>2014-07-08T17:12:53Z</time>
      </trkpt>
      <trkpt lat="46.83546" lon="3.45747">
        <ele>198.65</ele>
        <time>2014-07-08T17:13:28Z</time>
      </trkpt>
      <trkpt lat="46.83549" lon="3.45749">
        <ele>199.13</ele>
        <time>2014-07-08T17:13:54Z</time>
      </trkpt>
      <trkpt lat="46.83548" lon="3.45745">
        <ele>199.13</ele>
        <time>2014-07-08T17:14:22Z</time>
      </trkpt>
      <trkpt lat="46.83547" lon="3.45747">
        <ele>199.13</ele>
        <time>2014-07-08T17:14:47Z</time>
      </trkpt>
      <trkpt lat="46.83545" lon="3.45751">
        <ele>199.13</ele>
        <time>2014-07-08T17:15:18Z</time>
      </trkpt>
      <trkpt lat="46.83546" lon="3.45752">
        <ele>199.13</ele>
        <time>2014-07-08T17:15:47Z</time>
      </trkpt>
      <trkpt lat="46.83544" lon="3.45752">
        <ele>199.13</ele>
        <time>2014-07-08T17:16:16Z</time>
      </trkpt>
      <trkpt lat="46.83541" lon="3.45747">
        <ele>199.13</ele>
        <time>2014-07-08T17:16:42Z</time>
      </trkpt>
      <trkpt lat="46.8354" lon="3.45746">
        <ele>199.13</ele>
        <time>2014-07-08T17:17:15Z</time>
      </trkpt>
      <trkpt lat="46.83542" lon="3.45748">
        <ele>199.13</ele>
        <time>2014-07-08T17:17:47Z</time>
      </trkpt>
      <trkpt lat="46.83541" lon="3.4575">
        <ele>198.65</ele>
        <time>2014-07-08T17:18:17Z</time>
      </trkpt>
      <trkpt lat="46.8354" lon="3.45749">
        <ele>199.13</ele>
        <time>2014-07-08T17:18:47Z</time>
      </trkpt>
      <trkpt lat="46.8354" lon="3.45752">
        <ele>198.65</ele>
        <time>2014-07-08T17:19:13Z</time>
      </trkpt>
      <trkpt lat="46.83544" lon="3.45753">
        <ele>198.65</ele>
        <time>2014-07-08T17:19:40Z</time>
      </trkpt>
      <trkpt lat="46.83545" lon="3.45753">
        <ele>198.65</ele>
        <time>2014-07-08T17:20:12Z</time>
      </trkpt>
      <trkpt lat="46.83545" lon="3.45753">
        <ele>199.13</ele>
        <time>2014-07-08T17:20:31Z</time>
      </trkpt>
      <trkpt lat="46.83545" lon="3.45752">
        <ele>198.65</ele>
        <time>2014-07-08T17:21:01Z</time>
      </trkpt>
      <trkpt lat="46.83547" lon="3.45755">
        <ele>198.65</ele>
        <time>2014-07-08T17:21:37Z</time>
      </trkpt>
      <trkpt lat="46.83549" lon="3.45759">
        <ele>198.65</ele>
        <time>2014-07-08T17:22:09Z</time>
      </trkpt>
      <trkpt lat="46.83549" lon="3.4576">
        <ele>198.17</ele>
        <time>2014-07-08T17:22:45Z</time>
      </trkpt>
      <trkpt lat="46.8355" lon="3.45759">
        <ele>198.17</ele>
        <time>2014-07-08T17:23:09Z</time>
      </trkpt>
      <trkpt lat="46.83551" lon="3.45757">
        <ele>197.21</ele>
        <time>2014-07-08T17:23:47Z</time>
      </trkpt>
      <trkpt lat="46.83552" lon="3.45758">
        <ele>197.21</ele>
        <time>2014-07-08T17:24:10Z</time>
      </trkpt>
      <trkpt lat="46.83548" lon="3.45754">
        <ele>197.21</ele>
        <time>2014-07-08T17:24:41Z</time>
      </trkpt>
      <trkpt lat="46.83547" lon="3.45756">
        <ele>196.73</ele>
        <time>2014-07-08T17:24:51Z</time>
      </trkpt>
      <trkpt lat="46.83547" lon="3.45755">
        <ele>196.73</ele>
        <time>2014-07-08T17:24:57Z</time>
      </trkpt>
      <trkpt lat="46.83546" lon="3.45749">
        <ele>195.77</ele>
        <time>2014-07-08T17:25:16Z</time>
      </trkpt>
      <trkpt lat="46.8354" lon="3.45751">
        <ele>195.28</ele>
        <time>2014-07-08T17:25:42Z</time>
      </trkpt>
      <trkpt lat="46.83542" lon="3.45752">
        <ele>195.77</ele>
        <time>2014-07-08T17:26:14Z</time>
      </trkpt>
      <trkpt lat="46.83544" lon="3.45754">
        <ele>195.77</ele>
        <time>2014-07-08T17:26:50Z</time>
      </trkpt>
      <trkpt lat="46.83542" lon="3.45754">
        <ele>195.77</ele>
        <time>2014-07-08T17:27:25Z</time>
      </trkpt>
      <trkpt lat="46.83543" lon="3.45757">
        <ele>195.77</ele>
        <time>2014-07-08T17:28:04Z</time>
      </trkpt>
      <trkpt lat="46.83543" lon="3.45756">
        <ele>196.73</ele>
        <time>2014-07-08T17:28:39Z</time>
      </trkpt>
      <trkpt lat="46.83544" lon="3.45751">
        <ele>196.73</ele>
        <time>2014-07-08T17:29:12Z</time>
      </trkpt>
      <trkpt lat="46.83545" lon="3.45755">
        <ele>197.21</ele>
        <time>2014-07-08T17:29:39Z</time>
      </trkpt>
      <trkpt lat="46.83546" lon="3.45754">
        <ele>197.69</ele>
        <time>2014-07-08T17:30:13Z</time>
      </trkpt>
      <trkpt lat="46.83544" lon="3.45756">
        <ele>198.17</ele>
        <time>2014-07-08T17:30:56Z</time>
      </trkpt>
      <trkpt lat="46.83543" lon="3.45756">
        <ele>198.65</ele>
        <time>2014-07-08T17:31:29Z</time>
      </trkpt>
      <trkpt lat="46.83542" lon="3.45757">
        <ele>199.13</ele>
        <time>2014-07-08T17:31:58Z</time>
      </trkpt>
      <trkpt lat="46.83543" lon="3.45757">
        <ele>199.61</ele>
        <time>2014-07-08T17:32:36Z</time>
      </trkpt>
      <trkpt lat="46.83543" lon="3.45762">
        <ele>199.61</ele>
        <time>2014-07-08T17:33:19Z</time>
      </trkpt>
      <trkpt lat="46.83545" lon="3.45756">
        <ele>200.09</ele>
        <time>2014-07-08T17:33:56Z</time>
      </trkpt>
      <trkpt lat="46.83546" lon="3.45757">
        <ele>200.57</ele>
        <time>2014-07-08T17:34:31Z</time>
      </trkpt>
      <trkpt lat="46.83546" lon="3.45762">
        <ele>201.05</ele>
        <time>2014-07-08T17:34:58Z</time>
      </trkpt>
      <trkpt lat="46.83545" lon="3.45757">
        <ele>201.05</ele>
        <time>2014-07-08T17:35:38Z</time>
      </trkpt>
      <trkpt lat="46.83544" lon="3.45759">
        <ele>201.53</ele>
        <time>2014-07-08T17:36:10Z</time>
      </trkpt>
      <trkpt lat="46.83544" lon="3.45759">
        <ele>201.53</ele>
        <time>2014-07-08T17:36:41Z</time>
      </trkpt>
      <trkpt lat="46.83543" lon="3.4576">
        <ele>202.49</ele>
        <time>2014-07-08T17:37:19Z</time>
      </trkpt>
      <trkpt lat="46.83542" lon="3.45758">
        <ele>202.49</ele>
        <time>2014-07-08T17:37:53Z</time>
      </trkpt>
      <trkpt lat="46.83544" lon="3.45758">
        <ele>202.98</ele>
        <time>2014-07-08T17:38:20Z</time>
      </trkpt>
      <trkpt lat="46.83543" lon="3.45759">
        <ele>203.94</ele>
        <time>2014-07-08T17:38:57Z</time>
      </trkpt>
      <trkpt lat="46.83542" lon="3.45758">
        <ele>203.94</ele>
        <time>2014-07-08T17:39:29Z</time>
      </trkpt>
      <trkpt lat="46.83543" lon="3.45757">
        <ele>203.94</ele>
        <time>2014-07-08T17:40:00Z</time>
      </trkpt>
      <trkpt lat="46.83544" lon="3.45757">
        <ele>204.42</ele>
        <time>2014-07-08T17:40:27Z</time>
      </trkpt>
      <trkpt lat="46.83544" lon="3.45755">
        <ele>205.38</ele>
        <time>2014-07-08T17:41:03Z</time>
      </trkpt>
      <trkpt lat="46.83544" lon="3.45754">
        <ele>205.38</ele>
        <time>2014-07-08T17:41:35Z</time>
      </trkpt>
      <trkpt lat="46.83544" lon="3.45753">
        <ele>205.86</ele>
        <time>2014-07-08T17:42:08Z</time>
      </trkpt>
      <trkpt lat="46.83543" lon="3.45755">
        <ele>205.86</ele>
        <time>2014-07-08T17:42:33Z</time>
      </trkpt>
      <trkpt lat="46.83543" lon="3.45756">
        <ele>206.34</ele>
        <time>2014-07-08T17:43:04Z</time>
      </trkpt>
      <trkpt lat="46.83543" lon="3.45755">
        <ele>207.3</ele>
        <time>2014-07-08T17:43:38Z</time>
      </trkpt>
      <trkpt lat="46.83544" lon="3.45753">
        <ele>207.3</ele>
        <time>2014-07-08T17:43:41Z</time>
      </trkpt>
      <trkpt lat="46.83543" lon="3.45755">
        <ele>215.95</ele>
        <time>2014-07-08T21:14:26Z</time>
      </trkpt>
      <trkpt lat="46.83582" lon="3.45734">
        <ele>196.25</ele>
        <time>2014-07-08T21:14:33Z</time>
      </trkpt>
      <trkpt lat="46.83552" lon="3.45761">
        <ele>194.8</ele>
        <time>2014-07-08T21:14:57Z</time>
      </trkpt>
      <trkpt lat="46.83542" lon="3.45753">
        <ele>195.28</ele>
        <time>2014-07-08T21:15:16Z</time>
      </trkpt>
      <trkpt lat="46.83543" lon="3.45753">
        <ele>195.28</ele>
        <time>2014-07-08T21:15:49Z</time>
      </trkpt>
      <trkpt lat="46.83542" lon="3.45752">
        <ele>195.77</ele>
        <time>2014-07-08T21:16:18Z</time>
      </trkpt>
      <trkpt lat="46.83543" lon="3.45745">
        <ele>195.77</ele>
        <time>2014-07-08T21:16:45Z</time>
      </trkpt>
      <trkpt lat="46.83544" lon="3.45744">
        <ele>195.77</ele>
        <time>2014-07-08T21:17:16Z</time>
      </trkpt>
      <trkpt lat="46.83543" lon="3.45753">
        <ele>195.77</ele>
        <time>2014-07-08T21:17:40Z</time>
      </trkpt>
      <trkpt lat="46.83544" lon="3.45751">
        <ele>196.25</ele>
        <time>2014-07-08T21:17:41Z</time>
      </trkpt>
      <trkpt lat="46.83542" lon="3.45752">
        <ele>195.77</ele>
        <time>2014-07-08T21:17:52Z</time>
      </trkpt>
      <trkpt lat="46.83543" lon="3.45749">
        <ele>195.77</ele>
        <time>2014-07-08T21:18:16Z</time>
      </trkpt>
      <trkpt lat="46.8354" lon="3.45748">
        <ele>196.25</ele>
        <time>2014-07-08T21:18:46Z</time>
      </trkpt>
      <trkpt lat="46.83538" lon="3.45748">
        <ele>196.25</ele>
        <time>2014-07-08T21:19:11Z</time>
      </trkpt>
      <trkpt lat="46.8354" lon="3.45747">
        <ele>196.73</ele>
        <time>2014-07-08T21:19:34Z</time>
      </trkpt>
      <trkpt lat="46.83544" lon="3.45741">
        <ele>196.73</ele>
        <time>2014-07-08T21:20:06Z</time>
      </trkpt>
      <trkpt lat="46.83548" lon="3.45739">
        <ele>197.21</ele>
        <time>2014-07-08T21:20:37Z</time>
      </trkpt>
      <trkpt lat="46.83544" lon="3.45741">
        <ele>197.21</ele>
        <time>2014-07-08T21:21:13Z</time>
      </trkpt>
      <trkpt lat="46.83543" lon="3.45745">
        <ele>196.25</ele>
        <time>2014-07-08T21:21:38Z</time>
      </trkpt>
      <trkpt lat="46.83543" lon="3.45745">
        <ele>197.69</ele>
        <time>2014-07-08T21:21:43Z</time>
      </trkpt>
      <trkpt lat="46.83543" lon="3.4575">
        <ele>197.69</ele>
        <time>2014-07-08T21:22:00Z</time>
      </trkpt>
      <trkpt lat="46.83544" lon="3.45757">
        <ele>197.69</ele>
        <time>2014-07-08T21:22:36Z</time>
      </trkpt>
      <trkpt lat="46.83542" lon="3.45759">
        <ele>197.69</ele>
        <time>2014-07-08T21:23:07Z</time>
      </trkpt>
      <trkpt lat="46.83543" lon="3.45763">
        <ele>198.17</ele>
        <time>2014-07-08T21:23:36Z</time>
      </trkpt>
      <trkpt lat="46.83542" lon="3.45764">
        <ele>198.17</ele>
        <time>2014-07-08T21:24:07Z</time>
      </trkpt>
      <trkpt lat="46.83543" lon="3.45764">
        <ele>198.17</ele>
        <time>2014-07-08T21:24:35Z</time>
      </trkpt>
      <trkpt lat="46.83543" lon="3.4576">
        <ele>198.17</ele>
        <time>2014-07-08T21:25:05Z</time>
      </trkpt>
      <trkpt lat="46.83546" lon="3.4576">
        <ele>198.17</ele>
        <time>2014-07-08T21:25:38Z</time>
      </trkpt>
      <trkpt lat="46.83545" lon="3.4575">
        <ele>198.17</ele>
        <time>2014-07-08T21:26:05Z</time>
      </trkpt>
      <trkpt lat="46.83544" lon="3.45746">
        <ele>197.69</ele>
        <time>2014-07-08T21:26:37Z</time>
      </trkpt>
      <trkpt lat="46.83544" lon="3.45745">
        <ele>198.17</ele>
        <time>2014-07-08T21:26:56Z</time>
      </trkpt>
      <trkpt lat="46.83544" lon="3.45745">
        <ele>156.35</ele>
        <time>2014-07-09T05:30:08Z</time>
      </trkpt>
      <trkpt lat="46.83525" lon="3.4575">
        <ele>191.44</ele>
        <time>2014-07-09T05:30:15Z</time>
      </trkpt>
      <trkpt lat="46.83525" lon="3.45749">
        <ele>190</ele>
        <time>2014-07-09T05:30:16Z</time>
      </trkpt>
      <trkpt lat="46.83541" lon="3.4575">
        <ele>189.04</ele>
        <time>2014-07-09T05:30:45Z</time>
      </trkpt>
      <trkpt lat="46.83542" lon="3.45747">
        <ele>189.04</ele>
        <time>2014-07-09T05:31:11Z</time>
      </trkpt>
      <trkpt lat="46.83541" lon="3.45747">
        <ele>189.04</ele>
        <time>2014-07-09T05:31:23Z</time>
      </trkpt>
      <trkpt lat="46.83538" lon="3.45733">
        <ele>155.87</ele>
        <time>2014-07-09T08:14:28Z</time>
      </trkpt>
      <trkpt lat="46.83539" lon="3.45736">
        <ele>185.19</ele>
        <time>2014-07-09T08:14:30Z</time>
      </trkpt>
      <trkpt lat="46.8355" lon="3.45733">
        <ele>183.75</ele>
        <time>2014-07-09T08:14:37Z</time>
      </trkpt>
      <trkpt lat="46.83545" lon="3.45691">
        <ele>183.75</ele>
        <time>2014-07-09T08:14:54Z</time>
      </trkpt>
      <trkpt lat="46.83533" lon="3.45627">
        <ele>183.27</ele>
        <time>2014-07-09T08:15:09Z</time>
      </trkpt>
      <trkpt lat="46.83524" lon="3.45576">
        <ele>183.75</ele>
        <time>2014-07-09T08:15:21Z</time>
      </trkpt>
      <trkpt lat="46.83514" lon="3.45565">
        <ele>183.75</ele>
        <time>2014-07-09T08:15:34Z</time>
      </trkpt>
      <trkpt lat="46.83513" lon="3.45561">
        <ele>183.75</ele>
        <time>2014-07-09T08:15:56Z</time>
      </trkpt>
      <trkpt lat="46.8351" lon="3.45561">
        <ele>184.23</ele>
        <time>2014-07-09T08:16:25Z</time>
      </trkpt>
      <trkpt lat="46.83518" lon="3.45565">
        <ele>184.23</ele>
        <time>2014-07-09T08:16:46Z</time>
      </trkpt>
      <trkpt lat="46.83513" lon="3.45557">
        <ele>184.71</ele>
        <time>2014-07-09T08:17:14Z</time>
      </trkpt>
      <trkpt lat="46.83514" lon="3.45558">
        <ele>185.19</ele>
        <time>2014-07-09T08:17:42Z</time>
      </trkpt>
      <trkpt lat="46.83515" lon="3.45561">
        <ele>185.19</ele>
        <time>2014-07-09T08:18:15Z</time>
      </trkpt>
      <trkpt lat="46.83517" lon="3.45563">
        <ele>185.67</ele>
        <time>2014-07-09T08:18:44Z</time>
      </trkpt>
      <trkpt lat="46.83516" lon="3.45564">
        <ele>186.15</ele>
        <time>2014-07-09T08:19:16Z</time>
      </trkpt>
      <trkpt lat="46.83519" lon="3.45565">
        <ele>186.63</ele>
        <time>2014-07-09T08:19:48Z</time>
      </trkpt>
      <trkpt lat="46.83515" lon="3.45569">
        <ele>186.63</ele>
        <time>2014-07-09T08:20:21Z</time>
      </trkpt>
      <trkpt lat="46.83519" lon="3.45567">
        <ele>187.11</ele>
        <time>2014-07-09T08:20:50Z</time>
      </trkpt>
      <trkpt lat="46.83517" lon="3.45567">
        <ele>187.11</ele>
        <time>2014-07-09T08:21:07Z</time>
      </trkpt>
      <trkpt lat="46.83515" lon="3.45567">
        <ele>187.59</ele>
        <time>2014-07-09T08:21:29Z</time>
      </trkpt>
      <trkpt lat="46.83512" lon="3.45565">
        <ele>204.9</ele>
        <time>2014-07-09T08:21:37Z</time>
      </trkpt>
      <trkpt lat="46.83511" lon="3.45565">
        <ele>204.9</ele>
        <time>2014-07-09T08:21:38Z</time>
      </trkpt>
      <trkpt lat="46.83511" lon="3.45566">
        <ele>200.57</ele>
        <time>2014-07-09T08:21:41Z</time>
      </trkpt>
      <trkpt lat="46.8351" lon="3.45566">
        <ele>200.57</ele>
        <time>2014-07-09T08:21:42Z</time>
      </trkpt>
      <trkpt lat="46.83511" lon="3.4557">
        <ele>200.57</ele>
        <time>2014-07-09T08:22:03Z</time>
      </trkpt>
      <trkpt lat="46.83505" lon="3.45574">
        <ele>200.09</ele>
        <time>2014-07-09T08:22:09Z</time>
      </trkpt>
      <trkpt lat="46.83502" lon="3.45572">
        <ele>200.57</ele>
        <time>2014-07-09T08:22:11Z</time>
      </trkpt>
      <trkpt lat="46.83482" lon="3.45558">
        <ele>201.05</ele>
        <time>2014-07-09T08:22:24Z</time>
      </trkpt>
      <trkpt lat="46.83441" lon="3.4558">
        <ele>201.53</ele>
        <time>2014-07-09T08:22:39Z</time>
      </trkpt>
      <trkpt lat="46.83413" lon="3.45619">
        <ele>202.01</ele>
        <time>2014-07-09T08:22:53Z</time>
      </trkpt>
      <trkpt lat="46.83401" lon="3.45636">
        <ele>202.01</ele>
        <time>2014-07-09T08:22:59Z</time>
      </trkpt>
      <trkpt lat="46.83392" lon="3.45631">
        <ele>201.53</ele>
        <time>2014-07-09T08:23:03Z</time>
      </trkpt>
      <trkpt lat="46.8337" lon="3.45587">
        <ele>201.53</ele>
        <time>2014-07-09T08:23:17Z</time>
      </trkpt>
      <trkpt lat="46.83347" lon="3.45535">
        <ele>202.01</ele>
        <time>2014-07-09T08:23:34Z</time>
      </trkpt>
      <trkpt lat="46.83324" lon="3.45555">
        <ele>202.01</ele>
        <time>2014-07-09T08:23:44Z</time>
      </trkpt>
      <trkpt lat="46.83277" lon="3.45611">
        <ele>202.01</ele>
        <time>2014-07-09T08:24:00Z</time>
      </trkpt>
      <trkpt lat="46.83245" lon="3.45646">
        <ele>202.01</ele>
        <time>2014-07-09T08:24:10Z</time>
      </trkpt>
      <trkpt lat="46.8319" lon="3.45703">
        <ele>202.01</ele>
        <time>2014-07-09T08:24:26Z</time>
      </trkpt>
      <trkpt lat="46.83131" lon="3.45752">
        <ele>202.01</ele>
        <time>2014-07-09T08:24:42Z</time>
      </trkpt>
      <trkpt lat="46.83076" lon="3.45781">
        <ele>201.53</ele>
        <time>2014-07-09T08:24:57Z</time>
      </trkpt>
      <trkpt lat="46.83003" lon="3.45806">
        <ele>201.53</ele>
        <time>2014-07-09T08:25:15Z</time>
      </trkpt>
      <trkpt lat="46.82922" lon="3.45842">
        <ele>202.01</ele>
        <time>2014-07-09T08:25:36Z</time>
      </trkpt>
      <trkpt lat="46.82898" lon="3.45848">
        <ele>202.49</ele>
        <time>2014-07-09T08:25:48Z</time>
      </trkpt>
      <trkpt lat="46.82862" lon="3.45859">
        <ele>203.46</ele>
        <time>2014-07-09T08:26:04Z</time>
      </trkpt>
      <trkpt lat="46.82817" lon="3.45867">
        <ele>205.38</ele>
        <time>2014-07-09T08:26:23Z</time>
      </trkpt>
      <trkpt lat="46.82814" lon="3.45864">
        <ele>205.86</ele>
        <time>2014-07-09T08:26:25Z</time>
      </trkpt>
      <trkpt lat="46.82801" lon="3.45808">
        <ele>205.86</ele>
        <time>2014-07-09T08:26:41Z</time>
      </trkpt>
      <trkpt lat="46.82782" lon="3.45719">
        <ele>206.34</ele>
        <time>2014-07-09T08:27:00Z</time>
      </trkpt>
      <trkpt lat="46.82754" lon="3.45635">
        <ele>203.94</ele>
        <time>2014-07-09T08:27:15Z</time>
      </trkpt>
      <trkpt lat="46.82726" lon="3.45559">
        <ele>203.46</ele>
        <time>2014-07-09T08:27:27Z</time>
      </trkpt>
      <trkpt lat="46.82722" lon="3.45547">
        <ele>202.98</ele>
        <time>2014-07-09T08:27:29Z</time>
      </trkpt>
      <trkpt lat="46.8272" lon="3.45477">
        <ele>203.94</ele>
        <time>2014-07-09T08:27:42Z</time>
      </trkpt>
      <trkpt lat="46.8272" lon="3.45433">
        <ele>202.98</ele>
        <time>2014-07-09T08:27:53Z</time>
      </trkpt>
      <trkpt lat="46.82723" lon="3.45429">
        <ele>202.49</ele>
        <time>2014-07-09T08:28:07Z</time>
      </trkpt>
      <trkpt lat="46.82723" lon="3.45429">
        <ele>202.98</ele>
        <time>2014-07-09T08:28:09Z</time>
      </trkpt>
      <trkpt lat="46.82709" lon="3.45412">
        <ele>202.98</ele>
        <time>2014-07-09T08:28:20Z</time>
      </trkpt>
      <trkpt lat="46.82705" lon="3.45409">
        <ele>202.98</ele>
        <time>2014-07-09T08:28:22Z</time>
      </trkpt>
      <trkpt lat="46.8268" lon="3.45357">
        <ele>202.98</ele>
        <time>2014-07-09T08:28:38Z</time>
      </trkpt>
      <trkpt lat="46.82648" lon="3.45298">
        <ele>202.98</ele>
        <time>2014-07-09T08:28:54Z</time>
      </trkpt>
      <trkpt lat="46.82601" lon="3.45222">
        <ele>202.98</ele>
        <time>2014-07-09T08:29:13Z</time>
      </trkpt>
      <trkpt lat="46.82567" lon="3.45159">
        <ele>203.46</ele>
        <time>2014-07-09T08:29:28Z</time>
      </trkpt>
      <trkpt lat="46.82529" lon="3.45097">
        <ele>202.49</ele>
        <time>2014-07-09T08:29:43Z</time>
      </trkpt>
      <trkpt lat="46.82483" lon="3.45007">
        <ele>202.01</ele>
        <time>2014-07-09T08:30:02Z</time>
      </trkpt>
      <trkpt lat="46.82447" lon="3.44941">
        <ele>202.01</ele>
        <time>2014-07-09T08:30:17Z</time>
      </trkpt>
      <trkpt lat="46.82394" lon="3.44856">
        <ele>201.53</ele>
        <time>2014-07-09T08:30:37Z</time>
      </trkpt>
      <trkpt lat="46.82347" lon="3.4478">
        <ele>201.05</ele>
        <time>2014-07-09T08:30:55Z</time>
      </trkpt>
      <trkpt lat="46.82305" lon="3.44705">
        <ele>202.01</ele>
        <time>2014-07-09T08:31:12Z</time>
      </trkpt>
      <trkpt lat="46.82266" lon="3.44623">
        <ele>201.53</ele>
        <time>2014-07-09T08:31:29Z</time>
      </trkpt>
      <trkpt lat="46.82239" lon="3.44567">
        <ele>201.05</ele>
        <time>2014-07-09T08:31:43Z</time>
      </trkpt>
      <trkpt lat="46.82215" lon="3.44519">
        <ele>201.05</ele>
        <time>2014-07-09T08:32:00Z</time>
      </trkpt>
      <trkpt lat="46.82184" lon="3.44455">
        <ele>201.53</ele>
        <time>2014-07-09T08:32:18Z</time>
      </trkpt>
      <trkpt lat="46.82163" lon="3.44412">
        <ele>202.98</ele>
        <time>2014-07-09T08:32:27Z</time>
      </trkpt>
      <trkpt lat="46.82115" lon="3.44311">
        <ele>201.53</ele>
        <time>2014-07-09T08:32:47Z</time>
      </trkpt>
      <trkpt lat="46.82078" lon="3.44232">
        <ele>201.53</ele>
        <time>2014-07-09T08:33:03Z</time>
      </trkpt>
      <trkpt lat="46.82051" lon="3.44176">
        <ele>201.53</ele>
        <time>2014-07-09T08:33:15Z</time>
      </trkpt>
      <trkpt lat="46.82004" lon="3.44077">
        <ele>201.53</ele>
        <time>2014-07-09T08:33:35Z</time>
      </trkpt>
      <trkpt lat="46.81972" lon="3.44009">
        <ele>201.53</ele>
        <time>2014-07-09T08:33:51Z</time>
      </trkpt>
      <trkpt lat="46.81929" lon="3.43917">
        <ele>201.53</ele>
        <time>2014-07-09T08:34:12Z</time>
      </trkpt>
      <trkpt lat="46.81886" lon="3.43826">
        <ele>201.53</ele>
        <time>2014-07-09T08:34:31Z</time>
      </trkpt>
      <trkpt lat="46.81836" lon="3.43721">
        <ele>201.05</ele>
        <time>2014-07-09T08:34:51Z</time>
      </trkpt>
      <trkpt lat="46.818" lon="3.43619">
        <ele>201.05</ele>
        <time>2014-07-09T08:35:10Z</time>
      </trkpt>
      <trkpt lat="46.81779" lon="3.43515">
        <ele>202.49</ele>
        <time>2014-07-09T08:35:29Z</time>
      </trkpt>
      <trkpt lat="46.81768" lon="3.43455">
        <ele>203.94</ele>
        <time>2014-07-09T08:35:43Z</time>
      </trkpt>
      <trkpt lat="46.81759" lon="3.43395">
        <ele>206.34</ele>
        <time>2014-07-09T08:36:01Z</time>
      </trkpt>
      <trkpt lat="46.81756" lon="3.43348">
        <ele>203.46</ele>
        <time>2014-07-09T08:36:11Z</time>
      </trkpt>
      <trkpt lat="46.81757" lon="3.4324">
        <ele>202.49</ele>
        <time>2014-07-09T08:36:25Z</time>
      </trkpt>
      <trkpt lat="46.8177" lon="3.43143">
        <ele>202.98</ele>
        <time>2014-07-09T08:36:41Z</time>
      </trkpt>
      <trkpt lat="46.81785" lon="3.43042">
        <ele>202.49</ele>
        <time>2014-07-09T08:37:00Z</time>
      </trkpt>
      <trkpt lat="46.81788" lon="3.43019">
        <ele>202.49</ele>
        <time>2014-07-09T08:37:04Z</time>
      </trkpt>
      <trkpt lat="46.81803" lon="3.42916">
        <ele>202.98</ele>
        <time>2014-07-09T08:37:23Z</time>
      </trkpt>
      <trkpt lat="46.81815" lon="3.42824">
        <ele>202.49</ele>
        <time>2014-07-09T08:37:40Z</time>
      </trkpt>
      <trkpt lat="46.81829" lon="3.42729">
        <ele>202.98</ele>
        <time>2014-07-09T08:37:57Z</time>
      </trkpt>
      <trkpt lat="46.81859" lon="3.42637">
        <ele>202.49</ele>
        <time>2014-07-09T08:38:14Z</time>
      </trkpt>
      <trkpt lat="46.81899" lon="3.42558">
        <ele>202.49</ele>
        <time>2014-07-09T08:38:31Z</time>
      </trkpt>
      <trkpt lat="46.81952" lon="3.42484">
        <ele>203.46</ele>
        <time>2014-07-09T08:38:51Z</time>
      </trkpt>
      <trkpt lat="46.81955" lon="3.42481">
        <ele>203.94</ele>
        <time>2014-07-09T08:38:52Z</time>
      </trkpt>
      <trkpt lat="46.81979" lon="3.42438">
        <ele>205.86</ele>
        <time>2014-07-09T08:39:09Z</time>
      </trkpt>
      <trkpt lat="46.81996" lon="3.42396">
        <ele>203.94</ele>
        <time>2014-07-09T08:39:21Z</time>
      </trkpt>
      <trkpt lat="46.82" lon="3.42382">
        <ele>203.46</ele>
        <time>2014-07-09T08:39:23Z</time>
      </trkpt>
      <trkpt lat="46.82009" lon="3.42262">
        <ele>202.01</ele>
        <time>2014-07-09T08:39:38Z</time>
      </trkpt>
      <trkpt lat="46.81997" lon="3.42169">
        <ele>202.49</ele>
        <time>2014-07-09T08:39:53Z</time>
      </trkpt>
      <trkpt lat="46.81972" lon="3.42081">
        <ele>202.01</ele>
        <time>2014-07-09T08:40:08Z</time>
      </trkpt>
      <trkpt lat="46.81967" lon="3.42063">
        <ele>202.01</ele>
        <time>2014-07-09T08:40:11Z</time>
      </trkpt>
      <trkpt lat="46.81961" lon="3.42033">
        <ele>202.01</ele>
        <time>2014-07-09T08:40:16Z</time>
      </trkpt>
      <trkpt lat="46.81957" lon="3.42014">
        <ele>202.01</ele>
        <time>2014-07-09T08:40:19Z</time>
      </trkpt>
      <trkpt lat="46.81948" lon="3.41916">
        <ele>202.01</ele>
        <time>2014-07-09T08:40:34Z</time>
      </trkpt>
      <trkpt lat="46.8195" lon="3.41842">
        <ele>202.01</ele>
        <time>2014-07-09T08:40:45Z</time>
      </trkpt>
      <trkpt lat="46.81954" lon="3.41797">
        <ele>202.01</ele>
        <time>2014-07-09T08:40:52Z</time>
      </trkpt>
      <trkpt lat="46.81979" lon="3.41679">
        <ele>202.01</ele>
        <time>2014-07-09T08:41:12Z</time>
      </trkpt>
      <trkpt lat="46.82004" lon="3.41577">
        <ele>202.01</ele>
        <time>2014-07-09T08:41:29Z</time>
      </trkpt>
      <trkpt lat="46.82016" lon="3.41493">
        <ele>202.01</ele>
        <time>2014-07-09T08:41:43Z</time>
      </trkpt>
      <trkpt lat="46.82024" lon="3.41387">
        <ele>202.01</ele>
        <time>2014-07-09T08:42:00Z</time>
      </trkpt>
      <trkpt lat="46.82029" lon="3.41345">
        <ele>201.53</ele>
        <time>2014-07-09T08:42:07Z</time>
      </trkpt>
      <trkpt lat="46.8204" lon="3.41219">
        <ele>201.53</ele>
        <time>2014-07-09T08:42:27Z</time>
      </trkpt>
      <trkpt lat="46.82052" lon="3.41084">
        <ele>201.53</ele>
        <time>2014-07-09T08:42:49Z</time>
      </trkpt>
      <trkpt lat="46.82053" lon="3.41072">
        <ele>201.53</ele>
        <time>2014-07-09T08:42:51Z</time>
      </trkpt>
      <trkpt lat="46.82064" lon="3.40954">
        <ele>201.53</ele>
        <time>2014-07-09T08:43:10Z</time>
      </trkpt>
      <trkpt lat="46.82074" lon="3.40836">
        <ele>201.53</ele>
        <time>2014-07-09T08:43:28Z</time>
      </trkpt>
      <trkpt lat="46.82076" lon="3.40718">
        <ele>201.53</ele>
        <time>2014-07-09T08:43:47Z</time>
      </trkpt>
      <trkpt lat="46.82056" lon="3.40606">
        <ele>201.53</ele>
        <time>2014-07-09T08:44:05Z</time>
      </trkpt>
      <trkpt lat="46.82019" lon="3.40512">
        <ele>201.53</ele>
        <time>2014-07-09T08:44:23Z</time>
      </trkpt>
      <trkpt lat="46.82002" lon="3.40483">
        <ele>201.53</ele>
        <time>2014-07-09T08:44:29Z</time>
      </trkpt>
      <trkpt lat="46.81946" lon="3.40417">
        <ele>201.53</ele>
        <time>2014-07-09T08:44:46Z</time>
      </trkpt>
      <trkpt lat="46.8188" lon="3.40361">
        <ele>201.53</ele>
        <time>2014-07-09T08:45:04Z</time>
      </trkpt>
      <trkpt lat="46.81831" lon="3.4032">
        <ele>201.53</ele>
        <time>2014-07-09T08:45:18Z</time>
      </trkpt>
      <trkpt lat="46.81813" lon="3.40305">
        <ele>201.53</ele>
        <time>2014-07-09T08:45:23Z</time>
      </trkpt>
      <trkpt lat="46.81754" lon="3.40249">
        <ele>201.53</ele>
        <time>2014-07-09T08:45:41Z</time>
      </trkpt>
      <trkpt lat="46.8172" lon="3.40201">
        <ele>201.53</ele>
        <time>2014-07-09T08:45:53Z</time>
      </trkpt>
      <trkpt lat="46.81673" lon="3.40109">
        <ele>201.53</ele>
        <time>2014-07-09T08:46:11Z</time>
      </trkpt>
      <trkpt lat="46.81641" lon="3.40005">
        <ele>201.53</ele>
        <time>2014-07-09T08:46:28Z</time>
      </trkpt>
      <trkpt lat="46.81636" lon="3.39972">
        <ele>202.49</ele>
        <time>2014-07-09T08:46:33Z</time>
      </trkpt>
      <trkpt lat="46.81625" lon="3.39876">
        <ele>201.53</ele>
        <time>2014-07-09T08:46:48Z</time>
      </trkpt>
      <trkpt lat="46.81623" lon="3.39864">
        <ele>201.53</ele>
        <time>2014-07-09T08:46:50Z</time>
      </trkpt>
      <trkpt lat="46.81616" lon="3.398">
        <ele>202.01</ele>
        <time>2014-07-09T08:47:00Z</time>
      </trkpt>
      <trkpt lat="46.81606" lon="3.3968">
        <ele>201.53</ele>
        <time>2014-07-09T08:47:19Z</time>
      </trkpt>
      <trkpt lat="46.81604" lon="3.39655">
        <ele>201.53</ele>
        <time>2014-07-09T08:47:23Z</time>
      </trkpt>
      <trkpt lat="46.81595" lon="3.39538">
        <ele>202.01</ele>
        <time>2014-07-09T08:47:41Z</time>
      </trkpt>
      <trkpt lat="46.81591" lon="3.39464">
        <ele>203.94</ele>
        <time>2014-07-09T08:47:55Z</time>
      </trkpt>
      <trkpt lat="46.8159" lon="3.39428">
        <ele>205.86</ele>
        <time>2014-07-09T08:48:09Z</time>
      </trkpt>
      <trkpt lat="46.81585" lon="3.39379">
        <ele>202.98</ele>
        <time>2014-07-09T08:48:17Z</time>
      </trkpt>
      <trkpt lat="46.81571" lon="3.39281">
        <ele>201.53</ele>
        <time>2014-07-09T08:48:30Z</time>
      </trkpt>
      <trkpt lat="46.81561" lon="3.39171">
        <ele>201.53</ele>
        <time>2014-07-09T08:48:48Z</time>
      </trkpt>
      <trkpt lat="46.81557" lon="3.39127">
        <ele>201.53</ele>
        <time>2014-07-09T08:48:55Z</time>
      </trkpt>
      <trkpt lat="46.81555" lon="3.39103">
        <ele>201.53</ele>
        <time>2014-07-09T08:48:59Z</time>
      </trkpt>
      <trkpt lat="46.81552" lon="3.39067">
        <ele>201.53</ele>
        <time>2014-07-09T08:49:05Z</time>
      </trkpt>
      <trkpt lat="46.8155" lon="3.39038">
        <ele>202.01</ele>
        <time>2014-07-09T08:49:10Z</time>
      </trkpt>
      <trkpt lat="46.81547" lon="3.39013">
        <ele>201.53</ele>
        <time>2014-07-09T08:49:14Z</time>
      </trkpt>
      <trkpt lat="46.81544" lon="3.38987">
        <ele>201.53</ele>
        <time>2014-07-09T08:49:18Z</time>
      </trkpt>
      <trkpt lat="46.81531" lon="3.38862">
        <ele>201.53</ele>
        <time>2014-07-09T08:49:37Z</time>
      </trkpt>
      <trkpt lat="46.81511" lon="3.38761">
        <ele>201.53</ele>
        <time>2014-07-09T08:49:53Z</time>
      </trkpt>
      <trkpt lat="46.81484" lon="3.38671">
        <ele>201.53</ele>
        <time>2014-07-09T08:50:08Z</time>
      </trkpt>
      <trkpt lat="46.81454" lon="3.38594">
        <ele>201.53</ele>
        <time>2014-07-09T08:50:22Z</time>
      </trkpt>
      <trkpt lat="46.81422" lon="3.38507">
        <ele>202.01</ele>
        <time>2014-07-09T08:50:39Z</time>
      </trkpt>
      <trkpt lat="46.81406" lon="3.38469">
        <ele>202.01</ele>
        <time>2014-07-09T08:50:46Z</time>
      </trkpt>
      <trkpt lat="46.81399" lon="3.38445">
        <ele>202.01</ele>
        <time>2014-07-09T08:50:50Z</time>
      </trkpt>
      <trkpt lat="46.81376" lon="3.38374">
        <ele>202.01</ele>
        <time>2014-07-09T08:51:05Z</time>
      </trkpt>
      <trkpt lat="46.81378" lon="3.38374">
        <ele>202.01</ele>
        <time>2014-07-09T08:51:14Z</time>
      </trkpt>
      <trkpt lat="46.81378" lon="3.38371">
        <ele>202.01</ele>
        <time>2014-07-09T08:51:29Z</time>
      </trkpt>
      <trkpt lat="46.81376" lon="3.38371">
        <ele>202.01</ele>
        <time>2014-07-09T08:51:59Z</time>
      </trkpt>
      <trkpt lat="46.81378" lon="3.38373">
        <ele>202.01</ele>
        <time>2014-07-09T08:52:27Z</time>
      </trkpt>
      <trkpt lat="46.81378" lon="3.38375">
        <ele>202.01</ele>
        <time>2014-07-09T08:52:59Z</time>
      </trkpt>
      <trkpt lat="46.81376" lon="3.38376">
        <ele>202.01</ele>
        <time>2014-07-09T08:53:30Z</time>
      </trkpt>
      <trkpt lat="46.81375" lon="3.38372">
        <ele>202.01</ele>
        <time>2014-07-09T08:53:36Z</time>
      </trkpt>
      <trkpt lat="46.81376" lon="3.38377">
        <ele>205.86</ele>
        <time>2014-07-09T09:18:24Z</time>
      </trkpt>
      <trkpt lat="46.81376" lon="3.38377">
        <ele>204.42</ele>
        <time>2014-07-09T09:18:32Z</time>
      </trkpt>
      <trkpt lat="46.81375" lon="3.38376">
        <ele>203.94</ele>
        <time>2014-07-09T09:18:35Z</time>
      </trkpt>
      <trkpt lat="46.81376" lon="3.38374">
        <ele>202.01</ele>
        <time>2014-07-09T09:18:45Z</time>
      </trkpt>
      <trkpt lat="46.81378" lon="3.38374">
        <ele>199.13</ele>
        <time>2014-07-09T09:19:02Z</time>
      </trkpt>
      <trkpt lat="46.81377" lon="3.38372">
        <ele>198.17</ele>
        <time>2014-07-09T09:19:35Z</time>
      </trkpt>
      <trkpt lat="46.81375" lon="3.38367">
        <ele>198.65</ele>
        <time>2014-07-09T09:19:54Z</time>
      </trkpt>
      <trkpt lat="46.81375" lon="3.38366">
        <ele>198.17</ele>
        <time>2014-07-09T09:20:03Z</time>
      </trkpt>
      <trkpt lat="46.81374" lon="3.38361">
        <ele>198.17</ele>
        <time>2014-07-09T09:20:20Z</time>
      </trkpt>
      <trkpt lat="46.81373" lon="3.3836">
        <ele>198.65</ele>
        <time>2014-07-09T09:20:34Z</time>
      </trkpt>
      <trkpt lat="46.81372" lon="3.38353">
        <ele>198.65</ele>
        <time>2014-07-09T09:20:38Z</time>
      </trkpt>
      <trkpt lat="46.81361" lon="3.38303">
        <ele>198.65</ele>
        <time>2014-07-09T09:20:56Z</time>
      </trkpt>
      <trkpt lat="46.81348" lon="3.38231">
        <ele>198.65</ele>
        <time>2014-07-09T09:21:12Z</time>
      </trkpt>
      <trkpt lat="46.81331" lon="3.38138">
        <ele>198.65</ele>
        <time>2014-07-09T09:21:30Z</time>
      </trkpt>
      <trkpt lat="46.81306" lon="3.38046">
        <ele>198.65</ele>
        <time>2014-07-09T09:21:48Z</time>
      </trkpt>
      <trkpt lat="46.81275" lon="3.37968">
        <ele>198.65</ele>
        <time>2014-07-09T09:22:04Z</time>
      </trkpt>
      <trkpt lat="46.81236" lon="3.37891">
        <ele>198.65</ele>
        <time>2014-07-09T09:22:21Z</time>
      </trkpt>
      <trkpt lat="46.81188" lon="3.37819">
        <ele>198.17</ele>
        <time>2014-07-09T09:22:38Z</time>
      </trkpt>
      <trkpt lat="46.81138" lon="3.37753">
        <ele>198.65</ele>
        <time>2014-07-09T09:22:55Z</time>
      </trkpt>
      <trkpt lat="46.81102" lon="3.37716">
        <ele>199.13</ele>
        <time>2014-07-09T09:23:07Z</time>
      </trkpt>
      <trkpt lat="46.81064" lon="3.37663">
        <ele>198.17</ele>
        <time>2014-07-09T09:23:23Z</time>
      </trkpt>
      <trkpt lat="46.81026" lon="3.37605">
        <ele>196.73</ele>
        <time>2014-07-09T09:23:36Z</time>
      </trkpt>
      <trkpt lat="46.80992" lon="3.37539">
        <ele>196.25</ele>
        <time>2014-07-09T09:23:47Z</time>
      </trkpt>
      <trkpt lat="46.80986" lon="3.37519">
        <ele>196.25</ele>
        <time>2014-07-09T09:23:50Z</time>
      </trkpt>
      <trkpt lat="46.8098" lon="3.37473">
        <ele>196.25</ele>
        <time>2014-07-09T09:23:57Z</time>
      </trkpt>
      <trkpt lat="46.80996" lon="3.37406">
        <ele>196.25</ele>
        <time>2014-07-09T09:24:08Z</time>
      </trkpt>
      <trkpt lat="46.81045" lon="3.37307">
        <ele>196.25</ele>
        <time>2014-07-09T09:24:28Z</time>
      </trkpt>
      <trkpt lat="46.81053" lon="3.37292">
        <ele>196.25</ele>
        <time>2014-07-09T09:24:31Z</time>
      </trkpt>
      <trkpt lat="46.81102" lon="3.37204">
        <ele>196.25</ele>
        <time>2014-07-09T09:24:50Z</time>
      </trkpt>
      <trkpt lat="46.81148" lon="3.3712">
        <ele>196.25</ele>
        <time>2014-07-09T09:25:08Z</time>
      </trkpt>
      <trkpt lat="46.81199" lon="3.37028">
        <ele>196.73</ele>
        <time>2014-07-09T09:25:28Z</time>
      </trkpt>
      <trkpt lat="46.81239" lon="3.36976">
        <ele>197.69</ele>
        <time>2014-07-09T09:25:43Z</time>
      </trkpt>
      <trkpt lat="46.81257" lon="3.36936">
        <ele>200.09</ele>
        <time>2014-07-09T09:25:57Z</time>
      </trkpt>
      <trkpt lat="46.81264" lon="3.36921">
        <ele>198.17</ele>
        <time>2014-07-09T09:26:00Z</time>
      </trkpt>
      <trkpt lat="46.81302" lon="3.36835">
        <ele>196.25</ele>
        <time>2014-07-09T09:26:13Z</time>
      </trkpt>
      <trkpt lat="46.81349" lon="3.36749">
        <ele>196.73</ele>
        <time>2014-07-09T09:26:30Z</time>
      </trkpt>
      <trkpt lat="46.81407" lon="3.36644">
        <ele>196.73</ele>
        <time>2014-07-09T09:26:51Z</time>
      </trkpt>
      <trkpt lat="46.81425" lon="3.36609">
        <ele>196.73</ele>
        <time>2014-07-09T09:26:58Z</time>
      </trkpt>
      <trkpt lat="46.81435" lon="3.36575">
        <ele>196.73</ele>
        <time>2014-07-09T09:27:05Z</time>
      </trkpt>
      <trkpt lat="46.81461" lon="3.36538">
        <ele>197.21</ele>
        <time>2014-07-09T09:27:17Z</time>
      </trkpt>
      <trkpt lat="46.81478" lon="3.36512">
        <ele>196.73</ele>
        <time>2014-07-09T09:27:24Z</time>
      </trkpt>
      <trkpt lat="46.81523" lon="3.36434">
        <ele>194.32</ele>
        <time>2014-07-09T09:27:38Z</time>
      </trkpt>
      <trkpt lat="46.81556" lon="3.36372">
        <ele>193.84</ele>
        <time>2014-07-09T09:27:54Z</time>
      </trkpt>
      <trkpt lat="46.81558" lon="3.36369">
        <ele>193.84</ele>
        <time>2014-07-09T09:28:06Z</time>
      </trkpt>
      <trkpt lat="46.81558" lon="3.36369">
        <ele>193.84</ele>
        <time>2014-07-09T09:28:43Z</time>
      </trkpt>
      <trkpt lat="46.81565" lon="3.36357">
        <ele>193.84</ele>
        <time>2014-07-09T09:29:07Z</time>
      </trkpt>
      <trkpt lat="46.81594" lon="3.36302">
        <ele>193.84</ele>
        <time>2014-07-09T09:29:23Z</time>
      </trkpt>
      <trkpt lat="46.81625" lon="3.36244">
        <ele>194.32</ele>
        <time>2014-07-09T09:29:38Z</time>
      </trkpt>
      <trkpt lat="46.81663" lon="3.36175">
        <ele>194.32</ele>
        <time>2014-07-09T09:29:55Z</time>
      </trkpt>
      <trkpt lat="46.81712" lon="3.36085">
        <ele>194.8</ele>
        <time>2014-07-09T09:30:16Z</time>
      </trkpt>
      <trkpt lat="46.8175" lon="3.36016">
        <ele>194.32</ele>
        <time>2014-07-09T09:30:32Z</time>
      </trkpt>
      <trkpt lat="46.81794" lon="3.35933">
        <ele>194.8</ele>
        <time>2014-07-09T09:30:51Z</time>
      </trkpt>
      <trkpt lat="46.81839" lon="3.35847">
        <ele>194.32</ele>
        <time>2014-07-09T09:31:10Z</time>
      </trkpt>
      <trkpt lat="46.81877" lon="3.35778">
        <ele>193.84</ele>
        <time>2014-07-09T09:31:26Z</time>
      </trkpt>
      <trkpt lat="46.8191" lon="3.35728">
        <ele>195.28</ele>
        <time>2014-07-09T09:31:39Z</time>
      </trkpt>
      <trkpt lat="46.81928" lon="3.35699">
        <ele>197.69</ele>
        <time>2014-07-09T09:31:54Z</time>
      </trkpt>
      <trkpt lat="46.81938" lon="3.35674">
        <ele>195.28</ele>
        <time>2014-07-09T09:32:01Z</time>
      </trkpt>
      <trkpt lat="46.81976" lon="3.35597">
        <ele>194.32</ele>
        <time>2014-07-09T09:32:16Z</time>
      </trkpt>
      <trkpt lat="46.82008" lon="3.35539">
        <ele>194.8</ele>
        <time>2014-07-09T09:32:31Z</time>
      </trkpt>
      <trkpt lat="46.82044" lon="3.35463">
        <ele>194.32</ele>
        <time>2014-07-09T09:32:47Z</time>
      </trkpt>
      <trkpt lat="46.82067" lon="3.35355">
        <ele>193.84</ele>
        <time>2014-07-09T09:33:05Z</time>
      </trkpt>
      <trkpt lat="46.82068" lon="3.35349">
        <ele>193.84</ele>
        <time>2014-07-09T09:33:06Z</time>
      </trkpt>
      <trkpt lat="46.82066" lon="3.35297">
        <ele>193.36</ele>
        <time>2014-07-09T09:33:14Z</time>
      </trkpt>
      <trkpt lat="46.82037" lon="3.35174">
        <ele>193.84</ele>
        <time>2014-07-09T09:33:34Z</time>
      </trkpt>
      <trkpt lat="46.81994" lon="3.35071">
        <ele>193.84</ele>
        <time>2014-07-09T09:33:52Z</time>
      </trkpt>
      <trkpt lat="46.81951" lon="3.34964">
        <ele>193.36</ele>
        <time>2014-07-09T09:34:11Z</time>
      </trkpt>
      <trkpt lat="46.81935" lon="3.34868">
        <ele>193.36</ele>
        <time>2014-07-09T09:34:26Z</time>
      </trkpt>
      <trkpt lat="46.81953" lon="3.34755">
        <ele>193.84</ele>
        <time>2014-07-09T09:34:44Z</time>
      </trkpt>
      <trkpt lat="46.81988" lon="3.34672">
        <ele>193.36</ele>
        <time>2014-07-09T09:34:59Z</time>
      </trkpt>
      <trkpt lat="46.82034" lon="3.34571">
        <ele>193.84</ele>
        <time>2014-07-09T09:35:17Z</time>
      </trkpt>
      <trkpt lat="46.82092" lon="3.3447">
        <ele>193.84</ele>
        <time>2014-07-09T09:35:37Z</time>
      </trkpt>
      <trkpt lat="46.82157" lon="3.34389">
        <ele>193.84</ele>
        <time>2014-07-09T09:35:56Z</time>
      </trkpt>
      <trkpt lat="46.82234" lon="3.34315">
        <ele>193.84</ele>
        <time>2014-07-09T09:36:17Z</time>
      </trkpt>
      <trkpt lat="46.82295" lon="3.34255">
        <ele>194.32</ele>
        <time>2014-07-09T09:36:34Z</time>
      </trkpt>
      <trkpt lat="46.82349" lon="3.34203">
        <ele>193.84</ele>
        <time>2014-07-09T09:36:50Z</time>
      </trkpt>
      <trkpt lat="46.82398" lon="3.34154">
        <ele>193.84</ele>
        <time>2014-07-09T09:37:06Z</time>
      </trkpt>
      <trkpt lat="46.82461" lon="3.34093">
        <ele>194.32</ele>
        <time>2014-07-09T09:37:25Z</time>
      </trkpt>
      <trkpt lat="46.82511" lon="3.34047">
        <ele>193.84</ele>
        <time>2014-07-09T09:37:40Z</time>
      </trkpt>
      <trkpt lat="46.82567" lon="3.33993">
        <ele>194.32</ele>
        <time>2014-07-09T09:37:56Z</time>
      </trkpt>
      <trkpt lat="46.82636" lon="3.33925">
        <ele>194.32</ele>
        <time>2014-07-09T09:38:15Z</time>
      </trkpt>
      <trkpt lat="46.82651" lon="3.33911">
        <ele>193.84</ele>
        <time>2014-07-09T09:38:19Z</time>
      </trkpt>
      <trkpt lat="46.82693" lon="3.3387">
        <ele>194.32</ele>
        <time>2014-07-09T09:38:30Z</time>
      </trkpt>
      <trkpt lat="46.82761" lon="3.33815">
        <ele>193.84</ele>
        <time>2014-07-09T09:38:48Z</time>
      </trkpt>
      <trkpt lat="46.82813" lon="3.33778">
        <ele>193.84</ele>
        <time>2014-07-09T09:39:04Z</time>
      </trkpt>
      <trkpt lat="46.82854" lon="3.33752">
        <ele>193.84</ele>
        <time>2014-07-09T09:39:18Z</time>
      </trkpt>
      <trkpt lat="46.82896" lon="3.33726">
        <ele>193.84</ele>
        <time>2014-07-09T09:39:29Z</time>
      </trkpt>
      <trkpt lat="46.82954" lon="3.3366">
        <ele>193.36</ele>
        <time>2014-07-09T09:39:45Z</time>
      </trkpt>
      <trkpt lat="46.83001" lon="3.33562">
        <ele>193.36</ele>
        <time>2014-07-09T09:40:02Z</time>
      </trkpt>
      <trkpt lat="46.83037" lon="3.33428">
        <ele>193.36</ele>
        <time>2014-07-09T09:40:22Z</time>
      </trkpt>
      <trkpt lat="46.83048" lon="3.3331">
        <ele>193.36</ele>
        <time>2014-07-09T09:40:39Z</time>
      </trkpt>
      <trkpt lat="46.83049" lon="3.33304">
        <ele>193.36</ele>
        <time>2014-07-09T09:40:40Z</time>
      </trkpt>
      <trkpt lat="46.83058" lon="3.3323">
        <ele>193.84</ele>
        <time>2014-07-09T09:40:51Z</time>
      </trkpt>
      <trkpt lat="46.83089" lon="3.33119">
        <ele>193.84</ele>
        <time>2014-07-09T09:41:08Z</time>
      </trkpt>
      <trkpt lat="46.83135" lon="3.33015">
        <ele>193.84</ele>
        <time>2014-07-09T09:41:27Z</time>
      </trkpt>
      <trkpt lat="46.83186" lon="3.3291">
        <ele>193.84</ele>
        <time>2014-07-09T09:41:48Z</time>
      </trkpt>
      <trkpt lat="46.83233" lon="3.32813">
        <ele>193.36</ele>
        <time>2014-07-09T09:42:08Z</time>
      </trkpt>
      <trkpt lat="46.83268" lon="3.32729">
        <ele>193.84</ele>
        <time>2014-07-09T09:42:25Z</time>
      </trkpt>
      <trkpt lat="46.83305" lon="3.32611">
        <ele>193.84</ele>
        <time>2014-07-09T09:42:47Z</time>
      </trkpt>
      <trkpt lat="46.83334" lon="3.32521">
        <ele>193.84</ele>
        <time>2014-07-09T09:43:03Z</time>
      </trkpt>
      <trkpt lat="46.83346" lon="3.32494">
        <ele>193.84</ele>
        <time>2014-07-09T09:43:08Z</time>
      </trkpt>
      <trkpt lat="46.83368" lon="3.32446">
        <ele>193.36</ele>
        <time>2014-07-09T09:43:17Z</time>
      </trkpt>
      <trkpt lat="46.8338" lon="3.32426">
        <ele>193.84</ele>
        <time>2014-07-09T09:43:21Z</time>
      </trkpt>
      <trkpt lat="46.83442" lon="3.32349">
        <ele>193.84</ele>
        <time>2014-07-09T09:43:40Z</time>
      </trkpt>
      <trkpt lat="46.83489" lon="3.32304">
        <ele>193.84</ele>
        <time>2014-07-09T09:43:54Z</time>
      </trkpt>
      <trkpt lat="46.83558" lon="3.32265">
        <ele>193.36</ele>
        <time>2014-07-09T09:44:13Z</time>
      </trkpt>
      <trkpt lat="46.83612" lon="3.32254">
        <ele>193.36</ele>
        <time>2014-07-09T09:44:27Z</time>
      </trkpt>
      <trkpt lat="46.83643" lon="3.32254">
        <ele>195.28</ele>
        <time>2014-07-09T09:44:39Z</time>
      </trkpt>
      <trkpt lat="46.83653" lon="3.32254">
        <ele>196.25</ele>
        <time>2014-07-09T09:44:44Z</time>
      </trkpt>
      <trkpt lat="46.83655" lon="3.32235">
        <ele>197.69</ele>
        <time>2014-07-09T09:44:52Z</time>
      </trkpt>
      <trkpt lat="46.83652" lon="3.32194">
        <ele>196.73</ele>
        <time>2014-07-09T09:45:02Z</time>
      </trkpt>
      <trkpt lat="46.83645" lon="3.32159">
        <ele>194.8</ele>
        <time>2014-07-09T09:45:08Z</time>
      </trkpt>
      <trkpt lat="46.83637" lon="3.32158">
        <ele>194.8</ele>
        <time>2014-07-09T09:45:13Z</time>
      </trkpt>
      <trkpt lat="46.83628" lon="3.32163">
        <ele>194.8</ele>
        <time>2014-07-09T09:45:19Z</time>
      </trkpt>
      <trkpt lat="46.83626" lon="3.32168">
        <ele>195.28</ele>
        <time>2014-07-09T09:45:22Z</time>
      </trkpt>
      <trkpt lat="46.83629" lon="3.32172">
        <ele>194.8</ele>
        <time>2014-07-09T09:45:38Z</time>
      </trkpt>
      <trkpt lat="46.83628" lon="3.3217">
        <ele>194.8</ele>
        <time>2014-07-09T09:45:52Z</time>
      </trkpt>
      <trkpt lat="46.8363" lon="3.32172">
        <ele>183.27</ele>
        <time>2014-07-09T10:01:30Z</time>
      </trkpt>
      <trkpt lat="46.83625" lon="3.32173">
        <ele>194.32</ele>
        <time>2014-07-09T10:01:37Z</time>
      </trkpt>
      <trkpt lat="46.83624" lon="3.32177">
        <ele>193.36</ele>
        <time>2014-07-09T10:01:38Z</time>
      </trkpt>
      <trkpt lat="46.83639" lon="3.32176">
        <ele>196.25</ele>
        <time>2014-07-09T10:02:06Z</time>
      </trkpt>
      <trkpt lat="46.8364" lon="3.32175">
        <ele>196.73</ele>
        <time>2014-07-09T10:02:10Z</time>
      </trkpt>
      <trkpt lat="46.83637" lon="3.32166">
        <ele>197.21</ele>
        <time>2014-07-09T10:02:16Z</time>
      </trkpt>
      <trkpt lat="46.83646" lon="3.32165">
        <ele>198.17</ele>
        <time>2014-07-09T10:02:23Z</time>
      </trkpt>
      <trkpt lat="46.83649" lon="3.3217">
        <ele>198.17</ele>
        <time>2014-07-09T10:02:27Z</time>
      </trkpt>
      <trkpt lat="46.83655" lon="3.32221">
        <ele>200.09</ele>
        <time>2014-07-09T10:02:42Z</time>
      </trkpt>
      <trkpt lat="46.83656" lon="3.32251">
        <ele>200.09</ele>
        <time>2014-07-09T10:02:51Z</time>
      </trkpt>
      <trkpt lat="46.83687" lon="3.32254">
        <ele>197.21</ele>
        <time>2014-07-09T10:03:00Z</time>
      </trkpt>
      <trkpt lat="46.83761" lon="3.32245">
        <ele>196.73</ele>
        <time>2014-07-09T10:03:15Z</time>
      </trkpt>
      <trkpt lat="46.8384" lon="3.3222">
        <ele>196.25</ele>
        <time>2014-07-09T10:03:35Z</time>
      </trkpt>
      <trkpt lat="46.83922" lon="3.32164">
        <ele>196.25</ele>
        <time>2014-07-09T10:03:58Z</time>
      </trkpt>
      <trkpt lat="46.83981" lon="3.32127">
        <ele>195.77</ele>
        <time>2014-07-09T10:04:15Z</time>
      </trkpt>
      <trkpt lat="46.84043" lon="3.32086">
        <ele>195.28</ele>
        <time>2014-07-09T10:04:32Z</time>
      </trkpt>
      <trkpt lat="46.84107" lon="3.32041">
        <ele>195.28</ele>
        <time>2014-07-09T10:04:50Z</time>
      </trkpt>
      <trkpt lat="46.84159" lon="3.32002">
        <ele>194.8</ele>
        <time>2014-07-09T10:05:05Z</time>
      </trkpt>
      <trkpt lat="46.8423" lon="3.31951">
        <ele>194.8</ele>
        <time>2014-07-09T10:05:25Z</time>
      </trkpt>
      <trkpt lat="46.8429" lon="3.31896">
        <ele>195.28</ele>
        <time>2014-07-09T10:05:45Z</time>
      </trkpt>
      <trkpt lat="46.84325" lon="3.31853">
        <ele>195.28</ele>
        <time>2014-07-09T10:05:59Z</time>
      </trkpt>
      <trkpt lat="46.84361" lon="3.31801">
        <ele>194.8</ele>
        <time>2014-07-09T10:06:14Z</time>
      </trkpt>
      <trkpt lat="46.84396" lon="3.31746">
        <ele>194.8</ele>
        <time>2014-07-09T10:06:29Z</time>
      </trkpt>
      <trkpt lat="46.84441" lon="3.31669">
        <ele>194.32</ele>
        <time>2014-07-09T10:06:49Z</time>
      </trkpt>
      <trkpt lat="46.8448" lon="3.31599">
        <ele>194.32</ele>
        <time>2014-07-09T10:07:08Z</time>
      </trkpt>
      <trkpt lat="46.84515" lon="3.31534">
        <ele>194.32</ele>
        <time>2014-07-09T10:07:26Z</time>
      </trkpt>
      <trkpt lat="46.84549" lon="3.31474">
        <ele>194.32</ele>
        <time>2014-07-09T10:07:42Z</time>
      </trkpt>
      <trkpt lat="46.8458" lon="3.31419">
        <ele>194.8</ele>
        <time>2014-07-09T10:07:57Z</time>
      </trkpt>
      <trkpt lat="46.84617" lon="3.31352">
        <ele>193.84</ele>
        <time>2014-07-09T10:08:15Z</time>
      </trkpt>
      <trkpt lat="46.84663" lon="3.31269">
        <ele>193.84</ele>
        <time>2014-07-09T10:08:36Z</time>
      </trkpt>
      <trkpt lat="46.84698" lon="3.31204">
        <ele>194.32</ele>
        <time>2014-07-09T10:08:53Z</time>
      </trkpt>
      <trkpt lat="46.84705" lon="3.31201">
        <ele>194.32</ele>
        <time>2014-07-09T10:09:05Z</time>
      </trkpt>
      <trkpt lat="46.84707" lon="3.312">
        <ele>194.32</ele>
        <time>2014-07-09T10:09:46Z</time>
      </trkpt>
      <trkpt lat="46.84711" lon="3.31196">
        <ele>194.32</ele>
        <time>2014-07-09T10:10:29Z</time>
      </trkpt>
      <trkpt lat="46.8471" lon="3.312">
        <ele>194.32</ele>
        <time>2014-07-09T10:11:06Z</time>
      </trkpt>
      <trkpt lat="46.84711" lon="3.31201">
        <ele>193.84</ele>
        <time>2014-07-09T10:11:41Z</time>
      </trkpt>
      <trkpt lat="46.84711" lon="3.312">
        <ele>194.32</ele>
        <time>2014-07-09T10:12:16Z</time>
      </trkpt>
      <trkpt lat="46.84713" lon="3.31203">
        <ele>194.32</ele>
        <time>2014-07-09T10:12:47Z</time>
      </trkpt>
      <trkpt lat="46.84708" lon="3.31204">
        <ele>194.32</ele>
        <time>2014-07-09T10:13:28Z</time>
      </trkpt>
      <trkpt lat="46.84706" lon="3.31205">
        <ele>194.8</ele>
        <time>2014-07-09T10:14:01Z</time>
      </trkpt>
      <trkpt lat="46.84708" lon="3.31204">
        <ele>194.8</ele>
        <time>2014-07-09T10:14:49Z</time>
      </trkpt>
      <trkpt lat="46.84707" lon="3.31203">
        <ele>195.28</ele>
        <time>2014-07-09T10:15:27Z</time>
      </trkpt>
      <trkpt lat="46.84705" lon="3.31206">
        <ele>195.28</ele>
        <time>2014-07-09T10:16:03Z</time>
      </trkpt>
      <trkpt lat="46.84705" lon="3.31203">
        <ele>195.77</ele>
        <time>2014-07-09T10:16:52Z</time>
      </trkpt>
      <trkpt lat="46.84708" lon="3.31202">
        <ele>195.77</ele>
        <time>2014-07-09T10:17:32Z</time>
      </trkpt>
      <trkpt lat="46.8471" lon="3.31201">
        <ele>195.77</ele>
        <time>2014-07-09T10:18:14Z</time>
      </trkpt>
      <trkpt lat="46.84715" lon="3.3118">
        <ele>196.25</ele>
        <time>2014-07-09T10:18:33Z</time>
      </trkpt>
      <trkpt lat="46.84731" lon="3.31136">
        <ele>197.69</ele>
        <time>2014-07-09T10:18:51Z</time>
      </trkpt>
      <trkpt lat="46.84755" lon="3.31081">
        <ele>195.28</ele>
        <time>2014-07-09T10:19:03Z</time>
      </trkpt>
      <trkpt lat="46.84785" lon="3.31007">
        <ele>195.28</ele>
        <time>2014-07-09T10:19:17Z</time>
      </trkpt>
      <trkpt lat="46.84814" lon="3.30933">
        <ele>195.28</ele>
        <time>2014-07-09T10:19:31Z</time>
      </trkpt>
      <trkpt lat="46.84844" lon="3.30845">
        <ele>195.77</ele>
        <time>2014-07-09T10:19:47Z</time>
      </trkpt>
      <trkpt lat="46.84853" lon="3.30818">
        <ele>195.28</ele>
        <time>2014-07-09T10:19:52Z</time>
      </trkpt>
      <trkpt lat="46.84873" lon="3.30749">
        <ele>195.28</ele>
        <time>2014-07-09T10:20:06Z</time>
      </trkpt>
      <trkpt lat="46.84898" lon="3.30684">
        <ele>195.28</ele>
        <time>2014-07-09T10:20:18Z</time>
      </trkpt>
      <trkpt lat="46.8493" lon="3.30603">
        <ele>195.28</ele>
        <time>2014-07-09T10:20:33Z</time>
      </trkpt>
      <trkpt lat="46.84937" lon="3.30583">
        <ele>195.28</ele>
        <time>2014-07-09T10:20:37Z</time>
      </trkpt>
      <trkpt lat="46.84941" lon="3.30564">
        <ele>194.8</ele>
        <time>2014-07-09T10:20:41Z</time>
      </trkpt>
      <trkpt lat="46.84972" lon="3.30481">
        <ele>195.28</ele>
        <time>2014-07-09T10:20:58Z</time>
      </trkpt>
      <trkpt lat="46.84999" lon="3.3041">
        <ele>195.28</ele>
        <time>2014-07-09T10:21:13Z</time>
      </trkpt>
      <trkpt lat="46.85022" lon="3.30348">
        <ele>194.8</ele>
        <time>2014-07-09T10:21:25Z</time>
      </trkpt>
      <trkpt lat="46.85062" lon="3.30231">
        <ele>194.8</ele>
        <time>2014-07-09T10:21:47Z</time>
      </trkpt>
      <trkpt lat="46.85097" lon="3.30136">
        <ele>194.8</ele>
        <time>2014-07-09T10:22:05Z</time>
      </trkpt>
      <trkpt lat="46.85134" lon="3.30035">
        <ele>194.32</ele>
        <time>2014-07-09T10:22:24Z</time>
      </trkpt>
      <trkpt lat="46.85168" lon="3.29935">
        <ele>194.32</ele>
        <time>2014-07-09T10:22:43Z</time>
      </trkpt>
      <trkpt lat="46.85202" lon="3.29854">
        <ele>194.32</ele>
        <time>2014-07-09T10:22:59Z</time>
      </trkpt>
      <trkpt lat="46.85236" lon="3.29791">
        <ele>193.84</ele>
        <time>2014-07-09T10:23:12Z</time>
      </trkpt>
      <trkpt lat="46.85287" lon="3.29713">
        <ele>194.32</ele>
        <time>2014-07-09T10:23:30Z</time>
      </trkpt>
      <trkpt lat="46.8533" lon="3.29653">
        <ele>193.84</ele>
        <time>2014-07-09T10:23:45Z</time>
      </trkpt>
      <trkpt lat="46.85375" lon="3.29593">
        <ele>193.84</ele>
        <time>2014-07-09T10:24:01Z</time>
      </trkpt>
      <trkpt lat="46.85419" lon="3.29535">
        <ele>193.84</ele>
        <time>2014-07-09T10:24:17Z</time>
      </trkpt>
      <trkpt lat="46.85464" lon="3.29473">
        <ele>193.84</ele>
        <time>2014-07-09T10:24:34Z</time>
      </trkpt>
      <trkpt lat="46.85511" lon="3.29408">
        <ele>194.32</ele>
        <time>2014-07-09T10:24:52Z</time>
      </trkpt>
      <trkpt lat="46.85563" lon="3.29338">
        <ele>193.84</ele>
        <time>2014-07-09T10:25:11Z</time>
      </trkpt>
      <trkpt lat="46.85619" lon="3.29264">
        <ele>193.84</ele>
        <time>2014-07-09T10:25:31Z</time>
      </trkpt>
      <trkpt lat="46.85666" lon="3.29205">
        <ele>193.84</ele>
        <time>2014-07-09T10:25:49Z</time>
      </trkpt>
      <trkpt lat="46.85715" lon="3.29162">
        <ele>194.8</ele>
        <time>2014-07-09T10:26:05Z</time>
      </trkpt>
      <trkpt lat="46.85745" lon="3.29146">
        <ele>195.77</ele>
        <time>2014-07-09T10:26:17Z</time>
      </trkpt>
      <trkpt lat="46.8577" lon="3.29133">
        <ele>196.73</ele>
        <time>2014-07-09T10:26:31Z</time>
      </trkpt>
      <trkpt lat="46.85811" lon="3.29116">
        <ele>193.84</ele>
        <time>2014-07-09T10:26:40Z</time>
      </trkpt>
      <trkpt lat="46.85883" lon="3.29085">
        <ele>193.84</ele>
        <time>2014-07-09T10:26:56Z</time>
      </trkpt>
      <trkpt lat="46.85947" lon="3.29043">
        <ele>193.84</ele>
        <time>2014-07-09T10:27:14Z</time>
      </trkpt>
      <trkpt lat="46.85996" lon="3.29002">
        <ele>193.84</ele>
        <time>2014-07-09T10:27:29Z</time>
      </trkpt>
      <trkpt lat="46.86049" lon="3.28956">
        <ele>194.32</ele>
        <time>2014-07-09T10:27:45Z</time>
      </trkpt>
      <trkpt lat="46.86095" lon="3.28914">
        <ele>193.84</ele>
        <time>2014-07-09T10:27:59Z</time>
      </trkpt>
      <trkpt lat="46.86136" lon="3.28878">
        <ele>193.84</ele>
        <time>2014-07-09T10:28:12Z</time>
      </trkpt>
      <trkpt lat="46.86191" lon="3.28831">
        <ele>193.84</ele>
        <time>2014-07-09T10:28:28Z</time>
      </trkpt>
      <trkpt lat="46.86249" lon="3.28781">
        <ele>193.84</ele>
        <time>2014-07-09T10:28:45Z</time>
      </trkpt>
      <trkpt lat="46.86292" lon="3.2874">
        <ele>193.84</ele>
        <time>2014-07-09T10:28:59Z</time>
      </trkpt>
      <trkpt lat="46.86343" lon="3.28679">
        <ele>193.84</ele>
        <time>2014-07-09T10:29:16Z</time>
      </trkpt>
      <trkpt lat="46.864" lon="3.28606">
        <ele>193.84</ele>
        <time>2014-07-09T10:29:35Z</time>
      </trkpt>
      <trkpt lat="46.8645" lon="3.2854">
        <ele>193.84</ele>
        <time>2014-07-09T10:29:51Z</time>
      </trkpt>
      <trkpt lat="46.86495" lon="3.28458">
        <ele>193.84</ele>
        <time>2014-07-09T10:30:08Z</time>
      </trkpt>
      <trkpt lat="46.8652" lon="3.28386">
        <ele>193.84</ele>
        <time>2014-07-09T10:30:22Z</time>
      </trkpt>
      <trkpt lat="46.86526" lon="3.28369">
        <ele>193.36</ele>
        <time>2014-07-09T10:30:25Z</time>
      </trkpt>
      <trkpt lat="46.86548" lon="3.28286">
        <ele>193.84</ele>
        <time>2014-07-09T10:30:40Z</time>
      </trkpt>
      <trkpt lat="46.86574" lon="3.28201">
        <ele>193.36</ele>
        <time>2014-07-09T10:30:56Z</time>
      </trkpt>
      <trkpt lat="46.86603" lon="3.28131">
        <ele>193.84</ele>
        <time>2014-07-09T10:31:10Z</time>
      </trkpt>
      <trkpt lat="46.86636" lon="3.28067">
        <ele>194.32</ele>
        <time>2014-07-09T10:31:24Z</time>
      </trkpt>
      <trkpt lat="46.86673" lon="3.27994">
        <ele>193.84</ele>
        <time>2014-07-09T10:31:40Z</time>
      </trkpt>
      <trkpt lat="46.86703" lon="3.27929">
        <ele>193.84</ele>
        <time>2014-07-09T10:31:55Z</time>
      </trkpt>
      <trkpt lat="46.86734" lon="3.27854">
        <ele>193.84</ele>
        <time>2014-07-09T10:32:11Z</time>
      </trkpt>
      <trkpt lat="46.86767" lon="3.27775">
        <ele>193.84</ele>
        <time>2014-07-09T10:32:27Z</time>
      </trkpt>
      <trkpt lat="46.86798" lon="3.27697">
        <ele>193.84</ele>
        <time>2014-07-09T10:32:42Z</time>
      </trkpt>
      <trkpt lat="46.86814" lon="3.27665">
        <ele>193.36</ele>
        <time>2014-07-09T10:32:48Z</time>
      </trkpt>
      <trkpt lat="46.86863" lon="3.27584">
        <ele>193.84</ele>
        <time>2014-07-09T10:33:07Z</time>
      </trkpt>
      <trkpt lat="46.8692" lon="3.27523">
        <ele>193.84</ele>
        <time>2014-07-09T10:33:25Z</time>
      </trkpt>
      <trkpt lat="46.86974" lon="3.27484">
        <ele>194.32</ele>
        <time>2014-07-09T10:33:41Z</time>
      </trkpt>
      <trkpt lat="46.87019" lon="3.27457">
        <ele>193.36</ele>
        <time>2014-07-09T10:33:55Z</time>
      </trkpt>
      <trkpt lat="46.8705" lon="3.27439">
        <ele>192.88</ele>
        <time>2014-07-09T10:34:03Z</time>
      </trkpt>
      <trkpt lat="46.87118" lon="3.27376">
        <ele>192.4</ele>
        <time>2014-07-09T10:34:23Z</time>
      </trkpt>
      <trkpt lat="46.87164" lon="3.27316">
        <ele>192.4</ele>
        <time>2014-07-09T10:34:40Z</time>
      </trkpt>
      <trkpt lat="46.87206" lon="3.2725">
        <ele>192.4</ele>
        <time>2014-07-09T10:34:56Z</time>
      </trkpt>
      <trkpt lat="46.87254" lon="3.27173">
        <ele>192.4</ele>
        <time>2014-07-09T10:35:14Z</time>
      </trkpt>
      <trkpt lat="46.87296" lon="3.27113">
        <ele>193.36</ele>
        <time>2014-07-09T10:35:30Z</time>
      </trkpt>
      <trkpt lat="46.87314" lon="3.27084">
        <ele>194.32</ele>
        <time>2014-07-09T10:35:43Z</time>
      </trkpt>
      <trkpt lat="46.87315" lon="3.27083">
        <ele>194.32</ele>
        <time>2014-07-09T10:35:58Z</time>
      </trkpt>
      <trkpt lat="46.87328" lon="3.27062">
        <ele>194.8</ele>
        <time>2014-07-09T10:36:09Z</time>
      </trkpt>
      <trkpt lat="46.87363" lon="3.27004">
        <ele>192.4</ele>
        <time>2014-07-09T10:36:22Z</time>
      </trkpt>
      <trkpt lat="46.87394" lon="3.26955">
        <ele>192.4</ele>
        <time>2014-07-09T10:36:33Z</time>
      </trkpt>
      <trkpt lat="46.87446" lon="3.26868">
        <ele>192.88</ele>
        <time>2014-07-09T10:36:53Z</time>
      </trkpt>
      <trkpt lat="46.87488" lon="3.26802">
        <ele>191.92</ele>
        <time>2014-07-09T10:37:09Z</time>
      </trkpt>
      <trkpt lat="46.87528" lon="3.26741">
        <ele>192.4</ele>
        <time>2014-07-09T10:37:25Z</time>
      </trkpt>
      <trkpt lat="46.8757" lon="3.26672">
        <ele>192.4</ele>
        <time>2014-07-09T10:37:42Z</time>
      </trkpt>
      <trkpt lat="46.87602" lon="3.26621">
        <ele>192.4</ele>
        <time>2014-07-09T10:37:55Z</time>
      </trkpt>
      <trkpt lat="46.87635" lon="3.2657">
        <ele>192.4</ele>
        <time>2014-07-09T10:38:09Z</time>
      </trkpt>
      <trkpt lat="46.87681" lon="3.265">
        <ele>192.4</ele>
        <time>2014-07-09T10:38:27Z</time>
      </trkpt>
      <trkpt lat="46.87727" lon="3.26427">
        <ele>192.4</ele>
        <time>2014-07-09T10:38:44Z</time>
      </trkpt>
      <trkpt lat="46.87769" lon="3.26362">
        <ele>191.92</ele>
        <time>2014-07-09T10:38:59Z</time>
      </trkpt>
      <trkpt lat="46.87823" lon="3.26275">
        <ele>192.4</ele>
        <time>2014-07-09T10:39:19Z</time>
      </trkpt>
      <trkpt lat="46.87875" lon="3.26194">
        <ele>191.92</ele>
        <time>2014-07-09T10:39:38Z</time>
      </trkpt>
      <trkpt lat="46.87913" lon="3.26131">
        <ele>191.92</ele>
        <time>2014-07-09T10:39:52Z</time>
      </trkpt>
      <trkpt lat="46.87959" lon="3.26061">
        <ele>191.44</ele>
        <time>2014-07-09T10:40:09Z</time>
      </trkpt>
      <trkpt lat="46.87997" lon="3.26006">
        <ele>191.44</ele>
        <time>2014-07-09T10:40:22Z</time>
      </trkpt>
      <trkpt lat="46.88" lon="3.26002">
        <ele>191.44</ele>
        <time>2014-07-09T10:40:23Z</time>
      </trkpt>
      <trkpt lat="46.88051" lon="3.25933">
        <ele>190.96</ele>
        <time>2014-07-09T10:40:40Z</time>
      </trkpt>
      <trkpt lat="46.88089" lon="3.25881">
        <ele>190.96</ele>
        <time>2014-07-09T10:40:53Z</time>
      </trkpt>
      <trkpt lat="46.88105" lon="3.25861">
        <ele>190.96</ele>
        <time>2014-07-09T10:40:58Z</time>
      </trkpt>
      <trkpt lat="46.88148" lon="3.25805">
        <ele>190.96</ele>
        <time>2014-07-09T10:41:12Z</time>
      </trkpt>
      <trkpt lat="46.88186" lon="3.25753">
        <ele>190.96</ele>
        <time>2014-07-09T10:41:25Z</time>
      </trkpt>
      <trkpt lat="46.88226" lon="3.25697">
        <ele>190.96</ele>
        <time>2014-07-09T10:41:38Z</time>
      </trkpt>
      <trkpt lat="46.88275" lon="3.25627">
        <ele>190.96</ele>
        <time>2014-07-09T10:41:54Z</time>
      </trkpt>
      <trkpt lat="46.88281" lon="3.25619">
        <ele>190.96</ele>
        <time>2014-07-09T10:41:56Z</time>
      </trkpt>
      <trkpt lat="46.88328" lon="3.25554">
        <ele>192.4</ele>
        <time>2014-07-09T10:42:12Z</time>
      </trkpt>
      <trkpt lat="46.88357" lon="3.25518">
        <ele>191.44</ele>
        <time>2014-07-09T10:42:21Z</time>
      </trkpt>
      <trkpt lat="46.8837" lon="3.25502">
        <ele>191.44</ele>
        <time>2014-07-09T10:42:25Z</time>
      </trkpt>
      <trkpt lat="46.88424" lon="3.2545">
        <ele>190.96</ele>
        <time>2014-07-09T10:42:41Z</time>
      </trkpt>
      <trkpt lat="46.88471" lon="3.2541">
        <ele>190.96</ele>
        <time>2014-07-09T10:42:55Z</time>
      </trkpt>
      <trkpt lat="46.88519" lon="3.25369">
        <ele>190.96</ele>
        <time>2014-07-09T10:43:09Z</time>
      </trkpt>
      <trkpt lat="46.88578" lon="3.25317">
        <ele>190.96</ele>
        <time>2014-07-09T10:43:26Z</time>
      </trkpt>
      <trkpt lat="46.88608" lon="3.25291">
        <ele>190.96</ele>
        <time>2014-07-09T10:43:35Z</time>
      </trkpt>
      <trkpt lat="46.88664" lon="3.25243">
        <ele>190.96</ele>
        <time>2014-07-09T10:43:52Z</time>
      </trkpt>
      <trkpt lat="46.88717" lon="3.25195">
        <ele>190.96</ele>
        <time>2014-07-09T10:44:09Z</time>
      </trkpt>
      <trkpt lat="46.88742" lon="3.25165">
        <ele>192.88</ele>
        <time>2014-07-09T10:44:22Z</time>
      </trkpt>
      <trkpt lat="46.88754" lon="3.2515">
        <ele>194.32</ele>
        <time>2014-07-09T10:44:35Z</time>
      </trkpt>
      <trkpt lat="46.88752" lon="3.2515">
        <ele>194.32</ele>
        <time>2014-07-09T10:44:52Z</time>
      </trkpt>
      <trkpt lat="46.88754" lon="3.2515">
        <ele>194.32</ele>
        <time>2014-07-09T10:45:08Z</time>
      </trkpt>
      <trkpt lat="46.88755" lon="3.2515">
        <ele>193.84</ele>
        <time>2014-07-09T10:45:31Z</time>
      </trkpt>
      <trkpt lat="46.88755" lon="3.2515">
        <ele>194.32</ele>
        <time>2014-07-09T10:45:50Z</time>
      </trkpt>
      <trkpt lat="46.88758" lon="3.25151">
        <ele>195.28</ele>
        <time>2014-07-09T10:46:14Z</time>
      </trkpt>
      <trkpt lat="46.88757" lon="3.2515">
        <ele>194.32</ele>
        <time>2014-07-09T10:46:33Z</time>
      </trkpt>
      <trkpt lat="46.88758" lon="3.2515">
        <ele>194.32</ele>
        <time>2014-07-09T10:46:56Z</time>
      </trkpt>
      <trkpt lat="46.88758" lon="3.25148">
        <ele>194.32</ele>
        <time>2014-07-09T10:47:19Z</time>
      </trkpt>
      <trkpt lat="46.88757" lon="3.25152">
        <ele>194.32</ele>
        <time>2014-07-09T10:47:45Z</time>
      </trkpt>
      <trkpt lat="46.88756" lon="3.25153">
        <ele>194.32</ele>
        <time>2014-07-09T10:48:10Z</time>
      </trkpt>
      <trkpt lat="46.88756" lon="3.2515">
        <ele>194.32</ele>
        <time>2014-07-09T10:48:46Z</time>
      </trkpt>
      <trkpt lat="46.88755" lon="3.2515">
        <ele>194.32</ele>
        <time>2014-07-09T10:49:05Z</time>
      </trkpt>
      <trkpt lat="46.88759" lon="3.25152">
        <ele>194.32</ele>
        <time>2014-07-09T10:49:33Z</time>
      </trkpt>
      <trkpt lat="46.88753" lon="3.25149">
        <ele>194.8</ele>
        <time>2014-07-09T10:49:43Z</time>
      </trkpt>
      <trkpt lat="46.88751" lon="3.25149">
        <ele>194.8</ele>
        <time>2014-07-09T10:49:46Z</time>
      </trkpt>
      <trkpt lat="46.88744" lon="3.2514">
        <ele>195.77</ele>
        <time>2014-07-09T10:49:53Z</time>
      </trkpt>
      <trkpt lat="46.88723" lon="3.25111">
        <ele>194.8</ele>
        <time>2014-07-09T10:50:07Z</time>
      </trkpt>
      <trkpt lat="46.88719" lon="3.25103">
        <ele>194.32</ele>
        <time>2014-07-09T10:50:09Z</time>
      </trkpt>
      <trkpt lat="46.88727" lon="3.25084">
        <ele>193.84</ele>
        <time>2014-07-09T10:50:14Z</time>
      </trkpt>
      <trkpt lat="46.8876" lon="3.25048">
        <ele>192.88</ele>
        <time>2014-07-09T10:50:25Z</time>
      </trkpt>
      <trkpt lat="46.888" lon="3.24946">
        <ele>191.44</ele>
        <time>2014-07-09T10:50:44Z</time>
      </trkpt>
      <trkpt lat="46.88825" lon="3.24837">
        <ele>191.44</ele>
        <time>2014-07-09T10:51:03Z</time>
      </trkpt>
      <trkpt lat="46.88847" lon="3.24718">
        <ele>192.4</ele>
        <time>2014-07-09T10:51:25Z</time>
      </trkpt>
      <trkpt lat="46.88856" lon="3.24685">
        <ele>191.92</ele>
        <time>2014-07-09T10:51:31Z</time>
      </trkpt>
      <trkpt lat="46.88907" lon="3.24607">
        <ele>191.92</ele>
        <time>2014-07-09T10:51:49Z</time>
      </trkpt>
      <trkpt lat="46.88963" lon="3.24566">
        <ele>191.92</ele>
        <time>2014-07-09T10:52:04Z</time>
      </trkpt>
      <trkpt lat="46.89036" lon="3.24534">
        <ele>191.92</ele>
        <time>2014-07-09T10:52:21Z</time>
      </trkpt>
      <trkpt lat="46.89108" lon="3.24514">
        <ele>191.44</ele>
        <time>2014-07-09T10:52:38Z</time>
      </trkpt>
      <trkpt lat="46.8917" lon="3.24513">
        <ele>191.44</ele>
        <time>2014-07-09T10:52:53Z</time>
      </trkpt>
      <trkpt lat="46.89247" lon="3.24513">
        <ele>191.44</ele>
        <time>2014-07-09T10:53:10Z</time>
      </trkpt>
      <trkpt lat="46.8928" lon="3.24512">
        <ele>191.44</ele>
        <time>2014-07-09T10:53:17Z</time>
      </trkpt>
      <trkpt lat="46.89359" lon="3.24499">
        <ele>191.44</ele>
        <time>2014-07-09T10:53:35Z</time>
      </trkpt>
      <trkpt lat="46.89424" lon="3.24468">
        <ele>191.92</ele>
        <time>2014-07-09T10:53:51Z</time>
      </trkpt>
      <trkpt lat="46.89474" lon="3.24443">
        <ele>192.88</ele>
        <time>2014-07-09T10:54:06Z</time>
      </trkpt>
      <trkpt lat="46.89522" lon="3.24419">
        <ele>194.8</ele>
        <time>2014-07-09T10:54:24Z</time>
      </trkpt>
      <trkpt lat="46.89569" lon="3.24395">
        <ele>196.25</ele>
        <time>2014-07-09T10:54:43Z</time>
      </trkpt>
      <trkpt lat="46.89606" lon="3.24375">
        <ele>198.17</ele>
        <time>2014-07-09T10:54:59Z</time>
      </trkpt>
      <trkpt lat="46.89638" lon="3.24358">
        <ele>199.61</ele>
        <time>2014-07-09T10:55:14Z</time>
      </trkpt>
      <trkpt lat="46.8967" lon="3.24341">
        <ele>201.05</ele>
        <time>2014-07-09T10:55:29Z</time>
      </trkpt>
      <trkpt lat="46.89711" lon="3.24318">
        <ele>202.49</ele>
        <time>2014-07-09T10:55:48Z</time>
      </trkpt>
      <trkpt lat="46.89752" lon="3.24299">
        <ele>203.94</ele>
        <time>2014-07-09T10:56:04Z</time>
      </trkpt>
      <trkpt lat="46.89793" lon="3.24282">
        <ele>204.42</ele>
        <time>2014-07-09T10:56:18Z</time>
      </trkpt>
      <trkpt lat="46.89859" lon="3.24271">
        <ele>205.86</ele>
        <time>2014-07-09T10:56:39Z</time>
      </trkpt>
      <trkpt lat="46.89904" lon="3.24266">
        <ele>206.82</ele>
        <time>2014-07-09T10:56:53Z</time>
      </trkpt>
      <trkpt lat="46.89962" lon="3.2426">
        <ele>207.3</ele>
        <time>2014-07-09T10:57:11Z</time>
      </trkpt>
      <trkpt lat="46.90028" lon="3.24253">
        <ele>207.78</ele>
        <time>2014-07-09T10:57:29Z</time>
      </trkpt>
      <trkpt lat="46.90095" lon="3.24244">
        <ele>208.74</ele>
        <time>2014-07-09T10:57:48Z</time>
      </trkpt>
      <trkpt lat="46.9015" lon="3.24242">
        <ele>209.22</ele>
        <time>2014-07-09T10:58:03Z</time>
      </trkpt>
      <trkpt lat="46.90222" lon="3.24249">
        <ele>209.7</ele>
        <time>2014-07-09T10:58:22Z</time>
      </trkpt>
      <trkpt lat="46.90285" lon="3.24258">
        <ele>210.19</ele>
        <time>2014-07-09T10:58:38Z</time>
      </trkpt>
      <trkpt lat="46.90345" lon="3.24268">
        <ele>210.67</ele>
        <time>2014-07-09T10:58:55Z</time>
      </trkpt>
      <trkpt lat="46.90412" lon="3.24274">
        <ele>211.63</ele>
        <time>2014-07-09T10:59:13Z</time>
      </trkpt>
      <trkpt lat="46.90471" lon="3.2427">
        <ele>212.59</ele>
        <time>2014-07-09T10:59:29Z</time>
      </trkpt>
      <trkpt lat="46.90555" lon="3.24262">
        <ele>211.15</ele>
        <time>2014-07-09T10:59:47Z</time>
      </trkpt>
      <trkpt lat="46.90656" lon="3.24252">
        <ele>209.7</ele>
        <time>2014-07-09T11:00:06Z</time>
      </trkpt>
      <trkpt lat="46.90753" lon="3.24241">
        <ele>209.22</ele>
        <time>2014-07-09T11:00:24Z</time>
      </trkpt>
      <trkpt lat="46.90834" lon="3.24231">
        <ele>209.22</ele>
        <time>2014-07-09T11:00:40Z</time>
      </trkpt>
      <trkpt lat="46.90913" lon="3.24223">
        <ele>210.19</ele>
        <time>2014-07-09T11:00:58Z</time>
      </trkpt>
      <trkpt lat="46.9093" lon="3.2422">
        <ele>210.19</ele>
        <time>2014-07-09T11:01:02Z</time>
      </trkpt>
      <trkpt lat="46.90977" lon="3.24215">
        <ele>210.19</ele>
        <time>2014-07-09T11:01:13Z</time>
      </trkpt>
      <trkpt lat="46.91065" lon="3.24206">
        <ele>209.22</ele>
        <time>2014-07-09T11:01:33Z</time>
      </trkpt>
      <trkpt lat="46.9115" lon="3.24197">
        <ele>208.26</ele>
        <time>2014-07-09T11:01:48Z</time>
      </trkpt>
      <trkpt lat="46.91273" lon="3.24189">
        <ele>206.82</ele>
        <time>2014-07-09T11:02:06Z</time>
      </trkpt>
      <trkpt lat="46.9137" lon="3.24176">
        <ele>206.34</ele>
        <time>2014-07-09T11:02:23Z</time>
      </trkpt>
      <trkpt lat="46.91434" lon="3.24164">
        <ele>205.38</ele>
        <time>2014-07-09T11:02:37Z</time>
      </trkpt>
      <trkpt lat="46.91527" lon="3.24127">
        <ele>204.42</ele>
        <time>2014-07-09T11:02:57Z</time>
      </trkpt>
      <trkpt lat="46.91612" lon="3.24092">
        <ele>203.46</ele>
        <time>2014-07-09T11:03:16Z</time>
      </trkpt>
      <trkpt lat="46.91704" lon="3.24054">
        <ele>202.01</ele>
        <time>2014-07-09T11:03:36Z</time>
      </trkpt>
      <trkpt lat="46.91795" lon="3.24017">
        <ele>201.05</ele>
        <time>2014-07-09T11:03:54Z</time>
      </trkpt>
      <trkpt lat="46.91879" lon="3.23972">
        <ele>199.13</ele>
        <time>2014-07-09T11:04:11Z</time>
      </trkpt>
      <trkpt lat="46.91933" lon="3.23884">
        <ele>196.25</ele>
        <time>2014-07-09T11:04:23Z</time>
      </trkpt>
      <trkpt lat="46.91946" lon="3.23854">
        <ele>194.8</ele>
        <time>2014-07-09T11:04:26Z</time>
      </trkpt>
      <trkpt lat="46.92012" lon="3.23719">
        <ele>195.77</ele>
        <time>2014-07-09T11:04:41Z</time>
      </trkpt>
      <trkpt lat="46.92043" lon="3.23658">
        <ele>197.21</ele>
        <time>2014-07-09T11:04:53Z</time>
      </trkpt>
      <trkpt lat="46.9207" lon="3.23604">
        <ele>198.17</ele>
        <time>2014-07-09T11:05:07Z</time>
      </trkpt>
      <trkpt lat="46.92102" lon="3.23542">
        <ele>198.65</ele>
        <time>2014-07-09T11:05:23Z</time>
      </trkpt>
      <trkpt lat="46.92129" lon="3.23486">
        <ele>197.21</ele>
        <time>2014-07-09T11:05:33Z</time>
      </trkpt>
      <trkpt lat="46.9215" lon="3.23442">
        <ele>194.8</ele>
        <time>2014-07-09T11:05:39Z</time>
      </trkpt>
      <trkpt lat="46.92191" lon="3.23362">
        <ele>191.92</ele>
        <time>2014-07-09T11:05:49Z</time>
      </trkpt>
      <trkpt lat="46.92229" lon="3.23279">
        <ele>191.44</ele>
        <time>2014-07-09T11:06:00Z</time>
      </trkpt>
      <trkpt lat="46.92273" lon="3.232">
        <ele>191.92</ele>
        <time>2014-07-09T11:06:15Z</time>
      </trkpt>
      <trkpt lat="46.92301" lon="3.23149">
        <ele>193.84</ele>
        <time>2014-07-09T11:06:29Z</time>
      </trkpt>
      <trkpt lat="46.92327" lon="3.23122">
        <ele>195.28</ele>
        <time>2014-07-09T11:06:44Z</time>
      </trkpt>
      <trkpt lat="46.9233" lon="3.23098">
        <ele>196.25</ele>
        <time>2014-07-09T11:06:56Z</time>
      </trkpt>
      <trkpt lat="46.92329" lon="3.23097">
        <ele>195.77</ele>
        <time>2014-07-09T11:07:18Z</time>
      </trkpt>
      <trkpt lat="46.92338" lon="3.23072">
        <ele>196.73</ele>
        <time>2014-07-09T11:07:29Z</time>
      </trkpt>
      <trkpt lat="46.92362" lon="3.23034">
        <ele>197.69</ele>
        <time>2014-07-09T11:07:43Z</time>
      </trkpt>
      <trkpt lat="46.92396" lon="3.22969">
        <ele>198.65</ele>
        <time>2014-07-09T11:08:01Z</time>
      </trkpt>
      <trkpt lat="46.92434" lon="3.22896">
        <ele>198.17</ele>
        <time>2014-07-09T11:08:18Z</time>
      </trkpt>
      <trkpt lat="46.92488" lon="3.22782">
        <ele>198.65</ele>
        <time>2014-07-09T11:08:41Z</time>
      </trkpt>
      <trkpt lat="46.92537" lon="3.22684">
        <ele>198.17</ele>
        <time>2014-07-09T11:09:00Z</time>
      </trkpt>
      <trkpt lat="46.92591" lon="3.22579">
        <ele>198.17</ele>
        <time>2014-07-09T11:09:19Z</time>
      </trkpt>
      <trkpt lat="46.92631" lon="3.22503">
        <ele>199.61</ele>
        <time>2014-07-09T11:09:36Z</time>
      </trkpt>
      <trkpt lat="46.92657" lon="3.22465">
        <ele>199.61</ele>
        <time>2014-07-09T11:09:50Z</time>
      </trkpt>
      <trkpt lat="46.9269" lon="3.22434">
        <ele>201.05</ele>
        <time>2014-07-09T11:10:04Z</time>
      </trkpt>
      <trkpt lat="46.92738" lon="3.22412">
        <ele>201.05</ele>
        <time>2014-07-09T11:10:19Z</time>
      </trkpt>
      <trkpt lat="46.92824" lon="3.22392">
        <ele>198.65</ele>
        <time>2014-07-09T11:10:36Z</time>
      </trkpt>
      <trkpt lat="46.9289" lon="3.22389">
        <ele>195.77</ele>
        <time>2014-07-09T11:10:46Z</time>
      </trkpt>
      <trkpt lat="46.92979" lon="3.22386">
        <ele>192.4</ele>
        <time>2014-07-09T11:10:59Z</time>
      </trkpt>
      <trkpt lat="46.93085" lon="3.22378">
        <ele>190.96</ele>
        <time>2014-07-09T11:11:14Z</time>
      </trkpt>
      <trkpt lat="46.93091" lon="3.22376">
        <ele>190.96</ele>
        <time>2014-07-09T11:11:15Z</time>
      </trkpt>
      <trkpt lat="46.93165" lon="3.22308">
        <ele>190.48</ele>
        <time>2014-07-09T11:11:30Z</time>
      </trkpt>
      <trkpt lat="46.93222" lon="3.22209">
        <ele>189.04</ele>
        <time>2014-07-09T11:11:46Z</time>
      </trkpt>
      <trkpt lat="46.93262" lon="3.22106">
        <ele>187.59</ele>
        <time>2014-07-09T11:12:02Z</time>
      </trkpt>
      <trkpt lat="46.93301" lon="3.22006">
        <ele>188.08</ele>
        <time>2014-07-09T11:12:19Z</time>
      </trkpt>
      <trkpt lat="46.93313" lon="3.21974">
        <ele>188.08</ele>
        <time>2014-07-09T11:12:25Z</time>
      </trkpt>
      <trkpt lat="46.93337" lon="3.21908">
        <ele>190.48</ele>
        <time>2014-07-09T11:12:41Z</time>
      </trkpt>
      <trkpt lat="46.93351" lon="3.21874">
        <ele>192.4</ele>
        <time>2014-07-09T11:12:54Z</time>
      </trkpt>
      <trkpt lat="46.93362" lon="3.21872">
        <ele>192.88</ele>
        <time>2014-07-09T11:12:59Z</time>
      </trkpt>
      <trkpt lat="46.93393" lon="3.21878">
        <ele>191.92</ele>
        <time>2014-07-09T11:13:11Z</time>
      </trkpt>
      <trkpt lat="46.93402" lon="3.21853">
        <ele>190.48</ele>
        <time>2014-07-09T11:13:15Z</time>
      </trkpt>
      <trkpt lat="46.93419" lon="3.2178">
        <ele>187.11</ele>
        <time>2014-07-09T11:13:23Z</time>
      </trkpt>
      <trkpt lat="46.93427" lon="3.21749">
        <ele>186.15</ele>
        <time>2014-07-09T11:13:26Z</time>
      </trkpt>
      <trkpt lat="46.93434" lon="3.21731">
        <ele>186.15</ele>
        <time>2014-07-09T11:13:28Z</time>
      </trkpt>
      <trkpt lat="46.93442" lon="3.21716">
        <ele>186.15</ele>
        <time>2014-07-09T11:13:30Z</time>
      </trkpt>
      <trkpt lat="46.93496" lon="3.21652">
        <ele>186.63</ele>
        <time>2014-07-09T11:13:42Z</time>
      </trkpt>
      <trkpt lat="46.9357" lon="3.21587">
        <ele>186.15</ele>
        <time>2014-07-09T11:13:59Z</time>
      </trkpt>
      <trkpt lat="46.93599" lon="3.21562">
        <ele>185.67</ele>
        <time>2014-07-09T11:14:06Z</time>
      </trkpt>
      <trkpt lat="46.93682" lon="3.21494">
        <ele>184.71</ele>
        <time>2014-07-09T11:14:25Z</time>
      </trkpt>
      <trkpt lat="46.93726" lon="3.21461">
        <ele>184.71</ele>
        <time>2014-07-09T11:14:35Z</time>
      </trkpt>
      <trkpt lat="46.9375" lon="3.21432">
        <ele>185.19</ele>
        <time>2014-07-09T11:14:42Z</time>
      </trkpt>
      <trkpt lat="46.93759" lon="3.2141">
        <ele>184.71</ele>
        <time>2014-07-09T11:14:46Z</time>
      </trkpt>
      <trkpt lat="46.9377" lon="3.21376">
        <ele>184.71</ele>
        <time>2014-07-09T11:14:52Z</time>
      </trkpt>
      <trkpt lat="46.93794" lon="3.21298">
        <ele>184.71</ele>
        <time>2014-07-09T11:15:05Z</time>
      </trkpt>
      <trkpt lat="46.9384" lon="3.21171">
        <ele>184.23</ele>
        <time>2014-07-09T11:15:27Z</time>
      </trkpt>
      <trkpt lat="46.93843" lon="3.21165">
        <ele>184.23</ele>
        <time>2014-07-09T11:15:28Z</time>
      </trkpt>
      <trkpt lat="46.93859" lon="3.21142">
        <ele>184.23</ele>
        <time>2014-07-09T11:15:33Z</time>
      </trkpt>
      <trkpt lat="46.93871" lon="3.21132">
        <ele>184.23</ele>
        <time>2014-07-09T11:15:36Z</time>
      </trkpt>
      <trkpt lat="46.93882" lon="3.21123">
        <ele>184.23</ele>
        <time>2014-07-09T11:15:39Z</time>
      </trkpt>
      <trkpt lat="46.93936" lon="3.21075">
        <ele>183.75</ele>
        <time>2014-07-09T11:15:54Z</time>
      </trkpt>
      <trkpt lat="46.93984" lon="3.21022">
        <ele>184.23</ele>
        <time>2014-07-09T11:16:09Z</time>
      </trkpt>
      <trkpt lat="46.93998" lon="3.21003">
        <ele>184.23</ele>
        <time>2014-07-09T11:16:14Z</time>
      </trkpt>
      <trkpt lat="46.94035" lon="3.20948">
        <ele>184.23</ele>
        <time>2014-07-09T11:16:27Z</time>
      </trkpt>
      <trkpt lat="46.9406" lon="3.20914">
        <ele>183.75</ele>
        <time>2014-07-09T11:16:35Z</time>
      </trkpt>
      <trkpt lat="46.9407" lon="3.20902">
        <ele>184.23</ele>
        <time>2014-07-09T11:16:38Z</time>
      </trkpt>
      <trkpt lat="46.94136" lon="3.2083">
        <ele>183.75</ele>
        <time>2014-07-09T11:16:57Z</time>
      </trkpt>
      <trkpt lat="46.94154" lon="3.2081">
        <ele>183.75</ele>
        <time>2014-07-09T11:17:02Z</time>
      </trkpt>
      <trkpt lat="46.94229" lon="3.20749">
        <ele>183.75</ele>
        <time>2014-07-09T11:17:21Z</time>
      </trkpt>
      <trkpt lat="46.94289" lon="3.20706">
        <ele>184.23</ele>
        <time>2014-07-09T11:17:36Z</time>
      </trkpt>
      <trkpt lat="46.94371" lon="3.20649">
        <ele>183.75</ele>
        <time>2014-07-09T11:17:56Z</time>
      </trkpt>
      <trkpt lat="46.94457" lon="3.20619">
        <ele>183.75</ele>
        <time>2014-07-09T11:18:15Z</time>
      </trkpt>
      <trkpt lat="46.94519" lon="3.20611">
        <ele>184.71</ele>
        <time>2014-07-09T11:18:29Z</time>
      </trkpt>
      <trkpt lat="46.94574" lon="3.20584">
        <ele>183.75</ele>
        <time>2014-07-09T11:18:42Z</time>
      </trkpt>
      <trkpt lat="46.94586" lon="3.20566">
        <ele>183.75</ele>
        <time>2014-07-09T11:18:46Z</time>
      </trkpt>
      <trkpt lat="46.94624" lon="3.20463">
        <ele>183.75</ele>
        <time>2014-07-09T11:19:04Z</time>
      </trkpt>
      <trkpt lat="46.94648" lon="3.2039">
        <ele>185.67</ele>
        <time>2014-07-09T11:19:19Z</time>
      </trkpt>
      <trkpt lat="46.94662" lon="3.20342">
        <ele>189.04</ele>
        <time>2014-07-09T11:19:35Z</time>
      </trkpt>
      <trkpt lat="46.94673" lon="3.20301">
        <ele>190.48</ele>
        <time>2014-07-09T11:19:50Z</time>
      </trkpt>
      <trkpt lat="46.9468" lon="3.20251">
        <ele>192.4</ele>
        <time>2014-07-09T11:20:08Z</time>
      </trkpt>
      <trkpt lat="46.94685" lon="3.20182">
        <ele>191.92</ele>
        <time>2014-07-09T11:20:23Z</time>
      </trkpt>
      <trkpt lat="46.94705" lon="3.20138">
        <ele>192.88</ele>
        <time>2014-07-09T11:20:34Z</time>
      </trkpt>
      <trkpt lat="46.94708" lon="3.20135">
        <ele>192.88</ele>
        <time>2014-07-09T11:20:35Z</time>
      </trkpt>
      <trkpt lat="46.9476" lon="3.2009">
        <ele>195.28</ele>
        <time>2014-07-09T11:20:53Z</time>
      </trkpt>
      <trkpt lat="46.94802" lon="3.2005">
        <ele>197.21</ele>
        <time>2014-07-09T11:21:10Z</time>
      </trkpt>
      <trkpt lat="46.94845" lon="3.20012">
        <ele>199.13</ele>
        <time>2014-07-09T11:21:28Z</time>
      </trkpt>
      <trkpt lat="46.94896" lon="3.19967">
        <ele>201.05</ele>
        <time>2014-07-09T11:21:46Z</time>
      </trkpt>
      <trkpt lat="46.94936" lon="3.19946">
        <ele>203.46</ele>
        <time>2014-07-09T11:22:02Z</time>
      </trkpt>
      <trkpt lat="46.94973" lon="3.19909">
        <ele>205.38</ele>
        <time>2014-07-09T11:22:20Z</time>
      </trkpt>
      <trkpt lat="46.94999" lon="3.19854">
        <ele>206.34</ele>
        <time>2014-07-09T11:22:39Z</time>
      </trkpt>
      <trkpt lat="46.95035" lon="3.1984">
        <ele>208.26</ele>
        <time>2014-07-09T11:22:53Z</time>
      </trkpt>
      <trkpt lat="46.95062" lon="3.19857">
        <ele>210.67</ele>
        <time>2014-07-09T11:23:08Z</time>
      </trkpt>
      <trkpt lat="46.95093" lon="3.19859">
        <ele>213.55</ele>
        <time>2014-07-09T11:23:25Z</time>
      </trkpt>
      <trkpt lat="46.95128" lon="3.19846">
        <ele>214.51</ele>
        <time>2014-07-09T11:23:41Z</time>
      </trkpt>
      <trkpt lat="46.95165" lon="3.19831">
        <ele>215.95</ele>
        <time>2014-07-09T11:23:59Z</time>
      </trkpt>
      <trkpt lat="46.95209" lon="3.19816">
        <ele>217.4</ele>
        <time>2014-07-09T11:24:14Z</time>
      </trkpt>
      <trkpt lat="46.95255" lon="3.19796">
        <ele>219.8</ele>
        <time>2014-07-09T11:24:31Z</time>
      </trkpt>
      <trkpt lat="46.95289" lon="3.19751">
        <ele>221.72</ele>
        <time>2014-07-09T11:24:46Z</time>
      </trkpt>
      <trkpt lat="46.95293" lon="3.19691">
        <ele>221.24</ele>
        <time>2014-07-09T11:25:00Z</time>
      </trkpt>
      <trkpt lat="46.95292" lon="3.19638">
        <ele>220.28</ele>
        <time>2014-07-09T11:25:14Z</time>
      </trkpt>
      <trkpt lat="46.95292" lon="3.19639">
        <ele>220.76</ele>
        <time>2014-07-09T11:25:32Z</time>
      </trkpt>
      <trkpt lat="46.95291" lon="3.19639">
        <ele>220.76</ele>
        <time>2014-07-09T11:26:03Z</time>
      </trkpt>
      <trkpt lat="46.95294" lon="3.19641">
        <ele>220.28</ele>
        <time>2014-07-09T11:26:27Z</time>
      </trkpt>
      <trkpt lat="46.95293" lon="3.1964">
        <ele>222.68</ele>
        <time>2014-07-09T11:27:08Z</time>
      </trkpt>
      <trkpt lat="46.95294" lon="3.19641">
        <ele>222.68</ele>
        <time>2014-07-09T11:27:09Z</time>
      </trkpt>
      <trkpt lat="46.95293" lon="3.19639">
        <ele>221.72</ele>
        <time>2014-07-09T11:27:34Z</time>
      </trkpt>
      <trkpt lat="46.95292" lon="3.19637">
        <ele>220.76</ele>
        <time>2014-07-09T11:27:40Z</time>
      </trkpt>
      <trkpt lat="46.95288" lon="3.19591">
        <ele>218.36</ele>
        <time>2014-07-09T11:27:53Z</time>
      </trkpt>
      <trkpt lat="46.95278" lon="3.19494">
        <ele>216.91</ele>
        <time>2014-07-09T11:28:12Z</time>
      </trkpt>
      <trkpt lat="46.95272" lon="3.19432">
        <ele>216.43</ele>
        <time>2014-07-09T11:28:22Z</time>
      </trkpt>
      <trkpt lat="46.95256" lon="3.19295">
        <ele>214.99</ele>
        <time>2014-07-09T11:28:41Z</time>
      </trkpt>
      <trkpt lat="46.95239" lon="3.19146">
        <ele>214.51</ele>
        <time>2014-07-09T11:29:00Z</time>
      </trkpt>
      <trkpt lat="46.95237" lon="3.19124">
        <ele>212.59</ele>
        <time>2014-07-09T11:29:03Z</time>
      </trkpt>
      <trkpt lat="46.95231" lon="3.19044">
        <ele>211.63</ele>
        <time>2014-07-09T11:29:13Z</time>
      </trkpt>
      <trkpt lat="46.95237" lon="3.18954">
        <ele>210.67</ele>
        <time>2014-07-09T11:29:26Z</time>
      </trkpt>
      <trkpt lat="46.95229" lon="3.18894">
        <ele>208.26</ele>
        <time>2014-07-09T11:29:36Z</time>
      </trkpt>
      <trkpt lat="46.95226" lon="3.18848">
        <ele>207.3</ele>
        <time>2014-07-09T11:29:44Z</time>
      </trkpt>
      <trkpt lat="46.95203" lon="3.18747">
        <ele>204.42</ele>
        <time>2014-07-09T11:29:57Z</time>
      </trkpt>
      <trkpt lat="46.95184" lon="3.18651">
        <ele>203.46</ele>
        <time>2014-07-09T11:30:11Z</time>
      </trkpt>
      <trkpt lat="46.95179" lon="3.18587">
        <ele>202.01</ele>
        <time>2014-07-09T11:30:25Z</time>
      </trkpt>
      <trkpt lat="46.95181" lon="3.18582">
        <ele>202.01</ele>
        <time>2014-07-09T11:30:30Z</time>
      </trkpt>
      <trkpt lat="46.9516" lon="3.18562">
        <ele>201.53</ele>
        <time>2014-07-09T11:30:42Z</time>
      </trkpt>
      <trkpt lat="46.9512" lon="3.18551">
        <ele>202.01</ele>
        <time>2014-07-09T11:30:54Z</time>
      </trkpt>
      <trkpt lat="46.9508" lon="3.18542">
        <ele>202.01</ele>
        <time>2014-07-09T11:31:07Z</time>
      </trkpt>
      <trkpt lat="46.95058" lon="3.18538">
        <ele>202.01</ele>
        <time>2014-07-09T11:31:16Z</time>
      </trkpt>
      <trkpt lat="46.95054" lon="3.18548">
        <ele>202.49</ele>
        <time>2014-07-09T11:31:28Z</time>
      </trkpt>
      <trkpt lat="46.95054" lon="3.18549">
        <ele>202.01</ele>
        <time>2014-07-09T11:31:54Z</time>
      </trkpt>
      <trkpt lat="46.95055" lon="3.18549">
        <ele>202.01</ele>
        <time>2014-07-09T11:32:15Z</time>
      </trkpt>
      <trkpt lat="46.95054" lon="3.18548">
        <ele>202.01</ele>
        <time>2014-07-09T11:33:00Z</time>
      </trkpt>
      <trkpt lat="46.95055" lon="3.18545">
        <ele>202.01</ele>
        <time>2014-07-09T11:33:29Z</time>
      </trkpt>
      <trkpt lat="46.95054" lon="3.18549">
        <ele>202.01</ele>
        <time>2014-07-09T11:34:06Z</time>
      </trkpt>
      <trkpt lat="46.95055" lon="3.18549">
        <ele>202.01</ele>
        <time>2014-07-09T11:34:12Z</time>
      </trkpt>
      <trkpt lat="46.95187" lon="3.18586">
        <ele>206.34</ele>
        <time>2014-07-09T12:18:54Z</time>
      </trkpt>
      <trkpt lat="46.95187" lon="3.18586">
        <ele>204.9</ele>
        <time>2014-07-09T12:18:55Z</time>
      </trkpt>
      <trkpt lat="46.95183" lon="3.18583">
        <ele>201.05</ele>
        <time>2014-07-09T12:19:08Z</time>
      </trkpt>
      <trkpt lat="46.95175" lon="3.18588">
        <ele>199.13</ele>
        <time>2014-07-09T12:19:22Z</time>
      </trkpt>
      <trkpt lat="46.95165" lon="3.18584">
        <ele>199.13</ele>
        <time>2014-07-09T12:19:29Z</time>
      </trkpt>
      <trkpt lat="46.9517" lon="3.18583">
        <ele>199.13</ele>
        <time>2014-07-09T12:19:38Z</time>
      </trkpt>
      <trkpt lat="46.95171" lon="3.18585">
        <ele>199.13</ele>
        <time>2014-07-09T12:19:39Z</time>
      </trkpt>
      <trkpt lat="46.9518" lon="3.18625">
        <ele>199.61</ele>
        <time>2014-07-09T12:19:53Z</time>
      </trkpt>
      <trkpt lat="46.95171" lon="3.18667">
        <ele>200.09</ele>
        <time>2014-07-09T12:20:07Z</time>
      </trkpt>
      <trkpt lat="46.95159" lon="3.18664">
        <ele>201.05</ele>
        <time>2014-07-09T12:20:14Z</time>
      </trkpt>
      <trkpt lat="46.95165" lon="3.18669">
        <ele>201.05</ele>
        <time>2014-07-09T12:20:20Z</time>
      </trkpt>
      <trkpt lat="46.95179" lon="3.18676">
        <ele>201.05</ele>
        <time>2014-07-09T12:20:27Z</time>
      </trkpt>
      <trkpt lat="46.95186" lon="3.18685">
        <ele>201.05</ele>
        <time>2014-07-09T12:20:31Z</time>
      </trkpt>
      <trkpt lat="46.95201" lon="3.18752">
        <ele>201.53</ele>
        <time>2014-07-09T12:20:50Z</time>
      </trkpt>
      <trkpt lat="46.95212" lon="3.18816">
        <ele>202.98</ele>
        <time>2014-07-09T12:21:09Z</time>
      </trkpt>
      <trkpt lat="46.95226" lon="3.18865">
        <ele>205.38</ele>
        <time>2014-07-09T12:21:27Z</time>
      </trkpt>
      <trkpt lat="46.95227" lon="3.18867">
        <ele>205.38</ele>
        <time>2014-07-09T12:21:28Z</time>
      </trkpt>
      <trkpt lat="46.95251" lon="3.18854">
        <ele>203.94</ele>
        <time>2014-07-09T12:21:43Z</time>
      </trkpt>
      <trkpt lat="46.953" lon="3.18824">
        <ele>202.49</ele>
        <time>2014-07-09T12:21:59Z</time>
      </trkpt>
      <trkpt lat="46.9536" lon="3.1878">
        <ele>200.57</ele>
        <time>2014-07-09T12:22:16Z</time>
      </trkpt>
      <trkpt lat="46.95399" lon="3.18724">
        <ele>199.61</ele>
        <time>2014-07-09T12:22:28Z</time>
      </trkpt>
      <trkpt lat="46.95428" lon="3.18673">
        <ele>198.17</ele>
        <time>2014-07-09T12:22:40Z</time>
      </trkpt>
      <trkpt lat="46.95477" lon="3.18687">
        <ele>196.73</ele>
        <time>2014-07-09T12:22:57Z</time>
      </trkpt>
      <trkpt lat="46.95479" lon="3.18689">
        <ele>197.21</ele>
        <time>2014-07-09T12:22:58Z</time>
      </trkpt>
      <trkpt lat="46.95477" lon="3.18706">
        <ele>196.73</ele>
        <time>2014-07-09T12:23:08Z</time>
      </trkpt>
      <trkpt lat="46.95476" lon="3.18705">
        <ele>197.21</ele>
        <time>2014-07-09T12:23:34Z</time>
      </trkpt>
      <trkpt lat="46.95477" lon="3.18706">
        <ele>197.21</ele>
        <time>2014-07-09T12:24:08Z</time>
      </trkpt>
      <trkpt lat="46.95479" lon="3.18701">
        <ele>197.69</ele>
        <time>2014-07-09T12:24:51Z</time>
      </trkpt>
      <trkpt lat="46.9548" lon="3.18705">
        <ele>197.69</ele>
        <time>2014-07-09T12:25:16Z</time>
      </trkpt>
      <trkpt lat="46.95481" lon="3.18703">
        <ele>197.21</ele>
        <time>2014-07-09T12:25:40Z</time>
      </trkpt>
      <trkpt lat="46.9548" lon="3.18699">
        <ele>197.69</ele>
        <time>2014-07-09T12:25:50Z</time>
      </trkpt>
      <trkpt lat="46.95485" lon="3.18692">
        <ele>197.69</ele>
        <time>2014-07-09T12:25:55Z</time>
      </trkpt>
      <trkpt lat="46.95525" lon="3.18679">
        <ele>196.73</ele>
        <time>2014-07-09T12:26:11Z</time>
      </trkpt>
      <trkpt lat="46.9559" lon="3.18639">
        <ele>195.28</ele>
        <time>2014-07-09T12:26:30Z</time>
      </trkpt>
      <trkpt lat="46.95666" lon="3.1859">
        <ele>192.88</ele>
        <time>2014-07-09T12:26:48Z</time>
      </trkpt>
      <trkpt lat="46.95746" lon="3.18539">
        <ele>190</ele>
        <time>2014-07-09T12:27:05Z</time>
      </trkpt>
      <trkpt lat="46.95817" lon="3.18493">
        <ele>188.56</ele>
        <time>2014-07-09T12:27:20Z</time>
      </trkpt>
      <trkpt lat="46.95904" lon="3.18438">
        <ele>186.63</ele>
        <time>2014-07-09T12:27:38Z</time>
      </trkpt>
      <trkpt lat="46.95994" lon="3.18377">
        <ele>187.11</ele>
        <time>2014-07-09T12:27:57Z</time>
      </trkpt>
      <trkpt lat="46.96024" lon="3.18362">
        <ele>189.52</ele>
        <time>2014-07-09T12:28:07Z</time>
      </trkpt>
      <trkpt lat="46.96077" lon="3.1833">
        <ele>188.08</ele>
        <time>2014-07-09T12:28:24Z</time>
      </trkpt>
      <trkpt lat="46.96129" lon="3.18297">
        <ele>185.19</ele>
        <time>2014-07-09T12:28:34Z</time>
      </trkpt>
      <trkpt lat="46.96145" lon="3.18286">
        <ele>183.75</ele>
        <time>2014-07-09T12:28:37Z</time>
      </trkpt>
      <trkpt lat="46.96218" lon="3.1824">
        <ele>182.31</ele>
        <time>2014-07-09T12:28:54Z</time>
      </trkpt>
      <trkpt lat="46.96285" lon="3.18198">
        <ele>181.83</ele>
        <time>2014-07-09T12:29:10Z</time>
      </trkpt>
      <trkpt lat="46.96369" lon="3.18142">
        <ele>181.83</ele>
        <time>2014-07-09T12:29:30Z</time>
      </trkpt>
      <trkpt lat="46.96445" lon="3.18074">
        <ele>180.87</ele>
        <time>2014-07-09T12:29:49Z</time>
      </trkpt>
      <trkpt lat="46.96498" lon="3.18009">
        <ele>181.83</ele>
        <time>2014-07-09T12:30:05Z</time>
      </trkpt>
      <trkpt lat="46.96544" lon="3.17939">
        <ele>181.83</ele>
        <time>2014-07-09T12:30:21Z</time>
      </trkpt>
      <trkpt lat="46.96587" lon="3.17856">
        <ele>182.31</ele>
        <time>2014-07-09T12:30:39Z</time>
      </trkpt>
      <trkpt lat="46.96629" lon="3.17752">
        <ele>182.31</ele>
        <time>2014-07-09T12:30:59Z</time>
      </trkpt>
      <trkpt lat="46.96671" lon="3.17648">
        <ele>182.31</ele>
        <time>2014-07-09T12:31:18Z</time>
      </trkpt>
      <trkpt lat="46.96708" lon="3.17569">
        <ele>182.79</ele>
        <time>2014-07-09T12:31:33Z</time>
      </trkpt>
      <trkpt lat="46.9675" lon="3.17487">
        <ele>182.31</ele>
        <time>2014-07-09T12:31:48Z</time>
      </trkpt>
      <trkpt lat="46.96806" lon="3.17416">
        <ele>182.31</ele>
        <time>2014-07-09T12:32:04Z</time>
      </trkpt>
      <trkpt lat="46.96887" lon="3.1737">
        <ele>181.83</ele>
        <time>2014-07-09T12:32:21Z</time>
      </trkpt>
      <trkpt lat="46.96984" lon="3.1733">
        <ele>182.31</ele>
        <time>2014-07-09T12:32:42Z</time>
      </trkpt>
      <trkpt lat="46.97064" lon="3.17297">
        <ele>181.35</ele>
        <time>2014-07-09T12:32:59Z</time>
      </trkpt>
      <trkpt lat="46.9714" lon="3.17265">
        <ele>181.83</ele>
        <time>2014-07-09T12:33:14Z</time>
      </trkpt>
      <trkpt lat="46.97225" lon="3.1723">
        <ele>181.83</ele>
        <time>2014-07-09T12:33:31Z</time>
      </trkpt>
      <trkpt lat="46.97316" lon="3.17198">
        <ele>181.83</ele>
        <time>2014-07-09T12:33:49Z</time>
      </trkpt>
      <trkpt lat="46.97386" lon="3.1716">
        <ele>181.35</ele>
        <time>2014-07-09T12:34:04Z</time>
      </trkpt>
      <trkpt lat="46.97458" lon="3.17105">
        <ele>180.87</ele>
        <time>2014-07-09T12:34:20Z</time>
      </trkpt>
      <trkpt lat="46.97504" lon="3.17064">
        <ele>180.87</ele>
        <time>2014-07-09T12:34:31Z</time>
      </trkpt>
      <trkpt lat="46.97511" lon="3.17055">
        <ele>180.87</ele>
        <time>2014-07-09T12:34:33Z</time>
      </trkpt>
      <trkpt lat="46.97549" lon="3.16992">
        <ele>181.35</ele>
        <time>2014-07-09T12:34:47Z</time>
      </trkpt>
      <trkpt lat="46.97577" lon="3.16927">
        <ele>182.79</ele>
        <time>2014-07-09T12:35:03Z</time>
      </trkpt>
      <trkpt lat="46.9759" lon="3.16901">
        <ele>182.79</ele>
        <time>2014-07-09T12:35:13Z</time>
      </trkpt>
      <trkpt lat="46.97583" lon="3.16909">
        <ele>182.31</ele>
        <time>2014-07-09T12:35:20Z</time>
      </trkpt>
      <trkpt lat="46.97576" lon="3.16936">
        <ele>182.79</ele>
        <time>2014-07-09T12:35:27Z</time>
      </trkpt>
      <trkpt lat="46.97589" lon="3.16945">
        <ele>181.83</ele>
        <time>2014-07-09T12:35:33Z</time>
      </trkpt>
      <trkpt lat="46.97592" lon="3.16947">
        <ele>181.83</ele>
        <time>2014-07-09T12:35:46Z</time>
      </trkpt>
      <trkpt lat="46.97592" lon="3.16947">
        <ele>181.35</ele>
        <time>2014-07-09T12:36:13Z</time>
      </trkpt>
      <trkpt lat="46.97594" lon="3.16944">
        <ele>181.35</ele>
        <time>2014-07-09T12:36:37Z</time>
      </trkpt>
      <trkpt lat="46.97594" lon="3.16944">
        <ele>179.9</ele>
        <time>2014-07-09T12:36:54Z</time>
      </trkpt>
      <trkpt lat="46.97593" lon="3.16945">
        <ele>181.83</ele>
        <time>2014-07-09T12:37:24Z</time>
      </trkpt>
      <trkpt lat="46.97591" lon="3.16948">
        <ele>181.35</ele>
        <time>2014-07-09T12:37:41Z</time>
      </trkpt>
      <trkpt lat="46.97591" lon="3.16943">
        <ele>182.31</ele>
        <time>2014-07-09T12:38:09Z</time>
      </trkpt>
      <trkpt lat="46.97591" lon="3.16946">
        <ele>182.31</ele>
        <time>2014-07-09T12:38:39Z</time>
      </trkpt>
      <trkpt lat="46.9759" lon="3.1695">
        <ele>183.27</ele>
        <time>2014-07-09T12:39:09Z</time>
      </trkpt>
      <trkpt lat="46.97594" lon="3.16949">
        <ele>182.31</ele>
        <time>2014-07-09T12:39:25Z</time>
      </trkpt>
      <trkpt lat="46.97593" lon="3.16948">
        <ele>182.31</ele>
        <time>2014-07-09T12:39:58Z</time>
      </trkpt>
      <trkpt lat="46.97592" lon="3.16946">
        <ele>182.31</ele>
        <time>2014-07-09T12:40:28Z</time>
      </trkpt>
      <trkpt lat="46.9759" lon="3.16947">
        <ele>182.31</ele>
        <time>2014-07-09T12:40:57Z</time>
      </trkpt>
      <trkpt lat="46.97593" lon="3.16948">
        <ele>181.83</ele>
        <time>2014-07-09T12:41:27Z</time>
      </trkpt>
      <trkpt lat="46.97592" lon="3.16948">
        <ele>181.83</ele>
        <time>2014-07-09T12:41:49Z</time>
      </trkpt>
      <trkpt lat="46.97592" lon="3.16947">
        <ele>182.31</ele>
        <time>2014-07-09T12:42:17Z</time>
      </trkpt>
      <trkpt lat="46.97594" lon="3.16947">
        <ele>182.31</ele>
        <time>2014-07-09T12:42:45Z</time>
      </trkpt>
      <trkpt lat="46.97594" lon="3.16947">
        <ele>182.31</ele>
        <time>2014-07-09T12:43:02Z</time>
      </trkpt>
      <trkpt lat="46.97593" lon="3.16946">
        <ele>181.83</ele>
        <time>2014-07-09T12:43:20Z</time>
      </trkpt>
      <trkpt lat="46.97599" lon="3.1694">
        <ele>181.35</ele>
        <time>2014-07-09T12:43:24Z</time>
      </trkpt>
      <trkpt lat="46.97652" lon="3.16906">
        <ele>179.42</ele>
        <time>2014-07-09T12:43:37Z</time>
      </trkpt>
      <trkpt lat="46.97715" lon="3.16873">
        <ele>179.42</ele>
        <time>2014-07-09T12:43:53Z</time>
      </trkpt>
      <trkpt lat="46.97794" lon="3.16831">
        <ele>179.9</ele>
        <time>2014-07-09T12:44:14Z</time>
      </trkpt>
      <trkpt lat="46.97851" lon="3.168">
        <ele>179.9</ele>
        <time>2014-07-09T12:44:30Z</time>
      </trkpt>
      <trkpt lat="46.97904" lon="3.16771">
        <ele>179.9</ele>
        <time>2014-07-09T12:44:46Z</time>
      </trkpt>
      <trkpt lat="46.97957" lon="3.16741">
        <ele>180.38</ele>
        <time>2014-07-09T12:45:01Z</time>
      </trkpt>
      <trkpt lat="46.98007" lon="3.16713">
        <ele>179.9</ele>
        <time>2014-07-09T12:45:17Z</time>
      </trkpt>
      <trkpt lat="46.98013" lon="3.1671">
        <ele>179.42</ele>
        <time>2014-07-09T12:45:20Z</time>
      </trkpt>
      <trkpt lat="46.98016" lon="3.16714">
        <ele>179.9</ele>
        <time>2014-07-09T12:45:30Z</time>
      </trkpt>
      <trkpt lat="46.98013" lon="3.16713">
        <ele>179.9</ele>
        <time>2014-07-09T12:45:43Z</time>
      </trkpt>
      <trkpt lat="46.98012" lon="3.16709">
        <ele>179.9</ele>
        <time>2014-07-09T12:45:46Z</time>
      </trkpt>
      <trkpt lat="46.98002" lon="3.16713">
        <ele>179.9</ele>
        <time>2014-07-09T12:45:52Z</time>
      </trkpt>
      <trkpt lat="46.97948" lon="3.16746">
        <ele>179.9</ele>
        <time>2014-07-09T12:46:07Z</time>
      </trkpt>
      <trkpt lat="46.97902" lon="3.16767">
        <ele>179.9</ele>
        <time>2014-07-09T12:46:19Z</time>
      </trkpt>
      <trkpt lat="46.97848" lon="3.16799">
        <ele>179.9</ele>
        <time>2014-07-09T12:46:33Z</time>
      </trkpt>
      <trkpt lat="46.97778" lon="3.16837">
        <ele>179.9</ele>
        <time>2014-07-09T12:46:50Z</time>
      </trkpt>
      <trkpt lat="46.97714" lon="3.16872">
        <ele>179.9</ele>
        <time>2014-07-09T12:47:05Z</time>
      </trkpt>
      <trkpt lat="46.97643" lon="3.1691">
        <ele>179.9</ele>
        <time>2014-07-09T12:47:22Z</time>
      </trkpt>
      <trkpt lat="46.97593" lon="3.16938">
        <ele>181.83</ele>
        <time>2014-07-09T12:47:37Z</time>
      </trkpt>
      <trkpt lat="46.97587" lon="3.16944">
        <ele>182.31</ele>
        <time>2014-07-09T12:47:40Z</time>
      </trkpt>
      <trkpt lat="46.97593" lon="3.1695">
        <ele>183.27</ele>
        <time>2014-07-09T12:47:45Z</time>
      </trkpt>
      <trkpt lat="46.97618" lon="3.16939">
        <ele>182.79</ele>
        <time>2014-07-09T12:47:59Z</time>
      </trkpt>
      <trkpt lat="46.97629" lon="3.16932">
        <ele>183.27</ele>
        <time>2014-07-09T12:48:15Z</time>
      </trkpt>
      <trkpt lat="46.97676" lon="3.16907">
        <ele>183.27</ele>
        <time>2014-07-09T12:48:31Z</time>
      </trkpt>
      <trkpt lat="46.97729" lon="3.16879">
        <ele>183.27</ele>
        <time>2014-07-09T12:48:48Z</time>
      </trkpt>
      <trkpt lat="46.97778" lon="3.16853">
        <ele>183.27</ele>
        <time>2014-07-09T12:49:04Z</time>
      </trkpt>
      <trkpt lat="46.9782" lon="3.1683">
        <ele>183.27</ele>
        <time>2014-07-09T12:49:18Z</time>
      </trkpt>
      <trkpt lat="46.97865" lon="3.16806">
        <ele>183.75</ele>
        <time>2014-07-09T12:49:32Z</time>
      </trkpt>
      <trkpt lat="46.97915" lon="3.16779">
        <ele>182.79</ele>
        <time>2014-07-09T12:49:47Z</time>
      </trkpt>
      <trkpt lat="46.97963" lon="3.16753">
        <ele>183.27</ele>
        <time>2014-07-09T12:50:02Z</time>
      </trkpt>
      <trkpt lat="46.98015" lon="3.16726">
        <ele>183.27</ele>
        <time>2014-07-09T12:50:17Z</time>
      </trkpt>
      <trkpt lat="46.98064" lon="3.16699">
        <ele>182.79</ele>
        <time>2014-07-09T12:50:33Z</time>
      </trkpt>
      <trkpt lat="46.98122" lon="3.16672">
        <ele>182.79</ele>
        <time>2014-07-09T12:50:52Z</time>
      </trkpt>
      <trkpt lat="46.98165" lon="3.16658">
        <ele>183.27</ele>
        <time>2014-07-09T12:51:08Z</time>
      </trkpt>
      <trkpt lat="46.98191" lon="3.16627">
        <ele>183.27</ele>
        <time>2014-07-09T12:51:20Z</time>
      </trkpt>
      <trkpt lat="46.98182" lon="3.16573">
        <ele>182.79</ele>
        <time>2014-07-09T12:51:34Z</time>
      </trkpt>
      <trkpt lat="46.9819" lon="3.16566">
        <ele>183.27</ele>
        <time>2014-07-09T12:51:44Z</time>
      </trkpt>
      <trkpt lat="46.98186" lon="3.16565">
        <ele>182.79</ele>
        <time>2014-07-09T12:51:53Z</time>
      </trkpt>
      <trkpt lat="46.98175" lon="3.16565">
        <ele>182.31</ele>
        <time>2014-07-09T12:52:01Z</time>
      </trkpt>
      <trkpt lat="46.98165" lon="3.16511">
        <ele>179.9</ele>
        <time>2014-07-09T12:52:11Z</time>
      </trkpt>
      <trkpt lat="46.98157" lon="3.16468">
        <ele>179.9</ele>
        <time>2014-07-09T12:52:19Z</time>
      </trkpt>
      <trkpt lat="46.98158" lon="3.16455">
        <ele>179.42</ele>
        <time>2014-07-09T12:52:24Z</time>
      </trkpt>
      <trkpt lat="46.98171" lon="3.16361">
        <ele>179.42</ele>
        <time>2014-07-09T12:52:41Z</time>
      </trkpt>
      <trkpt lat="46.98186" lon="3.16256">
        <ele>179.42</ele>
        <time>2014-07-09T12:52:59Z</time>
      </trkpt>
      <trkpt lat="46.98199" lon="3.16164">
        <ele>181.35</ele>
        <time>2014-07-09T12:53:16Z</time>
      </trkpt>
      <trkpt lat="46.98207" lon="3.16101">
        <ele>182.79</ele>
        <time>2014-07-09T12:53:31Z</time>
      </trkpt>
      <trkpt lat="46.982" lon="3.16043">
        <ele>184.23</ele>
        <time>2014-07-09T12:53:46Z</time>
      </trkpt>
      <trkpt lat="46.98216" lon="3.16009">
        <ele>185.19</ele>
        <time>2014-07-09T12:53:58Z</time>
      </trkpt>
      <trkpt lat="46.98254" lon="3.15979">
        <ele>184.71</ele>
        <time>2014-07-09T12:54:13Z</time>
      </trkpt>
      <trkpt lat="46.98305" lon="3.15939">
        <ele>184.71</ele>
        <time>2014-07-09T12:54:31Z</time>
      </trkpt>
      <trkpt lat="46.98371" lon="3.15886">
        <ele>184.71</ele>
        <time>2014-07-09T12:54:51Z</time>
      </trkpt>
      <trkpt lat="46.9843" lon="3.1584">
        <ele>184.71</ele>
        <time>2014-07-09T12:55:09Z</time>
      </trkpt>
      <trkpt lat="46.98475" lon="3.15804">
        <ele>184.71</ele>
        <time>2014-07-09T12:55:24Z</time>
      </trkpt>
      <trkpt lat="46.98499" lon="3.15808">
        <ele>184.71</ele>
        <time>2014-07-09T12:55:34Z</time>
      </trkpt>
      <trkpt lat="46.9851" lon="3.15768">
        <ele>184.71</ele>
        <time>2014-07-09T12:55:43Z</time>
      </trkpt>
      <trkpt lat="46.98508" lon="3.1571">
        <ele>183.75</ele>
        <time>2014-07-09T12:55:55Z</time>
      </trkpt>
      <trkpt lat="46.985" lon="3.1569">
        <ele>182.79</ele>
        <time>2014-07-09T12:55:59Z</time>
      </trkpt>
      <trkpt lat="46.98489" lon="3.15655">
        <ele>180.87</ele>
        <time>2014-07-09T12:56:07Z</time>
      </trkpt>
      <trkpt lat="46.98478" lon="3.15662">
        <ele>179.42</ele>
        <time>2014-07-09T12:56:11Z</time>
      </trkpt>
      <trkpt lat="46.98461" lon="3.1566">
        <ele>178.94</ele>
        <time>2014-07-09T12:56:14Z</time>
      </trkpt>
      <trkpt lat="46.98443" lon="3.15631">
        <ele>177.98</ele>
        <time>2014-07-09T12:56:19Z</time>
      </trkpt>
      <trkpt lat="46.98417" lon="3.15525">
        <ele>177.98</ele>
        <time>2014-07-09T12:56:38Z</time>
      </trkpt>
      <trkpt lat="46.98408" lon="3.15472">
        <ele>178.46</ele>
        <time>2014-07-09T12:56:48Z</time>
      </trkpt>
      <trkpt lat="46.98401" lon="3.15408">
        <ele>179.42</ele>
        <time>2014-07-09T12:57:01Z</time>
      </trkpt>
      <trkpt lat="46.98401" lon="3.15399">
        <ele>179.9</ele>
        <time>2014-07-09T12:57:03Z</time>
      </trkpt>
      <trkpt lat="46.98381" lon="3.1537">
        <ele>179.42</ele>
        <time>2014-07-09T12:57:11Z</time>
      </trkpt>
      <trkpt lat="46.98379" lon="3.15359">
        <ele>178.94</ele>
        <time>2014-07-09T12:57:13Z</time>
      </trkpt>
      <trkpt lat="46.98361" lon="3.15289">
        <ele>178.46</ele>
        <time>2014-07-09T12:57:26Z</time>
      </trkpt>
      <trkpt lat="46.98338" lon="3.15196">
        <ele>177.98</ele>
        <time>2014-07-09T12:57:42Z</time>
      </trkpt>
      <trkpt lat="46.98338" lon="3.15121">
        <ele>178.46</ele>
        <time>2014-07-09T12:57:56Z</time>
      </trkpt>
      <trkpt lat="46.98346" lon="3.15091">
        <ele>178.46</ele>
        <time>2014-07-09T12:58:06Z</time>
      </trkpt>
      <trkpt lat="46.98344" lon="3.15086">
        <ele>177.98</ele>
        <time>2014-07-09T12:58:23Z</time>
      </trkpt>
      <trkpt lat="46.98337" lon="3.15073">
        <ele>178.46</ele>
        <time>2014-07-09T12:58:43Z</time>
      </trkpt>
      <trkpt lat="46.98329" lon="3.15033">
        <ele>178.46</ele>
        <time>2014-07-09T12:58:54Z</time>
      </trkpt>
      <trkpt lat="46.98319" lon="3.14982">
        <ele>179.9</ele>
        <time>2014-07-09T12:59:06Z</time>
      </trkpt>
      <trkpt lat="46.98307" lon="3.14925">
        <ele>178.94</ele>
        <time>2014-07-09T12:59:18Z</time>
      </trkpt>
      <trkpt lat="46.98316" lon="3.14903">
        <ele>179.9</ele>
        <time>2014-07-09T12:59:24Z</time>
      </trkpt>
      <trkpt lat="46.98327" lon="3.14906">
        <ele>179.9</ele>
        <time>2014-07-09T12:59:29Z</time>
      </trkpt>
      <trkpt lat="46.98334" lon="3.14915">
        <ele>179.9</ele>
        <time>2014-07-09T12:59:33Z</time>
      </trkpt>
      <trkpt lat="46.98339" lon="3.14927">
        <ele>179.9</ele>
        <time>2014-07-09T12:59:44Z</time>
      </trkpt>
      <trkpt lat="46.98339" lon="3.14927">
        <ele>180.38</ele>
        <time>2014-07-09T12:59:45Z</time>
      </trkpt>
      <trkpt lat="46.98331" lon="3.1491">
        <ele>179.9</ele>
        <time>2014-07-09T12:59:53Z</time>
      </trkpt>
      <trkpt lat="46.98295" lon="3.14876">
        <ele>179.42</ele>
        <time>2014-07-09T13:00:06Z</time>
      </trkpt>
      <trkpt lat="46.98292" lon="3.14899">
        <ele>178.46</ele>
        <time>2014-07-09T13:00:11Z</time>
      </trkpt>
      <trkpt lat="46.98298" lon="3.14924">
        <ele>178.46</ele>
        <time>2014-07-09T13:00:15Z</time>
      </trkpt>
      <trkpt lat="46.98327" lon="3.15023">
        <ele>177.98</ele>
        <time>2014-07-09T13:00:32Z</time>
      </trkpt>
      <trkpt lat="46.98328" lon="3.1503">
        <ele>177.5</ele>
        <time>2014-07-09T13:00:33Z</time>
      </trkpt>
      <trkpt lat="46.98331" lon="3.15043">
        <ele>177.5</ele>
        <time>2014-07-09T13:00:35Z</time>
      </trkpt>
      <trkpt lat="46.98336" lon="3.15073">
        <ele>177.02</ele>
        <time>2014-07-09T13:00:40Z</time>
      </trkpt>
      <trkpt lat="46.98337" lon="3.151">
        <ele>177.5</ele>
        <time>2014-07-09T13:00:44Z</time>
      </trkpt>
      <trkpt lat="46.98335" lon="3.1515">
        <ele>177.5</ele>
        <time>2014-07-09T13:00:52Z</time>
      </trkpt>
      <trkpt lat="46.98349" lon="3.15161">
        <ele>177.5</ele>
        <time>2014-07-09T13:00:58Z</time>
      </trkpt>
      <trkpt lat="46.98395" lon="3.15151">
        <ele>179.9</ele>
        <time>2014-07-09T13:01:16Z</time>
      </trkpt>
      <trkpt lat="46.98439" lon="3.15139">
        <ele>182.79</ele>
        <time>2014-07-09T13:01:37Z</time>
      </trkpt>
      <trkpt lat="46.98468" lon="3.15131">
        <ele>184.23</ele>
        <time>2014-07-09T13:01:52Z</time>
      </trkpt>
      <trkpt lat="46.98496" lon="3.1512">
        <ele>186.63</ele>
        <time>2014-07-09T13:02:07Z</time>
      </trkpt>
      <trkpt lat="46.98494" lon="3.15109">
        <ele>187.11</ele>
        <time>2014-07-09T13:02:13Z</time>
      </trkpt>
      <trkpt lat="46.98492" lon="3.15098">
        <ele>189.04</ele>
        <time>2014-07-09T13:02:18Z</time>
      </trkpt>
      <trkpt lat="46.98493" lon="3.15089">
        <ele>189.52</ele>
        <time>2014-07-09T13:02:33Z</time>
      </trkpt>
      <trkpt lat="46.98494" lon="3.15089">
        <ele>189.52</ele>
        <time>2014-07-09T13:02:34Z</time>
      </trkpt>
      <trkpt lat="46.98503" lon="3.1508">
        <ele>190</ele>
        <time>2014-07-09T13:02:41Z</time>
      </trkpt>
      <trkpt lat="46.98522" lon="3.15057">
        <ele>191.92</ele>
        <time>2014-07-09T13:02:57Z</time>
      </trkpt>
      <trkpt lat="46.98543" lon="3.15034">
        <ele>192.88</ele>
        <time>2014-07-09T13:03:12Z</time>
      </trkpt>
      <trkpt lat="46.98564" lon="3.15008">
        <ele>193.36</ele>
        <time>2014-07-09T13:03:26Z</time>
      </trkpt>
      <trkpt lat="46.9858" lon="3.14989">
        <ele>194.8</ele>
        <time>2014-07-09T13:03:37Z</time>
      </trkpt>
      <trkpt lat="46.98587" lon="3.14985">
        <ele>194.8</ele>
        <time>2014-07-09T13:03:41Z</time>
      </trkpt>
      <trkpt lat="46.98595" lon="3.14975">
        <ele>194.8</ele>
        <time>2014-07-09T13:03:57Z</time>
      </trkpt>
      <trkpt lat="46.98611" lon="3.14956">
        <ele>194.8</ele>
        <time>2014-07-09T13:04:08Z</time>
      </trkpt>
      <trkpt lat="46.98625" lon="3.14937">
        <ele>194.8</ele>
        <time>2014-07-09T13:04:19Z</time>
      </trkpt>
      <trkpt lat="46.98647" lon="3.14889">
        <ele>196.25</ele>
        <time>2014-07-09T13:04:36Z</time>
      </trkpt>
      <trkpt lat="46.98667" lon="3.14846">
        <ele>198.17</ele>
        <time>2014-07-09T13:04:52Z</time>
      </trkpt>
      <trkpt lat="46.98689" lon="3.14801">
        <ele>201.05</ele>
        <time>2014-07-09T13:05:09Z</time>
      </trkpt>
      <trkpt lat="46.98704" lon="3.1476">
        <ele>201.05</ele>
        <time>2014-07-09T13:05:23Z</time>
      </trkpt>
      <trkpt lat="46.98709" lon="3.1471">
        <ele>200.57</ele>
        <time>2014-07-09T13:05:38Z</time>
      </trkpt>
      <trkpt lat="46.98711" lon="3.14619">
        <ele>199.13</ele>
        <time>2014-07-09T13:05:56Z</time>
      </trkpt>
      <trkpt lat="46.987" lon="3.14552">
        <ele>200.09</ele>
        <time>2014-07-09T13:06:09Z</time>
      </trkpt>
      <trkpt lat="46.98689" lon="3.14485">
        <ele>200.57</ele>
        <time>2014-07-09T13:06:22Z</time>
      </trkpt>
      <trkpt lat="46.98693" lon="3.14412">
        <ele>201.05</ele>
        <time>2014-07-09T13:06:37Z</time>
      </trkpt>
      <trkpt lat="46.98708" lon="3.14328">
        <ele>202.49</ele>
        <time>2014-07-09T13:06:55Z</time>
      </trkpt>
      <trkpt lat="46.98721" lon="3.14245">
        <ele>203.94</ele>
        <time>2014-07-09T13:07:13Z</time>
      </trkpt>
      <trkpt lat="46.98732" lon="3.14171">
        <ele>206.34</ele>
        <time>2014-07-09T13:07:30Z</time>
      </trkpt>
      <trkpt lat="46.9874" lon="3.14111">
        <ele>206.82</ele>
        <time>2014-07-09T13:07:45Z</time>
      </trkpt>
      <trkpt lat="46.98744" lon="3.14054">
        <ele>207.3</ele>
        <time>2014-07-09T13:08:00Z</time>
      </trkpt>
      <trkpt lat="46.98749" lon="3.13995">
        <ele>207.78</ele>
        <time>2014-07-09T13:08:15Z</time>
      </trkpt>
      <trkpt lat="46.9875" lon="3.13949">
        <ele>208.26</ele>
        <time>2014-07-09T13:08:29Z</time>
      </trkpt>
      <trkpt lat="46.98755" lon="3.13874">
        <ele>209.22</ele>
        <time>2014-07-09T13:08:50Z</time>
      </trkpt>
      <trkpt lat="46.9876" lon="3.13805">
        <ele>210.19</ele>
        <time>2014-07-09T13:09:07Z</time>
      </trkpt>
      <trkpt lat="46.98756" lon="3.13746">
        <ele>211.63</ele>
        <time>2014-07-09T13:09:23Z</time>
      </trkpt>
      <trkpt lat="46.98747" lon="3.13689">
        <ele>212.11</ele>
        <time>2014-07-09T13:09:39Z</time>
      </trkpt>
      <trkpt lat="46.98738" lon="3.13626">
        <ele>213.55</ele>
        <time>2014-07-09T13:09:57Z</time>
      </trkpt>
      <trkpt lat="46.98733" lon="3.1355">
        <ele>214.99</ele>
        <time>2014-07-09T13:10:17Z</time>
      </trkpt>
      <trkpt lat="46.98738" lon="3.13484">
        <ele>215.95</ele>
        <time>2014-07-09T13:10:35Z</time>
      </trkpt>
      <trkpt lat="46.98744" lon="3.13427">
        <ele>216.43</ele>
        <time>2014-07-09T13:10:51Z</time>
      </trkpt>
      <trkpt lat="46.98744" lon="3.13368">
        <ele>216.43</ele>
        <time>2014-07-09T13:11:09Z</time>
      </trkpt>
      <trkpt lat="46.98741" lon="3.13302">
        <ele>214.99</ele>
        <time>2014-07-09T13:11:25Z</time>
      </trkpt>
      <trkpt lat="46.98738" lon="3.13235">
        <ele>213.07</ele>
        <time>2014-07-09T13:11:36Z</time>
      </trkpt>
      <trkpt lat="46.98746" lon="3.13145">
        <ele>212.59</ele>
        <time>2014-07-09T13:11:50Z</time>
      </trkpt>
      <trkpt lat="46.98754" lon="3.13092">
        <ele>213.55</ele>
        <time>2014-07-09T13:12:02Z</time>
      </trkpt>
      <trkpt lat="46.98764" lon="3.13027">
        <ele>214.99</ele>
        <time>2014-07-09T13:12:19Z</time>
      </trkpt>
      <trkpt lat="46.98778" lon="3.12959">
        <ele>214.99</ele>
        <time>2014-07-09T13:12:36Z</time>
      </trkpt>
      <trkpt lat="46.98784" lon="3.12928">
        <ele>214.03</ele>
        <time>2014-07-09T13:12:42Z</time>
      </trkpt>
      <trkpt lat="46.98793" lon="3.12862">
        <ele>210.67</ele>
        <time>2014-07-09T13:12:52Z</time>
      </trkpt>
      <trkpt lat="46.98798" lon="3.12827">
        <ele>209.7</ele>
        <time>2014-07-09T13:12:57Z</time>
      </trkpt>
      <trkpt lat="46.98802" lon="3.12772">
        <ele>206.34</ele>
        <time>2014-07-09T13:13:04Z</time>
      </trkpt>
      <trkpt lat="46.98805" lon="3.12674">
        <ele>202.49</ele>
        <time>2014-07-09T13:13:15Z</time>
      </trkpt>
      <trkpt lat="46.98808" lon="3.12546">
        <ele>200.57</ele>
        <time>2014-07-09T13:13:29Z</time>
      </trkpt>
      <trkpt lat="46.98811" lon="3.12481">
        <ele>201.05</ele>
        <time>2014-07-09T13:13:41Z</time>
      </trkpt>
      <trkpt lat="46.98818" lon="3.12431">
        <ele>202.01</ele>
        <time>2014-07-09T13:13:53Z</time>
      </trkpt>
      <trkpt lat="46.98814" lon="3.12378">
        <ele>202.98</ele>
        <time>2014-07-09T13:14:05Z</time>
      </trkpt>
      <trkpt lat="46.9882" lon="3.12311">
        <ele>204.42</ele>
        <time>2014-07-09T13:14:22Z</time>
      </trkpt>
      <trkpt lat="46.98824" lon="3.12251">
        <ele>206.82</ele>
        <time>2014-07-09T13:14:39Z</time>
      </trkpt>
      <trkpt lat="46.98827" lon="3.12231">
        <ele>206.34</ele>
        <time>2014-07-09T13:14:52Z</time>
      </trkpt>
      <trkpt lat="46.98829" lon="3.12231">
        <ele>206.82</ele>
        <time>2014-07-09T13:15:11Z</time>
      </trkpt>
      <trkpt lat="46.9883" lon="3.12232">
        <ele>206.82</ele>
        <time>2014-07-09T13:15:33Z</time>
      </trkpt>
      <trkpt lat="46.9883" lon="3.12233">
        <ele>206.82</ele>
        <time>2014-07-09T13:15:54Z</time>
      </trkpt>
      <trkpt lat="46.98832" lon="3.12231">
        <ele>206.82</ele>
        <time>2014-07-09T13:16:15Z</time>
      </trkpt>
      <trkpt lat="46.98833" lon="3.12232">
        <ele>207.3</ele>
        <time>2014-07-09T13:16:30Z</time>
      </trkpt>
      <trkpt lat="46.98831" lon="3.12233">
        <ele>207.3</ele>
        <time>2014-07-09T13:16:52Z</time>
      </trkpt>
      <trkpt lat="46.98829" lon="3.12234">
        <ele>207.3</ele>
        <time>2014-07-09T13:16:54Z</time>
      </trkpt>
      <trkpt lat="46.98823" lon="3.12279">
        <ele>207.3</ele>
        <time>2014-07-09T13:17:06Z</time>
      </trkpt>
      <trkpt lat="46.9882" lon="3.12312">
        <ele>205.86</ele>
        <time>2014-07-09T13:17:12Z</time>
      </trkpt>
      <trkpt lat="46.98815" lon="3.12354">
        <ele>205.38</ele>
        <time>2014-07-09T13:17:18Z</time>
      </trkpt>
      <trkpt lat="46.98807" lon="3.12432">
        <ele>203.46</ele>
        <time>2014-07-09T13:17:29Z</time>
      </trkpt>
      <trkpt lat="46.98799" lon="3.12463">
        <ele>203.46</ele>
        <time>2014-07-09T13:17:35Z</time>
      </trkpt>
      <trkpt lat="46.98805" lon="3.12481">
        <ele>203.46</ele>
        <time>2014-07-09T13:17:38Z</time>
      </trkpt>
      <trkpt lat="46.98808" lon="3.12509">
        <ele>202.49</ele>
        <time>2014-07-09T13:17:42Z</time>
      </trkpt>
      <trkpt lat="46.98804" lon="3.12648">
        <ele>202.98</ele>
        <time>2014-07-09T13:18:01Z</time>
      </trkpt>
      <trkpt lat="46.98802" lon="3.12717">
        <ele>204.9</ele>
        <time>2014-07-09T13:18:16Z</time>
      </trkpt>
      <trkpt lat="46.988" lon="3.12768">
        <ele>207.3</ele>
        <time>2014-07-09T13:18:32Z</time>
      </trkpt>
      <trkpt lat="46.98796" lon="3.12812">
        <ele>209.7</ele>
        <time>2014-07-09T13:18:48Z</time>
      </trkpt>
      <trkpt lat="46.9879" lon="3.12862">
        <ele>212.59</ele>
        <time>2014-07-09T13:19:08Z</time>
      </trkpt>
      <trkpt lat="46.98784" lon="3.1291">
        <ele>214.51</ele>
        <time>2014-07-09T13:19:26Z</time>
      </trkpt>
      <trkpt lat="46.98775" lon="3.1297">
        <ele>216.43</ele>
        <time>2014-07-09T13:19:47Z</time>
      </trkpt>
      <trkpt lat="46.98766" lon="3.13022">
        <ele>217.4</ele>
        <time>2014-07-09T13:20:02Z</time>
      </trkpt>
      <trkpt lat="46.9875" lon="3.13123">
        <ele>215.47</ele>
        <time>2014-07-09T13:20:19Z</time>
      </trkpt>
      <trkpt lat="46.98739" lon="3.13219">
        <ele>215.47</ele>
        <time>2014-07-09T13:20:33Z</time>
      </trkpt>
      <trkpt lat="46.98739" lon="3.13233">
        <ele>215.95</ele>
        <time>2014-07-09T13:20:44Z</time>
      </trkpt>
      <trkpt lat="46.98738" lon="3.1327">
        <ele>216.43</ele>
        <time>2014-07-09T13:20:55Z</time>
      </trkpt>
      <trkpt lat="46.9874" lon="3.13346">
        <ele>218.36</ele>
        <time>2014-07-09T13:21:14Z</time>
      </trkpt>
      <trkpt lat="46.9874" lon="3.1342">
        <ele>219.32</ele>
        <time>2014-07-09T13:21:31Z</time>
      </trkpt>
      <trkpt lat="46.98731" lon="3.13524">
        <ele>218.36</ele>
        <time>2014-07-09T13:21:47Z</time>
      </trkpt>
      <trkpt lat="46.98737" lon="3.13657">
        <ele>215.95</ele>
        <time>2014-07-09T13:22:02Z</time>
      </trkpt>
      <trkpt lat="46.98754" lon="3.13799">
        <ele>214.03</ele>
        <time>2014-07-09T13:22:16Z</time>
      </trkpt>
      <trkpt lat="46.98751" lon="3.13881">
        <ele>212.11</ele>
        <time>2014-07-09T13:22:24Z</time>
      </trkpt>
      <trkpt lat="46.98744" lon="3.13989">
        <ele>211.15</ele>
        <time>2014-07-09T13:22:36Z</time>
      </trkpt>
      <trkpt lat="46.98733" lon="3.14141">
        <ele>209.22</ele>
        <time>2014-07-09T13:22:53Z</time>
      </trkpt>
      <trkpt lat="46.9871" lon="3.14298">
        <ele>206.82</ele>
        <time>2014-07-09T13:23:10Z</time>
      </trkpt>
      <trkpt lat="46.9869" lon="3.14426">
        <ele>204.9</ele>
        <time>2014-07-09T13:23:23Z</time>
      </trkpt>
      <trkpt lat="46.98687" lon="3.14445">
        <ele>204.42</ele>
        <time>2014-07-09T13:23:25Z</time>
      </trkpt>
      <trkpt lat="46.98695" lon="3.1456">
        <ele>203.46</ele>
        <time>2014-07-09T13:23:37Z</time>
      </trkpt>
      <trkpt lat="46.98708" lon="3.14619">
        <ele>202.98</ele>
        <time>2014-07-09T13:23:44Z</time>
      </trkpt>
      <trkpt lat="46.98709" lon="3.14653">
        <ele>202.98</ele>
        <time>2014-07-09T13:23:48Z</time>
      </trkpt>
      <trkpt lat="46.98708" lon="3.147">
        <ele>203.46</ele>
        <time>2014-07-09T13:23:54Z</time>
      </trkpt>
      <trkpt lat="46.98711" lon="3.14728">
        <ele>203.94</ele>
        <time>2014-07-09T13:23:58Z</time>
      </trkpt>
      <trkpt lat="46.9871" lon="3.14756">
        <ele>204.42</ele>
        <time>2014-07-09T13:24:02Z</time>
      </trkpt>
      <trkpt lat="46.98676" lon="3.1485">
        <ele>202.01</ele>
        <time>2014-07-09T13:24:17Z</time>
      </trkpt>
      <trkpt lat="46.98634" lon="3.14922">
        <ele>199.13</ele>
        <time>2014-07-09T13:24:26Z</time>
      </trkpt>
      <trkpt lat="46.98624" lon="3.14938">
        <ele>198.17</ele>
        <time>2014-07-09T13:24:28Z</time>
      </trkpt>
      <trkpt lat="46.98614" lon="3.14975">
        <ele>197.21</ele>
        <time>2014-07-09T13:24:32Z</time>
      </trkpt>
      <trkpt lat="46.98617" lon="3.15003">
        <ele>196.73</ele>
        <time>2014-07-09T13:24:35Z</time>
      </trkpt>
      <trkpt lat="46.98626" lon="3.15036">
        <ele>196.73</ele>
        <time>2014-07-09T13:24:39Z</time>
      </trkpt>
      <trkpt lat="46.98636" lon="3.1506">
        <ele>196.73</ele>
        <time>2014-07-09T13:24:42Z</time>
      </trkpt>
      <trkpt lat="46.98638" lon="3.15086">
        <ele>197.69</ele>
        <time>2014-07-09T13:24:46Z</time>
      </trkpt>
      <trkpt lat="46.98646" lon="3.15141">
        <ele>195.77</ele>
        <time>2014-07-09T13:25:01Z</time>
      </trkpt>
      <trkpt lat="46.98641" lon="3.15138">
        <ele>195.77</ele>
        <time>2014-07-09T13:25:29Z</time>
      </trkpt>
      <trkpt lat="46.98642" lon="3.15139">
        <ele>195.77</ele>
        <time>2014-07-09T13:25:41Z</time>
      </trkpt>
      <trkpt lat="46.98629" lon="3.15161">
        <ele>194.8</ele>
        <time>2014-07-09T13:25:50Z</time>
      </trkpt>
      <trkpt lat="46.98614" lon="3.15171">
        <ele>194.32</ele>
        <time>2014-07-09T13:25:54Z</time>
      </trkpt>
      <trkpt lat="46.98598" lon="3.15195">
        <ele>193.84</ele>
        <time>2014-07-09T13:25:59Z</time>
      </trkpt>
      <trkpt lat="46.98591" lon="3.15241">
        <ele>191.44</ele>
        <time>2014-07-09T13:26:05Z</time>
      </trkpt>
      <trkpt lat="46.98584" lon="3.15269">
        <ele>189.52</ele>
        <time>2014-07-09T13:26:09Z</time>
      </trkpt>
      <trkpt lat="46.98571" lon="3.15288">
        <ele>188.08</ele>
        <time>2014-07-09T13:26:16Z</time>
      </trkpt>
      <trkpt lat="46.98572" lon="3.1529">
        <ele>188.08</ele>
        <time>2014-07-09T13:26:18Z</time>
      </trkpt>
      <trkpt lat="46.9859" lon="3.15298">
        <ele>188.08</ele>
        <time>2014-07-09T13:26:26Z</time>
      </trkpt>
      <trkpt lat="46.98602" lon="3.15308">
        <ele>188.56</ele>
        <time>2014-07-09T13:26:30Z</time>
      </trkpt>
      <trkpt lat="46.98646" lon="3.15347">
        <ele>188.08</ele>
        <time>2014-07-09T13:26:45Z</time>
      </trkpt>
      <trkpt lat="46.98649" lon="3.15349">
        <ele>188.08</ele>
        <time>2014-07-09T13:26:46Z</time>
      </trkpt>
      <trkpt lat="46.98661" lon="3.1535">
        <ele>187.11</ele>
        <time>2014-07-09T13:26:51Z</time>
      </trkpt>
      <trkpt lat="46.98677" lon="3.1539">
        <ele>186.63</ele>
        <time>2014-07-09T13:27:05Z</time>
      </trkpt>
      <trkpt lat="46.98693" lon="3.15424">
        <ele>188.56</ele>
        <time>2014-07-09T13:27:19Z</time>
      </trkpt>
      <trkpt lat="46.98697" lon="3.15456">
        <ele>189.04</ele>
        <time>2014-07-09T13:27:32Z</time>
      </trkpt>
      <trkpt lat="46.98694" lon="3.15479">
        <ele>190.48</ele>
        <time>2014-07-09T13:27:49Z</time>
      </trkpt>
      <trkpt lat="46.98692" lon="3.15482">
        <ele>190.48</ele>
        <time>2014-07-09T13:27:53Z</time>
      </trkpt>
      <trkpt lat="46.98691" lon="3.15484">
        <ele>190.48</ele>
        <time>2014-07-09T13:27:55Z</time>
      </trkpt>
      <trkpt lat="46.98696" lon="3.15496">
        <ele>190.48</ele>
        <time>2014-07-09T13:28:07Z</time>
      </trkpt>
      <trkpt lat="46.98707" lon="3.15514">
        <ele>191.92</ele>
        <time>2014-07-09T13:28:20Z</time>
      </trkpt>
      <trkpt lat="46.98726" lon="3.15547">
        <ele>193.36</ele>
        <time>2014-07-09T13:28:37Z</time>
      </trkpt>
      <trkpt lat="46.98745" lon="3.15573">
        <ele>194.32</ele>
        <time>2014-07-09T13:28:53Z</time>
      </trkpt>
      <trkpt lat="46.98751" lon="3.15582">
        <ele>194.8</ele>
        <time>2014-07-09T13:28:58Z</time>
      </trkpt>
      <trkpt lat="46.98768" lon="3.15614">
        <ele>196.25</ele>
        <time>2014-07-09T13:29:16Z</time>
      </trkpt>
      <trkpt lat="46.98778" lon="3.15636">
        <ele>196.73</ele>
        <time>2014-07-09T13:29:32Z</time>
      </trkpt>
      <trkpt lat="46.9878" lon="3.15636">
        <ele>196.73</ele>
        <time>2014-07-09T13:29:47Z</time>
      </trkpt>
      <trkpt lat="46.98792" lon="3.15663">
        <ele>197.69</ele>
        <time>2014-07-09T13:29:59Z</time>
      </trkpt>
      <trkpt lat="46.98803" lon="3.15677">
        <ele>197.69</ele>
        <time>2014-07-09T13:30:13Z</time>
      </trkpt>
      <trkpt lat="46.9881" lon="3.15698">
        <ele>198.65</ele>
        <time>2014-07-09T13:30:21Z</time>
      </trkpt>
      <trkpt lat="46.98806" lon="3.15706">
        <ele>198.65</ele>
        <time>2014-07-09T13:30:25Z</time>
      </trkpt>
      <trkpt lat="46.98794" lon="3.15721">
        <ele>200.09</ele>
        <time>2014-07-09T13:30:38Z</time>
      </trkpt>
      <trkpt lat="46.98766" lon="3.15735">
        <ele>201.53</ele>
        <time>2014-07-09T13:30:51Z</time>
      </trkpt>
      <trkpt lat="46.98765" lon="3.15735">
        <ele>202.01</ele>
        <time>2014-07-09T13:30:52Z</time>
      </trkpt>
      <trkpt lat="46.98748" lon="3.15737">
        <ele>202.01</ele>
        <time>2014-07-09T13:30:55Z</time>
      </trkpt>
      <trkpt lat="46.98748" lon="3.1575">
        <ele>201.53</ele>
        <time>2014-07-09T13:31:02Z</time>
      </trkpt>
      <trkpt lat="46.9875" lon="3.15762">
        <ele>201.53</ele>
        <time>2014-07-09T13:31:08Z</time>
      </trkpt>
      <trkpt lat="46.98753" lon="3.15798">
        <ele>201.53</ele>
        <time>2014-07-09T13:31:23Z</time>
      </trkpt>
      <trkpt lat="46.98758" lon="3.15808">
        <ele>202.01</ele>
        <time>2014-07-09T13:31:37Z</time>
      </trkpt>
      <trkpt lat="46.98761" lon="3.1581">
        <ele>201.53</ele>
        <time>2014-07-09T13:32:03Z</time>
      </trkpt>
      <trkpt lat="46.98762" lon="3.15817">
        <ele>201.05</ele>
        <time>2014-07-09T13:32:10Z</time>
      </trkpt>
      <trkpt lat="46.98773" lon="3.15812">
        <ele>201.53</ele>
        <time>2014-07-09T13:32:18Z</time>
      </trkpt>
      <trkpt lat="46.98782" lon="3.15797">
        <ele>201.53</ele>
        <time>2014-07-09T13:32:30Z</time>
      </trkpt>
      <trkpt lat="46.98784" lon="3.158">
        <ele>202.01</ele>
        <time>2014-07-09T13:32:50Z</time>
      </trkpt>
      <trkpt lat="46.98782" lon="3.15801">
        <ele>202.01</ele>
        <time>2014-07-09T13:33:20Z</time>
      </trkpt>
      <trkpt lat="46.98778" lon="3.15804">
        <ele>202.01</ele>
        <time>2014-07-09T13:33:47Z</time>
      </trkpt>
      <trkpt lat="46.98776" lon="3.15808">
        <ele>202.01</ele>
        <time>2014-07-09T13:34:18Z</time>
      </trkpt>
      <trkpt lat="46.98776" lon="3.15796">
        <ele>202.01</ele>
        <time>2014-07-09T13:34:57Z</time>
      </trkpt>
      <trkpt lat="46.98777" lon="3.15795">
        <ele>202.49</ele>
        <time>2014-07-09T13:35:21Z</time>
      </trkpt>
      <trkpt lat="46.98776" lon="3.15798">
        <ele>202.49</ele>
        <time>2014-07-09T13:35:44Z</time>
      </trkpt>
      <trkpt lat="46.98773" lon="3.15802">
        <ele>202.49</ele>
        <time>2014-07-09T13:36:15Z</time>
      </trkpt>
      <trkpt lat="46.98773" lon="3.15801">
        <ele>202.49</ele>
        <time>2014-07-09T13:36:28Z</time>
      </trkpt>
      <trkpt lat="46.98774" lon="3.15801">
        <ele>191.44</ele>
        <time>2014-07-09T14:28:42Z</time>
      </trkpt>
      <trkpt lat="46.98857" lon="3.15777">
        <ele>191.44</ele>
        <time>2014-07-09T14:29:17Z</time>
      </trkpt>
      <trkpt lat="46.98848" lon="3.15769">
        <ele>191.44</ele>
        <time>2014-07-09T14:29:53Z</time>
      </trkpt>
      <trkpt lat="46.98849" lon="3.15777">
        <ele>191.44</ele>
        <time>2014-07-09T14:30:17Z</time>
      </trkpt>
      <trkpt lat="46.98853" lon="3.15777">
        <ele>191.44</ele>
        <time>2014-07-09T14:30:50Z</time>
      </trkpt>
      <trkpt lat="46.98853" lon="3.15779">
        <ele>191.44</ele>
        <time>2014-07-09T14:30:56Z</time>
      </trkpt>
      <trkpt lat="46.9885" lon="3.15778">
        <ele>222.68</ele>
        <time>2014-07-09T14:48:07Z</time>
      </trkpt>
      <trkpt lat="46.98788" lon="3.15795">
        <ele>194.8</ele>
        <time>2014-07-09T14:48:17Z</time>
      </trkpt>
      <trkpt lat="46.98786" lon="3.15794">
        <ele>198.17</ele>
        <time>2014-07-09T14:48:42Z</time>
      </trkpt>
      <trkpt lat="46.98786" lon="3.15795">
        <ele>201.53</ele>
        <time>2014-07-09T14:48:44Z</time>
      </trkpt>
      <trkpt lat="46.98786" lon="3.15795">
        <ele>204.42</ele>
        <time>2014-07-09T14:48:46Z</time>
      </trkpt>
      <trkpt lat="46.98786" lon="3.15795">
        <ele>208.74</ele>
        <time>2014-07-09T14:48:49Z</time>
      </trkpt>
      <trkpt lat="46.98786" lon="3.15795">
        <ele>213.07</ele>
        <time>2014-07-09T14:48:52Z</time>
      </trkpt>
      <trkpt lat="46.98787" lon="3.15794">
        <ele>216.91</ele>
        <time>2014-07-09T14:48:55Z</time>
      </trkpt>
      <trkpt lat="46.98788" lon="3.15793">
        <ele>220.76</ele>
        <time>2014-07-09T14:48:58Z</time>
      </trkpt>
      <trkpt lat="46.98788" lon="3.15793">
        <ele>224.12</ele>
        <time>2014-07-09T14:49:01Z</time>
      </trkpt>
      <trkpt lat="46.98787" lon="3.15793">
        <ele>227.49</ele>
        <time>2014-07-09T14:49:04Z</time>
      </trkpt>
      <trkpt lat="46.98787" lon="3.15792">
        <ele>231.81</ele>
        <time>2014-07-09T14:49:07Z</time>
      </trkpt>
      <trkpt lat="46.98787" lon="3.15792">
        <ele>232.78</ele>
        <time>2014-07-09T14:49:09Z</time>
      </trkpt>
      <trkpt lat="46.98786" lon="3.15794">
        <ele>236.14</ele>
        <time>2014-07-09T14:49:13Z</time>
      </trkpt>
      <trkpt lat="46.98784" lon="3.15797">
        <ele>239.51</ele>
        <time>2014-07-09T14:49:17Z</time>
      </trkpt>
      <trkpt lat="46.98782" lon="3.158">
        <ele>242.39</ele>
        <time>2014-07-09T14:49:22Z</time>
      </trkpt>
      <trkpt lat="46.9878" lon="3.15802">
        <ele>245.75</ele>
        <time>2014-07-09T14:49:30Z</time>
      </trkpt>
      <trkpt lat="46.98783" lon="3.15795">
        <ele>247.68</ele>
        <time>2014-07-09T14:49:59Z</time>
      </trkpt>
      <trkpt lat="46.98786" lon="3.15788">
        <ele>247.68</ele>
        <time>2014-07-09T14:50:25Z</time>
      </trkpt>
      <trkpt lat="46.98788" lon="3.1579">
        <ele>247.68</ele>
        <time>2014-07-09T14:50:50Z</time>
      </trkpt>
      <trkpt lat="46.98787" lon="3.15793">
        <ele>247.68</ele>
        <time>2014-07-09T14:51:18Z</time>
      </trkpt>
      <trkpt lat="46.98787" lon="3.15789">
        <ele>247.68</ele>
        <time>2014-07-09T14:51:48Z</time>
      </trkpt>
      <trkpt lat="46.9879" lon="3.15781">
        <ele>247.68</ele>
        <time>2014-07-09T14:52:12Z</time>
      </trkpt>
      <trkpt lat="46.98792" lon="3.15775">
        <ele>247.68</ele>
        <time>2014-07-09T14:52:32Z</time>
      </trkpt>
      <trkpt lat="46.9879" lon="3.15779">
        <ele>247.68</ele>
        <time>2014-07-09T14:52:59Z</time>
      </trkpt>
      <trkpt lat="46.98794" lon="3.15785">
        <ele>247.2</ele>
        <time>2014-07-09T14:53:04Z</time>
      </trkpt>
      <trkpt lat="46.98801" lon="3.15786">
        <ele>247.2</ele>
        <time>2014-07-09T14:53:19Z</time>
      </trkpt>
      <trkpt lat="46.98812" lon="3.15782">
        <ele>246.72</ele>
        <time>2014-07-09T14:53:26Z</time>
      </trkpt>
      <trkpt lat="46.98836" lon="3.15765">
        <ele>243.35</ele>
        <time>2014-07-09T14:53:36Z</time>
      </trkpt>
      <trkpt lat="46.98839" lon="3.15762">
        <ele>243.35</ele>
        <time>2014-07-09T14:53:37Z</time>
      </trkpt>
      <trkpt lat="46.9885" lon="3.15747">
        <ele>242.87</ele>
        <time>2014-07-09T14:53:41Z</time>
      </trkpt>
      <trkpt lat="46.98888" lon="3.15729">
        <ele>244.31</ele>
        <time>2014-07-09T14:53:56Z</time>
      </trkpt>
      <trkpt lat="46.98904" lon="3.15721">
        <ele>245.27</ele>
        <time>2014-07-09T14:54:11Z</time>
      </trkpt>
      <trkpt lat="46.98904" lon="3.15721">
        <ele>245.27</ele>
        <time>2014-07-09T14:54:13Z</time>
      </trkpt>
      <trkpt lat="46.98908" lon="3.15704">
        <ele>245.75</ele>
        <time>2014-07-09T14:54:21Z</time>
      </trkpt>
      <trkpt lat="46.9889" lon="3.15654">
        <ele>245.27</ele>
        <time>2014-07-09T14:54:35Z</time>
      </trkpt>
      <trkpt lat="46.9887" lon="3.15571">
        <ele>244.79</ele>
        <time>2014-07-09T14:54:53Z</time>
      </trkpt>
      <trkpt lat="46.98844" lon="3.15472">
        <ele>242.87</ele>
        <time>2014-07-09T14:55:09Z</time>
      </trkpt>
      <trkpt lat="46.98817" lon="3.15366">
        <ele>239.51</ele>
        <time>2014-07-09T14:55:23Z</time>
      </trkpt>
      <trkpt lat="46.98815" lon="3.1536">
        <ele>239.02</ele>
        <time>2014-07-09T14:55:24Z</time>
      </trkpt>
      <trkpt lat="46.98811" lon="3.15342">
        <ele>238.54</ele>
        <time>2014-07-09T14:55:27Z</time>
      </trkpt>
      <trkpt lat="46.98827" lon="3.15255">
        <ele>235.18</ele>
        <time>2014-07-09T14:55:38Z</time>
      </trkpt>
      <trkpt lat="46.9883" lon="3.15238">
        <ele>234.22</ele>
        <time>2014-07-09T14:55:40Z</time>
      </trkpt>
      <trkpt lat="46.98833" lon="3.15216">
        <ele>234.22</ele>
        <time>2014-07-09T14:55:43Z</time>
      </trkpt>
      <trkpt lat="46.98836" lon="3.15198">
        <ele>234.7</ele>
        <time>2014-07-09T14:55:47Z</time>
      </trkpt>
      <trkpt lat="46.98812" lon="3.15179">
        <ele>234.7</ele>
        <time>2014-07-09T14:55:57Z</time>
      </trkpt>
      <trkpt lat="46.98793" lon="3.15142">
        <ele>234.7</ele>
        <time>2014-07-09T14:56:07Z</time>
      </trkpt>
      <trkpt lat="46.98767" lon="3.15167">
        <ele>235.18</ele>
        <time>2014-07-09T14:56:18Z</time>
      </trkpt>
      <trkpt lat="46.98759" lon="3.15174">
        <ele>234.7</ele>
        <time>2014-07-09T14:56:31Z</time>
      </trkpt>
      <trkpt lat="46.98755" lon="3.15182">
        <ele>234.7</ele>
        <time>2014-07-09T14:56:37Z</time>
      </trkpt>
      <trkpt lat="46.98749" lon="3.1519">
        <ele>234.7</ele>
        <time>2014-07-09T14:56:41Z</time>
      </trkpt>
      <trkpt lat="46.98709" lon="3.15236">
        <ele>234.22</ele>
        <time>2014-07-09T14:56:55Z</time>
      </trkpt>
      <trkpt lat="46.98681" lon="3.15263">
        <ele>233.26</ele>
        <time>2014-07-09T14:57:05Z</time>
      </trkpt>
      <trkpt lat="46.98671" lon="3.15227">
        <ele>234.7</ele>
        <time>2014-07-09T14:57:17Z</time>
      </trkpt>
      <trkpt lat="46.98654" lon="3.15179">
        <ele>236.14</ele>
        <time>2014-07-09T14:57:35Z</time>
      </trkpt>
      <trkpt lat="46.98653" lon="3.15158">
        <ele>237.1</ele>
        <time>2014-07-09T14:57:48Z</time>
      </trkpt>
      <trkpt lat="46.98654" lon="3.15156">
        <ele>236.14</ele>
        <time>2014-07-09T14:58:08Z</time>
      </trkpt>
      <trkpt lat="46.98654" lon="3.15152">
        <ele>235.66</ele>
        <time>2014-07-09T14:58:23Z</time>
      </trkpt>
      <trkpt lat="46.98658" lon="3.15145">
        <ele>235.66</ele>
        <time>2014-07-09T14:58:27Z</time>
      </trkpt>
      <trkpt lat="46.98711" lon="3.15124">
        <ele>232.78</ele>
        <time>2014-07-09T14:58:39Z</time>
      </trkpt>
      <trkpt lat="46.98736" lon="3.15116">
        <ele>232.78</ele>
        <time>2014-07-09T14:58:45Z</time>
      </trkpt>
      <trkpt lat="46.98745" lon="3.15166">
        <ele>231.81</ele>
        <time>2014-07-09T14:58:54Z</time>
      </trkpt>
      <trkpt lat="46.9878" lon="3.15286">
        <ele>230.85</ele>
        <time>2014-07-09T14:59:11Z</time>
      </trkpt>
      <trkpt lat="46.98802" lon="3.15347">
        <ele>232.78</ele>
        <time>2014-07-09T14:59:25Z</time>
      </trkpt>
      <trkpt lat="46.98811" lon="3.15335">
        <ele>232.78</ele>
        <time>2014-07-09T14:59:30Z</time>
      </trkpt>
      <trkpt lat="46.98828" lon="3.1524">
        <ele>229.41</ele>
        <time>2014-07-09T14:59:42Z</time>
      </trkpt>
      <trkpt lat="46.98837" lon="3.15201">
        <ele>228.93</ele>
        <time>2014-07-09T14:59:47Z</time>
      </trkpt>
      <trkpt lat="46.98867" lon="3.15137">
        <ele>228.45</ele>
        <time>2014-07-09T14:59:57Z</time>
      </trkpt>
      <trkpt lat="46.98899" lon="3.15069">
        <ele>229.41</ele>
        <time>2014-07-09T15:00:10Z</time>
      </trkpt>
      <trkpt lat="46.98936" lon="3.15047">
        <ele>230.37</ele>
        <time>2014-07-09T15:00:23Z</time>
      </trkpt>
      <trkpt lat="46.98995" lon="3.15021">
        <ele>230.85</ele>
        <time>2014-07-09T15:00:41Z</time>
      </trkpt>
      <trkpt lat="46.99053" lon="3.14993">
        <ele>231.33</ele>
        <time>2014-07-09T15:01:00Z</time>
      </trkpt>
      <trkpt lat="46.99117" lon="3.14956">
        <ele>232.3</ele>
        <time>2014-07-09T15:01:22Z</time>
      </trkpt>
      <trkpt lat="46.99176" lon="3.14922">
        <ele>233.26</ele>
        <time>2014-07-09T15:01:43Z</time>
      </trkpt>
      <trkpt lat="46.99216" lon="3.14923">
        <ele>235.18</ele>
        <time>2014-07-09T15:01:58Z</time>
      </trkpt>
      <trkpt lat="46.99251" lon="3.14914">
        <ele>234.7</ele>
        <time>2014-07-09T15:02:12Z</time>
      </trkpt>
      <trkpt lat="46.99256" lon="3.14873">
        <ele>234.7</ele>
        <time>2014-07-09T15:02:23Z</time>
      </trkpt>
      <trkpt lat="46.99258" lon="3.14877">
        <ele>233.74</ele>
        <time>2014-07-09T15:02:49Z</time>
      </trkpt>
      <trkpt lat="46.99259" lon="3.14873">
        <ele>232.78</ele>
        <time>2014-07-09T15:03:27Z</time>
      </trkpt>
      <trkpt lat="46.99257" lon="3.14876">
        <ele>232.3</ele>
        <time>2014-07-09T15:04:03Z</time>
      </trkpt>
      <trkpt lat="46.99257" lon="3.14876">
        <ele>231.33</ele>
        <time>2014-07-09T15:04:50Z</time>
      </trkpt>
      <trkpt lat="46.99256" lon="3.14869">
        <ele>230.85</ele>
        <time>2014-07-09T15:05:01Z</time>
      </trkpt>
      <trkpt lat="46.99257" lon="3.14842">
        <ele>231.33</ele>
        <time>2014-07-09T15:05:11Z</time>
      </trkpt>
      <trkpt lat="46.9925" lon="3.14765">
        <ele>231.33</ele>
        <time>2014-07-09T15:05:31Z</time>
      </trkpt>
      <trkpt lat="46.99248" lon="3.14717">
        <ele>230.37</ele>
        <time>2014-07-09T15:05:44Z</time>
      </trkpt>
      <trkpt lat="46.99241" lon="3.1464">
        <ele>229.89</ele>
        <time>2014-07-09T15:06:01Z</time>
      </trkpt>
      <trkpt lat="46.99229" lon="3.14524">
        <ele>229.89</ele>
        <time>2014-07-09T15:06:22Z</time>
      </trkpt>
      <trkpt lat="46.99218" lon="3.1443">
        <ele>230.37</ele>
        <time>2014-07-09T15:06:41Z</time>
      </trkpt>
      <trkpt lat="46.99209" lon="3.1434">
        <ele>230.37</ele>
        <time>2014-07-09T15:07:00Z</time>
      </trkpt>
      <trkpt lat="46.99203" lon="3.14249">
        <ele>230.85</ele>
        <time>2014-07-09T15:07:21Z</time>
      </trkpt>
      <trkpt lat="46.9921" lon="3.14177">
        <ele>232.3</ele>
        <time>2014-07-09T15:07:39Z</time>
      </trkpt>
      <trkpt lat="46.99243" lon="3.14124">
        <ele>232.3</ele>
        <time>2014-07-09T15:07:55Z</time>
      </trkpt>
      <trkpt lat="46.99285" lon="3.14039">
        <ele>233.26</ele>
        <time>2014-07-09T15:08:17Z</time>
      </trkpt>
      <trkpt lat="46.99311" lon="3.13968">
        <ele>230.37</ele>
        <time>2014-07-09T15:08:29Z</time>
      </trkpt>
      <trkpt lat="46.9935" lon="3.1385">
        <ele>229.89</ele>
        <time>2014-07-09T15:08:49Z</time>
      </trkpt>
      <trkpt lat="46.99373" lon="3.13772">
        <ele>229.89</ele>
        <time>2014-07-09T15:09:05Z</time>
      </trkpt>
      <trkpt lat="46.99393" lon="3.13698">
        <ele>229.41</ele>
        <time>2014-07-09T15:09:20Z</time>
      </trkpt>
      <trkpt lat="46.99404" lon="3.1366">
        <ele>228.93</ele>
        <time>2014-07-09T15:09:34Z</time>
      </trkpt>
      <trkpt lat="46.99406" lon="3.13658">
        <ele>228.45</ele>
        <time>2014-07-09T15:09:58Z</time>
      </trkpt>
      <trkpt lat="46.99406" lon="3.13658">
        <ele>228.93</ele>
        <time>2014-07-09T15:09:59Z</time>
      </trkpt>
      <trkpt lat="46.99419" lon="3.13607">
        <ele>228.93</ele>
        <time>2014-07-09T15:10:12Z</time>
      </trkpt>
      <trkpt lat="46.99444" lon="3.13517">
        <ele>229.41</ele>
        <time>2014-07-09T15:10:31Z</time>
      </trkpt>
      <trkpt lat="46.99468" lon="3.13433">
        <ele>228.93</ele>
        <time>2014-07-09T15:10:49Z</time>
      </trkpt>
      <trkpt lat="46.9951" lon="3.133">
        <ele>227.97</ele>
        <time>2014-07-09T15:11:13Z</time>
      </trkpt>
      <trkpt lat="46.99557" lon="3.13151">
        <ele>227.01</ele>
        <time>2014-07-09T15:11:39Z</time>
      </trkpt>
      <trkpt lat="46.99592" lon="3.13041">
        <ele>227.49</ele>
        <time>2014-07-09T15:12:00Z</time>
      </trkpt>
      <trkpt lat="46.99625" lon="3.1293">
        <ele>228.45</ele>
        <time>2014-07-09T15:12:23Z</time>
      </trkpt>
      <trkpt lat="46.99638" lon="3.12821">
        <ele>227.49</ele>
        <time>2014-07-09T15:12:43Z</time>
      </trkpt>
      <trkpt lat="46.99633" lon="3.12692">
        <ele>225.57</ele>
        <time>2014-07-09T15:13:03Z</time>
      </trkpt>
      <trkpt lat="46.99629" lon="3.1267">
        <ele>224.61</ele>
        <time>2014-07-09T15:13:07Z</time>
      </trkpt>
      <trkpt lat="46.99623" lon="3.12623">
        <ele>224.12</ele>
        <time>2014-07-09T15:13:15Z</time>
      </trkpt>
      <trkpt lat="46.99616" lon="3.12596">
        <ele>224.12</ele>
        <time>2014-07-09T15:13:21Z</time>
      </trkpt>
      <trkpt lat="46.99611" lon="3.12473">
        <ele>222.2</ele>
        <time>2014-07-09T15:13:41Z</time>
      </trkpt>
      <trkpt lat="46.9961" lon="3.12408">
        <ele>221.24</ele>
        <time>2014-07-09T15:13:53Z</time>
      </trkpt>
      <trkpt lat="46.99614" lon="3.12358">
        <ele>219.8</ele>
        <time>2014-07-09T15:14:01Z</time>
      </trkpt>
      <trkpt lat="46.99616" lon="3.12333">
        <ele>219.32</ele>
        <time>2014-07-09T15:14:05Z</time>
      </trkpt>
      <trkpt lat="46.99609" lon="3.12303">
        <ele>217.88</ele>
        <time>2014-07-09T15:14:10Z</time>
      </trkpt>
      <trkpt lat="46.99593" lon="3.12279">
        <ele>216.91</ele>
        <time>2014-07-09T15:14:18Z</time>
      </trkpt>
      <trkpt lat="46.99596" lon="3.12265">
        <ele>216.43</ele>
        <time>2014-07-09T15:14:27Z</time>
      </trkpt>
      <trkpt lat="46.99597" lon="3.12259">
        <ele>216.43</ele>
        <time>2014-07-09T15:14:29Z</time>
      </trkpt>
      <trkpt lat="46.99608" lon="3.12248">
        <ele>216.91</ele>
        <time>2014-07-09T15:14:33Z</time>
      </trkpt>
      <trkpt lat="46.99622" lon="3.1223">
        <ele>217.4</ele>
        <time>2014-07-09T15:14:38Z</time>
      </trkpt>
      <trkpt lat="46.99626" lon="3.12206">
        <ele>215.95</ele>
        <time>2014-07-09T15:14:42Z</time>
      </trkpt>
      <trkpt lat="46.9963" lon="3.12175">
        <ele>214.03</ele>
        <time>2014-07-09T15:14:47Z</time>
      </trkpt>
      <trkpt lat="46.99633" lon="3.12141">
        <ele>212.59</ele>
        <time>2014-07-09T15:14:52Z</time>
      </trkpt>
      <trkpt lat="46.99638" lon="3.12063">
        <ele>212.59</ele>
        <time>2014-07-09T15:15:04Z</time>
      </trkpt>
      <trkpt lat="46.99635" lon="3.12017">
        <ele>213.07</ele>
        <time>2014-07-09T15:15:11Z</time>
      </trkpt>
      <trkpt lat="46.99614" lon="3.11927">
        <ele>212.59</ele>
        <time>2014-07-09T15:15:28Z</time>
      </trkpt>
      <trkpt lat="46.99585" lon="3.11836">
        <ele>212.11</ele>
        <time>2014-07-09T15:15:44Z</time>
      </trkpt>
      <trkpt lat="46.9955" lon="3.11721">
        <ele>210.67</ele>
        <time>2014-07-09T15:16:03Z</time>
      </trkpt>
      <trkpt lat="46.99542" lon="3.11692">
        <ele>210.67</ele>
        <time>2014-07-09T15:16:08Z</time>
      </trkpt>
      <trkpt lat="46.99538" lon="3.11673">
        <ele>210.19</ele>
        <time>2014-07-09T15:16:11Z</time>
      </trkpt>
      <trkpt lat="46.99526" lon="3.1161">
        <ele>210.19</ele>
        <time>2014-07-09T15:16:21Z</time>
      </trkpt>
      <trkpt lat="46.99519" lon="3.1148">
        <ele>208.74</ele>
        <time>2014-07-09T15:16:41Z</time>
      </trkpt>
      <trkpt lat="46.99524" lon="3.11389">
        <ele>208.74</ele>
        <time>2014-07-09T15:16:57Z</time>
      </trkpt>
      <trkpt lat="46.99536" lon="3.11325">
        <ele>208.26</ele>
        <time>2014-07-09T15:17:10Z</time>
      </trkpt>
      <trkpt lat="46.99537" lon="3.11311">
        <ele>208.26</ele>
        <time>2014-07-09T15:17:19Z</time>
      </trkpt>
      <trkpt lat="46.99537" lon="3.11289">
        <ele>208.26</ele>
        <time>2014-07-09T15:17:28Z</time>
      </trkpt>
      <trkpt lat="46.99554" lon="3.11239">
        <ele>208.26</ele>
        <time>2014-07-09T15:17:42Z</time>
      </trkpt>
      <trkpt lat="46.99574" lon="3.11211">
        <ele>207.78</ele>
        <time>2014-07-09T15:17:55Z</time>
      </trkpt>
      <trkpt lat="46.99602" lon="3.11154">
        <ele>207.3</ele>
        <time>2014-07-09T15:18:17Z</time>
      </trkpt>
      <trkpt lat="46.99633" lon="3.11106">
        <ele>206.34</ele>
        <time>2014-07-09T15:18:34Z</time>
      </trkpt>
      <trkpt lat="46.99681" lon="3.1105">
        <ele>205.86</ele>
        <time>2014-07-09T15:18:53Z</time>
      </trkpt>
      <trkpt lat="46.99708" lon="3.11021">
        <ele>205.38</ele>
        <time>2014-07-09T15:19:01Z</time>
      </trkpt>
      <trkpt lat="46.99772" lon="3.10945">
        <ele>205.86</ele>
        <time>2014-07-09T15:19:21Z</time>
      </trkpt>
      <trkpt lat="46.99831" lon="3.10848">
        <ele>206.82</ele>
        <time>2014-07-09T15:19:45Z</time>
      </trkpt>
      <trkpt lat="46.99865" lon="3.10769">
        <ele>206.34</ele>
        <time>2014-07-09T15:20:03Z</time>
      </trkpt>
      <trkpt lat="46.99859" lon="3.10731">
        <ele>204.9</ele>
        <time>2014-07-09T15:20:11Z</time>
      </trkpt>
      <trkpt lat="46.99863" lon="3.10721">
        <ele>204.9</ele>
        <time>2014-07-09T15:20:16Z</time>
      </trkpt>
      <trkpt lat="46.99868" lon="3.10709">
        <ele>204.9</ele>
        <time>2014-07-09T15:20:22Z</time>
      </trkpt>
      <trkpt lat="46.99881" lon="3.10707">
        <ele>204.9</ele>
        <time>2014-07-09T15:20:26Z</time>
      </trkpt>
      <trkpt lat="46.99908" lon="3.10656">
        <ele>204.42</ele>
        <time>2014-07-09T15:20:39Z</time>
      </trkpt>
      <trkpt lat="46.99937" lon="3.10567">
        <ele>204.9</ele>
        <time>2014-07-09T15:20:57Z</time>
      </trkpt>
      <trkpt lat="46.99964" lon="3.10473">
        <ele>205.38</ele>
        <time>2014-07-09T15:21:19Z</time>
      </trkpt>
      <trkpt lat="46.99985" lon="3.10395">
        <ele>205.86</ele>
        <time>2014-07-09T15:21:39Z</time>
      </trkpt>
      <trkpt lat="47.0001" lon="3.10307">
        <ele>206.34</ele>
        <time>2014-07-09T15:22:01Z</time>
      </trkpt>
      <trkpt lat="47.00038" lon="3.10211">
        <ele>206.34</ele>
        <time>2014-07-09T15:22:23Z</time>
      </trkpt>
      <trkpt lat="47.00069" lon="3.1012">
        <ele>205.38</ele>
        <time>2014-07-09T15:22:43Z</time>
      </trkpt>
      <trkpt lat="47.00088" lon="3.10071">
        <ele>204.42</ele>
        <time>2014-07-09T15:22:53Z</time>
      </trkpt>
      <trkpt lat="47.00094" lon="3.10043">
        <ele>203.94</ele>
        <time>2014-07-09T15:22:58Z</time>
      </trkpt>
      <trkpt lat="47.00124" lon="3.0999">
        <ele>203.46</ele>
        <time>2014-07-09T15:23:10Z</time>
      </trkpt>
      <trkpt lat="47.00164" lon="3.09916">
        <ele>202.49</ele>
        <time>2014-07-09T15:23:26Z</time>
      </trkpt>
      <trkpt lat="47.00179" lon="3.09895">
        <ele>202.49</ele>
        <time>2014-07-09T15:23:31Z</time>
      </trkpt>
      <trkpt lat="47.0019" lon="3.09878">
        <ele>202.49</ele>
        <time>2014-07-09T15:23:35Z</time>
      </trkpt>
      <trkpt lat="47.00211" lon="3.0985">
        <ele>202.49</ele>
        <time>2014-07-09T15:23:42Z</time>
      </trkpt>
      <trkpt lat="47.00271" lon="3.0978">
        <ele>201.53</ele>
        <time>2014-07-09T15:24:00Z</time>
      </trkpt>
      <trkpt lat="47.00345" lon="3.09706">
        <ele>200.57</ele>
        <time>2014-07-09T15:24:20Z</time>
      </trkpt>
      <trkpt lat="47.00421" lon="3.09634">
        <ele>199.61</ele>
        <time>2014-07-09T15:24:39Z</time>
      </trkpt>
      <trkpt lat="47.00484" lon="3.09574">
        <ele>198.65</ele>
        <time>2014-07-09T15:24:56Z</time>
      </trkpt>
      <trkpt lat="47.00517" lon="3.0952">
        <ele>198.65</ele>
        <time>2014-07-09T15:25:10Z</time>
      </trkpt>
      <trkpt lat="47.00542" lon="3.09485">
        <ele>198.17</ele>
        <time>2014-07-09T15:25:23Z</time>
      </trkpt>
      <trkpt lat="47.00582" lon="3.09496">
        <ele>198.17</ele>
        <time>2014-07-09T15:25:35Z</time>
      </trkpt>
      <trkpt lat="47.00597" lon="3.09493">
        <ele>198.17</ele>
        <time>2014-07-09T15:25:46Z</time>
      </trkpt>
      <trkpt lat="47.00605" lon="3.0949">
        <ele>198.17</ele>
        <time>2014-07-09T15:26:04Z</time>
      </trkpt>
      <trkpt lat="47.00636" lon="3.09467">
        <ele>198.17</ele>
        <time>2014-07-09T15:26:16Z</time>
      </trkpt>
      <trkpt lat="47.00686" lon="3.09434">
        <ele>198.17</ele>
        <time>2014-07-09T15:26:31Z</time>
      </trkpt>
      <trkpt lat="47.00745" lon="3.09386">
        <ele>197.69</ele>
        <time>2014-07-09T15:26:48Z</time>
      </trkpt>
      <trkpt lat="47.00787" lon="3.09338">
        <ele>198.17</ele>
        <time>2014-07-09T15:27:01Z</time>
      </trkpt>
      <trkpt lat="47.00832" lon="3.09288">
        <ele>197.69</ele>
        <time>2014-07-09T15:27:16Z</time>
      </trkpt>
      <trkpt lat="47.00877" lon="3.09235">
        <ele>196.73</ele>
        <time>2014-07-09T15:27:31Z</time>
      </trkpt>
      <trkpt lat="47.00926" lon="3.09185">
        <ele>197.21</ele>
        <time>2014-07-09T15:27:48Z</time>
      </trkpt>
      <trkpt lat="47.00976" lon="3.09126">
        <ele>196.73</ele>
        <time>2014-07-09T15:28:04Z</time>
      </trkpt>
      <trkpt lat="47.00999" lon="3.09101">
        <ele>196.25</ele>
        <time>2014-07-09T15:28:11Z</time>
      </trkpt>
      <trkpt lat="47.01029" lon="3.09067">
        <ele>195.28</ele>
        <time>2014-07-09T15:28:19Z</time>
      </trkpt>
      <trkpt lat="47.01097" lon="3.08988">
        <ele>194.8</ele>
        <time>2014-07-09T15:28:38Z</time>
      </trkpt>
      <trkpt lat="47.01166" lon="3.0891">
        <ele>193.84</ele>
        <time>2014-07-09T15:28:58Z</time>
      </trkpt>
      <trkpt lat="47.01243" lon="3.08825">
        <ele>193.36</ele>
        <time>2014-07-09T15:29:20Z</time>
      </trkpt>
      <trkpt lat="47.01294" lon="3.08744">
        <ele>192.88</ele>
        <time>2014-07-09T15:29:38Z</time>
      </trkpt>
      <trkpt lat="47.01301" lon="3.08731">
        <ele>192.4</ele>
        <time>2014-07-09T15:29:48Z</time>
      </trkpt>
      <trkpt lat="47.01301" lon="3.08732">
        <ele>192.4</ele>
        <time>2014-07-09T15:30:15Z</time>
      </trkpt>
      <trkpt lat="47.01301" lon="3.08733">
        <ele>191.92</ele>
        <time>2014-07-09T15:30:37Z</time>
      </trkpt>
      <trkpt lat="47.01302" lon="3.08733">
        <ele>191.92</ele>
        <time>2014-07-09T15:31:05Z</time>
      </trkpt>
      <trkpt lat="47.01301" lon="3.08731">
        <ele>191.92</ele>
        <time>2014-07-09T15:31:31Z</time>
      </trkpt>
      <trkpt lat="47.01302" lon="3.08732">
        <ele>191.44</ele>
        <time>2014-07-09T15:31:35Z</time>
      </trkpt>
      <trkpt lat="47.01308" lon="3.08724">
        <ele>191.44</ele>
        <time>2014-07-09T15:31:40Z</time>
      </trkpt>
      <trkpt lat="47.01324" lon="3.08658">
        <ele>191.44</ele>
        <time>2014-07-09T15:31:54Z</time>
      </trkpt>
      <trkpt lat="47.01333" lon="3.08583">
        <ele>191.92</ele>
        <time>2014-07-09T15:32:07Z</time>
      </trkpt>
      <trkpt lat="47.01325" lon="3.08502">
        <ele>193.36</ele>
        <time>2014-07-09T15:32:22Z</time>
      </trkpt>
      <trkpt lat="47.01316" lon="3.08429">
        <ele>194.8</ele>
        <time>2014-07-09T15:32:40Z</time>
      </trkpt>
      <trkpt lat="47.01308" lon="3.08352">
        <ele>196.25</ele>
        <time>2014-07-09T15:32:58Z</time>
      </trkpt>
      <trkpt lat="47.01298" lon="3.08275">
        <ele>196.73</ele>
        <time>2014-07-09T15:33:15Z</time>
      </trkpt>
      <trkpt lat="47.01284" lon="3.08169">
        <ele>195.28</ele>
        <time>2014-07-09T15:33:33Z</time>
      </trkpt>
      <trkpt lat="47.01269" lon="3.08058">
        <ele>191.92</ele>
        <time>2014-07-09T15:33:46Z</time>
      </trkpt>
      <trkpt lat="47.01256" lon="3.07959">
        <ele>188.56</ele>
        <time>2014-07-09T15:33:56Z</time>
      </trkpt>
      <trkpt lat="47.01254" lon="3.07949">
        <ele>188.08</ele>
        <time>2014-07-09T15:33:57Z</time>
      </trkpt>
      <trkpt lat="47.01243" lon="3.07868">
        <ele>187.11</ele>
        <time>2014-07-09T15:34:06Z</time>
      </trkpt>
      <trkpt lat="47.01244" lon="3.07847">
        <ele>187.11</ele>
        <time>2014-07-09T15:34:09Z</time>
      </trkpt>
      <trkpt lat="47.0124" lon="3.07819">
        <ele>186.63</ele>
        <time>2014-07-09T15:34:14Z</time>
      </trkpt>
      <trkpt lat="47.01243" lon="3.07813">
        <ele>186.63</ele>
        <time>2014-07-09T15:34:22Z</time>
      </trkpt>
      <trkpt lat="47.01245" lon="3.07817">
        <ele>186.63</ele>
        <time>2014-07-09T15:34:44Z</time>
      </trkpt>
      <trkpt lat="47.01244" lon="3.07817">
        <ele>186.15</ele>
        <time>2014-07-09T15:35:15Z</time>
      </trkpt>
      <trkpt lat="47.01247" lon="3.07817">
        <ele>186.15</ele>
        <time>2014-07-09T15:35:45Z</time>
      </trkpt>
      <trkpt lat="47.01248" lon="3.07816">
        <ele>186.15</ele>
        <time>2014-07-09T15:36:30Z</time>
      </trkpt>
      <trkpt lat="47.01245" lon="3.07815">
        <ele>185.67</ele>
        <time>2014-07-09T15:37:12Z</time>
      </trkpt>
      <trkpt lat="47.01247" lon="3.07814">
        <ele>185.19</ele>
        <time>2014-07-09T15:37:59Z</time>
      </trkpt>
      <trkpt lat="47.01246" lon="3.07814">
        <ele>185.19</ele>
        <time>2014-07-09T15:38:23Z</time>
      </trkpt>
      <trkpt lat="47.01245" lon="3.07814">
        <ele>185.19</ele>
        <time>2014-07-09T15:38:54Z</time>
      </trkpt>
      <trkpt lat="47.01246" lon="3.07814">
        <ele>185.19</ele>
        <time>2014-07-09T15:39:25Z</time>
      </trkpt>
      <trkpt lat="47.01248" lon="3.07815">
        <ele>184.71</ele>
        <time>2014-07-09T15:40:07Z</time>
      </trkpt>
      <trkpt lat="47.01246" lon="3.07816">
        <ele>184.71</ele>
        <time>2014-07-09T15:40:49Z</time>
      </trkpt>
      <trkpt lat="47.01246" lon="3.07815">
        <ele>184.23</ele>
        <time>2014-07-09T15:41:14Z</time>
      </trkpt>
      <trkpt lat="47.01244" lon="3.07813">
        <ele>184.23</ele>
        <time>2014-07-09T15:41:47Z</time>
      </trkpt>
      <trkpt lat="47.01246" lon="3.07815">
        <ele>184.23</ele>
        <time>2014-07-09T15:42:22Z</time>
      </trkpt>
      <trkpt lat="47.01244" lon="3.07813">
        <ele>183.75</ele>
        <time>2014-07-09T15:43:07Z</time>
      </trkpt>
      <trkpt lat="47.01246" lon="3.07816">
        <ele>183.75</ele>
        <time>2014-07-09T15:43:41Z</time>
      </trkpt>
      <trkpt lat="47.01246" lon="3.07816">
        <ele>183.75</ele>
        <time>2014-07-09T15:44:18Z</time>
      </trkpt>
      <trkpt lat="47.01245" lon="3.07814">
        <ele>183.27</ele>
        <time>2014-07-09T15:45:00Z</time>
      </trkpt>
      <trkpt lat="47.01246" lon="3.07814">
        <ele>183.27</ele>
        <time>2014-07-09T15:45:35Z</time>
      </trkpt>
      <trkpt lat="47.01245" lon="3.07813">
        <ele>183.27</ele>
        <time>2014-07-09T15:46:10Z</time>
      </trkpt>
      <trkpt lat="47.01245" lon="3.07814">
        <ele>182.79</ele>
        <time>2014-07-09T15:46:38Z</time>
      </trkpt>
      <trkpt lat="47.01243" lon="3.07811">
        <ele>182.79</ele>
        <time>2014-07-09T15:47:12Z</time>
      </trkpt>
      <trkpt lat="47.01239" lon="3.07814">
        <ele>182.79</ele>
        <time>2014-07-09T15:47:25Z</time>
      </trkpt>
      <trkpt lat="47.01239" lon="3.07814">
        <ele>182.79</ele>
        <time>2014-07-09T15:47:27Z</time>
      </trkpt>
      <trkpt lat="47.01237" lon="3.07804">
        <ele>182.31</ele>
        <time>2014-07-09T15:47:32Z</time>
      </trkpt>
      <trkpt lat="47.01237" lon="3.07746">
        <ele>182.79</ele>
        <time>2014-07-09T15:47:47Z</time>
      </trkpt>
      <trkpt lat="47.01238" lon="3.07672">
        <ele>184.23</ele>
        <time>2014-07-09T15:48:03Z</time>
      </trkpt>
      <trkpt lat="47.01238" lon="3.07592">
        <ele>184.71</ele>
        <time>2014-07-09T15:48:20Z</time>
      </trkpt>
      <trkpt lat="47.01234" lon="3.07526">
        <ele>184.71</ele>
        <time>2014-07-09T15:48:33Z</time>
      </trkpt>
      <trkpt lat="47.01235" lon="3.07434">
        <ele>184.71</ele>
        <time>2014-07-09T15:48:51Z</time>
      </trkpt>
      <trkpt lat="47.01235" lon="3.0732">
        <ele>184.23</ele>
        <time>2014-07-09T15:49:12Z</time>
      </trkpt>
      <trkpt lat="47.01233" lon="3.07208">
        <ele>184.23</ele>
        <time>2014-07-09T15:49:33Z</time>
      </trkpt>
      <trkpt lat="47.01232" lon="3.07113">
        <ele>184.71</ele>
        <time>2014-07-09T15:49:50Z</time>
      </trkpt>
      <trkpt lat="47.01235" lon="3.07065">
        <ele>184.23</ele>
        <time>2014-07-09T15:50:00Z</time>
      </trkpt>
      <trkpt lat="47.01247" lon="3.07069">
        <ele>183.27</ele>
        <time>2014-07-09T15:50:04Z</time>
      </trkpt>
      <trkpt lat="47.0131" lon="3.07109">
        <ele>183.27</ele>
        <time>2014-07-09T15:50:22Z</time>
      </trkpt>
      <trkpt lat="47.0137" lon="3.07134">
        <ele>183.27</ele>
        <time>2014-07-09T15:50:38Z</time>
      </trkpt>
      <trkpt lat="47.01459" lon="3.07161">
        <ele>183.27</ele>
        <time>2014-07-09T15:51:00Z</time>
      </trkpt>
      <trkpt lat="47.01539" lon="3.07181">
        <ele>183.27</ele>
        <time>2014-07-09T15:51:19Z</time>
      </trkpt>
      <trkpt lat="47.01596" lon="3.07146">
        <ele>183.27</ele>
        <time>2014-07-09T15:51:35Z</time>
      </trkpt>
      <trkpt lat="47.01643" lon="3.07112">
        <ele>182.79</ele>
        <time>2014-07-09T15:51:49Z</time>
      </trkpt>
      <trkpt lat="47.01646" lon="3.07108">
        <ele>183.27</ele>
        <time>2014-07-09T15:51:50Z</time>
      </trkpt>
      <trkpt lat="47.01652" lon="3.07092">
        <ele>182.79</ele>
        <time>2014-07-09T15:51:53Z</time>
      </trkpt>
      <trkpt lat="47.01687" lon="3.0703">
        <ele>182.79</ele>
        <time>2014-07-09T15:52:08Z</time>
      </trkpt>
      <trkpt lat="47.01742" lon="3.07019">
        <ele>182.79</ele>
        <time>2014-07-09T15:52:23Z</time>
      </trkpt>
      <trkpt lat="47.01808" lon="3.07006">
        <ele>182.31</ele>
        <time>2014-07-09T15:52:40Z</time>
      </trkpt>
      <trkpt lat="47.01892" lon="3.06991">
        <ele>182.31</ele>
        <time>2014-07-09T15:53:01Z</time>
      </trkpt>
      <trkpt lat="47.01976" lon="3.06975">
        <ele>181.83</ele>
        <time>2014-07-09T15:53:21Z</time>
      </trkpt>
      <trkpt lat="47.0206" lon="3.0696">
        <ele>181.83</ele>
        <time>2014-07-09T15:53:41Z</time>
      </trkpt>
      <trkpt lat="47.02145" lon="3.06944">
        <ele>181.83</ele>
        <time>2014-07-09T15:54:01Z</time>
      </trkpt>
      <trkpt lat="47.02222" lon="3.0693">
        <ele>181.83</ele>
        <time>2014-07-09T15:54:19Z</time>
      </trkpt>
      <trkpt lat="47.02332" lon="3.06909">
        <ele>181.35</ele>
        <time>2014-07-09T15:54:44Z</time>
      </trkpt>
      <trkpt lat="47.02405" lon="3.06896">
        <ele>181.35</ele>
        <time>2014-07-09T15:55:01Z</time>
      </trkpt>
      <trkpt lat="47.02488" lon="3.06882">
        <ele>180.87</ele>
        <time>2014-07-09T15:55:21Z</time>
      </trkpt>
      <trkpt lat="47.0258" lon="3.06887">
        <ele>180.38</ele>
        <time>2014-07-09T15:55:43Z</time>
      </trkpt>
      <trkpt lat="47.02663" lon="3.06896">
        <ele>180.38</ele>
        <time>2014-07-09T15:56:02Z</time>
      </trkpt>
      <trkpt lat="47.02752" lon="3.06907">
        <ele>180.38</ele>
        <time>2014-07-09T15:56:23Z</time>
      </trkpt>
      <trkpt lat="47.02808" lon="3.06913">
        <ele>179.9</ele>
        <time>2014-07-09T15:56:37Z</time>
      </trkpt>
      <trkpt lat="47.02845" lon="3.06933">
        <ele>180.38</ele>
        <time>2014-07-09T15:56:46Z</time>
      </trkpt>
      <trkpt lat="47.02866" lon="3.06934">
        <ele>180.38</ele>
        <time>2014-07-09T15:56:51Z</time>
      </trkpt>
      <trkpt lat="47.02944" lon="3.06888">
        <ele>179.9</ele>
        <time>2014-07-09T15:57:09Z</time>
      </trkpt>
      <trkpt lat="47.03" lon="3.06853">
        <ele>179.42</ele>
        <time>2014-07-09T15:57:23Z</time>
      </trkpt>
      <trkpt lat="47.03077" lon="3.06807">
        <ele>179.42</ele>
        <time>2014-07-09T15:57:42Z</time>
      </trkpt>
      <trkpt lat="47.03139" lon="3.06759">
        <ele>179.42</ele>
        <time>2014-07-09T15:57:58Z</time>
      </trkpt>
      <trkpt lat="47.03165" lon="3.06726">
        <ele>179.42</ele>
        <time>2014-07-09T15:58:06Z</time>
      </trkpt>
      <trkpt lat="47.03201" lon="3.06682">
        <ele>179.42</ele>
        <time>2014-07-09T15:58:17Z</time>
      </trkpt>
      <trkpt lat="47.03214" lon="3.06665">
        <ele>179.42</ele>
        <time>2014-07-09T15:58:21Z</time>
      </trkpt>
      <trkpt lat="47.0327" lon="3.06594">
        <ele>179.42</ele>
        <time>2014-07-09T15:58:39Z</time>
      </trkpt>
      <trkpt lat="47.03328" lon="3.06526">
        <ele>179.42</ele>
        <time>2014-07-09T15:58:57Z</time>
      </trkpt>
      <trkpt lat="47.03382" lon="3.06477">
        <ele>179.42</ele>
        <time>2014-07-09T15:59:13Z</time>
      </trkpt>
      <trkpt lat="47.03431" lon="3.06435">
        <ele>179.42</ele>
        <time>2014-07-09T15:59:27Z</time>
      </trkpt>
      <trkpt lat="47.03496" lon="3.06377">
        <ele>179.9</ele>
        <time>2014-07-09T15:59:46Z</time>
      </trkpt>
      <trkpt lat="47.03563" lon="3.06315">
        <ele>178.94</ele>
        <time>2014-07-09T16:00:05Z</time>
      </trkpt>
      <trkpt lat="47.03624" lon="3.06261">
        <ele>178.94</ele>
        <time>2014-07-09T16:00:22Z</time>
      </trkpt>
      <trkpt lat="47.0368" lon="3.0621">
        <ele>178.94</ele>
        <time>2014-07-09T16:00:38Z</time>
      </trkpt>
      <trkpt lat="47.03694" lon="3.06195">
        <ele>179.42</ele>
        <time>2014-07-09T16:00:42Z</time>
      </trkpt>
      <trkpt lat="47.03764" lon="3.06087">
        <ele>178.94</ele>
        <time>2014-07-09T16:01:06Z</time>
      </trkpt>
      <trkpt lat="47.03812" lon="3.06012">
        <ele>178.94</ele>
        <time>2014-07-09T16:01:23Z</time>
      </trkpt>
      <trkpt lat="47.03865" lon="3.05931">
        <ele>178.46</ele>
        <time>2014-07-09T16:01:42Z</time>
      </trkpt>
      <trkpt lat="47.0392" lon="3.05846">
        <ele>178.46</ele>
        <time>2014-07-09T16:02:01Z</time>
      </trkpt>
      <trkpt lat="47.03952" lon="3.05794">
        <ele>177.98</ele>
        <time>2014-07-09T16:02:12Z</time>
      </trkpt>
      <trkpt lat="47.03999" lon="3.05722">
        <ele>177.98</ele>
        <time>2014-07-09T16:02:28Z</time>
      </trkpt>
      <trkpt lat="47.04043" lon="3.05654">
        <ele>177.98</ele>
        <time>2014-07-09T16:02:44Z</time>
      </trkpt>
      <trkpt lat="47.04101" lon="3.05564">
        <ele>177.5</ele>
        <time>2014-07-09T16:03:05Z</time>
      </trkpt>
      <trkpt lat="47.04112" lon="3.05547">
        <ele>177.5</ele>
        <time>2014-07-09T16:03:09Z</time>
      </trkpt>
      <trkpt lat="47.04155" lon="3.05482">
        <ele>177.5</ele>
        <time>2014-07-09T16:03:25Z</time>
      </trkpt>
      <trkpt lat="47.04169" lon="3.05461">
        <ele>177.5</ele>
        <time>2014-07-09T16:03:30Z</time>
      </trkpt>
      <trkpt lat="47.04211" lon="3.05394">
        <ele>177.5</ele>
        <time>2014-07-09T16:03:46Z</time>
      </trkpt>
      <trkpt lat="47.04231" lon="3.0535">
        <ele>177.5</ele>
        <time>2014-07-09T16:04:01Z</time>
      </trkpt>
      <trkpt lat="47.04248" lon="3.05309">
        <ele>177.02</ele>
        <time>2014-07-09T16:04:13Z</time>
      </trkpt>
      <trkpt lat="47.04279" lon="3.05233">
        <ele>177.02</ele>
        <time>2014-07-09T16:04:30Z</time>
      </trkpt>
      <trkpt lat="47.04309" lon="3.05162">
        <ele>177.02</ele>
        <time>2014-07-09T16:04:45Z</time>
      </trkpt>
      <trkpt lat="47.04341" lon="3.05079">
        <ele>176.54</ele>
        <time>2014-07-09T16:05:01Z</time>
      </trkpt>
      <trkpt lat="47.04378" lon="3.04987">
        <ele>176.54</ele>
        <time>2014-07-09T16:05:19Z</time>
      </trkpt>
      <trkpt lat="47.04409" lon="3.04911">
        <ele>176.54</ele>
        <time>2014-07-09T16:05:34Z</time>
      </trkpt>
      <trkpt lat="47.04415" lon="3.04896">
        <ele>176.54</ele>
        <time>2014-07-09T16:05:37Z</time>
      </trkpt>
      <trkpt lat="47.04455" lon="3.048">
        <ele>176.06</ele>
        <time>2014-07-09T16:05:56Z</time>
      </trkpt>
      <trkpt lat="47.04492" lon="3.04709">
        <ele>175.58</ele>
        <time>2014-07-09T16:06:15Z</time>
      </trkpt>
      <trkpt lat="47.0453" lon="3.04614">
        <ele>175.58</ele>
        <time>2014-07-09T16:06:35Z</time>
      </trkpt>
      <trkpt lat="47.04564" lon="3.04534">
        <ele>176.06</ele>
        <time>2014-07-09T16:06:53Z</time>
      </trkpt>
      <trkpt lat="47.04603" lon="3.04436">
        <ele>176.06</ele>
        <time>2014-07-09T16:07:15Z</time>
      </trkpt>
      <trkpt lat="47.04637" lon="3.0435">
        <ele>176.06</ele>
        <time>2014-07-09T16:07:34Z</time>
      </trkpt>
      <trkpt lat="47.04679" lon="3.04252">
        <ele>175.58</ele>
        <time>2014-07-09T16:07:55Z</time>
      </trkpt>
      <trkpt lat="47.04723" lon="3.04157">
        <ele>175.1</ele>
        <time>2014-07-09T16:08:16Z</time>
      </trkpt>
      <trkpt lat="47.04758" lon="3.04079">
        <ele>176.06</ele>
        <time>2014-07-09T16:08:34Z</time>
      </trkpt>
      <trkpt lat="47.04792" lon="3.04007">
        <ele>175.1</ele>
        <time>2014-07-09T16:08:51Z</time>
      </trkpt>
      <trkpt lat="47.04835" lon="3.03953">
        <ele>175.1</ele>
        <time>2014-07-09T16:09:07Z</time>
      </trkpt>
      <trkpt lat="47.04879" lon="3.03901">
        <ele>174.62</ele>
        <time>2014-07-09T16:09:23Z</time>
      </trkpt>
      <trkpt lat="47.04936" lon="3.03833">
        <ele>174.62</ele>
        <time>2014-07-09T16:09:43Z</time>
      </trkpt>
      <trkpt lat="47.04947" lon="3.03819">
        <ele>174.62</ele>
        <time>2014-07-09T16:09:49Z</time>
      </trkpt>
      <trkpt lat="47.0495" lon="3.03816">
        <ele>174.62</ele>
        <time>2014-07-09T16:10:01Z</time>
      </trkpt>
      <trkpt lat="47.04951" lon="3.03819">
        <ele>174.62</ele>
        <time>2014-07-09T16:10:31Z</time>
      </trkpt>
      <trkpt lat="47.0495" lon="3.0382">
        <ele>174.62</ele>
        <time>2014-07-09T16:10:56Z</time>
      </trkpt>
      <trkpt lat="47.0495" lon="3.03817">
        <ele>174.62</ele>
        <time>2014-07-09T16:11:21Z</time>
      </trkpt>
      <trkpt lat="47.04951" lon="3.03819">
        <ele>174.14</ele>
        <time>2014-07-09T16:11:53Z</time>
      </trkpt>
      <trkpt lat="47.04952" lon="3.0382">
        <ele>174.14</ele>
        <time>2014-07-09T16:12:34Z</time>
      </trkpt>
      <trkpt lat="47.04948" lon="3.03819">
        <ele>174.14</ele>
        <time>2014-07-09T16:13:26Z</time>
      </trkpt>
      <trkpt lat="47.0495" lon="3.03818">
        <ele>174.14</ele>
        <time>2014-07-09T16:14:01Z</time>
      </trkpt>
      <trkpt lat="47.04952" lon="3.03816">
        <ele>174.14</ele>
        <time>2014-07-09T16:14:37Z</time>
      </trkpt>
      <trkpt lat="47.04952" lon="3.03815">
        <ele>173.66</ele>
        <time>2014-07-09T16:14:56Z</time>
      </trkpt>
      <trkpt lat="47.04952" lon="3.03814">
        <ele>173.66</ele>
        <time>2014-07-09T16:14:57Z</time>
      </trkpt>
      <trkpt lat="47.0497" lon="3.03782">
        <ele>174.14</ele>
        <time>2014-07-09T16:15:11Z</time>
      </trkpt>
      <trkpt lat="47.05005" lon="3.03713">
        <ele>174.14</ele>
        <time>2014-07-09T16:15:31Z</time>
      </trkpt>
      <trkpt lat="47.05046" lon="3.03632">
        <ele>174.14</ele>
        <time>2014-07-09T16:15:52Z</time>
      </trkpt>
      <trkpt lat="47.05081" lon="3.03566">
        <ele>173.66</ele>
        <time>2014-07-09T16:16:09Z</time>
      </trkpt>
      <trkpt lat="47.05126" lon="3.035">
        <ele>173.66</ele>
        <time>2014-07-09T16:16:27Z</time>
      </trkpt>
      <trkpt lat="47.05158" lon="3.0345">
        <ele>173.66</ele>
        <time>2014-07-09T16:16:42Z</time>
      </trkpt>
      <trkpt lat="47.05193" lon="3.03381">
        <ele>173.66</ele>
        <time>2014-07-09T16:17:00Z</time>
      </trkpt>
      <trkpt lat="47.05232" lon="3.033">
        <ele>173.66</ele>
        <time>2014-07-09T16:17:19Z</time>
      </trkpt>
      <trkpt lat="47.05275" lon="3.03184">
        <ele>173.66</ele>
        <time>2014-07-09T16:17:43Z</time>
      </trkpt>
      <trkpt lat="47.05316" lon="3.03098">
        <ele>173.66</ele>
        <time>2014-07-09T16:18:02Z</time>
      </trkpt>
      <trkpt lat="47.05363" lon="3.0301">
        <ele>173.66</ele>
        <time>2014-07-09T16:18:22Z</time>
      </trkpt>
      <trkpt lat="47.0541" lon="3.0293">
        <ele>173.66</ele>
        <time>2014-07-09T16:18:40Z</time>
      </trkpt>
      <trkpt lat="47.05456" lon="3.02849">
        <ele>173.66</ele>
        <time>2014-07-09T16:18:58Z</time>
      </trkpt>
      <trkpt lat="47.05492" lon="3.02788">
        <ele>174.14</ele>
        <time>2014-07-09T16:19:13Z</time>
      </trkpt>
      <trkpt lat="47.05527" lon="3.02729">
        <ele>173.66</ele>
        <time>2014-07-09T16:19:31Z</time>
      </trkpt>
      <trkpt lat="47.0553" lon="3.02724">
        <ele>173.66</ele>
        <time>2014-07-09T16:19:34Z</time>
      </trkpt>
      <trkpt lat="47.05526" lon="3.02722">
        <ele>173.66</ele>
        <time>2014-07-09T16:19:47Z</time>
      </trkpt>
      <trkpt lat="47.05525" lon="3.02725">
        <ele>173.66</ele>
        <time>2014-07-09T16:20:10Z</time>
      </trkpt>
      <trkpt lat="47.05518" lon="3.02738">
        <ele>173.17</ele>
        <time>2014-07-09T16:20:24Z</time>
      </trkpt>
      <trkpt lat="47.05521" lon="3.02738">
        <ele>173.66</ele>
        <time>2014-07-09T16:20:42Z</time>
      </trkpt>
      <trkpt lat="47.05527" lon="3.02721">
        <ele>173.66</ele>
        <time>2014-07-09T16:20:54Z</time>
      </trkpt>
      <trkpt lat="47.05525" lon="3.02725">
        <ele>173.66</ele>
        <time>2014-07-09T16:21:25Z</time>
      </trkpt>
      <trkpt lat="47.05526" lon="3.02724">
        <ele>173.66</ele>
        <time>2014-07-09T16:21:48Z</time>
      </trkpt>
      <trkpt lat="47.05528" lon="3.02723">
        <ele>173.66</ele>
        <time>2014-07-09T16:21:51Z</time>
      </trkpt>
      <trkpt lat="47.05538" lon="3.02717">
        <ele>173.17</ele>
        <time>2014-07-09T16:21:56Z</time>
      </trkpt>
      <trkpt lat="47.05553" lon="3.02698">
        <ele>172.69</ele>
        <time>2014-07-09T16:22:02Z</time>
      </trkpt>
      <trkpt lat="47.05559" lon="3.0269">
        <ele>172.21</ele>
        <time>2014-07-09T16:22:04Z</time>
      </trkpt>
      <trkpt lat="47.05592" lon="3.0265">
        <ele>170.77</ele>
        <time>2014-07-09T16:22:13Z</time>
      </trkpt>
      <trkpt lat="47.05631" lon="3.02603">
        <ele>170.77</ele>
        <time>2014-07-09T16:22:28Z</time>
      </trkpt>
      <trkpt lat="47.05665" lon="3.02561">
        <ele>170.77</ele>
        <time>2014-07-09T16:22:42Z</time>
      </trkpt>
      <trkpt lat="47.05698" lon="3.02524">
        <ele>170.77</ele>
        <time>2014-07-09T16:22:56Z</time>
      </trkpt>
      <trkpt lat="47.05738" lon="3.02477">
        <ele>170.77</ele>
        <time>2014-07-09T16:23:11Z</time>
      </trkpt>
      <trkpt lat="47.05776" lon="3.02428">
        <ele>170.77</ele>
        <time>2014-07-09T16:23:26Z</time>
      </trkpt>
      <trkpt lat="47.05791" lon="3.02416">
        <ele>170.77</ele>
        <time>2014-07-09T16:23:32Z</time>
      </trkpt>
      <trkpt lat="47.05804" lon="3.02413">
        <ele>170.77</ele>
        <time>2014-07-09T16:23:37Z</time>
      </trkpt>
      <trkpt lat="47.05846" lon="3.02361">
        <ele>168.85</ele>
        <time>2014-07-09T16:23:49Z</time>
      </trkpt>
      <trkpt lat="47.0587" lon="3.02319">
        <ele>170.77</ele>
        <time>2014-07-09T16:24:02Z</time>
      </trkpt>
      <trkpt lat="47.05871" lon="3.02314">
        <ele>171.25</ele>
        <time>2014-07-09T16:24:04Z</time>
      </trkpt>
      <trkpt lat="47.05919" lon="3.02261">
        <ele>170.77</ele>
        <time>2014-07-09T16:24:22Z</time>
      </trkpt>
      <trkpt lat="47.05969" lon="3.02197">
        <ele>170.77</ele>
        <time>2014-07-09T16:24:41Z</time>
      </trkpt>
      <trkpt lat="47.06016" lon="3.02136">
        <ele>171.25</ele>
        <time>2014-07-09T16:24:58Z</time>
      </trkpt>
      <trkpt lat="47.06022" lon="3.02128">
        <ele>171.25</ele>
        <time>2014-07-09T16:25:00Z</time>
      </trkpt>
      <trkpt lat="47.06076" lon="3.02074">
        <ele>171.25</ele>
        <time>2014-07-09T16:25:16Z</time>
      </trkpt>
      <trkpt lat="47.06127" lon="3.02005">
        <ele>171.73</ele>
        <time>2014-07-09T16:25:34Z</time>
      </trkpt>
      <trkpt lat="47.06165" lon="3.01963">
        <ele>171.73</ele>
        <time>2014-07-09T16:25:47Z</time>
      </trkpt>
      <trkpt lat="47.06212" lon="3.01908">
        <ele>171.73</ele>
        <time>2014-07-09T16:26:03Z</time>
      </trkpt>
      <trkpt lat="47.06257" lon="3.01861">
        <ele>171.73</ele>
        <time>2014-07-09T16:26:19Z</time>
      </trkpt>
      <trkpt lat="47.06298" lon="3.01832">
        <ele>171.73</ele>
        <time>2014-07-09T16:26:34Z</time>
      </trkpt>
      <trkpt lat="47.06325" lon="3.01811">
        <ele>171.73</ele>
        <time>2014-07-09T16:26:47Z</time>
      </trkpt>
      <trkpt lat="47.06355" lon="3.01794">
        <ele>172.21</ele>
        <time>2014-07-09T16:27:03Z</time>
      </trkpt>
      <trkpt lat="47.0639" lon="3.01771">
        <ele>172.21</ele>
        <time>2014-07-09T16:27:17Z</time>
      </trkpt>
      <trkpt lat="47.06436" lon="3.01738">
        <ele>172.21</ele>
        <time>2014-07-09T16:27:32Z</time>
      </trkpt>
      <trkpt lat="47.06481" lon="3.01708">
        <ele>172.21</ele>
        <time>2014-07-09T16:27:46Z</time>
      </trkpt>
      <trkpt lat="47.06535" lon="3.01666">
        <ele>171.25</ele>
        <time>2014-07-09T16:28:03Z</time>
      </trkpt>
      <trkpt lat="47.06543" lon="3.0166">
        <ele>171.25</ele>
        <time>2014-07-09T16:28:06Z</time>
      </trkpt>
      <trkpt lat="47.0656" lon="3.01658">
        <ele>170.77</ele>
        <time>2014-07-09T16:28:13Z</time>
      </trkpt>
      <trkpt lat="47.06605" lon="3.01632">
        <ele>170.77</ele>
        <time>2014-07-09T16:28:27Z</time>
      </trkpt>
      <trkpt lat="47.06659" lon="3.01596">
        <ele>170.77</ele>
        <time>2014-07-09T16:28:44Z</time>
      </trkpt>
      <trkpt lat="47.06676" lon="3.01591">
        <ele>170.77</ele>
        <time>2014-07-09T16:28:55Z</time>
      </trkpt>
      <trkpt lat="47.06676" lon="3.01591">
        <ele>170.29</ele>
        <time>2014-07-09T16:29:07Z</time>
      </trkpt>
      <trkpt lat="47.06706" lon="3.01577">
        <ele>169.81</ele>
        <time>2014-07-09T16:29:21Z</time>
      </trkpt>
      <trkpt lat="47.06739" lon="3.0156">
        <ele>170.29</ele>
        <time>2014-07-09T16:29:36Z</time>
      </trkpt>
      <trkpt lat="47.0675" lon="3.01555">
        <ele>170.29</ele>
        <time>2014-07-09T16:29:41Z</time>
      </trkpt>
      <trkpt lat="47.0675" lon="3.01539">
        <ele>170.29</ele>
        <time>2014-07-09T16:29:47Z</time>
      </trkpt>
      <trkpt lat="47.06747" lon="3.0153">
        <ele>170.77</ele>
        <time>2014-07-09T16:29:50Z</time>
      </trkpt>
      <trkpt lat="47.06745" lon="3.01524">
        <ele>170.77</ele>
        <time>2014-07-09T16:30:05Z</time>
      </trkpt>
      <trkpt lat="47.06748" lon="3.01522">
        <ele>171.25</ele>
        <time>2014-07-09T16:30:19Z</time>
      </trkpt>
      <trkpt lat="47.06751" lon="3.0152">
        <ele>171.25</ele>
        <time>2014-07-09T16:30:23Z</time>
      </trkpt>
      <trkpt lat="47.06785" lon="3.01497">
        <ele>170.77</ele>
        <time>2014-07-09T16:30:38Z</time>
      </trkpt>
      <trkpt lat="47.06835" lon="3.01458">
        <ele>170.77</ele>
        <time>2014-07-09T16:30:55Z</time>
      </trkpt>
      <trkpt lat="47.06873" lon="3.01422">
        <ele>171.25</ele>
        <time>2014-07-09T16:31:11Z</time>
      </trkpt>
      <trkpt lat="47.06908" lon="3.01384">
        <ele>170.77</ele>
        <time>2014-07-09T16:31:24Z</time>
      </trkpt>
      <trkpt lat="47.06937" lon="3.01363">
        <ele>170.77</ele>
        <time>2014-07-09T16:31:38Z</time>
      </trkpt>
      <trkpt lat="47.0694" lon="3.01359">
        <ele>170.77</ele>
        <time>2014-07-09T16:31:49Z</time>
      </trkpt>
      <trkpt lat="47.06939" lon="3.01358">
        <ele>170.77</ele>
        <time>2014-07-09T16:32:14Z</time>
      </trkpt>
      <trkpt lat="47.0694" lon="3.01359">
        <ele>170.77</ele>
        <time>2014-07-09T16:32:41Z</time>
      </trkpt>
      <trkpt lat="47.0694" lon="3.0136">
        <ele>170.29</ele>
        <time>2014-07-09T16:33:12Z</time>
      </trkpt>
      <trkpt lat="47.06942" lon="3.01361">
        <ele>170.29</ele>
        <time>2014-07-09T16:33:40Z</time>
      </trkpt>
      <trkpt lat="47.0694" lon="3.01361">
        <ele>170.29</ele>
        <time>2014-07-09T16:34:12Z</time>
      </trkpt>
      <trkpt lat="47.06939" lon="3.01358">
        <ele>170.29</ele>
        <time>2014-07-09T16:34:48Z</time>
      </trkpt>
      <trkpt lat="47.06941" lon="3.01361">
        <ele>170.29</ele>
        <time>2014-07-09T16:35:12Z</time>
      </trkpt>
      <trkpt lat="47.06944" lon="3.01357">
        <ele>170.29</ele>
        <time>2014-07-09T16:35:31Z</time>
      </trkpt>
      <trkpt lat="47.06944" lon="3.01357">
        <ele>170.77</ele>
        <time>2014-07-09T16:35:32Z</time>
      </trkpt>
      <trkpt lat="47.06945" lon="3.01356">
        <ele>170.77</ele>
        <time>2014-07-09T16:35:34Z</time>
      </trkpt>
      <trkpt lat="47.06978" lon="3.01341">
        <ele>171.25</ele>
        <time>2014-07-09T16:35:48Z</time>
      </trkpt>
      <trkpt lat="47.0703" lon="3.01329">
        <ele>171.73</ele>
        <time>2014-07-09T16:36:05Z</time>
      </trkpt>
      <trkpt lat="47.07082" lon="3.01302">
        <ele>170.77</ele>
        <time>2014-07-09T16:36:19Z</time>
      </trkpt>
      <trkpt lat="47.07144" lon="3.01259">
        <ele>170.29</ele>
        <time>2014-07-09T16:36:35Z</time>
      </trkpt>
      <trkpt lat="47.07152" lon="3.01254">
        <ele>170.29</ele>
        <time>2014-07-09T16:36:37Z</time>
      </trkpt>
      <trkpt lat="47.07214" lon="3.01215">
        <ele>170.77</ele>
        <time>2014-07-09T16:36:54Z</time>
      </trkpt>
      <trkpt lat="47.07231" lon="3.01205">
        <ele>170.77</ele>
        <time>2014-07-09T16:36:59Z</time>
      </trkpt>
      <trkpt lat="47.07242" lon="3.01208">
        <ele>170.77</ele>
        <time>2014-07-09T16:37:03Z</time>
      </trkpt>
      <trkpt lat="47.0725" lon="3.01215">
        <ele>171.25</ele>
        <time>2014-07-09T16:37:08Z</time>
      </trkpt>
      <trkpt lat="47.07255" lon="3.01215">
        <ele>171.25</ele>
        <time>2014-07-09T16:37:24Z</time>
      </trkpt>
      <trkpt lat="47.07255" lon="3.01215">
        <ele>171.25</ele>
        <time>2014-07-09T16:37:25Z</time>
      </trkpt>
      <trkpt lat="47.0726" lon="3.01221">
        <ele>171.25</ele>
        <time>2014-07-09T16:37:29Z</time>
      </trkpt>
      <trkpt lat="47.07302" lon="3.01249">
        <ele>171.73</ele>
        <time>2014-07-09T16:37:45Z</time>
      </trkpt>
      <trkpt lat="47.07368" lon="3.01292">
        <ele>171.25</ele>
        <time>2014-07-09T16:38:04Z</time>
      </trkpt>
      <trkpt lat="47.07401" lon="3.01313">
        <ele>171.25</ele>
        <time>2014-07-09T16:38:13Z</time>
      </trkpt>
      <trkpt lat="47.07408" lon="3.01318">
        <ele>171.73</ele>
        <time>2014-07-09T16:38:15Z</time>
      </trkpt>
      <trkpt lat="47.07474" lon="3.0136">
        <ele>171.73</ele>
        <time>2014-07-09T16:38:32Z</time>
      </trkpt>
      <trkpt lat="47.07547" lon="3.01405">
        <ele>172.21</ele>
        <time>2014-07-09T16:38:51Z</time>
      </trkpt>
      <trkpt lat="47.07617" lon="3.0145">
        <ele>171.73</ele>
        <time>2014-07-09T16:39:10Z</time>
      </trkpt>
      <trkpt lat="47.07704" lon="3.01506">
        <ele>171.25</ele>
        <time>2014-07-09T16:39:32Z</time>
      </trkpt>
      <trkpt lat="47.07766" lon="3.01544">
        <ele>171.25</ele>
        <time>2014-07-09T16:39:49Z</time>
      </trkpt>
      <trkpt lat="47.07811" lon="3.01572">
        <ele>171.25</ele>
        <time>2014-07-09T16:40:00Z</time>
      </trkpt>
      <trkpt lat="47.0789" lon="3.01616">
        <ele>170.77</ele>
        <time>2014-07-09T16:40:20Z</time>
      </trkpt>
      <trkpt lat="47.0798" lon="3.01661">
        <ele>170.29</ele>
        <time>2014-07-09T16:40:42Z</time>
      </trkpt>
      <trkpt lat="47.08039" lon="3.01713">
        <ele>170.77</ele>
        <time>2014-07-09T16:40:59Z</time>
      </trkpt>
      <trkpt lat="47.08114" lon="3.01784">
        <ele>170.77</ele>
        <time>2014-07-09T16:41:20Z</time>
      </trkpt>
      <trkpt lat="47.08187" lon="3.01859">
        <ele>171.25</ele>
        <time>2014-07-09T16:41:40Z</time>
      </trkpt>
      <trkpt lat="47.08255" lon="3.01948">
        <ele>170.77</ele>
        <time>2014-07-09T16:42:02Z</time>
      </trkpt>
      <trkpt lat="47.08313" lon="3.02022">
        <ele>169.81</ele>
        <time>2014-07-09T16:42:20Z</time>
      </trkpt>
      <trkpt lat="47.08375" lon="3.02098">
        <ele>169.81</ele>
        <time>2014-07-09T16:42:39Z</time>
      </trkpt>
      <trkpt lat="47.08451" lon="3.02186">
        <ele>170.29</ele>
        <time>2014-07-09T16:43:02Z</time>
      </trkpt>
      <trkpt lat="47.08535" lon="3.02266">
        <ele>170.29</ele>
        <time>2014-07-09T16:43:24Z</time>
      </trkpt>
      <trkpt lat="47.08617" lon="3.02327">
        <ele>170.29</ele>
        <time>2014-07-09T16:43:45Z</time>
      </trkpt>
      <trkpt lat="47.0867" lon="3.02349">
        <ele>170.29</ele>
        <time>2014-07-09T16:43:58Z</time>
      </trkpt>
      <trkpt lat="47.08747" lon="3.02381">
        <ele>170.29</ele>
        <time>2014-07-09T16:44:17Z</time>
      </trkpt>
      <trkpt lat="47.08837" lon="3.02417">
        <ele>170.29</ele>
        <time>2014-07-09T16:44:39Z</time>
      </trkpt>
      <trkpt lat="47.08853" lon="3.02421">
        <ele>170.77</ele>
        <time>2014-07-09T16:44:43Z</time>
      </trkpt>
      <trkpt lat="47.08922" lon="3.02438">
        <ele>170.29</ele>
        <time>2014-07-09T16:45:00Z</time>
      </trkpt>
      <trkpt lat="47.09003" lon="3.02458">
        <ele>169.81</ele>
        <time>2014-07-09T16:45:19Z</time>
      </trkpt>
      <trkpt lat="47.09033" lon="3.02466">
        <ele>169.33</ele>
        <time>2014-07-09T16:45:26Z</time>
      </trkpt>
      <trkpt lat="47.09116" lon="3.02486">
        <ele>169.81</ele>
        <time>2014-07-09T16:45:46Z</time>
      </trkpt>
      <trkpt lat="47.09205" lon="3.02503">
        <ele>169.81</ele>
        <time>2014-07-09T16:46:07Z</time>
      </trkpt>
      <trkpt lat="47.09268" lon="3.02504">
        <ele>170.77</ele>
        <time>2014-07-09T16:46:24Z</time>
      </trkpt>
      <trkpt lat="47.09337" lon="3.02503">
        <ele>169.81</ele>
        <time>2014-07-09T16:46:42Z</time>
      </trkpt>
      <trkpt lat="47.09409" lon="3.02503">
        <ele>169.33</ele>
        <time>2014-07-09T16:46:59Z</time>
      </trkpt>
      <trkpt lat="47.09481" lon="3.02503">
        <ele>169.33</ele>
        <time>2014-07-09T16:47:17Z</time>
      </trkpt>
      <trkpt lat="47.09555" lon="3.02503">
        <ele>169.33</ele>
        <time>2014-07-09T16:47:35Z</time>
      </trkpt>
      <trkpt lat="47.09642" lon="3.02504">
        <ele>169.33</ele>
        <time>2014-07-09T16:47:56Z</time>
      </trkpt>
      <trkpt lat="47.09654" lon="3.02504">
        <ele>169.33</ele>
        <time>2014-07-09T16:47:59Z</time>
      </trkpt>
      <trkpt lat="47.09734" lon="3.02504">
        <ele>168.85</ele>
        <time>2014-07-09T16:48:18Z</time>
      </trkpt>
      <trkpt lat="47.09815" lon="3.02504">
        <ele>169.33</ele>
        <time>2014-07-09T16:48:37Z</time>
      </trkpt>
      <trkpt lat="47.09891" lon="3.02504">
        <ele>169.33</ele>
        <time>2014-07-09T16:48:55Z</time>
      </trkpt>
      <trkpt lat="47.09971" lon="3.02503">
        <ele>168.85</ele>
        <time>2014-07-09T16:49:14Z</time>
      </trkpt>
      <trkpt lat="47.10005" lon="3.02503">
        <ele>168.85</ele>
        <time>2014-07-09T16:49:22Z</time>
      </trkpt>
      <trkpt lat="47.10083" lon="3.02502">
        <ele>168.85</ele>
        <time>2014-07-09T16:49:41Z</time>
      </trkpt>
      <trkpt lat="47.10156" lon="3.02502">
        <ele>168.85</ele>
        <time>2014-07-09T16:49:58Z</time>
      </trkpt>
      <trkpt lat="47.10226" lon="3.02502">
        <ele>168.85</ele>
        <time>2014-07-09T16:50:15Z</time>
      </trkpt>
      <trkpt lat="47.10288" lon="3.02502">
        <ele>168.85</ele>
        <time>2014-07-09T16:50:30Z</time>
      </trkpt>
      <trkpt lat="47.10347" lon="3.02501">
        <ele>168.85</ele>
        <time>2014-07-09T16:50:45Z</time>
      </trkpt>
      <trkpt lat="47.10412" lon="3.025">
        <ele>168.37</ele>
        <time>2014-07-09T16:51:01Z</time>
      </trkpt>
      <trkpt lat="47.10474" lon="3.025">
        <ele>168.85</ele>
        <time>2014-07-09T16:51:17Z</time>
      </trkpt>
      <trkpt lat="47.1056" lon="3.02501">
        <ele>167.89</ele>
        <time>2014-07-09T16:51:38Z</time>
      </trkpt>
      <trkpt lat="47.10625" lon="3.02502">
        <ele>168.85</ele>
        <time>2014-07-09T16:51:53Z</time>
      </trkpt>
      <trkpt lat="47.10703" lon="3.02502">
        <ele>168.85</ele>
        <time>2014-07-09T16:52:11Z</time>
      </trkpt>
      <trkpt lat="47.10775" lon="3.02496">
        <ele>168.85</ele>
        <time>2014-07-09T16:52:29Z</time>
      </trkpt>
      <trkpt lat="47.10828" lon="3.02495">
        <ele>168.85</ele>
        <time>2014-07-09T16:52:42Z</time>
      </trkpt>
      <trkpt lat="47.10868" lon="3.02493">
        <ele>168.85</ele>
        <time>2014-07-09T16:52:52Z</time>
      </trkpt>
      <trkpt lat="47.10941" lon="3.02489">
        <ele>169.33</ele>
        <time>2014-07-09T16:53:10Z</time>
      </trkpt>
      <trkpt lat="47.11009" lon="3.02487">
        <ele>168.85</ele>
        <time>2014-07-09T16:53:26Z</time>
      </trkpt>
      <trkpt lat="47.11088" lon="3.02484">
        <ele>168.85</ele>
        <time>2014-07-09T16:53:44Z</time>
      </trkpt>
      <trkpt lat="47.11157" lon="3.02483">
        <ele>168.85</ele>
        <time>2014-07-09T16:54:02Z</time>
      </trkpt>
      <trkpt lat="47.11223" lon="3.0248">
        <ele>168.85</ele>
        <time>2014-07-09T16:54:19Z</time>
      </trkpt>
      <trkpt lat="47.11295" lon="3.02477">
        <ele>168.85</ele>
        <time>2014-07-09T16:54:37Z</time>
      </trkpt>
      <trkpt lat="47.11371" lon="3.02474">
        <ele>168.85</ele>
        <time>2014-07-09T16:54:56Z</time>
      </trkpt>
      <trkpt lat="47.11454" lon="3.02473">
        <ele>168.37</ele>
        <time>2014-07-09T16:55:16Z</time>
      </trkpt>
      <trkpt lat="47.1154" lon="3.02467">
        <ele>168.37</ele>
        <time>2014-07-09T16:55:37Z</time>
      </trkpt>
      <trkpt lat="47.11613" lon="3.02463">
        <ele>168.37</ele>
        <time>2014-07-09T16:55:55Z</time>
      </trkpt>
      <trkpt lat="47.11684" lon="3.0246">
        <ele>168.37</ele>
        <time>2014-07-09T16:56:12Z</time>
      </trkpt>
      <trkpt lat="47.11764" lon="3.02457">
        <ele>167.89</ele>
        <time>2014-07-09T16:56:32Z</time>
      </trkpt>
      <trkpt lat="47.11853" lon="3.02444">
        <ele>167.89</ele>
        <time>2014-07-09T16:56:54Z</time>
      </trkpt>
      <trkpt lat="47.11932" lon="3.02433">
        <ele>167.89</ele>
        <time>2014-07-09T16:57:14Z</time>
      </trkpt>
      <trkpt lat="47.12006" lon="3.02421">
        <ele>167.89</ele>
        <time>2014-07-09T16:57:32Z</time>
      </trkpt>
      <trkpt lat="47.12065" lon="3.02413">
        <ele>167.89</ele>
        <time>2014-07-09T16:57:48Z</time>
      </trkpt>
      <trkpt lat="47.12112" lon="3.02405">
        <ele>167.89</ele>
        <time>2014-07-09T16:58:01Z</time>
      </trkpt>
      <trkpt lat="47.12171" lon="3.02396">
        <ele>167.89</ele>
        <time>2014-07-09T16:58:17Z</time>
      </trkpt>
      <trkpt lat="47.12248" lon="3.02384">
        <ele>167.41</ele>
        <time>2014-07-09T16:58:37Z</time>
      </trkpt>
      <trkpt lat="47.12322" lon="3.02372">
        <ele>167.89</ele>
        <time>2014-07-09T16:58:56Z</time>
      </trkpt>
      <trkpt lat="47.12405" lon="3.02358">
        <ele>167.41</ele>
        <time>2014-07-09T16:59:17Z</time>
      </trkpt>
      <trkpt lat="47.12475" lon="3.02347">
        <ele>167.41</ele>
        <time>2014-07-09T16:59:35Z</time>
      </trkpt>
      <trkpt lat="47.12551" lon="3.02336">
        <ele>167.41</ele>
        <time>2014-07-09T16:59:54Z</time>
      </trkpt>
      <trkpt lat="47.12636" lon="3.02322">
        <ele>166.93</ele>
        <time>2014-07-09T17:00:15Z</time>
      </trkpt>
      <trkpt lat="47.12719" lon="3.02309">
        <ele>166.93</ele>
        <time>2014-07-09T17:00:36Z</time>
      </trkpt>
      <trkpt lat="47.12788" lon="3.02298">
        <ele>166.93</ele>
        <time>2014-07-09T17:00:53Z</time>
      </trkpt>
      <trkpt lat="47.12855" lon="3.02288">
        <ele>166.93</ele>
        <time>2014-07-09T17:01:10Z</time>
      </trkpt>
      <trkpt lat="47.12917" lon="3.02278">
        <ele>166.93</ele>
        <time>2014-07-09T17:01:25Z</time>
      </trkpt>
      <trkpt lat="47.12933" lon="3.02271">
        <ele>166.93</ele>
        <time>2014-07-09T17:01:29Z</time>
      </trkpt>
      <trkpt lat="47.13005" lon="3.02208">
        <ele>166.93</ele>
        <time>2014-07-09T17:01:49Z</time>
      </trkpt>
      <trkpt lat="47.13061" lon="3.02158">
        <ele>166.93</ele>
        <time>2014-07-09T17:02:05Z</time>
      </trkpt>
      <trkpt lat="47.13125" lon="3.021">
        <ele>166.93</ele>
        <time>2014-07-09T17:02:24Z</time>
      </trkpt>
      <trkpt lat="47.13183" lon="3.02049">
        <ele>166.93</ele>
        <time>2014-07-09T17:02:40Z</time>
      </trkpt>
      <trkpt lat="47.13249" lon="3.01991">
        <ele>166.93</ele>
        <time>2014-07-09T17:02:58Z</time>
      </trkpt>
      <trkpt lat="47.13325" lon="3.01922">
        <ele>166.45</ele>
        <time>2014-07-09T17:03:19Z</time>
      </trkpt>
      <trkpt lat="47.13404" lon="3.01853">
        <ele>166.45</ele>
        <time>2014-07-09T17:03:40Z</time>
      </trkpt>
      <trkpt lat="47.13465" lon="3.01797">
        <ele>166.45</ele>
        <time>2014-07-09T17:03:57Z</time>
      </trkpt>
      <trkpt lat="47.13537" lon="3.01734">
        <ele>166.93</ele>
        <time>2014-07-09T17:04:16Z</time>
      </trkpt>
      <trkpt lat="47.136" lon="3.01678">
        <ele>166.45</ele>
        <time>2014-07-09T17:04:34Z</time>
      </trkpt>
      <trkpt lat="47.13672" lon="3.01642">
        <ele>166.45</ele>
        <time>2014-07-09T17:04:53Z</time>
      </trkpt>
      <trkpt lat="47.13749" lon="3.01611">
        <ele>166.45</ele>
        <time>2014-07-09T17:05:11Z</time>
      </trkpt>
      <trkpt lat="47.13832" lon="3.01578">
        <ele>167.41</ele>
        <time>2014-07-09T17:05:31Z</time>
      </trkpt>
      <trkpt lat="47.13911" lon="3.01543">
        <ele>166.45</ele>
        <time>2014-07-09T17:05:50Z</time>
      </trkpt>
      <trkpt lat="47.13965" lon="3.01521">
        <ele>166.45</ele>
        <time>2014-07-09T17:06:03Z</time>
      </trkpt>
      <trkpt lat="47.14043" lon="3.01489">
        <ele>166.93</ele>
        <time>2014-07-09T17:06:22Z</time>
      </trkpt>
      <trkpt lat="47.14121" lon="3.01457">
        <ele>166.45</ele>
        <time>2014-07-09T17:06:41Z</time>
      </trkpt>
      <trkpt lat="47.14193" lon="3.01444">
        <ele>166.45</ele>
        <time>2014-07-09T17:06:59Z</time>
      </trkpt>
      <trkpt lat="47.14281" lon="3.01453">
        <ele>166.45</ele>
        <time>2014-07-09T17:07:20Z</time>
      </trkpt>
      <trkpt lat="47.1437" lon="3.01461">
        <ele>166.93</ele>
        <time>2014-07-09T17:07:41Z</time>
      </trkpt>
      <trkpt lat="47.14457" lon="3.01469">
        <ele>166.93</ele>
        <time>2014-07-09T17:08:02Z</time>
      </trkpt>
      <trkpt lat="47.14519" lon="3.01473">
        <ele>166.45</ele>
        <time>2014-07-09T17:08:19Z</time>
      </trkpt>
      <trkpt lat="47.14551" lon="3.01475">
        <ele>165.96</ele>
        <time>2014-07-09T17:08:35Z</time>
      </trkpt>
      <trkpt lat="47.14585" lon="3.01475">
        <ele>165.96</ele>
        <time>2014-07-09T17:08:51Z</time>
      </trkpt>
      <trkpt lat="47.14634" lon="3.01462">
        <ele>165.96</ele>
        <time>2014-07-09T17:09:06Z</time>
      </trkpt>
      <trkpt lat="47.14705" lon="3.01442">
        <ele>166.93</ele>
        <time>2014-07-09T17:09:26Z</time>
      </trkpt>
      <trkpt lat="47.14771" lon="3.01419">
        <ele>166.93</ele>
        <time>2014-07-09T17:09:43Z</time>
      </trkpt>
      <trkpt lat="47.14849" lon="3.01396">
        <ele>166.93</ele>
        <time>2014-07-09T17:10:03Z</time>
      </trkpt>
      <trkpt lat="47.14923" lon="3.01371">
        <ele>166.45</ele>
        <time>2014-07-09T17:10:21Z</time>
      </trkpt>
      <trkpt lat="47.14999" lon="3.01348">
        <ele>166.45</ele>
        <time>2014-07-09T17:10:39Z</time>
      </trkpt>
      <trkpt lat="47.15071" lon="3.01325">
        <ele>166.45</ele>
        <time>2014-07-09T17:10:56Z</time>
      </trkpt>
      <trkpt lat="47.15132" lon="3.01307">
        <ele>166.93</ele>
        <time>2014-07-09T17:11:11Z</time>
      </trkpt>
      <trkpt lat="47.152" lon="3.0132">
        <ele>166.93</ele>
        <time>2014-07-09T17:11:28Z</time>
      </trkpt>
      <trkpt lat="47.15278" lon="3.01329">
        <ele>166.93</ele>
        <time>2014-07-09T17:11:47Z</time>
      </trkpt>
      <trkpt lat="47.15328" lon="3.01322">
        <ele>167.41</ele>
        <time>2014-07-09T17:11:59Z</time>
      </trkpt>
      <trkpt lat="47.154" lon="3.01275">
        <ele>167.41</ele>
        <time>2014-07-09T17:12:18Z</time>
      </trkpt>
      <trkpt lat="47.1547" lon="3.01219">
        <ele>166.93</ele>
        <time>2014-07-09T17:12:37Z</time>
      </trkpt>
      <trkpt lat="47.15501" lon="3.012">
        <ele>166.93</ele>
        <time>2014-07-09T17:12:45Z</time>
      </trkpt>
      <trkpt lat="47.15559" lon="3.01191">
        <ele>166.93</ele>
        <time>2014-07-09T17:12:59Z</time>
      </trkpt>
      <trkpt lat="47.15607" lon="3.01196">
        <ele>167.41</ele>
        <time>2014-07-09T17:13:11Z</time>
      </trkpt>
      <trkpt lat="47.15677" lon="3.01177">
        <ele>166.93</ele>
        <time>2014-07-09T17:13:28Z</time>
      </trkpt>
      <trkpt lat="47.15727" lon="3.01161">
        <ele>166.93</ele>
        <time>2014-07-09T17:13:42Z</time>
      </trkpt>
      <trkpt lat="47.15776" lon="3.01143">
        <ele>167.41</ele>
        <time>2014-07-09T17:13:56Z</time>
      </trkpt>
      <trkpt lat="47.15835" lon="3.01124">
        <ele>167.41</ele>
        <time>2014-07-09T17:14:12Z</time>
      </trkpt>
      <trkpt lat="47.15909" lon="3.01101">
        <ele>167.41</ele>
        <time>2014-07-09T17:14:31Z</time>
      </trkpt>
      <trkpt lat="47.15969" lon="3.01091">
        <ele>166.93</ele>
        <time>2014-07-09T17:14:46Z</time>
      </trkpt>
      <trkpt lat="47.1605" lon="3.01076">
        <ele>166.93</ele>
        <time>2014-07-09T17:15:06Z</time>
      </trkpt>
      <trkpt lat="47.16136" lon="3.01061">
        <ele>166.45</ele>
        <time>2014-07-09T17:15:27Z</time>
      </trkpt>
      <trkpt lat="47.1621" lon="3.0105">
        <ele>166.93</ele>
        <time>2014-07-09T17:15:45Z</time>
      </trkpt>
      <trkpt lat="47.1629" lon="3.01036">
        <ele>166.93</ele>
        <time>2014-07-09T17:16:05Z</time>
      </trkpt>
      <trkpt lat="47.16352" lon="3.01027">
        <ele>166.93</ele>
        <time>2014-07-09T17:16:20Z</time>
      </trkpt>
      <trkpt lat="47.16425" lon="3.01014">
        <ele>166.93</ele>
        <time>2014-07-09T17:16:39Z</time>
      </trkpt>
      <trkpt lat="47.16441" lon="3.01011">
        <ele>166.45</ele>
        <time>2014-07-09T17:16:43Z</time>
      </trkpt>
      <trkpt lat="47.16523" lon="3.00997">
        <ele>166.45</ele>
        <time>2014-07-09T17:17:03Z</time>
      </trkpt>
      <trkpt lat="47.16612" lon="3.00983">
        <ele>166.45</ele>
        <time>2014-07-09T17:17:25Z</time>
      </trkpt>
      <trkpt lat="47.16691" lon="3.00969">
        <ele>166.45</ele>
        <time>2014-07-09T17:17:45Z</time>
      </trkpt>
      <trkpt lat="47.16776" lon="3.00955">
        <ele>166.93</ele>
        <time>2014-07-09T17:18:07Z</time>
      </trkpt>
      <trkpt lat="47.16845" lon="3.0094">
        <ele>166.45</ele>
        <time>2014-07-09T17:18:27Z</time>
      </trkpt>
      <trkpt lat="47.1686" lon="3.00937">
        <ele>166.45</ele>
        <time>2014-07-09T17:18:33Z</time>
      </trkpt>
      <trkpt lat="47.16879" lon="3.00935">
        <ele>166.45</ele>
        <time>2014-07-09T17:18:40Z</time>
      </trkpt>
      <trkpt lat="47.16944" lon="3.00925">
        <ele>166.45</ele>
        <time>2014-07-09T17:18:58Z</time>
      </trkpt>
      <trkpt lat="47.1703" lon="3.0091">
        <ele>166.45</ele>
        <time>2014-07-09T17:19:20Z</time>
      </trkpt>
      <trkpt lat="47.17092" lon="3.009">
        <ele>165.48</ele>
        <time>2014-07-09T17:19:37Z</time>
      </trkpt>
      <trkpt lat="47.17163" lon="3.00889">
        <ele>165.48</ele>
        <time>2014-07-09T17:19:57Z</time>
      </trkpt>
      <trkpt lat="47.17217" lon="3.0088">
        <ele>165.48</ele>
        <time>2014-07-09T17:20:13Z</time>
      </trkpt>
      <trkpt lat="47.17285" lon="3.00869">
        <ele>165.48</ele>
        <time>2014-07-09T17:20:31Z</time>
      </trkpt>
      <trkpt lat="47.17367" lon="3.00855">
        <ele>165.48</ele>
        <time>2014-07-09T17:20:52Z</time>
      </trkpt>
      <trkpt lat="47.17438" lon="3.00844">
        <ele>165.96</ele>
        <time>2014-07-09T17:21:11Z</time>
      </trkpt>
      <trkpt lat="47.17471" lon="3.00842">
        <ele>166.45</ele>
        <time>2014-07-09T17:21:24Z</time>
      </trkpt>
      <trkpt lat="47.17474" lon="3.00844">
        <ele>166.45</ele>
        <time>2014-07-09T17:21:28Z</time>
      </trkpt>
      <trkpt lat="47.17491" lon="3.00888">
        <ele>167.41</ele>
        <time>2014-07-09T17:21:42Z</time>
      </trkpt>
      <trkpt lat="47.17523" lon="3.00971">
        <ele>167.89</ele>
        <time>2014-07-09T17:22:02Z</time>
      </trkpt>
      <trkpt lat="47.17551" lon="3.01042">
        <ele>166.93</ele>
        <time>2014-07-09T17:22:19Z</time>
      </trkpt>
      <trkpt lat="47.17561" lon="3.01074">
        <ele>166.45</ele>
        <time>2014-07-09T17:22:31Z</time>
      </trkpt>
      <trkpt lat="47.17561" lon="3.01074">
        <ele>166.45</ele>
        <time>2014-07-09T17:22:53Z</time>
      </trkpt>
      <trkpt lat="47.1756" lon="3.01074">
        <ele>165.96</ele>
        <time>2014-07-09T17:23:22Z</time>
      </trkpt>
      <trkpt lat="47.17562" lon="3.01075">
        <ele>165.96</ele>
        <time>2014-07-09T17:23:45Z</time>
      </trkpt>
      <trkpt lat="47.17561" lon="3.01074">
        <ele>166.45</ele>
        <time>2014-07-09T17:24:20Z</time>
      </trkpt>
      <trkpt lat="47.17563" lon="3.01074">
        <ele>166.45</ele>
        <time>2014-07-09T17:24:54Z</time>
      </trkpt>
      <trkpt lat="47.17559" lon="3.01071">
        <ele>166.45</ele>
        <time>2014-07-09T17:25:00Z</time>
      </trkpt>
      <trkpt lat="47.17554" lon="3.01074">
        <ele>166.45</ele>
        <time>2014-07-09T17:25:05Z</time>
      </trkpt>
      <trkpt lat="47.17536" lon="3.01098">
        <ele>165</ele>
        <time>2014-07-09T17:25:25Z</time>
      </trkpt>
      <trkpt lat="47.17534" lon="3.01102">
        <ele>164.52</ele>
        <time>2014-07-09T17:25:29Z</time>
      </trkpt>
      <trkpt lat="47.17536" lon="3.01103">
        <ele>165</ele>
        <time>2014-07-09T17:25:40Z</time>
      </trkpt>
      <trkpt lat="47.17536" lon="3.011">
        <ele>165</ele>
        <time>2014-07-09T17:25:59Z</time>
      </trkpt>
      <trkpt lat="47.17536" lon="3.01101">
        <ele>164.52</ele>
        <time>2014-07-09T17:26:22Z</time>
      </trkpt>
      <trkpt lat="47.17537" lon="3.01102">
        <ele>164.52</ele>
        <time>2014-07-09T17:26:53Z</time>
      </trkpt>
      <trkpt lat="47.17536" lon="3.01099">
        <ele>165</ele>
        <time>2014-07-09T17:27:18Z</time>
      </trkpt>
      <trkpt lat="47.17534" lon="3.01096">
        <ele>165</ele>
        <time>2014-07-09T17:27:44Z</time>
      </trkpt>
      <trkpt lat="47.17534" lon="3.01095">
        <ele>165</ele>
        <time>2014-07-09T17:28:17Z</time>
      </trkpt>
      <trkpt lat="47.17534" lon="3.01093">
        <ele>165</ele>
        <time>2014-07-09T17:28:32Z</time>
      </trkpt>
      <trkpt lat="47.17538" lon="3.01099">
        <ele>165</ele>
        <time>2014-07-09T17:28:35Z</time>
      </trkpt>
      <trkpt lat="47.17541" lon="3.01107">
        <ele>165</ele>
        <time>2014-07-09T17:28:38Z</time>
      </trkpt>
      <trkpt lat="47.17547" lon="3.01113">
        <ele>164.52</ele>
        <time>2014-07-09T17:28:52Z</time>
      </trkpt>
      <trkpt lat="47.1755" lon="3.01112">
        <ele>165</ele>
        <time>2014-07-09T17:29:18Z</time>
      </trkpt>
      <trkpt lat="47.17562" lon="3.01108">
        <ele>165.48</ele>
        <time>2014-07-09T17:29:31Z</time>
      </trkpt>
      <trkpt lat="47.17559" lon="3.01108">
        <ele>165.48</ele>
        <time>2014-07-09T17:29:44Z</time>
      </trkpt>
      <trkpt lat="47.17558" lon="3.01112">
        <ele>165.48</ele>
        <time>2014-07-09T17:30:10Z</time>
      </trkpt>
      <trkpt lat="47.17556" lon="3.01118">
        <ele>165.96</ele>
        <time>2014-07-09T17:30:31Z</time>
      </trkpt>
      <trkpt lat="47.17556" lon="3.0112">
        <ele>165.48</ele>
        <time>2014-07-09T17:30:50Z</time>
      </trkpt>
      <trkpt lat="47.17556" lon="3.01117">
        <ele>165.96</ele>
        <time>2014-07-09T17:31:11Z</time>
      </trkpt>
      <trkpt lat="47.17555" lon="3.01118">
        <ele>165.96</ele>
        <time>2014-07-09T17:31:32Z</time>
      </trkpt>
      <trkpt lat="47.17556" lon="3.01113">
        <ele>165.96</ele>
        <time>2014-07-09T17:31:58Z</time>
      </trkpt>
      <trkpt lat="47.17556" lon="3.01114">
        <ele>166.45</ele>
        <time>2014-07-09T17:32:19Z</time>
      </trkpt>
      <trkpt lat="47.17555" lon="3.01119">
        <ele>166.45</ele>
        <time>2014-07-09T17:32:36Z</time>
      </trkpt>
      <trkpt lat="47.17556" lon="3.0112">
        <ele>166.45</ele>
        <time>2014-07-09T17:32:42Z</time>
      </trkpt>
      <trkpt lat="47.17555" lon="3.0112">
        <ele>205.38</ele>
        <time>2014-07-09T18:31:35Z</time>
      </trkpt>
      <trkpt lat="47.17536" lon="3.011">
        <ele>205.38</ele>
        <time>2014-07-09T18:31:36Z</time>
      </trkpt>
      <trkpt lat="47.17536" lon="3.01106">
        <ele>205.38</ele>
        <time>2014-07-09T18:32:05Z</time>
      </trkpt>
      <trkpt lat="47.17538" lon="3.01108">
        <ele>205.86</ele>
        <time>2014-07-09T18:32:14Z</time>
      </trkpt>
      <trkpt lat="47.17543" lon="3.0111">
        <ele>205.86</ele>
        <time>2014-07-09T18:32:33Z</time>
      </trkpt>
      <trkpt lat="47.17532" lon="3.01111">
        <ele>205.86</ele>
        <time>2014-07-09T18:32:58Z</time>
      </trkpt>
      <trkpt lat="47.17536" lon="3.01109">
        <ele>201.53</ele>
        <time>2014-07-09T18:33:17Z</time>
      </trkpt>
      <trkpt lat="47.17536" lon="3.0111">
        <ele>197.21</ele>
        <time>2014-07-09T18:33:20Z</time>
      </trkpt>
      <trkpt lat="47.17535" lon="3.0111">
        <ele>197.21</ele>
        <time>2014-07-09T18:33:21Z</time>
      </trkpt>
      <trkpt lat="47.17533" lon="3.01111">
        <ele>195.77</ele>
        <time>2014-07-09T18:33:23Z</time>
      </trkpt>
      <trkpt lat="47.17532" lon="3.01112">
        <ele>191.92</ele>
        <time>2014-07-09T18:33:25Z</time>
      </trkpt>
      <trkpt lat="47.17531" lon="3.01113">
        <ele>188.56</ele>
        <time>2014-07-09T18:33:28Z</time>
      </trkpt>
      <trkpt lat="47.17531" lon="3.01112">
        <ele>185.19</ele>
        <time>2014-07-09T18:33:31Z</time>
      </trkpt>
      <trkpt lat="47.17531" lon="3.01112">
        <ele>181.35</ele>
        <time>2014-07-09T18:33:35Z</time>
      </trkpt>
      <trkpt lat="47.17531" lon="3.01111">
        <ele>177.98</ele>
        <time>2014-07-09T18:33:39Z</time>
      </trkpt>
      <trkpt lat="47.17532" lon="3.01112">
        <ele>175.58</ele>
        <time>2014-07-09T18:33:42Z</time>
      </trkpt>
    </trkseg>
  </trk>
</gpx>